<?xml version="1.0" encoding="UTF-8" standalone="no" ?>
<gpx xmlns="http://www.topografix.com/GPX/1/1" xmlns:xsi="http://www.w3.org/2001/XMLSchema-instance" xsi:schemaLocation="http://www.topografix.com/GPX/1/1 http://www.topografix.com/GPX/1/1/gpx.xsd" version="1.1" creator="VisuGPX - https://www.visugpx.com">
  <metadata>
    <name>Balaing à partir du sanctuaire de Ste Quitterie à Sauvagnon 64230</name>
    <desc><![CDATA[Ample boucle campagnarde sans difficulté. Les tronçons bitumés requièrent bien sûr de la vigilance, mais pas de panique : je n'ai rencontré qu'un seul véhicule un jour de semaine. Le petit lac a beaucoup de charme, c'est une émeraude. Pour le lac de Balaing, qui sert pour l'irrigation, ça dépend des saisons...]]></desc>
  </metadata>
  <trk>
    <name><![CDATA[Balaing 26 08 31]]></name>
    <trkseg>
      <trkpt lat="43.42527" lon="-0.37345">
        <ele>279.2</ele>
        <time>2026-08-31T08:34:36Z</time>
      </trkpt>
      <trkpt lat="43.42527" lon="-0.37345">
        <ele>279.2</ele>
        <time>2026-08-31T08:34:36Z</time>
      </trkpt>
      <trkpt lat="43.42527" lon="-0.37345">
        <ele>279.2</ele>
        <time>2026-08-31T08:34:37Z</time>
      </trkpt>
      <trkpt lat="43.42527" lon="-0.37345">
        <ele>279.2</ele>
        <time>2026-08-31T08:34:38Z</time>
      </trkpt>
      <trkpt lat="43.42527" lon="-0.37345">
        <ele>279.2</ele>
        <time>2026-08-31T08:34:38Z</time>
      </trkpt>
      <trkpt lat="43.42527" lon="-0.37345">
        <ele>279.2</ele>
        <time>2026-08-31T08:34:39Z</time>
      </trkpt>
      <trkpt lat="43.42527" lon="-0.37345">
        <ele>279.2</ele>
        <time>2026-08-31T08:34:39Z</time>
      </trkpt>
      <trkpt lat="43.42528" lon="-0.37345">
        <ele>278.2</ele>
        <time>2026-08-31T08:34:40Z</time>
      </trkpt>
      <trkpt lat="43.42528" lon="-0.37345">
        <ele>278.2</ele>
        <time>2026-08-31T08:34:41Z</time>
      </trkpt>
      <trkpt lat="43.42528" lon="-0.37344">
        <ele>278.2</ele>
        <time>2026-08-31T08:34:41Z</time>
      </trkpt>
      <trkpt lat="43.42528" lon="-0.37343">
        <ele>277.2</ele>
        <time>2026-08-31T08:34:42Z</time>
      </trkpt>
      <trkpt lat="43.42528" lon="-0.37343">
        <ele>277.2</ele>
        <time>2026-08-31T08:34:43Z</time>
      </trkpt>
      <trkpt lat="43.42529" lon="-0.37343">
        <ele>276.2</ele>
        <time>2026-08-31T08:34:43Z</time>
      </trkpt>
      <trkpt lat="43.42529" lon="-0.37342">
        <ele>276.2</ele>
        <time>2026-08-31T08:34:44Z</time>
      </trkpt>
      <trkpt lat="43.42529" lon="-0.37342">
        <ele>276.2</ele>
        <time>2026-08-31T08:34:44Z</time>
      </trkpt>
      <trkpt lat="43.42529" lon="-0.37342">
        <ele>277.2</ele>
        <time>2026-08-31T08:34:45Z</time>
      </trkpt>
      <trkpt lat="43.4253" lon="-0.37341">
        <ele>277.2</ele>
        <time>2026-08-31T08:34:46Z</time>
      </trkpt>
      <trkpt lat="43.42529" lon="-0.37341">
        <ele>277.2</ele>
        <time>2026-08-31T08:34:46Z</time>
      </trkpt>
      <trkpt lat="43.4253" lon="-0.37341">
        <ele>278.2</ele>
        <time>2026-08-31T08:34:47Z</time>
      </trkpt>
      <trkpt lat="43.4253" lon="-0.37341">
        <ele>278.2</ele>
        <time>2026-08-31T08:34:47Z</time>
      </trkpt>
      <trkpt lat="43.42532" lon="-0.3734">
        <ele>277.2</ele>
        <time>2026-08-31T08:34:49Z</time>
      </trkpt>
      <trkpt lat="43.42533" lon="-0.3734">
        <ele>277.2</ele>
        <time>2026-08-31T08:34:50Z</time>
      </trkpt>
      <trkpt lat="43.42533" lon="-0.37341">
        <ele>277.2</ele>
        <time>2026-08-31T08:34:51Z</time>
      </trkpt>
      <trkpt lat="43.42534" lon="-0.37341">
        <ele>277.2</ele>
        <time>2026-08-31T08:34:51Z</time>
      </trkpt>
      <trkpt lat="43.42534" lon="-0.37341">
        <ele>277.2</ele>
        <time>2026-08-31T08:34:52Z</time>
      </trkpt>
      <trkpt lat="43.42535" lon="-0.3734">
        <ele>277.2</ele>
        <time>2026-08-31T08:34:52Z</time>
      </trkpt>
      <trkpt lat="43.42536" lon="-0.3734">
        <ele>276.2</ele>
        <time>2026-08-31T08:34:53Z</time>
      </trkpt>
      <trkpt lat="43.42536" lon="-0.3734">
        <ele>276.2</ele>
        <time>2026-08-31T08:34:53Z</time>
      </trkpt>
      <trkpt lat="43.42537" lon="-0.37339">
        <ele>276.2</ele>
        <time>2026-08-31T08:34:54Z</time>
      </trkpt>
      <trkpt lat="43.42537" lon="-0.37339">
        <ele>276.2</ele>
        <time>2026-08-31T08:34:55Z</time>
      </trkpt>
      <trkpt lat="43.42538" lon="-0.37339">
        <ele>276.2</ele>
        <time>2026-08-31T08:34:55Z</time>
      </trkpt>
      <trkpt lat="43.42539" lon="-0.37339">
        <ele>275.2</ele>
        <time>2026-08-31T08:34:56Z</time>
      </trkpt>
      <trkpt lat="43.42539" lon="-0.37339">
        <ele>275.2</ele>
        <time>2026-08-31T08:34:56Z</time>
      </trkpt>
      <trkpt lat="43.4254" lon="-0.37339">
        <ele>275.2</ele>
        <time>2026-08-31T08:34:57Z</time>
      </trkpt>
      <trkpt lat="43.42541" lon="-0.37339">
        <ele>275.2</ele>
        <time>2026-08-31T08:34:57Z</time>
      </trkpt>
      <trkpt lat="43.42542" lon="-0.3734">
        <ele>276.2</ele>
        <time>2026-08-31T08:34:58Z</time>
      </trkpt>
      <trkpt lat="43.42543" lon="-0.3734">
        <ele>276.2</ele>
        <time>2026-08-31T08:34:59Z</time>
      </trkpt>
      <trkpt lat="43.42543" lon="-0.3734">
        <ele>276.2</ele>
        <time>2026-08-31T08:34:59Z</time>
      </trkpt>
      <trkpt lat="43.42544" lon="-0.3734">
        <ele>277.2</ele>
        <time>2026-08-31T08:35:00Z</time>
      </trkpt>
      <trkpt lat="43.42545" lon="-0.3734">
        <ele>277.2</ele>
        <time>2026-08-31T08:35:00Z</time>
      </trkpt>
      <trkpt lat="43.42545" lon="-0.3734">
        <ele>276.2</ele>
        <time>2026-08-31T08:35:01Z</time>
      </trkpt>
      <trkpt lat="43.42546" lon="-0.3734">
        <ele>276.2</ele>
        <time>2026-08-31T08:35:02Z</time>
      </trkpt>
      <trkpt lat="43.42547" lon="-0.3734">
        <ele>276.2</ele>
        <time>2026-08-31T08:35:02Z</time>
      </trkpt>
      <trkpt lat="43.42548" lon="-0.37339">
        <ele>275.2</ele>
        <time>2026-08-31T08:35:03Z</time>
      </trkpt>
      <trkpt lat="43.42548" lon="-0.37338">
        <ele>275.2</ele>
        <time>2026-08-31T08:35:04Z</time>
      </trkpt>
      <trkpt lat="43.42549" lon="-0.37338">
        <ele>275.2</ele>
        <time>2026-08-31T08:35:04Z</time>
      </trkpt>
      <trkpt lat="43.42549" lon="-0.37338">
        <ele>275.2</ele>
        <time>2026-08-31T08:35:05Z</time>
      </trkpt>
      <trkpt lat="43.4255" lon="-0.37337">
        <ele>275.2</ele>
        <time>2026-08-31T08:35:06Z</time>
      </trkpt>
      <trkpt lat="43.4255" lon="-0.37337">
        <ele>275.2</ele>
        <time>2026-08-31T08:35:06Z</time>
      </trkpt>
      <trkpt lat="43.4255" lon="-0.37336">
        <ele>275.2</ele>
        <time>2026-08-31T08:35:07Z</time>
      </trkpt>
      <trkpt lat="43.42551" lon="-0.37336">
        <ele>275.2</ele>
        <time>2026-08-31T08:35:07Z</time>
      </trkpt>
      <trkpt lat="43.42552" lon="-0.37336">
        <ele>275.2</ele>
        <time>2026-08-31T08:35:08Z</time>
      </trkpt>
      <trkpt lat="43.42552" lon="-0.37335">
        <ele>275.2</ele>
        <time>2026-08-31T08:35:09Z</time>
      </trkpt>
      <trkpt lat="43.42553" lon="-0.37335">
        <ele>275.2</ele>
        <time>2026-08-31T08:35:09Z</time>
      </trkpt>
      <trkpt lat="43.42553" lon="-0.37335">
        <ele>275.2</ele>
        <time>2026-08-31T08:35:10Z</time>
      </trkpt>
      <trkpt lat="43.42554" lon="-0.37335">
        <ele>275.2</ele>
        <time>2026-08-31T08:35:10Z</time>
      </trkpt>
      <trkpt lat="43.42555" lon="-0.37335">
        <ele>274.2</ele>
        <time>2026-08-31T08:35:11Z</time>
      </trkpt>
      <trkpt lat="43.42555" lon="-0.37335">
        <ele>274.2</ele>
        <time>2026-08-31T08:35:11Z</time>
      </trkpt>
      <trkpt lat="43.42556" lon="-0.37336">
        <ele>274.2</ele>
        <time>2026-08-31T08:35:12Z</time>
      </trkpt>
      <trkpt lat="43.42557" lon="-0.37336">
        <ele>274.2</ele>
        <time>2026-08-31T08:35:13Z</time>
      </trkpt>
      <trkpt lat="43.42557" lon="-0.37336">
        <ele>274.2</ele>
        <time>2026-08-31T08:35:13Z</time>
      </trkpt>
      <trkpt lat="43.42558" lon="-0.37336">
        <ele>274.2</ele>
        <time>2026-08-31T08:35:14Z</time>
      </trkpt>
      <trkpt lat="43.42558" lon="-0.37336">
        <ele>274.2</ele>
        <time>2026-08-31T08:35:14Z</time>
      </trkpt>
      <trkpt lat="43.42559" lon="-0.37337">
        <ele>274.2</ele>
        <time>2026-08-31T08:35:15Z</time>
      </trkpt>
      <trkpt lat="43.42559" lon="-0.37337">
        <ele>275.2</ele>
        <time>2026-08-31T08:35:16Z</time>
      </trkpt>
      <trkpt lat="43.4256" lon="-0.37338">
        <ele>275.2</ele>
        <time>2026-08-31T08:35:16Z</time>
      </trkpt>
      <trkpt lat="43.4256" lon="-0.37338">
        <ele>275.2</ele>
        <time>2026-08-31T08:35:17Z</time>
      </trkpt>
      <trkpt lat="43.42561" lon="-0.37339">
        <ele>275.2</ele>
        <time>2026-08-31T08:35:17Z</time>
      </trkpt>
      <trkpt lat="43.42562" lon="-0.37339">
        <ele>275.2</ele>
        <time>2026-08-31T08:35:18Z</time>
      </trkpt>
      <trkpt lat="43.42562" lon="-0.3734">
        <ele>275.2</ele>
        <time>2026-08-31T08:35:19Z</time>
      </trkpt>
      <trkpt lat="43.42563" lon="-0.3734">
        <ele>275.2</ele>
        <time>2026-08-31T08:35:19Z</time>
      </trkpt>
      <trkpt lat="43.42564" lon="-0.3734">
        <ele>274.2</ele>
        <time>2026-08-31T08:35:20Z</time>
      </trkpt>
      <trkpt lat="43.42565" lon="-0.3734">
        <ele>274.2</ele>
        <time>2026-08-31T08:35:20Z</time>
      </trkpt>
      <trkpt lat="43.42565" lon="-0.3734">
        <ele>275.2</ele>
        <time>2026-08-31T08:35:21Z</time>
      </trkpt>
      <trkpt lat="43.42566" lon="-0.37339">
        <ele>275.2</ele>
        <time>2026-08-31T08:35:22Z</time>
      </trkpt>
      <trkpt lat="43.42567" lon="-0.37339">
        <ele>275.2</ele>
        <time>2026-08-31T08:35:22Z</time>
      </trkpt>
      <trkpt lat="43.42567" lon="-0.37339">
        <ele>274.2</ele>
        <time>2026-08-31T08:35:23Z</time>
      </trkpt>
      <trkpt lat="43.42568" lon="-0.37339">
        <ele>274.2</ele>
        <time>2026-08-31T08:35:23Z</time>
      </trkpt>
      <trkpt lat="43.42569" lon="-0.37339">
        <ele>274.2</ele>
        <time>2026-08-31T08:35:24Z</time>
      </trkpt>
      <trkpt lat="43.42569" lon="-0.37338">
        <ele>274.2</ele>
        <time>2026-08-31T08:35:24Z</time>
      </trkpt>
      <trkpt lat="43.4257" lon="-0.37338">
        <ele>274.2</ele>
        <time>2026-08-31T08:35:25Z</time>
      </trkpt>
      <trkpt lat="43.4257" lon="-0.37338">
        <ele>274.2</ele>
        <time>2026-08-31T08:35:25Z</time>
      </trkpt>
      <trkpt lat="43.42571" lon="-0.37337">
        <ele>275.2</ele>
        <time>2026-08-31T08:35:26Z</time>
      </trkpt>
      <trkpt lat="43.42572" lon="-0.37337">
        <ele>275.2</ele>
        <time>2026-08-31T08:35:27Z</time>
      </trkpt>
      <trkpt lat="43.42572" lon="-0.37337">
        <ele>275.2</ele>
        <time>2026-08-31T08:35:27Z</time>
      </trkpt>
      <trkpt lat="43.42572" lon="-0.37336">
        <ele>275.2</ele>
        <time>2026-08-31T08:35:28Z</time>
      </trkpt>
      <trkpt lat="43.42573" lon="-0.37336">
        <ele>275.2</ele>
        <time>2026-08-31T08:35:28Z</time>
      </trkpt>
      <trkpt lat="43.42573" lon="-0.37335">
        <ele>276.2</ele>
        <time>2026-08-31T08:35:29Z</time>
      </trkpt>
      <trkpt lat="43.42574" lon="-0.37334">
        <ele>276.2</ele>
        <time>2026-08-31T08:35:30Z</time>
      </trkpt>
      <trkpt lat="43.42575" lon="-0.37334">
        <ele>276.2</ele>
        <time>2026-08-31T08:35:30Z</time>
      </trkpt>
      <trkpt lat="43.42575" lon="-0.37333">
        <ele>276.2</ele>
        <time>2026-08-31T08:35:31Z</time>
      </trkpt>
      <trkpt lat="43.42575" lon="-0.37333">
        <ele>276.2</ele>
        <time>2026-08-31T08:35:31Z</time>
      </trkpt>
      <trkpt lat="43.42576" lon="-0.37332">
        <ele>276.2</ele>
        <time>2026-08-31T08:35:32Z</time>
      </trkpt>
      <trkpt lat="43.42577" lon="-0.37332">
        <ele>276.2</ele>
        <time>2026-08-31T08:35:32Z</time>
      </trkpt>
      <trkpt lat="43.42577" lon="-0.37331">
        <ele>276.2</ele>
        <time>2026-08-31T08:35:33Z</time>
      </trkpt>
      <trkpt lat="43.42578" lon="-0.37331">
        <ele>276.2</ele>
        <time>2026-08-31T08:35:33Z</time>
      </trkpt>
      <trkpt lat="43.42578" lon="-0.3733">
        <ele>276.2</ele>
        <time>2026-08-31T08:35:34Z</time>
      </trkpt>
      <trkpt lat="43.42579" lon="-0.3733">
        <ele>276.2</ele>
        <time>2026-08-31T08:35:35Z</time>
      </trkpt>
      <trkpt lat="43.4258" lon="-0.3733">
        <ele>275.2</ele>
        <time>2026-08-31T08:35:35Z</time>
      </trkpt>
      <trkpt lat="43.4258" lon="-0.37329">
        <ele>275.2</ele>
        <time>2026-08-31T08:35:36Z</time>
      </trkpt>
      <trkpt lat="43.42581" lon="-0.37329">
        <ele>275.2</ele>
        <time>2026-08-31T08:35:36Z</time>
      </trkpt>
      <trkpt lat="43.42581" lon="-0.37328">
        <ele>274.2</ele>
        <time>2026-08-31T08:35:37Z</time>
      </trkpt>
      <trkpt lat="43.42582" lon="-0.37328">
        <ele>274.2</ele>
        <time>2026-08-31T08:35:37Z</time>
      </trkpt>
      <trkpt lat="43.42583" lon="-0.37328">
        <ele>274.2</ele>
        <time>2026-08-31T08:35:38Z</time>
      </trkpt>
      <trkpt lat="43.42583" lon="-0.37328">
        <ele>274.2</ele>
        <time>2026-08-31T08:35:38Z</time>
      </trkpt>
      <trkpt lat="43.42584" lon="-0.37327">
        <ele>274.2</ele>
        <time>2026-08-31T08:35:39Z</time>
      </trkpt>
      <trkpt lat="43.42585" lon="-0.37327">
        <ele>274.2</ele>
        <time>2026-08-31T08:35:40Z</time>
      </trkpt>
      <trkpt lat="43.42586" lon="-0.37327">
        <ele>275.2</ele>
        <time>2026-08-31T08:35:40Z</time>
      </trkpt>
      <trkpt lat="43.42586" lon="-0.37327">
        <ele>275.2</ele>
        <time>2026-08-31T08:35:41Z</time>
      </trkpt>
      <trkpt lat="43.42587" lon="-0.37326">
        <ele>275.2</ele>
        <time>2026-08-31T08:35:41Z</time>
      </trkpt>
      <trkpt lat="43.42588" lon="-0.37326">
        <ele>275.2</ele>
        <time>2026-08-31T08:35:42Z</time>
      </trkpt>
      <trkpt lat="43.42588" lon="-0.37326">
        <ele>275.2</ele>
        <time>2026-08-31T08:35:42Z</time>
      </trkpt>
      <trkpt lat="43.42589" lon="-0.37326">
        <ele>275.2</ele>
        <time>2026-08-31T08:35:43Z</time>
      </trkpt>
      <trkpt lat="43.4259" lon="-0.37325">
        <ele>275.2</ele>
        <time>2026-08-31T08:35:43Z</time>
      </trkpt>
      <trkpt lat="43.4259" lon="-0.37325">
        <ele>275.2</ele>
        <time>2026-08-31T08:35:44Z</time>
      </trkpt>
      <trkpt lat="43.42591" lon="-0.37325">
        <ele>275.2</ele>
        <time>2026-08-31T08:35:45Z</time>
      </trkpt>
      <trkpt lat="43.42592" lon="-0.37324">
        <ele>275.2</ele>
        <time>2026-08-31T08:35:45Z</time>
      </trkpt>
      <trkpt lat="43.42592" lon="-0.37324">
        <ele>275.2</ele>
        <time>2026-08-31T08:35:46Z</time>
      </trkpt>
      <trkpt lat="43.42593" lon="-0.37324">
        <ele>274.2</ele>
        <time>2026-08-31T08:35:46Z</time>
      </trkpt>
      <trkpt lat="43.42594" lon="-0.37323">
        <ele>274.2</ele>
        <time>2026-08-31T08:35:47Z</time>
      </trkpt>
      <trkpt lat="43.42594" lon="-0.37323">
        <ele>274.2</ele>
        <time>2026-08-31T08:35:47Z</time>
      </trkpt>
      <trkpt lat="43.42596" lon="-0.37323">
        <ele>274.2</ele>
        <time>2026-08-31T08:35:49Z</time>
      </trkpt>
      <trkpt lat="43.42597" lon="-0.37322">
        <ele>274.2</ele>
        <time>2026-08-31T08:35:49Z</time>
      </trkpt>
      <trkpt lat="43.42598" lon="-0.37323">
        <ele>274.2</ele>
        <time>2026-08-31T08:35:50Z</time>
      </trkpt>
      <trkpt lat="43.42598" lon="-0.37322">
        <ele>274.2</ele>
        <time>2026-08-31T08:35:51Z</time>
      </trkpt>
      <trkpt lat="43.42599" lon="-0.37322">
        <ele>275.2</ele>
        <time>2026-08-31T08:35:51Z</time>
      </trkpt>
      <trkpt lat="43.426" lon="-0.37322">
        <ele>275.2</ele>
        <time>2026-08-31T08:35:52Z</time>
      </trkpt>
      <trkpt lat="43.426" lon="-0.37322">
        <ele>275.2</ele>
        <time>2026-08-31T08:35:52Z</time>
      </trkpt>
      <trkpt lat="43.42601" lon="-0.37322">
        <ele>274.2</ele>
        <time>2026-08-31T08:35:53Z</time>
      </trkpt>
      <trkpt lat="43.42602" lon="-0.37322">
        <ele>274.2</ele>
        <time>2026-08-31T08:35:53Z</time>
      </trkpt>
      <trkpt lat="43.42602" lon="-0.37322">
        <ele>274.2</ele>
        <time>2026-08-31T08:35:54Z</time>
      </trkpt>
      <trkpt lat="43.42603" lon="-0.37322">
        <ele>274.2</ele>
        <time>2026-08-31T08:35:54Z</time>
      </trkpt>
      <trkpt lat="43.42604" lon="-0.37322">
        <ele>274.2</ele>
        <time>2026-08-31T08:35:55Z</time>
      </trkpt>
      <trkpt lat="43.42604" lon="-0.37322">
        <ele>274.2</ele>
        <time>2026-08-31T08:35:56Z</time>
      </trkpt>
      <trkpt lat="43.42605" lon="-0.37322">
        <ele>274.2</ele>
        <time>2026-08-31T08:35:56Z</time>
      </trkpt>
      <trkpt lat="43.42606" lon="-0.37322">
        <ele>274.2</ele>
        <time>2026-08-31T08:35:57Z</time>
      </trkpt>
      <trkpt lat="43.42607" lon="-0.37322">
        <ele>274.2</ele>
        <time>2026-08-31T08:35:57Z</time>
      </trkpt>
      <trkpt lat="43.42607" lon="-0.37322">
        <ele>274.2</ele>
        <time>2026-08-31T08:35:58Z</time>
      </trkpt>
      <trkpt lat="43.42608" lon="-0.37322">
        <ele>274.2</ele>
        <time>2026-08-31T08:35:58Z</time>
      </trkpt>
      <trkpt lat="43.42608" lon="-0.37322">
        <ele>274.2</ele>
        <time>2026-08-31T08:35:59Z</time>
      </trkpt>
      <trkpt lat="43.42609" lon="-0.37322">
        <ele>274.2</ele>
        <time>2026-08-31T08:36:00Z</time>
      </trkpt>
      <trkpt lat="43.4261" lon="-0.37323">
        <ele>275.2</ele>
        <time>2026-08-31T08:36:00Z</time>
      </trkpt>
      <trkpt lat="43.4261" lon="-0.37323">
        <ele>275.2</ele>
        <time>2026-08-31T08:36:01Z</time>
      </trkpt>
      <trkpt lat="43.42611" lon="-0.37322">
        <ele>275.2</ele>
        <time>2026-08-31T08:36:01Z</time>
      </trkpt>
      <trkpt lat="43.42612" lon="-0.37322">
        <ele>275.2</ele>
        <time>2026-08-31T08:36:02Z</time>
      </trkpt>
      <trkpt lat="43.42613" lon="-0.37322">
        <ele>275.2</ele>
        <time>2026-08-31T08:36:02Z</time>
      </trkpt>
      <trkpt lat="43.42613" lon="-0.37322">
        <ele>276.2</ele>
        <time>2026-08-31T08:36:03Z</time>
      </trkpt>
      <trkpt lat="43.42614" lon="-0.37321">
        <ele>276.2</ele>
        <time>2026-08-31T08:36:04Z</time>
      </trkpt>
      <trkpt lat="43.42614" lon="-0.3732">
        <ele>276.2</ele>
        <time>2026-08-31T08:36:04Z</time>
      </trkpt>
      <trkpt lat="43.42615" lon="-0.37319">
        <ele>276.2</ele>
        <time>2026-08-31T08:36:05Z</time>
      </trkpt>
      <trkpt lat="43.42615" lon="-0.37319">
        <ele>276.2</ele>
        <time>2026-08-31T08:36:06Z</time>
      </trkpt>
      <trkpt lat="43.42616" lon="-0.37318">
        <ele>276.2</ele>
        <time>2026-08-31T08:36:06Z</time>
      </trkpt>
      <trkpt lat="43.42617" lon="-0.37318">
        <ele>277.2</ele>
        <time>2026-08-31T08:36:07Z</time>
      </trkpt>
      <trkpt lat="43.42617" lon="-0.37318">
        <ele>276.2</ele>
        <time>2026-08-31T08:36:08Z</time>
      </trkpt>
      <trkpt lat="43.42617" lon="-0.37317">
        <ele>276.2</ele>
        <time>2026-08-31T08:36:08Z</time>
      </trkpt>
      <trkpt lat="43.42618" lon="-0.37317">
        <ele>276.2</ele>
        <time>2026-08-31T08:36:09Z</time>
      </trkpt>
      <trkpt lat="43.42618" lon="-0.37317">
        <ele>276.2</ele>
        <time>2026-08-31T08:36:10Z</time>
      </trkpt>
      <trkpt lat="43.42619" lon="-0.37317">
        <ele>276.2</ele>
        <time>2026-08-31T08:36:10Z</time>
      </trkpt>
      <trkpt lat="43.4262" lon="-0.37317">
        <ele>276.2</ele>
        <time>2026-08-31T08:36:11Z</time>
      </trkpt>
      <trkpt lat="43.4262" lon="-0.37317">
        <ele>276.2</ele>
        <time>2026-08-31T08:36:11Z</time>
      </trkpt>
      <trkpt lat="43.42621" lon="-0.37317">
        <ele>275.2</ele>
        <time>2026-08-31T08:36:12Z</time>
      </trkpt>
      <trkpt lat="43.42622" lon="-0.37317">
        <ele>275.2</ele>
        <time>2026-08-31T08:36:12Z</time>
      </trkpt>
      <trkpt lat="43.42623" lon="-0.37317">
        <ele>275.2</ele>
        <time>2026-08-31T08:36:13Z</time>
      </trkpt>
      <trkpt lat="43.42623" lon="-0.37316">
        <ele>275.2</ele>
        <time>2026-08-31T08:36:13Z</time>
      </trkpt>
      <trkpt lat="43.42624" lon="-0.37316">
        <ele>275.2</ele>
        <time>2026-08-31T08:36:14Z</time>
      </trkpt>
      <trkpt lat="43.42625" lon="-0.37316">
        <ele>275.2</ele>
        <time>2026-08-31T08:36:14Z</time>
      </trkpt>
      <trkpt lat="43.42626" lon="-0.37315">
        <ele>275.2</ele>
        <time>2026-08-31T08:36:15Z</time>
      </trkpt>
      <trkpt lat="43.42626" lon="-0.37315">
        <ele>275.2</ele>
        <time>2026-08-31T08:36:16Z</time>
      </trkpt>
      <trkpt lat="43.42627" lon="-0.37315">
        <ele>275.2</ele>
        <time>2026-08-31T08:36:16Z</time>
      </trkpt>
      <trkpt lat="43.42627" lon="-0.37314">
        <ele>275.2</ele>
        <time>2026-08-31T08:36:17Z</time>
      </trkpt>
      <trkpt lat="43.42628" lon="-0.37313">
        <ele>275.2</ele>
        <time>2026-08-31T08:36:17Z</time>
      </trkpt>
      <trkpt lat="43.42629" lon="-0.37313">
        <ele>275.2</ele>
        <time>2026-08-31T08:36:18Z</time>
      </trkpt>
      <trkpt lat="43.4263" lon="-0.37313">
        <ele>275.2</ele>
        <time>2026-08-31T08:36:18Z</time>
      </trkpt>
      <trkpt lat="43.4263" lon="-0.37312">
        <ele>275.2</ele>
        <time>2026-08-31T08:36:19Z</time>
      </trkpt>
      <trkpt lat="43.42631" lon="-0.37312">
        <ele>275.2</ele>
        <time>2026-08-31T08:36:19Z</time>
      </trkpt>
      <trkpt lat="43.42631" lon="-0.37311">
        <ele>275.2</ele>
        <time>2026-08-31T08:36:20Z</time>
      </trkpt>
      <trkpt lat="43.42632" lon="-0.37311">
        <ele>275.2</ele>
        <time>2026-08-31T08:36:20Z</time>
      </trkpt>
      <trkpt lat="43.42633" lon="-0.3731">
        <ele>276.2</ele>
        <time>2026-08-31T08:36:21Z</time>
      </trkpt>
      <trkpt lat="43.42633" lon="-0.3731">
        <ele>276.2</ele>
        <time>2026-08-31T08:36:22Z</time>
      </trkpt>
      <trkpt lat="43.42634" lon="-0.37309">
        <ele>276.2</ele>
        <time>2026-08-31T08:36:22Z</time>
      </trkpt>
      <trkpt lat="43.42635" lon="-0.37309">
        <ele>276.2</ele>
        <time>2026-08-31T08:36:23Z</time>
      </trkpt>
      <trkpt lat="43.42635" lon="-0.37309">
        <ele>276.2</ele>
        <time>2026-08-31T08:36:23Z</time>
      </trkpt>
      <trkpt lat="43.42636" lon="-0.37309">
        <ele>276.2</ele>
        <time>2026-08-31T08:36:24Z</time>
      </trkpt>
      <trkpt lat="43.42637" lon="-0.37308">
        <ele>276.2</ele>
        <time>2026-08-31T08:36:24Z</time>
      </trkpt>
      <trkpt lat="43.42637" lon="-0.37308">
        <ele>276.2</ele>
        <time>2026-08-31T08:36:25Z</time>
      </trkpt>
      <trkpt lat="43.42638" lon="-0.37307">
        <ele>276.2</ele>
        <time>2026-08-31T08:36:25Z</time>
      </trkpt>
      <trkpt lat="43.42639" lon="-0.37307">
        <ele>276.2</ele>
        <time>2026-08-31T08:36:26Z</time>
      </trkpt>
      <trkpt lat="43.42639" lon="-0.37306">
        <ele>276.2</ele>
        <time>2026-08-31T08:36:27Z</time>
      </trkpt>
      <trkpt lat="43.42641" lon="-0.37305">
        <ele>276.2</ele>
        <time>2026-08-31T08:36:28Z</time>
      </trkpt>
      <trkpt lat="43.42641" lon="-0.37305">
        <ele>275.2</ele>
        <time>2026-08-31T08:36:28Z</time>
      </trkpt>
      <trkpt lat="43.42642" lon="-0.37304">
        <ele>275.2</ele>
        <time>2026-08-31T08:36:29Z</time>
      </trkpt>
      <trkpt lat="43.42642" lon="-0.37304">
        <ele>276.2</ele>
        <time>2026-08-31T08:36:29Z</time>
      </trkpt>
      <trkpt lat="43.42643" lon="-0.37303">
        <ele>275.2</ele>
        <time>2026-08-31T08:36:30Z</time>
      </trkpt>
      <trkpt lat="43.42643" lon="-0.37303">
        <ele>275.2</ele>
        <time>2026-08-31T08:36:30Z</time>
      </trkpt>
      <trkpt lat="43.42644" lon="-0.37302">
        <ele>275.2</ele>
        <time>2026-08-31T08:36:31Z</time>
      </trkpt>
      <trkpt lat="43.42645" lon="-0.37302">
        <ele>275.2</ele>
        <time>2026-08-31T08:36:32Z</time>
      </trkpt>
      <trkpt lat="43.42645" lon="-0.37301">
        <ele>275.2</ele>
        <time>2026-08-31T08:36:32Z</time>
      </trkpt>
      <trkpt lat="43.42646" lon="-0.37301">
        <ele>275.2</ele>
        <time>2026-08-31T08:36:33Z</time>
      </trkpt>
      <trkpt lat="43.42646" lon="-0.37301">
        <ele>275.2</ele>
        <time>2026-08-31T08:36:33Z</time>
      </trkpt>
      <trkpt lat="43.42647" lon="-0.373">
        <ele>275.2</ele>
        <time>2026-08-31T08:36:34Z</time>
      </trkpt>
      <trkpt lat="43.42647" lon="-0.37299">
        <ele>275.2</ele>
        <time>2026-08-31T08:36:34Z</time>
      </trkpt>
      <trkpt lat="43.42648" lon="-0.37299">
        <ele>275.2</ele>
        <time>2026-08-31T08:36:35Z</time>
      </trkpt>
      <trkpt lat="43.42648" lon="-0.37298">
        <ele>275.2</ele>
        <time>2026-08-31T08:36:36Z</time>
      </trkpt>
      <trkpt lat="43.42649" lon="-0.37298">
        <ele>275.2</ele>
        <time>2026-08-31T08:36:36Z</time>
      </trkpt>
      <trkpt lat="43.42649" lon="-0.37297">
        <ele>275.2</ele>
        <time>2026-08-31T08:36:37Z</time>
      </trkpt>
      <trkpt lat="43.4265" lon="-0.37297">
        <ele>275.2</ele>
        <time>2026-08-31T08:36:37Z</time>
      </trkpt>
      <trkpt lat="43.4265" lon="-0.37296">
        <ele>275.2</ele>
        <time>2026-08-31T08:36:38Z</time>
      </trkpt>
      <trkpt lat="43.42651" lon="-0.37296">
        <ele>275.2</ele>
        <time>2026-08-31T08:36:38Z</time>
      </trkpt>
      <trkpt lat="43.42651" lon="-0.37295">
        <ele>275.2</ele>
        <time>2026-08-31T08:36:39Z</time>
      </trkpt>
      <trkpt lat="43.42652" lon="-0.37295">
        <ele>275.2</ele>
        <time>2026-08-31T08:36:39Z</time>
      </trkpt>
      <trkpt lat="43.42653" lon="-0.37294">
        <ele>276.2</ele>
        <time>2026-08-31T08:36:40Z</time>
      </trkpt>
      <trkpt lat="43.42653" lon="-0.37294">
        <ele>276.2</ele>
        <time>2026-08-31T08:36:41Z</time>
      </trkpt>
      <trkpt lat="43.42654" lon="-0.37293">
        <ele>276.2</ele>
        <time>2026-08-31T08:36:41Z</time>
      </trkpt>
      <trkpt lat="43.42654" lon="-0.37293">
        <ele>275.2</ele>
        <time>2026-08-31T08:36:42Z</time>
      </trkpt>
      <trkpt lat="43.42655" lon="-0.37292">
        <ele>275.2</ele>
        <time>2026-08-31T08:36:42Z</time>
      </trkpt>
      <trkpt lat="43.42655" lon="-0.37291">
        <ele>275.2</ele>
        <time>2026-08-31T08:36:43Z</time>
      </trkpt>
      <trkpt lat="43.42656" lon="-0.37291">
        <ele>275.2</ele>
        <time>2026-08-31T08:36:43Z</time>
      </trkpt>
      <trkpt lat="43.42656" lon="-0.3729">
        <ele>275.2</ele>
        <time>2026-08-31T08:36:44Z</time>
      </trkpt>
      <trkpt lat="43.42657" lon="-0.3729">
        <ele>275.2</ele>
        <time>2026-08-31T08:36:44Z</time>
      </trkpt>
      <trkpt lat="43.42657" lon="-0.37289">
        <ele>275.2</ele>
        <time>2026-08-31T08:36:45Z</time>
      </trkpt>
      <trkpt lat="43.42658" lon="-0.37289">
        <ele>275.2</ele>
        <time>2026-08-31T08:36:45Z</time>
      </trkpt>
      <trkpt lat="43.42659" lon="-0.37288">
        <ele>275.2</ele>
        <time>2026-08-31T08:36:46Z</time>
      </trkpt>
      <trkpt lat="43.42659" lon="-0.37288">
        <ele>275.2</ele>
        <time>2026-08-31T08:36:47Z</time>
      </trkpt>
      <trkpt lat="43.4266" lon="-0.37288">
        <ele>275.2</ele>
        <time>2026-08-31T08:36:47Z</time>
      </trkpt>
      <trkpt lat="43.4266" lon="-0.37288">
        <ele>275.2</ele>
        <time>2026-08-31T08:36:48Z</time>
      </trkpt>
      <trkpt lat="43.42661" lon="-0.37287">
        <ele>275.2</ele>
        <time>2026-08-31T08:36:48Z</time>
      </trkpt>
      <trkpt lat="43.42661" lon="-0.37287">
        <ele>275.2</ele>
        <time>2026-08-31T08:36:49Z</time>
      </trkpt>
      <trkpt lat="43.42662" lon="-0.37286">
        <ele>275.2</ele>
        <time>2026-08-31T08:36:49Z</time>
      </trkpt>
      <trkpt lat="43.42663" lon="-0.37286">
        <ele>275.2</ele>
        <time>2026-08-31T08:36:50Z</time>
      </trkpt>
      <trkpt lat="43.42663" lon="-0.37286">
        <ele>275.2</ele>
        <time>2026-08-31T08:36:51Z</time>
      </trkpt>
      <trkpt lat="43.42664" lon="-0.37285">
        <ele>276.2</ele>
        <time>2026-08-31T08:36:51Z</time>
      </trkpt>
      <trkpt lat="43.42664" lon="-0.37285">
        <ele>276.2</ele>
        <time>2026-08-31T08:36:52Z</time>
      </trkpt>
      <trkpt lat="43.42665" lon="-0.37284">
        <ele>276.2</ele>
        <time>2026-08-31T08:36:52Z</time>
      </trkpt>
      <trkpt lat="43.42665" lon="-0.37283">
        <ele>276.2</ele>
        <time>2026-08-31T08:36:53Z</time>
      </trkpt>
      <trkpt lat="43.42666" lon="-0.37283">
        <ele>276.2</ele>
        <time>2026-08-31T08:36:53Z</time>
      </trkpt>
      <trkpt lat="43.42666" lon="-0.37282">
        <ele>277.2</ele>
        <time>2026-08-31T08:36:54Z</time>
      </trkpt>
      <trkpt lat="43.42667" lon="-0.37281">
        <ele>277.2</ele>
        <time>2026-08-31T08:36:54Z</time>
      </trkpt>
      <trkpt lat="43.42667" lon="-0.37281">
        <ele>277.2</ele>
        <time>2026-08-31T08:36:55Z</time>
      </trkpt>
      <trkpt lat="43.42668" lon="-0.3728">
        <ele>277.2</ele>
        <time>2026-08-31T08:36:56Z</time>
      </trkpt>
      <trkpt lat="43.42669" lon="-0.3728">
        <ele>277.2</ele>
        <time>2026-08-31T08:36:56Z</time>
      </trkpt>
      <trkpt lat="43.42669" lon="-0.37279">
        <ele>277.2</ele>
        <time>2026-08-31T08:36:57Z</time>
      </trkpt>
      <trkpt lat="43.4267" lon="-0.37279">
        <ele>277.2</ele>
        <time>2026-08-31T08:36:57Z</time>
      </trkpt>
      <trkpt lat="43.4267" lon="-0.37278">
        <ele>277.2</ele>
        <time>2026-08-31T08:36:58Z</time>
      </trkpt>
      <trkpt lat="43.42671" lon="-0.37278">
        <ele>277.2</ele>
        <time>2026-08-31T08:36:58Z</time>
      </trkpt>
      <trkpt lat="43.42672" lon="-0.37277">
        <ele>276.2</ele>
        <time>2026-08-31T08:36:59Z</time>
      </trkpt>
      <trkpt lat="43.42672" lon="-0.37277">
        <ele>276.2</ele>
        <time>2026-08-31T08:37:00Z</time>
      </trkpt>
      <trkpt lat="43.42673" lon="-0.37276">
        <ele>276.2</ele>
        <time>2026-08-31T08:37:00Z</time>
      </trkpt>
      <trkpt lat="43.42673" lon="-0.37276">
        <ele>276.2</ele>
        <time>2026-08-31T08:37:01Z</time>
      </trkpt>
      <trkpt lat="43.42674" lon="-0.37275">
        <ele>276.2</ele>
        <time>2026-08-31T08:37:01Z</time>
      </trkpt>
      <trkpt lat="43.42675" lon="-0.37275">
        <ele>276.2</ele>
        <time>2026-08-31T08:37:02Z</time>
      </trkpt>
      <trkpt lat="43.42675" lon="-0.37274">
        <ele>276.2</ele>
        <time>2026-08-31T08:37:02Z</time>
      </trkpt>
      <trkpt lat="43.42676" lon="-0.37274">
        <ele>276.2</ele>
        <time>2026-08-31T08:37:03Z</time>
      </trkpt>
      <trkpt lat="43.42676" lon="-0.37274">
        <ele>276.2</ele>
        <time>2026-08-31T08:37:03Z</time>
      </trkpt>
      <trkpt lat="43.42677" lon="-0.37273">
        <ele>276.2</ele>
        <time>2026-08-31T08:37:04Z</time>
      </trkpt>
      <trkpt lat="43.42678" lon="-0.37272">
        <ele>276.2</ele>
        <time>2026-08-31T08:37:05Z</time>
      </trkpt>
      <trkpt lat="43.42678" lon="-0.37272">
        <ele>275.2</ele>
        <time>2026-08-31T08:37:05Z</time>
      </trkpt>
      <trkpt lat="43.42679" lon="-0.37272">
        <ele>275.2</ele>
        <time>2026-08-31T08:37:06Z</time>
      </trkpt>
      <trkpt lat="43.42679" lon="-0.37271">
        <ele>275.2</ele>
        <time>2026-08-31T08:37:06Z</time>
      </trkpt>
      <trkpt lat="43.4268" lon="-0.37271">
        <ele>275.2</ele>
        <time>2026-08-31T08:37:07Z</time>
      </trkpt>
      <trkpt lat="43.42681" lon="-0.3727">
        <ele>275.2</ele>
        <time>2026-08-31T08:37:07Z</time>
      </trkpt>
      <trkpt lat="43.42681" lon="-0.3727">
        <ele>276.2</ele>
        <time>2026-08-31T08:37:08Z</time>
      </trkpt>
      <trkpt lat="43.42682" lon="-0.37269">
        <ele>276.2</ele>
        <time>2026-08-31T08:37:09Z</time>
      </trkpt>
      <trkpt lat="43.42683" lon="-0.37269">
        <ele>276.2</ele>
        <time>2026-08-31T08:37:09Z</time>
      </trkpt>
      <trkpt lat="43.42683" lon="-0.37268">
        <ele>276.2</ele>
        <time>2026-08-31T08:37:10Z</time>
      </trkpt>
      <trkpt lat="43.42684" lon="-0.37268">
        <ele>276.2</ele>
        <time>2026-08-31T08:37:10Z</time>
      </trkpt>
      <trkpt lat="43.42685" lon="-0.37268">
        <ele>276.2</ele>
        <time>2026-08-31T08:37:11Z</time>
      </trkpt>
      <trkpt lat="43.42685" lon="-0.37267">
        <ele>276.2</ele>
        <time>2026-08-31T08:37:11Z</time>
      </trkpt>
      <trkpt lat="43.42686" lon="-0.37266">
        <ele>276.2</ele>
        <time>2026-08-31T08:37:12Z</time>
      </trkpt>
      <trkpt lat="43.42687" lon="-0.37266">
        <ele>276.2</ele>
        <time>2026-08-31T08:37:12Z</time>
      </trkpt>
      <trkpt lat="43.42688" lon="-0.37266">
        <ele>276.2</ele>
        <time>2026-08-31T08:37:13Z</time>
      </trkpt>
      <trkpt lat="43.42688" lon="-0.37265">
        <ele>276.2</ele>
        <time>2026-08-31T08:37:14Z</time>
      </trkpt>
      <trkpt lat="43.42689" lon="-0.37265">
        <ele>276.2</ele>
        <time>2026-08-31T08:37:14Z</time>
      </trkpt>
      <trkpt lat="43.42689" lon="-0.37264">
        <ele>276.2</ele>
        <time>2026-08-31T08:37:15Z</time>
      </trkpt>
      <trkpt lat="43.4269" lon="-0.37263">
        <ele>276.2</ele>
        <time>2026-08-31T08:37:15Z</time>
      </trkpt>
      <trkpt lat="43.42691" lon="-0.37263">
        <ele>277.2</ele>
        <time>2026-08-31T08:37:16Z</time>
      </trkpt>
      <trkpt lat="43.42692" lon="-0.37262">
        <ele>277.2</ele>
        <time>2026-08-31T08:37:16Z</time>
      </trkpt>
      <trkpt lat="43.42692" lon="-0.37262">
        <ele>276.2</ele>
        <time>2026-08-31T08:37:17Z</time>
      </trkpt>
      <trkpt lat="43.42693" lon="-0.37261">
        <ele>276.2</ele>
        <time>2026-08-31T08:37:18Z</time>
      </trkpt>
      <trkpt lat="43.42694" lon="-0.37261">
        <ele>276.2</ele>
        <time>2026-08-31T08:37:18Z</time>
      </trkpt>
      <trkpt lat="43.42694" lon="-0.3726">
        <ele>276.2</ele>
        <time>2026-08-31T08:37:19Z</time>
      </trkpt>
      <trkpt lat="43.42695" lon="-0.37259">
        <ele>276.2</ele>
        <time>2026-08-31T08:37:19Z</time>
      </trkpt>
      <trkpt lat="43.42696" lon="-0.37259">
        <ele>276.2</ele>
        <time>2026-08-31T08:37:20Z</time>
      </trkpt>
      <trkpt lat="43.42696" lon="-0.37258">
        <ele>277.2</ele>
        <time>2026-08-31T08:37:20Z</time>
      </trkpt>
      <trkpt lat="43.42697" lon="-0.37258">
        <ele>277.2</ele>
        <time>2026-08-31T08:37:21Z</time>
      </trkpt>
      <trkpt lat="43.42697" lon="-0.37257">
        <ele>277.2</ele>
        <time>2026-08-31T08:37:21Z</time>
      </trkpt>
      <trkpt lat="43.42698" lon="-0.37257">
        <ele>277.2</ele>
        <time>2026-08-31T08:37:22Z</time>
      </trkpt>
      <trkpt lat="43.42699" lon="-0.37256">
        <ele>277.2</ele>
        <time>2026-08-31T08:37:22Z</time>
      </trkpt>
      <trkpt lat="43.42699" lon="-0.37255">
        <ele>277.2</ele>
        <time>2026-08-31T08:37:23Z</time>
      </trkpt>
      <trkpt lat="43.427" lon="-0.37255">
        <ele>277.2</ele>
        <time>2026-08-31T08:37:24Z</time>
      </trkpt>
      <trkpt lat="43.427" lon="-0.37254">
        <ele>278.2</ele>
        <time>2026-08-31T08:37:24Z</time>
      </trkpt>
      <trkpt lat="43.42701" lon="-0.37253">
        <ele>278.2</ele>
        <time>2026-08-31T08:37:25Z</time>
      </trkpt>
      <trkpt lat="43.42701" lon="-0.37253">
        <ele>279.2</ele>
        <time>2026-08-31T08:37:25Z</time>
      </trkpt>
      <trkpt lat="43.42702" lon="-0.37252">
        <ele>279.2</ele>
        <time>2026-08-31T08:37:26Z</time>
      </trkpt>
      <trkpt lat="43.42702" lon="-0.37251">
        <ele>279.2</ele>
        <time>2026-08-31T08:37:26Z</time>
      </trkpt>
      <trkpt lat="43.42703" lon="-0.37251">
        <ele>279.2</ele>
        <time>2026-08-31T08:37:27Z</time>
      </trkpt>
      <trkpt lat="43.42703" lon="-0.3725">
        <ele>279.2</ele>
        <time>2026-08-31T08:37:27Z</time>
      </trkpt>
      <trkpt lat="43.42704" lon="-0.3725">
        <ele>279.2</ele>
        <time>2026-08-31T08:37:28Z</time>
      </trkpt>
      <trkpt lat="43.42705" lon="-0.37249">
        <ele>279.2</ele>
        <time>2026-08-31T08:37:29Z</time>
      </trkpt>
      <trkpt lat="43.42705" lon="-0.37249">
        <ele>279.2</ele>
        <time>2026-08-31T08:37:29Z</time>
      </trkpt>
      <trkpt lat="43.42706" lon="-0.37248">
        <ele>279.2</ele>
        <time>2026-08-31T08:37:30Z</time>
      </trkpt>
      <trkpt lat="43.42706" lon="-0.37248">
        <ele>279.2</ele>
        <time>2026-08-31T08:37:30Z</time>
      </trkpt>
      <trkpt lat="43.42707" lon="-0.37248">
        <ele>279.2</ele>
        <time>2026-08-31T08:37:31Z</time>
      </trkpt>
      <trkpt lat="43.42708" lon="-0.37247">
        <ele>279.2</ele>
        <time>2026-08-31T08:37:31Z</time>
      </trkpt>
      <trkpt lat="43.42708" lon="-0.37246">
        <ele>279.2</ele>
        <time>2026-08-31T08:37:32Z</time>
      </trkpt>
      <trkpt lat="43.42709" lon="-0.37246">
        <ele>279.2</ele>
        <time>2026-08-31T08:37:32Z</time>
      </trkpt>
      <trkpt lat="43.42709" lon="-0.37245">
        <ele>279.2</ele>
        <time>2026-08-31T08:37:33Z</time>
      </trkpt>
      <trkpt lat="43.4271" lon="-0.37245">
        <ele>279.2</ele>
        <time>2026-08-31T08:37:34Z</time>
      </trkpt>
      <trkpt lat="43.4271" lon="-0.37244">
        <ele>279.2</ele>
        <time>2026-08-31T08:37:34Z</time>
      </trkpt>
      <trkpt lat="43.42711" lon="-0.37243">
        <ele>279.2</ele>
        <time>2026-08-31T08:37:35Z</time>
      </trkpt>
      <trkpt lat="43.42712" lon="-0.37243">
        <ele>279.2</ele>
        <time>2026-08-31T08:37:35Z</time>
      </trkpt>
      <trkpt lat="43.42712" lon="-0.37242">
        <ele>279.2</ele>
        <time>2026-08-31T08:37:36Z</time>
      </trkpt>
      <trkpt lat="43.42712" lon="-0.37242">
        <ele>279.2</ele>
        <time>2026-08-31T08:37:36Z</time>
      </trkpt>
      <trkpt lat="43.42713" lon="-0.37241">
        <ele>279.2</ele>
        <time>2026-08-31T08:37:37Z</time>
      </trkpt>
      <trkpt lat="43.42714" lon="-0.3724">
        <ele>279.2</ele>
        <time>2026-08-31T08:37:37Z</time>
      </trkpt>
      <trkpt lat="43.42714" lon="-0.3724">
        <ele>279.2</ele>
        <time>2026-08-31T08:37:38Z</time>
      </trkpt>
      <trkpt lat="43.42715" lon="-0.37239">
        <ele>279.2</ele>
        <time>2026-08-31T08:37:39Z</time>
      </trkpt>
      <trkpt lat="43.42715" lon="-0.37238">
        <ele>279.2</ele>
        <time>2026-08-31T08:37:39Z</time>
      </trkpt>
      <trkpt lat="43.42716" lon="-0.37238">
        <ele>279.2</ele>
        <time>2026-08-31T08:37:40Z</time>
      </trkpt>
      <trkpt lat="43.42716" lon="-0.37237">
        <ele>279.2</ele>
        <time>2026-08-31T08:37:40Z</time>
      </trkpt>
      <trkpt lat="43.42717" lon="-0.37236">
        <ele>279.2</ele>
        <time>2026-08-31T08:37:41Z</time>
      </trkpt>
      <trkpt lat="43.42718" lon="-0.37236">
        <ele>278.2</ele>
        <time>2026-08-31T08:37:41Z</time>
      </trkpt>
      <trkpt lat="43.42718" lon="-0.37235">
        <ele>279.2</ele>
        <time>2026-08-31T08:37:42Z</time>
      </trkpt>
      <trkpt lat="43.42719" lon="-0.37235">
        <ele>279.2</ele>
        <time>2026-08-31T08:37:42Z</time>
      </trkpt>
      <trkpt lat="43.4272" lon="-0.37235">
        <ele>278.2</ele>
        <time>2026-08-31T08:37:43Z</time>
      </trkpt>
      <trkpt lat="43.4272" lon="-0.37234">
        <ele>278.2</ele>
        <time>2026-08-31T08:37:43Z</time>
      </trkpt>
      <trkpt lat="43.42721" lon="-0.37233">
        <ele>278.2</ele>
        <time>2026-08-31T08:37:44Z</time>
      </trkpt>
      <trkpt lat="43.42721" lon="-0.37233">
        <ele>278.2</ele>
        <time>2026-08-31T08:37:44Z</time>
      </trkpt>
      <trkpt lat="43.42722" lon="-0.37232">
        <ele>278.2</ele>
        <time>2026-08-31T08:37:45Z</time>
      </trkpt>
      <trkpt lat="43.42723" lon="-0.37232">
        <ele>278.2</ele>
        <time>2026-08-31T08:37:46Z</time>
      </trkpt>
      <trkpt lat="43.42724" lon="-0.37232">
        <ele>278.2</ele>
        <time>2026-08-31T08:37:46Z</time>
      </trkpt>
      <trkpt lat="43.42724" lon="-0.37231">
        <ele>278.2</ele>
        <time>2026-08-31T08:37:47Z</time>
      </trkpt>
      <trkpt lat="43.42725" lon="-0.37231">
        <ele>278.2</ele>
        <time>2026-08-31T08:37:47Z</time>
      </trkpt>
      <trkpt lat="43.42726" lon="-0.37231">
        <ele>278.2</ele>
        <time>2026-08-31T08:37:48Z</time>
      </trkpt>
      <trkpt lat="43.42726" lon="-0.3723">
        <ele>278.2</ele>
        <time>2026-08-31T08:37:48Z</time>
      </trkpt>
      <trkpt lat="43.42727" lon="-0.3723">
        <ele>277.2</ele>
        <time>2026-08-31T08:37:49Z</time>
      </trkpt>
      <trkpt lat="43.42728" lon="-0.3723">
        <ele>277.2</ele>
        <time>2026-08-31T08:37:49Z</time>
      </trkpt>
      <trkpt lat="43.42729" lon="-0.3723">
        <ele>277.2</ele>
        <time>2026-08-31T08:37:50Z</time>
      </trkpt>
      <trkpt lat="43.42729" lon="-0.37229">
        <ele>277.2</ele>
        <time>2026-08-31T08:37:51Z</time>
      </trkpt>
      <trkpt lat="43.4273" lon="-0.37229">
        <ele>277.2</ele>
        <time>2026-08-31T08:37:51Z</time>
      </trkpt>
      <trkpt lat="43.42731" lon="-0.37229">
        <ele>277.2</ele>
        <time>2026-08-31T08:37:52Z</time>
      </trkpt>
      <trkpt lat="43.42731" lon="-0.37229">
        <ele>277.2</ele>
        <time>2026-08-31T08:37:52Z</time>
      </trkpt>
      <trkpt lat="43.42732" lon="-0.37228">
        <ele>277.2</ele>
        <time>2026-08-31T08:37:53Z</time>
      </trkpt>
      <trkpt lat="43.42733" lon="-0.37228">
        <ele>277.2</ele>
        <time>2026-08-31T08:37:53Z</time>
      </trkpt>
      <trkpt lat="43.42733" lon="-0.37228">
        <ele>277.2</ele>
        <time>2026-08-31T08:37:54Z</time>
      </trkpt>
      <trkpt lat="43.42734" lon="-0.37227">
        <ele>277.2</ele>
        <time>2026-08-31T08:37:54Z</time>
      </trkpt>
      <trkpt lat="43.42735" lon="-0.37227">
        <ele>277.2</ele>
        <time>2026-08-31T08:37:55Z</time>
      </trkpt>
      <trkpt lat="43.42735" lon="-0.37227">
        <ele>277.2</ele>
        <time>2026-08-31T08:37:55Z</time>
      </trkpt>
      <trkpt lat="43.42736" lon="-0.37227">
        <ele>277.2</ele>
        <time>2026-08-31T08:37:56Z</time>
      </trkpt>
      <trkpt lat="43.42737" lon="-0.37226">
        <ele>277.2</ele>
        <time>2026-08-31T08:37:57Z</time>
      </trkpt>
      <trkpt lat="43.42737" lon="-0.37226">
        <ele>277.2</ele>
        <time>2026-08-31T08:37:57Z</time>
      </trkpt>
      <trkpt lat="43.42738" lon="-0.37225">
        <ele>277.2</ele>
        <time>2026-08-31T08:37:58Z</time>
      </trkpt>
      <trkpt lat="43.42739" lon="-0.37225">
        <ele>277.2</ele>
        <time>2026-08-31T08:37:58Z</time>
      </trkpt>
      <trkpt lat="43.42739" lon="-0.37225">
        <ele>277.2</ele>
        <time>2026-08-31T08:37:59Z</time>
      </trkpt>
      <trkpt lat="43.4274" lon="-0.37224">
        <ele>277.2</ele>
        <time>2026-08-31T08:37:59Z</time>
      </trkpt>
      <trkpt lat="43.4274" lon="-0.37224">
        <ele>277.2</ele>
        <time>2026-08-31T08:38:00Z</time>
      </trkpt>
      <trkpt lat="43.42741" lon="-0.37224">
        <ele>277.2</ele>
        <time>2026-08-31T08:38:00Z</time>
      </trkpt>
      <trkpt lat="43.42742" lon="-0.37224">
        <ele>276.2</ele>
        <time>2026-08-31T08:38:01Z</time>
      </trkpt>
      <trkpt lat="43.42742" lon="-0.37223">
        <ele>276.2</ele>
        <time>2026-08-31T08:38:02Z</time>
      </trkpt>
      <trkpt lat="43.42743" lon="-0.37223">
        <ele>277.2</ele>
        <time>2026-08-31T08:38:02Z</time>
      </trkpt>
      <trkpt lat="43.42743" lon="-0.37222">
        <ele>277.2</ele>
        <time>2026-08-31T08:38:03Z</time>
      </trkpt>
      <trkpt lat="43.42744" lon="-0.37222">
        <ele>276.2</ele>
        <time>2026-08-31T08:38:03Z</time>
      </trkpt>
      <trkpt lat="43.42744" lon="-0.37222">
        <ele>277.2</ele>
        <time>2026-08-31T08:38:04Z</time>
      </trkpt>
      <trkpt lat="43.42745" lon="-0.37222">
        <ele>277.2</ele>
        <time>2026-08-31T08:38:04Z</time>
      </trkpt>
      <trkpt lat="43.42745" lon="-0.37221">
        <ele>277.2</ele>
        <time>2026-08-31T08:38:05Z</time>
      </trkpt>
      <trkpt lat="43.42746" lon="-0.37221">
        <ele>277.2</ele>
        <time>2026-08-31T08:38:05Z</time>
      </trkpt>
      <trkpt lat="43.42746" lon="-0.3722">
        <ele>277.2</ele>
        <time>2026-08-31T08:38:06Z</time>
      </trkpt>
      <trkpt lat="43.42747" lon="-0.3722">
        <ele>277.2</ele>
        <time>2026-08-31T08:38:07Z</time>
      </trkpt>
      <trkpt lat="43.42748" lon="-0.37219">
        <ele>277.2</ele>
        <time>2026-08-31T08:38:07Z</time>
      </trkpt>
      <trkpt lat="43.42748" lon="-0.37218">
        <ele>277.2</ele>
        <time>2026-08-31T08:38:08Z</time>
      </trkpt>
      <trkpt lat="43.42749" lon="-0.37218">
        <ele>277.2</ele>
        <time>2026-08-31T08:38:08Z</time>
      </trkpt>
      <trkpt lat="43.42749" lon="-0.37217">
        <ele>277.2</ele>
        <time>2026-08-31T08:38:09Z</time>
      </trkpt>
      <trkpt lat="43.4275" lon="-0.37216">
        <ele>277.2</ele>
        <time>2026-08-31T08:38:09Z</time>
      </trkpt>
      <trkpt lat="43.4275" lon="-0.37216">
        <ele>277.2</ele>
        <time>2026-08-31T08:38:10Z</time>
      </trkpt>
      <trkpt lat="43.42751" lon="-0.37215">
        <ele>277.2</ele>
        <time>2026-08-31T08:38:11Z</time>
      </trkpt>
      <trkpt lat="43.42751" lon="-0.37215">
        <ele>277.2</ele>
        <time>2026-08-31T08:38:11Z</time>
      </trkpt>
      <trkpt lat="43.42751" lon="-0.37214">
        <ele>277.2</ele>
        <time>2026-08-31T08:38:12Z</time>
      </trkpt>
      <trkpt lat="43.42752" lon="-0.37213">
        <ele>277.2</ele>
        <time>2026-08-31T08:38:12Z</time>
      </trkpt>
      <trkpt lat="43.42752" lon="-0.37213">
        <ele>277.2</ele>
        <time>2026-08-31T08:38:13Z</time>
      </trkpt>
      <trkpt lat="43.42752" lon="-0.37212">
        <ele>277.2</ele>
        <time>2026-08-31T08:38:13Z</time>
      </trkpt>
      <trkpt lat="43.42753" lon="-0.37212">
        <ele>277.2</ele>
        <time>2026-08-31T08:38:14Z</time>
      </trkpt>
      <trkpt lat="43.42753" lon="-0.37211">
        <ele>277.2</ele>
        <time>2026-08-31T08:38:14Z</time>
      </trkpt>
      <trkpt lat="43.42754" lon="-0.37211">
        <ele>277.2</ele>
        <time>2026-08-31T08:38:15Z</time>
      </trkpt>
      <trkpt lat="43.42754" lon="-0.3721">
        <ele>277.2</ele>
        <time>2026-08-31T08:38:16Z</time>
      </trkpt>
      <trkpt lat="43.42755" lon="-0.3721">
        <ele>278.2</ele>
        <time>2026-08-31T08:38:16Z</time>
      </trkpt>
      <trkpt lat="43.42756" lon="-0.37209">
        <ele>278.2</ele>
        <time>2026-08-31T08:38:17Z</time>
      </trkpt>
      <trkpt lat="43.42756" lon="-0.37208">
        <ele>277.2</ele>
        <time>2026-08-31T08:38:17Z</time>
      </trkpt>
      <trkpt lat="43.42757" lon="-0.37208">
        <ele>277.2</ele>
        <time>2026-08-31T08:38:18Z</time>
      </trkpt>
      <trkpt lat="43.42757" lon="-0.37207">
        <ele>278.2</ele>
        <time>2026-08-31T08:38:18Z</time>
      </trkpt>
      <trkpt lat="43.42758" lon="-0.37207">
        <ele>278.2</ele>
        <time>2026-08-31T08:38:19Z</time>
      </trkpt>
      <trkpt lat="43.42759" lon="-0.37206">
        <ele>278.2</ele>
        <time>2026-08-31T08:38:19Z</time>
      </trkpt>
      <trkpt lat="43.42759" lon="-0.37206">
        <ele>278.2</ele>
        <time>2026-08-31T08:38:20Z</time>
      </trkpt>
      <trkpt lat="43.4276" lon="-0.37205">
        <ele>278.2</ele>
        <time>2026-08-31T08:38:20Z</time>
      </trkpt>
      <trkpt lat="43.42761" lon="-0.37205">
        <ele>279.2</ele>
        <time>2026-08-31T08:38:21Z</time>
      </trkpt>
      <trkpt lat="43.42761" lon="-0.37204">
        <ele>279.2</ele>
        <time>2026-08-31T08:38:22Z</time>
      </trkpt>
      <trkpt lat="43.42762" lon="-0.37204">
        <ele>279.2</ele>
        <time>2026-08-31T08:38:22Z</time>
      </trkpt>
      <trkpt lat="43.42763" lon="-0.37203">
        <ele>279.2</ele>
        <time>2026-08-31T08:38:23Z</time>
      </trkpt>
      <trkpt lat="43.42763" lon="-0.37203">
        <ele>279.2</ele>
        <time>2026-08-31T08:38:23Z</time>
      </trkpt>
      <trkpt lat="43.42764" lon="-0.37203">
        <ele>280.2</ele>
        <time>2026-08-31T08:38:24Z</time>
      </trkpt>
      <trkpt lat="43.42765" lon="-0.37202">
        <ele>280.2</ele>
        <time>2026-08-31T08:38:24Z</time>
      </trkpt>
      <trkpt lat="43.42765" lon="-0.37202">
        <ele>280.2</ele>
        <time>2026-08-31T08:38:25Z</time>
      </trkpt>
      <trkpt lat="43.42766" lon="-0.37201">
        <ele>280.2</ele>
        <time>2026-08-31T08:38:25Z</time>
      </trkpt>
      <trkpt lat="43.42767" lon="-0.372">
        <ele>280.2</ele>
        <time>2026-08-31T08:38:26Z</time>
      </trkpt>
      <trkpt lat="43.42767" lon="-0.372">
        <ele>280.2</ele>
        <time>2026-08-31T08:38:26Z</time>
      </trkpt>
      <trkpt lat="43.42768" lon="-0.37199">
        <ele>280.2</ele>
        <time>2026-08-31T08:38:27Z</time>
      </trkpt>
      <trkpt lat="43.42768" lon="-0.37199">
        <ele>280.2</ele>
        <time>2026-08-31T08:38:27Z</time>
      </trkpt>
      <trkpt lat="43.42769" lon="-0.37198">
        <ele>280.2</ele>
        <time>2026-08-31T08:38:28Z</time>
      </trkpt>
      <trkpt lat="43.4277" lon="-0.37198">
        <ele>280.2</ele>
        <time>2026-08-31T08:38:29Z</time>
      </trkpt>
      <trkpt lat="43.4277" lon="-0.37197">
        <ele>280.2</ele>
        <time>2026-08-31T08:38:29Z</time>
      </trkpt>
      <trkpt lat="43.42771" lon="-0.37197">
        <ele>280.2</ele>
        <time>2026-08-31T08:38:30Z</time>
      </trkpt>
      <trkpt lat="43.42771" lon="-0.37196">
        <ele>280.2</ele>
        <time>2026-08-31T08:38:30Z</time>
      </trkpt>
      <trkpt lat="43.42772" lon="-0.37196">
        <ele>280.2</ele>
        <time>2026-08-31T08:38:31Z</time>
      </trkpt>
      <trkpt lat="43.42772" lon="-0.37195">
        <ele>280.2</ele>
        <time>2026-08-31T08:38:31Z</time>
      </trkpt>
      <trkpt lat="43.42773" lon="-0.37195">
        <ele>280.2</ele>
        <time>2026-08-31T08:38:32Z</time>
      </trkpt>
      <trkpt lat="43.42774" lon="-0.37194">
        <ele>280.2</ele>
        <time>2026-08-31T08:38:32Z</time>
      </trkpt>
      <trkpt lat="43.42774" lon="-0.37193">
        <ele>280.2</ele>
        <time>2026-08-31T08:38:33Z</time>
      </trkpt>
      <trkpt lat="43.42775" lon="-0.37193">
        <ele>280.2</ele>
        <time>2026-08-31T08:38:34Z</time>
      </trkpt>
      <trkpt lat="43.42775" lon="-0.37192">
        <ele>280.2</ele>
        <time>2026-08-31T08:38:34Z</time>
      </trkpt>
      <trkpt lat="43.42776" lon="-0.37192">
        <ele>280.2</ele>
        <time>2026-08-31T08:38:35Z</time>
      </trkpt>
      <trkpt lat="43.42776" lon="-0.37191">
        <ele>280.2</ele>
        <time>2026-08-31T08:38:35Z</time>
      </trkpt>
      <trkpt lat="43.42777" lon="-0.37191">
        <ele>280.2</ele>
        <time>2026-08-31T08:38:36Z</time>
      </trkpt>
      <trkpt lat="43.42777" lon="-0.3719">
        <ele>279.2</ele>
        <time>2026-08-31T08:38:36Z</time>
      </trkpt>
      <trkpt lat="43.42778" lon="-0.3719">
        <ele>280.2</ele>
        <time>2026-08-31T08:38:37Z</time>
      </trkpt>
      <trkpt lat="43.42779" lon="-0.37189">
        <ele>280.2</ele>
        <time>2026-08-31T08:38:37Z</time>
      </trkpt>
      <trkpt lat="43.42779" lon="-0.37188">
        <ele>280.2</ele>
        <time>2026-08-31T08:38:38Z</time>
      </trkpt>
      <trkpt lat="43.4278" lon="-0.37188">
        <ele>280.2</ele>
        <time>2026-08-31T08:38:38Z</time>
      </trkpt>
      <trkpt lat="43.4278" lon="-0.37187">
        <ele>279.2</ele>
        <time>2026-08-31T08:38:39Z</time>
      </trkpt>
      <trkpt lat="43.42781" lon="-0.37186">
        <ele>279.2</ele>
        <time>2026-08-31T08:38:39Z</time>
      </trkpt>
      <trkpt lat="43.42782" lon="-0.37186">
        <ele>279.2</ele>
        <time>2026-08-31T08:38:40Z</time>
      </trkpt>
      <trkpt lat="43.42782" lon="-0.37185">
        <ele>279.2</ele>
        <time>2026-08-31T08:38:41Z</time>
      </trkpt>
      <trkpt lat="43.42783" lon="-0.37184">
        <ele>279.2</ele>
        <time>2026-08-31T08:38:41Z</time>
      </trkpt>
      <trkpt lat="43.42783" lon="-0.37184">
        <ele>279.2</ele>
        <time>2026-08-31T08:38:42Z</time>
      </trkpt>
      <trkpt lat="43.42784" lon="-0.37183">
        <ele>279.2</ele>
        <time>2026-08-31T08:38:42Z</time>
      </trkpt>
      <trkpt lat="43.42785" lon="-0.37183">
        <ele>279.2</ele>
        <time>2026-08-31T08:38:43Z</time>
      </trkpt>
      <trkpt lat="43.42785" lon="-0.37182">
        <ele>279.2</ele>
        <time>2026-08-31T08:38:43Z</time>
      </trkpt>
      <trkpt lat="43.42786" lon="-0.37181">
        <ele>279.2</ele>
        <time>2026-08-31T08:38:44Z</time>
      </trkpt>
      <trkpt lat="43.42787" lon="-0.37181">
        <ele>279.2</ele>
        <time>2026-08-31T08:38:44Z</time>
      </trkpt>
      <trkpt lat="43.42787" lon="-0.3718">
        <ele>279.2</ele>
        <time>2026-08-31T08:38:45Z</time>
      </trkpt>
      <trkpt lat="43.42788" lon="-0.37179">
        <ele>279.2</ele>
        <time>2026-08-31T08:38:45Z</time>
      </trkpt>
      <trkpt lat="43.42788" lon="-0.37179">
        <ele>279.2</ele>
        <time>2026-08-31T08:38:46Z</time>
      </trkpt>
      <trkpt lat="43.42789" lon="-0.37178">
        <ele>279.2</ele>
        <time>2026-08-31T08:38:47Z</time>
      </trkpt>
      <trkpt lat="43.42789" lon="-0.37177">
        <ele>278.2</ele>
        <time>2026-08-31T08:38:47Z</time>
      </trkpt>
      <trkpt lat="43.4279" lon="-0.37177">
        <ele>278.2</ele>
        <time>2026-08-31T08:38:48Z</time>
      </trkpt>
      <trkpt lat="43.4279" lon="-0.37176">
        <ele>278.2</ele>
        <time>2026-08-31T08:38:48Z</time>
      </trkpt>
      <trkpt lat="43.42791" lon="-0.37176">
        <ele>278.2</ele>
        <time>2026-08-31T08:38:49Z</time>
      </trkpt>
      <trkpt lat="43.42791" lon="-0.37175">
        <ele>278.2</ele>
        <time>2026-08-31T08:38:49Z</time>
      </trkpt>
      <trkpt lat="43.42792" lon="-0.37175">
        <ele>278.2</ele>
        <time>2026-08-31T08:38:50Z</time>
      </trkpt>
      <trkpt lat="43.42792" lon="-0.37174">
        <ele>278.2</ele>
        <time>2026-08-31T08:38:50Z</time>
      </trkpt>
      <trkpt lat="43.42793" lon="-0.37174">
        <ele>278.2</ele>
        <time>2026-08-31T08:38:51Z</time>
      </trkpt>
      <trkpt lat="43.42793" lon="-0.37173">
        <ele>278.2</ele>
        <time>2026-08-31T08:38:51Z</time>
      </trkpt>
      <trkpt lat="43.42794" lon="-0.37173">
        <ele>278.2</ele>
        <time>2026-08-31T08:38:52Z</time>
      </trkpt>
      <trkpt lat="43.42794" lon="-0.37172">
        <ele>278.2</ele>
        <time>2026-08-31T08:38:53Z</time>
      </trkpt>
      <trkpt lat="43.42795" lon="-0.37171">
        <ele>278.2</ele>
        <time>2026-08-31T08:38:53Z</time>
      </trkpt>
      <trkpt lat="43.42795" lon="-0.37171">
        <ele>278.2</ele>
        <time>2026-08-31T08:38:54Z</time>
      </trkpt>
      <trkpt lat="43.42796" lon="-0.3717">
        <ele>278.2</ele>
        <time>2026-08-31T08:38:54Z</time>
      </trkpt>
      <trkpt lat="43.42796" lon="-0.3717">
        <ele>278.2</ele>
        <time>2026-08-31T08:38:55Z</time>
      </trkpt>
      <trkpt lat="43.42797" lon="-0.37169">
        <ele>278.2</ele>
        <time>2026-08-31T08:38:55Z</time>
      </trkpt>
      <trkpt lat="43.42797" lon="-0.37169">
        <ele>278.2</ele>
        <time>2026-08-31T08:38:56Z</time>
      </trkpt>
      <trkpt lat="43.42798" lon="-0.37168">
        <ele>278.2</ele>
        <time>2026-08-31T08:38:56Z</time>
      </trkpt>
      <trkpt lat="43.42798" lon="-0.37168">
        <ele>278.2</ele>
        <time>2026-08-31T08:38:57Z</time>
      </trkpt>
      <trkpt lat="43.42799" lon="-0.37167">
        <ele>278.2</ele>
        <time>2026-08-31T08:38:57Z</time>
      </trkpt>
      <trkpt lat="43.428" lon="-0.37166">
        <ele>278.2</ele>
        <time>2026-08-31T08:38:58Z</time>
      </trkpt>
      <trkpt lat="43.428" lon="-0.37166">
        <ele>278.2</ele>
        <time>2026-08-31T08:38:59Z</time>
      </trkpt>
      <trkpt lat="43.42801" lon="-0.37165">
        <ele>278.2</ele>
        <time>2026-08-31T08:38:59Z</time>
      </trkpt>
      <trkpt lat="43.42801" lon="-0.37165">
        <ele>278.2</ele>
        <time>2026-08-31T08:39:00Z</time>
      </trkpt>
      <trkpt lat="43.42802" lon="-0.37164">
        <ele>278.2</ele>
        <time>2026-08-31T08:39:00Z</time>
      </trkpt>
      <trkpt lat="43.42802" lon="-0.37163">
        <ele>278.2</ele>
        <time>2026-08-31T08:39:01Z</time>
      </trkpt>
      <trkpt lat="43.42803" lon="-0.37163">
        <ele>278.2</ele>
        <time>2026-08-31T08:39:01Z</time>
      </trkpt>
      <trkpt lat="43.42803" lon="-0.37162">
        <ele>278.2</ele>
        <time>2026-08-31T08:39:02Z</time>
      </trkpt>
      <trkpt lat="43.42804" lon="-0.37162">
        <ele>278.2</ele>
        <time>2026-08-31T08:39:02Z</time>
      </trkpt>
      <trkpt lat="43.42805" lon="-0.37161">
        <ele>278.2</ele>
        <time>2026-08-31T08:39:03Z</time>
      </trkpt>
      <trkpt lat="43.42805" lon="-0.3716">
        <ele>278.2</ele>
        <time>2026-08-31T08:39:03Z</time>
      </trkpt>
      <trkpt lat="43.42806" lon="-0.3716">
        <ele>279.2</ele>
        <time>2026-08-31T08:39:04Z</time>
      </trkpt>
      <trkpt lat="43.42806" lon="-0.37159">
        <ele>279.2</ele>
        <time>2026-08-31T08:39:04Z</time>
      </trkpt>
      <trkpt lat="43.42807" lon="-0.37158">
        <ele>278.2</ele>
        <time>2026-08-31T08:39:05Z</time>
      </trkpt>
      <trkpt lat="43.42807" lon="-0.37158">
        <ele>278.2</ele>
        <time>2026-08-31T08:39:06Z</time>
      </trkpt>
      <trkpt lat="43.42808" lon="-0.37157">
        <ele>277.2</ele>
        <time>2026-08-31T08:39:06Z</time>
      </trkpt>
      <trkpt lat="43.42808" lon="-0.37156">
        <ele>277.2</ele>
        <time>2026-08-31T08:39:07Z</time>
      </trkpt>
      <trkpt lat="43.42809" lon="-0.37156">
        <ele>278.2</ele>
        <time>2026-08-31T08:39:07Z</time>
      </trkpt>
      <trkpt lat="43.42809" lon="-0.37155">
        <ele>278.2</ele>
        <time>2026-08-31T08:39:08Z</time>
      </trkpt>
      <trkpt lat="43.4281" lon="-0.37154">
        <ele>278.2</ele>
        <time>2026-08-31T08:39:08Z</time>
      </trkpt>
      <trkpt lat="43.4281" lon="-0.37154">
        <ele>278.2</ele>
        <time>2026-08-31T08:39:09Z</time>
      </trkpt>
      <trkpt lat="43.42811" lon="-0.37153">
        <ele>278.2</ele>
        <time>2026-08-31T08:39:09Z</time>
      </trkpt>
      <trkpt lat="43.42811" lon="-0.37152">
        <ele>277.2</ele>
        <time>2026-08-31T08:39:10Z</time>
      </trkpt>
      <trkpt lat="43.42812" lon="-0.37151">
        <ele>277.2</ele>
        <time>2026-08-31T08:39:11Z</time>
      </trkpt>
      <trkpt lat="43.42812" lon="-0.37151">
        <ele>277.2</ele>
        <time>2026-08-31T08:39:11Z</time>
      </trkpt>
      <trkpt lat="43.42813" lon="-0.3715">
        <ele>277.2</ele>
        <time>2026-08-31T08:39:12Z</time>
      </trkpt>
      <trkpt lat="43.42813" lon="-0.3715">
        <ele>277.2</ele>
        <time>2026-08-31T08:39:12Z</time>
      </trkpt>
      <trkpt lat="43.42814" lon="-0.37149">
        <ele>277.2</ele>
        <time>2026-08-31T08:39:13Z</time>
      </trkpt>
      <trkpt lat="43.42814" lon="-0.37148">
        <ele>277.2</ele>
        <time>2026-08-31T08:39:13Z</time>
      </trkpt>
      <trkpt lat="43.42815" lon="-0.37148">
        <ele>277.2</ele>
        <time>2026-08-31T08:39:14Z</time>
      </trkpt>
      <trkpt lat="43.42816" lon="-0.37147">
        <ele>277.2</ele>
        <time>2026-08-31T08:39:14Z</time>
      </trkpt>
      <trkpt lat="43.42816" lon="-0.37146">
        <ele>277.2</ele>
        <time>2026-08-31T08:39:15Z</time>
      </trkpt>
      <trkpt lat="43.42817" lon="-0.37146">
        <ele>277.2</ele>
        <time>2026-08-31T08:39:15Z</time>
      </trkpt>
      <trkpt lat="43.42817" lon="-0.37145">
        <ele>277.2</ele>
        <time>2026-08-31T08:39:16Z</time>
      </trkpt>
      <trkpt lat="43.42818" lon="-0.37145">
        <ele>277.2</ele>
        <time>2026-08-31T08:39:16Z</time>
      </trkpt>
      <trkpt lat="43.42818" lon="-0.37144">
        <ele>277.2</ele>
        <time>2026-08-31T08:39:17Z</time>
      </trkpt>
      <trkpt lat="43.42819" lon="-0.37143">
        <ele>277.2</ele>
        <time>2026-08-31T08:39:18Z</time>
      </trkpt>
      <trkpt lat="43.42819" lon="-0.37143">
        <ele>277.2</ele>
        <time>2026-08-31T08:39:18Z</time>
      </trkpt>
      <trkpt lat="43.4282" lon="-0.37142">
        <ele>277.2</ele>
        <time>2026-08-31T08:39:19Z</time>
      </trkpt>
      <trkpt lat="43.4282" lon="-0.37142">
        <ele>276.2</ele>
        <time>2026-08-31T08:39:19Z</time>
      </trkpt>
      <trkpt lat="43.42821" lon="-0.37141">
        <ele>276.2</ele>
        <time>2026-08-31T08:39:20Z</time>
      </trkpt>
      <trkpt lat="43.42821" lon="-0.3714">
        <ele>276.2</ele>
        <time>2026-08-31T08:39:20Z</time>
      </trkpt>
      <trkpt lat="43.42822" lon="-0.3714">
        <ele>275.2</ele>
        <time>2026-08-31T08:39:21Z</time>
      </trkpt>
      <trkpt lat="43.42822" lon="-0.37139">
        <ele>275.2</ele>
        <time>2026-08-31T08:39:21Z</time>
      </trkpt>
      <trkpt lat="43.42823" lon="-0.37139">
        <ele>275.2</ele>
        <time>2026-08-31T08:39:22Z</time>
      </trkpt>
      <trkpt lat="43.42823" lon="-0.37138">
        <ele>275.2</ele>
        <time>2026-08-31T08:39:22Z</time>
      </trkpt>
      <trkpt lat="43.42824" lon="-0.37137">
        <ele>276.2</ele>
        <time>2026-08-31T08:39:23Z</time>
      </trkpt>
      <trkpt lat="43.42824" lon="-0.37137">
        <ele>276.2</ele>
        <time>2026-08-31T08:39:24Z</time>
      </trkpt>
      <trkpt lat="43.42824" lon="-0.37136">
        <ele>276.2</ele>
        <time>2026-08-31T08:39:24Z</time>
      </trkpt>
      <trkpt lat="43.42825" lon="-0.37136">
        <ele>276.2</ele>
        <time>2026-08-31T08:39:25Z</time>
      </trkpt>
      <trkpt lat="43.42825" lon="-0.37135">
        <ele>276.2</ele>
        <time>2026-08-31T08:39:25Z</time>
      </trkpt>
      <trkpt lat="43.42826" lon="-0.37135">
        <ele>276.2</ele>
        <time>2026-08-31T08:39:26Z</time>
      </trkpt>
      <trkpt lat="43.42826" lon="-0.37134">
        <ele>276.2</ele>
        <time>2026-08-31T08:39:26Z</time>
      </trkpt>
      <trkpt lat="43.42827" lon="-0.37134">
        <ele>276.2</ele>
        <time>2026-08-31T08:39:27Z</time>
      </trkpt>
      <trkpt lat="43.42828" lon="-0.37133">
        <ele>276.2</ele>
        <time>2026-08-31T08:39:27Z</time>
      </trkpt>
      <trkpt lat="43.42828" lon="-0.37132">
        <ele>276.2</ele>
        <time>2026-08-31T08:39:28Z</time>
      </trkpt>
      <trkpt lat="43.42829" lon="-0.37131">
        <ele>276.2</ele>
        <time>2026-08-31T08:39:28Z</time>
      </trkpt>
      <trkpt lat="43.42829" lon="-0.37131">
        <ele>276.2</ele>
        <time>2026-08-31T08:39:29Z</time>
      </trkpt>
      <trkpt lat="43.4283" lon="-0.3713">
        <ele>276.2</ele>
        <time>2026-08-31T08:39:29Z</time>
      </trkpt>
      <trkpt lat="43.4283" lon="-0.37129">
        <ele>276.2</ele>
        <time>2026-08-31T08:39:30Z</time>
      </trkpt>
      <trkpt lat="43.42831" lon="-0.37129">
        <ele>276.2</ele>
        <time>2026-08-31T08:39:31Z</time>
      </trkpt>
      <trkpt lat="43.42831" lon="-0.37128">
        <ele>277.2</ele>
        <time>2026-08-31T08:39:31Z</time>
      </trkpt>
      <trkpt lat="43.42832" lon="-0.37128">
        <ele>277.2</ele>
        <time>2026-08-31T08:39:32Z</time>
      </trkpt>
      <trkpt lat="43.42832" lon="-0.37127">
        <ele>277.2</ele>
        <time>2026-08-31T08:39:32Z</time>
      </trkpt>
      <trkpt lat="43.42833" lon="-0.37126">
        <ele>277.2</ele>
        <time>2026-08-31T08:39:33Z</time>
      </trkpt>
      <trkpt lat="43.42833" lon="-0.37126">
        <ele>277.2</ele>
        <time>2026-08-31T08:39:33Z</time>
      </trkpt>
      <trkpt lat="43.42834" lon="-0.37125">
        <ele>277.2</ele>
        <time>2026-08-31T08:39:34Z</time>
      </trkpt>
      <trkpt lat="43.42834" lon="-0.37124">
        <ele>277.2</ele>
        <time>2026-08-31T08:39:34Z</time>
      </trkpt>
      <trkpt lat="43.42835" lon="-0.37124">
        <ele>276.2</ele>
        <time>2026-08-31T08:39:35Z</time>
      </trkpt>
      <trkpt lat="43.42835" lon="-0.37123">
        <ele>276.2</ele>
        <time>2026-08-31T08:39:35Z</time>
      </trkpt>
      <trkpt lat="43.42836" lon="-0.37123">
        <ele>277.2</ele>
        <time>2026-08-31T08:39:36Z</time>
      </trkpt>
      <trkpt lat="43.42837" lon="-0.37122">
        <ele>277.2</ele>
        <time>2026-08-31T08:39:37Z</time>
      </trkpt>
      <trkpt lat="43.42837" lon="-0.37121">
        <ele>277.2</ele>
        <time>2026-08-31T08:39:37Z</time>
      </trkpt>
      <trkpt lat="43.42838" lon="-0.3712">
        <ele>277.2</ele>
        <time>2026-08-31T08:39:38Z</time>
      </trkpt>
      <trkpt lat="43.42838" lon="-0.3712">
        <ele>277.2</ele>
        <time>2026-08-31T08:39:38Z</time>
      </trkpt>
      <trkpt lat="43.42839" lon="-0.37119">
        <ele>277.2</ele>
        <time>2026-08-31T08:39:39Z</time>
      </trkpt>
      <trkpt lat="43.42839" lon="-0.37119">
        <ele>277.2</ele>
        <time>2026-08-31T08:39:39Z</time>
      </trkpt>
      <trkpt lat="43.4284" lon="-0.37118">
        <ele>278.2</ele>
        <time>2026-08-31T08:39:40Z</time>
      </trkpt>
      <trkpt lat="43.4284" lon="-0.37117">
        <ele>278.2</ele>
        <time>2026-08-31T08:39:40Z</time>
      </trkpt>
      <trkpt lat="43.42841" lon="-0.37117">
        <ele>278.2</ele>
        <time>2026-08-31T08:39:41Z</time>
      </trkpt>
      <trkpt lat="43.42842" lon="-0.37116">
        <ele>278.2</ele>
        <time>2026-08-31T08:39:41Z</time>
      </trkpt>
      <trkpt lat="43.42842" lon="-0.37115">
        <ele>278.2</ele>
        <time>2026-08-31T08:39:42Z</time>
      </trkpt>
      <trkpt lat="43.42843" lon="-0.37115">
        <ele>278.2</ele>
        <time>2026-08-31T08:39:42Z</time>
      </trkpt>
      <trkpt lat="43.42843" lon="-0.37114">
        <ele>278.2</ele>
        <time>2026-08-31T08:39:43Z</time>
      </trkpt>
      <trkpt lat="43.42844" lon="-0.37114">
        <ele>278.2</ele>
        <time>2026-08-31T08:39:44Z</time>
      </trkpt>
      <trkpt lat="43.42845" lon="-0.37114">
        <ele>278.2</ele>
        <time>2026-08-31T08:39:44Z</time>
      </trkpt>
      <trkpt lat="43.42845" lon="-0.37113">
        <ele>278.2</ele>
        <time>2026-08-31T08:39:45Z</time>
      </trkpt>
      <trkpt lat="43.42846" lon="-0.37113">
        <ele>278.2</ele>
        <time>2026-08-31T08:39:45Z</time>
      </trkpt>
      <trkpt lat="43.42846" lon="-0.37113">
        <ele>278.2</ele>
        <time>2026-08-31T08:39:46Z</time>
      </trkpt>
      <trkpt lat="43.42847" lon="-0.37113">
        <ele>278.2</ele>
        <time>2026-08-31T08:39:46Z</time>
      </trkpt>
      <trkpt lat="43.42847" lon="-0.37113">
        <ele>278.2</ele>
        <time>2026-08-31T08:39:47Z</time>
      </trkpt>
      <trkpt lat="43.42848" lon="-0.37113">
        <ele>278.2</ele>
        <time>2026-08-31T08:39:47Z</time>
      </trkpt>
      <trkpt lat="43.42848" lon="-0.37114">
        <ele>278.2</ele>
        <time>2026-08-31T08:39:48Z</time>
      </trkpt>
      <trkpt lat="43.42849" lon="-0.37115">
        <ele>278.2</ele>
        <time>2026-08-31T08:39:48Z</time>
      </trkpt>
      <trkpt lat="43.42849" lon="-0.37116">
        <ele>279.2</ele>
        <time>2026-08-31T08:39:49Z</time>
      </trkpt>
      <trkpt lat="43.4285" lon="-0.37117">
        <ele>279.2</ele>
        <time>2026-08-31T08:39:49Z</time>
      </trkpt>
      <trkpt lat="43.4285" lon="-0.37118">
        <ele>279.2</ele>
        <time>2026-08-31T08:39:50Z</time>
      </trkpt>
      <trkpt lat="43.42851" lon="-0.37118">
        <ele>279.2</ele>
        <time>2026-08-31T08:39:51Z</time>
      </trkpt>
      <trkpt lat="43.42851" lon="-0.37119">
        <ele>279.2</ele>
        <time>2026-08-31T08:39:51Z</time>
      </trkpt>
      <trkpt lat="43.42851" lon="-0.3712">
        <ele>279.2</ele>
        <time>2026-08-31T08:39:52Z</time>
      </trkpt>
      <trkpt lat="43.42852" lon="-0.37121">
        <ele>280.2</ele>
        <time>2026-08-31T08:39:52Z</time>
      </trkpt>
      <trkpt lat="43.42852" lon="-0.37122">
        <ele>280.2</ele>
        <time>2026-08-31T08:39:53Z</time>
      </trkpt>
      <trkpt lat="43.42852" lon="-0.37123">
        <ele>280.2</ele>
        <time>2026-08-31T08:39:53Z</time>
      </trkpt>
      <trkpt lat="43.42853" lon="-0.37123">
        <ele>280.2</ele>
        <time>2026-08-31T08:39:54Z</time>
      </trkpt>
      <trkpt lat="43.42853" lon="-0.37124">
        <ele>280.2</ele>
        <time>2026-08-31T08:39:54Z</time>
      </trkpt>
      <trkpt lat="43.42854" lon="-0.37125">
        <ele>280.2</ele>
        <time>2026-08-31T08:39:55Z</time>
      </trkpt>
      <trkpt lat="43.42854" lon="-0.37126">
        <ele>280.2</ele>
        <time>2026-08-31T08:39:55Z</time>
      </trkpt>
      <trkpt lat="43.42855" lon="-0.37127">
        <ele>281.2</ele>
        <time>2026-08-31T08:39:56Z</time>
      </trkpt>
      <trkpt lat="43.42855" lon="-0.37127">
        <ele>281.2</ele>
        <time>2026-08-31T08:39:56Z</time>
      </trkpt>
      <trkpt lat="43.42855" lon="-0.37128">
        <ele>281.2</ele>
        <time>2026-08-31T08:39:57Z</time>
      </trkpt>
      <trkpt lat="43.42856" lon="-0.37129">
        <ele>281.2</ele>
        <time>2026-08-31T08:39:58Z</time>
      </trkpt>
      <trkpt lat="43.42856" lon="-0.3713">
        <ele>281.2</ele>
        <time>2026-08-31T08:39:58Z</time>
      </trkpt>
      <trkpt lat="43.42857" lon="-0.37131">
        <ele>281.2</ele>
        <time>2026-08-31T08:39:59Z</time>
      </trkpt>
      <trkpt lat="43.42857" lon="-0.37131">
        <ele>281.2</ele>
        <time>2026-08-31T08:39:59Z</time>
      </trkpt>
      <trkpt lat="43.42858" lon="-0.37132">
        <ele>281.2</ele>
        <time>2026-08-31T08:40:00Z</time>
      </trkpt>
      <trkpt lat="43.42858" lon="-0.37133">
        <ele>281.2</ele>
        <time>2026-08-31T08:40:00Z</time>
      </trkpt>
      <trkpt lat="43.42858" lon="-0.37133">
        <ele>281.2</ele>
        <time>2026-08-31T08:40:01Z</time>
      </trkpt>
      <trkpt lat="43.42859" lon="-0.37134">
        <ele>281.2</ele>
        <time>2026-08-31T08:40:01Z</time>
      </trkpt>
      <trkpt lat="43.42859" lon="-0.37135">
        <ele>281.2</ele>
        <time>2026-08-31T08:40:02Z</time>
      </trkpt>
      <trkpt lat="43.4286" lon="-0.37136">
        <ele>281.2</ele>
        <time>2026-08-31T08:40:02Z</time>
      </trkpt>
      <trkpt lat="43.4286" lon="-0.37137">
        <ele>281.2</ele>
        <time>2026-08-31T08:40:03Z</time>
      </trkpt>
      <trkpt lat="43.42861" lon="-0.37137">
        <ele>281.2</ele>
        <time>2026-08-31T08:40:03Z</time>
      </trkpt>
      <trkpt lat="43.42861" lon="-0.37138">
        <ele>282.2</ele>
        <time>2026-08-31T08:40:04Z</time>
      </trkpt>
      <trkpt lat="43.42862" lon="-0.37139">
        <ele>282.2</ele>
        <time>2026-08-31T08:40:05Z</time>
      </trkpt>
      <trkpt lat="43.42862" lon="-0.37139">
        <ele>282.2</ele>
        <time>2026-08-31T08:40:05Z</time>
      </trkpt>
      <trkpt lat="43.42863" lon="-0.3714">
        <ele>282.2</ele>
        <time>2026-08-31T08:40:06Z</time>
      </trkpt>
      <trkpt lat="43.42863" lon="-0.37141">
        <ele>282.2</ele>
        <time>2026-08-31T08:40:06Z</time>
      </trkpt>
      <trkpt lat="43.42863" lon="-0.37142">
        <ele>282.2</ele>
        <time>2026-08-31T08:40:07Z</time>
      </trkpt>
      <trkpt lat="43.42864" lon="-0.37142">
        <ele>282.2</ele>
        <time>2026-08-31T08:40:07Z</time>
      </trkpt>
      <trkpt lat="43.42864" lon="-0.37143">
        <ele>282.2</ele>
        <time>2026-08-31T08:40:08Z</time>
      </trkpt>
      <trkpt lat="43.42864" lon="-0.37144">
        <ele>282.2</ele>
        <time>2026-08-31T08:40:08Z</time>
      </trkpt>
      <trkpt lat="43.42865" lon="-0.37144">
        <ele>282.2</ele>
        <time>2026-08-31T08:40:09Z</time>
      </trkpt>
      <trkpt lat="43.42865" lon="-0.37145">
        <ele>282.2</ele>
        <time>2026-08-31T08:40:09Z</time>
      </trkpt>
      <trkpt lat="43.42866" lon="-0.37146">
        <ele>283.2</ele>
        <time>2026-08-31T08:40:10Z</time>
      </trkpt>
      <trkpt lat="43.42866" lon="-0.37147">
        <ele>283.2</ele>
        <time>2026-08-31T08:40:10Z</time>
      </trkpt>
      <trkpt lat="43.42867" lon="-0.37148">
        <ele>283.2</ele>
        <time>2026-08-31T08:40:11Z</time>
      </trkpt>
      <trkpt lat="43.42867" lon="-0.37149">
        <ele>283.2</ele>
        <time>2026-08-31T08:40:12Z</time>
      </trkpt>
      <trkpt lat="43.42868" lon="-0.3715">
        <ele>283.2</ele>
        <time>2026-08-31T08:40:13Z</time>
      </trkpt>
      <trkpt lat="43.42868" lon="-0.37151">
        <ele>283.2</ele>
        <time>2026-08-31T08:40:13Z</time>
      </trkpt>
      <trkpt lat="43.42868" lon="-0.37152">
        <ele>283.2</ele>
        <time>2026-08-31T08:40:14Z</time>
      </trkpt>
      <trkpt lat="43.42869" lon="-0.37152">
        <ele>282.2</ele>
        <time>2026-08-31T08:40:14Z</time>
      </trkpt>
      <trkpt lat="43.42869" lon="-0.37153">
        <ele>282.2</ele>
        <time>2026-08-31T08:40:15Z</time>
      </trkpt>
      <trkpt lat="43.42869" lon="-0.37154">
        <ele>282.2</ele>
        <time>2026-08-31T08:40:15Z</time>
      </trkpt>
      <trkpt lat="43.4287" lon="-0.37155">
        <ele>282.2</ele>
        <time>2026-08-31T08:40:16Z</time>
      </trkpt>
      <trkpt lat="43.4287" lon="-0.37156">
        <ele>282.2</ele>
        <time>2026-08-31T08:40:16Z</time>
      </trkpt>
      <trkpt lat="43.42871" lon="-0.37156">
        <ele>283.2</ele>
        <time>2026-08-31T08:40:17Z</time>
      </trkpt>
      <trkpt lat="43.42871" lon="-0.37157">
        <ele>283.2</ele>
        <time>2026-08-31T08:40:17Z</time>
      </trkpt>
      <trkpt lat="43.42871" lon="-0.37158">
        <ele>283.2</ele>
        <time>2026-08-31T08:40:18Z</time>
      </trkpt>
      <trkpt lat="43.42872" lon="-0.37159">
        <ele>283.2</ele>
        <time>2026-08-31T08:40:18Z</time>
      </trkpt>
      <trkpt lat="43.42872" lon="-0.3716">
        <ele>283.2</ele>
        <time>2026-08-31T08:40:19Z</time>
      </trkpt>
      <trkpt lat="43.42873" lon="-0.3716">
        <ele>283.2</ele>
        <time>2026-08-31T08:40:19Z</time>
      </trkpt>
      <trkpt lat="43.42873" lon="-0.37161">
        <ele>283.2</ele>
        <time>2026-08-31T08:40:20Z</time>
      </trkpt>
      <trkpt lat="43.42874" lon="-0.37162">
        <ele>283.2</ele>
        <time>2026-08-31T08:40:21Z</time>
      </trkpt>
      <trkpt lat="43.42874" lon="-0.37163">
        <ele>283.2</ele>
        <time>2026-08-31T08:40:21Z</time>
      </trkpt>
      <trkpt lat="43.42874" lon="-0.37164">
        <ele>283.2</ele>
        <time>2026-08-31T08:40:22Z</time>
      </trkpt>
      <trkpt lat="43.42875" lon="-0.37164">
        <ele>283.2</ele>
        <time>2026-08-31T08:40:22Z</time>
      </trkpt>
      <trkpt lat="43.42875" lon="-0.37165">
        <ele>283.2</ele>
        <time>2026-08-31T08:40:23Z</time>
      </trkpt>
      <trkpt lat="43.42876" lon="-0.37166">
        <ele>283.2</ele>
        <time>2026-08-31T08:40:23Z</time>
      </trkpt>
      <trkpt lat="43.42876" lon="-0.37166">
        <ele>283.2</ele>
        <time>2026-08-31T08:40:24Z</time>
      </trkpt>
      <trkpt lat="43.42877" lon="-0.37167">
        <ele>283.2</ele>
        <time>2026-08-31T08:40:24Z</time>
      </trkpt>
      <trkpt lat="43.42877" lon="-0.37168">
        <ele>283.2</ele>
        <time>2026-08-31T08:40:25Z</time>
      </trkpt>
      <trkpt lat="43.42878" lon="-0.37168">
        <ele>283.2</ele>
        <time>2026-08-31T08:40:25Z</time>
      </trkpt>
      <trkpt lat="43.42878" lon="-0.37169">
        <ele>283.2</ele>
        <time>2026-08-31T08:40:26Z</time>
      </trkpt>
      <trkpt lat="43.42879" lon="-0.37169">
        <ele>283.2</ele>
        <time>2026-08-31T08:40:26Z</time>
      </trkpt>
      <trkpt lat="43.4288" lon="-0.37169">
        <ele>284.2</ele>
        <time>2026-08-31T08:40:27Z</time>
      </trkpt>
      <trkpt lat="43.42881" lon="-0.37169">
        <ele>284.2</ele>
        <time>2026-08-31T08:40:28Z</time>
      </trkpt>
      <trkpt lat="43.42881" lon="-0.3717">
        <ele>283.2</ele>
        <time>2026-08-31T08:40:28Z</time>
      </trkpt>
      <trkpt lat="43.42882" lon="-0.3717">
        <ele>283.2</ele>
        <time>2026-08-31T08:40:29Z</time>
      </trkpt>
      <trkpt lat="43.42883" lon="-0.3717">
        <ele>283.2</ele>
        <time>2026-08-31T08:40:29Z</time>
      </trkpt>
      <trkpt lat="43.42883" lon="-0.37171">
        <ele>283.2</ele>
        <time>2026-08-31T08:40:30Z</time>
      </trkpt>
      <trkpt lat="43.42884" lon="-0.37171">
        <ele>283.2</ele>
        <time>2026-08-31T08:40:30Z</time>
      </trkpt>
      <trkpt lat="43.42884" lon="-0.37172">
        <ele>283.2</ele>
        <time>2026-08-31T08:40:31Z</time>
      </trkpt>
      <trkpt lat="43.42885" lon="-0.37173">
        <ele>283.2</ele>
        <time>2026-08-31T08:40:31Z</time>
      </trkpt>
      <trkpt lat="43.42886" lon="-0.37173">
        <ele>283.2</ele>
        <time>2026-08-31T08:40:32Z</time>
      </trkpt>
      <trkpt lat="43.42886" lon="-0.37174">
        <ele>283.2</ele>
        <time>2026-08-31T08:40:32Z</time>
      </trkpt>
      <trkpt lat="43.42887" lon="-0.37175">
        <ele>283.2</ele>
        <time>2026-08-31T08:40:33Z</time>
      </trkpt>
      <trkpt lat="43.42887" lon="-0.37176">
        <ele>283.2</ele>
        <time>2026-08-31T08:40:33Z</time>
      </trkpt>
      <trkpt lat="43.42888" lon="-0.37176">
        <ele>283.2</ele>
        <time>2026-08-31T08:40:34Z</time>
      </trkpt>
      <trkpt lat="43.42888" lon="-0.37177">
        <ele>283.2</ele>
        <time>2026-08-31T08:40:34Z</time>
      </trkpt>
      <trkpt lat="43.42889" lon="-0.37178">
        <ele>283.2</ele>
        <time>2026-08-31T08:40:35Z</time>
      </trkpt>
      <trkpt lat="43.42889" lon="-0.37178">
        <ele>283.2</ele>
        <time>2026-08-31T08:40:36Z</time>
      </trkpt>
      <trkpt lat="43.4289" lon="-0.37179">
        <ele>284.2</ele>
        <time>2026-08-31T08:40:36Z</time>
      </trkpt>
      <trkpt lat="43.42891" lon="-0.37179">
        <ele>284.2</ele>
        <time>2026-08-31T08:40:37Z</time>
      </trkpt>
      <trkpt lat="43.42891" lon="-0.3718">
        <ele>284.2</ele>
        <time>2026-08-31T08:40:37Z</time>
      </trkpt>
      <trkpt lat="43.42892" lon="-0.3718">
        <ele>284.2</ele>
        <time>2026-08-31T08:40:38Z</time>
      </trkpt>
      <trkpt lat="43.42892" lon="-0.37181">
        <ele>284.2</ele>
        <time>2026-08-31T08:40:38Z</time>
      </trkpt>
      <trkpt lat="43.42893" lon="-0.37181">
        <ele>284.2</ele>
        <time>2026-08-31T08:40:39Z</time>
      </trkpt>
      <trkpt lat="43.42894" lon="-0.37182">
        <ele>284.2</ele>
        <time>2026-08-31T08:40:39Z</time>
      </trkpt>
      <trkpt lat="43.42894" lon="-0.37182">
        <ele>284.2</ele>
        <time>2026-08-31T08:40:40Z</time>
      </trkpt>
      <trkpt lat="43.42895" lon="-0.37183">
        <ele>284.2</ele>
        <time>2026-08-31T08:40:40Z</time>
      </trkpt>
      <trkpt lat="43.42895" lon="-0.37183">
        <ele>284.2</ele>
        <time>2026-08-31T08:40:41Z</time>
      </trkpt>
      <trkpt lat="43.42896" lon="-0.37184">
        <ele>284.2</ele>
        <time>2026-08-31T08:40:41Z</time>
      </trkpt>
      <trkpt lat="43.42897" lon="-0.37184">
        <ele>284.2</ele>
        <time>2026-08-31T08:40:42Z</time>
      </trkpt>
      <trkpt lat="43.42897" lon="-0.37185">
        <ele>284.2</ele>
        <time>2026-08-31T08:40:42Z</time>
      </trkpt>
      <trkpt lat="43.42898" lon="-0.37185">
        <ele>284.2</ele>
        <time>2026-08-31T08:40:43Z</time>
      </trkpt>
      <trkpt lat="43.42898" lon="-0.37186">
        <ele>284.2</ele>
        <time>2026-08-31T08:40:43Z</time>
      </trkpt>
      <trkpt lat="43.42899" lon="-0.37186">
        <ele>284.2</ele>
        <time>2026-08-31T08:40:44Z</time>
      </trkpt>
      <trkpt lat="43.429" lon="-0.37187">
        <ele>284.2</ele>
        <time>2026-08-31T08:40:45Z</time>
      </trkpt>
      <trkpt lat="43.429" lon="-0.37187">
        <ele>284.2</ele>
        <time>2026-08-31T08:40:45Z</time>
      </trkpt>
      <trkpt lat="43.42901" lon="-0.37188">
        <ele>284.2</ele>
        <time>2026-08-31T08:40:46Z</time>
      </trkpt>
      <trkpt lat="43.42902" lon="-0.37188">
        <ele>284.2</ele>
        <time>2026-08-31T08:40:46Z</time>
      </trkpt>
      <trkpt lat="43.42902" lon="-0.37189">
        <ele>284.2</ele>
        <time>2026-08-31T08:40:47Z</time>
      </trkpt>
      <trkpt lat="43.42903" lon="-0.37189">
        <ele>284.2</ele>
        <time>2026-08-31T08:40:47Z</time>
      </trkpt>
      <trkpt lat="43.42903" lon="-0.3719">
        <ele>284.2</ele>
        <time>2026-08-31T08:40:48Z</time>
      </trkpt>
      <trkpt lat="43.42904" lon="-0.37191">
        <ele>284.2</ele>
        <time>2026-08-31T08:40:48Z</time>
      </trkpt>
      <trkpt lat="43.42904" lon="-0.37191">
        <ele>283.2</ele>
        <time>2026-08-31T08:40:49Z</time>
      </trkpt>
      <trkpt lat="43.42905" lon="-0.37192">
        <ele>283.2</ele>
        <time>2026-08-31T08:40:49Z</time>
      </trkpt>
      <trkpt lat="43.42905" lon="-0.37193">
        <ele>284.2</ele>
        <time>2026-08-31T08:40:50Z</time>
      </trkpt>
      <trkpt lat="43.42906" lon="-0.37193">
        <ele>284.2</ele>
        <time>2026-08-31T08:40:50Z</time>
      </trkpt>
      <trkpt lat="43.42906" lon="-0.37194">
        <ele>284.2</ele>
        <time>2026-08-31T08:40:51Z</time>
      </trkpt>
      <trkpt lat="43.42907" lon="-0.37194">
        <ele>284.2</ele>
        <time>2026-08-31T08:40:51Z</time>
      </trkpt>
      <trkpt lat="43.42907" lon="-0.37195">
        <ele>284.2</ele>
        <time>2026-08-31T08:40:52Z</time>
      </trkpt>
      <trkpt lat="43.42908" lon="-0.37196">
        <ele>284.2</ele>
        <time>2026-08-31T08:40:52Z</time>
      </trkpt>
      <trkpt lat="43.42908" lon="-0.37196">
        <ele>283.2</ele>
        <time>2026-08-31T08:40:53Z</time>
      </trkpt>
      <trkpt lat="43.42909" lon="-0.37196">
        <ele>283.2</ele>
        <time>2026-08-31T08:40:54Z</time>
      </trkpt>
      <trkpt lat="43.42909" lon="-0.37197">
        <ele>283.2</ele>
        <time>2026-08-31T08:40:54Z</time>
      </trkpt>
      <trkpt lat="43.4291" lon="-0.37198">
        <ele>283.2</ele>
        <time>2026-08-31T08:40:55Z</time>
      </trkpt>
      <trkpt lat="43.4291" lon="-0.37198">
        <ele>283.2</ele>
        <time>2026-08-31T08:40:55Z</time>
      </trkpt>
      <trkpt lat="43.42911" lon="-0.37199">
        <ele>283.2</ele>
        <time>2026-08-31T08:40:56Z</time>
      </trkpt>
      <trkpt lat="43.42911" lon="-0.37199">
        <ele>283.2</ele>
        <time>2026-08-31T08:40:56Z</time>
      </trkpt>
      <trkpt lat="43.42911" lon="-0.372">
        <ele>282.2</ele>
        <time>2026-08-31T08:40:57Z</time>
      </trkpt>
      <trkpt lat="43.42912" lon="-0.372">
        <ele>282.2</ele>
        <time>2026-08-31T08:40:57Z</time>
      </trkpt>
      <trkpt lat="43.42913" lon="-0.37201">
        <ele>282.2</ele>
        <time>2026-08-31T08:40:58Z</time>
      </trkpt>
      <trkpt lat="43.42913" lon="-0.37202">
        <ele>282.2</ele>
        <time>2026-08-31T08:40:58Z</time>
      </trkpt>
      <trkpt lat="43.42914" lon="-0.37202">
        <ele>282.2</ele>
        <time>2026-08-31T08:40:59Z</time>
      </trkpt>
      <trkpt lat="43.42914" lon="-0.37203">
        <ele>282.2</ele>
        <time>2026-08-31T08:40:59Z</time>
      </trkpt>
      <trkpt lat="43.42915" lon="-0.37203">
        <ele>282.2</ele>
        <time>2026-08-31T08:41:00Z</time>
      </trkpt>
      <trkpt lat="43.42916" lon="-0.37204">
        <ele>282.2</ele>
        <time>2026-08-31T08:41:01Z</time>
      </trkpt>
      <trkpt lat="43.42916" lon="-0.37204">
        <ele>282.2</ele>
        <time>2026-08-31T08:41:01Z</time>
      </trkpt>
      <trkpt lat="43.42917" lon="-0.37205">
        <ele>282.2</ele>
        <time>2026-08-31T08:41:02Z</time>
      </trkpt>
      <trkpt lat="43.42917" lon="-0.37205">
        <ele>282.2</ele>
        <time>2026-08-31T08:41:02Z</time>
      </trkpt>
      <trkpt lat="43.42918" lon="-0.37206">
        <ele>282.2</ele>
        <time>2026-08-31T08:41:03Z</time>
      </trkpt>
      <trkpt lat="43.42919" lon="-0.37206">
        <ele>282.2</ele>
        <time>2026-08-31T08:41:03Z</time>
      </trkpt>
      <trkpt lat="43.42919" lon="-0.37207">
        <ele>282.2</ele>
        <time>2026-08-31T08:41:04Z</time>
      </trkpt>
      <trkpt lat="43.4292" lon="-0.37207">
        <ele>282.2</ele>
        <time>2026-08-31T08:41:04Z</time>
      </trkpt>
      <trkpt lat="43.4292" lon="-0.37208">
        <ele>282.2</ele>
        <time>2026-08-31T08:41:05Z</time>
      </trkpt>
      <trkpt lat="43.42921" lon="-0.37208">
        <ele>282.2</ele>
        <time>2026-08-31T08:41:05Z</time>
      </trkpt>
      <trkpt lat="43.42921" lon="-0.37209">
        <ele>282.2</ele>
        <time>2026-08-31T08:41:06Z</time>
      </trkpt>
      <trkpt lat="43.42922" lon="-0.37209">
        <ele>282.2</ele>
        <time>2026-08-31T08:41:06Z</time>
      </trkpt>
      <trkpt lat="43.42923" lon="-0.3721">
        <ele>282.2</ele>
        <time>2026-08-31T08:41:07Z</time>
      </trkpt>
      <trkpt lat="43.42923" lon="-0.37211">
        <ele>282.2</ele>
        <time>2026-08-31T08:41:08Z</time>
      </trkpt>
      <trkpt lat="43.42924" lon="-0.37211">
        <ele>281.2</ele>
        <time>2026-08-31T08:41:08Z</time>
      </trkpt>
      <trkpt lat="43.42924" lon="-0.37212">
        <ele>281.2</ele>
        <time>2026-08-31T08:41:09Z</time>
      </trkpt>
      <trkpt lat="43.42925" lon="-0.37212">
        <ele>282.2</ele>
        <time>2026-08-31T08:41:09Z</time>
      </trkpt>
      <trkpt lat="43.42926" lon="-0.37213">
        <ele>282.2</ele>
        <time>2026-08-31T08:41:10Z</time>
      </trkpt>
      <trkpt lat="43.42926" lon="-0.37213">
        <ele>281.2</ele>
        <time>2026-08-31T08:41:10Z</time>
      </trkpt>
      <trkpt lat="43.42927" lon="-0.37214">
        <ele>282.2</ele>
        <time>2026-08-31T08:41:11Z</time>
      </trkpt>
      <trkpt lat="43.42927" lon="-0.37214">
        <ele>282.2</ele>
        <time>2026-08-31T08:41:11Z</time>
      </trkpt>
      <trkpt lat="43.42928" lon="-0.37215">
        <ele>282.2</ele>
        <time>2026-08-31T08:41:12Z</time>
      </trkpt>
      <trkpt lat="43.42929" lon="-0.37215">
        <ele>282.2</ele>
        <time>2026-08-31T08:41:12Z</time>
      </trkpt>
      <trkpt lat="43.42929" lon="-0.37216">
        <ele>282.2</ele>
        <time>2026-08-31T08:41:13Z</time>
      </trkpt>
      <trkpt lat="43.4293" lon="-0.37217">
        <ele>282.2</ele>
        <time>2026-08-31T08:41:13Z</time>
      </trkpt>
      <trkpt lat="43.4293" lon="-0.37217">
        <ele>282.2</ele>
        <time>2026-08-31T08:41:14Z</time>
      </trkpt>
      <trkpt lat="43.42931" lon="-0.37218">
        <ele>282.2</ele>
        <time>2026-08-31T08:41:14Z</time>
      </trkpt>
      <trkpt lat="43.42932" lon="-0.37218">
        <ele>282.2</ele>
        <time>2026-08-31T08:41:15Z</time>
      </trkpt>
      <trkpt lat="43.42932" lon="-0.37219">
        <ele>282.2</ele>
        <time>2026-08-31T08:41:16Z</time>
      </trkpt>
      <trkpt lat="43.42933" lon="-0.37219">
        <ele>281.2</ele>
        <time>2026-08-31T08:41:16Z</time>
      </trkpt>
      <trkpt lat="43.42933" lon="-0.3722">
        <ele>281.2</ele>
        <time>2026-08-31T08:41:17Z</time>
      </trkpt>
      <trkpt lat="43.42934" lon="-0.37221">
        <ele>281.2</ele>
        <time>2026-08-31T08:41:18Z</time>
      </trkpt>
      <trkpt lat="43.42935" lon="-0.37221">
        <ele>281.2</ele>
        <time>2026-08-31T08:41:18Z</time>
      </trkpt>
      <trkpt lat="43.42935" lon="-0.37222">
        <ele>281.2</ele>
        <time>2026-08-31T08:41:19Z</time>
      </trkpt>
      <trkpt lat="43.42936" lon="-0.37222">
        <ele>281.2</ele>
        <time>2026-08-31T08:41:19Z</time>
      </trkpt>
      <trkpt lat="43.42936" lon="-0.37223">
        <ele>281.2</ele>
        <time>2026-08-31T08:41:20Z</time>
      </trkpt>
      <trkpt lat="43.42937" lon="-0.37224">
        <ele>281.2</ele>
        <time>2026-08-31T08:41:20Z</time>
      </trkpt>
      <trkpt lat="43.42937" lon="-0.37224">
        <ele>281.2</ele>
        <time>2026-08-31T08:41:21Z</time>
      </trkpt>
      <trkpt lat="43.42938" lon="-0.37224">
        <ele>281.2</ele>
        <time>2026-08-31T08:41:22Z</time>
      </trkpt>
      <trkpt lat="43.42938" lon="-0.37225">
        <ele>281.2</ele>
        <time>2026-08-31T08:41:22Z</time>
      </trkpt>
      <trkpt lat="43.42939" lon="-0.37225">
        <ele>281.2</ele>
        <time>2026-08-31T08:41:23Z</time>
      </trkpt>
      <trkpt lat="43.4294" lon="-0.37226">
        <ele>281.2</ele>
        <time>2026-08-31T08:41:23Z</time>
      </trkpt>
      <trkpt lat="43.4294" lon="-0.37226">
        <ele>281.2</ele>
        <time>2026-08-31T08:41:24Z</time>
      </trkpt>
      <trkpt lat="43.42941" lon="-0.37227">
        <ele>282.2</ele>
        <time>2026-08-31T08:41:24Z</time>
      </trkpt>
      <trkpt lat="43.42941" lon="-0.37227">
        <ele>282.2</ele>
        <time>2026-08-31T08:41:25Z</time>
      </trkpt>
      <trkpt lat="43.42941" lon="-0.37227">
        <ele>282.2</ele>
        <time>2026-08-31T08:41:25Z</time>
      </trkpt>
      <trkpt lat="43.42942" lon="-0.37228">
        <ele>282.2</ele>
        <time>2026-08-31T08:41:26Z</time>
      </trkpt>
      <trkpt lat="43.42942" lon="-0.37228">
        <ele>282.2</ele>
        <time>2026-08-31T08:41:26Z</time>
      </trkpt>
      <trkpt lat="43.42942" lon="-0.37229">
        <ele>282.2</ele>
        <time>2026-08-31T08:41:27Z</time>
      </trkpt>
      <trkpt lat="43.42943" lon="-0.37229">
        <ele>282.2</ele>
        <time>2026-08-31T08:41:27Z</time>
      </trkpt>
      <trkpt lat="43.42943" lon="-0.3723">
        <ele>282.2</ele>
        <time>2026-08-31T08:41:28Z</time>
      </trkpt>
      <trkpt lat="43.42944" lon="-0.3723">
        <ele>282.2</ele>
        <time>2026-08-31T08:41:29Z</time>
      </trkpt>
      <trkpt lat="43.42944" lon="-0.37231">
        <ele>281.2</ele>
        <time>2026-08-31T08:41:29Z</time>
      </trkpt>
      <trkpt lat="43.42945" lon="-0.37231">
        <ele>281.2</ele>
        <time>2026-08-31T08:41:30Z</time>
      </trkpt>
      <trkpt lat="43.42945" lon="-0.37232">
        <ele>281.2</ele>
        <time>2026-08-31T08:41:30Z</time>
      </trkpt>
      <trkpt lat="43.42946" lon="-0.37232">
        <ele>281.2</ele>
        <time>2026-08-31T08:41:31Z</time>
      </trkpt>
      <trkpt lat="43.42947" lon="-0.37233">
        <ele>281.2</ele>
        <time>2026-08-31T08:41:31Z</time>
      </trkpt>
      <trkpt lat="43.42947" lon="-0.37234">
        <ele>280.2</ele>
        <time>2026-08-31T08:41:32Z</time>
      </trkpt>
      <trkpt lat="43.42948" lon="-0.37234">
        <ele>280.2</ele>
        <time>2026-08-31T08:41:32Z</time>
      </trkpt>
      <trkpt lat="43.42948" lon="-0.37235">
        <ele>280.2</ele>
        <time>2026-08-31T08:41:33Z</time>
      </trkpt>
      <trkpt lat="43.42949" lon="-0.37235">
        <ele>280.2</ele>
        <time>2026-08-31T08:41:33Z</time>
      </trkpt>
      <trkpt lat="43.4295" lon="-0.37236">
        <ele>280.2</ele>
        <time>2026-08-31T08:41:34Z</time>
      </trkpt>
      <trkpt lat="43.4295" lon="-0.37236">
        <ele>280.2</ele>
        <time>2026-08-31T08:41:34Z</time>
      </trkpt>
      <trkpt lat="43.42951" lon="-0.37237">
        <ele>280.2</ele>
        <time>2026-08-31T08:41:35Z</time>
      </trkpt>
      <trkpt lat="43.42952" lon="-0.37237">
        <ele>280.2</ele>
        <time>2026-08-31T08:41:36Z</time>
      </trkpt>
      <trkpt lat="43.42952" lon="-0.37237">
        <ele>280.2</ele>
        <time>2026-08-31T08:41:36Z</time>
      </trkpt>
      <trkpt lat="43.42953" lon="-0.37238">
        <ele>280.2</ele>
        <time>2026-08-31T08:41:37Z</time>
      </trkpt>
      <trkpt lat="43.42953" lon="-0.37238">
        <ele>280.2</ele>
        <time>2026-08-31T08:41:37Z</time>
      </trkpt>
      <trkpt lat="43.42954" lon="-0.37239">
        <ele>280.2</ele>
        <time>2026-08-31T08:41:38Z</time>
      </trkpt>
      <trkpt lat="43.42954" lon="-0.37239">
        <ele>280.2</ele>
        <time>2026-08-31T08:41:38Z</time>
      </trkpt>
      <trkpt lat="43.42955" lon="-0.3724">
        <ele>280.2</ele>
        <time>2026-08-31T08:41:39Z</time>
      </trkpt>
      <trkpt lat="43.42956" lon="-0.37241">
        <ele>280.2</ele>
        <time>2026-08-31T08:41:39Z</time>
      </trkpt>
      <trkpt lat="43.42956" lon="-0.37241">
        <ele>279.2</ele>
        <time>2026-08-31T08:41:40Z</time>
      </trkpt>
      <trkpt lat="43.42957" lon="-0.37242">
        <ele>279.2</ele>
        <time>2026-08-31T08:41:40Z</time>
      </trkpt>
      <trkpt lat="43.42957" lon="-0.37242">
        <ele>279.2</ele>
        <time>2026-08-31T08:41:41Z</time>
      </trkpt>
      <trkpt lat="43.42958" lon="-0.37243">
        <ele>279.2</ele>
        <time>2026-08-31T08:41:41Z</time>
      </trkpt>
      <trkpt lat="43.42959" lon="-0.37244">
        <ele>279.2</ele>
        <time>2026-08-31T08:41:42Z</time>
      </trkpt>
      <trkpt lat="43.42959" lon="-0.37244">
        <ele>279.2</ele>
        <time>2026-08-31T08:41:43Z</time>
      </trkpt>
      <trkpt lat="43.4296" lon="-0.37245">
        <ele>279.2</ele>
        <time>2026-08-31T08:41:43Z</time>
      </trkpt>
      <trkpt lat="43.42961" lon="-0.37245">
        <ele>279.2</ele>
        <time>2026-08-31T08:41:44Z</time>
      </trkpt>
      <trkpt lat="43.42961" lon="-0.37246">
        <ele>279.2</ele>
        <time>2026-08-31T08:41:44Z</time>
      </trkpt>
      <trkpt lat="43.42962" lon="-0.37246">
        <ele>279.2</ele>
        <time>2026-08-31T08:41:45Z</time>
      </trkpt>
      <trkpt lat="43.42963" lon="-0.37247">
        <ele>279.2</ele>
        <time>2026-08-31T08:41:45Z</time>
      </trkpt>
      <trkpt lat="43.42964" lon="-0.37247">
        <ele>279.2</ele>
        <time>2026-08-31T08:41:46Z</time>
      </trkpt>
      <trkpt lat="43.42965" lon="-0.37247">
        <ele>279.2</ele>
        <time>2026-08-31T08:41:47Z</time>
      </trkpt>
      <trkpt lat="43.42966" lon="-0.37248">
        <ele>279.2</ele>
        <time>2026-08-31T08:41:47Z</time>
      </trkpt>
      <trkpt lat="43.42966" lon="-0.37248">
        <ele>279.2</ele>
        <time>2026-08-31T08:41:48Z</time>
      </trkpt>
      <trkpt lat="43.42967" lon="-0.37248">
        <ele>279.2</ele>
        <time>2026-08-31T08:41:49Z</time>
      </trkpt>
      <trkpt lat="43.42968" lon="-0.37249">
        <ele>279.2</ele>
        <time>2026-08-31T08:41:49Z</time>
      </trkpt>
      <trkpt lat="43.42968" lon="-0.37249">
        <ele>279.2</ele>
        <time>2026-08-31T08:41:50Z</time>
      </trkpt>
      <trkpt lat="43.42969" lon="-0.3725">
        <ele>280.2</ele>
        <time>2026-08-31T08:41:50Z</time>
      </trkpt>
      <trkpt lat="43.42969" lon="-0.3725">
        <ele>280.2</ele>
        <time>2026-08-31T08:41:51Z</time>
      </trkpt>
      <trkpt lat="43.4297" lon="-0.3725">
        <ele>280.2</ele>
        <time>2026-08-31T08:41:51Z</time>
      </trkpt>
      <trkpt lat="43.42971" lon="-0.37251">
        <ele>280.2</ele>
        <time>2026-08-31T08:41:52Z</time>
      </trkpt>
      <trkpt lat="43.42971" lon="-0.37251">
        <ele>280.2</ele>
        <time>2026-08-31T08:41:52Z</time>
      </trkpt>
      <trkpt lat="43.42972" lon="-0.37252">
        <ele>280.2</ele>
        <time>2026-08-31T08:41:53Z</time>
      </trkpt>
      <trkpt lat="43.42973" lon="-0.37252">
        <ele>280.2</ele>
        <time>2026-08-31T08:41:53Z</time>
      </trkpt>
      <trkpt lat="43.42973" lon="-0.37253">
        <ele>280.2</ele>
        <time>2026-08-31T08:41:54Z</time>
      </trkpt>
      <trkpt lat="43.42974" lon="-0.37253">
        <ele>280.2</ele>
        <time>2026-08-31T08:41:55Z</time>
      </trkpt>
      <trkpt lat="43.42974" lon="-0.37254">
        <ele>280.2</ele>
        <time>2026-08-31T08:41:55Z</time>
      </trkpt>
      <trkpt lat="43.42975" lon="-0.37254">
        <ele>280.2</ele>
        <time>2026-08-31T08:41:56Z</time>
      </trkpt>
      <trkpt lat="43.42976" lon="-0.37255">
        <ele>280.2</ele>
        <time>2026-08-31T08:41:56Z</time>
      </trkpt>
      <trkpt lat="43.42976" lon="-0.37255">
        <ele>280.2</ele>
        <time>2026-08-31T08:41:57Z</time>
      </trkpt>
      <trkpt lat="43.42977" lon="-0.37255">
        <ele>280.2</ele>
        <time>2026-08-31T08:41:57Z</time>
      </trkpt>
      <trkpt lat="43.42978" lon="-0.37256">
        <ele>280.2</ele>
        <time>2026-08-31T08:41:58Z</time>
      </trkpt>
      <trkpt lat="43.42978" lon="-0.37256">
        <ele>280.2</ele>
        <time>2026-08-31T08:41:58Z</time>
      </trkpt>
      <trkpt lat="43.42979" lon="-0.37257">
        <ele>280.2</ele>
        <time>2026-08-31T08:41:59Z</time>
      </trkpt>
      <trkpt lat="43.4298" lon="-0.37257">
        <ele>280.2</ele>
        <time>2026-08-31T08:41:59Z</time>
      </trkpt>
      <trkpt lat="43.4298" lon="-0.37258">
        <ele>280.2</ele>
        <time>2026-08-31T08:42:00Z</time>
      </trkpt>
      <trkpt lat="43.42981" lon="-0.37258">
        <ele>280.2</ele>
        <time>2026-08-31T08:42:01Z</time>
      </trkpt>
      <trkpt lat="43.42982" lon="-0.37258">
        <ele>280.2</ele>
        <time>2026-08-31T08:42:01Z</time>
      </trkpt>
      <trkpt lat="43.42982" lon="-0.37259">
        <ele>280.2</ele>
        <time>2026-08-31T08:42:02Z</time>
      </trkpt>
      <trkpt lat="43.42983" lon="-0.37259">
        <ele>280.2</ele>
        <time>2026-08-31T08:42:02Z</time>
      </trkpt>
      <trkpt lat="43.42984" lon="-0.3726">
        <ele>280.2</ele>
        <time>2026-08-31T08:42:03Z</time>
      </trkpt>
      <trkpt lat="43.42984" lon="-0.3726">
        <ele>280.2</ele>
        <time>2026-08-31T08:42:03Z</time>
      </trkpt>
      <trkpt lat="43.42985" lon="-0.37261">
        <ele>279.2</ele>
        <time>2026-08-31T08:42:04Z</time>
      </trkpt>
      <trkpt lat="43.42985" lon="-0.37262">
        <ele>279.2</ele>
        <time>2026-08-31T08:42:04Z</time>
      </trkpt>
      <trkpt lat="43.42986" lon="-0.37263">
        <ele>280.2</ele>
        <time>2026-08-31T08:42:05Z</time>
      </trkpt>
      <trkpt lat="43.42987" lon="-0.37263">
        <ele>280.2</ele>
        <time>2026-08-31T08:42:06Z</time>
      </trkpt>
      <trkpt lat="43.42988" lon="-0.37264">
        <ele>280.2</ele>
        <time>2026-08-31T08:42:06Z</time>
      </trkpt>
      <trkpt lat="43.42989" lon="-0.37264">
        <ele>280.2</ele>
        <time>2026-08-31T08:42:07Z</time>
      </trkpt>
      <trkpt lat="43.42989" lon="-0.37265">
        <ele>280.2</ele>
        <time>2026-08-31T08:42:08Z</time>
      </trkpt>
      <trkpt lat="43.4299" lon="-0.37266">
        <ele>280.2</ele>
        <time>2026-08-31T08:42:08Z</time>
      </trkpt>
      <trkpt lat="43.42991" lon="-0.37266">
        <ele>280.2</ele>
        <time>2026-08-31T08:42:09Z</time>
      </trkpt>
      <trkpt lat="43.42991" lon="-0.37267">
        <ele>280.2</ele>
        <time>2026-08-31T08:42:09Z</time>
      </trkpt>
      <trkpt lat="43.42992" lon="-0.37267">
        <ele>280.2</ele>
        <time>2026-08-31T08:42:10Z</time>
      </trkpt>
      <trkpt lat="43.42993" lon="-0.37268">
        <ele>279.2</ele>
        <time>2026-08-31T08:42:10Z</time>
      </trkpt>
      <trkpt lat="43.42993" lon="-0.37268">
        <ele>280.2</ele>
        <time>2026-08-31T08:42:11Z</time>
      </trkpt>
      <trkpt lat="43.42994" lon="-0.37269">
        <ele>280.2</ele>
        <time>2026-08-31T08:42:11Z</time>
      </trkpt>
      <trkpt lat="43.42995" lon="-0.37269">
        <ele>280.2</ele>
        <time>2026-08-31T08:42:12Z</time>
      </trkpt>
      <trkpt lat="43.42995" lon="-0.3727">
        <ele>280.2</ele>
        <time>2026-08-31T08:42:12Z</time>
      </trkpt>
      <trkpt lat="43.42996" lon="-0.3727">
        <ele>280.2</ele>
        <time>2026-08-31T08:42:13Z</time>
      </trkpt>
      <trkpt lat="43.42997" lon="-0.3727">
        <ele>280.2</ele>
        <time>2026-08-31T08:42:14Z</time>
      </trkpt>
      <trkpt lat="43.42997" lon="-0.37271">
        <ele>280.2</ele>
        <time>2026-08-31T08:42:14Z</time>
      </trkpt>
      <trkpt lat="43.42998" lon="-0.37271">
        <ele>280.2</ele>
        <time>2026-08-31T08:42:15Z</time>
      </trkpt>
      <trkpt lat="43.42999" lon="-0.37272">
        <ele>281.2</ele>
        <time>2026-08-31T08:42:15Z</time>
      </trkpt>
      <trkpt lat="43.43" lon="-0.37272">
        <ele>281.2</ele>
        <time>2026-08-31T08:42:16Z</time>
      </trkpt>
      <trkpt lat="43.43" lon="-0.37272">
        <ele>281.2</ele>
        <time>2026-08-31T08:42:16Z</time>
      </trkpt>
      <trkpt lat="43.43001" lon="-0.37273">
        <ele>281.2</ele>
        <time>2026-08-31T08:42:17Z</time>
      </trkpt>
      <trkpt lat="43.43001" lon="-0.37273">
        <ele>281.2</ele>
        <time>2026-08-31T08:42:17Z</time>
      </trkpt>
      <trkpt lat="43.43002" lon="-0.37273">
        <ele>281.2</ele>
        <time>2026-08-31T08:42:18Z</time>
      </trkpt>
      <trkpt lat="43.43003" lon="-0.37274">
        <ele>281.2</ele>
        <time>2026-08-31T08:42:18Z</time>
      </trkpt>
      <trkpt lat="43.43003" lon="-0.37274">
        <ele>282.2</ele>
        <time>2026-08-31T08:42:19Z</time>
      </trkpt>
      <trkpt lat="43.43004" lon="-0.37275">
        <ele>282.2</ele>
        <time>2026-08-31T08:42:19Z</time>
      </trkpt>
      <trkpt lat="43.43004" lon="-0.37275">
        <ele>282.2</ele>
        <time>2026-08-31T08:42:20Z</time>
      </trkpt>
      <trkpt lat="43.43005" lon="-0.37275">
        <ele>282.2</ele>
        <time>2026-08-31T08:42:21Z</time>
      </trkpt>
      <trkpt lat="43.43006" lon="-0.37276">
        <ele>282.2</ele>
        <time>2026-08-31T08:42:21Z</time>
      </trkpt>
      <trkpt lat="43.43006" lon="-0.37276">
        <ele>282.2</ele>
        <time>2026-08-31T08:42:22Z</time>
      </trkpt>
      <trkpt lat="43.43007" lon="-0.37276">
        <ele>282.2</ele>
        <time>2026-08-31T08:42:22Z</time>
      </trkpt>
      <trkpt lat="43.43008" lon="-0.37277">
        <ele>282.2</ele>
        <time>2026-08-31T08:42:23Z</time>
      </trkpt>
      <trkpt lat="43.43008" lon="-0.37277">
        <ele>282.2</ele>
        <time>2026-08-31T08:42:23Z</time>
      </trkpt>
      <trkpt lat="43.43009" lon="-0.37277">
        <ele>282.2</ele>
        <time>2026-08-31T08:42:24Z</time>
      </trkpt>
      <trkpt lat="43.43009" lon="-0.37277">
        <ele>282.2</ele>
        <time>2026-08-31T08:42:24Z</time>
      </trkpt>
      <trkpt lat="43.4301" lon="-0.37278">
        <ele>283.2</ele>
        <time>2026-08-31T08:42:25Z</time>
      </trkpt>
      <trkpt lat="43.43011" lon="-0.37278">
        <ele>283.2</ele>
        <time>2026-08-31T08:42:25Z</time>
      </trkpt>
      <trkpt lat="43.43011" lon="-0.37278">
        <ele>282.2</ele>
        <time>2026-08-31T08:42:26Z</time>
      </trkpt>
      <trkpt lat="43.43012" lon="-0.37279">
        <ele>282.2</ele>
        <time>2026-08-31T08:42:27Z</time>
      </trkpt>
      <trkpt lat="43.43012" lon="-0.37279">
        <ele>282.2</ele>
        <time>2026-08-31T08:42:27Z</time>
      </trkpt>
      <trkpt lat="43.43013" lon="-0.37279">
        <ele>282.2</ele>
        <time>2026-08-31T08:42:28Z</time>
      </trkpt>
      <trkpt lat="43.43014" lon="-0.3728">
        <ele>282.2</ele>
        <time>2026-08-31T08:42:28Z</time>
      </trkpt>
      <trkpt lat="43.43014" lon="-0.3728">
        <ele>282.2</ele>
        <time>2026-08-31T08:42:29Z</time>
      </trkpt>
      <trkpt lat="43.43015" lon="-0.3728">
        <ele>282.2</ele>
        <time>2026-08-31T08:42:29Z</time>
      </trkpt>
      <trkpt lat="43.43015" lon="-0.3728">
        <ele>282.2</ele>
        <time>2026-08-31T08:42:30Z</time>
      </trkpt>
      <trkpt lat="43.43016" lon="-0.37281">
        <ele>282.2</ele>
        <time>2026-08-31T08:42:30Z</time>
      </trkpt>
      <trkpt lat="43.43017" lon="-0.37281">
        <ele>282.2</ele>
        <time>2026-08-31T08:42:31Z</time>
      </trkpt>
      <trkpt lat="43.43017" lon="-0.37282">
        <ele>282.2</ele>
        <time>2026-08-31T08:42:31Z</time>
      </trkpt>
      <trkpt lat="43.43018" lon="-0.37282">
        <ele>282.2</ele>
        <time>2026-08-31T08:42:32Z</time>
      </trkpt>
      <trkpt lat="43.43019" lon="-0.37282">
        <ele>282.2</ele>
        <time>2026-08-31T08:42:32Z</time>
      </trkpt>
      <trkpt lat="43.43019" lon="-0.37283">
        <ele>282.2</ele>
        <time>2026-08-31T08:42:33Z</time>
      </trkpt>
      <trkpt lat="43.4302" lon="-0.37283">
        <ele>282.2</ele>
        <time>2026-08-31T08:42:34Z</time>
      </trkpt>
      <trkpt lat="43.4302" lon="-0.37284">
        <ele>282.2</ele>
        <time>2026-08-31T08:42:34Z</time>
      </trkpt>
      <trkpt lat="43.43021" lon="-0.37284">
        <ele>282.2</ele>
        <time>2026-08-31T08:42:35Z</time>
      </trkpt>
      <trkpt lat="43.43022" lon="-0.37285">
        <ele>282.2</ele>
        <time>2026-08-31T08:42:35Z</time>
      </trkpt>
      <trkpt lat="43.43022" lon="-0.37285">
        <ele>282.2</ele>
        <time>2026-08-31T08:42:36Z</time>
      </trkpt>
      <trkpt lat="43.43023" lon="-0.37286">
        <ele>282.2</ele>
        <time>2026-08-31T08:42:36Z</time>
      </trkpt>
      <trkpt lat="43.43023" lon="-0.37286">
        <ele>282.2</ele>
        <time>2026-08-31T08:42:37Z</time>
      </trkpt>
      <trkpt lat="43.43024" lon="-0.37287">
        <ele>282.2</ele>
        <time>2026-08-31T08:42:37Z</time>
      </trkpt>
      <trkpt lat="43.43025" lon="-0.37287">
        <ele>282.2</ele>
        <time>2026-08-31T08:42:38Z</time>
      </trkpt>
      <trkpt lat="43.43025" lon="-0.37287">
        <ele>282.2</ele>
        <time>2026-08-31T08:42:38Z</time>
      </trkpt>
      <trkpt lat="43.43026" lon="-0.37288">
        <ele>282.2</ele>
        <time>2026-08-31T08:42:39Z</time>
      </trkpt>
      <trkpt lat="43.43027" lon="-0.37288">
        <ele>282.2</ele>
        <time>2026-08-31T08:42:40Z</time>
      </trkpt>
      <trkpt lat="43.43027" lon="-0.37289">
        <ele>282.2</ele>
        <time>2026-08-31T08:42:40Z</time>
      </trkpt>
      <trkpt lat="43.43028" lon="-0.37289">
        <ele>282.2</ele>
        <time>2026-08-31T08:42:41Z</time>
      </trkpt>
      <trkpt lat="43.43029" lon="-0.3729">
        <ele>282.2</ele>
        <time>2026-08-31T08:42:41Z</time>
      </trkpt>
      <trkpt lat="43.43029" lon="-0.3729">
        <ele>281.2</ele>
        <time>2026-08-31T08:42:42Z</time>
      </trkpt>
      <trkpt lat="43.4303" lon="-0.37291">
        <ele>281.2</ele>
        <time>2026-08-31T08:42:42Z</time>
      </trkpt>
      <trkpt lat="43.4303" lon="-0.37291">
        <ele>281.2</ele>
        <time>2026-08-31T08:42:43Z</time>
      </trkpt>
      <trkpt lat="43.43031" lon="-0.37292">
        <ele>281.2</ele>
        <time>2026-08-31T08:42:43Z</time>
      </trkpt>
      <trkpt lat="43.43032" lon="-0.37293">
        <ele>281.2</ele>
        <time>2026-08-31T08:42:44Z</time>
      </trkpt>
      <trkpt lat="43.43032" lon="-0.37293">
        <ele>281.2</ele>
        <time>2026-08-31T08:42:44Z</time>
      </trkpt>
      <trkpt lat="43.43033" lon="-0.37294">
        <ele>280.2</ele>
        <time>2026-08-31T08:42:45Z</time>
      </trkpt>
      <trkpt lat="43.43034" lon="-0.37294">
        <ele>280.2</ele>
        <time>2026-08-31T08:42:45Z</time>
      </trkpt>
      <trkpt lat="43.43034" lon="-0.37295">
        <ele>280.2</ele>
        <time>2026-08-31T08:42:46Z</time>
      </trkpt>
      <trkpt lat="43.43035" lon="-0.37295">
        <ele>280.2</ele>
        <time>2026-08-31T08:42:47Z</time>
      </trkpt>
      <trkpt lat="43.43036" lon="-0.37296">
        <ele>281.2</ele>
        <time>2026-08-31T08:42:47Z</time>
      </trkpt>
      <trkpt lat="43.43036" lon="-0.37296">
        <ele>281.2</ele>
        <time>2026-08-31T08:42:48Z</time>
      </trkpt>
      <trkpt lat="43.43037" lon="-0.37297">
        <ele>281.2</ele>
        <time>2026-08-31T08:42:48Z</time>
      </trkpt>
      <trkpt lat="43.43037" lon="-0.37297">
        <ele>281.2</ele>
        <time>2026-08-31T08:42:49Z</time>
      </trkpt>
      <trkpt lat="43.43038" lon="-0.37297">
        <ele>281.2</ele>
        <time>2026-08-31T08:42:49Z</time>
      </trkpt>
      <trkpt lat="43.43038" lon="-0.37297">
        <ele>281.2</ele>
        <time>2026-08-31T08:42:50Z</time>
      </trkpt>
      <trkpt lat="43.43039" lon="-0.37298">
        <ele>281.2</ele>
        <time>2026-08-31T08:42:50Z</time>
      </trkpt>
      <trkpt lat="43.4304" lon="-0.37298">
        <ele>281.2</ele>
        <time>2026-08-31T08:42:51Z</time>
      </trkpt>
      <trkpt lat="43.4304" lon="-0.37298">
        <ele>281.2</ele>
        <time>2026-08-31T08:42:51Z</time>
      </trkpt>
      <trkpt lat="43.43041" lon="-0.37299">
        <ele>280.2</ele>
        <time>2026-08-31T08:42:52Z</time>
      </trkpt>
      <trkpt lat="43.43042" lon="-0.37299">
        <ele>280.2</ele>
        <time>2026-08-31T08:42:53Z</time>
      </trkpt>
      <trkpt lat="43.43042" lon="-0.37299">
        <ele>280.2</ele>
        <time>2026-08-31T08:42:53Z</time>
      </trkpt>
      <trkpt lat="43.43043" lon="-0.373">
        <ele>280.2</ele>
        <time>2026-08-31T08:42:54Z</time>
      </trkpt>
      <trkpt lat="43.43044" lon="-0.373">
        <ele>281.2</ele>
        <time>2026-08-31T08:42:54Z</time>
      </trkpt>
      <trkpt lat="43.43044" lon="-0.37301">
        <ele>281.2</ele>
        <time>2026-08-31T08:42:55Z</time>
      </trkpt>
      <trkpt lat="43.43045" lon="-0.37301">
        <ele>280.2</ele>
        <time>2026-08-31T08:42:55Z</time>
      </trkpt>
      <trkpt lat="43.43046" lon="-0.37301">
        <ele>281.2</ele>
        <time>2026-08-31T08:42:56Z</time>
      </trkpt>
      <trkpt lat="43.43046" lon="-0.37301">
        <ele>281.2</ele>
        <time>2026-08-31T08:42:56Z</time>
      </trkpt>
      <trkpt lat="43.43047" lon="-0.37302">
        <ele>280.2</ele>
        <time>2026-08-31T08:42:57Z</time>
      </trkpt>
      <trkpt lat="43.43047" lon="-0.37302">
        <ele>280.2</ele>
        <time>2026-08-31T08:42:57Z</time>
      </trkpt>
      <trkpt lat="43.43048" lon="-0.37302">
        <ele>280.2</ele>
        <time>2026-08-31T08:42:58Z</time>
      </trkpt>
      <trkpt lat="43.43049" lon="-0.37302">
        <ele>280.2</ele>
        <time>2026-08-31T08:42:58Z</time>
      </trkpt>
      <trkpt lat="43.43049" lon="-0.37303">
        <ele>281.2</ele>
        <time>2026-08-31T08:42:59Z</time>
      </trkpt>
      <trkpt lat="43.4305" lon="-0.37303">
        <ele>281.2</ele>
        <time>2026-08-31T08:43:00Z</time>
      </trkpt>
      <trkpt lat="43.43051" lon="-0.37303">
        <ele>280.2</ele>
        <time>2026-08-31T08:43:00Z</time>
      </trkpt>
      <trkpt lat="43.43052" lon="-0.37304">
        <ele>280.2</ele>
        <time>2026-08-31T08:43:01Z</time>
      </trkpt>
      <trkpt lat="43.43052" lon="-0.37304">
        <ele>280.2</ele>
        <time>2026-08-31T08:43:01Z</time>
      </trkpt>
      <trkpt lat="43.43053" lon="-0.37305">
        <ele>281.2</ele>
        <time>2026-08-31T08:43:02Z</time>
      </trkpt>
      <trkpt lat="43.43054" lon="-0.37305">
        <ele>281.2</ele>
        <time>2026-08-31T08:43:02Z</time>
      </trkpt>
      <trkpt lat="43.43054" lon="-0.37305">
        <ele>281.2</ele>
        <time>2026-08-31T08:43:03Z</time>
      </trkpt>
      <trkpt lat="43.43055" lon="-0.37306">
        <ele>281.2</ele>
        <time>2026-08-31T08:43:03Z</time>
      </trkpt>
      <trkpt lat="43.43056" lon="-0.37306">
        <ele>281.2</ele>
        <time>2026-08-31T08:43:04Z</time>
      </trkpt>
      <trkpt lat="43.43057" lon="-0.37307">
        <ele>281.2</ele>
        <time>2026-08-31T08:43:04Z</time>
      </trkpt>
      <trkpt lat="43.43057" lon="-0.37307">
        <ele>281.2</ele>
        <time>2026-08-31T08:43:05Z</time>
      </trkpt>
      <trkpt lat="43.43058" lon="-0.37308">
        <ele>281.2</ele>
        <time>2026-08-31T08:43:05Z</time>
      </trkpt>
      <trkpt lat="43.43059" lon="-0.37308">
        <ele>281.2</ele>
        <time>2026-08-31T08:43:06Z</time>
      </trkpt>
      <trkpt lat="43.43059" lon="-0.37308">
        <ele>281.2</ele>
        <time>2026-08-31T08:43:07Z</time>
      </trkpt>
      <trkpt lat="43.4306" lon="-0.37309">
        <ele>280.2</ele>
        <time>2026-08-31T08:43:07Z</time>
      </trkpt>
      <trkpt lat="43.4306" lon="-0.37309">
        <ele>280.2</ele>
        <time>2026-08-31T08:43:08Z</time>
      </trkpt>
      <trkpt lat="43.43061" lon="-0.3731">
        <ele>280.2</ele>
        <time>2026-08-31T08:43:08Z</time>
      </trkpt>
      <trkpt lat="43.43062" lon="-0.3731">
        <ele>280.2</ele>
        <time>2026-08-31T08:43:09Z</time>
      </trkpt>
      <trkpt lat="43.43062" lon="-0.37311">
        <ele>280.2</ele>
        <time>2026-08-31T08:43:09Z</time>
      </trkpt>
      <trkpt lat="43.43063" lon="-0.37311">
        <ele>280.2</ele>
        <time>2026-08-31T08:43:10Z</time>
      </trkpt>
      <trkpt lat="43.43064" lon="-0.37311">
        <ele>280.2</ele>
        <time>2026-08-31T08:43:10Z</time>
      </trkpt>
      <trkpt lat="43.43064" lon="-0.37312">
        <ele>280.2</ele>
        <time>2026-08-31T08:43:11Z</time>
      </trkpt>
      <trkpt lat="43.43065" lon="-0.37312">
        <ele>280.2</ele>
        <time>2026-08-31T08:43:11Z</time>
      </trkpt>
      <trkpt lat="43.43066" lon="-0.37313">
        <ele>280.2</ele>
        <time>2026-08-31T08:43:12Z</time>
      </trkpt>
      <trkpt lat="43.43066" lon="-0.37313">
        <ele>280.2</ele>
        <time>2026-08-31T08:43:12Z</time>
      </trkpt>
      <trkpt lat="43.43067" lon="-0.37314">
        <ele>280.2</ele>
        <time>2026-08-31T08:43:13Z</time>
      </trkpt>
      <trkpt lat="43.43068" lon="-0.37314">
        <ele>280.2</ele>
        <time>2026-08-31T08:43:14Z</time>
      </trkpt>
      <trkpt lat="43.43068" lon="-0.37314">
        <ele>280.2</ele>
        <time>2026-08-31T08:43:14Z</time>
      </trkpt>
      <trkpt lat="43.43069" lon="-0.37314">
        <ele>280.2</ele>
        <time>2026-08-31T08:43:15Z</time>
      </trkpt>
      <trkpt lat="43.4307" lon="-0.37315">
        <ele>280.2</ele>
        <time>2026-08-31T08:43:15Z</time>
      </trkpt>
      <trkpt lat="43.4307" lon="-0.37315">
        <ele>280.2</ele>
        <time>2026-08-31T08:43:16Z</time>
      </trkpt>
      <trkpt lat="43.43071" lon="-0.37316">
        <ele>280.2</ele>
        <time>2026-08-31T08:43:16Z</time>
      </trkpt>
      <trkpt lat="43.43071" lon="-0.37316">
        <ele>280.2</ele>
        <time>2026-08-31T08:43:17Z</time>
      </trkpt>
      <trkpt lat="43.43072" lon="-0.37316">
        <ele>280.2</ele>
        <time>2026-08-31T08:43:17Z</time>
      </trkpt>
      <trkpt lat="43.43073" lon="-0.37317">
        <ele>280.2</ele>
        <time>2026-08-31T08:43:18Z</time>
      </trkpt>
      <trkpt lat="43.43073" lon="-0.37317">
        <ele>280.2</ele>
        <time>2026-08-31T08:43:18Z</time>
      </trkpt>
      <trkpt lat="43.43074" lon="-0.37318">
        <ele>279.2</ele>
        <time>2026-08-31T08:43:19Z</time>
      </trkpt>
      <trkpt lat="43.43074" lon="-0.37318">
        <ele>279.2</ele>
        <time>2026-08-31T08:43:20Z</time>
      </trkpt>
      <trkpt lat="43.43075" lon="-0.37319">
        <ele>279.2</ele>
        <time>2026-08-31T08:43:20Z</time>
      </trkpt>
      <trkpt lat="43.43075" lon="-0.37319">
        <ele>279.2</ele>
        <time>2026-08-31T08:43:21Z</time>
      </trkpt>
      <trkpt lat="43.43076" lon="-0.3732">
        <ele>279.2</ele>
        <time>2026-08-31T08:43:21Z</time>
      </trkpt>
      <trkpt lat="43.43077" lon="-0.37321">
        <ele>279.2</ele>
        <time>2026-08-31T08:43:22Z</time>
      </trkpt>
      <trkpt lat="43.43077" lon="-0.37321">
        <ele>279.2</ele>
        <time>2026-08-31T08:43:22Z</time>
      </trkpt>
      <trkpt lat="43.43078" lon="-0.37321">
        <ele>279.2</ele>
        <time>2026-08-31T08:43:23Z</time>
      </trkpt>
      <trkpt lat="43.43078" lon="-0.37322">
        <ele>279.2</ele>
        <time>2026-08-31T08:43:23Z</time>
      </trkpt>
      <trkpt lat="43.43079" lon="-0.37322">
        <ele>279.2</ele>
        <time>2026-08-31T08:43:24Z</time>
      </trkpt>
      <trkpt lat="43.4308" lon="-0.37322">
        <ele>279.2</ele>
        <time>2026-08-31T08:43:24Z</time>
      </trkpt>
      <trkpt lat="43.4308" lon="-0.37323">
        <ele>279.2</ele>
        <time>2026-08-31T08:43:25Z</time>
      </trkpt>
      <trkpt lat="43.43081" lon="-0.37323">
        <ele>279.2</ele>
        <time>2026-08-31T08:43:25Z</time>
      </trkpt>
      <trkpt lat="43.43082" lon="-0.37324">
        <ele>279.2</ele>
        <time>2026-08-31T08:43:26Z</time>
      </trkpt>
      <trkpt lat="43.43082" lon="-0.37324">
        <ele>279.2</ele>
        <time>2026-08-31T08:43:27Z</time>
      </trkpt>
      <trkpt lat="43.43083" lon="-0.37324">
        <ele>280.2</ele>
        <time>2026-08-31T08:43:27Z</time>
      </trkpt>
      <trkpt lat="43.43084" lon="-0.37325">
        <ele>280.2</ele>
        <time>2026-08-31T08:43:28Z</time>
      </trkpt>
      <trkpt lat="43.43085" lon="-0.37325">
        <ele>280.2</ele>
        <time>2026-08-31T08:43:28Z</time>
      </trkpt>
      <trkpt lat="43.43085" lon="-0.37325">
        <ele>280.2</ele>
        <time>2026-08-31T08:43:29Z</time>
      </trkpt>
      <trkpt lat="43.43086" lon="-0.37326">
        <ele>280.2</ele>
        <time>2026-08-31T08:43:29Z</time>
      </trkpt>
      <trkpt lat="43.43087" lon="-0.37326">
        <ele>279.2</ele>
        <time>2026-08-31T08:43:30Z</time>
      </trkpt>
      <trkpt lat="43.43087" lon="-0.37326">
        <ele>279.2</ele>
        <time>2026-08-31T08:43:30Z</time>
      </trkpt>
      <trkpt lat="43.43088" lon="-0.37327">
        <ele>279.2</ele>
        <time>2026-08-31T08:43:31Z</time>
      </trkpt>
      <trkpt lat="43.43089" lon="-0.37327">
        <ele>279.2</ele>
        <time>2026-08-31T08:43:31Z</time>
      </trkpt>
      <trkpt lat="43.43089" lon="-0.37327">
        <ele>278.2</ele>
        <time>2026-08-31T08:43:32Z</time>
      </trkpt>
      <trkpt lat="43.4309" lon="-0.37328">
        <ele>278.2</ele>
        <time>2026-08-31T08:43:32Z</time>
      </trkpt>
      <trkpt lat="43.43091" lon="-0.37328">
        <ele>278.2</ele>
        <time>2026-08-31T08:43:33Z</time>
      </trkpt>
      <trkpt lat="43.43091" lon="-0.37328">
        <ele>278.2</ele>
        <time>2026-08-31T08:43:34Z</time>
      </trkpt>
      <trkpt lat="43.43092" lon="-0.37329">
        <ele>277.2</ele>
        <time>2026-08-31T08:43:34Z</time>
      </trkpt>
      <trkpt lat="43.43093" lon="-0.37329">
        <ele>277.2</ele>
        <time>2026-08-31T08:43:35Z</time>
      </trkpt>
      <trkpt lat="43.43093" lon="-0.3733">
        <ele>277.2</ele>
        <time>2026-08-31T08:43:35Z</time>
      </trkpt>
      <trkpt lat="43.43094" lon="-0.3733">
        <ele>277.2</ele>
        <time>2026-08-31T08:43:36Z</time>
      </trkpt>
      <trkpt lat="43.43094" lon="-0.37331">
        <ele>277.2</ele>
        <time>2026-08-31T08:43:36Z</time>
      </trkpt>
      <trkpt lat="43.43095" lon="-0.37331">
        <ele>276.2</ele>
        <time>2026-08-31T08:43:37Z</time>
      </trkpt>
      <trkpt lat="43.43095" lon="-0.37332">
        <ele>276.2</ele>
        <time>2026-08-31T08:43:37Z</time>
      </trkpt>
      <trkpt lat="43.43096" lon="-0.37332">
        <ele>276.2</ele>
        <time>2026-08-31T08:43:38Z</time>
      </trkpt>
      <trkpt lat="43.43097" lon="-0.37333">
        <ele>276.2</ele>
        <time>2026-08-31T08:43:38Z</time>
      </trkpt>
      <trkpt lat="43.43097" lon="-0.37333">
        <ele>275.2</ele>
        <time>2026-08-31T08:43:39Z</time>
      </trkpt>
      <trkpt lat="43.43098" lon="-0.37333">
        <ele>275.2</ele>
        <time>2026-08-31T08:43:39Z</time>
      </trkpt>
      <trkpt lat="43.43099" lon="-0.37334">
        <ele>275.2</ele>
        <time>2026-08-31T08:43:40Z</time>
      </trkpt>
      <trkpt lat="43.43099" lon="-0.37334">
        <ele>275.2</ele>
        <time>2026-08-31T08:43:40Z</time>
      </trkpt>
      <trkpt lat="43.431" lon="-0.37335">
        <ele>275.2</ele>
        <time>2026-08-31T08:43:41Z</time>
      </trkpt>
      <trkpt lat="43.43101" lon="-0.37335">
        <ele>275.2</ele>
        <time>2026-08-31T08:43:42Z</time>
      </trkpt>
      <trkpt lat="43.43101" lon="-0.37335">
        <ele>276.2</ele>
        <time>2026-08-31T08:43:42Z</time>
      </trkpt>
      <trkpt lat="43.43102" lon="-0.37336">
        <ele>276.2</ele>
        <time>2026-08-31T08:43:43Z</time>
      </trkpt>
      <trkpt lat="43.43103" lon="-0.37336">
        <ele>276.2</ele>
        <time>2026-08-31T08:43:43Z</time>
      </trkpt>
      <trkpt lat="43.43103" lon="-0.37336">
        <ele>275.2</ele>
        <time>2026-08-31T08:43:44Z</time>
      </trkpt>
      <trkpt lat="43.43104" lon="-0.37336">
        <ele>275.2</ele>
        <time>2026-08-31T08:43:44Z</time>
      </trkpt>
      <trkpt lat="43.43104" lon="-0.37336">
        <ele>276.2</ele>
        <time>2026-08-31T08:43:45Z</time>
      </trkpt>
      <trkpt lat="43.43105" lon="-0.37337">
        <ele>276.2</ele>
        <time>2026-08-31T08:43:45Z</time>
      </trkpt>
      <trkpt lat="43.43106" lon="-0.37337">
        <ele>275.2</ele>
        <time>2026-08-31T08:43:46Z</time>
      </trkpt>
      <trkpt lat="43.43106" lon="-0.37337">
        <ele>275.2</ele>
        <time>2026-08-31T08:43:47Z</time>
      </trkpt>
      <trkpt lat="43.43107" lon="-0.37337">
        <ele>276.2</ele>
        <time>2026-08-31T08:43:47Z</time>
      </trkpt>
      <trkpt lat="43.43108" lon="-0.37338">
        <ele>276.2</ele>
        <time>2026-08-31T08:43:48Z</time>
      </trkpt>
      <trkpt lat="43.43108" lon="-0.37338">
        <ele>276.2</ele>
        <time>2026-08-31T08:43:48Z</time>
      </trkpt>
      <trkpt lat="43.43109" lon="-0.37338">
        <ele>276.2</ele>
        <time>2026-08-31T08:43:49Z</time>
      </trkpt>
      <trkpt lat="43.4311" lon="-0.37338">
        <ele>276.2</ele>
        <time>2026-08-31T08:43:49Z</time>
      </trkpt>
      <trkpt lat="43.4311" lon="-0.37338">
        <ele>276.2</ele>
        <time>2026-08-31T08:43:50Z</time>
      </trkpt>
      <trkpt lat="43.43111" lon="-0.37338">
        <ele>276.2</ele>
        <time>2026-08-31T08:43:50Z</time>
      </trkpt>
      <trkpt lat="43.43112" lon="-0.37338">
        <ele>276.2</ele>
        <time>2026-08-31T08:43:51Z</time>
      </trkpt>
      <trkpt lat="43.43112" lon="-0.37338">
        <ele>276.2</ele>
        <time>2026-08-31T08:43:51Z</time>
      </trkpt>
      <trkpt lat="43.43113" lon="-0.37338">
        <ele>276.2</ele>
        <time>2026-08-31T08:43:52Z</time>
      </trkpt>
      <trkpt lat="43.43114" lon="-0.37338">
        <ele>276.2</ele>
        <time>2026-08-31T08:43:52Z</time>
      </trkpt>
      <trkpt lat="43.43115" lon="-0.37338">
        <ele>277.2</ele>
        <time>2026-08-31T08:43:53Z</time>
      </trkpt>
      <trkpt lat="43.43115" lon="-0.37338">
        <ele>277.2</ele>
        <time>2026-08-31T08:43:53Z</time>
      </trkpt>
      <trkpt lat="43.43116" lon="-0.37339">
        <ele>276.2</ele>
        <time>2026-08-31T08:43:54Z</time>
      </trkpt>
      <trkpt lat="43.43117" lon="-0.37339">
        <ele>276.2</ele>
        <time>2026-08-31T08:43:55Z</time>
      </trkpt>
      <trkpt lat="43.43117" lon="-0.37338">
        <ele>277.2</ele>
        <time>2026-08-31T08:43:55Z</time>
      </trkpt>
      <trkpt lat="43.43118" lon="-0.37338">
        <ele>277.2</ele>
        <time>2026-08-31T08:43:56Z</time>
      </trkpt>
      <trkpt lat="43.43119" lon="-0.37338">
        <ele>277.2</ele>
        <time>2026-08-31T08:43:56Z</time>
      </trkpt>
      <trkpt lat="43.4312" lon="-0.37338">
        <ele>277.2</ele>
        <time>2026-08-31T08:43:57Z</time>
      </trkpt>
      <trkpt lat="43.4312" lon="-0.37338">
        <ele>277.2</ele>
        <time>2026-08-31T08:43:57Z</time>
      </trkpt>
      <trkpt lat="43.43121" lon="-0.37338">
        <ele>277.2</ele>
        <time>2026-08-31T08:43:58Z</time>
      </trkpt>
      <trkpt lat="43.43122" lon="-0.37337">
        <ele>277.2</ele>
        <time>2026-08-31T08:43:58Z</time>
      </trkpt>
      <trkpt lat="43.43123" lon="-0.37337">
        <ele>277.2</ele>
        <time>2026-08-31T08:43:59Z</time>
      </trkpt>
      <trkpt lat="43.43124" lon="-0.37337">
        <ele>277.2</ele>
        <time>2026-08-31T08:44:00Z</time>
      </trkpt>
      <trkpt lat="43.43125" lon="-0.37337">
        <ele>277.2</ele>
        <time>2026-08-31T08:44:00Z</time>
      </trkpt>
      <trkpt lat="43.43125" lon="-0.37337">
        <ele>277.2</ele>
        <time>2026-08-31T08:44:01Z</time>
      </trkpt>
      <trkpt lat="43.43126" lon="-0.37337">
        <ele>277.2</ele>
        <time>2026-08-31T08:44:02Z</time>
      </trkpt>
      <trkpt lat="43.43127" lon="-0.37336">
        <ele>277.2</ele>
        <time>2026-08-31T08:44:03Z</time>
      </trkpt>
      <trkpt lat="43.43128" lon="-0.37335">
        <ele>277.2</ele>
        <time>2026-08-31T08:44:04Z</time>
      </trkpt>
      <trkpt lat="43.43129" lon="-0.37335">
        <ele>276.2</ele>
        <time>2026-08-31T08:44:04Z</time>
      </trkpt>
      <trkpt lat="43.43129" lon="-0.37334">
        <ele>277.2</ele>
        <time>2026-08-31T08:44:05Z</time>
      </trkpt>
      <trkpt lat="43.43129" lon="-0.37334">
        <ele>277.2</ele>
        <time>2026-08-31T08:44:05Z</time>
      </trkpt>
      <trkpt lat="43.4313" lon="-0.37333">
        <ele>278.2</ele>
        <time>2026-08-31T08:44:06Z</time>
      </trkpt>
      <trkpt lat="43.4313" lon="-0.37332">
        <ele>277.2</ele>
        <time>2026-08-31T08:44:07Z</time>
      </trkpt>
      <trkpt lat="43.43131" lon="-0.37331">
        <ele>277.2</ele>
        <time>2026-08-31T08:44:07Z</time>
      </trkpt>
      <trkpt lat="43.43131" lon="-0.3733">
        <ele>278.2</ele>
        <time>2026-08-31T08:44:08Z</time>
      </trkpt>
      <trkpt lat="43.43131" lon="-0.37329">
        <ele>278.2</ele>
        <time>2026-08-31T08:44:09Z</time>
      </trkpt>
      <trkpt lat="43.43132" lon="-0.37328">
        <ele>278.2</ele>
        <time>2026-08-31T08:44:09Z</time>
      </trkpt>
      <trkpt lat="43.43132" lon="-0.37328">
        <ele>278.2</ele>
        <time>2026-08-31T08:44:10Z</time>
      </trkpt>
      <trkpt lat="43.43133" lon="-0.37327">
        <ele>277.2</ele>
        <time>2026-08-31T08:44:10Z</time>
      </trkpt>
      <trkpt lat="43.43133" lon="-0.37325">
        <ele>278.2</ele>
        <time>2026-08-31T08:44:11Z</time>
      </trkpt>
      <trkpt lat="43.43134" lon="-0.37325">
        <ele>278.2</ele>
        <time>2026-08-31T08:44:12Z</time>
      </trkpt>
      <trkpt lat="43.43134" lon="-0.37324">
        <ele>278.2</ele>
        <time>2026-08-31T08:44:12Z</time>
      </trkpt>
      <trkpt lat="43.43135" lon="-0.37322">
        <ele>277.2</ele>
        <time>2026-08-31T08:44:13Z</time>
      </trkpt>
      <trkpt lat="43.43135" lon="-0.37321">
        <ele>277.2</ele>
        <time>2026-08-31T08:44:14Z</time>
      </trkpt>
      <trkpt lat="43.43136" lon="-0.3732">
        <ele>277.2</ele>
        <time>2026-08-31T08:44:15Z</time>
      </trkpt>
      <trkpt lat="43.43136" lon="-0.37319">
        <ele>277.2</ele>
        <time>2026-08-31T08:44:16Z</time>
      </trkpt>
      <trkpt lat="43.43136" lon="-0.37319">
        <ele>275.2</ele>
        <time>2026-08-31T08:44:16Z</time>
      </trkpt>
      <trkpt lat="43.43137" lon="-0.37318">
        <ele>275.2</ele>
        <time>2026-08-31T08:44:17Z</time>
      </trkpt>
      <trkpt lat="43.43137" lon="-0.37317">
        <ele>274.2</ele>
        <time>2026-08-31T08:44:18Z</time>
      </trkpt>
      <trkpt lat="43.43137" lon="-0.37316">
        <ele>274.2</ele>
        <time>2026-08-31T08:44:18Z</time>
      </trkpt>
      <trkpt lat="43.43138" lon="-0.37315">
        <ele>274.2</ele>
        <time>2026-08-31T08:44:19Z</time>
      </trkpt>
      <trkpt lat="43.43138" lon="-0.37314">
        <ele>274.2</ele>
        <time>2026-08-31T08:44:19Z</time>
      </trkpt>
      <trkpt lat="43.43139" lon="-0.37314">
        <ele>275.2</ele>
        <time>2026-08-31T08:44:20Z</time>
      </trkpt>
      <trkpt lat="43.43139" lon="-0.37313">
        <ele>275.2</ele>
        <time>2026-08-31T08:44:20Z</time>
      </trkpt>
      <trkpt lat="43.4314" lon="-0.37312">
        <ele>275.2</ele>
        <time>2026-08-31T08:44:21Z</time>
      </trkpt>
      <trkpt lat="43.4314" lon="-0.37312">
        <ele>275.2</ele>
        <time>2026-08-31T08:44:22Z</time>
      </trkpt>
      <trkpt lat="43.43141" lon="-0.37312">
        <ele>275.2</ele>
        <time>2026-08-31T08:44:22Z</time>
      </trkpt>
      <trkpt lat="43.43141" lon="-0.37312">
        <ele>274.2</ele>
        <time>2026-08-31T08:44:23Z</time>
      </trkpt>
      <trkpt lat="43.43142" lon="-0.3731">
        <ele>274.2</ele>
        <time>2026-08-31T08:44:24Z</time>
      </trkpt>
      <trkpt lat="43.43143" lon="-0.3731">
        <ele>275.2</ele>
        <time>2026-08-31T08:44:24Z</time>
      </trkpt>
      <trkpt lat="43.43143" lon="-0.37309">
        <ele>276.2</ele>
        <time>2026-08-31T08:44:25Z</time>
      </trkpt>
      <trkpt lat="43.43144" lon="-0.37308">
        <ele>276.2</ele>
        <time>2026-08-31T08:44:26Z</time>
      </trkpt>
      <trkpt lat="43.43144" lon="-0.37307">
        <ele>276.2</ele>
        <time>2026-08-31T08:44:26Z</time>
      </trkpt>
      <trkpt lat="43.43144" lon="-0.37306">
        <ele>276.2</ele>
        <time>2026-08-31T08:44:27Z</time>
      </trkpt>
      <trkpt lat="43.43144" lon="-0.37305">
        <ele>276.2</ele>
        <time>2026-08-31T08:44:28Z</time>
      </trkpt>
      <trkpt lat="43.43145" lon="-0.37304">
        <ele>276.2</ele>
        <time>2026-08-31T08:44:29Z</time>
      </trkpt>
      <trkpt lat="43.43145" lon="-0.37303">
        <ele>276.2</ele>
        <time>2026-08-31T08:44:29Z</time>
      </trkpt>
      <trkpt lat="43.43145" lon="-0.37302">
        <ele>276.2</ele>
        <time>2026-08-31T08:44:30Z</time>
      </trkpt>
      <trkpt lat="43.43145" lon="-0.37301">
        <ele>276.2</ele>
        <time>2026-08-31T08:44:30Z</time>
      </trkpt>
      <trkpt lat="43.43146" lon="-0.373">
        <ele>276.2</ele>
        <time>2026-08-31T08:44:31Z</time>
      </trkpt>
      <trkpt lat="43.43146" lon="-0.373">
        <ele>276.2</ele>
        <time>2026-08-31T08:44:31Z</time>
      </trkpt>
      <trkpt lat="43.43146" lon="-0.37298">
        <ele>276.2</ele>
        <time>2026-08-31T08:44:32Z</time>
      </trkpt>
      <trkpt lat="43.43147" lon="-0.37297">
        <ele>276.2</ele>
        <time>2026-08-31T08:44:33Z</time>
      </trkpt>
      <trkpt lat="43.43147" lon="-0.37296">
        <ele>276.2</ele>
        <time>2026-08-31T08:44:33Z</time>
      </trkpt>
      <trkpt lat="43.43147" lon="-0.37295">
        <ele>276.2</ele>
        <time>2026-08-31T08:44:34Z</time>
      </trkpt>
      <trkpt lat="43.43147" lon="-0.37294">
        <ele>276.2</ele>
        <time>2026-08-31T08:44:35Z</time>
      </trkpt>
      <trkpt lat="43.43147" lon="-0.37293">
        <ele>276.2</ele>
        <time>2026-08-31T08:44:35Z</time>
      </trkpt>
      <trkpt lat="43.43147" lon="-0.37292">
        <ele>276.2</ele>
        <time>2026-08-31T08:44:36Z</time>
      </trkpt>
      <trkpt lat="43.43147" lon="-0.37291">
        <ele>276.2</ele>
        <time>2026-08-31T08:44:36Z</time>
      </trkpt>
      <trkpt lat="43.43147" lon="-0.3729">
        <ele>276.2</ele>
        <time>2026-08-31T08:44:38Z</time>
      </trkpt>
      <trkpt lat="43.43147" lon="-0.37289">
        <ele>276.2</ele>
        <time>2026-08-31T08:44:38Z</time>
      </trkpt>
      <trkpt lat="43.43148" lon="-0.37288">
        <ele>276.2</ele>
        <time>2026-08-31T08:44:39Z</time>
      </trkpt>
      <trkpt lat="43.43148" lon="-0.37287">
        <ele>276.2</ele>
        <time>2026-08-31T08:44:39Z</time>
      </trkpt>
      <trkpt lat="43.43148" lon="-0.37287">
        <ele>277.2</ele>
        <time>2026-08-31T08:44:40Z</time>
      </trkpt>
      <trkpt lat="43.43149" lon="-0.37286">
        <ele>277.2</ele>
        <time>2026-08-31T08:44:40Z</time>
      </trkpt>
      <trkpt lat="43.43149" lon="-0.37286">
        <ele>277.2</ele>
        <time>2026-08-31T08:44:41Z</time>
      </trkpt>
      <trkpt lat="43.43149" lon="-0.37285">
        <ele>276.2</ele>
        <time>2026-08-31T08:44:42Z</time>
      </trkpt>
      <trkpt lat="43.4315" lon="-0.37284">
        <ele>277.2</ele>
        <time>2026-08-31T08:44:43Z</time>
      </trkpt>
      <trkpt lat="43.43151" lon="-0.37284">
        <ele>277.2</ele>
        <time>2026-08-31T08:44:43Z</time>
      </trkpt>
      <trkpt lat="43.43151" lon="-0.37283">
        <ele>277.2</ele>
        <time>2026-08-31T08:44:44Z</time>
      </trkpt>
      <trkpt lat="43.43152" lon="-0.37283">
        <ele>277.2</ele>
        <time>2026-08-31T08:44:44Z</time>
      </trkpt>
      <trkpt lat="43.43153" lon="-0.37282">
        <ele>277.2</ele>
        <time>2026-08-31T08:44:46Z</time>
      </trkpt>
      <trkpt lat="43.43154" lon="-0.37281">
        <ele>277.2</ele>
        <time>2026-08-31T08:44:47Z</time>
      </trkpt>
      <trkpt lat="43.43154" lon="-0.3728">
        <ele>277.2</ele>
        <time>2026-08-31T08:44:47Z</time>
      </trkpt>
      <trkpt lat="43.43154" lon="-0.37279">
        <ele>276.2</ele>
        <time>2026-08-31T08:44:49Z</time>
      </trkpt>
      <trkpt lat="43.43155" lon="-0.37278">
        <ele>276.2</ele>
        <time>2026-08-31T08:44:50Z</time>
      </trkpt>
      <trkpt lat="43.43155" lon="-0.37278">
        <ele>276.2</ele>
        <time>2026-08-31T08:44:51Z</time>
      </trkpt>
      <trkpt lat="43.43155" lon="-0.37279">
        <ele>276.2</ele>
        <time>2026-08-31T08:44:52Z</time>
      </trkpt>
      <trkpt lat="43.43155" lon="-0.37279">
        <ele>275.2</ele>
        <time>2026-08-31T08:44:53Z</time>
      </trkpt>
      <trkpt lat="43.43155" lon="-0.37279">
        <ele>275.2</ele>
        <time>2026-08-31T08:44:54Z</time>
      </trkpt>
      <trkpt lat="43.43155" lon="-0.37279">
        <ele>275.2</ele>
        <time>2026-08-31T08:44:55Z</time>
      </trkpt>
      <trkpt lat="43.43155" lon="-0.37279">
        <ele>276.2</ele>
        <time>2026-08-31T08:44:56Z</time>
      </trkpt>
      <trkpt lat="43.43155" lon="-0.37279">
        <ele>276.2</ele>
        <time>2026-08-31T08:44:57Z</time>
      </trkpt>
      <trkpt lat="43.43155" lon="-0.37279">
        <ele>275.2</ele>
        <time>2026-08-31T08:44:58Z</time>
      </trkpt>
      <trkpt lat="43.43155" lon="-0.37279">
        <ele>275.2</ele>
        <time>2026-08-31T08:44:58Z</time>
      </trkpt>
      <trkpt lat="43.43155" lon="-0.37279">
        <ele>276.2</ele>
        <time>2026-08-31T08:44:59Z</time>
      </trkpt>
      <trkpt lat="43.43155" lon="-0.37279">
        <ele>276.2</ele>
        <time>2026-08-31T08:44:59Z</time>
      </trkpt>
      <trkpt lat="43.43156" lon="-0.37279">
        <ele>276.2</ele>
        <time>2026-08-31T08:45:00Z</time>
      </trkpt>
      <trkpt lat="43.43156" lon="-0.37279">
        <ele>276.2</ele>
        <time>2026-08-31T08:45:00Z</time>
      </trkpt>
      <trkpt lat="43.43156" lon="-0.37279">
        <ele>276.2</ele>
        <time>2026-08-31T08:45:01Z</time>
      </trkpt>
      <trkpt lat="43.43156" lon="-0.37279">
        <ele>276.2</ele>
        <time>2026-08-31T08:45:02Z</time>
      </trkpt>
      <trkpt lat="43.43157" lon="-0.37279">
        <ele>275.2</ele>
        <time>2026-08-31T08:45:02Z</time>
      </trkpt>
      <trkpt lat="43.43158" lon="-0.37279">
        <ele>275.2</ele>
        <time>2026-08-31T08:45:03Z</time>
      </trkpt>
      <trkpt lat="43.43158" lon="-0.37279">
        <ele>275.2</ele>
        <time>2026-08-31T08:45:03Z</time>
      </trkpt>
      <trkpt lat="43.4316" lon="-0.37278">
        <ele>275.2</ele>
        <time>2026-08-31T08:45:04Z</time>
      </trkpt>
      <trkpt lat="43.43161" lon="-0.37278">
        <ele>275.2</ele>
        <time>2026-08-31T08:45:04Z</time>
      </trkpt>
      <trkpt lat="43.43163" lon="-0.37277">
        <ele>275.2</ele>
        <time>2026-08-31T08:45:05Z</time>
      </trkpt>
      <trkpt lat="43.43164" lon="-0.37277">
        <ele>275.2</ele>
        <time>2026-08-31T08:45:05Z</time>
      </trkpt>
      <trkpt lat="43.43165" lon="-0.37275">
        <ele>275.2</ele>
        <time>2026-08-31T08:45:06Z</time>
      </trkpt>
      <trkpt lat="43.43166" lon="-0.37274">
        <ele>275.2</ele>
        <time>2026-08-31T08:45:07Z</time>
      </trkpt>
      <trkpt lat="43.43166" lon="-0.37273">
        <ele>275.2</ele>
        <time>2026-08-31T08:45:07Z</time>
      </trkpt>
      <trkpt lat="43.43167" lon="-0.37272">
        <ele>275.2</ele>
        <time>2026-08-31T08:45:08Z</time>
      </trkpt>
      <trkpt lat="43.43167" lon="-0.37271">
        <ele>275.2</ele>
        <time>2026-08-31T08:45:08Z</time>
      </trkpt>
      <trkpt lat="43.43168" lon="-0.3727">
        <ele>275.2</ele>
        <time>2026-08-31T08:45:09Z</time>
      </trkpt>
      <trkpt lat="43.43168" lon="-0.37268">
        <ele>275.2</ele>
        <time>2026-08-31T08:45:09Z</time>
      </trkpt>
      <trkpt lat="43.43168" lon="-0.37267">
        <ele>274.2</ele>
        <time>2026-08-31T08:45:10Z</time>
      </trkpt>
      <trkpt lat="43.43168" lon="-0.37266">
        <ele>274.2</ele>
        <time>2026-08-31T08:45:10Z</time>
      </trkpt>
      <trkpt lat="43.43169" lon="-0.37265">
        <ele>274.2</ele>
        <time>2026-08-31T08:45:11Z</time>
      </trkpt>
      <trkpt lat="43.43169" lon="-0.37264">
        <ele>274.2</ele>
        <time>2026-08-31T08:45:12Z</time>
      </trkpt>
      <trkpt lat="43.43169" lon="-0.37263">
        <ele>274.2</ele>
        <time>2026-08-31T08:45:12Z</time>
      </trkpt>
      <trkpt lat="43.4317" lon="-0.37262">
        <ele>274.2</ele>
        <time>2026-08-31T08:45:13Z</time>
      </trkpt>
      <trkpt lat="43.4317" lon="-0.37262">
        <ele>274.2</ele>
        <time>2026-08-31T08:45:13Z</time>
      </trkpt>
      <trkpt lat="43.43171" lon="-0.37261">
        <ele>273.2</ele>
        <time>2026-08-31T08:45:14Z</time>
      </trkpt>
      <trkpt lat="43.43171" lon="-0.3726">
        <ele>273.2</ele>
        <time>2026-08-31T08:45:14Z</time>
      </trkpt>
      <trkpt lat="43.43172" lon="-0.37259">
        <ele>273.2</ele>
        <time>2026-08-31T08:45:15Z</time>
      </trkpt>
      <trkpt lat="43.43172" lon="-0.37259">
        <ele>273.2</ele>
        <time>2026-08-31T08:45:15Z</time>
      </trkpt>
      <trkpt lat="43.43172" lon="-0.37258">
        <ele>273.2</ele>
        <time>2026-08-31T08:45:16Z</time>
      </trkpt>
      <trkpt lat="43.43173" lon="-0.37258">
        <ele>273.2</ele>
        <time>2026-08-31T08:45:16Z</time>
      </trkpt>
      <trkpt lat="43.43173" lon="-0.37257">
        <ele>273.2</ele>
        <time>2026-08-31T08:45:17Z</time>
      </trkpt>
      <trkpt lat="43.43173" lon="-0.37256">
        <ele>273.2</ele>
        <time>2026-08-31T08:45:18Z</time>
      </trkpt>
      <trkpt lat="43.43174" lon="-0.37256">
        <ele>273.2</ele>
        <time>2026-08-31T08:45:18Z</time>
      </trkpt>
      <trkpt lat="43.43174" lon="-0.37255">
        <ele>273.2</ele>
        <time>2026-08-31T08:45:19Z</time>
      </trkpt>
      <trkpt lat="43.43175" lon="-0.37254">
        <ele>273.2</ele>
        <time>2026-08-31T08:45:19Z</time>
      </trkpt>
      <trkpt lat="43.43175" lon="-0.37254">
        <ele>273.2</ele>
        <time>2026-08-31T08:45:20Z</time>
      </trkpt>
      <trkpt lat="43.43175" lon="-0.37253">
        <ele>273.2</ele>
        <time>2026-08-31T08:45:20Z</time>
      </trkpt>
      <trkpt lat="43.43175" lon="-0.37252">
        <ele>273.2</ele>
        <time>2026-08-31T08:45:21Z</time>
      </trkpt>
      <trkpt lat="43.43176" lon="-0.37252">
        <ele>273.2</ele>
        <time>2026-08-31T08:45:22Z</time>
      </trkpt>
      <trkpt lat="43.43176" lon="-0.37251">
        <ele>273.2</ele>
        <time>2026-08-31T08:45:22Z</time>
      </trkpt>
      <trkpt lat="43.43177" lon="-0.37251">
        <ele>273.2</ele>
        <time>2026-08-31T08:45:23Z</time>
      </trkpt>
      <trkpt lat="43.43177" lon="-0.3725">
        <ele>273.2</ele>
        <time>2026-08-31T08:45:23Z</time>
      </trkpt>
      <trkpt lat="43.43177" lon="-0.3725">
        <ele>273.2</ele>
        <time>2026-08-31T08:45:24Z</time>
      </trkpt>
      <trkpt lat="43.43178" lon="-0.37249">
        <ele>272.2</ele>
        <time>2026-08-31T08:45:25Z</time>
      </trkpt>
      <trkpt lat="43.43178" lon="-0.37248">
        <ele>272.2</ele>
        <time>2026-08-31T08:45:25Z</time>
      </trkpt>
      <trkpt lat="43.43179" lon="-0.37248">
        <ele>272.2</ele>
        <time>2026-08-31T08:45:26Z</time>
      </trkpt>
      <trkpt lat="43.43179" lon="-0.37247">
        <ele>272.2</ele>
        <time>2026-08-31T08:45:27Z</time>
      </trkpt>
      <trkpt lat="43.4318" lon="-0.37247">
        <ele>272.2</ele>
        <time>2026-08-31T08:45:27Z</time>
      </trkpt>
      <trkpt lat="43.4318" lon="-0.37247">
        <ele>272.2</ele>
        <time>2026-08-31T08:45:28Z</time>
      </trkpt>
      <trkpt lat="43.4318" lon="-0.37246">
        <ele>272.2</ele>
        <time>2026-08-31T08:45:29Z</time>
      </trkpt>
      <trkpt lat="43.43181" lon="-0.37246">
        <ele>272.2</ele>
        <time>2026-08-31T08:45:29Z</time>
      </trkpt>
      <trkpt lat="43.43181" lon="-0.37245">
        <ele>272.2</ele>
        <time>2026-08-31T08:45:30Z</time>
      </trkpt>
      <trkpt lat="43.43181" lon="-0.37245">
        <ele>272.2</ele>
        <time>2026-08-31T08:45:30Z</time>
      </trkpt>
      <trkpt lat="43.43182" lon="-0.37245">
        <ele>272.2</ele>
        <time>2026-08-31T08:45:32Z</time>
      </trkpt>
      <trkpt lat="43.43181" lon="-0.37246">
        <ele>271.2</ele>
        <time>2026-08-31T08:45:33Z</time>
      </trkpt>
      <trkpt lat="43.43181" lon="-0.37246">
        <ele>271.2</ele>
        <time>2026-08-31T08:45:34Z</time>
      </trkpt>
      <trkpt lat="43.4318" lon="-0.37246">
        <ele>271.2</ele>
        <time>2026-08-31T08:45:35Z</time>
      </trkpt>
      <trkpt lat="43.43181" lon="-0.37246">
        <ele>271.2</ele>
        <time>2026-08-31T08:45:35Z</time>
      </trkpt>
      <trkpt lat="43.43181" lon="-0.37246">
        <ele>271.2</ele>
        <time>2026-08-31T08:45:36Z</time>
      </trkpt>
      <trkpt lat="43.43181" lon="-0.37246">
        <ele>271.2</ele>
        <time>2026-08-31T08:45:37Z</time>
      </trkpt>
      <trkpt lat="43.43181" lon="-0.37246">
        <ele>271.2</ele>
        <time>2026-08-31T08:45:37Z</time>
      </trkpt>
      <trkpt lat="43.43181" lon="-0.37246">
        <ele>271.2</ele>
        <time>2026-08-31T08:45:38Z</time>
      </trkpt>
      <trkpt lat="43.43181" lon="-0.37246">
        <ele>271.2</ele>
        <time>2026-08-31T08:45:39Z</time>
      </trkpt>
      <trkpt lat="43.43182" lon="-0.37245">
        <ele>271.2</ele>
        <time>2026-08-31T08:45:39Z</time>
      </trkpt>
      <trkpt lat="43.43182" lon="-0.37245">
        <ele>271.2</ele>
        <time>2026-08-31T08:45:40Z</time>
      </trkpt>
      <trkpt lat="43.43183" lon="-0.37245">
        <ele>271.2</ele>
        <time>2026-08-31T08:45:40Z</time>
      </trkpt>
      <trkpt lat="43.43183" lon="-0.37244">
        <ele>271.2</ele>
        <time>2026-08-31T08:45:41Z</time>
      </trkpt>
      <trkpt lat="43.43184" lon="-0.37243">
        <ele>271.2</ele>
        <time>2026-08-31T08:45:41Z</time>
      </trkpt>
      <trkpt lat="43.43186" lon="-0.37241">
        <ele>271.2</ele>
        <time>2026-08-31T08:45:42Z</time>
      </trkpt>
      <trkpt lat="43.43186" lon="-0.3724">
        <ele>271.2</ele>
        <time>2026-08-31T08:45:42Z</time>
      </trkpt>
      <trkpt lat="43.43187" lon="-0.3724">
        <ele>271.2</ele>
        <time>2026-08-31T08:45:43Z</time>
      </trkpt>
      <trkpt lat="43.43188" lon="-0.37239">
        <ele>271.2</ele>
        <time>2026-08-31T08:45:44Z</time>
      </trkpt>
      <trkpt lat="43.43189" lon="-0.37238">
        <ele>271.2</ele>
        <time>2026-08-31T08:45:45Z</time>
      </trkpt>
      <trkpt lat="43.4319" lon="-0.37238">
        <ele>271.2</ele>
        <time>2026-08-31T08:45:45Z</time>
      </trkpt>
      <trkpt lat="43.43191" lon="-0.37236">
        <ele>271.2</ele>
        <time>2026-08-31T08:45:46Z</time>
      </trkpt>
      <trkpt lat="43.43192" lon="-0.37236">
        <ele>270.2</ele>
        <time>2026-08-31T08:45:47Z</time>
      </trkpt>
      <trkpt lat="43.43192" lon="-0.37235">
        <ele>270.2</ele>
        <time>2026-08-31T08:45:48Z</time>
      </trkpt>
      <trkpt lat="43.43193" lon="-0.37235">
        <ele>270.2</ele>
        <time>2026-08-31T08:45:48Z</time>
      </trkpt>
      <trkpt lat="43.43193" lon="-0.37235">
        <ele>270.2</ele>
        <time>2026-08-31T08:45:49Z</time>
      </trkpt>
      <trkpt lat="43.43194" lon="-0.37234">
        <ele>270.2</ele>
        <time>2026-08-31T08:45:49Z</time>
      </trkpt>
      <trkpt lat="43.43195" lon="-0.37234">
        <ele>270.2</ele>
        <time>2026-08-31T08:45:50Z</time>
      </trkpt>
      <trkpt lat="43.43195" lon="-0.37233">
        <ele>270.2</ele>
        <time>2026-08-31T08:45:51Z</time>
      </trkpt>
      <trkpt lat="43.43196" lon="-0.37233">
        <ele>270.2</ele>
        <time>2026-08-31T08:45:51Z</time>
      </trkpt>
      <trkpt lat="43.43196" lon="-0.37233">
        <ele>270.2</ele>
        <time>2026-08-31T08:45:52Z</time>
      </trkpt>
      <trkpt lat="43.43197" lon="-0.37232">
        <ele>270.2</ele>
        <time>2026-08-31T08:45:52Z</time>
      </trkpt>
      <trkpt lat="43.43198" lon="-0.37232">
        <ele>270.2</ele>
        <time>2026-08-31T08:45:53Z</time>
      </trkpt>
      <trkpt lat="43.43198" lon="-0.37232">
        <ele>270.2</ele>
        <time>2026-08-31T08:45:54Z</time>
      </trkpt>
      <trkpt lat="43.43199" lon="-0.37231">
        <ele>269.2</ele>
        <time>2026-08-31T08:45:54Z</time>
      </trkpt>
      <trkpt lat="43.43199" lon="-0.37231">
        <ele>269.2</ele>
        <time>2026-08-31T08:45:55Z</time>
      </trkpt>
      <trkpt lat="43.432" lon="-0.3723">
        <ele>269.2</ele>
        <time>2026-08-31T08:45:56Z</time>
      </trkpt>
      <trkpt lat="43.432" lon="-0.3723">
        <ele>270.2</ele>
        <time>2026-08-31T08:45:57Z</time>
      </trkpt>
      <trkpt lat="43.43201" lon="-0.37229">
        <ele>270.2</ele>
        <time>2026-08-31T08:45:57Z</time>
      </trkpt>
      <trkpt lat="43.43201" lon="-0.37229">
        <ele>270.2</ele>
        <time>2026-08-31T08:45:58Z</time>
      </trkpt>
      <trkpt lat="43.43201" lon="-0.37228">
        <ele>270.2</ele>
        <time>2026-08-31T08:45:58Z</time>
      </trkpt>
      <trkpt lat="43.43202" lon="-0.37227">
        <ele>271.2</ele>
        <time>2026-08-31T08:45:59Z</time>
      </trkpt>
      <trkpt lat="43.43202" lon="-0.37227">
        <ele>271.2</ele>
        <time>2026-08-31T08:45:59Z</time>
      </trkpt>
      <trkpt lat="43.43203" lon="-0.37226">
        <ele>271.2</ele>
        <time>2026-08-31T08:46:00Z</time>
      </trkpt>
      <trkpt lat="43.43203" lon="-0.37226">
        <ele>271.2</ele>
        <time>2026-08-31T08:46:00Z</time>
      </trkpt>
      <trkpt lat="43.43204" lon="-0.37225">
        <ele>272.2</ele>
        <time>2026-08-31T08:46:01Z</time>
      </trkpt>
      <trkpt lat="43.43204" lon="-0.37225">
        <ele>272.2</ele>
        <time>2026-08-31T08:46:02Z</time>
      </trkpt>
      <trkpt lat="43.43205" lon="-0.37224">
        <ele>271.2</ele>
        <time>2026-08-31T08:46:02Z</time>
      </trkpt>
      <trkpt lat="43.43206" lon="-0.37224">
        <ele>272.2</ele>
        <time>2026-08-31T08:46:03Z</time>
      </trkpt>
      <trkpt lat="43.43206" lon="-0.37223">
        <ele>271.2</ele>
        <time>2026-08-31T08:46:04Z</time>
      </trkpt>
      <trkpt lat="43.43207" lon="-0.37222">
        <ele>271.2</ele>
        <time>2026-08-31T08:46:05Z</time>
      </trkpt>
      <trkpt lat="43.43208" lon="-0.37222">
        <ele>271.2</ele>
        <time>2026-08-31T08:46:05Z</time>
      </trkpt>
      <trkpt lat="43.43208" lon="-0.37222">
        <ele>270.2</ele>
        <time>2026-08-31T08:46:06Z</time>
      </trkpt>
      <trkpt lat="43.43209" lon="-0.37221">
        <ele>270.2</ele>
        <time>2026-08-31T08:46:07Z</time>
      </trkpt>
      <trkpt lat="43.43209" lon="-0.3722">
        <ele>270.2</ele>
        <time>2026-08-31T08:46:07Z</time>
      </trkpt>
      <trkpt lat="43.4321" lon="-0.3722">
        <ele>271.2</ele>
        <time>2026-08-31T08:46:08Z</time>
      </trkpt>
      <trkpt lat="43.4321" lon="-0.37219">
        <ele>271.2</ele>
        <time>2026-08-31T08:46:08Z</time>
      </trkpt>
      <trkpt lat="43.43211" lon="-0.37219">
        <ele>271.2</ele>
        <time>2026-08-31T08:46:09Z</time>
      </trkpt>
      <trkpt lat="43.43211" lon="-0.37218">
        <ele>270.2</ele>
        <time>2026-08-31T08:46:10Z</time>
      </trkpt>
      <trkpt lat="43.43212" lon="-0.37218">
        <ele>270.2</ele>
        <time>2026-08-31T08:46:11Z</time>
      </trkpt>
      <trkpt lat="43.43212" lon="-0.37217">
        <ele>270.2</ele>
        <time>2026-08-31T08:46:11Z</time>
      </trkpt>
      <trkpt lat="43.43212" lon="-0.37217">
        <ele>270.2</ele>
        <time>2026-08-31T08:46:12Z</time>
      </trkpt>
      <trkpt lat="43.43213" lon="-0.37216">
        <ele>270.2</ele>
        <time>2026-08-31T08:46:12Z</time>
      </trkpt>
      <trkpt lat="43.43213" lon="-0.37215">
        <ele>270.2</ele>
        <time>2026-08-31T08:46:13Z</time>
      </trkpt>
      <trkpt lat="43.43214" lon="-0.37215">
        <ele>270.2</ele>
        <time>2026-08-31T08:46:13Z</time>
      </trkpt>
      <trkpt lat="43.43214" lon="-0.37214">
        <ele>269.2</ele>
        <time>2026-08-31T08:46:14Z</time>
      </trkpt>
      <trkpt lat="43.43215" lon="-0.37213">
        <ele>269.2</ele>
        <time>2026-08-31T08:46:15Z</time>
      </trkpt>
      <trkpt lat="43.43215" lon="-0.37213">
        <ele>269.2</ele>
        <time>2026-08-31T08:46:15Z</time>
      </trkpt>
      <trkpt lat="43.43215" lon="-0.37212">
        <ele>269.2</ele>
        <time>2026-08-31T08:46:16Z</time>
      </trkpt>
      <trkpt lat="43.43216" lon="-0.37212">
        <ele>269.2</ele>
        <time>2026-08-31T08:46:16Z</time>
      </trkpt>
      <trkpt lat="43.43217" lon="-0.3721">
        <ele>269.2</ele>
        <time>2026-08-31T08:46:17Z</time>
      </trkpt>
      <trkpt lat="43.43217" lon="-0.37209">
        <ele>269.2</ele>
        <time>2026-08-31T08:46:19Z</time>
      </trkpt>
      <trkpt lat="43.43218" lon="-0.37208">
        <ele>268.2</ele>
        <time>2026-08-31T08:46:19Z</time>
      </trkpt>
      <trkpt lat="43.43218" lon="-0.37208">
        <ele>268.2</ele>
        <time>2026-08-31T08:46:20Z</time>
      </trkpt>
      <trkpt lat="43.43219" lon="-0.37207">
        <ele>268.2</ele>
        <time>2026-08-31T08:46:20Z</time>
      </trkpt>
      <trkpt lat="43.43219" lon="-0.37207">
        <ele>268.2</ele>
        <time>2026-08-31T08:46:21Z</time>
      </trkpt>
      <trkpt lat="43.43219" lon="-0.37206">
        <ele>268.2</ele>
        <time>2026-08-31T08:46:22Z</time>
      </trkpt>
      <trkpt lat="43.4322" lon="-0.37206">
        <ele>268.2</ele>
        <time>2026-08-31T08:46:22Z</time>
      </trkpt>
      <trkpt lat="43.4322" lon="-0.37205">
        <ele>268.2</ele>
        <time>2026-08-31T08:46:23Z</time>
      </trkpt>
      <trkpt lat="43.4322" lon="-0.37205">
        <ele>268.2</ele>
        <time>2026-08-31T08:46:23Z</time>
      </trkpt>
      <trkpt lat="43.43221" lon="-0.37204">
        <ele>268.2</ele>
        <time>2026-08-31T08:46:24Z</time>
      </trkpt>
      <trkpt lat="43.43221" lon="-0.37204">
        <ele>268.2</ele>
        <time>2026-08-31T08:46:24Z</time>
      </trkpt>
      <trkpt lat="43.43222" lon="-0.37204">
        <ele>268.2</ele>
        <time>2026-08-31T08:46:25Z</time>
      </trkpt>
      <trkpt lat="43.43222" lon="-0.37203">
        <ele>268.2</ele>
        <time>2026-08-31T08:46:26Z</time>
      </trkpt>
      <trkpt lat="43.43222" lon="-0.37203">
        <ele>268.2</ele>
        <time>2026-08-31T08:46:26Z</time>
      </trkpt>
      <trkpt lat="43.43223" lon="-0.37203">
        <ele>268.2</ele>
        <time>2026-08-31T08:46:27Z</time>
      </trkpt>
      <trkpt lat="43.43223" lon="-0.37202">
        <ele>268.2</ele>
        <time>2026-08-31T08:46:27Z</time>
      </trkpt>
      <trkpt lat="43.43224" lon="-0.37202">
        <ele>268.2</ele>
        <time>2026-08-31T08:46:28Z</time>
      </trkpt>
      <trkpt lat="43.43224" lon="-0.37201">
        <ele>268.2</ele>
        <time>2026-08-31T08:46:29Z</time>
      </trkpt>
      <trkpt lat="43.43225" lon="-0.372">
        <ele>268.2</ele>
        <time>2026-08-31T08:46:29Z</time>
      </trkpt>
      <trkpt lat="43.43226" lon="-0.37198">
        <ele>268.2</ele>
        <time>2026-08-31T08:46:30Z</time>
      </trkpt>
      <trkpt lat="43.43227" lon="-0.37197">
        <ele>268.2</ele>
        <time>2026-08-31T08:46:31Z</time>
      </trkpt>
      <trkpt lat="43.43227" lon="-0.37197">
        <ele>269.2</ele>
        <time>2026-08-31T08:46:32Z</time>
      </trkpt>
      <trkpt lat="43.43227" lon="-0.37196">
        <ele>269.2</ele>
        <time>2026-08-31T08:46:32Z</time>
      </trkpt>
      <trkpt lat="43.43228" lon="-0.37196">
        <ele>269.2</ele>
        <time>2026-08-31T08:46:33Z</time>
      </trkpt>
      <trkpt lat="43.43228" lon="-0.37195">
        <ele>269.2</ele>
        <time>2026-08-31T08:46:34Z</time>
      </trkpt>
      <trkpt lat="43.43229" lon="-0.37194">
        <ele>269.2</ele>
        <time>2026-08-31T08:46:34Z</time>
      </trkpt>
      <trkpt lat="43.43229" lon="-0.37194">
        <ele>269.2</ele>
        <time>2026-08-31T08:46:35Z</time>
      </trkpt>
      <trkpt lat="43.4323" lon="-0.37193">
        <ele>268.2</ele>
        <time>2026-08-31T08:46:35Z</time>
      </trkpt>
      <trkpt lat="43.4323" lon="-0.37193">
        <ele>268.2</ele>
        <time>2026-08-31T08:46:36Z</time>
      </trkpt>
      <trkpt lat="43.43231" lon="-0.37192">
        <ele>268.2</ele>
        <time>2026-08-31T08:46:36Z</time>
      </trkpt>
      <trkpt lat="43.43231" lon="-0.37192">
        <ele>269.2</ele>
        <time>2026-08-31T08:46:37Z</time>
      </trkpt>
      <trkpt lat="43.43231" lon="-0.37192">
        <ele>269.2</ele>
        <time>2026-08-31T08:46:38Z</time>
      </trkpt>
      <trkpt lat="43.43231" lon="-0.37191">
        <ele>269.2</ele>
        <time>2026-08-31T08:46:38Z</time>
      </trkpt>
      <trkpt lat="43.43232" lon="-0.37191">
        <ele>269.2</ele>
        <time>2026-08-31T08:46:39Z</time>
      </trkpt>
      <trkpt lat="43.43232" lon="-0.3719">
        <ele>269.2</ele>
        <time>2026-08-31T08:46:39Z</time>
      </trkpt>
      <trkpt lat="43.43232" lon="-0.3719">
        <ele>269.2</ele>
        <time>2026-08-31T08:46:40Z</time>
      </trkpt>
      <trkpt lat="43.43232" lon="-0.37189">
        <ele>269.2</ele>
        <time>2026-08-31T08:46:40Z</time>
      </trkpt>
      <trkpt lat="43.43233" lon="-0.37189">
        <ele>269.2</ele>
        <time>2026-08-31T08:46:41Z</time>
      </trkpt>
      <trkpt lat="43.43233" lon="-0.37188">
        <ele>269.2</ele>
        <time>2026-08-31T08:46:42Z</time>
      </trkpt>
      <trkpt lat="43.43234" lon="-0.37187">
        <ele>269.2</ele>
        <time>2026-08-31T08:46:43Z</time>
      </trkpt>
      <trkpt lat="43.43234" lon="-0.37187">
        <ele>269.2</ele>
        <time>2026-08-31T08:46:43Z</time>
      </trkpt>
      <trkpt lat="43.43234" lon="-0.37187">
        <ele>269.2</ele>
        <time>2026-08-31T08:46:44Z</time>
      </trkpt>
      <trkpt lat="43.43235" lon="-0.37186">
        <ele>269.2</ele>
        <time>2026-08-31T08:46:44Z</time>
      </trkpt>
      <trkpt lat="43.43235" lon="-0.37186">
        <ele>269.2</ele>
        <time>2026-08-31T08:46:45Z</time>
      </trkpt>
      <trkpt lat="43.43235" lon="-0.37185">
        <ele>269.2</ele>
        <time>2026-08-31T08:46:45Z</time>
      </trkpt>
      <trkpt lat="43.43236" lon="-0.37185">
        <ele>270.2</ele>
        <time>2026-08-31T08:46:46Z</time>
      </trkpt>
      <trkpt lat="43.43236" lon="-0.37184">
        <ele>270.2</ele>
        <time>2026-08-31T08:46:47Z</time>
      </trkpt>
      <trkpt lat="43.43237" lon="-0.37184">
        <ele>270.2</ele>
        <time>2026-08-31T08:46:47Z</time>
      </trkpt>
      <trkpt lat="43.43237" lon="-0.37184">
        <ele>270.2</ele>
        <time>2026-08-31T08:46:48Z</time>
      </trkpt>
      <trkpt lat="43.43237" lon="-0.37183">
        <ele>270.2</ele>
        <time>2026-08-31T08:46:48Z</time>
      </trkpt>
      <trkpt lat="43.43238" lon="-0.37183">
        <ele>271.2</ele>
        <time>2026-08-31T08:46:49Z</time>
      </trkpt>
      <trkpt lat="43.43238" lon="-0.37182">
        <ele>271.2</ele>
        <time>2026-08-31T08:46:49Z</time>
      </trkpt>
      <trkpt lat="43.43239" lon="-0.37182">
        <ele>271.2</ele>
        <time>2026-08-31T08:46:50Z</time>
      </trkpt>
      <trkpt lat="43.43239" lon="-0.37181">
        <ele>271.2</ele>
        <time>2026-08-31T08:46:51Z</time>
      </trkpt>
      <trkpt lat="43.4324" lon="-0.37182">
        <ele>271.2</ele>
        <time>2026-08-31T08:46:51Z</time>
      </trkpt>
      <trkpt lat="43.4324" lon="-0.37181">
        <ele>271.2</ele>
        <time>2026-08-31T08:46:52Z</time>
      </trkpt>
      <trkpt lat="43.43241" lon="-0.3718">
        <ele>271.2</ele>
        <time>2026-08-31T08:46:52Z</time>
      </trkpt>
      <trkpt lat="43.43242" lon="-0.37179">
        <ele>271.2</ele>
        <time>2026-08-31T08:46:53Z</time>
      </trkpt>
      <trkpt lat="43.43242" lon="-0.37179">
        <ele>271.2</ele>
        <time>2026-08-31T08:46:54Z</time>
      </trkpt>
      <trkpt lat="43.43242" lon="-0.37179">
        <ele>271.2</ele>
        <time>2026-08-31T08:46:55Z</time>
      </trkpt>
      <trkpt lat="43.43243" lon="-0.37179">
        <ele>271.2</ele>
        <time>2026-08-31T08:46:55Z</time>
      </trkpt>
      <trkpt lat="43.43243" lon="-0.37179">
        <ele>272.2</ele>
        <time>2026-08-31T08:46:56Z</time>
      </trkpt>
      <trkpt lat="43.43243" lon="-0.37179">
        <ele>272.2</ele>
        <time>2026-08-31T08:46:56Z</time>
      </trkpt>
      <trkpt lat="43.43244" lon="-0.37177">
        <ele>271.2</ele>
        <time>2026-08-31T08:46:58Z</time>
      </trkpt>
      <trkpt lat="43.43244" lon="-0.37177">
        <ele>271.2</ele>
        <time>2026-08-31T08:46:58Z</time>
      </trkpt>
      <trkpt lat="43.43244" lon="-0.37177">
        <ele>271.2</ele>
        <time>2026-08-31T08:46:59Z</time>
      </trkpt>
      <trkpt lat="43.43245" lon="-0.37177">
        <ele>271.2</ele>
        <time>2026-08-31T08:47:00Z</time>
      </trkpt>
      <trkpt lat="43.43245" lon="-0.37177">
        <ele>271.2</ele>
        <time>2026-08-31T08:47:00Z</time>
      </trkpt>
      <trkpt lat="43.43246" lon="-0.37177">
        <ele>271.2</ele>
        <time>2026-08-31T08:47:01Z</time>
      </trkpt>
      <trkpt lat="43.43246" lon="-0.37178">
        <ele>271.2</ele>
        <time>2026-08-31T08:47:01Z</time>
      </trkpt>
      <trkpt lat="43.43246" lon="-0.37178">
        <ele>271.2</ele>
        <time>2026-08-31T08:47:02Z</time>
      </trkpt>
      <trkpt lat="43.43247" lon="-0.37178">
        <ele>271.2</ele>
        <time>2026-08-31T08:47:02Z</time>
      </trkpt>
      <trkpt lat="43.43247" lon="-0.37178">
        <ele>272.2</ele>
        <time>2026-08-31T08:47:03Z</time>
      </trkpt>
      <trkpt lat="43.43248" lon="-0.37178">
        <ele>271.2</ele>
        <time>2026-08-31T08:47:04Z</time>
      </trkpt>
      <trkpt lat="43.43248" lon="-0.37177">
        <ele>271.2</ele>
        <time>2026-08-31T08:47:04Z</time>
      </trkpt>
      <trkpt lat="43.43248" lon="-0.37177">
        <ele>271.2</ele>
        <time>2026-08-31T08:47:05Z</time>
      </trkpt>
      <trkpt lat="43.43248" lon="-0.37177">
        <ele>271.2</ele>
        <time>2026-08-31T08:47:06Z</time>
      </trkpt>
      <trkpt lat="43.43249" lon="-0.37177">
        <ele>271.2</ele>
        <time>2026-08-31T08:47:07Z</time>
      </trkpt>
      <trkpt lat="43.43249" lon="-0.37176">
        <ele>271.2</ele>
        <time>2026-08-31T08:47:07Z</time>
      </trkpt>
      <trkpt lat="43.43249" lon="-0.37176">
        <ele>271.2</ele>
        <time>2026-08-31T08:47:08Z</time>
      </trkpt>
      <trkpt lat="43.43249" lon="-0.37177">
        <ele>271.2</ele>
        <time>2026-08-31T08:47:09Z</time>
      </trkpt>
      <trkpt lat="43.43249" lon="-0.37178">
        <ele>271.2</ele>
        <time>2026-08-31T08:47:10Z</time>
      </trkpt>
      <trkpt lat="43.43249" lon="-0.37178">
        <ele>271.2</ele>
        <time>2026-08-31T08:47:10Z</time>
      </trkpt>
      <trkpt lat="43.43249" lon="-0.37178">
        <ele>270.2</ele>
        <time>2026-08-31T08:47:11Z</time>
      </trkpt>
      <trkpt lat="43.43249" lon="-0.37178">
        <ele>270.2</ele>
        <time>2026-08-31T08:47:12Z</time>
      </trkpt>
      <trkpt lat="43.43249" lon="-0.37178">
        <ele>270.2</ele>
        <time>2026-08-31T08:47:12Z</time>
      </trkpt>
      <trkpt lat="43.43249" lon="-0.37178">
        <ele>270.2</ele>
        <time>2026-08-31T08:47:13Z</time>
      </trkpt>
      <trkpt lat="43.4325" lon="-0.37177">
        <ele>270.2</ele>
        <time>2026-08-31T08:47:13Z</time>
      </trkpt>
      <trkpt lat="43.4325" lon="-0.37177">
        <ele>270.2</ele>
        <time>2026-08-31T08:47:14Z</time>
      </trkpt>
      <trkpt lat="43.43251" lon="-0.37176">
        <ele>270.2</ele>
        <time>2026-08-31T08:47:14Z</time>
      </trkpt>
      <trkpt lat="43.43252" lon="-0.37176">
        <ele>269.2</ele>
        <time>2026-08-31T08:47:15Z</time>
      </trkpt>
      <trkpt lat="43.43253" lon="-0.37175">
        <ele>269.2</ele>
        <time>2026-08-31T08:47:16Z</time>
      </trkpt>
      <trkpt lat="43.43254" lon="-0.37174">
        <ele>269.2</ele>
        <time>2026-08-31T08:47:16Z</time>
      </trkpt>
      <trkpt lat="43.43255" lon="-0.37173">
        <ele>269.2</ele>
        <time>2026-08-31T08:47:17Z</time>
      </trkpt>
      <trkpt lat="43.43256" lon="-0.37172">
        <ele>268.2</ele>
        <time>2026-08-31T08:47:18Z</time>
      </trkpt>
      <trkpt lat="43.43257" lon="-0.37171">
        <ele>268.2</ele>
        <time>2026-08-31T08:47:18Z</time>
      </trkpt>
      <trkpt lat="43.43257" lon="-0.3717">
        <ele>268.2</ele>
        <time>2026-08-31T08:47:19Z</time>
      </trkpt>
      <trkpt lat="43.43258" lon="-0.3717">
        <ele>268.2</ele>
        <time>2026-08-31T08:47:19Z</time>
      </trkpt>
      <trkpt lat="43.43259" lon="-0.37169">
        <ele>267.2</ele>
        <time>2026-08-31T08:47:20Z</time>
      </trkpt>
      <trkpt lat="43.43259" lon="-0.37169">
        <ele>267.2</ele>
        <time>2026-08-31T08:47:20Z</time>
      </trkpt>
      <trkpt lat="43.4326" lon="-0.37169">
        <ele>267.2</ele>
        <time>2026-08-31T08:47:21Z</time>
      </trkpt>
      <trkpt lat="43.4326" lon="-0.37169">
        <ele>267.2</ele>
        <time>2026-08-31T08:47:22Z</time>
      </trkpt>
      <trkpt lat="43.43261" lon="-0.37169">
        <ele>267.2</ele>
        <time>2026-08-31T08:47:22Z</time>
      </trkpt>
      <trkpt lat="43.43261" lon="-0.37169">
        <ele>266.2</ele>
        <time>2026-08-31T08:47:23Z</time>
      </trkpt>
      <trkpt lat="43.43262" lon="-0.37169">
        <ele>266.2</ele>
        <time>2026-08-31T08:47:23Z</time>
      </trkpt>
      <trkpt lat="43.43263" lon="-0.37169">
        <ele>266.2</ele>
        <time>2026-08-31T08:47:24Z</time>
      </trkpt>
      <trkpt lat="43.43263" lon="-0.37169">
        <ele>266.2</ele>
        <time>2026-08-31T08:47:24Z</time>
      </trkpt>
      <trkpt lat="43.43264" lon="-0.37169">
        <ele>265.2</ele>
        <time>2026-08-31T08:47:25Z</time>
      </trkpt>
      <trkpt lat="43.43264" lon="-0.37169">
        <ele>265.2</ele>
        <time>2026-08-31T08:47:25Z</time>
      </trkpt>
      <trkpt lat="43.43265" lon="-0.37169">
        <ele>265.2</ele>
        <time>2026-08-31T08:47:26Z</time>
      </trkpt>
      <trkpt lat="43.43266" lon="-0.37169">
        <ele>265.2</ele>
        <time>2026-08-31T08:47:27Z</time>
      </trkpt>
      <trkpt lat="43.43267" lon="-0.37169">
        <ele>265.2</ele>
        <time>2026-08-31T08:47:28Z</time>
      </trkpt>
      <trkpt lat="43.43268" lon="-0.37169">
        <ele>265.2</ele>
        <time>2026-08-31T08:47:29Z</time>
      </trkpt>
      <trkpt lat="43.43269" lon="-0.3717">
        <ele>265.2</ele>
        <time>2026-08-31T08:47:29Z</time>
      </trkpt>
      <trkpt lat="43.43269" lon="-0.3717">
        <ele>265.2</ele>
        <time>2026-08-31T08:47:30Z</time>
      </trkpt>
      <trkpt lat="43.4327" lon="-0.3717">
        <ele>265.2</ele>
        <time>2026-08-31T08:47:31Z</time>
      </trkpt>
      <trkpt lat="43.4327" lon="-0.3717">
        <ele>264.2</ele>
        <time>2026-08-31T08:47:31Z</time>
      </trkpt>
      <trkpt lat="43.43271" lon="-0.3717">
        <ele>264.2</ele>
        <time>2026-08-31T08:47:32Z</time>
      </trkpt>
      <trkpt lat="43.43271" lon="-0.3717">
        <ele>264.2</ele>
        <time>2026-08-31T08:47:32Z</time>
      </trkpt>
      <trkpt lat="43.43273" lon="-0.3717">
        <ele>264.2</ele>
        <time>2026-08-31T08:47:33Z</time>
      </trkpt>
      <trkpt lat="43.43273" lon="-0.3717">
        <ele>264.2</ele>
        <time>2026-08-31T08:47:34Z</time>
      </trkpt>
      <trkpt lat="43.43274" lon="-0.37171">
        <ele>264.2</ele>
        <time>2026-08-31T08:47:34Z</time>
      </trkpt>
      <trkpt lat="43.43274" lon="-0.37171">
        <ele>263.2</ele>
        <time>2026-08-31T08:47:35Z</time>
      </trkpt>
      <trkpt lat="43.43275" lon="-0.37171">
        <ele>263.2</ele>
        <time>2026-08-31T08:47:36Z</time>
      </trkpt>
      <trkpt lat="43.43275" lon="-0.37171">
        <ele>263.2</ele>
        <time>2026-08-31T08:47:36Z</time>
      </trkpt>
      <trkpt lat="43.43276" lon="-0.37171">
        <ele>263.2</ele>
        <time>2026-08-31T08:47:37Z</time>
      </trkpt>
      <trkpt lat="43.43277" lon="-0.37172">
        <ele>263.2</ele>
        <time>2026-08-31T08:47:37Z</time>
      </trkpt>
      <trkpt lat="43.43277" lon="-0.37172">
        <ele>263.2</ele>
        <time>2026-08-31T08:47:38Z</time>
      </trkpt>
      <trkpt lat="43.43278" lon="-0.37173">
        <ele>263.2</ele>
        <time>2026-08-31T08:47:39Z</time>
      </trkpt>
      <trkpt lat="43.43279" lon="-0.37174">
        <ele>263.2</ele>
        <time>2026-08-31T08:47:40Z</time>
      </trkpt>
      <trkpt lat="43.43279" lon="-0.37174">
        <ele>263.2</ele>
        <time>2026-08-31T08:47:40Z</time>
      </trkpt>
      <trkpt lat="43.4328" lon="-0.37174">
        <ele>263.2</ele>
        <time>2026-08-31T08:47:41Z</time>
      </trkpt>
      <trkpt lat="43.43281" lon="-0.37174">
        <ele>263.2</ele>
        <time>2026-08-31T08:47:42Z</time>
      </trkpt>
      <trkpt lat="43.43281" lon="-0.37175">
        <ele>263.2</ele>
        <time>2026-08-31T08:47:42Z</time>
      </trkpt>
      <trkpt lat="43.43282" lon="-0.37175">
        <ele>264.2</ele>
        <time>2026-08-31T08:47:43Z</time>
      </trkpt>
      <trkpt lat="43.43283" lon="-0.37175">
        <ele>264.2</ele>
        <time>2026-08-31T08:47:44Z</time>
      </trkpt>
      <trkpt lat="43.43284" lon="-0.37176">
        <ele>264.2</ele>
        <time>2026-08-31T08:47:44Z</time>
      </trkpt>
      <trkpt lat="43.43285" lon="-0.37176">
        <ele>264.2</ele>
        <time>2026-08-31T08:47:45Z</time>
      </trkpt>
      <trkpt lat="43.43286" lon="-0.37176">
        <ele>264.2</ele>
        <time>2026-08-31T08:47:46Z</time>
      </trkpt>
      <trkpt lat="43.43286" lon="-0.37176">
        <ele>264.2</ele>
        <time>2026-08-31T08:47:47Z</time>
      </trkpt>
      <trkpt lat="43.43286" lon="-0.37175">
        <ele>264.2</ele>
        <time>2026-08-31T08:47:48Z</time>
      </trkpt>
      <trkpt lat="43.43286" lon="-0.37175">
        <ele>264.2</ele>
        <time>2026-08-31T08:47:48Z</time>
      </trkpt>
      <trkpt lat="43.43286" lon="-0.37175">
        <ele>264.2</ele>
        <time>2026-08-31T08:47:49Z</time>
      </trkpt>
      <trkpt lat="43.43286" lon="-0.37175">
        <ele>264.2</ele>
        <time>2026-08-31T08:47:49Z</time>
      </trkpt>
      <trkpt lat="43.43286" lon="-0.37175">
        <ele>263.2</ele>
        <time>2026-08-31T08:47:50Z</time>
      </trkpt>
      <trkpt lat="43.43286" lon="-0.37175">
        <ele>263.2</ele>
        <time>2026-08-31T08:47:51Z</time>
      </trkpt>
      <trkpt lat="43.43287" lon="-0.37176">
        <ele>263.2</ele>
        <time>2026-08-31T08:47:52Z</time>
      </trkpt>
      <trkpt lat="43.43287" lon="-0.37176">
        <ele>263.2</ele>
        <time>2026-08-31T08:47:52Z</time>
      </trkpt>
      <trkpt lat="43.43288" lon="-0.37176">
        <ele>262.2</ele>
        <time>2026-08-31T08:47:53Z</time>
      </trkpt>
      <trkpt lat="43.43288" lon="-0.37177">
        <ele>262.2</ele>
        <time>2026-08-31T08:47:54Z</time>
      </trkpt>
      <trkpt lat="43.43288" lon="-0.37177">
        <ele>262.2</ele>
        <time>2026-08-31T08:47:55Z</time>
      </trkpt>
      <trkpt lat="43.43288" lon="-0.37177">
        <ele>263.2</ele>
        <time>2026-08-31T08:47:56Z</time>
      </trkpt>
      <trkpt lat="43.43288" lon="-0.37177">
        <ele>263.2</ele>
        <time>2026-08-31T08:47:57Z</time>
      </trkpt>
      <trkpt lat="43.43288" lon="-0.37177">
        <ele>263.2</ele>
        <time>2026-08-31T08:47:57Z</time>
      </trkpt>
      <trkpt lat="43.43289" lon="-0.37177">
        <ele>263.2</ele>
        <time>2026-08-31T08:47:58Z</time>
      </trkpt>
      <trkpt lat="43.43289" lon="-0.37177">
        <ele>263.2</ele>
        <time>2026-08-31T08:47:59Z</time>
      </trkpt>
      <trkpt lat="43.43289" lon="-0.37177">
        <ele>263.2</ele>
        <time>2026-08-31T08:47:59Z</time>
      </trkpt>
      <trkpt lat="43.43289" lon="-0.37178">
        <ele>262.2</ele>
        <time>2026-08-31T08:48:00Z</time>
      </trkpt>
      <trkpt lat="43.43289" lon="-0.37178">
        <ele>262.2</ele>
        <time>2026-08-31T08:48:00Z</time>
      </trkpt>
      <trkpt lat="43.4329" lon="-0.37178">
        <ele>262.2</ele>
        <time>2026-08-31T08:48:01Z</time>
      </trkpt>
      <trkpt lat="43.4329" lon="-0.37178">
        <ele>262.2</ele>
        <time>2026-08-31T08:48:02Z</time>
      </trkpt>
      <trkpt lat="43.43291" lon="-0.37179">
        <ele>262.2</ele>
        <time>2026-08-31T08:48:03Z</time>
      </trkpt>
      <trkpt lat="43.43292" lon="-0.37179">
        <ele>262.2</ele>
        <time>2026-08-31T08:48:04Z</time>
      </trkpt>
      <trkpt lat="43.43292" lon="-0.37179">
        <ele>262.2</ele>
        <time>2026-08-31T08:48:05Z</time>
      </trkpt>
      <trkpt lat="43.43292" lon="-0.37179">
        <ele>263.2</ele>
        <time>2026-08-31T08:48:06Z</time>
      </trkpt>
      <trkpt lat="43.43293" lon="-0.3718">
        <ele>262.2</ele>
        <time>2026-08-31T08:48:07Z</time>
      </trkpt>
      <trkpt lat="43.43293" lon="-0.3718">
        <ele>262.2</ele>
        <time>2026-08-31T08:48:08Z</time>
      </trkpt>
      <trkpt lat="43.43293" lon="-0.3718">
        <ele>262.2</ele>
        <time>2026-08-31T08:48:09Z</time>
      </trkpt>
      <trkpt lat="43.43293" lon="-0.3718">
        <ele>262.2</ele>
        <time>2026-08-31T08:48:10Z</time>
      </trkpt>
      <trkpt lat="43.43293" lon="-0.37181">
        <ele>262.2</ele>
        <time>2026-08-31T08:48:11Z</time>
      </trkpt>
      <trkpt lat="43.43294" lon="-0.37181">
        <ele>262.2</ele>
        <time>2026-08-31T08:48:12Z</time>
      </trkpt>
      <trkpt lat="43.43294" lon="-0.37181">
        <ele>262.2</ele>
        <time>2026-08-31T08:48:13Z</time>
      </trkpt>
      <trkpt lat="43.43294" lon="-0.37181">
        <ele>262.2</ele>
        <time>2026-08-31T08:48:14Z</time>
      </trkpt>
      <trkpt lat="43.43294" lon="-0.37181">
        <ele>261.2</ele>
        <time>2026-08-31T08:48:15Z</time>
      </trkpt>
      <trkpt lat="43.43294" lon="-0.37181">
        <ele>261.2</ele>
        <time>2026-08-31T08:48:15Z</time>
      </trkpt>
      <trkpt lat="43.43294" lon="-0.37182">
        <ele>261.2</ele>
        <time>2026-08-31T08:48:17Z</time>
      </trkpt>
      <trkpt lat="43.43294" lon="-0.37182">
        <ele>261.2</ele>
        <time>2026-08-31T08:48:18Z</time>
      </trkpt>
      <trkpt lat="43.43295" lon="-0.37182">
        <ele>261.2</ele>
        <time>2026-08-31T08:48:19Z</time>
      </trkpt>
      <trkpt lat="43.43295" lon="-0.37183">
        <ele>262.2</ele>
        <time>2026-08-31T08:48:19Z</time>
      </trkpt>
      <trkpt lat="43.43295" lon="-0.37183">
        <ele>262.2</ele>
        <time>2026-08-31T08:48:20Z</time>
      </trkpt>
      <trkpt lat="43.43295" lon="-0.37184">
        <ele>262.2</ele>
        <time>2026-08-31T08:48:21Z</time>
      </trkpt>
      <trkpt lat="43.43296" lon="-0.37184">
        <ele>262.2</ele>
        <time>2026-08-31T08:48:22Z</time>
      </trkpt>
      <trkpt lat="43.43297" lon="-0.37185">
        <ele>262.2</ele>
        <time>2026-08-31T08:48:23Z</time>
      </trkpt>
      <trkpt lat="43.43297" lon="-0.37185">
        <ele>262.2</ele>
        <time>2026-08-31T08:48:24Z</time>
      </trkpt>
      <trkpt lat="43.43298" lon="-0.37186">
        <ele>263.2</ele>
        <time>2026-08-31T08:48:25Z</time>
      </trkpt>
      <trkpt lat="43.43298" lon="-0.37186">
        <ele>263.2</ele>
        <time>2026-08-31T08:48:26Z</time>
      </trkpt>
      <trkpt lat="43.43298" lon="-0.37186">
        <ele>263.2</ele>
        <time>2026-08-31T08:48:26Z</time>
      </trkpt>
      <trkpt lat="43.43298" lon="-0.37186">
        <ele>263.2</ele>
        <time>2026-08-31T08:48:28Z</time>
      </trkpt>
      <trkpt lat="43.43299" lon="-0.37186">
        <ele>264.2</ele>
        <time>2026-08-31T08:48:29Z</time>
      </trkpt>
      <trkpt lat="43.43299" lon="-0.37186">
        <ele>263.2</ele>
        <time>2026-08-31T08:48:30Z</time>
      </trkpt>
      <trkpt lat="43.43299" lon="-0.37186">
        <ele>263.2</ele>
        <time>2026-08-31T08:48:31Z</time>
      </trkpt>
      <trkpt lat="43.43299" lon="-0.37186">
        <ele>264.2</ele>
        <time>2026-08-31T08:48:32Z</time>
      </trkpt>
      <trkpt lat="43.43299" lon="-0.37186">
        <ele>264.2</ele>
        <time>2026-08-31T08:48:33Z</time>
      </trkpt>
      <trkpt lat="43.433" lon="-0.37186">
        <ele>263.2</ele>
        <time>2026-08-31T08:48:34Z</time>
      </trkpt>
      <trkpt lat="43.433" lon="-0.37186">
        <ele>263.2</ele>
        <time>2026-08-31T08:48:35Z</time>
      </trkpt>
      <trkpt lat="43.43301" lon="-0.37186">
        <ele>263.2</ele>
        <time>2026-08-31T08:48:36Z</time>
      </trkpt>
      <trkpt lat="43.43301" lon="-0.37186">
        <ele>263.2</ele>
        <time>2026-08-31T08:48:37Z</time>
      </trkpt>
      <trkpt lat="43.43302" lon="-0.37186">
        <ele>264.2</ele>
        <time>2026-08-31T08:48:38Z</time>
      </trkpt>
      <trkpt lat="43.43302" lon="-0.37187">
        <ele>264.2</ele>
        <time>2026-08-31T08:48:39Z</time>
      </trkpt>
      <trkpt lat="43.43302" lon="-0.37187">
        <ele>264.2</ele>
        <time>2026-08-31T08:48:40Z</time>
      </trkpt>
      <trkpt lat="43.43302" lon="-0.37187">
        <ele>264.2</ele>
        <time>2026-08-31T08:48:41Z</time>
      </trkpt>
      <trkpt lat="43.43303" lon="-0.37187">
        <ele>264.2</ele>
        <time>2026-08-31T08:48:42Z</time>
      </trkpt>
      <trkpt lat="43.43302" lon="-0.37187">
        <ele>264.2</ele>
        <time>2026-08-31T08:48:42Z</time>
      </trkpt>
      <trkpt lat="43.43302" lon="-0.37186">
        <ele>264.2</ele>
        <time>2026-08-31T08:48:44Z</time>
      </trkpt>
      <trkpt lat="43.43302" lon="-0.37186">
        <ele>264.2</ele>
        <time>2026-08-31T08:48:45Z</time>
      </trkpt>
      <trkpt lat="43.43303" lon="-0.37186">
        <ele>264.2</ele>
        <time>2026-08-31T08:48:46Z</time>
      </trkpt>
      <trkpt lat="43.43303" lon="-0.37186">
        <ele>264.2</ele>
        <time>2026-08-31T08:48:47Z</time>
      </trkpt>
      <trkpt lat="43.43303" lon="-0.37186">
        <ele>264.2</ele>
        <time>2026-08-31T08:48:48Z</time>
      </trkpt>
      <trkpt lat="43.43303" lon="-0.37187">
        <ele>265.2</ele>
        <time>2026-08-31T08:48:49Z</time>
      </trkpt>
      <trkpt lat="43.43303" lon="-0.37187">
        <ele>264.2</ele>
        <time>2026-08-31T08:48:50Z</time>
      </trkpt>
      <trkpt lat="43.43304" lon="-0.37187">
        <ele>264.2</ele>
        <time>2026-08-31T08:48:51Z</time>
      </trkpt>
      <trkpt lat="43.43304" lon="-0.37187">
        <ele>264.2</ele>
        <time>2026-08-31T08:48:52Z</time>
      </trkpt>
      <trkpt lat="43.43305" lon="-0.37187">
        <ele>264.2</ele>
        <time>2026-08-31T08:48:52Z</time>
      </trkpt>
      <trkpt lat="43.43305" lon="-0.37187">
        <ele>264.2</ele>
        <time>2026-08-31T08:48:54Z</time>
      </trkpt>
      <trkpt lat="43.43305" lon="-0.37187">
        <ele>264.2</ele>
        <time>2026-08-31T08:48:54Z</time>
      </trkpt>
      <trkpt lat="43.43306" lon="-0.37188">
        <ele>264.2</ele>
        <time>2026-08-31T08:48:56Z</time>
      </trkpt>
      <trkpt lat="43.43307" lon="-0.37188">
        <ele>263.2</ele>
        <time>2026-08-31T08:48:57Z</time>
      </trkpt>
      <trkpt lat="43.43307" lon="-0.37188">
        <ele>263.2</ele>
        <time>2026-08-31T08:48:57Z</time>
      </trkpt>
      <trkpt lat="43.43307" lon="-0.37188">
        <ele>263.2</ele>
        <time>2026-08-31T08:48:58Z</time>
      </trkpt>
      <trkpt lat="43.43308" lon="-0.37188">
        <ele>263.2</ele>
        <time>2026-08-31T08:48:59Z</time>
      </trkpt>
      <trkpt lat="43.43308" lon="-0.37188">
        <ele>264.2</ele>
        <time>2026-08-31T08:49:00Z</time>
      </trkpt>
      <trkpt lat="43.43308" lon="-0.37189">
        <ele>264.2</ele>
        <time>2026-08-31T08:49:01Z</time>
      </trkpt>
      <trkpt lat="43.43309" lon="-0.37189">
        <ele>264.2</ele>
        <time>2026-08-31T08:49:02Z</time>
      </trkpt>
      <trkpt lat="43.43309" lon="-0.37189">
        <ele>264.2</ele>
        <time>2026-08-31T08:49:02Z</time>
      </trkpt>
      <trkpt lat="43.4331" lon="-0.37189">
        <ele>264.2</ele>
        <time>2026-08-31T08:49:03Z</time>
      </trkpt>
      <trkpt lat="43.4331" lon="-0.37189">
        <ele>264.2</ele>
        <time>2026-08-31T08:49:03Z</time>
      </trkpt>
      <trkpt lat="43.4331" lon="-0.3719">
        <ele>264.2</ele>
        <time>2026-08-31T08:49:04Z</time>
      </trkpt>
      <trkpt lat="43.43311" lon="-0.3719">
        <ele>264.2</ele>
        <time>2026-08-31T08:49:04Z</time>
      </trkpt>
      <trkpt lat="43.43311" lon="-0.3719">
        <ele>264.2</ele>
        <time>2026-08-31T08:49:05Z</time>
      </trkpt>
      <trkpt lat="43.43311" lon="-0.3719">
        <ele>265.2</ele>
        <time>2026-08-31T08:49:06Z</time>
      </trkpt>
      <trkpt lat="43.43311" lon="-0.3719">
        <ele>265.2</ele>
        <time>2026-08-31T08:49:07Z</time>
      </trkpt>
      <trkpt lat="43.43311" lon="-0.3719">
        <ele>265.2</ele>
        <time>2026-08-31T08:49:08Z</time>
      </trkpt>
      <trkpt lat="43.43311" lon="-0.3719">
        <ele>265.2</ele>
        <time>2026-08-31T08:49:08Z</time>
      </trkpt>
      <trkpt lat="43.43311" lon="-0.3719">
        <ele>265.2</ele>
        <time>2026-08-31T08:49:09Z</time>
      </trkpt>
      <trkpt lat="43.43311" lon="-0.3719">
        <ele>265.2</ele>
        <time>2026-08-31T08:49:10Z</time>
      </trkpt>
      <trkpt lat="43.43312" lon="-0.3719">
        <ele>265.2</ele>
        <time>2026-08-31T08:49:11Z</time>
      </trkpt>
      <trkpt lat="43.43312" lon="-0.3719">
        <ele>265.2</ele>
        <time>2026-08-31T08:49:12Z</time>
      </trkpt>
      <trkpt lat="43.43312" lon="-0.37191">
        <ele>265.2</ele>
        <time>2026-08-31T08:49:13Z</time>
      </trkpt>
      <trkpt lat="43.43312" lon="-0.37191">
        <ele>264.2</ele>
        <time>2026-08-31T08:49:14Z</time>
      </trkpt>
      <trkpt lat="43.43312" lon="-0.37192">
        <ele>264.2</ele>
        <time>2026-08-31T08:49:15Z</time>
      </trkpt>
      <trkpt lat="43.43312" lon="-0.37192">
        <ele>264.2</ele>
        <time>2026-08-31T08:49:16Z</time>
      </trkpt>
      <trkpt lat="43.43312" lon="-0.37192">
        <ele>264.2</ele>
        <time>2026-08-31T08:49:17Z</time>
      </trkpt>
      <trkpt lat="43.43312" lon="-0.37192">
        <ele>264.2</ele>
        <time>2026-08-31T08:49:18Z</time>
      </trkpt>
      <trkpt lat="43.43312" lon="-0.37192">
        <ele>264.2</ele>
        <time>2026-08-31T08:49:18Z</time>
      </trkpt>
      <trkpt lat="43.43312" lon="-0.37192">
        <ele>264.2</ele>
        <time>2026-08-31T08:49:19Z</time>
      </trkpt>
      <trkpt lat="43.43313" lon="-0.37192">
        <ele>264.2</ele>
        <time>2026-08-31T08:49:20Z</time>
      </trkpt>
      <trkpt lat="43.43313" lon="-0.37193">
        <ele>264.2</ele>
        <time>2026-08-31T08:49:21Z</time>
      </trkpt>
      <trkpt lat="43.43313" lon="-0.37193">
        <ele>263.2</ele>
        <time>2026-08-31T08:49:22Z</time>
      </trkpt>
      <trkpt lat="43.43313" lon="-0.37193">
        <ele>264.2</ele>
        <time>2026-08-31T08:49:22Z</time>
      </trkpt>
      <trkpt lat="43.43313" lon="-0.37193">
        <ele>264.2</ele>
        <time>2026-08-31T08:49:23Z</time>
      </trkpt>
      <trkpt lat="43.43313" lon="-0.37194">
        <ele>264.2</ele>
        <time>2026-08-31T08:49:24Z</time>
      </trkpt>
      <trkpt lat="43.43313" lon="-0.37194">
        <ele>264.2</ele>
        <time>2026-08-31T08:49:25Z</time>
      </trkpt>
      <trkpt lat="43.43313" lon="-0.37194">
        <ele>264.2</ele>
        <time>2026-08-31T08:49:25Z</time>
      </trkpt>
      <trkpt lat="43.43313" lon="-0.37194">
        <ele>264.2</ele>
        <time>2026-08-31T08:49:26Z</time>
      </trkpt>
      <trkpt lat="43.43313" lon="-0.37194">
        <ele>264.2</ele>
        <time>2026-08-31T08:49:26Z</time>
      </trkpt>
      <trkpt lat="43.43314" lon="-0.37195">
        <ele>264.2</ele>
        <time>2026-08-31T08:49:27Z</time>
      </trkpt>
      <trkpt lat="43.43314" lon="-0.37195">
        <ele>264.2</ele>
        <time>2026-08-31T08:49:28Z</time>
      </trkpt>
      <trkpt lat="43.43314" lon="-0.37195">
        <ele>264.2</ele>
        <time>2026-08-31T08:49:28Z</time>
      </trkpt>
      <trkpt lat="43.43314" lon="-0.37196">
        <ele>265.2</ele>
        <time>2026-08-31T08:49:29Z</time>
      </trkpt>
      <trkpt lat="43.43314" lon="-0.37196">
        <ele>265.2</ele>
        <time>2026-08-31T08:49:30Z</time>
      </trkpt>
      <trkpt lat="43.43314" lon="-0.37196">
        <ele>264.2</ele>
        <time>2026-08-31T08:49:30Z</time>
      </trkpt>
      <trkpt lat="43.43314" lon="-0.37197">
        <ele>264.2</ele>
        <time>2026-08-31T08:49:31Z</time>
      </trkpt>
      <trkpt lat="43.43314" lon="-0.37197">
        <ele>264.2</ele>
        <time>2026-08-31T08:49:31Z</time>
      </trkpt>
      <trkpt lat="43.43315" lon="-0.37198">
        <ele>264.2</ele>
        <time>2026-08-31T08:49:32Z</time>
      </trkpt>
      <trkpt lat="43.43315" lon="-0.372">
        <ele>264.2</ele>
        <time>2026-08-31T08:49:33Z</time>
      </trkpt>
      <trkpt lat="43.43315" lon="-0.37202">
        <ele>264.2</ele>
        <time>2026-08-31T08:49:33Z</time>
      </trkpt>
      <trkpt lat="43.43316" lon="-0.37203">
        <ele>264.2</ele>
        <time>2026-08-31T08:49:34Z</time>
      </trkpt>
      <trkpt lat="43.43316" lon="-0.37205">
        <ele>264.2</ele>
        <time>2026-08-31T08:49:34Z</time>
      </trkpt>
      <trkpt lat="43.43316" lon="-0.37206">
        <ele>264.2</ele>
        <time>2026-08-31T08:49:35Z</time>
      </trkpt>
      <trkpt lat="43.43316" lon="-0.37207">
        <ele>264.2</ele>
        <time>2026-08-31T08:49:35Z</time>
      </trkpt>
      <trkpt lat="43.43317" lon="-0.37208">
        <ele>264.2</ele>
        <time>2026-08-31T08:49:36Z</time>
      </trkpt>
      <trkpt lat="43.43317" lon="-0.37209">
        <ele>264.2</ele>
        <time>2026-08-31T08:49:37Z</time>
      </trkpt>
      <trkpt lat="43.43318" lon="-0.3721">
        <ele>264.2</ele>
        <time>2026-08-31T08:49:37Z</time>
      </trkpt>
      <trkpt lat="43.43319" lon="-0.37211">
        <ele>264.2</ele>
        <time>2026-08-31T08:49:39Z</time>
      </trkpt>
      <trkpt lat="43.43319" lon="-0.37211">
        <ele>264.2</ele>
        <time>2026-08-31T08:49:39Z</time>
      </trkpt>
      <trkpt lat="43.4332" lon="-0.37212">
        <ele>264.2</ele>
        <time>2026-08-31T08:49:41Z</time>
      </trkpt>
      <trkpt lat="43.43319" lon="-0.37211">
        <ele>264.2</ele>
        <time>2026-08-31T08:49:42Z</time>
      </trkpt>
      <trkpt lat="43.43319" lon="-0.3721">
        <ele>264.2</ele>
        <time>2026-08-31T08:49:43Z</time>
      </trkpt>
      <trkpt lat="43.43319" lon="-0.37209">
        <ele>265.2</ele>
        <time>2026-08-31T08:49:44Z</time>
      </trkpt>
      <trkpt lat="43.43319" lon="-0.37209">
        <ele>265.2</ele>
        <time>2026-08-31T08:49:45Z</time>
      </trkpt>
      <trkpt lat="43.43319" lon="-0.37209">
        <ele>265.2</ele>
        <time>2026-08-31T08:49:45Z</time>
      </trkpt>
      <trkpt lat="43.43319" lon="-0.37209">
        <ele>265.2</ele>
        <time>2026-08-31T08:49:46Z</time>
      </trkpt>
      <trkpt lat="43.43318" lon="-0.3721">
        <ele>265.2</ele>
        <time>2026-08-31T08:49:47Z</time>
      </trkpt>
      <trkpt lat="43.43318" lon="-0.3721">
        <ele>265.2</ele>
        <time>2026-08-31T08:49:48Z</time>
      </trkpt>
      <trkpt lat="43.43318" lon="-0.3721">
        <ele>265.2</ele>
        <time>2026-08-31T08:49:48Z</time>
      </trkpt>
      <trkpt lat="43.43318" lon="-0.37211">
        <ele>265.2</ele>
        <time>2026-08-31T08:49:49Z</time>
      </trkpt>
      <trkpt lat="43.43318" lon="-0.37211">
        <ele>265.2</ele>
        <time>2026-08-31T08:49:49Z</time>
      </trkpt>
      <trkpt lat="43.43318" lon="-0.37212">
        <ele>266.2</ele>
        <time>2026-08-31T08:49:50Z</time>
      </trkpt>
      <trkpt lat="43.43318" lon="-0.37213">
        <ele>266.2</ele>
        <time>2026-08-31T08:49:51Z</time>
      </trkpt>
      <trkpt lat="43.43318" lon="-0.37213">
        <ele>266.2</ele>
        <time>2026-08-31T08:49:51Z</time>
      </trkpt>
      <trkpt lat="43.43318" lon="-0.37215">
        <ele>267.2</ele>
        <time>2026-08-31T08:49:52Z</time>
      </trkpt>
      <trkpt lat="43.43318" lon="-0.37216">
        <ele>267.2</ele>
        <time>2026-08-31T08:49:52Z</time>
      </trkpt>
      <trkpt lat="43.43319" lon="-0.37218">
        <ele>267.2</ele>
        <time>2026-08-31T08:49:53Z</time>
      </trkpt>
      <trkpt lat="43.43319" lon="-0.37219">
        <ele>267.2</ele>
        <time>2026-08-31T08:49:53Z</time>
      </trkpt>
      <trkpt lat="43.43319" lon="-0.37221">
        <ele>267.2</ele>
        <time>2026-08-31T08:49:54Z</time>
      </trkpt>
      <trkpt lat="43.43319" lon="-0.37222">
        <ele>267.2</ele>
        <time>2026-08-31T08:49:55Z</time>
      </trkpt>
      <trkpt lat="43.43319" lon="-0.37223">
        <ele>267.2</ele>
        <time>2026-08-31T08:49:55Z</time>
      </trkpt>
      <trkpt lat="43.43319" lon="-0.37224">
        <ele>268.2</ele>
        <time>2026-08-31T08:49:56Z</time>
      </trkpt>
      <trkpt lat="43.4332" lon="-0.37225">
        <ele>268.2</ele>
        <time>2026-08-31T08:49:56Z</time>
      </trkpt>
      <trkpt lat="43.4332" lon="-0.37226">
        <ele>268.2</ele>
        <time>2026-08-31T08:49:57Z</time>
      </trkpt>
      <trkpt lat="43.4332" lon="-0.37227">
        <ele>268.2</ele>
        <time>2026-08-31T08:49:58Z</time>
      </trkpt>
      <trkpt lat="43.4332" lon="-0.37228">
        <ele>268.2</ele>
        <time>2026-08-31T08:49:58Z</time>
      </trkpt>
      <trkpt lat="43.4332" lon="-0.37229">
        <ele>268.2</ele>
        <time>2026-08-31T08:49:59Z</time>
      </trkpt>
      <trkpt lat="43.4332" lon="-0.3723">
        <ele>268.2</ele>
        <time>2026-08-31T08:49:59Z</time>
      </trkpt>
      <trkpt lat="43.43321" lon="-0.37232">
        <ele>268.2</ele>
        <time>2026-08-31T08:50:00Z</time>
      </trkpt>
      <trkpt lat="43.43321" lon="-0.37232">
        <ele>269.2</ele>
        <time>2026-08-31T08:50:01Z</time>
      </trkpt>
      <trkpt lat="43.43321" lon="-0.37233">
        <ele>269.2</ele>
        <time>2026-08-31T08:50:02Z</time>
      </trkpt>
      <trkpt lat="43.43321" lon="-0.37234">
        <ele>269.2</ele>
        <time>2026-08-31T08:50:02Z</time>
      </trkpt>
      <trkpt lat="43.43322" lon="-0.37235">
        <ele>270.2</ele>
        <time>2026-08-31T08:50:03Z</time>
      </trkpt>
      <trkpt lat="43.43322" lon="-0.37236">
        <ele>270.2</ele>
        <time>2026-08-31T08:50:03Z</time>
      </trkpt>
      <trkpt lat="43.43322" lon="-0.37237">
        <ele>270.2</ele>
        <time>2026-08-31T08:50:04Z</time>
      </trkpt>
      <trkpt lat="43.43322" lon="-0.37238">
        <ele>270.2</ele>
        <time>2026-08-31T08:50:05Z</time>
      </trkpt>
      <trkpt lat="43.43322" lon="-0.37239">
        <ele>270.2</ele>
        <time>2026-08-31T08:50:05Z</time>
      </trkpt>
      <trkpt lat="43.43322" lon="-0.3724">
        <ele>271.2</ele>
        <time>2026-08-31T08:50:06Z</time>
      </trkpt>
      <trkpt lat="43.43322" lon="-0.37241">
        <ele>271.2</ele>
        <time>2026-08-31T08:50:07Z</time>
      </trkpt>
      <trkpt lat="43.43322" lon="-0.37242">
        <ele>271.2</ele>
        <time>2026-08-31T08:50:07Z</time>
      </trkpt>
      <trkpt lat="43.43322" lon="-0.37243">
        <ele>271.2</ele>
        <time>2026-08-31T08:50:08Z</time>
      </trkpt>
      <trkpt lat="43.43322" lon="-0.37244">
        <ele>271.2</ele>
        <time>2026-08-31T08:50:08Z</time>
      </trkpt>
      <trkpt lat="43.43322" lon="-0.37244">
        <ele>271.2</ele>
        <time>2026-08-31T08:50:09Z</time>
      </trkpt>
      <trkpt lat="43.43322" lon="-0.37245">
        <ele>271.2</ele>
        <time>2026-08-31T08:50:09Z</time>
      </trkpt>
      <trkpt lat="43.43322" lon="-0.37246">
        <ele>272.2</ele>
        <time>2026-08-31T08:50:10Z</time>
      </trkpt>
      <trkpt lat="43.43322" lon="-0.37247">
        <ele>272.2</ele>
        <time>2026-08-31T08:50:10Z</time>
      </trkpt>
      <trkpt lat="43.43322" lon="-0.37248">
        <ele>271.2</ele>
        <time>2026-08-31T08:50:11Z</time>
      </trkpt>
      <trkpt lat="43.43322" lon="-0.37249">
        <ele>271.2</ele>
        <time>2026-08-31T08:50:12Z</time>
      </trkpt>
      <trkpt lat="43.43322" lon="-0.37249">
        <ele>271.2</ele>
        <time>2026-08-31T08:50:12Z</time>
      </trkpt>
      <trkpt lat="43.43322" lon="-0.3725">
        <ele>271.2</ele>
        <time>2026-08-31T08:50:13Z</time>
      </trkpt>
      <trkpt lat="43.43322" lon="-0.37251">
        <ele>271.2</ele>
        <time>2026-08-31T08:50:13Z</time>
      </trkpt>
      <trkpt lat="43.43322" lon="-0.37251">
        <ele>271.2</ele>
        <time>2026-08-31T08:50:14Z</time>
      </trkpt>
      <trkpt lat="43.43323" lon="-0.37252">
        <ele>271.2</ele>
        <time>2026-08-31T08:50:15Z</time>
      </trkpt>
      <trkpt lat="43.43323" lon="-0.37253">
        <ele>270.2</ele>
        <time>2026-08-31T08:50:15Z</time>
      </trkpt>
      <trkpt lat="43.43323" lon="-0.37253">
        <ele>270.2</ele>
        <time>2026-08-31T08:50:16Z</time>
      </trkpt>
      <trkpt lat="43.43323" lon="-0.37254">
        <ele>270.2</ele>
        <time>2026-08-31T08:50:16Z</time>
      </trkpt>
      <trkpt lat="43.43323" lon="-0.37255">
        <ele>269.2</ele>
        <time>2026-08-31T08:50:17Z</time>
      </trkpt>
      <trkpt lat="43.43324" lon="-0.37256">
        <ele>269.2</ele>
        <time>2026-08-31T08:50:18Z</time>
      </trkpt>
      <trkpt lat="43.43324" lon="-0.37256">
        <ele>269.2</ele>
        <time>2026-08-31T08:50:18Z</time>
      </trkpt>
      <trkpt lat="43.43324" lon="-0.37257">
        <ele>269.2</ele>
        <time>2026-08-31T08:50:19Z</time>
      </trkpt>
      <trkpt lat="43.43324" lon="-0.37258">
        <ele>269.2</ele>
        <time>2026-08-31T08:50:19Z</time>
      </trkpt>
      <trkpt lat="43.43324" lon="-0.37258">
        <ele>268.2</ele>
        <time>2026-08-31T08:50:20Z</time>
      </trkpt>
      <trkpt lat="43.43325" lon="-0.37259">
        <ele>268.2</ele>
        <time>2026-08-31T08:50:20Z</time>
      </trkpt>
      <trkpt lat="43.43325" lon="-0.3726">
        <ele>268.2</ele>
        <time>2026-08-31T08:50:21Z</time>
      </trkpt>
      <trkpt lat="43.43325" lon="-0.37261">
        <ele>268.2</ele>
        <time>2026-08-31T08:50:22Z</time>
      </trkpt>
      <trkpt lat="43.43325" lon="-0.37262">
        <ele>269.2</ele>
        <time>2026-08-31T08:50:22Z</time>
      </trkpt>
      <trkpt lat="43.43326" lon="-0.37262">
        <ele>269.2</ele>
        <time>2026-08-31T08:50:23Z</time>
      </trkpt>
      <trkpt lat="43.43326" lon="-0.37263">
        <ele>269.2</ele>
        <time>2026-08-31T08:50:23Z</time>
      </trkpt>
      <trkpt lat="43.43326" lon="-0.37265">
        <ele>268.2</ele>
        <time>2026-08-31T08:50:25Z</time>
      </trkpt>
      <trkpt lat="43.43326" lon="-0.37266">
        <ele>269.2</ele>
        <time>2026-08-31T08:50:26Z</time>
      </trkpt>
      <trkpt lat="43.43325" lon="-0.37267">
        <ele>268.2</ele>
        <time>2026-08-31T08:50:26Z</time>
      </trkpt>
      <trkpt lat="43.43325" lon="-0.37267">
        <ele>268.2</ele>
        <time>2026-08-31T08:50:27Z</time>
      </trkpt>
      <trkpt lat="43.43325" lon="-0.37267">
        <ele>267.2</ele>
        <time>2026-08-31T08:50:28Z</time>
      </trkpt>
      <trkpt lat="43.43326" lon="-0.37267">
        <ele>267.2</ele>
        <time>2026-08-31T08:50:29Z</time>
      </trkpt>
      <trkpt lat="43.43326" lon="-0.37267">
        <ele>267.2</ele>
        <time>2026-08-31T08:50:30Z</time>
      </trkpt>
      <trkpt lat="43.43326" lon="-0.37266">
        <ele>267.2</ele>
        <time>2026-08-31T08:50:31Z</time>
      </trkpt>
      <trkpt lat="43.43325" lon="-0.37266">
        <ele>267.2</ele>
        <time>2026-08-31T08:50:32Z</time>
      </trkpt>
      <trkpt lat="43.43325" lon="-0.37266">
        <ele>266.2</ele>
        <time>2026-08-31T08:50:33Z</time>
      </trkpt>
      <trkpt lat="43.43325" lon="-0.37265">
        <ele>266.2</ele>
        <time>2026-08-31T08:50:33Z</time>
      </trkpt>
      <trkpt lat="43.43324" lon="-0.37265">
        <ele>266.2</ele>
        <time>2026-08-31T08:50:34Z</time>
      </trkpt>
      <trkpt lat="43.43324" lon="-0.37265">
        <ele>266.2</ele>
        <time>2026-08-31T08:50:34Z</time>
      </trkpt>
      <trkpt lat="43.43324" lon="-0.37265">
        <ele>266.2</ele>
        <time>2026-08-31T08:50:35Z</time>
      </trkpt>
      <trkpt lat="43.43324" lon="-0.37265">
        <ele>266.2</ele>
        <time>2026-08-31T08:50:36Z</time>
      </trkpt>
      <trkpt lat="43.43324" lon="-0.37266">
        <ele>267.2</ele>
        <time>2026-08-31T08:50:36Z</time>
      </trkpt>
      <trkpt lat="43.43324" lon="-0.37266">
        <ele>267.2</ele>
        <time>2026-08-31T08:50:37Z</time>
      </trkpt>
      <trkpt lat="43.43324" lon="-0.37267">
        <ele>267.2</ele>
        <time>2026-08-31T08:50:37Z</time>
      </trkpt>
      <trkpt lat="43.43325" lon="-0.37268">
        <ele>267.2</ele>
        <time>2026-08-31T08:50:38Z</time>
      </trkpt>
      <trkpt lat="43.43325" lon="-0.37268">
        <ele>267.2</ele>
        <time>2026-08-31T08:50:39Z</time>
      </trkpt>
      <trkpt lat="43.43326" lon="-0.3727">
        <ele>267.2</ele>
        <time>2026-08-31T08:50:40Z</time>
      </trkpt>
      <trkpt lat="43.43325" lon="-0.3727">
        <ele>268.2</ele>
        <time>2026-08-31T08:50:41Z</time>
      </trkpt>
      <trkpt lat="43.43325" lon="-0.3727">
        <ele>268.2</ele>
        <time>2026-08-31T08:50:42Z</time>
      </trkpt>
      <trkpt lat="43.43325" lon="-0.3727">
        <ele>269.2</ele>
        <time>2026-08-31T08:50:43Z</time>
      </trkpt>
      <trkpt lat="43.43326" lon="-0.37272">
        <ele>269.2</ele>
        <time>2026-08-31T08:50:44Z</time>
      </trkpt>
      <trkpt lat="43.43326" lon="-0.37273">
        <ele>269.2</ele>
        <time>2026-08-31T08:50:45Z</time>
      </trkpt>
      <trkpt lat="43.43326" lon="-0.37273">
        <ele>269.2</ele>
        <time>2026-08-31T08:50:45Z</time>
      </trkpt>
      <trkpt lat="43.43326" lon="-0.37274">
        <ele>270.2</ele>
        <time>2026-08-31T08:50:46Z</time>
      </trkpt>
      <trkpt lat="43.43327" lon="-0.37275">
        <ele>270.2</ele>
        <time>2026-08-31T08:50:47Z</time>
      </trkpt>
      <trkpt lat="43.43327" lon="-0.37275">
        <ele>270.2</ele>
        <time>2026-08-31T08:50:48Z</time>
      </trkpt>
      <trkpt lat="43.43327" lon="-0.37276">
        <ele>270.2</ele>
        <time>2026-08-31T08:50:48Z</time>
      </trkpt>
      <trkpt lat="43.43328" lon="-0.37277">
        <ele>270.2</ele>
        <time>2026-08-31T08:50:49Z</time>
      </trkpt>
      <trkpt lat="43.43329" lon="-0.37279">
        <ele>270.2</ele>
        <time>2026-08-31T08:50:50Z</time>
      </trkpt>
      <trkpt lat="43.43329" lon="-0.37278">
        <ele>270.2</ele>
        <time>2026-08-31T08:50:51Z</time>
      </trkpt>
      <trkpt lat="43.43329" lon="-0.37278">
        <ele>270.2</ele>
        <time>2026-08-31T08:50:52Z</time>
      </trkpt>
      <trkpt lat="43.43328" lon="-0.37277">
        <ele>270.2</ele>
        <time>2026-08-31T08:50:53Z</time>
      </trkpt>
      <trkpt lat="43.43328" lon="-0.37277">
        <ele>270.2</ele>
        <time>2026-08-31T08:50:53Z</time>
      </trkpt>
      <trkpt lat="43.43328" lon="-0.37277">
        <ele>270.2</ele>
        <time>2026-08-31T08:50:54Z</time>
      </trkpt>
      <trkpt lat="43.43328" lon="-0.37277">
        <ele>270.2</ele>
        <time>2026-08-31T08:50:54Z</time>
      </trkpt>
      <trkpt lat="43.43329" lon="-0.37278">
        <ele>270.2</ele>
        <time>2026-08-31T08:50:55Z</time>
      </trkpt>
      <trkpt lat="43.43329" lon="-0.37278">
        <ele>270.2</ele>
        <time>2026-08-31T08:50:56Z</time>
      </trkpt>
      <trkpt lat="43.43329" lon="-0.37279">
        <ele>270.2</ele>
        <time>2026-08-31T08:50:56Z</time>
      </trkpt>
      <trkpt lat="43.43329" lon="-0.3728">
        <ele>270.2</ele>
        <time>2026-08-31T08:50:57Z</time>
      </trkpt>
      <trkpt lat="43.43329" lon="-0.3728">
        <ele>270.2</ele>
        <time>2026-08-31T08:50:57Z</time>
      </trkpt>
      <trkpt lat="43.4333" lon="-0.37283">
        <ele>270.2</ele>
        <time>2026-08-31T08:50:58Z</time>
      </trkpt>
      <trkpt lat="43.4333" lon="-0.37284">
        <ele>270.2</ele>
        <time>2026-08-31T08:50:59Z</time>
      </trkpt>
      <trkpt lat="43.4333" lon="-0.37285">
        <ele>270.2</ele>
        <time>2026-08-31T08:50:59Z</time>
      </trkpt>
      <trkpt lat="43.4333" lon="-0.37286">
        <ele>270.2</ele>
        <time>2026-08-31T08:51:00Z</time>
      </trkpt>
      <trkpt lat="43.4333" lon="-0.37286">
        <ele>270.2</ele>
        <time>2026-08-31T08:51:01Z</time>
      </trkpt>
      <trkpt lat="43.43331" lon="-0.37287">
        <ele>270.2</ele>
        <time>2026-08-31T08:51:01Z</time>
      </trkpt>
      <trkpt lat="43.43331" lon="-0.37287">
        <ele>270.2</ele>
        <time>2026-08-31T08:51:02Z</time>
      </trkpt>
      <trkpt lat="43.43331" lon="-0.37288">
        <ele>270.2</ele>
        <time>2026-08-31T08:51:03Z</time>
      </trkpt>
      <trkpt lat="43.43331" lon="-0.37288">
        <ele>270.2</ele>
        <time>2026-08-31T08:51:03Z</time>
      </trkpt>
      <trkpt lat="43.43331" lon="-0.3729">
        <ele>271.2</ele>
        <time>2026-08-31T08:51:04Z</time>
      </trkpt>
      <trkpt lat="43.43331" lon="-0.37291">
        <ele>271.2</ele>
        <time>2026-08-31T08:51:04Z</time>
      </trkpt>
      <trkpt lat="43.43332" lon="-0.37293">
        <ele>271.2</ele>
        <time>2026-08-31T08:51:05Z</time>
      </trkpt>
      <trkpt lat="43.43332" lon="-0.37295">
        <ele>271.2</ele>
        <time>2026-08-31T08:51:06Z</time>
      </trkpt>
      <trkpt lat="43.43333" lon="-0.37296">
        <ele>271.2</ele>
        <time>2026-08-31T08:51:06Z</time>
      </trkpt>
      <trkpt lat="43.43333" lon="-0.37297">
        <ele>271.2</ele>
        <time>2026-08-31T08:51:07Z</time>
      </trkpt>
      <trkpt lat="43.43334" lon="-0.37299">
        <ele>271.2</ele>
        <time>2026-08-31T08:51:07Z</time>
      </trkpt>
      <trkpt lat="43.43334" lon="-0.37301">
        <ele>271.2</ele>
        <time>2026-08-31T08:51:08Z</time>
      </trkpt>
      <trkpt lat="43.43335" lon="-0.37302">
        <ele>271.2</ele>
        <time>2026-08-31T08:51:09Z</time>
      </trkpt>
      <trkpt lat="43.43336" lon="-0.37304">
        <ele>271.2</ele>
        <time>2026-08-31T08:51:10Z</time>
      </trkpt>
      <trkpt lat="43.43337" lon="-0.37305">
        <ele>271.2</ele>
        <time>2026-08-31T08:51:10Z</time>
      </trkpt>
      <trkpt lat="43.43337" lon="-0.37306">
        <ele>271.2</ele>
        <time>2026-08-31T08:51:11Z</time>
      </trkpt>
      <trkpt lat="43.43338" lon="-0.37306">
        <ele>271.2</ele>
        <time>2026-08-31T08:51:11Z</time>
      </trkpt>
      <trkpt lat="43.43339" lon="-0.37307">
        <ele>271.2</ele>
        <time>2026-08-31T08:51:12Z</time>
      </trkpt>
      <trkpt lat="43.4334" lon="-0.37307">
        <ele>271.2</ele>
        <time>2026-08-31T08:51:12Z</time>
      </trkpt>
      <trkpt lat="43.43341" lon="-0.37308">
        <ele>271.2</ele>
        <time>2026-08-31T08:51:13Z</time>
      </trkpt>
      <trkpt lat="43.43341" lon="-0.37308">
        <ele>271.2</ele>
        <time>2026-08-31T08:51:14Z</time>
      </trkpt>
      <trkpt lat="43.43341" lon="-0.37309">
        <ele>271.2</ele>
        <time>2026-08-31T08:51:14Z</time>
      </trkpt>
      <trkpt lat="43.43342" lon="-0.37309">
        <ele>271.2</ele>
        <time>2026-08-31T08:51:15Z</time>
      </trkpt>
      <trkpt lat="43.43343" lon="-0.3731">
        <ele>271.2</ele>
        <time>2026-08-31T08:51:16Z</time>
      </trkpt>
      <trkpt lat="43.43344" lon="-0.3731">
        <ele>271.2</ele>
        <time>2026-08-31T08:51:16Z</time>
      </trkpt>
      <trkpt lat="43.43344" lon="-0.37311">
        <ele>271.2</ele>
        <time>2026-08-31T08:51:17Z</time>
      </trkpt>
      <trkpt lat="43.43345" lon="-0.37312">
        <ele>271.2</ele>
        <time>2026-08-31T08:51:17Z</time>
      </trkpt>
      <trkpt lat="43.43346" lon="-0.37312">
        <ele>271.2</ele>
        <time>2026-08-31T08:51:18Z</time>
      </trkpt>
      <trkpt lat="43.43347" lon="-0.37313">
        <ele>271.2</ele>
        <time>2026-08-31T08:51:18Z</time>
      </trkpt>
      <trkpt lat="43.43347" lon="-0.37313">
        <ele>271.2</ele>
        <time>2026-08-31T08:51:19Z</time>
      </trkpt>
      <trkpt lat="43.43348" lon="-0.37313">
        <ele>271.2</ele>
        <time>2026-08-31T08:51:20Z</time>
      </trkpt>
      <trkpt lat="43.43349" lon="-0.37314">
        <ele>271.2</ele>
        <time>2026-08-31T08:51:21Z</time>
      </trkpt>
      <trkpt lat="43.4335" lon="-0.37315">
        <ele>271.2</ele>
        <time>2026-08-31T08:51:21Z</time>
      </trkpt>
      <trkpt lat="43.43351" lon="-0.37315">
        <ele>271.2</ele>
        <time>2026-08-31T08:51:22Z</time>
      </trkpt>
      <trkpt lat="43.43351" lon="-0.37315">
        <ele>271.2</ele>
        <time>2026-08-31T08:51:22Z</time>
      </trkpt>
      <trkpt lat="43.43352" lon="-0.37316">
        <ele>271.2</ele>
        <time>2026-08-31T08:51:23Z</time>
      </trkpt>
      <trkpt lat="43.43353" lon="-0.37316">
        <ele>271.2</ele>
        <time>2026-08-31T08:51:23Z</time>
      </trkpt>
      <trkpt lat="43.43353" lon="-0.37316">
        <ele>270.2</ele>
        <time>2026-08-31T08:51:24Z</time>
      </trkpt>
      <trkpt lat="43.43354" lon="-0.37317">
        <ele>270.2</ele>
        <time>2026-08-31T08:51:25Z</time>
      </trkpt>
      <trkpt lat="43.43355" lon="-0.37317">
        <ele>270.2</ele>
        <time>2026-08-31T08:51:25Z</time>
      </trkpt>
      <trkpt lat="43.43356" lon="-0.37318">
        <ele>270.2</ele>
        <time>2026-08-31T08:51:26Z</time>
      </trkpt>
      <trkpt lat="43.43356" lon="-0.37318">
        <ele>270.2</ele>
        <time>2026-08-31T08:51:27Z</time>
      </trkpt>
      <trkpt lat="43.43357" lon="-0.37319">
        <ele>270.2</ele>
        <time>2026-08-31T08:51:27Z</time>
      </trkpt>
      <trkpt lat="43.43357" lon="-0.37319">
        <ele>271.2</ele>
        <time>2026-08-31T08:51:28Z</time>
      </trkpt>
      <trkpt lat="43.43358" lon="-0.3732">
        <ele>271.2</ele>
        <time>2026-08-31T08:51:28Z</time>
      </trkpt>
      <trkpt lat="43.43359" lon="-0.3732">
        <ele>270.2</ele>
        <time>2026-08-31T08:51:29Z</time>
      </trkpt>
      <trkpt lat="43.43359" lon="-0.37321">
        <ele>270.2</ele>
        <time>2026-08-31T08:51:30Z</time>
      </trkpt>
      <trkpt lat="43.4336" lon="-0.37321">
        <ele>270.2</ele>
        <time>2026-08-31T08:51:30Z</time>
      </trkpt>
      <trkpt lat="43.4336" lon="-0.37321">
        <ele>270.2</ele>
        <time>2026-08-31T08:51:31Z</time>
      </trkpt>
      <trkpt lat="43.43361" lon="-0.37322">
        <ele>270.2</ele>
        <time>2026-08-31T08:51:31Z</time>
      </trkpt>
      <trkpt lat="43.43362" lon="-0.37322">
        <ele>270.2</ele>
        <time>2026-08-31T08:51:32Z</time>
      </trkpt>
      <trkpt lat="43.43362" lon="-0.37323">
        <ele>270.2</ele>
        <time>2026-08-31T08:51:33Z</time>
      </trkpt>
      <trkpt lat="43.43362" lon="-0.37324">
        <ele>270.2</ele>
        <time>2026-08-31T08:51:33Z</time>
      </trkpt>
      <trkpt lat="43.43363" lon="-0.37324">
        <ele>270.2</ele>
        <time>2026-08-31T08:51:34Z</time>
      </trkpt>
      <trkpt lat="43.43364" lon="-0.37325">
        <ele>270.2</ele>
        <time>2026-08-31T08:51:34Z</time>
      </trkpt>
      <trkpt lat="43.43364" lon="-0.37325">
        <ele>270.2</ele>
        <time>2026-08-31T08:51:35Z</time>
      </trkpt>
      <trkpt lat="43.43364" lon="-0.37326">
        <ele>270.2</ele>
        <time>2026-08-31T08:51:35Z</time>
      </trkpt>
      <trkpt lat="43.43364" lon="-0.37327">
        <ele>269.2</ele>
        <time>2026-08-31T08:51:36Z</time>
      </trkpt>
      <trkpt lat="43.43365" lon="-0.37327">
        <ele>269.2</ele>
        <time>2026-08-31T08:51:37Z</time>
      </trkpt>
      <trkpt lat="43.43365" lon="-0.37328">
        <ele>269.2</ele>
        <time>2026-08-31T08:51:37Z</time>
      </trkpt>
      <trkpt lat="43.43365" lon="-0.37329">
        <ele>269.2</ele>
        <time>2026-08-31T08:51:38Z</time>
      </trkpt>
      <trkpt lat="43.43365" lon="-0.3733">
        <ele>269.2</ele>
        <time>2026-08-31T08:51:38Z</time>
      </trkpt>
      <trkpt lat="43.43366" lon="-0.37331">
        <ele>269.2</ele>
        <time>2026-08-31T08:51:39Z</time>
      </trkpt>
      <trkpt lat="43.43366" lon="-0.37331">
        <ele>269.2</ele>
        <time>2026-08-31T08:51:40Z</time>
      </trkpt>
      <trkpt lat="43.43366" lon="-0.37332">
        <ele>270.2</ele>
        <time>2026-08-31T08:51:40Z</time>
      </trkpt>
      <trkpt lat="43.43367" lon="-0.37332">
        <ele>269.2</ele>
        <time>2026-08-31T08:51:41Z</time>
      </trkpt>
      <trkpt lat="43.43367" lon="-0.37333">
        <ele>269.2</ele>
        <time>2026-08-31T08:51:41Z</time>
      </trkpt>
      <trkpt lat="43.43368" lon="-0.37333">
        <ele>268.2</ele>
        <time>2026-08-31T08:51:42Z</time>
      </trkpt>
      <trkpt lat="43.43368" lon="-0.37334">
        <ele>268.2</ele>
        <time>2026-08-31T08:51:43Z</time>
      </trkpt>
      <trkpt lat="43.43368" lon="-0.37335">
        <ele>268.2</ele>
        <time>2026-08-31T08:51:43Z</time>
      </trkpt>
      <trkpt lat="43.43368" lon="-0.37335">
        <ele>268.2</ele>
        <time>2026-08-31T08:51:44Z</time>
      </trkpt>
      <trkpt lat="43.43368" lon="-0.37336">
        <ele>268.2</ele>
        <time>2026-08-31T08:51:45Z</time>
      </trkpt>
      <trkpt lat="43.43367" lon="-0.37337">
        <ele>268.2</ele>
        <time>2026-08-31T08:51:46Z</time>
      </trkpt>
      <trkpt lat="43.43366" lon="-0.37337">
        <ele>268.2</ele>
        <time>2026-08-31T08:51:46Z</time>
      </trkpt>
      <trkpt lat="43.43365" lon="-0.37337">
        <ele>267.2</ele>
        <time>2026-08-31T08:51:48Z</time>
      </trkpt>
      <trkpt lat="43.43365" lon="-0.37336">
        <ele>266.2</ele>
        <time>2026-08-31T08:51:49Z</time>
      </trkpt>
      <trkpt lat="43.43365" lon="-0.37336">
        <ele>266.2</ele>
        <time>2026-08-31T08:51:50Z</time>
      </trkpt>
      <trkpt lat="43.43364" lon="-0.37336">
        <ele>266.2</ele>
        <time>2026-08-31T08:51:51Z</time>
      </trkpt>
      <trkpt lat="43.43364" lon="-0.37336">
        <ele>266.2</ele>
        <time>2026-08-31T08:51:52Z</time>
      </trkpt>
      <trkpt lat="43.43364" lon="-0.37336">
        <ele>265.2</ele>
        <time>2026-08-31T08:51:53Z</time>
      </trkpt>
      <trkpt lat="43.43365" lon="-0.37336">
        <ele>265.2</ele>
        <time>2026-08-31T08:51:54Z</time>
      </trkpt>
      <trkpt lat="43.43365" lon="-0.37336">
        <ele>265.2</ele>
        <time>2026-08-31T08:51:54Z</time>
      </trkpt>
      <trkpt lat="43.43364" lon="-0.37336">
        <ele>265.2</ele>
        <time>2026-08-31T08:51:55Z</time>
      </trkpt>
      <trkpt lat="43.43364" lon="-0.37336">
        <ele>265.2</ele>
        <time>2026-08-31T08:51:56Z</time>
      </trkpt>
      <trkpt lat="43.43364" lon="-0.37336">
        <ele>265.2</ele>
        <time>2026-08-31T08:51:57Z</time>
      </trkpt>
      <trkpt lat="43.43364" lon="-0.37336">
        <ele>265.2</ele>
        <time>2026-08-31T08:51:57Z</time>
      </trkpt>
      <trkpt lat="43.43364" lon="-0.37336">
        <ele>266.2</ele>
        <time>2026-08-31T08:51:58Z</time>
      </trkpt>
      <trkpt lat="43.43364" lon="-0.37336">
        <ele>266.2</ele>
        <time>2026-08-31T08:51:59Z</time>
      </trkpt>
      <trkpt lat="43.43364" lon="-0.37337">
        <ele>265.2</ele>
        <time>2026-08-31T08:51:59Z</time>
      </trkpt>
      <trkpt lat="43.43364" lon="-0.37337">
        <ele>265.2</ele>
        <time>2026-08-31T08:52:00Z</time>
      </trkpt>
      <trkpt lat="43.43365" lon="-0.37337">
        <ele>265.2</ele>
        <time>2026-08-31T08:52:01Z</time>
      </trkpt>
      <trkpt lat="43.43365" lon="-0.37337">
        <ele>265.2</ele>
        <time>2026-08-31T08:52:02Z</time>
      </trkpt>
      <trkpt lat="43.43365" lon="-0.37337">
        <ele>265.2</ele>
        <time>2026-08-31T08:52:03Z</time>
      </trkpt>
      <trkpt lat="43.43365" lon="-0.37338">
        <ele>265.2</ele>
        <time>2026-08-31T08:52:03Z</time>
      </trkpt>
      <trkpt lat="43.43365" lon="-0.37338">
        <ele>265.2</ele>
        <time>2026-08-31T08:52:04Z</time>
      </trkpt>
      <trkpt lat="43.43366" lon="-0.37339">
        <ele>265.2</ele>
        <time>2026-08-31T08:52:04Z</time>
      </trkpt>
      <trkpt lat="43.43366" lon="-0.3734">
        <ele>264.2</ele>
        <time>2026-08-31T08:52:05Z</time>
      </trkpt>
      <trkpt lat="43.43367" lon="-0.37341">
        <ele>265.2</ele>
        <time>2026-08-31T08:52:06Z</time>
      </trkpt>
      <trkpt lat="43.43366" lon="-0.3734">
        <ele>265.2</ele>
        <time>2026-08-31T08:52:07Z</time>
      </trkpt>
      <trkpt lat="43.43366" lon="-0.3734">
        <ele>264.2</ele>
        <time>2026-08-31T08:52:08Z</time>
      </trkpt>
      <trkpt lat="43.43366" lon="-0.3734">
        <ele>264.2</ele>
        <time>2026-08-31T08:52:09Z</time>
      </trkpt>
      <trkpt lat="43.43366" lon="-0.37339">
        <ele>264.2</ele>
        <time>2026-08-31T08:52:10Z</time>
      </trkpt>
      <trkpt lat="43.43366" lon="-0.37339">
        <ele>264.2</ele>
        <time>2026-08-31T08:52:10Z</time>
      </trkpt>
      <trkpt lat="43.43366" lon="-0.37339">
        <ele>264.2</ele>
        <time>2026-08-31T08:52:11Z</time>
      </trkpt>
      <trkpt lat="43.43366" lon="-0.3734">
        <ele>264.2</ele>
        <time>2026-08-31T08:52:12Z</time>
      </trkpt>
      <trkpt lat="43.43366" lon="-0.3734">
        <ele>265.2</ele>
        <time>2026-08-31T08:52:13Z</time>
      </trkpt>
      <trkpt lat="43.43366" lon="-0.3734">
        <ele>265.2</ele>
        <time>2026-08-31T08:52:14Z</time>
      </trkpt>
      <trkpt lat="43.43367" lon="-0.3734">
        <ele>264.2</ele>
        <time>2026-08-31T08:52:15Z</time>
      </trkpt>
      <trkpt lat="43.43367" lon="-0.37341">
        <ele>264.2</ele>
        <time>2026-08-31T08:52:16Z</time>
      </trkpt>
      <trkpt lat="43.43367" lon="-0.37341">
        <ele>264.2</ele>
        <time>2026-08-31T08:52:17Z</time>
      </trkpt>
      <trkpt lat="43.43367" lon="-0.37341">
        <ele>264.2</ele>
        <time>2026-08-31T08:52:18Z</time>
      </trkpt>
      <trkpt lat="43.43366" lon="-0.37341">
        <ele>264.2</ele>
        <time>2026-08-31T08:52:19Z</time>
      </trkpt>
      <trkpt lat="43.43366" lon="-0.37341">
        <ele>264.2</ele>
        <time>2026-08-31T08:52:20Z</time>
      </trkpt>
      <trkpt lat="43.43366" lon="-0.37341">
        <ele>264.2</ele>
        <time>2026-08-31T08:52:21Z</time>
      </trkpt>
      <trkpt lat="43.43366" lon="-0.37341">
        <ele>264.2</ele>
        <time>2026-08-31T08:52:22Z</time>
      </trkpt>
      <trkpt lat="43.43366" lon="-0.37341">
        <ele>264.2</ele>
        <time>2026-08-31T08:52:23Z</time>
      </trkpt>
      <trkpt lat="43.43366" lon="-0.37341">
        <ele>264.2</ele>
        <time>2026-08-31T08:52:24Z</time>
      </trkpt>
      <trkpt lat="43.43366" lon="-0.37341">
        <ele>264.2</ele>
        <time>2026-08-31T08:52:25Z</time>
      </trkpt>
      <trkpt lat="43.43366" lon="-0.37341">
        <ele>265.2</ele>
        <time>2026-08-31T08:52:26Z</time>
      </trkpt>
      <trkpt lat="43.43367" lon="-0.37341">
        <ele>265.2</ele>
        <time>2026-08-31T08:52:27Z</time>
      </trkpt>
      <trkpt lat="43.43367" lon="-0.37342">
        <ele>266.2</ele>
        <time>2026-08-31T08:52:28Z</time>
      </trkpt>
      <trkpt lat="43.43367" lon="-0.37342">
        <ele>265.2</ele>
        <time>2026-08-31T08:52:29Z</time>
      </trkpt>
      <trkpt lat="43.43368" lon="-0.37342">
        <ele>265.2</ele>
        <time>2026-08-31T08:52:30Z</time>
      </trkpt>
      <trkpt lat="43.43368" lon="-0.37342">
        <ele>265.2</ele>
        <time>2026-08-31T08:52:31Z</time>
      </trkpt>
      <trkpt lat="43.43368" lon="-0.37343">
        <ele>265.2</ele>
        <time>2026-08-31T08:52:32Z</time>
      </trkpt>
      <trkpt lat="43.43368" lon="-0.37343">
        <ele>266.2</ele>
        <time>2026-08-31T08:52:33Z</time>
      </trkpt>
      <trkpt lat="43.43369" lon="-0.37343">
        <ele>267.2</ele>
        <time>2026-08-31T08:52:34Z</time>
      </trkpt>
      <trkpt lat="43.43369" lon="-0.37344">
        <ele>267.2</ele>
        <time>2026-08-31T08:52:35Z</time>
      </trkpt>
      <trkpt lat="43.43369" lon="-0.37344">
        <ele>265.2</ele>
        <time>2026-08-31T08:52:36Z</time>
      </trkpt>
      <trkpt lat="43.43369" lon="-0.37344">
        <ele>265.2</ele>
        <time>2026-08-31T08:52:37Z</time>
      </trkpt>
      <trkpt lat="43.43369" lon="-0.37345">
        <ele>264.2</ele>
        <time>2026-08-31T08:52:38Z</time>
      </trkpt>
      <trkpt lat="43.4337" lon="-0.37345">
        <ele>264.2</ele>
        <time>2026-08-31T08:52:39Z</time>
      </trkpt>
      <trkpt lat="43.4337" lon="-0.37345">
        <ele>264.2</ele>
        <time>2026-08-31T08:52:39Z</time>
      </trkpt>
      <trkpt lat="43.4337" lon="-0.37346">
        <ele>265.2</ele>
        <time>2026-08-31T08:52:40Z</time>
      </trkpt>
      <trkpt lat="43.4337" lon="-0.37346">
        <ele>266.2</ele>
        <time>2026-08-31T08:52:41Z</time>
      </trkpt>
      <trkpt lat="43.43371" lon="-0.37346">
        <ele>266.2</ele>
        <time>2026-08-31T08:52:42Z</time>
      </trkpt>
      <trkpt lat="43.43371" lon="-0.37347">
        <ele>266.2</ele>
        <time>2026-08-31T08:52:43Z</time>
      </trkpt>
      <trkpt lat="43.43371" lon="-0.37347">
        <ele>267.2</ele>
        <time>2026-08-31T08:52:43Z</time>
      </trkpt>
      <trkpt lat="43.43372" lon="-0.37348">
        <ele>266.2</ele>
        <time>2026-08-31T08:52:44Z</time>
      </trkpt>
      <trkpt lat="43.43372" lon="-0.37348">
        <ele>267.2</ele>
        <time>2026-08-31T08:52:45Z</time>
      </trkpt>
      <trkpt lat="43.43373" lon="-0.37349">
        <ele>267.2</ele>
        <time>2026-08-31T08:52:45Z</time>
      </trkpt>
      <trkpt lat="43.43373" lon="-0.37349">
        <ele>267.2</ele>
        <time>2026-08-31T08:52:46Z</time>
      </trkpt>
      <trkpt lat="43.43374" lon="-0.3735">
        <ele>268.2</ele>
        <time>2026-08-31T08:52:47Z</time>
      </trkpt>
      <trkpt lat="43.43375" lon="-0.37351">
        <ele>268.2</ele>
        <time>2026-08-31T08:52:47Z</time>
      </trkpt>
      <trkpt lat="43.43376" lon="-0.37351">
        <ele>268.2</ele>
        <time>2026-08-31T08:52:48Z</time>
      </trkpt>
      <trkpt lat="43.43377" lon="-0.37352">
        <ele>268.2</ele>
        <time>2026-08-31T08:52:49Z</time>
      </trkpt>
      <trkpt lat="43.43378" lon="-0.37353">
        <ele>268.2</ele>
        <time>2026-08-31T08:52:49Z</time>
      </trkpt>
      <trkpt lat="43.43379" lon="-0.37353">
        <ele>268.2</ele>
        <time>2026-08-31T08:52:50Z</time>
      </trkpt>
      <trkpt lat="43.4338" lon="-0.37354">
        <ele>268.2</ele>
        <time>2026-08-31T08:52:51Z</time>
      </trkpt>
      <trkpt lat="43.43381" lon="-0.37354">
        <ele>268.2</ele>
        <time>2026-08-31T08:52:51Z</time>
      </trkpt>
      <trkpt lat="43.43382" lon="-0.37355">
        <ele>268.2</ele>
        <time>2026-08-31T08:52:52Z</time>
      </trkpt>
      <trkpt lat="43.43382" lon="-0.37355">
        <ele>267.2</ele>
        <time>2026-08-31T08:52:53Z</time>
      </trkpt>
      <trkpt lat="43.43383" lon="-0.37355">
        <ele>267.2</ele>
        <time>2026-08-31T08:52:54Z</time>
      </trkpt>
      <trkpt lat="43.43384" lon="-0.37356">
        <ele>268.2</ele>
        <time>2026-08-31T08:52:54Z</time>
      </trkpt>
      <trkpt lat="43.43385" lon="-0.37357">
        <ele>268.2</ele>
        <time>2026-08-31T08:52:55Z</time>
      </trkpt>
      <trkpt lat="43.43385" lon="-0.37357">
        <ele>268.2</ele>
        <time>2026-08-31T08:52:56Z</time>
      </trkpt>
      <trkpt lat="43.43386" lon="-0.37358">
        <ele>270.2</ele>
        <time>2026-08-31T08:52:56Z</time>
      </trkpt>
      <trkpt lat="43.43386" lon="-0.37359">
        <ele>270.2</ele>
        <time>2026-08-31T08:52:57Z</time>
      </trkpt>
      <trkpt lat="43.43387" lon="-0.3736">
        <ele>270.2</ele>
        <time>2026-08-31T08:52:57Z</time>
      </trkpt>
      <trkpt lat="43.43388" lon="-0.37361">
        <ele>270.2</ele>
        <time>2026-08-31T08:52:58Z</time>
      </trkpt>
      <trkpt lat="43.43388" lon="-0.37362">
        <ele>270.2</ele>
        <time>2026-08-31T08:52:59Z</time>
      </trkpt>
      <trkpt lat="43.43388" lon="-0.37364">
        <ele>270.2</ele>
        <time>2026-08-31T08:52:59Z</time>
      </trkpt>
      <trkpt lat="43.43388" lon="-0.37365">
        <ele>270.2</ele>
        <time>2026-08-31T08:53:00Z</time>
      </trkpt>
      <trkpt lat="43.43389" lon="-0.37366">
        <ele>270.2</ele>
        <time>2026-08-31T08:53:01Z</time>
      </trkpt>
      <trkpt lat="43.43389" lon="-0.37368">
        <ele>270.2</ele>
        <time>2026-08-31T08:53:01Z</time>
      </trkpt>
      <trkpt lat="43.43389" lon="-0.37369">
        <ele>270.2</ele>
        <time>2026-08-31T08:53:02Z</time>
      </trkpt>
      <trkpt lat="43.43389" lon="-0.3737">
        <ele>270.2</ele>
        <time>2026-08-31T08:53:02Z</time>
      </trkpt>
      <trkpt lat="43.43389" lon="-0.37371">
        <ele>271.2</ele>
        <time>2026-08-31T08:53:03Z</time>
      </trkpt>
      <trkpt lat="43.43389" lon="-0.37372">
        <ele>271.2</ele>
        <time>2026-08-31T08:53:04Z</time>
      </trkpt>
      <trkpt lat="43.43389" lon="-0.37374">
        <ele>271.2</ele>
        <time>2026-08-31T08:53:04Z</time>
      </trkpt>
      <trkpt lat="43.43389" lon="-0.37375">
        <ele>272.2</ele>
        <time>2026-08-31T08:53:05Z</time>
      </trkpt>
      <trkpt lat="43.43389" lon="-0.37376">
        <ele>272.2</ele>
        <time>2026-08-31T08:53:06Z</time>
      </trkpt>
      <trkpt lat="43.43389" lon="-0.37377">
        <ele>272.2</ele>
        <time>2026-08-31T08:53:06Z</time>
      </trkpt>
      <trkpt lat="43.43388" lon="-0.37378">
        <ele>272.2</ele>
        <time>2026-08-31T08:53:07Z</time>
      </trkpt>
      <trkpt lat="43.43388" lon="-0.37379">
        <ele>273.2</ele>
        <time>2026-08-31T08:53:07Z</time>
      </trkpt>
      <trkpt lat="43.43388" lon="-0.37379">
        <ele>273.2</ele>
        <time>2026-08-31T08:53:08Z</time>
      </trkpt>
      <trkpt lat="43.43388" lon="-0.3738">
        <ele>273.2</ele>
        <time>2026-08-31T08:53:08Z</time>
      </trkpt>
      <trkpt lat="43.43388" lon="-0.37381">
        <ele>273.2</ele>
        <time>2026-08-31T08:53:09Z</time>
      </trkpt>
      <trkpt lat="43.43388" lon="-0.37382">
        <ele>273.2</ele>
        <time>2026-08-31T08:53:10Z</time>
      </trkpt>
      <trkpt lat="43.43388" lon="-0.37383">
        <ele>273.2</ele>
        <time>2026-08-31T08:53:10Z</time>
      </trkpt>
      <trkpt lat="43.43389" lon="-0.37384">
        <ele>273.2</ele>
        <time>2026-08-31T08:53:11Z</time>
      </trkpt>
      <trkpt lat="43.43389" lon="-0.37385">
        <ele>273.2</ele>
        <time>2026-08-31T08:53:12Z</time>
      </trkpt>
      <trkpt lat="43.43389" lon="-0.37386">
        <ele>274.2</ele>
        <time>2026-08-31T08:53:12Z</time>
      </trkpt>
      <trkpt lat="43.43389" lon="-0.37387">
        <ele>274.2</ele>
        <time>2026-08-31T08:53:13Z</time>
      </trkpt>
      <trkpt lat="43.43389" lon="-0.37388">
        <ele>274.2</ele>
        <time>2026-08-31T08:53:13Z</time>
      </trkpt>
      <trkpt lat="43.43389" lon="-0.37389">
        <ele>275.2</ele>
        <time>2026-08-31T08:53:14Z</time>
      </trkpt>
      <trkpt lat="43.43389" lon="-0.3739">
        <ele>275.2</ele>
        <time>2026-08-31T08:53:15Z</time>
      </trkpt>
      <trkpt lat="43.4339" lon="-0.37391">
        <ele>275.2</ele>
        <time>2026-08-31T08:53:15Z</time>
      </trkpt>
      <trkpt lat="43.4339" lon="-0.37391">
        <ele>275.2</ele>
        <time>2026-08-31T08:53:16Z</time>
      </trkpt>
      <trkpt lat="43.4339" lon="-0.37392">
        <ele>275.2</ele>
        <time>2026-08-31T08:53:16Z</time>
      </trkpt>
      <trkpt lat="43.4339" lon="-0.37393">
        <ele>275.2</ele>
        <time>2026-08-31T08:53:17Z</time>
      </trkpt>
      <trkpt lat="43.4339" lon="-0.37394">
        <ele>275.2</ele>
        <time>2026-08-31T08:53:17Z</time>
      </trkpt>
      <trkpt lat="43.4339" lon="-0.37395">
        <ele>276.2</ele>
        <time>2026-08-31T08:53:18Z</time>
      </trkpt>
      <trkpt lat="43.4339" lon="-0.37395">
        <ele>276.2</ele>
        <time>2026-08-31T08:53:19Z</time>
      </trkpt>
      <trkpt lat="43.43391" lon="-0.37396">
        <ele>276.2</ele>
        <time>2026-08-31T08:53:19Z</time>
      </trkpt>
      <trkpt lat="43.43391" lon="-0.37396">
        <ele>276.2</ele>
        <time>2026-08-31T08:53:20Z</time>
      </trkpt>
      <trkpt lat="43.43392" lon="-0.37396">
        <ele>276.2</ele>
        <time>2026-08-31T08:53:20Z</time>
      </trkpt>
      <trkpt lat="43.43392" lon="-0.37396">
        <ele>276.2</ele>
        <time>2026-08-31T08:53:21Z</time>
      </trkpt>
      <trkpt lat="43.43393" lon="-0.37396">
        <ele>276.2</ele>
        <time>2026-08-31T08:53:22Z</time>
      </trkpt>
      <trkpt lat="43.43394" lon="-0.37396">
        <ele>276.2</ele>
        <time>2026-08-31T08:53:22Z</time>
      </trkpt>
      <trkpt lat="43.43394" lon="-0.37396">
        <ele>276.2</ele>
        <time>2026-08-31T08:53:23Z</time>
      </trkpt>
      <trkpt lat="43.43395" lon="-0.37396">
        <ele>276.2</ele>
        <time>2026-08-31T08:53:23Z</time>
      </trkpt>
      <trkpt lat="43.43396" lon="-0.37396">
        <ele>276.2</ele>
        <time>2026-08-31T08:53:24Z</time>
      </trkpt>
      <trkpt lat="43.43397" lon="-0.37396">
        <ele>276.2</ele>
        <time>2026-08-31T08:53:24Z</time>
      </trkpt>
      <trkpt lat="43.43397" lon="-0.37395">
        <ele>276.2</ele>
        <time>2026-08-31T08:53:25Z</time>
      </trkpt>
      <trkpt lat="43.43398" lon="-0.37395">
        <ele>276.2</ele>
        <time>2026-08-31T08:53:25Z</time>
      </trkpt>
      <trkpt lat="43.43399" lon="-0.37396">
        <ele>276.2</ele>
        <time>2026-08-31T08:53:26Z</time>
      </trkpt>
      <trkpt lat="43.434" lon="-0.37396">
        <ele>276.2</ele>
        <time>2026-08-31T08:53:27Z</time>
      </trkpt>
      <trkpt lat="43.434" lon="-0.37396">
        <ele>276.2</ele>
        <time>2026-08-31T08:53:27Z</time>
      </trkpt>
      <trkpt lat="43.43401" lon="-0.37396">
        <ele>276.2</ele>
        <time>2026-08-31T08:53:28Z</time>
      </trkpt>
      <trkpt lat="43.43402" lon="-0.37396">
        <ele>276.2</ele>
        <time>2026-08-31T08:53:28Z</time>
      </trkpt>
      <trkpt lat="43.43402" lon="-0.37396">
        <ele>276.2</ele>
        <time>2026-08-31T08:53:29Z</time>
      </trkpt>
      <trkpt lat="43.43403" lon="-0.37396">
        <ele>276.2</ele>
        <time>2026-08-31T08:53:29Z</time>
      </trkpt>
      <trkpt lat="43.43404" lon="-0.37396">
        <ele>276.2</ele>
        <time>2026-08-31T08:53:30Z</time>
      </trkpt>
      <trkpt lat="43.43404" lon="-0.37396">
        <ele>276.2</ele>
        <time>2026-08-31T08:53:30Z</time>
      </trkpt>
      <trkpt lat="43.43405" lon="-0.37396">
        <ele>276.2</ele>
        <time>2026-08-31T08:53:31Z</time>
      </trkpt>
      <trkpt lat="43.43406" lon="-0.37396">
        <ele>276.2</ele>
        <time>2026-08-31T08:53:32Z</time>
      </trkpt>
      <trkpt lat="43.43407" lon="-0.37396">
        <ele>277.2</ele>
        <time>2026-08-31T08:53:32Z</time>
      </trkpt>
      <trkpt lat="43.43407" lon="-0.37396">
        <ele>277.2</ele>
        <time>2026-08-31T08:53:33Z</time>
      </trkpt>
      <trkpt lat="43.43408" lon="-0.37396">
        <ele>277.2</ele>
        <time>2026-08-31T08:53:33Z</time>
      </trkpt>
      <trkpt lat="43.43408" lon="-0.37396">
        <ele>277.2</ele>
        <time>2026-08-31T08:53:34Z</time>
      </trkpt>
      <trkpt lat="43.43409" lon="-0.37397">
        <ele>277.2</ele>
        <time>2026-08-31T08:53:34Z</time>
      </trkpt>
      <trkpt lat="43.4341" lon="-0.37397">
        <ele>278.2</ele>
        <time>2026-08-31T08:53:35Z</time>
      </trkpt>
      <trkpt lat="43.43411" lon="-0.37397">
        <ele>278.2</ele>
        <time>2026-08-31T08:53:35Z</time>
      </trkpt>
      <trkpt lat="43.43411" lon="-0.37398">
        <ele>278.2</ele>
        <time>2026-08-31T08:53:36Z</time>
      </trkpt>
      <trkpt lat="43.43412" lon="-0.37398">
        <ele>278.2</ele>
        <time>2026-08-31T08:53:37Z</time>
      </trkpt>
      <trkpt lat="43.43413" lon="-0.37398">
        <ele>278.2</ele>
        <time>2026-08-31T08:53:37Z</time>
      </trkpt>
      <trkpt lat="43.43414" lon="-0.37398">
        <ele>278.2</ele>
        <time>2026-08-31T08:53:38Z</time>
      </trkpt>
      <trkpt lat="43.43414" lon="-0.37398">
        <ele>277.2</ele>
        <time>2026-08-31T08:53:38Z</time>
      </trkpt>
      <trkpt lat="43.43415" lon="-0.37399">
        <ele>278.2</ele>
        <time>2026-08-31T08:53:39Z</time>
      </trkpt>
      <trkpt lat="43.43415" lon="-0.37399">
        <ele>278.2</ele>
        <time>2026-08-31T08:53:39Z</time>
      </trkpt>
      <trkpt lat="43.43416" lon="-0.37399">
        <ele>278.2</ele>
        <time>2026-08-31T08:53:40Z</time>
      </trkpt>
      <trkpt lat="43.43417" lon="-0.37399">
        <ele>278.2</ele>
        <time>2026-08-31T08:53:40Z</time>
      </trkpt>
      <trkpt lat="43.43417" lon="-0.37399">
        <ele>277.2</ele>
        <time>2026-08-31T08:53:41Z</time>
      </trkpt>
      <trkpt lat="43.43418" lon="-0.374">
        <ele>277.2</ele>
        <time>2026-08-31T08:53:42Z</time>
      </trkpt>
      <trkpt lat="43.43419" lon="-0.374">
        <ele>277.2</ele>
        <time>2026-08-31T08:53:42Z</time>
      </trkpt>
      <trkpt lat="43.4342" lon="-0.374">
        <ele>277.2</ele>
        <time>2026-08-31T08:53:43Z</time>
      </trkpt>
      <trkpt lat="43.4342" lon="-0.37401">
        <ele>277.2</ele>
        <time>2026-08-31T08:53:43Z</time>
      </trkpt>
      <trkpt lat="43.43421" lon="-0.37401">
        <ele>277.2</ele>
        <time>2026-08-31T08:53:44Z</time>
      </trkpt>
      <trkpt lat="43.43421" lon="-0.37401">
        <ele>277.2</ele>
        <time>2026-08-31T08:53:44Z</time>
      </trkpt>
      <trkpt lat="43.43422" lon="-0.37402">
        <ele>277.2</ele>
        <time>2026-08-31T08:53:45Z</time>
      </trkpt>
      <trkpt lat="43.43423" lon="-0.37402">
        <ele>277.2</ele>
        <time>2026-08-31T08:53:45Z</time>
      </trkpt>
      <trkpt lat="43.43423" lon="-0.37402">
        <ele>278.2</ele>
        <time>2026-08-31T08:53:46Z</time>
      </trkpt>
      <trkpt lat="43.43424" lon="-0.37403">
        <ele>278.2</ele>
        <time>2026-08-31T08:53:46Z</time>
      </trkpt>
      <trkpt lat="43.43425" lon="-0.37403">
        <ele>278.2</ele>
        <time>2026-08-31T08:53:47Z</time>
      </trkpt>
      <trkpt lat="43.43425" lon="-0.37404">
        <ele>278.2</ele>
        <time>2026-08-31T08:53:48Z</time>
      </trkpt>
      <trkpt lat="43.43426" lon="-0.37404">
        <ele>278.2</ele>
        <time>2026-08-31T08:53:48Z</time>
      </trkpt>
      <trkpt lat="43.43426" lon="-0.37404">
        <ele>278.2</ele>
        <time>2026-08-31T08:53:49Z</time>
      </trkpt>
      <trkpt lat="43.43427" lon="-0.37405">
        <ele>278.2</ele>
        <time>2026-08-31T08:53:49Z</time>
      </trkpt>
      <trkpt lat="43.43427" lon="-0.37405">
        <ele>278.2</ele>
        <time>2026-08-31T08:53:50Z</time>
      </trkpt>
      <trkpt lat="43.43428" lon="-0.37406">
        <ele>278.2</ele>
        <time>2026-08-31T08:53:50Z</time>
      </trkpt>
      <trkpt lat="43.43428" lon="-0.37406">
        <ele>278.2</ele>
        <time>2026-08-31T08:53:51Z</time>
      </trkpt>
      <trkpt lat="43.43429" lon="-0.37406">
        <ele>278.2</ele>
        <time>2026-08-31T08:53:51Z</time>
      </trkpt>
      <trkpt lat="43.43429" lon="-0.37407">
        <ele>278.2</ele>
        <time>2026-08-31T08:53:52Z</time>
      </trkpt>
      <trkpt lat="43.4343" lon="-0.37407">
        <ele>278.2</ele>
        <time>2026-08-31T08:53:52Z</time>
      </trkpt>
      <trkpt lat="43.4343" lon="-0.37407">
        <ele>278.2</ele>
        <time>2026-08-31T08:53:53Z</time>
      </trkpt>
      <trkpt lat="43.43431" lon="-0.37407">
        <ele>278.2</ele>
        <time>2026-08-31T08:53:54Z</time>
      </trkpt>
      <trkpt lat="43.43431" lon="-0.37408">
        <ele>278.2</ele>
        <time>2026-08-31T08:53:54Z</time>
      </trkpt>
      <trkpt lat="43.43431" lon="-0.37408">
        <ele>278.2</ele>
        <time>2026-08-31T08:53:55Z</time>
      </trkpt>
      <trkpt lat="43.43432" lon="-0.37409">
        <ele>278.2</ele>
        <time>2026-08-31T08:53:55Z</time>
      </trkpt>
      <trkpt lat="43.43432" lon="-0.37409">
        <ele>278.2</ele>
        <time>2026-08-31T08:53:56Z</time>
      </trkpt>
      <trkpt lat="43.43433" lon="-0.3741">
        <ele>278.2</ele>
        <time>2026-08-31T08:53:56Z</time>
      </trkpt>
      <trkpt lat="43.43433" lon="-0.3741">
        <ele>278.2</ele>
        <time>2026-08-31T08:53:57Z</time>
      </trkpt>
      <trkpt lat="43.43434" lon="-0.3741">
        <ele>278.2</ele>
        <time>2026-08-31T08:53:57Z</time>
      </trkpt>
      <trkpt lat="43.43434" lon="-0.37411">
        <ele>279.2</ele>
        <time>2026-08-31T08:53:58Z</time>
      </trkpt>
      <trkpt lat="43.43435" lon="-0.37411">
        <ele>279.2</ele>
        <time>2026-08-31T08:53:59Z</time>
      </trkpt>
      <trkpt lat="43.43435" lon="-0.37412">
        <ele>279.2</ele>
        <time>2026-08-31T08:53:59Z</time>
      </trkpt>
      <trkpt lat="43.43436" lon="-0.37412">
        <ele>279.2</ele>
        <time>2026-08-31T08:54:00Z</time>
      </trkpt>
      <trkpt lat="43.43436" lon="-0.37413">
        <ele>279.2</ele>
        <time>2026-08-31T08:54:00Z</time>
      </trkpt>
      <trkpt lat="43.43437" lon="-0.37413">
        <ele>279.2</ele>
        <time>2026-08-31T08:54:01Z</time>
      </trkpt>
      <trkpt lat="43.43437" lon="-0.37414">
        <ele>279.2</ele>
        <time>2026-08-31T08:54:01Z</time>
      </trkpt>
      <trkpt lat="43.43437" lon="-0.37414">
        <ele>279.2</ele>
        <time>2026-08-31T08:54:02Z</time>
      </trkpt>
      <trkpt lat="43.43438" lon="-0.37415">
        <ele>279.2</ele>
        <time>2026-08-31T08:54:02Z</time>
      </trkpt>
      <trkpt lat="43.43439" lon="-0.37415">
        <ele>279.2</ele>
        <time>2026-08-31T08:54:03Z</time>
      </trkpt>
      <trkpt lat="43.43439" lon="-0.37415">
        <ele>279.2</ele>
        <time>2026-08-31T08:54:04Z</time>
      </trkpt>
      <trkpt lat="43.4344" lon="-0.37415">
        <ele>278.2</ele>
        <time>2026-08-31T08:54:04Z</time>
      </trkpt>
      <trkpt lat="43.4344" lon="-0.37416">
        <ele>278.2</ele>
        <time>2026-08-31T08:54:05Z</time>
      </trkpt>
      <trkpt lat="43.43441" lon="-0.37416">
        <ele>278.2</ele>
        <time>2026-08-31T08:54:05Z</time>
      </trkpt>
      <trkpt lat="43.43441" lon="-0.37416">
        <ele>279.2</ele>
        <time>2026-08-31T08:54:06Z</time>
      </trkpt>
      <trkpt lat="43.43442" lon="-0.37417">
        <ele>279.2</ele>
        <time>2026-08-31T08:54:06Z</time>
      </trkpt>
      <trkpt lat="43.43443" lon="-0.37417">
        <ele>278.2</ele>
        <time>2026-08-31T08:54:07Z</time>
      </trkpt>
      <trkpt lat="43.43443" lon="-0.37418">
        <ele>278.2</ele>
        <time>2026-08-31T08:54:07Z</time>
      </trkpt>
      <trkpt lat="43.43444" lon="-0.37418">
        <ele>278.2</ele>
        <time>2026-08-31T08:54:08Z</time>
      </trkpt>
      <trkpt lat="43.43445" lon="-0.37419">
        <ele>278.2</ele>
        <time>2026-08-31T08:54:08Z</time>
      </trkpt>
      <trkpt lat="43.43445" lon="-0.37419">
        <ele>278.2</ele>
        <time>2026-08-31T08:54:09Z</time>
      </trkpt>
      <trkpt lat="43.43446" lon="-0.3742">
        <ele>278.2</ele>
        <time>2026-08-31T08:54:10Z</time>
      </trkpt>
      <trkpt lat="43.43447" lon="-0.3742">
        <ele>278.2</ele>
        <time>2026-08-31T08:54:10Z</time>
      </trkpt>
      <trkpt lat="43.43447" lon="-0.3742">
        <ele>278.2</ele>
        <time>2026-08-31T08:54:11Z</time>
      </trkpt>
      <trkpt lat="43.43448" lon="-0.37421">
        <ele>278.2</ele>
        <time>2026-08-31T08:54:11Z</time>
      </trkpt>
      <trkpt lat="43.43449" lon="-0.37421">
        <ele>278.2</ele>
        <time>2026-08-31T08:54:12Z</time>
      </trkpt>
      <trkpt lat="43.43449" lon="-0.37421">
        <ele>278.2</ele>
        <time>2026-08-31T08:54:12Z</time>
      </trkpt>
      <trkpt lat="43.4345" lon="-0.37422">
        <ele>278.2</ele>
        <time>2026-08-31T08:54:13Z</time>
      </trkpt>
      <trkpt lat="43.43451" lon="-0.37422">
        <ele>278.2</ele>
        <time>2026-08-31T08:54:13Z</time>
      </trkpt>
      <trkpt lat="43.43451" lon="-0.37422">
        <ele>278.2</ele>
        <time>2026-08-31T08:54:14Z</time>
      </trkpt>
      <trkpt lat="43.43452" lon="-0.37423">
        <ele>278.2</ele>
        <time>2026-08-31T08:54:14Z</time>
      </trkpt>
      <trkpt lat="43.43453" lon="-0.37423">
        <ele>278.2</ele>
        <time>2026-08-31T08:54:15Z</time>
      </trkpt>
      <trkpt lat="43.43453" lon="-0.37424">
        <ele>278.2</ele>
        <time>2026-08-31T08:54:16Z</time>
      </trkpt>
      <trkpt lat="43.43454" lon="-0.37424">
        <ele>279.2</ele>
        <time>2026-08-31T08:54:16Z</time>
      </trkpt>
      <trkpt lat="43.43455" lon="-0.37425">
        <ele>279.2</ele>
        <time>2026-08-31T08:54:17Z</time>
      </trkpt>
      <trkpt lat="43.43455" lon="-0.37425">
        <ele>279.2</ele>
        <time>2026-08-31T08:54:17Z</time>
      </trkpt>
      <trkpt lat="43.43456" lon="-0.37425">
        <ele>279.2</ele>
        <time>2026-08-31T08:54:18Z</time>
      </trkpt>
      <trkpt lat="43.43456" lon="-0.37426">
        <ele>279.2</ele>
        <time>2026-08-31T08:54:18Z</time>
      </trkpt>
      <trkpt lat="43.43457" lon="-0.37426">
        <ele>279.2</ele>
        <time>2026-08-31T08:54:19Z</time>
      </trkpt>
      <trkpt lat="43.43458" lon="-0.37426">
        <ele>279.2</ele>
        <time>2026-08-31T08:54:19Z</time>
      </trkpt>
      <trkpt lat="43.43458" lon="-0.37426">
        <ele>279.2</ele>
        <time>2026-08-31T08:54:20Z</time>
      </trkpt>
      <trkpt lat="43.43459" lon="-0.37426">
        <ele>279.2</ele>
        <time>2026-08-31T08:54:20Z</time>
      </trkpt>
      <trkpt lat="43.4346" lon="-0.37426">
        <ele>279.2</ele>
        <time>2026-08-31T08:54:21Z</time>
      </trkpt>
      <trkpt lat="43.43461" lon="-0.37427">
        <ele>279.2</ele>
        <time>2026-08-31T08:54:22Z</time>
      </trkpt>
      <trkpt lat="43.43461" lon="-0.37427">
        <ele>279.2</ele>
        <time>2026-08-31T08:54:22Z</time>
      </trkpt>
      <trkpt lat="43.43462" lon="-0.37427">
        <ele>279.2</ele>
        <time>2026-08-31T08:54:23Z</time>
      </trkpt>
      <trkpt lat="43.43463" lon="-0.37427">
        <ele>279.2</ele>
        <time>2026-08-31T08:54:23Z</time>
      </trkpt>
      <trkpt lat="43.43463" lon="-0.37427">
        <ele>278.2</ele>
        <time>2026-08-31T08:54:24Z</time>
      </trkpt>
      <trkpt lat="43.43464" lon="-0.37428">
        <ele>278.2</ele>
        <time>2026-08-31T08:54:24Z</time>
      </trkpt>
      <trkpt lat="43.43465" lon="-0.37428">
        <ele>279.2</ele>
        <time>2026-08-31T08:54:25Z</time>
      </trkpt>
      <trkpt lat="43.43465" lon="-0.37428">
        <ele>279.2</ele>
        <time>2026-08-31T08:54:25Z</time>
      </trkpt>
      <trkpt lat="43.43466" lon="-0.37428">
        <ele>279.2</ele>
        <time>2026-08-31T08:54:26Z</time>
      </trkpt>
      <trkpt lat="43.43467" lon="-0.37429">
        <ele>279.2</ele>
        <time>2026-08-31T08:54:26Z</time>
      </trkpt>
      <trkpt lat="43.43467" lon="-0.37429">
        <ele>279.2</ele>
        <time>2026-08-31T08:54:27Z</time>
      </trkpt>
      <trkpt lat="43.43468" lon="-0.37429">
        <ele>279.2</ele>
        <time>2026-08-31T08:54:28Z</time>
      </trkpt>
      <trkpt lat="43.43469" lon="-0.37429">
        <ele>279.2</ele>
        <time>2026-08-31T08:54:28Z</time>
      </trkpt>
      <trkpt lat="43.43469" lon="-0.3743">
        <ele>279.2</ele>
        <time>2026-08-31T08:54:29Z</time>
      </trkpt>
      <trkpt lat="43.4347" lon="-0.3743">
        <ele>279.2</ele>
        <time>2026-08-31T08:54:29Z</time>
      </trkpt>
      <trkpt lat="43.43471" lon="-0.3743">
        <ele>279.2</ele>
        <time>2026-08-31T08:54:30Z</time>
      </trkpt>
      <trkpt lat="43.43471" lon="-0.3743">
        <ele>279.2</ele>
        <time>2026-08-31T08:54:30Z</time>
      </trkpt>
      <trkpt lat="43.43472" lon="-0.37431">
        <ele>278.2</ele>
        <time>2026-08-31T08:54:31Z</time>
      </trkpt>
      <trkpt lat="43.43472" lon="-0.37431">
        <ele>278.2</ele>
        <time>2026-08-31T08:54:31Z</time>
      </trkpt>
      <trkpt lat="43.43473" lon="-0.37431">
        <ele>278.2</ele>
        <time>2026-08-31T08:54:32Z</time>
      </trkpt>
      <trkpt lat="43.43474" lon="-0.37431">
        <ele>278.2</ele>
        <time>2026-08-31T08:54:32Z</time>
      </trkpt>
      <trkpt lat="43.43474" lon="-0.37432">
        <ele>278.2</ele>
        <time>2026-08-31T08:54:33Z</time>
      </trkpt>
      <trkpt lat="43.43475" lon="-0.37432">
        <ele>278.2</ele>
        <time>2026-08-31T08:54:33Z</time>
      </trkpt>
      <trkpt lat="43.43476" lon="-0.37432">
        <ele>278.2</ele>
        <time>2026-08-31T08:54:34Z</time>
      </trkpt>
      <trkpt lat="43.43477" lon="-0.37433">
        <ele>278.2</ele>
        <time>2026-08-31T08:54:35Z</time>
      </trkpt>
      <trkpt lat="43.43477" lon="-0.37433">
        <ele>278.2</ele>
        <time>2026-08-31T08:54:35Z</time>
      </trkpt>
      <trkpt lat="43.43478" lon="-0.37433">
        <ele>278.2</ele>
        <time>2026-08-31T08:54:36Z</time>
      </trkpt>
      <trkpt lat="43.43479" lon="-0.37434">
        <ele>279.2</ele>
        <time>2026-08-31T08:54:36Z</time>
      </trkpt>
      <trkpt lat="43.4348" lon="-0.37434">
        <ele>279.2</ele>
        <time>2026-08-31T08:54:37Z</time>
      </trkpt>
      <trkpt lat="43.4348" lon="-0.37434">
        <ele>279.2</ele>
        <time>2026-08-31T08:54:37Z</time>
      </trkpt>
      <trkpt lat="43.43481" lon="-0.37434">
        <ele>279.2</ele>
        <time>2026-08-31T08:54:38Z</time>
      </trkpt>
      <trkpt lat="43.43482" lon="-0.37435">
        <ele>279.2</ele>
        <time>2026-08-31T08:54:38Z</time>
      </trkpt>
      <trkpt lat="43.43482" lon="-0.37435">
        <ele>279.2</ele>
        <time>2026-08-31T08:54:39Z</time>
      </trkpt>
      <trkpt lat="43.43483" lon="-0.37435">
        <ele>279.2</ele>
        <time>2026-08-31T08:54:39Z</time>
      </trkpt>
      <trkpt lat="43.43484" lon="-0.37435">
        <ele>279.2</ele>
        <time>2026-08-31T08:54:40Z</time>
      </trkpt>
      <trkpt lat="43.43485" lon="-0.37435">
        <ele>279.2</ele>
        <time>2026-08-31T08:54:40Z</time>
      </trkpt>
      <trkpt lat="43.43485" lon="-0.37436">
        <ele>280.2</ele>
        <time>2026-08-31T08:54:41Z</time>
      </trkpt>
      <trkpt lat="43.43486" lon="-0.37436">
        <ele>280.2</ele>
        <time>2026-08-31T08:54:41Z</time>
      </trkpt>
      <trkpt lat="43.43487" lon="-0.37436">
        <ele>280.2</ele>
        <time>2026-08-31T08:54:42Z</time>
      </trkpt>
      <trkpt lat="43.43487" lon="-0.37437">
        <ele>280.2</ele>
        <time>2026-08-31T08:54:43Z</time>
      </trkpt>
      <trkpt lat="43.43488" lon="-0.37437">
        <ele>280.2</ele>
        <time>2026-08-31T08:54:43Z</time>
      </trkpt>
      <trkpt lat="43.43489" lon="-0.37437">
        <ele>280.2</ele>
        <time>2026-08-31T08:54:44Z</time>
      </trkpt>
      <trkpt lat="43.43489" lon="-0.37438">
        <ele>280.2</ele>
        <time>2026-08-31T08:54:44Z</time>
      </trkpt>
      <trkpt lat="43.4349" lon="-0.37438">
        <ele>280.2</ele>
        <time>2026-08-31T08:54:45Z</time>
      </trkpt>
      <trkpt lat="43.43491" lon="-0.37439">
        <ele>279.2</ele>
        <time>2026-08-31T08:54:45Z</time>
      </trkpt>
      <trkpt lat="43.43491" lon="-0.37439">
        <ele>280.2</ele>
        <time>2026-08-31T08:54:46Z</time>
      </trkpt>
      <trkpt lat="43.43492" lon="-0.3744">
        <ele>280.2</ele>
        <time>2026-08-31T08:54:46Z</time>
      </trkpt>
      <trkpt lat="43.43493" lon="-0.3744">
        <ele>280.2</ele>
        <time>2026-08-31T08:54:47Z</time>
      </trkpt>
      <trkpt lat="43.43493" lon="-0.3744">
        <ele>280.2</ele>
        <time>2026-08-31T08:54:47Z</time>
      </trkpt>
      <trkpt lat="43.43494" lon="-0.37441">
        <ele>279.2</ele>
        <time>2026-08-31T08:54:48Z</time>
      </trkpt>
      <trkpt lat="43.43495" lon="-0.37441">
        <ele>279.2</ele>
        <time>2026-08-31T08:54:48Z</time>
      </trkpt>
      <trkpt lat="43.43495" lon="-0.37441">
        <ele>279.2</ele>
        <time>2026-08-31T08:54:49Z</time>
      </trkpt>
      <trkpt lat="43.43496" lon="-0.37442">
        <ele>279.2</ele>
        <time>2026-08-31T08:54:50Z</time>
      </trkpt>
      <trkpt lat="43.43497" lon="-0.37442">
        <ele>280.2</ele>
        <time>2026-08-31T08:54:50Z</time>
      </trkpt>
      <trkpt lat="43.43497" lon="-0.37443">
        <ele>280.2</ele>
        <time>2026-08-31T08:54:51Z</time>
      </trkpt>
      <trkpt lat="43.43498" lon="-0.37443">
        <ele>280.2</ele>
        <time>2026-08-31T08:54:51Z</time>
      </trkpt>
      <trkpt lat="43.43498" lon="-0.37443">
        <ele>280.2</ele>
        <time>2026-08-31T08:54:52Z</time>
      </trkpt>
      <trkpt lat="43.43499" lon="-0.37444">
        <ele>280.2</ele>
        <time>2026-08-31T08:54:52Z</time>
      </trkpt>
      <trkpt lat="43.43499" lon="-0.37444">
        <ele>280.2</ele>
        <time>2026-08-31T08:54:53Z</time>
      </trkpt>
      <trkpt lat="43.435" lon="-0.37445">
        <ele>280.2</ele>
        <time>2026-08-31T08:54:53Z</time>
      </trkpt>
      <trkpt lat="43.43501" lon="-0.37445">
        <ele>280.2</ele>
        <time>2026-08-31T08:54:54Z</time>
      </trkpt>
      <trkpt lat="43.43501" lon="-0.37446">
        <ele>280.2</ele>
        <time>2026-08-31T08:54:54Z</time>
      </trkpt>
      <trkpt lat="43.43502" lon="-0.37446">
        <ele>280.2</ele>
        <time>2026-08-31T08:54:55Z</time>
      </trkpt>
      <trkpt lat="43.43502" lon="-0.37447">
        <ele>280.2</ele>
        <time>2026-08-31T08:54:55Z</time>
      </trkpt>
      <trkpt lat="43.43503" lon="-0.37447">
        <ele>280.2</ele>
        <time>2026-08-31T08:54:56Z</time>
      </trkpt>
      <trkpt lat="43.43504" lon="-0.37447">
        <ele>280.2</ele>
        <time>2026-08-31T08:54:57Z</time>
      </trkpt>
      <trkpt lat="43.43504" lon="-0.37448">
        <ele>280.2</ele>
        <time>2026-08-31T08:54:57Z</time>
      </trkpt>
      <trkpt lat="43.43505" lon="-0.37448">
        <ele>280.2</ele>
        <time>2026-08-31T08:54:58Z</time>
      </trkpt>
      <trkpt lat="43.43505" lon="-0.37448">
        <ele>280.2</ele>
        <time>2026-08-31T08:54:58Z</time>
      </trkpt>
      <trkpt lat="43.43506" lon="-0.37449">
        <ele>280.2</ele>
        <time>2026-08-31T08:54:59Z</time>
      </trkpt>
      <trkpt lat="43.43507" lon="-0.37449">
        <ele>279.2</ele>
        <time>2026-08-31T08:54:59Z</time>
      </trkpt>
      <trkpt lat="43.43507" lon="-0.3745">
        <ele>279.2</ele>
        <time>2026-08-31T08:55:00Z</time>
      </trkpt>
      <trkpt lat="43.43508" lon="-0.3745">
        <ele>279.2</ele>
        <time>2026-08-31T08:55:00Z</time>
      </trkpt>
      <trkpt lat="43.43508" lon="-0.3745">
        <ele>279.2</ele>
        <time>2026-08-31T08:55:01Z</time>
      </trkpt>
      <trkpt lat="43.43509" lon="-0.37451">
        <ele>279.2</ele>
        <time>2026-08-31T08:55:01Z</time>
      </trkpt>
      <trkpt lat="43.4351" lon="-0.37451">
        <ele>279.2</ele>
        <time>2026-08-31T08:55:02Z</time>
      </trkpt>
      <trkpt lat="43.4351" lon="-0.37451">
        <ele>279.2</ele>
        <time>2026-08-31T08:55:02Z</time>
      </trkpt>
      <trkpt lat="43.43511" lon="-0.37452">
        <ele>279.2</ele>
        <time>2026-08-31T08:55:03Z</time>
      </trkpt>
      <trkpt lat="43.43512" lon="-0.37452">
        <ele>279.2</ele>
        <time>2026-08-31T08:55:03Z</time>
      </trkpt>
      <trkpt lat="43.43512" lon="-0.37453">
        <ele>279.2</ele>
        <time>2026-08-31T08:55:04Z</time>
      </trkpt>
      <trkpt lat="43.43513" lon="-0.37453">
        <ele>279.2</ele>
        <time>2026-08-31T08:55:05Z</time>
      </trkpt>
      <trkpt lat="43.43513" lon="-0.37453">
        <ele>279.2</ele>
        <time>2026-08-31T08:55:05Z</time>
      </trkpt>
      <trkpt lat="43.43514" lon="-0.37454">
        <ele>279.2</ele>
        <time>2026-08-31T08:55:06Z</time>
      </trkpt>
      <trkpt lat="43.43515" lon="-0.37454">
        <ele>279.2</ele>
        <time>2026-08-31T08:55:06Z</time>
      </trkpt>
      <trkpt lat="43.43515" lon="-0.37454">
        <ele>279.2</ele>
        <time>2026-08-31T08:55:07Z</time>
      </trkpt>
      <trkpt lat="43.43516" lon="-0.37454">
        <ele>279.2</ele>
        <time>2026-08-31T08:55:07Z</time>
      </trkpt>
      <trkpt lat="43.43517" lon="-0.37455">
        <ele>280.2</ele>
        <time>2026-08-31T08:55:08Z</time>
      </trkpt>
      <trkpt lat="43.43517" lon="-0.37455">
        <ele>280.2</ele>
        <time>2026-08-31T08:55:08Z</time>
      </trkpt>
      <trkpt lat="43.43518" lon="-0.37455">
        <ele>280.2</ele>
        <time>2026-08-31T08:55:09Z</time>
      </trkpt>
      <trkpt lat="43.43518" lon="-0.37456">
        <ele>280.2</ele>
        <time>2026-08-31T08:55:09Z</time>
      </trkpt>
      <trkpt lat="43.43519" lon="-0.37456">
        <ele>280.2</ele>
        <time>2026-08-31T08:55:10Z</time>
      </trkpt>
      <trkpt lat="43.43519" lon="-0.37457">
        <ele>280.2</ele>
        <time>2026-08-31T08:55:10Z</time>
      </trkpt>
      <trkpt lat="43.4352" lon="-0.37457">
        <ele>279.2</ele>
        <time>2026-08-31T08:55:11Z</time>
      </trkpt>
      <trkpt lat="43.43521" lon="-0.37458">
        <ele>279.2</ele>
        <time>2026-08-31T08:55:11Z</time>
      </trkpt>
      <trkpt lat="43.43521" lon="-0.37458">
        <ele>279.2</ele>
        <time>2026-08-31T08:55:12Z</time>
      </trkpt>
      <trkpt lat="43.43522" lon="-0.37459">
        <ele>279.2</ele>
        <time>2026-08-31T08:55:13Z</time>
      </trkpt>
      <trkpt lat="43.43522" lon="-0.37459">
        <ele>279.2</ele>
        <time>2026-08-31T08:55:13Z</time>
      </trkpt>
      <trkpt lat="43.43523" lon="-0.3746">
        <ele>279.2</ele>
        <time>2026-08-31T08:55:14Z</time>
      </trkpt>
      <trkpt lat="43.43524" lon="-0.37461">
        <ele>279.2</ele>
        <time>2026-08-31T08:55:14Z</time>
      </trkpt>
      <trkpt lat="43.43524" lon="-0.37461">
        <ele>279.2</ele>
        <time>2026-08-31T08:55:15Z</time>
      </trkpt>
      <trkpt lat="43.43525" lon="-0.37462">
        <ele>279.2</ele>
        <time>2026-08-31T08:55:15Z</time>
      </trkpt>
      <trkpt lat="43.43525" lon="-0.37462">
        <ele>279.2</ele>
        <time>2026-08-31T08:55:16Z</time>
      </trkpt>
      <trkpt lat="43.43526" lon="-0.37463">
        <ele>279.2</ele>
        <time>2026-08-31T08:55:16Z</time>
      </trkpt>
      <trkpt lat="43.43527" lon="-0.37463">
        <ele>279.2</ele>
        <time>2026-08-31T08:55:17Z</time>
      </trkpt>
      <trkpt lat="43.43527" lon="-0.37464">
        <ele>279.2</ele>
        <time>2026-08-31T08:55:17Z</time>
      </trkpt>
      <trkpt lat="43.43528" lon="-0.37464">
        <ele>279.2</ele>
        <time>2026-08-31T08:55:18Z</time>
      </trkpt>
      <trkpt lat="43.43529" lon="-0.37465">
        <ele>279.2</ele>
        <time>2026-08-31T08:55:18Z</time>
      </trkpt>
      <trkpt lat="43.43529" lon="-0.37465">
        <ele>280.2</ele>
        <time>2026-08-31T08:55:19Z</time>
      </trkpt>
      <trkpt lat="43.4353" lon="-0.37466">
        <ele>280.2</ele>
        <time>2026-08-31T08:55:20Z</time>
      </trkpt>
      <trkpt lat="43.43531" lon="-0.37466">
        <ele>280.2</ele>
        <time>2026-08-31T08:55:20Z</time>
      </trkpt>
      <trkpt lat="43.43531" lon="-0.37467">
        <ele>280.2</ele>
        <time>2026-08-31T08:55:21Z</time>
      </trkpt>
      <trkpt lat="43.43532" lon="-0.37467">
        <ele>279.2</ele>
        <time>2026-08-31T08:55:21Z</time>
      </trkpt>
      <trkpt lat="43.43532" lon="-0.37468">
        <ele>279.2</ele>
        <time>2026-08-31T08:55:22Z</time>
      </trkpt>
      <trkpt lat="43.43533" lon="-0.37469">
        <ele>279.2</ele>
        <time>2026-08-31T08:55:22Z</time>
      </trkpt>
      <trkpt lat="43.43533" lon="-0.37469">
        <ele>279.2</ele>
        <time>2026-08-31T08:55:23Z</time>
      </trkpt>
      <trkpt lat="43.43534" lon="-0.3747">
        <ele>279.2</ele>
        <time>2026-08-31T08:55:23Z</time>
      </trkpt>
      <trkpt lat="43.43535" lon="-0.3747">
        <ele>279.2</ele>
        <time>2026-08-31T08:55:24Z</time>
      </trkpt>
      <trkpt lat="43.43535" lon="-0.37471">
        <ele>279.2</ele>
        <time>2026-08-31T08:55:24Z</time>
      </trkpt>
      <trkpt lat="43.43536" lon="-0.37471">
        <ele>279.2</ele>
        <time>2026-08-31T08:55:25Z</time>
      </trkpt>
      <trkpt lat="43.43537" lon="-0.37471">
        <ele>279.2</ele>
        <time>2026-08-31T08:55:25Z</time>
      </trkpt>
      <trkpt lat="43.43537" lon="-0.37472">
        <ele>279.2</ele>
        <time>2026-08-31T08:55:26Z</time>
      </trkpt>
      <trkpt lat="43.43538" lon="-0.37472">
        <ele>279.2</ele>
        <time>2026-08-31T08:55:26Z</time>
      </trkpt>
      <trkpt lat="43.43539" lon="-0.37473">
        <ele>279.2</ele>
        <time>2026-08-31T08:55:27Z</time>
      </trkpt>
      <trkpt lat="43.43539" lon="-0.37473">
        <ele>279.2</ele>
        <time>2026-08-31T08:55:28Z</time>
      </trkpt>
      <trkpt lat="43.4354" lon="-0.37473">
        <ele>278.2</ele>
        <time>2026-08-31T08:55:28Z</time>
      </trkpt>
      <trkpt lat="43.43541" lon="-0.37474">
        <ele>278.2</ele>
        <time>2026-08-31T08:55:29Z</time>
      </trkpt>
      <trkpt lat="43.43541" lon="-0.37474">
        <ele>279.2</ele>
        <time>2026-08-31T08:55:29Z</time>
      </trkpt>
      <trkpt lat="43.43542" lon="-0.37475">
        <ele>279.2</ele>
        <time>2026-08-31T08:55:30Z</time>
      </trkpt>
      <trkpt lat="43.43542" lon="-0.37475">
        <ele>278.2</ele>
        <time>2026-08-31T08:55:30Z</time>
      </trkpt>
      <trkpt lat="43.43543" lon="-0.37476">
        <ele>278.2</ele>
        <time>2026-08-31T08:55:31Z</time>
      </trkpt>
      <trkpt lat="43.43544" lon="-0.37476">
        <ele>278.2</ele>
        <time>2026-08-31T08:55:31Z</time>
      </trkpt>
      <trkpt lat="43.43544" lon="-0.37477">
        <ele>278.2</ele>
        <time>2026-08-31T08:55:32Z</time>
      </trkpt>
      <trkpt lat="43.43545" lon="-0.37477">
        <ele>278.2</ele>
        <time>2026-08-31T08:55:32Z</time>
      </trkpt>
      <trkpt lat="43.43545" lon="-0.37478">
        <ele>278.2</ele>
        <time>2026-08-31T08:55:33Z</time>
      </trkpt>
      <trkpt lat="43.43546" lon="-0.37478">
        <ele>278.2</ele>
        <time>2026-08-31T08:55:33Z</time>
      </trkpt>
      <trkpt lat="43.43547" lon="-0.37479">
        <ele>277.2</ele>
        <time>2026-08-31T08:55:34Z</time>
      </trkpt>
      <trkpt lat="43.43547" lon="-0.37479">
        <ele>277.2</ele>
        <time>2026-08-31T08:55:34Z</time>
      </trkpt>
      <trkpt lat="43.43548" lon="-0.3748">
        <ele>277.2</ele>
        <time>2026-08-31T08:55:35Z</time>
      </trkpt>
      <trkpt lat="43.43548" lon="-0.3748">
        <ele>277.2</ele>
        <time>2026-08-31T08:55:36Z</time>
      </trkpt>
      <trkpt lat="43.43549" lon="-0.37481">
        <ele>276.2</ele>
        <time>2026-08-31T08:55:36Z</time>
      </trkpt>
      <trkpt lat="43.43549" lon="-0.37481">
        <ele>276.2</ele>
        <time>2026-08-31T08:55:37Z</time>
      </trkpt>
      <trkpt lat="43.4355" lon="-0.37482">
        <ele>277.2</ele>
        <time>2026-08-31T08:55:37Z</time>
      </trkpt>
      <trkpt lat="43.43551" lon="-0.37482">
        <ele>277.2</ele>
        <time>2026-08-31T08:55:38Z</time>
      </trkpt>
      <trkpt lat="43.43551" lon="-0.37483">
        <ele>277.2</ele>
        <time>2026-08-31T08:55:38Z</time>
      </trkpt>
      <trkpt lat="43.43552" lon="-0.37483">
        <ele>277.2</ele>
        <time>2026-08-31T08:55:39Z</time>
      </trkpt>
      <trkpt lat="43.43552" lon="-0.37484">
        <ele>277.2</ele>
        <time>2026-08-31T08:55:39Z</time>
      </trkpt>
      <trkpt lat="43.43553" lon="-0.37484">
        <ele>277.2</ele>
        <time>2026-08-31T08:55:40Z</time>
      </trkpt>
      <trkpt lat="43.43553" lon="-0.37485">
        <ele>277.2</ele>
        <time>2026-08-31T08:55:40Z</time>
      </trkpt>
      <trkpt lat="43.43554" lon="-0.37485">
        <ele>277.2</ele>
        <time>2026-08-31T08:55:41Z</time>
      </trkpt>
      <trkpt lat="43.43554" lon="-0.37486">
        <ele>277.2</ele>
        <time>2026-08-31T08:55:41Z</time>
      </trkpt>
      <trkpt lat="43.43555" lon="-0.37486">
        <ele>277.2</ele>
        <time>2026-08-31T08:55:42Z</time>
      </trkpt>
      <trkpt lat="43.43556" lon="-0.37487">
        <ele>277.2</ele>
        <time>2026-08-31T08:55:42Z</time>
      </trkpt>
      <trkpt lat="43.43556" lon="-0.37487">
        <ele>277.2</ele>
        <time>2026-08-31T08:55:43Z</time>
      </trkpt>
      <trkpt lat="43.43557" lon="-0.37488">
        <ele>277.2</ele>
        <time>2026-08-31T08:55:44Z</time>
      </trkpt>
      <trkpt lat="43.43557" lon="-0.37488">
        <ele>277.2</ele>
        <time>2026-08-31T08:55:44Z</time>
      </trkpt>
      <trkpt lat="43.43558" lon="-0.37489">
        <ele>277.2</ele>
        <time>2026-08-31T08:55:45Z</time>
      </trkpt>
      <trkpt lat="43.43558" lon="-0.37489">
        <ele>277.2</ele>
        <time>2026-08-31T08:55:45Z</time>
      </trkpt>
      <trkpt lat="43.43558" lon="-0.37489">
        <ele>277.2</ele>
        <time>2026-08-31T08:55:46Z</time>
      </trkpt>
      <trkpt lat="43.43558" lon="-0.3749">
        <ele>277.2</ele>
        <time>2026-08-31T08:55:46Z</time>
      </trkpt>
      <trkpt lat="43.43559" lon="-0.3749">
        <ele>277.2</ele>
        <time>2026-08-31T08:55:47Z</time>
      </trkpt>
      <trkpt lat="43.43559" lon="-0.3749">
        <ele>277.2</ele>
        <time>2026-08-31T08:55:47Z</time>
      </trkpt>
      <trkpt lat="43.43559" lon="-0.37491">
        <ele>277.2</ele>
        <time>2026-08-31T08:55:48Z</time>
      </trkpt>
      <trkpt lat="43.4356" lon="-0.37491">
        <ele>277.2</ele>
        <time>2026-08-31T08:55:48Z</time>
      </trkpt>
      <trkpt lat="43.4356" lon="-0.37492">
        <ele>277.2</ele>
        <time>2026-08-31T08:55:49Z</time>
      </trkpt>
      <trkpt lat="43.43561" lon="-0.37493">
        <ele>277.2</ele>
        <time>2026-08-31T08:55:49Z</time>
      </trkpt>
      <trkpt lat="43.43561" lon="-0.37493">
        <ele>277.2</ele>
        <time>2026-08-31T08:55:50Z</time>
      </trkpt>
      <trkpt lat="43.43562" lon="-0.37494">
        <ele>277.2</ele>
        <time>2026-08-31T08:55:50Z</time>
      </trkpt>
      <trkpt lat="43.43562" lon="-0.37495">
        <ele>277.2</ele>
        <time>2026-08-31T08:55:51Z</time>
      </trkpt>
      <trkpt lat="43.43563" lon="-0.37495">
        <ele>277.2</ele>
        <time>2026-08-31T08:55:52Z</time>
      </trkpt>
      <trkpt lat="43.43563" lon="-0.37496">
        <ele>277.2</ele>
        <time>2026-08-31T08:55:52Z</time>
      </trkpt>
      <trkpt lat="43.43564" lon="-0.37497">
        <ele>277.2</ele>
        <time>2026-08-31T08:55:53Z</time>
      </trkpt>
      <trkpt lat="43.43564" lon="-0.37498">
        <ele>277.2</ele>
        <time>2026-08-31T08:55:53Z</time>
      </trkpt>
      <trkpt lat="43.43565" lon="-0.37498">
        <ele>277.2</ele>
        <time>2026-08-31T08:55:54Z</time>
      </trkpt>
      <trkpt lat="43.43565" lon="-0.37499">
        <ele>277.2</ele>
        <time>2026-08-31T08:55:54Z</time>
      </trkpt>
      <trkpt lat="43.43566" lon="-0.375">
        <ele>277.2</ele>
        <time>2026-08-31T08:55:55Z</time>
      </trkpt>
      <trkpt lat="43.43566" lon="-0.37501">
        <ele>277.2</ele>
        <time>2026-08-31T08:55:55Z</time>
      </trkpt>
      <trkpt lat="43.43567" lon="-0.37501">
        <ele>277.2</ele>
        <time>2026-08-31T08:55:56Z</time>
      </trkpt>
      <trkpt lat="43.43567" lon="-0.37502">
        <ele>277.2</ele>
        <time>2026-08-31T08:55:56Z</time>
      </trkpt>
      <trkpt lat="43.43568" lon="-0.37503">
        <ele>277.2</ele>
        <time>2026-08-31T08:55:57Z</time>
      </trkpt>
      <trkpt lat="43.43568" lon="-0.37504">
        <ele>277.2</ele>
        <time>2026-08-31T08:55:57Z</time>
      </trkpt>
      <trkpt lat="43.43569" lon="-0.37504">
        <ele>276.2</ele>
        <time>2026-08-31T08:55:58Z</time>
      </trkpt>
      <trkpt lat="43.43569" lon="-0.37505">
        <ele>276.2</ele>
        <time>2026-08-31T08:55:58Z</time>
      </trkpt>
      <trkpt lat="43.4357" lon="-0.37506">
        <ele>276.2</ele>
        <time>2026-08-31T08:55:59Z</time>
      </trkpt>
      <trkpt lat="43.4357" lon="-0.37506">
        <ele>276.2</ele>
        <time>2026-08-31T08:55:59Z</time>
      </trkpt>
      <trkpt lat="43.43571" lon="-0.37507">
        <ele>276.2</ele>
        <time>2026-08-31T08:56:00Z</time>
      </trkpt>
      <trkpt lat="43.43571" lon="-0.37508">
        <ele>276.2</ele>
        <time>2026-08-31T08:56:01Z</time>
      </trkpt>
      <trkpt lat="43.43571" lon="-0.37509">
        <ele>276.2</ele>
        <time>2026-08-31T08:56:01Z</time>
      </trkpt>
      <trkpt lat="43.43572" lon="-0.37509">
        <ele>276.2</ele>
        <time>2026-08-31T08:56:02Z</time>
      </trkpt>
      <trkpt lat="43.43572" lon="-0.3751">
        <ele>275.2</ele>
        <time>2026-08-31T08:56:02Z</time>
      </trkpt>
      <trkpt lat="43.43573" lon="-0.37511">
        <ele>275.2</ele>
        <time>2026-08-31T08:56:03Z</time>
      </trkpt>
      <trkpt lat="43.43573" lon="-0.37512">
        <ele>276.2</ele>
        <time>2026-08-31T08:56:03Z</time>
      </trkpt>
      <trkpt lat="43.43573" lon="-0.37513">
        <ele>276.2</ele>
        <time>2026-08-31T08:56:04Z</time>
      </trkpt>
      <trkpt lat="43.43574" lon="-0.37514">
        <ele>276.2</ele>
        <time>2026-08-31T08:56:04Z</time>
      </trkpt>
      <trkpt lat="43.43574" lon="-0.37515">
        <ele>275.2</ele>
        <time>2026-08-31T08:56:05Z</time>
      </trkpt>
      <trkpt lat="43.43575" lon="-0.37516">
        <ele>275.2</ele>
        <time>2026-08-31T08:56:05Z</time>
      </trkpt>
      <trkpt lat="43.43575" lon="-0.37517">
        <ele>276.2</ele>
        <time>2026-08-31T08:56:06Z</time>
      </trkpt>
      <trkpt lat="43.43575" lon="-0.37518">
        <ele>276.2</ele>
        <time>2026-08-31T08:56:06Z</time>
      </trkpt>
      <trkpt lat="43.43576" lon="-0.37519">
        <ele>276.2</ele>
        <time>2026-08-31T08:56:07Z</time>
      </trkpt>
      <trkpt lat="43.43576" lon="-0.37519">
        <ele>276.2</ele>
        <time>2026-08-31T08:56:07Z</time>
      </trkpt>
      <trkpt lat="43.43577" lon="-0.3752">
        <ele>277.2</ele>
        <time>2026-08-31T08:56:08Z</time>
      </trkpt>
      <trkpt lat="43.43577" lon="-0.37521">
        <ele>277.2</ele>
        <time>2026-08-31T08:56:09Z</time>
      </trkpt>
      <trkpt lat="43.43577" lon="-0.37522">
        <ele>277.2</ele>
        <time>2026-08-31T08:56:09Z</time>
      </trkpt>
      <trkpt lat="43.43578" lon="-0.37523">
        <ele>277.2</ele>
        <time>2026-08-31T08:56:10Z</time>
      </trkpt>
      <trkpt lat="43.43578" lon="-0.37524">
        <ele>277.2</ele>
        <time>2026-08-31T08:56:10Z</time>
      </trkpt>
      <trkpt lat="43.43579" lon="-0.37524">
        <ele>277.2</ele>
        <time>2026-08-31T08:56:11Z</time>
      </trkpt>
      <trkpt lat="43.43579" lon="-0.37525">
        <ele>276.2</ele>
        <time>2026-08-31T08:56:11Z</time>
      </trkpt>
      <trkpt lat="43.43579" lon="-0.37526">
        <ele>276.2</ele>
        <time>2026-08-31T08:56:12Z</time>
      </trkpt>
      <trkpt lat="43.4358" lon="-0.37527">
        <ele>276.2</ele>
        <time>2026-08-31T08:56:12Z</time>
      </trkpt>
      <trkpt lat="43.4358" lon="-0.37527">
        <ele>276.2</ele>
        <time>2026-08-31T08:56:13Z</time>
      </trkpt>
      <trkpt lat="43.43581" lon="-0.37528">
        <ele>276.2</ele>
        <time>2026-08-31T08:56:13Z</time>
      </trkpt>
      <trkpt lat="43.43581" lon="-0.37529">
        <ele>276.2</ele>
        <time>2026-08-31T08:56:14Z</time>
      </trkpt>
      <trkpt lat="43.43582" lon="-0.3753">
        <ele>276.2</ele>
        <time>2026-08-31T08:56:14Z</time>
      </trkpt>
      <trkpt lat="43.43582" lon="-0.3753">
        <ele>276.2</ele>
        <time>2026-08-31T08:56:15Z</time>
      </trkpt>
      <trkpt lat="43.43583" lon="-0.37531">
        <ele>276.2</ele>
        <time>2026-08-31T08:56:16Z</time>
      </trkpt>
      <trkpt lat="43.43583" lon="-0.37532">
        <ele>276.2</ele>
        <time>2026-08-31T08:56:16Z</time>
      </trkpt>
      <trkpt lat="43.43584" lon="-0.37532">
        <ele>276.2</ele>
        <time>2026-08-31T08:56:17Z</time>
      </trkpt>
      <trkpt lat="43.43584" lon="-0.37533">
        <ele>276.2</ele>
        <time>2026-08-31T08:56:17Z</time>
      </trkpt>
      <trkpt lat="43.43584" lon="-0.37534">
        <ele>276.2</ele>
        <time>2026-08-31T08:56:18Z</time>
      </trkpt>
      <trkpt lat="43.43585" lon="-0.37534">
        <ele>276.2</ele>
        <time>2026-08-31T08:56:18Z</time>
      </trkpt>
      <trkpt lat="43.43585" lon="-0.37535">
        <ele>276.2</ele>
        <time>2026-08-31T08:56:19Z</time>
      </trkpt>
      <trkpt lat="43.43586" lon="-0.37536">
        <ele>277.2</ele>
        <time>2026-08-31T08:56:19Z</time>
      </trkpt>
      <trkpt lat="43.43586" lon="-0.37536">
        <ele>276.2</ele>
        <time>2026-08-31T08:56:20Z</time>
      </trkpt>
      <trkpt lat="43.43586" lon="-0.37537">
        <ele>276.2</ele>
        <time>2026-08-31T08:56:20Z</time>
      </trkpt>
      <trkpt lat="43.43587" lon="-0.37537">
        <ele>277.2</ele>
        <time>2026-08-31T08:56:21Z</time>
      </trkpt>
      <trkpt lat="43.43587" lon="-0.37538">
        <ele>277.2</ele>
        <time>2026-08-31T08:56:21Z</time>
      </trkpt>
      <trkpt lat="43.43588" lon="-0.37539">
        <ele>277.2</ele>
        <time>2026-08-31T08:56:22Z</time>
      </trkpt>
      <trkpt lat="43.43588" lon="-0.3754">
        <ele>277.2</ele>
        <time>2026-08-31T08:56:22Z</time>
      </trkpt>
      <trkpt lat="43.43588" lon="-0.3754">
        <ele>277.2</ele>
        <time>2026-08-31T08:56:23Z</time>
      </trkpt>
      <trkpt lat="43.43589" lon="-0.37541">
        <ele>277.2</ele>
        <time>2026-08-31T08:56:23Z</time>
      </trkpt>
      <trkpt lat="43.43589" lon="-0.37542">
        <ele>277.2</ele>
        <time>2026-08-31T08:56:24Z</time>
      </trkpt>
      <trkpt lat="43.4359" lon="-0.37543">
        <ele>277.2</ele>
        <time>2026-08-31T08:56:25Z</time>
      </trkpt>
      <trkpt lat="43.4359" lon="-0.37544">
        <ele>277.2</ele>
        <time>2026-08-31T08:56:25Z</time>
      </trkpt>
      <trkpt lat="43.43591" lon="-0.37544">
        <ele>277.2</ele>
        <time>2026-08-31T08:56:26Z</time>
      </trkpt>
      <trkpt lat="43.43591" lon="-0.37545">
        <ele>277.2</ele>
        <time>2026-08-31T08:56:26Z</time>
      </trkpt>
      <trkpt lat="43.43592" lon="-0.37546">
        <ele>277.2</ele>
        <time>2026-08-31T08:56:27Z</time>
      </trkpt>
      <trkpt lat="43.43592" lon="-0.37546">
        <ele>277.2</ele>
        <time>2026-08-31T08:56:27Z</time>
      </trkpt>
      <trkpt lat="43.43593" lon="-0.37547">
        <ele>278.2</ele>
        <time>2026-08-31T08:56:28Z</time>
      </trkpt>
      <trkpt lat="43.43593" lon="-0.37548">
        <ele>278.2</ele>
        <time>2026-08-31T08:56:28Z</time>
      </trkpt>
      <trkpt lat="43.43594" lon="-0.37549">
        <ele>278.2</ele>
        <time>2026-08-31T08:56:29Z</time>
      </trkpt>
      <trkpt lat="43.43594" lon="-0.3755">
        <ele>278.2</ele>
        <time>2026-08-31T08:56:29Z</time>
      </trkpt>
      <trkpt lat="43.43594" lon="-0.3755">
        <ele>278.2</ele>
        <time>2026-08-31T08:56:30Z</time>
      </trkpt>
      <trkpt lat="43.43595" lon="-0.37551">
        <ele>278.2</ele>
        <time>2026-08-31T08:56:30Z</time>
      </trkpt>
      <trkpt lat="43.43595" lon="-0.37552">
        <ele>278.2</ele>
        <time>2026-08-31T08:56:31Z</time>
      </trkpt>
      <trkpt lat="43.43596" lon="-0.37553">
        <ele>278.2</ele>
        <time>2026-08-31T08:56:32Z</time>
      </trkpt>
      <trkpt lat="43.43596" lon="-0.37554">
        <ele>278.2</ele>
        <time>2026-08-31T08:56:32Z</time>
      </trkpt>
      <trkpt lat="43.43596" lon="-0.37554">
        <ele>278.2</ele>
        <time>2026-08-31T08:56:33Z</time>
      </trkpt>
      <trkpt lat="43.43597" lon="-0.37555">
        <ele>278.2</ele>
        <time>2026-08-31T08:56:33Z</time>
      </trkpt>
      <trkpt lat="43.43597" lon="-0.37556">
        <ele>278.2</ele>
        <time>2026-08-31T08:56:34Z</time>
      </trkpt>
      <trkpt lat="43.43598" lon="-0.37556">
        <ele>278.2</ele>
        <time>2026-08-31T08:56:34Z</time>
      </trkpt>
      <trkpt lat="43.43598" lon="-0.37557">
        <ele>279.2</ele>
        <time>2026-08-31T08:56:35Z</time>
      </trkpt>
      <trkpt lat="43.43599" lon="-0.37557">
        <ele>279.2</ele>
        <time>2026-08-31T08:56:35Z</time>
      </trkpt>
      <trkpt lat="43.43599" lon="-0.37558">
        <ele>279.2</ele>
        <time>2026-08-31T08:56:36Z</time>
      </trkpt>
      <trkpt lat="43.436" lon="-0.37558">
        <ele>279.2</ele>
        <time>2026-08-31T08:56:36Z</time>
      </trkpt>
      <trkpt lat="43.436" lon="-0.37559">
        <ele>279.2</ele>
        <time>2026-08-31T08:56:37Z</time>
      </trkpt>
      <trkpt lat="43.43601" lon="-0.3756">
        <ele>279.2</ele>
        <time>2026-08-31T08:56:37Z</time>
      </trkpt>
      <trkpt lat="43.43602" lon="-0.3756">
        <ele>279.2</ele>
        <time>2026-08-31T08:56:38Z</time>
      </trkpt>
      <trkpt lat="43.43602" lon="-0.37561">
        <ele>279.2</ele>
        <time>2026-08-31T08:56:38Z</time>
      </trkpt>
      <trkpt lat="43.43603" lon="-0.37561">
        <ele>279.2</ele>
        <time>2026-08-31T08:56:39Z</time>
      </trkpt>
      <trkpt lat="43.43603" lon="-0.37562">
        <ele>279.2</ele>
        <time>2026-08-31T08:56:39Z</time>
      </trkpt>
      <trkpt lat="43.43604" lon="-0.37562">
        <ele>279.2</ele>
        <time>2026-08-31T08:56:40Z</time>
      </trkpt>
      <trkpt lat="43.43604" lon="-0.37563">
        <ele>279.2</ele>
        <time>2026-08-31T08:56:41Z</time>
      </trkpt>
      <trkpt lat="43.43605" lon="-0.37563">
        <ele>279.2</ele>
        <time>2026-08-31T08:56:41Z</time>
      </trkpt>
      <trkpt lat="43.43605" lon="-0.37564">
        <ele>279.2</ele>
        <time>2026-08-31T08:56:42Z</time>
      </trkpt>
      <trkpt lat="43.43606" lon="-0.37564">
        <ele>279.2</ele>
        <time>2026-08-31T08:56:42Z</time>
      </trkpt>
      <trkpt lat="43.43607" lon="-0.37565">
        <ele>279.2</ele>
        <time>2026-08-31T08:56:43Z</time>
      </trkpt>
      <trkpt lat="43.43607" lon="-0.37565">
        <ele>279.2</ele>
        <time>2026-08-31T08:56:43Z</time>
      </trkpt>
      <trkpt lat="43.43608" lon="-0.37566">
        <ele>279.2</ele>
        <time>2026-08-31T08:56:44Z</time>
      </trkpt>
      <trkpt lat="43.43608" lon="-0.37567">
        <ele>279.2</ele>
        <time>2026-08-31T08:56:44Z</time>
      </trkpt>
      <trkpt lat="43.43609" lon="-0.37568">
        <ele>279.2</ele>
        <time>2026-08-31T08:56:45Z</time>
      </trkpt>
      <trkpt lat="43.43609" lon="-0.37568">
        <ele>279.2</ele>
        <time>2026-08-31T08:56:45Z</time>
      </trkpt>
      <trkpt lat="43.43609" lon="-0.37569">
        <ele>279.2</ele>
        <time>2026-08-31T08:56:46Z</time>
      </trkpt>
      <trkpt lat="43.4361" lon="-0.3757">
        <ele>279.2</ele>
        <time>2026-08-31T08:56:46Z</time>
      </trkpt>
      <trkpt lat="43.4361" lon="-0.3757">
        <ele>279.2</ele>
        <time>2026-08-31T08:56:47Z</time>
      </trkpt>
      <trkpt lat="43.43611" lon="-0.37571">
        <ele>279.2</ele>
        <time>2026-08-31T08:56:47Z</time>
      </trkpt>
      <trkpt lat="43.43611" lon="-0.37572">
        <ele>280.2</ele>
        <time>2026-08-31T08:56:48Z</time>
      </trkpt>
      <trkpt lat="43.43612" lon="-0.37572">
        <ele>280.2</ele>
        <time>2026-08-31T08:56:48Z</time>
      </trkpt>
      <trkpt lat="43.43612" lon="-0.37573">
        <ele>280.2</ele>
        <time>2026-08-31T08:56:49Z</time>
      </trkpt>
      <trkpt lat="43.43613" lon="-0.37574">
        <ele>280.2</ele>
        <time>2026-08-31T08:56:50Z</time>
      </trkpt>
      <trkpt lat="43.43614" lon="-0.37575">
        <ele>280.2</ele>
        <time>2026-08-31T08:56:51Z</time>
      </trkpt>
      <trkpt lat="43.43615" lon="-0.37575">
        <ele>280.2</ele>
        <time>2026-08-31T08:56:51Z</time>
      </trkpt>
      <trkpt lat="43.43615" lon="-0.37576">
        <ele>280.2</ele>
        <time>2026-08-31T08:56:52Z</time>
      </trkpt>
      <trkpt lat="43.43616" lon="-0.37576">
        <ele>280.2</ele>
        <time>2026-08-31T08:56:52Z</time>
      </trkpt>
      <trkpt lat="43.43616" lon="-0.37577">
        <ele>280.2</ele>
        <time>2026-08-31T08:56:53Z</time>
      </trkpt>
      <trkpt lat="43.43617" lon="-0.37578">
        <ele>280.2</ele>
        <time>2026-08-31T08:56:53Z</time>
      </trkpt>
      <trkpt lat="43.43617" lon="-0.37578">
        <ele>279.2</ele>
        <time>2026-08-31T08:56:54Z</time>
      </trkpt>
      <trkpt lat="43.43618" lon="-0.37579">
        <ele>279.2</ele>
        <time>2026-08-31T08:56:54Z</time>
      </trkpt>
      <trkpt lat="43.43618" lon="-0.3758">
        <ele>279.2</ele>
        <time>2026-08-31T08:56:55Z</time>
      </trkpt>
      <trkpt lat="43.43619" lon="-0.37581">
        <ele>279.2</ele>
        <time>2026-08-31T08:56:55Z</time>
      </trkpt>
      <trkpt lat="43.43619" lon="-0.37581">
        <ele>279.2</ele>
        <time>2026-08-31T08:56:56Z</time>
      </trkpt>
      <trkpt lat="43.4362" lon="-0.37582">
        <ele>279.2</ele>
        <time>2026-08-31T08:56:56Z</time>
      </trkpt>
      <trkpt lat="43.4362" lon="-0.37583">
        <ele>279.2</ele>
        <time>2026-08-31T08:56:57Z</time>
      </trkpt>
      <trkpt lat="43.43621" lon="-0.37584">
        <ele>279.2</ele>
        <time>2026-08-31T08:56:57Z</time>
      </trkpt>
      <trkpt lat="43.43621" lon="-0.37584">
        <ele>279.2</ele>
        <time>2026-08-31T08:56:58Z</time>
      </trkpt>
      <trkpt lat="43.43621" lon="-0.37585">
        <ele>279.2</ele>
        <time>2026-08-31T08:56:58Z</time>
      </trkpt>
      <trkpt lat="43.43622" lon="-0.37586">
        <ele>279.2</ele>
        <time>2026-08-31T08:56:59Z</time>
      </trkpt>
      <trkpt lat="43.43622" lon="-0.37587">
        <ele>279.2</ele>
        <time>2026-08-31T08:56:59Z</time>
      </trkpt>
      <trkpt lat="43.43622" lon="-0.37588">
        <ele>278.2</ele>
        <time>2026-08-31T08:57:00Z</time>
      </trkpt>
      <trkpt lat="43.43623" lon="-0.37589">
        <ele>278.2</ele>
        <time>2026-08-31T08:57:01Z</time>
      </trkpt>
      <trkpt lat="43.43623" lon="-0.3759">
        <ele>279.2</ele>
        <time>2026-08-31T08:57:01Z</time>
      </trkpt>
      <trkpt lat="43.43624" lon="-0.3759">
        <ele>279.2</ele>
        <time>2026-08-31T08:57:02Z</time>
      </trkpt>
      <trkpt lat="43.43624" lon="-0.37591">
        <ele>278.2</ele>
        <time>2026-08-31T08:57:02Z</time>
      </trkpt>
      <trkpt lat="43.43625" lon="-0.37592">
        <ele>278.2</ele>
        <time>2026-08-31T08:57:03Z</time>
      </trkpt>
      <trkpt lat="43.43625" lon="-0.37593">
        <ele>278.2</ele>
        <time>2026-08-31T08:57:03Z</time>
      </trkpt>
      <trkpt lat="43.43626" lon="-0.37594">
        <ele>278.2</ele>
        <time>2026-08-31T08:57:04Z</time>
      </trkpt>
      <trkpt lat="43.43626" lon="-0.37595">
        <ele>277.2</ele>
        <time>2026-08-31T08:57:04Z</time>
      </trkpt>
      <trkpt lat="43.43627" lon="-0.37595">
        <ele>277.2</ele>
        <time>2026-08-31T08:57:05Z</time>
      </trkpt>
      <trkpt lat="43.43627" lon="-0.37596">
        <ele>277.2</ele>
        <time>2026-08-31T08:57:05Z</time>
      </trkpt>
      <trkpt lat="43.43628" lon="-0.37597">
        <ele>277.2</ele>
        <time>2026-08-31T08:57:06Z</time>
      </trkpt>
      <trkpt lat="43.43628" lon="-0.37598">
        <ele>277.2</ele>
        <time>2026-08-31T08:57:06Z</time>
      </trkpt>
      <trkpt lat="43.43629" lon="-0.37598">
        <ele>277.2</ele>
        <time>2026-08-31T08:57:07Z</time>
      </trkpt>
      <trkpt lat="43.43629" lon="-0.37599">
        <ele>277.2</ele>
        <time>2026-08-31T08:57:07Z</time>
      </trkpt>
      <trkpt lat="43.4363" lon="-0.376">
        <ele>277.2</ele>
        <time>2026-08-31T08:57:08Z</time>
      </trkpt>
      <trkpt lat="43.4363" lon="-0.37601">
        <ele>277.2</ele>
        <time>2026-08-31T08:57:08Z</time>
      </trkpt>
      <trkpt lat="43.43631" lon="-0.37601">
        <ele>277.2</ele>
        <time>2026-08-31T08:57:09Z</time>
      </trkpt>
      <trkpt lat="43.43631" lon="-0.37602">
        <ele>277.2</ele>
        <time>2026-08-31T08:57:10Z</time>
      </trkpt>
      <trkpt lat="43.43632" lon="-0.37602">
        <ele>277.2</ele>
        <time>2026-08-31T08:57:10Z</time>
      </trkpt>
      <trkpt lat="43.43632" lon="-0.37603">
        <ele>277.2</ele>
        <time>2026-08-31T08:57:11Z</time>
      </trkpt>
      <trkpt lat="43.43633" lon="-0.37604">
        <ele>277.2</ele>
        <time>2026-08-31T08:57:11Z</time>
      </trkpt>
      <trkpt lat="43.43633" lon="-0.37604">
        <ele>277.2</ele>
        <time>2026-08-31T08:57:12Z</time>
      </trkpt>
      <trkpt lat="43.43634" lon="-0.37605">
        <ele>277.2</ele>
        <time>2026-08-31T08:57:12Z</time>
      </trkpt>
      <trkpt lat="43.43634" lon="-0.37606">
        <ele>277.2</ele>
        <time>2026-08-31T08:57:13Z</time>
      </trkpt>
      <trkpt lat="43.43635" lon="-0.37606">
        <ele>277.2</ele>
        <time>2026-08-31T08:57:13Z</time>
      </trkpt>
      <trkpt lat="43.43635" lon="-0.37607">
        <ele>277.2</ele>
        <time>2026-08-31T08:57:14Z</time>
      </trkpt>
      <trkpt lat="43.43636" lon="-0.37607">
        <ele>277.2</ele>
        <time>2026-08-31T08:57:14Z</time>
      </trkpt>
      <trkpt lat="43.43636" lon="-0.37608">
        <ele>277.2</ele>
        <time>2026-08-31T08:57:15Z</time>
      </trkpt>
      <trkpt lat="43.43637" lon="-0.37609">
        <ele>277.2</ele>
        <time>2026-08-31T08:57:15Z</time>
      </trkpt>
      <trkpt lat="43.43637" lon="-0.37609">
        <ele>277.2</ele>
        <time>2026-08-31T08:57:16Z</time>
      </trkpt>
      <trkpt lat="43.43638" lon="-0.3761">
        <ele>277.2</ele>
        <time>2026-08-31T08:57:16Z</time>
      </trkpt>
      <trkpt lat="43.43638" lon="-0.37611">
        <ele>276.2</ele>
        <time>2026-08-31T08:57:17Z</time>
      </trkpt>
      <trkpt lat="43.43639" lon="-0.37611">
        <ele>276.2</ele>
        <time>2026-08-31T08:57:17Z</time>
      </trkpt>
      <trkpt lat="43.43639" lon="-0.37612">
        <ele>277.2</ele>
        <time>2026-08-31T08:57:18Z</time>
      </trkpt>
      <trkpt lat="43.4364" lon="-0.37613">
        <ele>277.2</ele>
        <time>2026-08-31T08:57:18Z</time>
      </trkpt>
      <trkpt lat="43.4364" lon="-0.37613">
        <ele>277.2</ele>
        <time>2026-08-31T08:57:19Z</time>
      </trkpt>
      <trkpt lat="43.43641" lon="-0.37614">
        <ele>277.2</ele>
        <time>2026-08-31T08:57:20Z</time>
      </trkpt>
      <trkpt lat="43.43642" lon="-0.37615">
        <ele>277.2</ele>
        <time>2026-08-31T08:57:20Z</time>
      </trkpt>
      <trkpt lat="43.43642" lon="-0.37615">
        <ele>277.2</ele>
        <time>2026-08-31T08:57:21Z</time>
      </trkpt>
      <trkpt lat="43.43643" lon="-0.37616">
        <ele>277.2</ele>
        <time>2026-08-31T08:57:21Z</time>
      </trkpt>
      <trkpt lat="43.43643" lon="-0.37616">
        <ele>277.2</ele>
        <time>2026-08-31T08:57:22Z</time>
      </trkpt>
      <trkpt lat="43.43643" lon="-0.37617">
        <ele>277.2</ele>
        <time>2026-08-31T08:57:22Z</time>
      </trkpt>
      <trkpt lat="43.43644" lon="-0.37617">
        <ele>277.2</ele>
        <time>2026-08-31T08:57:23Z</time>
      </trkpt>
      <trkpt lat="43.43644" lon="-0.37618">
        <ele>276.2</ele>
        <time>2026-08-31T08:57:23Z</time>
      </trkpt>
      <trkpt lat="43.43645" lon="-0.37619">
        <ele>277.2</ele>
        <time>2026-08-31T08:57:24Z</time>
      </trkpt>
      <trkpt lat="43.43645" lon="-0.3762">
        <ele>277.2</ele>
        <time>2026-08-31T08:57:24Z</time>
      </trkpt>
      <trkpt lat="43.43646" lon="-0.3762">
        <ele>277.2</ele>
        <time>2026-08-31T08:57:25Z</time>
      </trkpt>
      <trkpt lat="43.43646" lon="-0.37621">
        <ele>277.2</ele>
        <time>2026-08-31T08:57:25Z</time>
      </trkpt>
      <trkpt lat="43.43647" lon="-0.37622">
        <ele>277.2</ele>
        <time>2026-08-31T08:57:26Z</time>
      </trkpt>
      <trkpt lat="43.43647" lon="-0.37623">
        <ele>277.2</ele>
        <time>2026-08-31T08:57:26Z</time>
      </trkpt>
      <trkpt lat="43.43648" lon="-0.37623">
        <ele>277.2</ele>
        <time>2026-08-31T08:57:27Z</time>
      </trkpt>
      <trkpt lat="43.43648" lon="-0.37624">
        <ele>277.2</ele>
        <time>2026-08-31T08:57:27Z</time>
      </trkpt>
      <trkpt lat="43.43649" lon="-0.37625">
        <ele>277.2</ele>
        <time>2026-08-31T08:57:28Z</time>
      </trkpt>
      <trkpt lat="43.4365" lon="-0.37625">
        <ele>277.2</ele>
        <time>2026-08-31T08:57:29Z</time>
      </trkpt>
      <trkpt lat="43.4365" lon="-0.37626">
        <ele>277.2</ele>
        <time>2026-08-31T08:57:29Z</time>
      </trkpt>
      <trkpt lat="43.43651" lon="-0.37626">
        <ele>277.2</ele>
        <time>2026-08-31T08:57:30Z</time>
      </trkpt>
      <trkpt lat="43.43651" lon="-0.37627">
        <ele>276.2</ele>
        <time>2026-08-31T08:57:30Z</time>
      </trkpt>
      <trkpt lat="43.43652" lon="-0.37627">
        <ele>276.2</ele>
        <time>2026-08-31T08:57:31Z</time>
      </trkpt>
      <trkpt lat="43.43652" lon="-0.37628">
        <ele>277.2</ele>
        <time>2026-08-31T08:57:31Z</time>
      </trkpt>
      <trkpt lat="43.43653" lon="-0.37629">
        <ele>277.2</ele>
        <time>2026-08-31T08:57:32Z</time>
      </trkpt>
      <trkpt lat="43.43653" lon="-0.37629">
        <ele>277.2</ele>
        <time>2026-08-31T08:57:32Z</time>
      </trkpt>
      <trkpt lat="43.43654" lon="-0.3763">
        <ele>277.2</ele>
        <time>2026-08-31T08:57:33Z</time>
      </trkpt>
      <trkpt lat="43.43654" lon="-0.37631">
        <ele>277.2</ele>
        <time>2026-08-31T08:57:33Z</time>
      </trkpt>
      <trkpt lat="43.43655" lon="-0.37631">
        <ele>277.2</ele>
        <time>2026-08-31T08:57:34Z</time>
      </trkpt>
      <trkpt lat="43.43655" lon="-0.37632">
        <ele>277.2</ele>
        <time>2026-08-31T08:57:34Z</time>
      </trkpt>
      <trkpt lat="43.43655" lon="-0.37633">
        <ele>278.2</ele>
        <time>2026-08-31T08:57:35Z</time>
      </trkpt>
      <trkpt lat="43.43656" lon="-0.37633">
        <ele>278.2</ele>
        <time>2026-08-31T08:57:35Z</time>
      </trkpt>
      <trkpt lat="43.43656" lon="-0.37634">
        <ele>278.2</ele>
        <time>2026-08-31T08:57:36Z</time>
      </trkpt>
      <trkpt lat="43.43657" lon="-0.37634">
        <ele>278.2</ele>
        <time>2026-08-31T08:57:36Z</time>
      </trkpt>
      <trkpt lat="43.43657" lon="-0.37635">
        <ele>279.2</ele>
        <time>2026-08-31T08:57:37Z</time>
      </trkpt>
      <trkpt lat="43.43658" lon="-0.37635">
        <ele>279.2</ele>
        <time>2026-08-31T08:57:37Z</time>
      </trkpt>
      <trkpt lat="43.43659" lon="-0.37636">
        <ele>279.2</ele>
        <time>2026-08-31T08:57:38Z</time>
      </trkpt>
      <trkpt lat="43.43659" lon="-0.37637">
        <ele>279.2</ele>
        <time>2026-08-31T08:57:38Z</time>
      </trkpt>
      <trkpt lat="43.4366" lon="-0.37637">
        <ele>279.2</ele>
        <time>2026-08-31T08:57:39Z</time>
      </trkpt>
      <trkpt lat="43.4366" lon="-0.37638">
        <ele>279.2</ele>
        <time>2026-08-31T08:57:40Z</time>
      </trkpt>
      <trkpt lat="43.43661" lon="-0.37638">
        <ele>279.2</ele>
        <time>2026-08-31T08:57:40Z</time>
      </trkpt>
      <trkpt lat="43.43661" lon="-0.37639">
        <ele>279.2</ele>
        <time>2026-08-31T08:57:41Z</time>
      </trkpt>
      <trkpt lat="43.43662" lon="-0.37639">
        <ele>279.2</ele>
        <time>2026-08-31T08:57:41Z</time>
      </trkpt>
      <trkpt lat="43.43662" lon="-0.3764">
        <ele>279.2</ele>
        <time>2026-08-31T08:57:42Z</time>
      </trkpt>
      <trkpt lat="43.43663" lon="-0.3764">
        <ele>279.2</ele>
        <time>2026-08-31T08:57:42Z</time>
      </trkpt>
      <trkpt lat="43.43663" lon="-0.37641">
        <ele>278.2</ele>
        <time>2026-08-31T08:57:43Z</time>
      </trkpt>
      <trkpt lat="43.43664" lon="-0.37641">
        <ele>278.2</ele>
        <time>2026-08-31T08:57:43Z</time>
      </trkpt>
      <trkpt lat="43.43665" lon="-0.37642">
        <ele>279.2</ele>
        <time>2026-08-31T08:57:44Z</time>
      </trkpt>
      <trkpt lat="43.43665" lon="-0.37642">
        <ele>279.2</ele>
        <time>2026-08-31T08:57:44Z</time>
      </trkpt>
      <trkpt lat="43.43666" lon="-0.37643">
        <ele>279.2</ele>
        <time>2026-08-31T08:57:45Z</time>
      </trkpt>
      <trkpt lat="43.43667" lon="-0.37643">
        <ele>279.2</ele>
        <time>2026-08-31T08:57:45Z</time>
      </trkpt>
      <trkpt lat="43.43667" lon="-0.37644">
        <ele>279.2</ele>
        <time>2026-08-31T08:57:46Z</time>
      </trkpt>
      <trkpt lat="43.43668" lon="-0.37644">
        <ele>279.2</ele>
        <time>2026-08-31T08:57:46Z</time>
      </trkpt>
      <trkpt lat="43.43668" lon="-0.37645">
        <ele>279.2</ele>
        <time>2026-08-31T08:57:47Z</time>
      </trkpt>
      <trkpt lat="43.43669" lon="-0.37645">
        <ele>279.2</ele>
        <time>2026-08-31T08:57:47Z</time>
      </trkpt>
      <trkpt lat="43.4367" lon="-0.37645">
        <ele>279.2</ele>
        <time>2026-08-31T08:57:48Z</time>
      </trkpt>
      <trkpt lat="43.4367" lon="-0.37646">
        <ele>279.2</ele>
        <time>2026-08-31T08:57:49Z</time>
      </trkpt>
      <trkpt lat="43.43671" lon="-0.37646">
        <ele>279.2</ele>
        <time>2026-08-31T08:57:49Z</time>
      </trkpt>
      <trkpt lat="43.43671" lon="-0.37647">
        <ele>279.2</ele>
        <time>2026-08-31T08:57:50Z</time>
      </trkpt>
      <trkpt lat="43.43672" lon="-0.37647">
        <ele>279.2</ele>
        <time>2026-08-31T08:57:50Z</time>
      </trkpt>
      <trkpt lat="43.43673" lon="-0.37647">
        <ele>279.2</ele>
        <time>2026-08-31T08:57:51Z</time>
      </trkpt>
      <trkpt lat="43.43673" lon="-0.37648">
        <ele>279.2</ele>
        <time>2026-08-31T08:57:51Z</time>
      </trkpt>
      <trkpt lat="43.43674" lon="-0.37648">
        <ele>279.2</ele>
        <time>2026-08-31T08:57:52Z</time>
      </trkpt>
      <trkpt lat="43.43675" lon="-0.37648">
        <ele>279.2</ele>
        <time>2026-08-31T08:57:52Z</time>
      </trkpt>
      <trkpt lat="43.43675" lon="-0.37649">
        <ele>279.2</ele>
        <time>2026-08-31T08:57:53Z</time>
      </trkpt>
      <trkpt lat="43.43676" lon="-0.37649">
        <ele>279.2</ele>
        <time>2026-08-31T08:57:53Z</time>
      </trkpt>
      <trkpt lat="43.43676" lon="-0.37649">
        <ele>279.2</ele>
        <time>2026-08-31T08:57:54Z</time>
      </trkpt>
      <trkpt lat="43.43677" lon="-0.3765">
        <ele>279.2</ele>
        <time>2026-08-31T08:57:54Z</time>
      </trkpt>
      <trkpt lat="43.43678" lon="-0.3765">
        <ele>279.2</ele>
        <time>2026-08-31T08:57:55Z</time>
      </trkpt>
      <trkpt lat="43.43678" lon="-0.3765">
        <ele>279.2</ele>
        <time>2026-08-31T08:57:55Z</time>
      </trkpt>
      <trkpt lat="43.43679" lon="-0.37651">
        <ele>279.2</ele>
        <time>2026-08-31T08:57:56Z</time>
      </trkpt>
      <trkpt lat="43.4368" lon="-0.37651">
        <ele>279.2</ele>
        <time>2026-08-31T08:57:56Z</time>
      </trkpt>
      <trkpt lat="43.43681" lon="-0.37652">
        <ele>278.2</ele>
        <time>2026-08-31T08:57:57Z</time>
      </trkpt>
      <trkpt lat="43.43681" lon="-0.37653">
        <ele>278.2</ele>
        <time>2026-08-31T08:57:57Z</time>
      </trkpt>
      <trkpt lat="43.43682" lon="-0.37653">
        <ele>278.2</ele>
        <time>2026-08-31T08:57:58Z</time>
      </trkpt>
      <trkpt lat="43.43682" lon="-0.37654">
        <ele>278.2</ele>
        <time>2026-08-31T08:57:58Z</time>
      </trkpt>
      <trkpt lat="43.43683" lon="-0.37654">
        <ele>277.2</ele>
        <time>2026-08-31T08:57:59Z</time>
      </trkpt>
      <trkpt lat="43.43684" lon="-0.37655">
        <ele>277.2</ele>
        <time>2026-08-31T08:58:00Z</time>
      </trkpt>
      <trkpt lat="43.43684" lon="-0.37655">
        <ele>276.2</ele>
        <time>2026-08-31T08:58:00Z</time>
      </trkpt>
      <trkpt lat="43.43685" lon="-0.37656">
        <ele>276.2</ele>
        <time>2026-08-31T08:58:01Z</time>
      </trkpt>
      <trkpt lat="43.43685" lon="-0.37656">
        <ele>276.2</ele>
        <time>2026-08-31T08:58:01Z</time>
      </trkpt>
      <trkpt lat="43.43686" lon="-0.37657">
        <ele>276.2</ele>
        <time>2026-08-31T08:58:02Z</time>
      </trkpt>
      <trkpt lat="43.43687" lon="-0.37657">
        <ele>277.2</ele>
        <time>2026-08-31T08:58:02Z</time>
      </trkpt>
      <trkpt lat="43.43687" lon="-0.37658">
        <ele>277.2</ele>
        <time>2026-08-31T08:58:03Z</time>
      </trkpt>
      <trkpt lat="43.43688" lon="-0.37658">
        <ele>276.2</ele>
        <time>2026-08-31T08:58:03Z</time>
      </trkpt>
      <trkpt lat="43.43688" lon="-0.37659">
        <ele>276.2</ele>
        <time>2026-08-31T08:58:04Z</time>
      </trkpt>
      <trkpt lat="43.43689" lon="-0.37659">
        <ele>276.2</ele>
        <time>2026-08-31T08:58:04Z</time>
      </trkpt>
      <trkpt lat="43.4369" lon="-0.3766">
        <ele>276.2</ele>
        <time>2026-08-31T08:58:05Z</time>
      </trkpt>
      <trkpt lat="43.4369" lon="-0.37661">
        <ele>276.2</ele>
        <time>2026-08-31T08:58:05Z</time>
      </trkpt>
      <trkpt lat="43.43691" lon="-0.37661">
        <ele>276.2</ele>
        <time>2026-08-31T08:58:06Z</time>
      </trkpt>
      <trkpt lat="43.43692" lon="-0.37662">
        <ele>276.2</ele>
        <time>2026-08-31T08:58:06Z</time>
      </trkpt>
      <trkpt lat="43.43692" lon="-0.37662">
        <ele>276.2</ele>
        <time>2026-08-31T08:58:07Z</time>
      </trkpt>
      <trkpt lat="43.43693" lon="-0.37663">
        <ele>276.2</ele>
        <time>2026-08-31T08:58:07Z</time>
      </trkpt>
      <trkpt lat="43.43693" lon="-0.37663">
        <ele>276.2</ele>
        <time>2026-08-31T08:58:08Z</time>
      </trkpt>
      <trkpt lat="43.43694" lon="-0.37663">
        <ele>276.2</ele>
        <time>2026-08-31T08:58:08Z</time>
      </trkpt>
      <trkpt lat="43.43694" lon="-0.37664">
        <ele>276.2</ele>
        <time>2026-08-31T08:58:09Z</time>
      </trkpt>
      <trkpt lat="43.43695" lon="-0.37664">
        <ele>276.2</ele>
        <time>2026-08-31T08:58:10Z</time>
      </trkpt>
      <trkpt lat="43.43696" lon="-0.37665">
        <ele>276.2</ele>
        <time>2026-08-31T08:58:10Z</time>
      </trkpt>
      <trkpt lat="43.43696" lon="-0.37666">
        <ele>276.2</ele>
        <time>2026-08-31T08:58:11Z</time>
      </trkpt>
      <trkpt lat="43.43697" lon="-0.37666">
        <ele>276.2</ele>
        <time>2026-08-31T08:58:11Z</time>
      </trkpt>
      <trkpt lat="43.43697" lon="-0.37667">
        <ele>276.2</ele>
        <time>2026-08-31T08:58:12Z</time>
      </trkpt>
      <trkpt lat="43.43698" lon="-0.37667">
        <ele>276.2</ele>
        <time>2026-08-31T08:58:12Z</time>
      </trkpt>
      <trkpt lat="43.43698" lon="-0.37668">
        <ele>276.2</ele>
        <time>2026-08-31T08:58:13Z</time>
      </trkpt>
      <trkpt lat="43.43699" lon="-0.37668">
        <ele>276.2</ele>
        <time>2026-08-31T08:58:13Z</time>
      </trkpt>
      <trkpt lat="43.43699" lon="-0.37669">
        <ele>276.2</ele>
        <time>2026-08-31T08:58:14Z</time>
      </trkpt>
      <trkpt lat="43.437" lon="-0.37669">
        <ele>276.2</ele>
        <time>2026-08-31T08:58:14Z</time>
      </trkpt>
      <trkpt lat="43.43701" lon="-0.3767">
        <ele>277.2</ele>
        <time>2026-08-31T08:58:15Z</time>
      </trkpt>
      <trkpt lat="43.43701" lon="-0.3767">
        <ele>277.2</ele>
        <time>2026-08-31T08:58:15Z</time>
      </trkpt>
      <trkpt lat="43.43702" lon="-0.37671">
        <ele>276.2</ele>
        <time>2026-08-31T08:58:16Z</time>
      </trkpt>
      <trkpt lat="43.43702" lon="-0.37671">
        <ele>276.2</ele>
        <time>2026-08-31T08:58:16Z</time>
      </trkpt>
      <trkpt lat="43.43703" lon="-0.37672">
        <ele>276.2</ele>
        <time>2026-08-31T08:58:17Z</time>
      </trkpt>
      <trkpt lat="43.43703" lon="-0.37673">
        <ele>276.2</ele>
        <time>2026-08-31T08:58:17Z</time>
      </trkpt>
      <trkpt lat="43.43704" lon="-0.37673">
        <ele>276.2</ele>
        <time>2026-08-31T08:58:18Z</time>
      </trkpt>
      <trkpt lat="43.43705" lon="-0.37674">
        <ele>276.2</ele>
        <time>2026-08-31T08:58:19Z</time>
      </trkpt>
      <trkpt lat="43.43705" lon="-0.37674">
        <ele>276.2</ele>
        <time>2026-08-31T08:58:19Z</time>
      </trkpt>
      <trkpt lat="43.43706" lon="-0.37675">
        <ele>276.2</ele>
        <time>2026-08-31T08:58:20Z</time>
      </trkpt>
      <trkpt lat="43.43706" lon="-0.37675">
        <ele>276.2</ele>
        <time>2026-08-31T08:58:20Z</time>
      </trkpt>
      <trkpt lat="43.43707" lon="-0.37676">
        <ele>276.2</ele>
        <time>2026-08-31T08:58:21Z</time>
      </trkpt>
      <trkpt lat="43.43707" lon="-0.37676">
        <ele>276.2</ele>
        <time>2026-08-31T08:58:21Z</time>
      </trkpt>
      <trkpt lat="43.43708" lon="-0.37677">
        <ele>276.2</ele>
        <time>2026-08-31T08:58:22Z</time>
      </trkpt>
      <trkpt lat="43.43708" lon="-0.37677">
        <ele>276.2</ele>
        <time>2026-08-31T08:58:22Z</time>
      </trkpt>
      <trkpt lat="43.43709" lon="-0.37678">
        <ele>276.2</ele>
        <time>2026-08-31T08:58:23Z</time>
      </trkpt>
      <trkpt lat="43.43709" lon="-0.37678">
        <ele>276.2</ele>
        <time>2026-08-31T08:58:23Z</time>
      </trkpt>
      <trkpt lat="43.4371" lon="-0.37679">
        <ele>276.2</ele>
        <time>2026-08-31T08:58:24Z</time>
      </trkpt>
      <trkpt lat="43.4371" lon="-0.3768">
        <ele>276.2</ele>
        <time>2026-08-31T08:58:24Z</time>
      </trkpt>
      <trkpt lat="43.43711" lon="-0.3768">
        <ele>276.2</ele>
        <time>2026-08-31T08:58:25Z</time>
      </trkpt>
      <trkpt lat="43.43712" lon="-0.37681">
        <ele>276.2</ele>
        <time>2026-08-31T08:58:25Z</time>
      </trkpt>
      <trkpt lat="43.43712" lon="-0.37681">
        <ele>276.2</ele>
        <time>2026-08-31T08:58:26Z</time>
      </trkpt>
      <trkpt lat="43.43713" lon="-0.37682">
        <ele>276.2</ele>
        <time>2026-08-31T08:58:27Z</time>
      </trkpt>
      <trkpt lat="43.43713" lon="-0.37682">
        <ele>276.2</ele>
        <time>2026-08-31T08:58:27Z</time>
      </trkpt>
      <trkpt lat="43.43714" lon="-0.37683">
        <ele>276.2</ele>
        <time>2026-08-31T08:58:28Z</time>
      </trkpt>
      <trkpt lat="43.43715" lon="-0.37683">
        <ele>276.2</ele>
        <time>2026-08-31T08:58:28Z</time>
      </trkpt>
      <trkpt lat="43.43715" lon="-0.37683">
        <ele>276.2</ele>
        <time>2026-08-31T08:58:29Z</time>
      </trkpt>
      <trkpt lat="43.43716" lon="-0.37684">
        <ele>276.2</ele>
        <time>2026-08-31T08:58:29Z</time>
      </trkpt>
      <trkpt lat="43.43717" lon="-0.37684">
        <ele>276.2</ele>
        <time>2026-08-31T08:58:30Z</time>
      </trkpt>
      <trkpt lat="43.43717" lon="-0.37684">
        <ele>276.2</ele>
        <time>2026-08-31T08:58:30Z</time>
      </trkpt>
      <trkpt lat="43.43718" lon="-0.37684">
        <ele>276.2</ele>
        <time>2026-08-31T08:58:31Z</time>
      </trkpt>
      <trkpt lat="43.43718" lon="-0.37685">
        <ele>276.2</ele>
        <time>2026-08-31T08:58:31Z</time>
      </trkpt>
      <trkpt lat="43.43719" lon="-0.37685">
        <ele>276.2</ele>
        <time>2026-08-31T08:58:32Z</time>
      </trkpt>
      <trkpt lat="43.4372" lon="-0.37686">
        <ele>276.2</ele>
        <time>2026-08-31T08:58:32Z</time>
      </trkpt>
      <trkpt lat="43.43721" lon="-0.37686">
        <ele>276.2</ele>
        <time>2026-08-31T08:58:33Z</time>
      </trkpt>
      <trkpt lat="43.43721" lon="-0.37687">
        <ele>277.2</ele>
        <time>2026-08-31T08:58:34Z</time>
      </trkpt>
      <trkpt lat="43.43722" lon="-0.37687">
        <ele>277.2</ele>
        <time>2026-08-31T08:58:34Z</time>
      </trkpt>
      <trkpt lat="43.43723" lon="-0.37688">
        <ele>277.2</ele>
        <time>2026-08-31T08:58:35Z</time>
      </trkpt>
      <trkpt lat="43.43723" lon="-0.37688">
        <ele>277.2</ele>
        <time>2026-08-31T08:58:35Z</time>
      </trkpt>
      <trkpt lat="43.43724" lon="-0.37689">
        <ele>277.2</ele>
        <time>2026-08-31T08:58:36Z</time>
      </trkpt>
      <trkpt lat="43.43724" lon="-0.37689">
        <ele>277.2</ele>
        <time>2026-08-31T08:58:36Z</time>
      </trkpt>
      <trkpt lat="43.43725" lon="-0.37689">
        <ele>276.2</ele>
        <time>2026-08-31T08:58:37Z</time>
      </trkpt>
      <trkpt lat="43.43726" lon="-0.3769">
        <ele>276.2</ele>
        <time>2026-08-31T08:58:37Z</time>
      </trkpt>
      <trkpt lat="43.43726" lon="-0.3769">
        <ele>276.2</ele>
        <time>2026-08-31T08:58:38Z</time>
      </trkpt>
      <trkpt lat="43.43727" lon="-0.37691">
        <ele>276.2</ele>
        <time>2026-08-31T08:58:38Z</time>
      </trkpt>
      <trkpt lat="43.43728" lon="-0.37691">
        <ele>276.2</ele>
        <time>2026-08-31T08:58:39Z</time>
      </trkpt>
      <trkpt lat="43.43728" lon="-0.37692">
        <ele>276.2</ele>
        <time>2026-08-31T08:58:40Z</time>
      </trkpt>
      <trkpt lat="43.43729" lon="-0.37692">
        <ele>276.2</ele>
        <time>2026-08-31T08:58:40Z</time>
      </trkpt>
      <trkpt lat="43.43729" lon="-0.37693">
        <ele>276.2</ele>
        <time>2026-08-31T08:58:41Z</time>
      </trkpt>
      <trkpt lat="43.4373" lon="-0.37693">
        <ele>276.2</ele>
        <time>2026-08-31T08:58:41Z</time>
      </trkpt>
      <trkpt lat="43.4373" lon="-0.37694">
        <ele>276.2</ele>
        <time>2026-08-31T08:58:42Z</time>
      </trkpt>
      <trkpt lat="43.43731" lon="-0.37694">
        <ele>276.2</ele>
        <time>2026-08-31T08:58:42Z</time>
      </trkpt>
      <trkpt lat="43.43731" lon="-0.37694">
        <ele>276.2</ele>
        <time>2026-08-31T08:58:43Z</time>
      </trkpt>
      <trkpt lat="43.43732" lon="-0.37695">
        <ele>276.2</ele>
        <time>2026-08-31T08:58:43Z</time>
      </trkpt>
      <trkpt lat="43.43732" lon="-0.37695">
        <ele>276.2</ele>
        <time>2026-08-31T08:58:44Z</time>
      </trkpt>
      <trkpt lat="43.43733" lon="-0.37696">
        <ele>276.2</ele>
        <time>2026-08-31T08:58:44Z</time>
      </trkpt>
      <trkpt lat="43.43734" lon="-0.37697">
        <ele>276.2</ele>
        <time>2026-08-31T08:58:45Z</time>
      </trkpt>
      <trkpt lat="43.43734" lon="-0.37697">
        <ele>276.2</ele>
        <time>2026-08-31T08:58:45Z</time>
      </trkpt>
      <trkpt lat="43.43735" lon="-0.37698">
        <ele>277.2</ele>
        <time>2026-08-31T08:58:46Z</time>
      </trkpt>
      <trkpt lat="43.43735" lon="-0.37698">
        <ele>277.2</ele>
        <time>2026-08-31T08:58:46Z</time>
      </trkpt>
      <trkpt lat="43.43736" lon="-0.37699">
        <ele>277.2</ele>
        <time>2026-08-31T08:58:47Z</time>
      </trkpt>
      <trkpt lat="43.43736" lon="-0.37699">
        <ele>277.2</ele>
        <time>2026-08-31T08:58:48Z</time>
      </trkpt>
      <trkpt lat="43.43737" lon="-0.377">
        <ele>277.2</ele>
        <time>2026-08-31T08:58:48Z</time>
      </trkpt>
      <trkpt lat="43.43737" lon="-0.37701">
        <ele>277.2</ele>
        <time>2026-08-31T08:58:49Z</time>
      </trkpt>
      <trkpt lat="43.43738" lon="-0.37701">
        <ele>277.2</ele>
        <time>2026-08-31T08:58:49Z</time>
      </trkpt>
      <trkpt lat="43.43738" lon="-0.37702">
        <ele>277.2</ele>
        <time>2026-08-31T08:58:50Z</time>
      </trkpt>
      <trkpt lat="43.43739" lon="-0.37702">
        <ele>277.2</ele>
        <time>2026-08-31T08:58:50Z</time>
      </trkpt>
      <trkpt lat="43.43739" lon="-0.37703">
        <ele>277.2</ele>
        <time>2026-08-31T08:58:51Z</time>
      </trkpt>
      <trkpt lat="43.4374" lon="-0.37704">
        <ele>277.2</ele>
        <time>2026-08-31T08:58:51Z</time>
      </trkpt>
      <trkpt lat="43.4374" lon="-0.37704">
        <ele>276.2</ele>
        <time>2026-08-31T08:58:52Z</time>
      </trkpt>
      <trkpt lat="43.4374" lon="-0.37705">
        <ele>276.2</ele>
        <time>2026-08-31T08:58:52Z</time>
      </trkpt>
      <trkpt lat="43.43741" lon="-0.37706">
        <ele>276.2</ele>
        <time>2026-08-31T08:58:53Z</time>
      </trkpt>
      <trkpt lat="43.43741" lon="-0.37706">
        <ele>276.2</ele>
        <time>2026-08-31T08:58:53Z</time>
      </trkpt>
      <trkpt lat="43.43742" lon="-0.37707">
        <ele>276.2</ele>
        <time>2026-08-31T08:58:54Z</time>
      </trkpt>
      <trkpt lat="43.43742" lon="-0.37707">
        <ele>276.2</ele>
        <time>2026-08-31T08:58:54Z</time>
      </trkpt>
      <trkpt lat="43.43743" lon="-0.37708">
        <ele>276.2</ele>
        <time>2026-08-31T08:58:55Z</time>
      </trkpt>
      <trkpt lat="43.43743" lon="-0.37708">
        <ele>276.2</ele>
        <time>2026-08-31T08:58:55Z</time>
      </trkpt>
      <trkpt lat="43.43743" lon="-0.37709">
        <ele>276.2</ele>
        <time>2026-08-31T08:58:56Z</time>
      </trkpt>
      <trkpt lat="43.43744" lon="-0.37709">
        <ele>276.2</ele>
        <time>2026-08-31T08:58:57Z</time>
      </trkpt>
      <trkpt lat="43.43744" lon="-0.3771">
        <ele>275.2</ele>
        <time>2026-08-31T08:58:57Z</time>
      </trkpt>
      <trkpt lat="43.43745" lon="-0.37711">
        <ele>275.2</ele>
        <time>2026-08-31T08:58:58Z</time>
      </trkpt>
      <trkpt lat="43.43745" lon="-0.37711">
        <ele>276.2</ele>
        <time>2026-08-31T08:58:58Z</time>
      </trkpt>
      <trkpt lat="43.43746" lon="-0.37712">
        <ele>276.2</ele>
        <time>2026-08-31T08:58:59Z</time>
      </trkpt>
      <trkpt lat="43.43746" lon="-0.37713">
        <ele>275.2</ele>
        <time>2026-08-31T08:58:59Z</time>
      </trkpt>
      <trkpt lat="43.43747" lon="-0.37713">
        <ele>275.2</ele>
        <time>2026-08-31T08:59:00Z</time>
      </trkpt>
      <trkpt lat="43.43747" lon="-0.37714">
        <ele>275.2</ele>
        <time>2026-08-31T08:59:00Z</time>
      </trkpt>
      <trkpt lat="43.43748" lon="-0.37714">
        <ele>274.2</ele>
        <time>2026-08-31T08:59:01Z</time>
      </trkpt>
      <trkpt lat="43.43748" lon="-0.37715">
        <ele>274.2</ele>
        <time>2026-08-31T08:59:01Z</time>
      </trkpt>
      <trkpt lat="43.43748" lon="-0.37715">
        <ele>274.2</ele>
        <time>2026-08-31T08:59:02Z</time>
      </trkpt>
      <trkpt lat="43.43749" lon="-0.37716">
        <ele>274.2</ele>
        <time>2026-08-31T08:59:02Z</time>
      </trkpt>
      <trkpt lat="43.43749" lon="-0.37716">
        <ele>274.2</ele>
        <time>2026-08-31T08:59:03Z</time>
      </trkpt>
      <trkpt lat="43.4375" lon="-0.37717">
        <ele>274.2</ele>
        <time>2026-08-31T08:59:03Z</time>
      </trkpt>
      <trkpt lat="43.4375" lon="-0.37717">
        <ele>274.2</ele>
        <time>2026-08-31T08:59:04Z</time>
      </trkpt>
      <trkpt lat="43.43751" lon="-0.37718">
        <ele>274.2</ele>
        <time>2026-08-31T08:59:04Z</time>
      </trkpt>
      <trkpt lat="43.43751" lon="-0.37719">
        <ele>275.2</ele>
        <time>2026-08-31T08:59:05Z</time>
      </trkpt>
      <trkpt lat="43.43752" lon="-0.37719">
        <ele>275.2</ele>
        <time>2026-08-31T08:59:05Z</time>
      </trkpt>
      <trkpt lat="43.43753" lon="-0.3772">
        <ele>275.2</ele>
        <time>2026-08-31T08:59:06Z</time>
      </trkpt>
      <trkpt lat="43.43753" lon="-0.3772">
        <ele>275.2</ele>
        <time>2026-08-31T08:59:07Z</time>
      </trkpt>
      <trkpt lat="43.43754" lon="-0.37721">
        <ele>275.2</ele>
        <time>2026-08-31T08:59:07Z</time>
      </trkpt>
      <trkpt lat="43.43754" lon="-0.37721">
        <ele>275.2</ele>
        <time>2026-08-31T08:59:08Z</time>
      </trkpt>
      <trkpt lat="43.43755" lon="-0.37722">
        <ele>275.2</ele>
        <time>2026-08-31T08:59:08Z</time>
      </trkpt>
      <trkpt lat="43.43756" lon="-0.37722">
        <ele>275.2</ele>
        <time>2026-08-31T08:59:09Z</time>
      </trkpt>
      <trkpt lat="43.43756" lon="-0.37723">
        <ele>274.2</ele>
        <time>2026-08-31T08:59:09Z</time>
      </trkpt>
      <trkpt lat="43.43757" lon="-0.37723">
        <ele>274.2</ele>
        <time>2026-08-31T08:59:10Z</time>
      </trkpt>
      <trkpt lat="43.43757" lon="-0.37723">
        <ele>274.2</ele>
        <time>2026-08-31T08:59:10Z</time>
      </trkpt>
      <trkpt lat="43.43758" lon="-0.37724">
        <ele>274.2</ele>
        <time>2026-08-31T08:59:11Z</time>
      </trkpt>
      <trkpt lat="43.43759" lon="-0.37724">
        <ele>274.2</ele>
        <time>2026-08-31T08:59:11Z</time>
      </trkpt>
      <trkpt lat="43.43759" lon="-0.37725">
        <ele>275.2</ele>
        <time>2026-08-31T08:59:12Z</time>
      </trkpt>
      <trkpt lat="43.4376" lon="-0.37725">
        <ele>275.2</ele>
        <time>2026-08-31T08:59:12Z</time>
      </trkpt>
      <trkpt lat="43.4376" lon="-0.37725">
        <ele>274.2</ele>
        <time>2026-08-31T08:59:13Z</time>
      </trkpt>
      <trkpt lat="43.43761" lon="-0.37726">
        <ele>274.2</ele>
        <time>2026-08-31T08:59:13Z</time>
      </trkpt>
      <trkpt lat="43.43761" lon="-0.37726">
        <ele>274.2</ele>
        <time>2026-08-31T08:59:14Z</time>
      </trkpt>
      <trkpt lat="43.43762" lon="-0.37727">
        <ele>274.2</ele>
        <time>2026-08-31T08:59:14Z</time>
      </trkpt>
      <trkpt lat="43.43763" lon="-0.37727">
        <ele>274.2</ele>
        <time>2026-08-31T08:59:15Z</time>
      </trkpt>
      <trkpt lat="43.43763" lon="-0.37728">
        <ele>274.2</ele>
        <time>2026-08-31T08:59:16Z</time>
      </trkpt>
      <trkpt lat="43.43764" lon="-0.37728">
        <ele>274.2</ele>
        <time>2026-08-31T08:59:16Z</time>
      </trkpt>
      <trkpt lat="43.43764" lon="-0.37729">
        <ele>274.2</ele>
        <time>2026-08-31T08:59:17Z</time>
      </trkpt>
      <trkpt lat="43.43765" lon="-0.37729">
        <ele>274.2</ele>
        <time>2026-08-31T08:59:17Z</time>
      </trkpt>
      <trkpt lat="43.43766" lon="-0.3773">
        <ele>274.2</ele>
        <time>2026-08-31T08:59:18Z</time>
      </trkpt>
      <trkpt lat="43.43766" lon="-0.3773">
        <ele>274.2</ele>
        <time>2026-08-31T08:59:18Z</time>
      </trkpt>
      <trkpt lat="43.43767" lon="-0.37731">
        <ele>275.2</ele>
        <time>2026-08-31T08:59:19Z</time>
      </trkpt>
      <trkpt lat="43.43768" lon="-0.37731">
        <ele>275.2</ele>
        <time>2026-08-31T08:59:19Z</time>
      </trkpt>
      <trkpt lat="43.43768" lon="-0.37731">
        <ele>275.2</ele>
        <time>2026-08-31T08:59:20Z</time>
      </trkpt>
      <trkpt lat="43.43769" lon="-0.37732">
        <ele>275.2</ele>
        <time>2026-08-31T08:59:20Z</time>
      </trkpt>
      <trkpt lat="43.43769" lon="-0.37732">
        <ele>275.2</ele>
        <time>2026-08-31T08:59:21Z</time>
      </trkpt>
      <trkpt lat="43.4377" lon="-0.37733">
        <ele>275.2</ele>
        <time>2026-08-31T08:59:21Z</time>
      </trkpt>
      <trkpt lat="43.43771" lon="-0.37733">
        <ele>275.2</ele>
        <time>2026-08-31T08:59:22Z</time>
      </trkpt>
      <trkpt lat="43.43771" lon="-0.37734">
        <ele>275.2</ele>
        <time>2026-08-31T08:59:22Z</time>
      </trkpt>
      <trkpt lat="43.43772" lon="-0.37734">
        <ele>276.2</ele>
        <time>2026-08-31T08:59:23Z</time>
      </trkpt>
      <trkpt lat="43.43772" lon="-0.37735">
        <ele>276.2</ele>
        <time>2026-08-31T08:59:24Z</time>
      </trkpt>
      <trkpt lat="43.43773" lon="-0.37735">
        <ele>276.2</ele>
        <time>2026-08-31T08:59:24Z</time>
      </trkpt>
      <trkpt lat="43.43774" lon="-0.37736">
        <ele>276.2</ele>
        <time>2026-08-31T08:59:25Z</time>
      </trkpt>
      <trkpt lat="43.43774" lon="-0.37736">
        <ele>275.2</ele>
        <time>2026-08-31T08:59:25Z</time>
      </trkpt>
      <trkpt lat="43.43775" lon="-0.37737">
        <ele>275.2</ele>
        <time>2026-08-31T08:59:26Z</time>
      </trkpt>
      <trkpt lat="43.43775" lon="-0.37738">
        <ele>275.2</ele>
        <time>2026-08-31T08:59:26Z</time>
      </trkpt>
      <trkpt lat="43.43776" lon="-0.37738">
        <ele>275.2</ele>
        <time>2026-08-31T08:59:27Z</time>
      </trkpt>
      <trkpt lat="43.43776" lon="-0.37739">
        <ele>275.2</ele>
        <time>2026-08-31T08:59:27Z</time>
      </trkpt>
      <trkpt lat="43.43777" lon="-0.37739">
        <ele>274.2</ele>
        <time>2026-08-31T08:59:28Z</time>
      </trkpt>
      <trkpt lat="43.43777" lon="-0.3774">
        <ele>274.2</ele>
        <time>2026-08-31T08:59:28Z</time>
      </trkpt>
      <trkpt lat="43.43778" lon="-0.3774">
        <ele>275.2</ele>
        <time>2026-08-31T08:59:29Z</time>
      </trkpt>
      <trkpt lat="43.43778" lon="-0.37741">
        <ele>275.2</ele>
        <time>2026-08-31T08:59:29Z</time>
      </trkpt>
      <trkpt lat="43.43779" lon="-0.37742">
        <ele>274.2</ele>
        <time>2026-08-31T08:59:30Z</time>
      </trkpt>
      <trkpt lat="43.43779" lon="-0.37742">
        <ele>274.2</ele>
        <time>2026-08-31T08:59:30Z</time>
      </trkpt>
      <trkpt lat="43.43779" lon="-0.37743">
        <ele>274.2</ele>
        <time>2026-08-31T08:59:31Z</time>
      </trkpt>
      <trkpt lat="43.4378" lon="-0.37743">
        <ele>274.2</ele>
        <time>2026-08-31T08:59:31Z</time>
      </trkpt>
      <trkpt lat="43.4378" lon="-0.37744">
        <ele>274.2</ele>
        <time>2026-08-31T08:59:32Z</time>
      </trkpt>
      <trkpt lat="43.43781" lon="-0.37745">
        <ele>274.2</ele>
        <time>2026-08-31T08:59:33Z</time>
      </trkpt>
      <trkpt lat="43.43781" lon="-0.37745">
        <ele>274.2</ele>
        <time>2026-08-31T08:59:33Z</time>
      </trkpt>
      <trkpt lat="43.43782" lon="-0.37746">
        <ele>274.2</ele>
        <time>2026-08-31T08:59:34Z</time>
      </trkpt>
      <trkpt lat="43.43782" lon="-0.37746">
        <ele>274.2</ele>
        <time>2026-08-31T08:59:34Z</time>
      </trkpt>
      <trkpt lat="43.43783" lon="-0.37747">
        <ele>274.2</ele>
        <time>2026-08-31T08:59:35Z</time>
      </trkpt>
      <trkpt lat="43.43783" lon="-0.37747">
        <ele>274.2</ele>
        <time>2026-08-31T08:59:35Z</time>
      </trkpt>
      <trkpt lat="43.43784" lon="-0.37748">
        <ele>274.2</ele>
        <time>2026-08-31T08:59:36Z</time>
      </trkpt>
      <trkpt lat="43.43785" lon="-0.37748">
        <ele>274.2</ele>
        <time>2026-08-31T08:59:36Z</time>
      </trkpt>
      <trkpt lat="43.43785" lon="-0.37749">
        <ele>274.2</ele>
        <time>2026-08-31T08:59:37Z</time>
      </trkpt>
      <trkpt lat="43.43786" lon="-0.3775">
        <ele>274.2</ele>
        <time>2026-08-31T08:59:37Z</time>
      </trkpt>
      <trkpt lat="43.43787" lon="-0.3775">
        <ele>275.2</ele>
        <time>2026-08-31T08:59:38Z</time>
      </trkpt>
      <trkpt lat="43.43787" lon="-0.37751">
        <ele>275.2</ele>
        <time>2026-08-31T08:59:38Z</time>
      </trkpt>
      <trkpt lat="43.43788" lon="-0.37752">
        <ele>275.2</ele>
        <time>2026-08-31T08:59:39Z</time>
      </trkpt>
      <trkpt lat="43.43788" lon="-0.37753">
        <ele>275.2</ele>
        <time>2026-08-31T08:59:39Z</time>
      </trkpt>
      <trkpt lat="43.43789" lon="-0.37753">
        <ele>275.2</ele>
        <time>2026-08-31T08:59:40Z</time>
      </trkpt>
      <trkpt lat="43.43789" lon="-0.37754">
        <ele>275.2</ele>
        <time>2026-08-31T08:59:41Z</time>
      </trkpt>
      <trkpt lat="43.4379" lon="-0.37755">
        <ele>275.2</ele>
        <time>2026-08-31T08:59:41Z</time>
      </trkpt>
      <trkpt lat="43.43791" lon="-0.37755">
        <ele>275.2</ele>
        <time>2026-08-31T08:59:42Z</time>
      </trkpt>
      <trkpt lat="43.43791" lon="-0.37756">
        <ele>275.2</ele>
        <time>2026-08-31T08:59:42Z</time>
      </trkpt>
      <trkpt lat="43.43792" lon="-0.37756">
        <ele>274.2</ele>
        <time>2026-08-31T08:59:43Z</time>
      </trkpt>
      <trkpt lat="43.43792" lon="-0.37756">
        <ele>274.2</ele>
        <time>2026-08-31T08:59:43Z</time>
      </trkpt>
      <trkpt lat="43.43793" lon="-0.37757">
        <ele>275.2</ele>
        <time>2026-08-31T08:59:44Z</time>
      </trkpt>
      <trkpt lat="43.43794" lon="-0.37757">
        <ele>275.2</ele>
        <time>2026-08-31T08:59:44Z</time>
      </trkpt>
      <trkpt lat="43.43794" lon="-0.37758">
        <ele>275.2</ele>
        <time>2026-08-31T08:59:45Z</time>
      </trkpt>
      <trkpt lat="43.43795" lon="-0.37758">
        <ele>275.2</ele>
        <time>2026-08-31T08:59:45Z</time>
      </trkpt>
      <trkpt lat="43.43796" lon="-0.37758">
        <ele>275.2</ele>
        <time>2026-08-31T08:59:46Z</time>
      </trkpt>
      <trkpt lat="43.43796" lon="-0.37759">
        <ele>275.2</ele>
        <time>2026-08-31T08:59:46Z</time>
      </trkpt>
      <trkpt lat="43.43797" lon="-0.37759">
        <ele>275.2</ele>
        <time>2026-08-31T08:59:47Z</time>
      </trkpt>
      <trkpt lat="43.43798" lon="-0.37759">
        <ele>275.2</ele>
        <time>2026-08-31T08:59:48Z</time>
      </trkpt>
      <trkpt lat="43.43798" lon="-0.3776">
        <ele>275.2</ele>
        <time>2026-08-31T08:59:48Z</time>
      </trkpt>
      <trkpt lat="43.43799" lon="-0.3776">
        <ele>275.2</ele>
        <time>2026-08-31T08:59:49Z</time>
      </trkpt>
      <trkpt lat="43.43799" lon="-0.37761">
        <ele>275.2</ele>
        <time>2026-08-31T08:59:49Z</time>
      </trkpt>
      <trkpt lat="43.438" lon="-0.37761">
        <ele>275.2</ele>
        <time>2026-08-31T08:59:50Z</time>
      </trkpt>
      <trkpt lat="43.43801" lon="-0.37761">
        <ele>275.2</ele>
        <time>2026-08-31T08:59:50Z</time>
      </trkpt>
      <trkpt lat="43.43801" lon="-0.37762">
        <ele>276.2</ele>
        <time>2026-08-31T08:59:51Z</time>
      </trkpt>
      <trkpt lat="43.43802" lon="-0.37762">
        <ele>276.2</ele>
        <time>2026-08-31T08:59:51Z</time>
      </trkpt>
      <trkpt lat="43.43802" lon="-0.37763">
        <ele>276.2</ele>
        <time>2026-08-31T08:59:52Z</time>
      </trkpt>
      <trkpt lat="43.43803" lon="-0.37763">
        <ele>276.2</ele>
        <time>2026-08-31T08:59:52Z</time>
      </trkpt>
      <trkpt lat="43.43804" lon="-0.37764">
        <ele>277.2</ele>
        <time>2026-08-31T08:59:53Z</time>
      </trkpt>
      <trkpt lat="43.43804" lon="-0.37764">
        <ele>277.2</ele>
        <time>2026-08-31T08:59:53Z</time>
      </trkpt>
      <trkpt lat="43.43805" lon="-0.37765">
        <ele>277.2</ele>
        <time>2026-08-31T08:59:54Z</time>
      </trkpt>
      <trkpt lat="43.43805" lon="-0.37765">
        <ele>277.2</ele>
        <time>2026-08-31T08:59:54Z</time>
      </trkpt>
      <trkpt lat="43.43806" lon="-0.37766">
        <ele>276.2</ele>
        <time>2026-08-31T08:59:55Z</time>
      </trkpt>
      <trkpt lat="43.43806" lon="-0.37766">
        <ele>276.2</ele>
        <time>2026-08-31T08:59:56Z</time>
      </trkpt>
      <trkpt lat="43.43807" lon="-0.37767">
        <ele>276.2</ele>
        <time>2026-08-31T08:59:56Z</time>
      </trkpt>
      <trkpt lat="43.43808" lon="-0.37768">
        <ele>276.2</ele>
        <time>2026-08-31T08:59:57Z</time>
      </trkpt>
      <trkpt lat="43.43808" lon="-0.37769">
        <ele>276.2</ele>
        <time>2026-08-31T08:59:57Z</time>
      </trkpt>
      <trkpt lat="43.43809" lon="-0.37769">
        <ele>276.2</ele>
        <time>2026-08-31T08:59:58Z</time>
      </trkpt>
      <trkpt lat="43.43809" lon="-0.3777">
        <ele>276.2</ele>
        <time>2026-08-31T08:59:58Z</time>
      </trkpt>
      <trkpt lat="43.4381" lon="-0.3777">
        <ele>276.2</ele>
        <time>2026-08-31T08:59:59Z</time>
      </trkpt>
      <trkpt lat="43.4381" lon="-0.37771">
        <ele>276.2</ele>
        <time>2026-08-31T08:59:59Z</time>
      </trkpt>
      <trkpt lat="43.43811" lon="-0.37772">
        <ele>276.2</ele>
        <time>2026-08-31T09:00:00Z</time>
      </trkpt>
      <trkpt lat="43.43811" lon="-0.37772">
        <ele>276.2</ele>
        <time>2026-08-31T09:00:00Z</time>
      </trkpt>
      <trkpt lat="43.43812" lon="-0.37773">
        <ele>276.2</ele>
        <time>2026-08-31T09:00:01Z</time>
      </trkpt>
      <trkpt lat="43.43812" lon="-0.37773">
        <ele>276.2</ele>
        <time>2026-08-31T09:00:01Z</time>
      </trkpt>
      <trkpt lat="43.43813" lon="-0.37774">
        <ele>276.2</ele>
        <time>2026-08-31T09:00:02Z</time>
      </trkpt>
      <trkpt lat="43.43814" lon="-0.37774">
        <ele>276.2</ele>
        <time>2026-08-31T09:00:02Z</time>
      </trkpt>
      <trkpt lat="43.43814" lon="-0.37775">
        <ele>276.2</ele>
        <time>2026-08-31T09:00:03Z</time>
      </trkpt>
      <trkpt lat="43.43815" lon="-0.37776">
        <ele>276.2</ele>
        <time>2026-08-31T09:00:04Z</time>
      </trkpt>
      <trkpt lat="43.43815" lon="-0.37776">
        <ele>276.2</ele>
        <time>2026-08-31T09:00:04Z</time>
      </trkpt>
      <trkpt lat="43.43816" lon="-0.37777">
        <ele>276.2</ele>
        <time>2026-08-31T09:00:05Z</time>
      </trkpt>
      <trkpt lat="43.43816" lon="-0.37777">
        <ele>276.2</ele>
        <time>2026-08-31T09:00:05Z</time>
      </trkpt>
      <trkpt lat="43.43817" lon="-0.37778">
        <ele>276.2</ele>
        <time>2026-08-31T09:00:06Z</time>
      </trkpt>
      <trkpt lat="43.43817" lon="-0.37778">
        <ele>276.2</ele>
        <time>2026-08-31T09:00:06Z</time>
      </trkpt>
      <trkpt lat="43.43818" lon="-0.37778">
        <ele>276.2</ele>
        <time>2026-08-31T09:00:07Z</time>
      </trkpt>
      <trkpt lat="43.43818" lon="-0.37778">
        <ele>276.2</ele>
        <time>2026-08-31T09:00:07Z</time>
      </trkpt>
      <trkpt lat="43.43819" lon="-0.37779">
        <ele>276.2</ele>
        <time>2026-08-31T09:00:08Z</time>
      </trkpt>
      <trkpt lat="43.4382" lon="-0.37779">
        <ele>276.2</ele>
        <time>2026-08-31T09:00:08Z</time>
      </trkpt>
      <trkpt lat="43.4382" lon="-0.37779">
        <ele>276.2</ele>
        <time>2026-08-31T09:00:09Z</time>
      </trkpt>
      <trkpt lat="43.43821" lon="-0.3778">
        <ele>276.2</ele>
        <time>2026-08-31T09:00:09Z</time>
      </trkpt>
      <trkpt lat="43.43822" lon="-0.3778">
        <ele>276.2</ele>
        <time>2026-08-31T09:00:10Z</time>
      </trkpt>
      <trkpt lat="43.43822" lon="-0.37781">
        <ele>276.2</ele>
        <time>2026-08-31T09:00:10Z</time>
      </trkpt>
      <trkpt lat="43.43823" lon="-0.37781">
        <ele>277.2</ele>
        <time>2026-08-31T09:00:11Z</time>
      </trkpt>
      <trkpt lat="43.43823" lon="-0.37781">
        <ele>277.2</ele>
        <time>2026-08-31T09:00:11Z</time>
      </trkpt>
      <trkpt lat="43.43824" lon="-0.37782">
        <ele>276.2</ele>
        <time>2026-08-31T09:00:12Z</time>
      </trkpt>
      <trkpt lat="43.43824" lon="-0.37782">
        <ele>276.2</ele>
        <time>2026-08-31T09:00:12Z</time>
      </trkpt>
      <trkpt lat="43.43825" lon="-0.37783">
        <ele>277.2</ele>
        <time>2026-08-31T09:00:13Z</time>
      </trkpt>
      <trkpt lat="43.43826" lon="-0.37783">
        <ele>277.2</ele>
        <time>2026-08-31T09:00:14Z</time>
      </trkpt>
      <trkpt lat="43.43826" lon="-0.37783">
        <ele>277.2</ele>
        <time>2026-08-31T09:00:14Z</time>
      </trkpt>
      <trkpt lat="43.43827" lon="-0.37784">
        <ele>277.2</ele>
        <time>2026-08-31T09:00:15Z</time>
      </trkpt>
      <trkpt lat="43.43827" lon="-0.37784">
        <ele>277.2</ele>
        <time>2026-08-31T09:00:15Z</time>
      </trkpt>
      <trkpt lat="43.43828" lon="-0.37785">
        <ele>277.2</ele>
        <time>2026-08-31T09:00:16Z</time>
      </trkpt>
      <trkpt lat="43.43828" lon="-0.37785">
        <ele>276.2</ele>
        <time>2026-08-31T09:00:16Z</time>
      </trkpt>
      <trkpt lat="43.43829" lon="-0.37786">
        <ele>276.2</ele>
        <time>2026-08-31T09:00:17Z</time>
      </trkpt>
      <trkpt lat="43.43829" lon="-0.37786">
        <ele>276.2</ele>
        <time>2026-08-31T09:00:17Z</time>
      </trkpt>
      <trkpt lat="43.4383" lon="-0.37787">
        <ele>276.2</ele>
        <time>2026-08-31T09:00:18Z</time>
      </trkpt>
      <trkpt lat="43.4383" lon="-0.37787">
        <ele>276.2</ele>
        <time>2026-08-31T09:00:18Z</time>
      </trkpt>
      <trkpt lat="43.43831" lon="-0.37788">
        <ele>276.2</ele>
        <time>2026-08-31T09:00:19Z</time>
      </trkpt>
      <trkpt lat="43.43831" lon="-0.37788">
        <ele>276.2</ele>
        <time>2026-08-31T09:00:19Z</time>
      </trkpt>
      <trkpt lat="43.43832" lon="-0.37789">
        <ele>276.2</ele>
        <time>2026-08-31T09:00:20Z</time>
      </trkpt>
      <trkpt lat="43.43832" lon="-0.3779">
        <ele>276.2</ele>
        <time>2026-08-31T09:00:20Z</time>
      </trkpt>
      <trkpt lat="43.43832" lon="-0.3779">
        <ele>276.2</ele>
        <time>2026-08-31T09:00:21Z</time>
      </trkpt>
      <trkpt lat="43.43833" lon="-0.37791">
        <ele>276.2</ele>
        <time>2026-08-31T09:00:21Z</time>
      </trkpt>
      <trkpt lat="43.43833" lon="-0.37791">
        <ele>276.2</ele>
        <time>2026-08-31T09:00:22Z</time>
      </trkpt>
      <trkpt lat="43.43834" lon="-0.37792">
        <ele>276.2</ele>
        <time>2026-08-31T09:00:23Z</time>
      </trkpt>
      <trkpt lat="43.43835" lon="-0.37792">
        <ele>276.2</ele>
        <time>2026-08-31T09:00:23Z</time>
      </trkpt>
      <trkpt lat="43.43835" lon="-0.37793">
        <ele>276.2</ele>
        <time>2026-08-31T09:00:24Z</time>
      </trkpt>
      <trkpt lat="43.43836" lon="-0.37793">
        <ele>277.2</ele>
        <time>2026-08-31T09:00:24Z</time>
      </trkpt>
      <trkpt lat="43.43836" lon="-0.37793">
        <ele>277.2</ele>
        <time>2026-08-31T09:00:25Z</time>
      </trkpt>
      <trkpt lat="43.43837" lon="-0.37794">
        <ele>277.2</ele>
        <time>2026-08-31T09:00:25Z</time>
      </trkpt>
      <trkpt lat="43.43838" lon="-0.37794">
        <ele>277.2</ele>
        <time>2026-08-31T09:00:26Z</time>
      </trkpt>
      <trkpt lat="43.43838" lon="-0.37794">
        <ele>277.2</ele>
        <time>2026-08-31T09:00:26Z</time>
      </trkpt>
      <trkpt lat="43.43839" lon="-0.37795">
        <ele>277.2</ele>
        <time>2026-08-31T09:00:27Z</time>
      </trkpt>
      <trkpt lat="43.43839" lon="-0.37795">
        <ele>277.2</ele>
        <time>2026-08-31T09:00:27Z</time>
      </trkpt>
      <trkpt lat="43.4384" lon="-0.37795">
        <ele>277.2</ele>
        <time>2026-08-31T09:00:28Z</time>
      </trkpt>
      <trkpt lat="43.43841" lon="-0.37796">
        <ele>277.2</ele>
        <time>2026-08-31T09:00:28Z</time>
      </trkpt>
      <trkpt lat="43.43842" lon="-0.37796">
        <ele>277.2</ele>
        <time>2026-08-31T09:00:29Z</time>
      </trkpt>
      <trkpt lat="43.43842" lon="-0.37797">
        <ele>277.2</ele>
        <time>2026-08-31T09:00:29Z</time>
      </trkpt>
      <trkpt lat="43.43843" lon="-0.37797">
        <ele>277.2</ele>
        <time>2026-08-31T09:00:30Z</time>
      </trkpt>
      <trkpt lat="43.43843" lon="-0.37798">
        <ele>277.2</ele>
        <time>2026-08-31T09:00:30Z</time>
      </trkpt>
      <trkpt lat="43.43844" lon="-0.37798">
        <ele>277.2</ele>
        <time>2026-08-31T09:00:31Z</time>
      </trkpt>
      <trkpt lat="43.43845" lon="-0.37798">
        <ele>277.2</ele>
        <time>2026-08-31T09:00:31Z</time>
      </trkpt>
      <trkpt lat="43.43846" lon="-0.37799">
        <ele>277.2</ele>
        <time>2026-08-31T09:00:32Z</time>
      </trkpt>
      <trkpt lat="43.43846" lon="-0.378">
        <ele>277.2</ele>
        <time>2026-08-31T09:00:33Z</time>
      </trkpt>
      <trkpt lat="43.43847" lon="-0.378">
        <ele>277.2</ele>
        <time>2026-08-31T09:00:33Z</time>
      </trkpt>
      <trkpt lat="43.43848" lon="-0.37801">
        <ele>277.2</ele>
        <time>2026-08-31T09:00:34Z</time>
      </trkpt>
      <trkpt lat="43.43848" lon="-0.37801">
        <ele>276.2</ele>
        <time>2026-08-31T09:00:34Z</time>
      </trkpt>
      <trkpt lat="43.43849" lon="-0.37802">
        <ele>276.2</ele>
        <time>2026-08-31T09:00:35Z</time>
      </trkpt>
      <trkpt lat="43.4385" lon="-0.37803">
        <ele>277.2</ele>
        <time>2026-08-31T09:00:35Z</time>
      </trkpt>
      <trkpt lat="43.4385" lon="-0.37803">
        <ele>277.2</ele>
        <time>2026-08-31T09:00:36Z</time>
      </trkpt>
      <trkpt lat="43.43851" lon="-0.37804">
        <ele>277.2</ele>
        <time>2026-08-31T09:00:36Z</time>
      </trkpt>
      <trkpt lat="43.43851" lon="-0.37805">
        <ele>277.2</ele>
        <time>2026-08-31T09:00:37Z</time>
      </trkpt>
      <trkpt lat="43.43852" lon="-0.37806">
        <ele>277.2</ele>
        <time>2026-08-31T09:00:37Z</time>
      </trkpt>
      <trkpt lat="43.43853" lon="-0.37806">
        <ele>277.2</ele>
        <time>2026-08-31T09:00:38Z</time>
      </trkpt>
      <trkpt lat="43.43853" lon="-0.37807">
        <ele>277.2</ele>
        <time>2026-08-31T09:00:38Z</time>
      </trkpt>
      <trkpt lat="43.43854" lon="-0.37808">
        <ele>277.2</ele>
        <time>2026-08-31T09:00:39Z</time>
      </trkpt>
      <trkpt lat="43.43854" lon="-0.37809">
        <ele>277.2</ele>
        <time>2026-08-31T09:00:39Z</time>
      </trkpt>
      <trkpt lat="43.43855" lon="-0.3781">
        <ele>277.2</ele>
        <time>2026-08-31T09:00:40Z</time>
      </trkpt>
      <trkpt lat="43.43855" lon="-0.3781">
        <ele>277.2</ele>
        <time>2026-08-31T09:00:40Z</time>
      </trkpt>
      <trkpt lat="43.43856" lon="-0.37811">
        <ele>277.2</ele>
        <time>2026-08-31T09:00:41Z</time>
      </trkpt>
      <trkpt lat="43.43856" lon="-0.37812">
        <ele>277.2</ele>
        <time>2026-08-31T09:00:41Z</time>
      </trkpt>
      <trkpt lat="43.43857" lon="-0.37813">
        <ele>276.2</ele>
        <time>2026-08-31T09:00:42Z</time>
      </trkpt>
      <trkpt lat="43.43857" lon="-0.37814">
        <ele>276.2</ele>
        <time>2026-08-31T09:00:43Z</time>
      </trkpt>
      <trkpt lat="43.43858" lon="-0.37815">
        <ele>276.2</ele>
        <time>2026-08-31T09:00:43Z</time>
      </trkpt>
      <trkpt lat="43.43858" lon="-0.37815">
        <ele>276.2</ele>
        <time>2026-08-31T09:00:44Z</time>
      </trkpt>
      <trkpt lat="43.43859" lon="-0.37816">
        <ele>276.2</ele>
        <time>2026-08-31T09:00:44Z</time>
      </trkpt>
      <trkpt lat="43.43859" lon="-0.37817">
        <ele>276.2</ele>
        <time>2026-08-31T09:00:45Z</time>
      </trkpt>
      <trkpt lat="43.4386" lon="-0.37818">
        <ele>277.2</ele>
        <time>2026-08-31T09:00:45Z</time>
      </trkpt>
      <trkpt lat="43.4386" lon="-0.37819">
        <ele>277.2</ele>
        <time>2026-08-31T09:00:46Z</time>
      </trkpt>
      <trkpt lat="43.4386" lon="-0.37819">
        <ele>277.2</ele>
        <time>2026-08-31T09:00:46Z</time>
      </trkpt>
      <trkpt lat="43.43861" lon="-0.3782">
        <ele>277.2</ele>
        <time>2026-08-31T09:00:47Z</time>
      </trkpt>
      <trkpt lat="43.43861" lon="-0.37821">
        <ele>277.2</ele>
        <time>2026-08-31T09:00:47Z</time>
      </trkpt>
      <trkpt lat="43.43862" lon="-0.37822">
        <ele>276.2</ele>
        <time>2026-08-31T09:00:48Z</time>
      </trkpt>
      <trkpt lat="43.43862" lon="-0.37823">
        <ele>276.2</ele>
        <time>2026-08-31T09:00:48Z</time>
      </trkpt>
      <trkpt lat="43.43863" lon="-0.37824">
        <ele>276.2</ele>
        <time>2026-08-31T09:00:49Z</time>
      </trkpt>
      <trkpt lat="43.43863" lon="-0.37825">
        <ele>276.2</ele>
        <time>2026-08-31T09:00:49Z</time>
      </trkpt>
      <trkpt lat="43.43864" lon="-0.37826">
        <ele>277.2</ele>
        <time>2026-08-31T09:00:50Z</time>
      </trkpt>
      <trkpt lat="43.43864" lon="-0.37826">
        <ele>277.2</ele>
        <time>2026-08-31T09:00:51Z</time>
      </trkpt>
      <trkpt lat="43.43864" lon="-0.37827">
        <ele>277.2</ele>
        <time>2026-08-31T09:00:51Z</time>
      </trkpt>
      <trkpt lat="43.43865" lon="-0.37828">
        <ele>277.2</ele>
        <time>2026-08-31T09:00:52Z</time>
      </trkpt>
      <trkpt lat="43.43865" lon="-0.37829">
        <ele>278.2</ele>
        <time>2026-08-31T09:00:52Z</time>
      </trkpt>
      <trkpt lat="43.43865" lon="-0.3783">
        <ele>278.2</ele>
        <time>2026-08-31T09:00:53Z</time>
      </trkpt>
      <trkpt lat="43.43866" lon="-0.37831">
        <ele>278.2</ele>
        <time>2026-08-31T09:00:53Z</time>
      </trkpt>
      <trkpt lat="43.43866" lon="-0.37831">
        <ele>278.2</ele>
        <time>2026-08-31T09:00:54Z</time>
      </trkpt>
      <trkpt lat="43.43867" lon="-0.37832">
        <ele>278.2</ele>
        <time>2026-08-31T09:00:54Z</time>
      </trkpt>
      <trkpt lat="43.43867" lon="-0.37833">
        <ele>278.2</ele>
        <time>2026-08-31T09:00:55Z</time>
      </trkpt>
      <trkpt lat="43.43868" lon="-0.37834">
        <ele>278.2</ele>
        <time>2026-08-31T09:00:55Z</time>
      </trkpt>
      <trkpt lat="43.43868" lon="-0.37835">
        <ele>278.2</ele>
        <time>2026-08-31T09:00:56Z</time>
      </trkpt>
      <trkpt lat="43.43868" lon="-0.37836">
        <ele>278.2</ele>
        <time>2026-08-31T09:00:56Z</time>
      </trkpt>
      <trkpt lat="43.43869" lon="-0.37837">
        <ele>277.2</ele>
        <time>2026-08-31T09:00:57Z</time>
      </trkpt>
      <trkpt lat="43.43869" lon="-0.37838">
        <ele>277.2</ele>
        <time>2026-08-31T09:00:57Z</time>
      </trkpt>
      <trkpt lat="43.43869" lon="-0.37839">
        <ele>278.2</ele>
        <time>2026-08-31T09:00:58Z</time>
      </trkpt>
      <trkpt lat="43.4387" lon="-0.3784">
        <ele>278.2</ele>
        <time>2026-08-31T09:00:58Z</time>
      </trkpt>
      <trkpt lat="43.4387" lon="-0.37841">
        <ele>278.2</ele>
        <time>2026-08-31T09:00:59Z</time>
      </trkpt>
      <trkpt lat="43.43871" lon="-0.37842">
        <ele>278.2</ele>
        <time>2026-08-31T09:00:59Z</time>
      </trkpt>
      <trkpt lat="43.43871" lon="-0.37843">
        <ele>277.2</ele>
        <time>2026-08-31T09:01:00Z</time>
      </trkpt>
      <trkpt lat="43.43871" lon="-0.37844">
        <ele>277.2</ele>
        <time>2026-08-31T09:01:01Z</time>
      </trkpt>
      <trkpt lat="43.43872" lon="-0.37845">
        <ele>277.2</ele>
        <time>2026-08-31T09:01:01Z</time>
      </trkpt>
      <trkpt lat="43.43872" lon="-0.37845">
        <ele>277.2</ele>
        <time>2026-08-31T09:01:02Z</time>
      </trkpt>
      <trkpt lat="43.43873" lon="-0.37846">
        <ele>278.2</ele>
        <time>2026-08-31T09:01:02Z</time>
      </trkpt>
      <trkpt lat="43.43873" lon="-0.37847">
        <ele>278.2</ele>
        <time>2026-08-31T09:01:03Z</time>
      </trkpt>
      <trkpt lat="43.43874" lon="-0.37848">
        <ele>277.2</ele>
        <time>2026-08-31T09:01:03Z</time>
      </trkpt>
      <trkpt lat="43.43874" lon="-0.37848">
        <ele>277.2</ele>
        <time>2026-08-31T09:01:04Z</time>
      </trkpt>
      <trkpt lat="43.43875" lon="-0.37849">
        <ele>277.2</ele>
        <time>2026-08-31T09:01:04Z</time>
      </trkpt>
      <trkpt lat="43.43875" lon="-0.37849">
        <ele>277.2</ele>
        <time>2026-08-31T09:01:05Z</time>
      </trkpt>
      <trkpt lat="43.43876" lon="-0.3785">
        <ele>277.2</ele>
        <time>2026-08-31T09:01:05Z</time>
      </trkpt>
      <trkpt lat="43.43877" lon="-0.37851">
        <ele>277.2</ele>
        <time>2026-08-31T09:01:06Z</time>
      </trkpt>
      <trkpt lat="43.43877" lon="-0.37851">
        <ele>277.2</ele>
        <time>2026-08-31T09:01:06Z</time>
      </trkpt>
      <trkpt lat="43.43878" lon="-0.37852">
        <ele>278.2</ele>
        <time>2026-08-31T09:01:07Z</time>
      </trkpt>
      <trkpt lat="43.43878" lon="-0.37852">
        <ele>278.2</ele>
        <time>2026-08-31T09:01:07Z</time>
      </trkpt>
      <trkpt lat="43.43879" lon="-0.37853">
        <ele>278.2</ele>
        <time>2026-08-31T09:01:08Z</time>
      </trkpt>
      <trkpt lat="43.4388" lon="-0.37853">
        <ele>278.2</ele>
        <time>2026-08-31T09:01:08Z</time>
      </trkpt>
      <trkpt lat="43.4388" lon="-0.37854">
        <ele>278.2</ele>
        <time>2026-08-31T09:01:09Z</time>
      </trkpt>
      <trkpt lat="43.43881" lon="-0.37854">
        <ele>278.2</ele>
        <time>2026-08-31T09:01:09Z</time>
      </trkpt>
      <trkpt lat="43.43882" lon="-0.37855">
        <ele>278.2</ele>
        <time>2026-08-31T09:01:10Z</time>
      </trkpt>
      <trkpt lat="43.43882" lon="-0.37855">
        <ele>278.2</ele>
        <time>2026-08-31T09:01:10Z</time>
      </trkpt>
      <trkpt lat="43.43883" lon="-0.37856">
        <ele>278.2</ele>
        <time>2026-08-31T09:01:11Z</time>
      </trkpt>
      <trkpt lat="43.43883" lon="-0.37856">
        <ele>278.2</ele>
        <time>2026-08-31T09:01:12Z</time>
      </trkpt>
      <trkpt lat="43.43884" lon="-0.37857">
        <ele>279.2</ele>
        <time>2026-08-31T09:01:12Z</time>
      </trkpt>
      <trkpt lat="43.43884" lon="-0.37858">
        <ele>279.2</ele>
        <time>2026-08-31T09:01:13Z</time>
      </trkpt>
      <trkpt lat="43.43885" lon="-0.37858">
        <ele>278.2</ele>
        <time>2026-08-31T09:01:13Z</time>
      </trkpt>
      <trkpt lat="43.43885" lon="-0.37859">
        <ele>278.2</ele>
        <time>2026-08-31T09:01:14Z</time>
      </trkpt>
      <trkpt lat="43.43886" lon="-0.37859">
        <ele>278.2</ele>
        <time>2026-08-31T09:01:14Z</time>
      </trkpt>
      <trkpt lat="43.43887" lon="-0.3786">
        <ele>278.2</ele>
        <time>2026-08-31T09:01:15Z</time>
      </trkpt>
      <trkpt lat="43.43887" lon="-0.3786">
        <ele>278.2</ele>
        <time>2026-08-31T09:01:15Z</time>
      </trkpt>
      <trkpt lat="43.43888" lon="-0.37861">
        <ele>278.2</ele>
        <time>2026-08-31T09:01:16Z</time>
      </trkpt>
      <trkpt lat="43.43888" lon="-0.37861">
        <ele>278.2</ele>
        <time>2026-08-31T09:01:16Z</time>
      </trkpt>
      <trkpt lat="43.43889" lon="-0.37861">
        <ele>277.2</ele>
        <time>2026-08-31T09:01:17Z</time>
      </trkpt>
      <trkpt lat="43.4389" lon="-0.37862">
        <ele>277.2</ele>
        <time>2026-08-31T09:01:17Z</time>
      </trkpt>
      <trkpt lat="43.4389" lon="-0.37862">
        <ele>277.2</ele>
        <time>2026-08-31T09:01:18Z</time>
      </trkpt>
      <trkpt lat="43.43891" lon="-0.37862">
        <ele>277.2</ele>
        <time>2026-08-31T09:01:18Z</time>
      </trkpt>
      <trkpt lat="43.43892" lon="-0.37863">
        <ele>277.2</ele>
        <time>2026-08-31T09:01:19Z</time>
      </trkpt>
      <trkpt lat="43.43892" lon="-0.37863">
        <ele>277.2</ele>
        <time>2026-08-31T09:01:19Z</time>
      </trkpt>
      <trkpt lat="43.43893" lon="-0.37863">
        <ele>276.2</ele>
        <time>2026-08-31T09:01:20Z</time>
      </trkpt>
      <trkpt lat="43.43894" lon="-0.37863">
        <ele>276.2</ele>
        <time>2026-08-31T09:01:20Z</time>
      </trkpt>
      <trkpt lat="43.43894" lon="-0.37863">
        <ele>276.2</ele>
        <time>2026-08-31T09:01:21Z</time>
      </trkpt>
      <trkpt lat="43.43895" lon="-0.37863">
        <ele>276.2</ele>
        <time>2026-08-31T09:01:22Z</time>
      </trkpt>
      <trkpt lat="43.43896" lon="-0.37863">
        <ele>276.2</ele>
        <time>2026-08-31T09:01:22Z</time>
      </trkpt>
      <trkpt lat="43.43896" lon="-0.37863">
        <ele>276.2</ele>
        <time>2026-08-31T09:01:23Z</time>
      </trkpt>
      <trkpt lat="43.43897" lon="-0.37863">
        <ele>276.2</ele>
        <time>2026-08-31T09:01:23Z</time>
      </trkpt>
      <trkpt lat="43.43898" lon="-0.37864">
        <ele>276.2</ele>
        <time>2026-08-31T09:01:24Z</time>
      </trkpt>
      <trkpt lat="43.43898" lon="-0.37864">
        <ele>276.2</ele>
        <time>2026-08-31T09:01:24Z</time>
      </trkpt>
      <trkpt lat="43.43899" lon="-0.37864">
        <ele>275.2</ele>
        <time>2026-08-31T09:01:25Z</time>
      </trkpt>
      <trkpt lat="43.439" lon="-0.37864">
        <ele>275.2</ele>
        <time>2026-08-31T09:01:25Z</time>
      </trkpt>
      <trkpt lat="43.439" lon="-0.37865">
        <ele>275.2</ele>
        <time>2026-08-31T09:01:26Z</time>
      </trkpt>
      <trkpt lat="43.43901" lon="-0.37865">
        <ele>275.2</ele>
        <time>2026-08-31T09:01:26Z</time>
      </trkpt>
      <trkpt lat="43.43901" lon="-0.37865">
        <ele>275.2</ele>
        <time>2026-08-31T09:01:27Z</time>
      </trkpt>
      <trkpt lat="43.43902" lon="-0.37866">
        <ele>275.2</ele>
        <time>2026-08-31T09:01:27Z</time>
      </trkpt>
      <trkpt lat="43.43903" lon="-0.37866">
        <ele>275.2</ele>
        <time>2026-08-31T09:01:28Z</time>
      </trkpt>
      <trkpt lat="43.43903" lon="-0.37866">
        <ele>275.2</ele>
        <time>2026-08-31T09:01:28Z</time>
      </trkpt>
      <trkpt lat="43.43904" lon="-0.37867">
        <ele>276.2</ele>
        <time>2026-08-31T09:01:29Z</time>
      </trkpt>
      <trkpt lat="43.43904" lon="-0.37867">
        <ele>276.2</ele>
        <time>2026-08-31T09:01:29Z</time>
      </trkpt>
      <trkpt lat="43.43904" lon="-0.37868">
        <ele>275.2</ele>
        <time>2026-08-31T09:01:30Z</time>
      </trkpt>
      <trkpt lat="43.43905" lon="-0.37869">
        <ele>275.2</ele>
        <time>2026-08-31T09:01:30Z</time>
      </trkpt>
      <trkpt lat="43.43906" lon="-0.37869">
        <ele>276.2</ele>
        <time>2026-08-31T09:01:31Z</time>
      </trkpt>
      <trkpt lat="43.43906" lon="-0.3787">
        <ele>276.2</ele>
        <time>2026-08-31T09:01:31Z</time>
      </trkpt>
      <trkpt lat="43.43907" lon="-0.3787">
        <ele>276.2</ele>
        <time>2026-08-31T09:01:32Z</time>
      </trkpt>
      <trkpt lat="43.43907" lon="-0.37871">
        <ele>276.2</ele>
        <time>2026-08-31T09:01:33Z</time>
      </trkpt>
      <trkpt lat="43.43908" lon="-0.37871">
        <ele>276.2</ele>
        <time>2026-08-31T09:01:33Z</time>
      </trkpt>
      <trkpt lat="43.43908" lon="-0.37872">
        <ele>276.2</ele>
        <time>2026-08-31T09:01:34Z</time>
      </trkpt>
      <trkpt lat="43.43909" lon="-0.37872">
        <ele>276.2</ele>
        <time>2026-08-31T09:01:34Z</time>
      </trkpt>
      <trkpt lat="43.43909" lon="-0.37873">
        <ele>276.2</ele>
        <time>2026-08-31T09:01:35Z</time>
      </trkpt>
      <trkpt lat="43.4391" lon="-0.37873">
        <ele>276.2</ele>
        <time>2026-08-31T09:01:35Z</time>
      </trkpt>
      <trkpt lat="43.43911" lon="-0.37874">
        <ele>276.2</ele>
        <time>2026-08-31T09:01:36Z</time>
      </trkpt>
      <trkpt lat="43.43911" lon="-0.37874">
        <ele>276.2</ele>
        <time>2026-08-31T09:01:36Z</time>
      </trkpt>
      <trkpt lat="43.43911" lon="-0.37875">
        <ele>277.2</ele>
        <time>2026-08-31T09:01:37Z</time>
      </trkpt>
      <trkpt lat="43.43912" lon="-0.37876">
        <ele>277.2</ele>
        <time>2026-08-31T09:01:37Z</time>
      </trkpt>
      <trkpt lat="43.43912" lon="-0.37876">
        <ele>277.2</ele>
        <time>2026-08-31T09:01:38Z</time>
      </trkpt>
      <trkpt lat="43.43913" lon="-0.37877">
        <ele>277.2</ele>
        <time>2026-08-31T09:01:38Z</time>
      </trkpt>
      <trkpt lat="43.43913" lon="-0.37878">
        <ele>277.2</ele>
        <time>2026-08-31T09:01:39Z</time>
      </trkpt>
      <trkpt lat="43.43914" lon="-0.37878">
        <ele>277.2</ele>
        <time>2026-08-31T09:01:39Z</time>
      </trkpt>
      <trkpt lat="43.43914" lon="-0.37879">
        <ele>277.2</ele>
        <time>2026-08-31T09:01:40Z</time>
      </trkpt>
      <trkpt lat="43.43915" lon="-0.3788">
        <ele>277.2</ele>
        <time>2026-08-31T09:01:40Z</time>
      </trkpt>
      <trkpt lat="43.43915" lon="-0.3788">
        <ele>278.2</ele>
        <time>2026-08-31T09:01:41Z</time>
      </trkpt>
      <trkpt lat="43.43916" lon="-0.37881">
        <ele>278.2</ele>
        <time>2026-08-31T09:01:41Z</time>
      </trkpt>
      <trkpt lat="43.43916" lon="-0.37881">
        <ele>278.2</ele>
        <time>2026-08-31T09:01:42Z</time>
      </trkpt>
      <trkpt lat="43.43917" lon="-0.37882">
        <ele>278.2</ele>
        <time>2026-08-31T09:01:43Z</time>
      </trkpt>
      <trkpt lat="43.43917" lon="-0.37882">
        <ele>278.2</ele>
        <time>2026-08-31T09:01:43Z</time>
      </trkpt>
      <trkpt lat="43.43918" lon="-0.37883">
        <ele>278.2</ele>
        <time>2026-08-31T09:01:44Z</time>
      </trkpt>
      <trkpt lat="43.43918" lon="-0.37883">
        <ele>278.2</ele>
        <time>2026-08-31T09:01:44Z</time>
      </trkpt>
      <trkpt lat="43.43919" lon="-0.37884">
        <ele>278.2</ele>
        <time>2026-08-31T09:01:45Z</time>
      </trkpt>
      <trkpt lat="43.43919" lon="-0.37884">
        <ele>278.2</ele>
        <time>2026-08-31T09:01:45Z</time>
      </trkpt>
      <trkpt lat="43.4392" lon="-0.37885">
        <ele>278.2</ele>
        <time>2026-08-31T09:01:46Z</time>
      </trkpt>
      <trkpt lat="43.4392" lon="-0.37885">
        <ele>278.2</ele>
        <time>2026-08-31T09:01:46Z</time>
      </trkpt>
      <trkpt lat="43.43921" lon="-0.37886">
        <ele>278.2</ele>
        <time>2026-08-31T09:01:47Z</time>
      </trkpt>
      <trkpt lat="43.43922" lon="-0.37886">
        <ele>278.2</ele>
        <time>2026-08-31T09:01:47Z</time>
      </trkpt>
      <trkpt lat="43.43922" lon="-0.37887">
        <ele>278.2</ele>
        <time>2026-08-31T09:01:48Z</time>
      </trkpt>
      <trkpt lat="43.43923" lon="-0.37887">
        <ele>278.2</ele>
        <time>2026-08-31T09:01:48Z</time>
      </trkpt>
      <trkpt lat="43.43924" lon="-0.37888">
        <ele>278.2</ele>
        <time>2026-08-31T09:01:49Z</time>
      </trkpt>
      <trkpt lat="43.43924" lon="-0.37888">
        <ele>278.2</ele>
        <time>2026-08-31T09:01:49Z</time>
      </trkpt>
      <trkpt lat="43.43925" lon="-0.37889">
        <ele>278.2</ele>
        <time>2026-08-31T09:01:50Z</time>
      </trkpt>
      <trkpt lat="43.43925" lon="-0.37889">
        <ele>278.2</ele>
        <time>2026-08-31T09:01:50Z</time>
      </trkpt>
      <trkpt lat="43.43926" lon="-0.37889">
        <ele>278.2</ele>
        <time>2026-08-31T09:01:51Z</time>
      </trkpt>
      <trkpt lat="43.43927" lon="-0.3789">
        <ele>278.2</ele>
        <time>2026-08-31T09:01:52Z</time>
      </trkpt>
      <trkpt lat="43.43927" lon="-0.3789">
        <ele>278.2</ele>
        <time>2026-08-31T09:01:52Z</time>
      </trkpt>
      <trkpt lat="43.43928" lon="-0.37891">
        <ele>278.2</ele>
        <time>2026-08-31T09:01:53Z</time>
      </trkpt>
      <trkpt lat="43.43928" lon="-0.37891">
        <ele>278.2</ele>
        <time>2026-08-31T09:01:53Z</time>
      </trkpt>
      <trkpt lat="43.43929" lon="-0.37892">
        <ele>278.2</ele>
        <time>2026-08-31T09:01:54Z</time>
      </trkpt>
      <trkpt lat="43.43929" lon="-0.37892">
        <ele>278.2</ele>
        <time>2026-08-31T09:01:54Z</time>
      </trkpt>
      <trkpt lat="43.43929" lon="-0.37892">
        <ele>278.2</ele>
        <time>2026-08-31T09:01:55Z</time>
      </trkpt>
      <trkpt lat="43.4393" lon="-0.37893">
        <ele>278.2</ele>
        <time>2026-08-31T09:01:55Z</time>
      </trkpt>
      <trkpt lat="43.4393" lon="-0.37893">
        <ele>278.2</ele>
        <time>2026-08-31T09:01:56Z</time>
      </trkpt>
      <trkpt lat="43.43931" lon="-0.37894">
        <ele>278.2</ele>
        <time>2026-08-31T09:01:56Z</time>
      </trkpt>
      <trkpt lat="43.43931" lon="-0.37894">
        <ele>277.2</ele>
        <time>2026-08-31T09:01:57Z</time>
      </trkpt>
      <trkpt lat="43.43932" lon="-0.37895">
        <ele>277.2</ele>
        <time>2026-08-31T09:01:57Z</time>
      </trkpt>
      <trkpt lat="43.43933" lon="-0.37895">
        <ele>278.2</ele>
        <time>2026-08-31T09:01:58Z</time>
      </trkpt>
      <trkpt lat="43.43933" lon="-0.37896">
        <ele>278.2</ele>
        <time>2026-08-31T09:01:58Z</time>
      </trkpt>
      <trkpt lat="43.43934" lon="-0.37896">
        <ele>277.2</ele>
        <time>2026-08-31T09:01:59Z</time>
      </trkpt>
      <trkpt lat="43.43934" lon="-0.37897">
        <ele>277.2</ele>
        <time>2026-08-31T09:02:00Z</time>
      </trkpt>
      <trkpt lat="43.43935" lon="-0.37898">
        <ele>277.2</ele>
        <time>2026-08-31T09:02:00Z</time>
      </trkpt>
      <trkpt lat="43.43935" lon="-0.37898">
        <ele>277.2</ele>
        <time>2026-08-31T09:02:01Z</time>
      </trkpt>
      <trkpt lat="43.43936" lon="-0.37899">
        <ele>277.2</ele>
        <time>2026-08-31T09:02:01Z</time>
      </trkpt>
      <trkpt lat="43.43937" lon="-0.37899">
        <ele>277.2</ele>
        <time>2026-08-31T09:02:02Z</time>
      </trkpt>
      <trkpt lat="43.43937" lon="-0.379">
        <ele>277.2</ele>
        <time>2026-08-31T09:02:02Z</time>
      </trkpt>
      <trkpt lat="43.43938" lon="-0.379">
        <ele>277.2</ele>
        <time>2026-08-31T09:02:03Z</time>
      </trkpt>
      <trkpt lat="43.43938" lon="-0.37901">
        <ele>277.2</ele>
        <time>2026-08-31T09:02:03Z</time>
      </trkpt>
      <trkpt lat="43.43939" lon="-0.37901">
        <ele>277.2</ele>
        <time>2026-08-31T09:02:04Z</time>
      </trkpt>
      <trkpt lat="43.4394" lon="-0.37902">
        <ele>277.2</ele>
        <time>2026-08-31T09:02:04Z</time>
      </trkpt>
      <trkpt lat="43.4394" lon="-0.37902">
        <ele>278.2</ele>
        <time>2026-08-31T09:02:05Z</time>
      </trkpt>
      <trkpt lat="43.43941" lon="-0.37903">
        <ele>278.2</ele>
        <time>2026-08-31T09:02:05Z</time>
      </trkpt>
      <trkpt lat="43.43942" lon="-0.37903">
        <ele>277.2</ele>
        <time>2026-08-31T09:02:06Z</time>
      </trkpt>
      <trkpt lat="43.43942" lon="-0.37904">
        <ele>277.2</ele>
        <time>2026-08-31T09:02:06Z</time>
      </trkpt>
      <trkpt lat="43.43943" lon="-0.37904">
        <ele>277.2</ele>
        <time>2026-08-31T09:02:07Z</time>
      </trkpt>
      <trkpt lat="43.43944" lon="-0.37905">
        <ele>277.2</ele>
        <time>2026-08-31T09:02:07Z</time>
      </trkpt>
      <trkpt lat="43.43944" lon="-0.37905">
        <ele>277.2</ele>
        <time>2026-08-31T09:02:08Z</time>
      </trkpt>
      <trkpt lat="43.43945" lon="-0.37906">
        <ele>277.2</ele>
        <time>2026-08-31T09:02:09Z</time>
      </trkpt>
      <trkpt lat="43.43946" lon="-0.37906">
        <ele>277.2</ele>
        <time>2026-08-31T09:02:09Z</time>
      </trkpt>
      <trkpt lat="43.43947" lon="-0.37906">
        <ele>277.2</ele>
        <time>2026-08-31T09:02:10Z</time>
      </trkpt>
      <trkpt lat="43.43947" lon="-0.37907">
        <ele>277.2</ele>
        <time>2026-08-31T09:02:10Z</time>
      </trkpt>
      <trkpt lat="43.43948" lon="-0.37907">
        <ele>278.2</ele>
        <time>2026-08-31T09:02:11Z</time>
      </trkpt>
      <trkpt lat="43.43949" lon="-0.37908">
        <ele>278.2</ele>
        <time>2026-08-31T09:02:11Z</time>
      </trkpt>
      <trkpt lat="43.43949" lon="-0.37908">
        <ele>277.2</ele>
        <time>2026-08-31T09:02:12Z</time>
      </trkpt>
      <trkpt lat="43.4395" lon="-0.37909">
        <ele>277.2</ele>
        <time>2026-08-31T09:02:12Z</time>
      </trkpt>
      <trkpt lat="43.43951" lon="-0.37909">
        <ele>277.2</ele>
        <time>2026-08-31T09:02:13Z</time>
      </trkpt>
      <trkpt lat="43.43951" lon="-0.3791">
        <ele>277.2</ele>
        <time>2026-08-31T09:02:13Z</time>
      </trkpt>
      <trkpt lat="43.43952" lon="-0.3791">
        <ele>277.2</ele>
        <time>2026-08-31T09:02:14Z</time>
      </trkpt>
      <trkpt lat="43.43953" lon="-0.37911">
        <ele>277.2</ele>
        <time>2026-08-31T09:02:14Z</time>
      </trkpt>
      <trkpt lat="43.43953" lon="-0.37911">
        <ele>277.2</ele>
        <time>2026-08-31T09:02:15Z</time>
      </trkpt>
      <trkpt lat="43.43954" lon="-0.37912">
        <ele>277.2</ele>
        <time>2026-08-31T09:02:16Z</time>
      </trkpt>
      <trkpt lat="43.43954" lon="-0.37913">
        <ele>278.2</ele>
        <time>2026-08-31T09:02:16Z</time>
      </trkpt>
      <trkpt lat="43.43955" lon="-0.37913">
        <ele>278.2</ele>
        <time>2026-08-31T09:02:17Z</time>
      </trkpt>
      <trkpt lat="43.43956" lon="-0.37914">
        <ele>278.2</ele>
        <time>2026-08-31T09:02:17Z</time>
      </trkpt>
      <trkpt lat="43.43956" lon="-0.37914">
        <ele>278.2</ele>
        <time>2026-08-31T09:02:18Z</time>
      </trkpt>
      <trkpt lat="43.43957" lon="-0.37915">
        <ele>277.2</ele>
        <time>2026-08-31T09:02:18Z</time>
      </trkpt>
      <trkpt lat="43.43957" lon="-0.37915">
        <ele>277.2</ele>
        <time>2026-08-31T09:02:19Z</time>
      </trkpt>
      <trkpt lat="43.43958" lon="-0.37916">
        <ele>277.2</ele>
        <time>2026-08-31T09:02:19Z</time>
      </trkpt>
      <trkpt lat="43.43959" lon="-0.37917">
        <ele>277.2</ele>
        <time>2026-08-31T09:02:20Z</time>
      </trkpt>
      <trkpt lat="43.43959" lon="-0.37917">
        <ele>277.2</ele>
        <time>2026-08-31T09:02:20Z</time>
      </trkpt>
      <trkpt lat="43.4396" lon="-0.37918">
        <ele>277.2</ele>
        <time>2026-08-31T09:02:21Z</time>
      </trkpt>
      <trkpt lat="43.43961" lon="-0.37918">
        <ele>277.2</ele>
        <time>2026-08-31T09:02:21Z</time>
      </trkpt>
      <trkpt lat="43.43961" lon="-0.37919">
        <ele>277.2</ele>
        <time>2026-08-31T09:02:22Z</time>
      </trkpt>
      <trkpt lat="43.43962" lon="-0.37919">
        <ele>277.2</ele>
        <time>2026-08-31T09:02:22Z</time>
      </trkpt>
      <trkpt lat="43.43962" lon="-0.3792">
        <ele>277.2</ele>
        <time>2026-08-31T09:02:23Z</time>
      </trkpt>
      <trkpt lat="43.43963" lon="-0.3792">
        <ele>277.2</ele>
        <time>2026-08-31T09:02:24Z</time>
      </trkpt>
      <trkpt lat="43.43963" lon="-0.37921">
        <ele>276.2</ele>
        <time>2026-08-31T09:02:24Z</time>
      </trkpt>
      <trkpt lat="43.43964" lon="-0.37922">
        <ele>276.2</ele>
        <time>2026-08-31T09:02:25Z</time>
      </trkpt>
      <trkpt lat="43.43965" lon="-0.37922">
        <ele>276.2</ele>
        <time>2026-08-31T09:02:25Z</time>
      </trkpt>
      <trkpt lat="43.43965" lon="-0.37922">
        <ele>276.2</ele>
        <time>2026-08-31T09:02:26Z</time>
      </trkpt>
      <trkpt lat="43.43966" lon="-0.37923">
        <ele>276.2</ele>
        <time>2026-08-31T09:02:26Z</time>
      </trkpt>
      <trkpt lat="43.43967" lon="-0.37923">
        <ele>276.2</ele>
        <time>2026-08-31T09:02:27Z</time>
      </trkpt>
      <trkpt lat="43.43967" lon="-0.37924">
        <ele>276.2</ele>
        <time>2026-08-31T09:02:27Z</time>
      </trkpt>
      <trkpt lat="43.43968" lon="-0.37925">
        <ele>277.2</ele>
        <time>2026-08-31T09:02:28Z</time>
      </trkpt>
      <trkpt lat="43.43969" lon="-0.37925">
        <ele>277.2</ele>
        <time>2026-08-31T09:02:28Z</time>
      </trkpt>
      <trkpt lat="43.43969" lon="-0.37925">
        <ele>277.2</ele>
        <time>2026-08-31T09:02:29Z</time>
      </trkpt>
      <trkpt lat="43.4397" lon="-0.37926">
        <ele>277.2</ele>
        <time>2026-08-31T09:02:29Z</time>
      </trkpt>
      <trkpt lat="43.43971" lon="-0.37926">
        <ele>277.2</ele>
        <time>2026-08-31T09:02:30Z</time>
      </trkpt>
      <trkpt lat="43.43971" lon="-0.37927">
        <ele>277.2</ele>
        <time>2026-08-31T09:02:30Z</time>
      </trkpt>
      <trkpt lat="43.43972" lon="-0.37927">
        <ele>277.2</ele>
        <time>2026-08-31T09:02:31Z</time>
      </trkpt>
      <trkpt lat="43.43972" lon="-0.37927">
        <ele>277.2</ele>
        <time>2026-08-31T09:02:31Z</time>
      </trkpt>
      <trkpt lat="43.43973" lon="-0.37928">
        <ele>277.2</ele>
        <time>2026-08-31T09:02:32Z</time>
      </trkpt>
      <trkpt lat="43.43974" lon="-0.37928">
        <ele>277.2</ele>
        <time>2026-08-31T09:02:33Z</time>
      </trkpt>
      <trkpt lat="43.43974" lon="-0.37929">
        <ele>277.2</ele>
        <time>2026-08-31T09:02:33Z</time>
      </trkpt>
      <trkpt lat="43.43975" lon="-0.37929">
        <ele>277.2</ele>
        <time>2026-08-31T09:02:34Z</time>
      </trkpt>
      <trkpt lat="43.43975" lon="-0.37929">
        <ele>277.2</ele>
        <time>2026-08-31T09:02:34Z</time>
      </trkpt>
      <trkpt lat="43.43976" lon="-0.3793">
        <ele>277.2</ele>
        <time>2026-08-31T09:02:35Z</time>
      </trkpt>
      <trkpt lat="43.43976" lon="-0.3793">
        <ele>276.2</ele>
        <time>2026-08-31T09:02:35Z</time>
      </trkpt>
      <trkpt lat="43.43977" lon="-0.3793">
        <ele>276.2</ele>
        <time>2026-08-31T09:02:36Z</time>
      </trkpt>
      <trkpt lat="43.43978" lon="-0.37931">
        <ele>277.2</ele>
        <time>2026-08-31T09:02:36Z</time>
      </trkpt>
      <trkpt lat="43.43978" lon="-0.37931">
        <ele>277.2</ele>
        <time>2026-08-31T09:02:37Z</time>
      </trkpt>
      <trkpt lat="43.43979" lon="-0.37931">
        <ele>277.2</ele>
        <time>2026-08-31T09:02:37Z</time>
      </trkpt>
      <trkpt lat="43.43979" lon="-0.37932">
        <ele>277.2</ele>
        <time>2026-08-31T09:02:38Z</time>
      </trkpt>
      <trkpt lat="43.4398" lon="-0.37932">
        <ele>277.2</ele>
        <time>2026-08-31T09:02:38Z</time>
      </trkpt>
      <trkpt lat="43.43981" lon="-0.37933">
        <ele>277.2</ele>
        <time>2026-08-31T09:02:39Z</time>
      </trkpt>
      <trkpt lat="43.43981" lon="-0.37933">
        <ele>277.2</ele>
        <time>2026-08-31T09:02:39Z</time>
      </trkpt>
      <trkpt lat="43.43982" lon="-0.37934">
        <ele>277.2</ele>
        <time>2026-08-31T09:02:40Z</time>
      </trkpt>
      <trkpt lat="43.43982" lon="-0.37934">
        <ele>277.2</ele>
        <time>2026-08-31T09:02:40Z</time>
      </trkpt>
      <trkpt lat="43.43983" lon="-0.37934">
        <ele>277.2</ele>
        <time>2026-08-31T09:02:41Z</time>
      </trkpt>
      <trkpt lat="43.43984" lon="-0.37935">
        <ele>277.2</ele>
        <time>2026-08-31T09:02:42Z</time>
      </trkpt>
      <trkpt lat="43.43984" lon="-0.37935">
        <ele>278.2</ele>
        <time>2026-08-31T09:02:42Z</time>
      </trkpt>
      <trkpt lat="43.43985" lon="-0.37936">
        <ele>278.2</ele>
        <time>2026-08-31T09:02:43Z</time>
      </trkpt>
      <trkpt lat="43.43985" lon="-0.37936">
        <ele>278.2</ele>
        <time>2026-08-31T09:02:43Z</time>
      </trkpt>
      <trkpt lat="43.43986" lon="-0.37936">
        <ele>278.2</ele>
        <time>2026-08-31T09:02:44Z</time>
      </trkpt>
      <trkpt lat="43.43987" lon="-0.37937">
        <ele>278.2</ele>
        <time>2026-08-31T09:02:44Z</time>
      </trkpt>
      <trkpt lat="43.43987" lon="-0.37937">
        <ele>277.2</ele>
        <time>2026-08-31T09:02:45Z</time>
      </trkpt>
      <trkpt lat="43.43988" lon="-0.37938">
        <ele>277.2</ele>
        <time>2026-08-31T09:02:45Z</time>
      </trkpt>
      <trkpt lat="43.43988" lon="-0.37938">
        <ele>277.2</ele>
        <time>2026-08-31T09:02:46Z</time>
      </trkpt>
      <trkpt lat="43.43989" lon="-0.37938">
        <ele>277.2</ele>
        <time>2026-08-31T09:02:46Z</time>
      </trkpt>
      <trkpt lat="43.43989" lon="-0.37939">
        <ele>277.2</ele>
        <time>2026-08-31T09:02:47Z</time>
      </trkpt>
      <trkpt lat="43.4399" lon="-0.37939">
        <ele>277.2</ele>
        <time>2026-08-31T09:02:47Z</time>
      </trkpt>
      <trkpt lat="43.43991" lon="-0.37939">
        <ele>277.2</ele>
        <time>2026-08-31T09:02:48Z</time>
      </trkpt>
      <trkpt lat="43.43991" lon="-0.3794">
        <ele>277.2</ele>
        <time>2026-08-31T09:02:48Z</time>
      </trkpt>
      <trkpt lat="43.43992" lon="-0.3794">
        <ele>277.2</ele>
        <time>2026-08-31T09:02:49Z</time>
      </trkpt>
      <trkpt lat="43.43993" lon="-0.3794">
        <ele>277.2</ele>
        <time>2026-08-31T09:02:49Z</time>
      </trkpt>
      <trkpt lat="43.43993" lon="-0.37941">
        <ele>277.2</ele>
        <time>2026-08-31T09:02:50Z</time>
      </trkpt>
      <trkpt lat="43.43994" lon="-0.37941">
        <ele>277.2</ele>
        <time>2026-08-31T09:02:51Z</time>
      </trkpt>
      <trkpt lat="43.43994" lon="-0.37942">
        <ele>277.2</ele>
        <time>2026-08-31T09:02:51Z</time>
      </trkpt>
      <trkpt lat="43.43995" lon="-0.37942">
        <ele>277.2</ele>
        <time>2026-08-31T09:02:52Z</time>
      </trkpt>
      <trkpt lat="43.43996" lon="-0.37942">
        <ele>277.2</ele>
        <time>2026-08-31T09:02:52Z</time>
      </trkpt>
      <trkpt lat="43.43996" lon="-0.37943">
        <ele>277.2</ele>
        <time>2026-08-31T09:02:53Z</time>
      </trkpt>
      <trkpt lat="43.43997" lon="-0.37943">
        <ele>277.2</ele>
        <time>2026-08-31T09:02:53Z</time>
      </trkpt>
      <trkpt lat="43.43998" lon="-0.37943">
        <ele>277.2</ele>
        <time>2026-08-31T09:02:54Z</time>
      </trkpt>
      <trkpt lat="43.43998" lon="-0.37944">
        <ele>276.2</ele>
        <time>2026-08-31T09:02:54Z</time>
      </trkpt>
      <trkpt lat="43.43999" lon="-0.37944">
        <ele>276.2</ele>
        <time>2026-08-31T09:02:55Z</time>
      </trkpt>
      <trkpt lat="43.44" lon="-0.37944">
        <ele>276.2</ele>
        <time>2026-08-31T09:02:55Z</time>
      </trkpt>
      <trkpt lat="43.44" lon="-0.37945">
        <ele>276.2</ele>
        <time>2026-08-31T09:02:56Z</time>
      </trkpt>
      <trkpt lat="43.44001" lon="-0.37945">
        <ele>276.2</ele>
        <time>2026-08-31T09:02:56Z</time>
      </trkpt>
      <trkpt lat="43.44002" lon="-0.37945">
        <ele>276.2</ele>
        <time>2026-08-31T09:02:57Z</time>
      </trkpt>
      <trkpt lat="43.44003" lon="-0.37945">
        <ele>276.2</ele>
        <time>2026-08-31T09:02:57Z</time>
      </trkpt>
      <trkpt lat="43.44003" lon="-0.37945">
        <ele>275.2</ele>
        <time>2026-08-31T09:02:58Z</time>
      </trkpt>
      <trkpt lat="43.44004" lon="-0.37945">
        <ele>275.2</ele>
        <time>2026-08-31T09:02:58Z</time>
      </trkpt>
      <trkpt lat="43.44005" lon="-0.37945">
        <ele>275.2</ele>
        <time>2026-08-31T09:02:59Z</time>
      </trkpt>
      <trkpt lat="43.44006" lon="-0.37945">
        <ele>275.2</ele>
        <time>2026-08-31T09:02:59Z</time>
      </trkpt>
      <trkpt lat="43.44007" lon="-0.37946">
        <ele>275.2</ele>
        <time>2026-08-31T09:03:00Z</time>
      </trkpt>
      <trkpt lat="43.44007" lon="-0.37946">
        <ele>275.2</ele>
        <time>2026-08-31T09:03:01Z</time>
      </trkpt>
      <trkpt lat="43.44008" lon="-0.37946">
        <ele>275.2</ele>
        <time>2026-08-31T09:03:01Z</time>
      </trkpt>
      <trkpt lat="43.44009" lon="-0.37946">
        <ele>275.2</ele>
        <time>2026-08-31T09:03:02Z</time>
      </trkpt>
      <trkpt lat="43.4401" lon="-0.37947">
        <ele>275.2</ele>
        <time>2026-08-31T09:03:02Z</time>
      </trkpt>
      <trkpt lat="43.4401" lon="-0.37947">
        <ele>275.2</ele>
        <time>2026-08-31T09:03:03Z</time>
      </trkpt>
      <trkpt lat="43.44011" lon="-0.37947">
        <ele>275.2</ele>
        <time>2026-08-31T09:03:03Z</time>
      </trkpt>
      <trkpt lat="43.44012" lon="-0.37947">
        <ele>275.2</ele>
        <time>2026-08-31T09:03:04Z</time>
      </trkpt>
      <trkpt lat="43.44012" lon="-0.37948">
        <ele>274.2</ele>
        <time>2026-08-31T09:03:04Z</time>
      </trkpt>
      <trkpt lat="43.44013" lon="-0.37948">
        <ele>274.2</ele>
        <time>2026-08-31T09:03:05Z</time>
      </trkpt>
      <trkpt lat="43.44014" lon="-0.37948">
        <ele>274.2</ele>
        <time>2026-08-31T09:03:05Z</time>
      </trkpt>
      <trkpt lat="43.44015" lon="-0.37948">
        <ele>274.2</ele>
        <time>2026-08-31T09:03:06Z</time>
      </trkpt>
      <trkpt lat="43.44015" lon="-0.37948">
        <ele>274.2</ele>
        <time>2026-08-31T09:03:06Z</time>
      </trkpt>
      <trkpt lat="43.44016" lon="-0.37949">
        <ele>274.2</ele>
        <time>2026-08-31T09:03:07Z</time>
      </trkpt>
      <trkpt lat="43.44016" lon="-0.37949">
        <ele>274.2</ele>
        <time>2026-08-31T09:03:07Z</time>
      </trkpt>
      <trkpt lat="43.44017" lon="-0.37949">
        <ele>274.2</ele>
        <time>2026-08-31T09:03:08Z</time>
      </trkpt>
      <trkpt lat="43.44018" lon="-0.37949">
        <ele>274.2</ele>
        <time>2026-08-31T09:03:08Z</time>
      </trkpt>
      <trkpt lat="43.44019" lon="-0.3795">
        <ele>274.2</ele>
        <time>2026-08-31T09:03:09Z</time>
      </trkpt>
      <trkpt lat="43.44019" lon="-0.3795">
        <ele>274.2</ele>
        <time>2026-08-31T09:03:09Z</time>
      </trkpt>
      <trkpt lat="43.4402" lon="-0.3795">
        <ele>274.2</ele>
        <time>2026-08-31T09:03:10Z</time>
      </trkpt>
      <trkpt lat="43.44021" lon="-0.37951">
        <ele>274.2</ele>
        <time>2026-08-31T09:03:11Z</time>
      </trkpt>
      <trkpt lat="43.44021" lon="-0.37951">
        <ele>274.2</ele>
        <time>2026-08-31T09:03:11Z</time>
      </trkpt>
      <trkpt lat="43.44022" lon="-0.37951">
        <ele>274.2</ele>
        <time>2026-08-31T09:03:12Z</time>
      </trkpt>
      <trkpt lat="43.44022" lon="-0.37952">
        <ele>274.2</ele>
        <time>2026-08-31T09:03:12Z</time>
      </trkpt>
      <trkpt lat="43.44023" lon="-0.37953">
        <ele>274.2</ele>
        <time>2026-08-31T09:03:13Z</time>
      </trkpt>
      <trkpt lat="43.44023" lon="-0.37953">
        <ele>274.2</ele>
        <time>2026-08-31T09:03:13Z</time>
      </trkpt>
      <trkpt lat="43.44024" lon="-0.37953">
        <ele>274.2</ele>
        <time>2026-08-31T09:03:14Z</time>
      </trkpt>
      <trkpt lat="43.44025" lon="-0.37954">
        <ele>274.2</ele>
        <time>2026-08-31T09:03:14Z</time>
      </trkpt>
      <trkpt lat="43.44025" lon="-0.37954">
        <ele>274.2</ele>
        <time>2026-08-31T09:03:15Z</time>
      </trkpt>
      <trkpt lat="43.44026" lon="-0.37954">
        <ele>274.2</ele>
        <time>2026-08-31T09:03:15Z</time>
      </trkpt>
      <trkpt lat="43.44026" lon="-0.37955">
        <ele>273.2</ele>
        <time>2026-08-31T09:03:16Z</time>
      </trkpt>
      <trkpt lat="43.44027" lon="-0.37955">
        <ele>273.2</ele>
        <time>2026-08-31T09:03:16Z</time>
      </trkpt>
      <trkpt lat="43.44027" lon="-0.37956">
        <ele>273.2</ele>
        <time>2026-08-31T09:03:17Z</time>
      </trkpt>
      <trkpt lat="43.44028" lon="-0.37956">
        <ele>273.2</ele>
        <time>2026-08-31T09:03:17Z</time>
      </trkpt>
      <trkpt lat="43.44029" lon="-0.37957">
        <ele>273.2</ele>
        <time>2026-08-31T09:03:18Z</time>
      </trkpt>
      <trkpt lat="43.44029" lon="-0.37957">
        <ele>273.2</ele>
        <time>2026-08-31T09:03:18Z</time>
      </trkpt>
      <trkpt lat="43.4403" lon="-0.37958">
        <ele>273.2</ele>
        <time>2026-08-31T09:03:19Z</time>
      </trkpt>
      <trkpt lat="43.44031" lon="-0.37958">
        <ele>273.2</ele>
        <time>2026-08-31T09:03:20Z</time>
      </trkpt>
      <trkpt lat="43.44031" lon="-0.37959">
        <ele>273.2</ele>
        <time>2026-08-31T09:03:20Z</time>
      </trkpt>
      <trkpt lat="43.44032" lon="-0.37959">
        <ele>273.2</ele>
        <time>2026-08-31T09:03:21Z</time>
      </trkpt>
      <trkpt lat="43.44032" lon="-0.3796">
        <ele>273.2</ele>
        <time>2026-08-31T09:03:21Z</time>
      </trkpt>
      <trkpt lat="43.44033" lon="-0.3796">
        <ele>273.2</ele>
        <time>2026-08-31T09:03:22Z</time>
      </trkpt>
      <trkpt lat="43.44034" lon="-0.3796">
        <ele>274.2</ele>
        <time>2026-08-31T09:03:22Z</time>
      </trkpt>
      <trkpt lat="43.44034" lon="-0.37961">
        <ele>274.2</ele>
        <time>2026-08-31T09:03:23Z</time>
      </trkpt>
      <trkpt lat="43.44035" lon="-0.37961">
        <ele>274.2</ele>
        <time>2026-08-31T09:03:23Z</time>
      </trkpt>
      <trkpt lat="43.44035" lon="-0.37961">
        <ele>273.2</ele>
        <time>2026-08-31T09:03:24Z</time>
      </trkpt>
      <trkpt lat="43.44036" lon="-0.37961">
        <ele>273.2</ele>
        <time>2026-08-31T09:03:24Z</time>
      </trkpt>
      <trkpt lat="43.44036" lon="-0.37962">
        <ele>273.2</ele>
        <time>2026-08-31T09:03:25Z</time>
      </trkpt>
      <trkpt lat="43.44037" lon="-0.37962">
        <ele>273.2</ele>
        <time>2026-08-31T09:03:25Z</time>
      </trkpt>
      <trkpt lat="43.44037" lon="-0.37963">
        <ele>273.2</ele>
        <time>2026-08-31T09:03:26Z</time>
      </trkpt>
      <trkpt lat="43.44038" lon="-0.37963">
        <ele>273.2</ele>
        <time>2026-08-31T09:03:26Z</time>
      </trkpt>
      <trkpt lat="43.44039" lon="-0.37963">
        <ele>273.2</ele>
        <time>2026-08-31T09:03:27Z</time>
      </trkpt>
      <trkpt lat="43.44039" lon="-0.37964">
        <ele>273.2</ele>
        <time>2026-08-31T09:03:28Z</time>
      </trkpt>
      <trkpt lat="43.4404" lon="-0.37964">
        <ele>273.2</ele>
        <time>2026-08-31T09:03:28Z</time>
      </trkpt>
      <trkpt lat="43.44041" lon="-0.37965">
        <ele>273.2</ele>
        <time>2026-08-31T09:03:29Z</time>
      </trkpt>
      <trkpt lat="43.44041" lon="-0.37965">
        <ele>273.2</ele>
        <time>2026-08-31T09:03:29Z</time>
      </trkpt>
      <trkpt lat="43.44042" lon="-0.37965">
        <ele>273.2</ele>
        <time>2026-08-31T09:03:30Z</time>
      </trkpt>
      <trkpt lat="43.44042" lon="-0.37965">
        <ele>273.2</ele>
        <time>2026-08-31T09:03:30Z</time>
      </trkpt>
      <trkpt lat="43.44043" lon="-0.37965">
        <ele>272.2</ele>
        <time>2026-08-31T09:03:31Z</time>
      </trkpt>
      <trkpt lat="43.44044" lon="-0.37966">
        <ele>272.2</ele>
        <time>2026-08-31T09:03:31Z</time>
      </trkpt>
      <trkpt lat="43.44044" lon="-0.37965">
        <ele>272.2</ele>
        <time>2026-08-31T09:03:32Z</time>
      </trkpt>
      <trkpt lat="43.44045" lon="-0.37966">
        <ele>272.2</ele>
        <time>2026-08-31T09:03:32Z</time>
      </trkpt>
      <trkpt lat="43.44045" lon="-0.37966">
        <ele>272.2</ele>
        <time>2026-08-31T09:03:33Z</time>
      </trkpt>
      <trkpt lat="43.44046" lon="-0.37966">
        <ele>272.2</ele>
        <time>2026-08-31T09:03:33Z</time>
      </trkpt>
      <trkpt lat="43.44047" lon="-0.37966">
        <ele>273.2</ele>
        <time>2026-08-31T09:03:34Z</time>
      </trkpt>
      <trkpt lat="43.44047" lon="-0.37966">
        <ele>273.2</ele>
        <time>2026-08-31T09:03:34Z</time>
      </trkpt>
      <trkpt lat="43.44048" lon="-0.37966">
        <ele>273.2</ele>
        <time>2026-08-31T09:03:35Z</time>
      </trkpt>
      <trkpt lat="43.44049" lon="-0.37966">
        <ele>273.2</ele>
        <time>2026-08-31T09:03:36Z</time>
      </trkpt>
      <trkpt lat="43.44049" lon="-0.37966">
        <ele>273.2</ele>
        <time>2026-08-31T09:03:36Z</time>
      </trkpt>
      <trkpt lat="43.4405" lon="-0.37967">
        <ele>273.2</ele>
        <time>2026-08-31T09:03:37Z</time>
      </trkpt>
      <trkpt lat="43.4405" lon="-0.37966">
        <ele>273.2</ele>
        <time>2026-08-31T09:03:37Z</time>
      </trkpt>
      <trkpt lat="43.44051" lon="-0.37967">
        <ele>273.2</ele>
        <time>2026-08-31T09:03:38Z</time>
      </trkpt>
      <trkpt lat="43.44051" lon="-0.37967">
        <ele>273.2</ele>
        <time>2026-08-31T09:03:38Z</time>
      </trkpt>
      <trkpt lat="43.44052" lon="-0.37967">
        <ele>273.2</ele>
        <time>2026-08-31T09:03:39Z</time>
      </trkpt>
      <trkpt lat="43.44052" lon="-0.37967">
        <ele>273.2</ele>
        <time>2026-08-31T09:03:39Z</time>
      </trkpt>
      <trkpt lat="43.44052" lon="-0.37967">
        <ele>274.2</ele>
        <time>2026-08-31T09:03:40Z</time>
      </trkpt>
      <trkpt lat="43.44053" lon="-0.37967">
        <ele>274.2</ele>
        <time>2026-08-31T09:03:40Z</time>
      </trkpt>
      <trkpt lat="43.44053" lon="-0.37967">
        <ele>274.2</ele>
        <time>2026-08-31T09:03:41Z</time>
      </trkpt>
      <trkpt lat="43.44054" lon="-0.37968">
        <ele>274.2</ele>
        <time>2026-08-31T09:03:41Z</time>
      </trkpt>
      <trkpt lat="43.44054" lon="-0.37968">
        <ele>274.2</ele>
        <time>2026-08-31T09:03:42Z</time>
      </trkpt>
      <trkpt lat="43.44055" lon="-0.37968">
        <ele>274.2</ele>
        <time>2026-08-31T09:03:42Z</time>
      </trkpt>
      <trkpt lat="43.44056" lon="-0.37968">
        <ele>274.2</ele>
        <time>2026-08-31T09:03:43Z</time>
      </trkpt>
      <trkpt lat="43.44056" lon="-0.37968">
        <ele>274.2</ele>
        <time>2026-08-31T09:03:43Z</time>
      </trkpt>
      <trkpt lat="43.44057" lon="-0.37968">
        <ele>274.2</ele>
        <time>2026-08-31T09:03:44Z</time>
      </trkpt>
      <trkpt lat="43.44058" lon="-0.37968">
        <ele>274.2</ele>
        <time>2026-08-31T09:03:45Z</time>
      </trkpt>
      <trkpt lat="43.44058" lon="-0.37968">
        <ele>273.2</ele>
        <time>2026-08-31T09:03:45Z</time>
      </trkpt>
      <trkpt lat="43.44059" lon="-0.37968">
        <ele>273.2</ele>
        <time>2026-08-31T09:03:46Z</time>
      </trkpt>
      <trkpt lat="43.44059" lon="-0.37968">
        <ele>273.2</ele>
        <time>2026-08-31T09:03:46Z</time>
      </trkpt>
      <trkpt lat="43.4406" lon="-0.37968">
        <ele>273.2</ele>
        <time>2026-08-31T09:03:47Z</time>
      </trkpt>
      <trkpt lat="43.44061" lon="-0.37968">
        <ele>273.2</ele>
        <time>2026-08-31T09:03:47Z</time>
      </trkpt>
      <trkpt lat="43.44061" lon="-0.37968">
        <ele>273.2</ele>
        <time>2026-08-31T09:03:48Z</time>
      </trkpt>
      <trkpt lat="43.44062" lon="-0.37968">
        <ele>273.2</ele>
        <time>2026-08-31T09:03:48Z</time>
      </trkpt>
      <trkpt lat="43.44063" lon="-0.37968">
        <ele>273.2</ele>
        <time>2026-08-31T09:03:49Z</time>
      </trkpt>
      <trkpt lat="43.44063" lon="-0.37968">
        <ele>273.2</ele>
        <time>2026-08-31T09:03:49Z</time>
      </trkpt>
      <trkpt lat="43.44064" lon="-0.37968">
        <ele>272.2</ele>
        <time>2026-08-31T09:03:50Z</time>
      </trkpt>
      <trkpt lat="43.44065" lon="-0.37968">
        <ele>272.2</ele>
        <time>2026-08-31T09:03:50Z</time>
      </trkpt>
      <trkpt lat="43.44065" lon="-0.37968">
        <ele>272.2</ele>
        <time>2026-08-31T09:03:51Z</time>
      </trkpt>
      <trkpt lat="43.44066" lon="-0.37968">
        <ele>272.2</ele>
        <time>2026-08-31T09:03:51Z</time>
      </trkpt>
      <trkpt lat="43.44067" lon="-0.37968">
        <ele>272.2</ele>
        <time>2026-08-31T09:03:52Z</time>
      </trkpt>
      <trkpt lat="43.44068" lon="-0.37968">
        <ele>272.2</ele>
        <time>2026-08-31T09:03:52Z</time>
      </trkpt>
      <trkpt lat="43.44069" lon="-0.37969">
        <ele>272.2</ele>
        <time>2026-08-31T09:03:53Z</time>
      </trkpt>
      <trkpt lat="43.44069" lon="-0.37969">
        <ele>272.2</ele>
        <time>2026-08-31T09:03:53Z</time>
      </trkpt>
      <trkpt lat="43.4407" lon="-0.37969">
        <ele>272.2</ele>
        <time>2026-08-31T09:03:54Z</time>
      </trkpt>
      <trkpt lat="43.44071" lon="-0.37969">
        <ele>272.2</ele>
        <time>2026-08-31T09:03:54Z</time>
      </trkpt>
      <trkpt lat="43.44071" lon="-0.3797">
        <ele>272.2</ele>
        <time>2026-08-31T09:03:55Z</time>
      </trkpt>
      <trkpt lat="43.44072" lon="-0.3797">
        <ele>272.2</ele>
        <time>2026-08-31T09:03:56Z</time>
      </trkpt>
      <trkpt lat="43.44073" lon="-0.3797">
        <ele>272.2</ele>
        <time>2026-08-31T09:03:56Z</time>
      </trkpt>
      <trkpt lat="43.44073" lon="-0.37971">
        <ele>272.2</ele>
        <time>2026-08-31T09:03:57Z</time>
      </trkpt>
      <trkpt lat="43.44074" lon="-0.37971">
        <ele>272.2</ele>
        <time>2026-08-31T09:03:57Z</time>
      </trkpt>
      <trkpt lat="43.44075" lon="-0.37971">
        <ele>272.2</ele>
        <time>2026-08-31T09:03:58Z</time>
      </trkpt>
      <trkpt lat="43.44076" lon="-0.37972">
        <ele>272.2</ele>
        <time>2026-08-31T09:03:58Z</time>
      </trkpt>
      <trkpt lat="43.44076" lon="-0.37972">
        <ele>272.2</ele>
        <time>2026-08-31T09:03:59Z</time>
      </trkpt>
      <trkpt lat="43.44077" lon="-0.37972">
        <ele>272.2</ele>
        <time>2026-08-31T09:03:59Z</time>
      </trkpt>
      <trkpt lat="43.44078" lon="-0.37973">
        <ele>273.2</ele>
        <time>2026-08-31T09:04:00Z</time>
      </trkpt>
      <trkpt lat="43.44078" lon="-0.37973">
        <ele>273.2</ele>
        <time>2026-08-31T09:04:00Z</time>
      </trkpt>
      <trkpt lat="43.44079" lon="-0.37974">
        <ele>273.2</ele>
        <time>2026-08-31T09:04:01Z</time>
      </trkpt>
      <trkpt lat="43.4408" lon="-0.37974">
        <ele>273.2</ele>
        <time>2026-08-31T09:04:02Z</time>
      </trkpt>
      <trkpt lat="43.44081" lon="-0.37974">
        <ele>273.2</ele>
        <time>2026-08-31T09:04:02Z</time>
      </trkpt>
      <trkpt lat="43.44082" lon="-0.37975">
        <ele>273.2</ele>
        <time>2026-08-31T09:04:03Z</time>
      </trkpt>
      <trkpt lat="43.44082" lon="-0.37975">
        <ele>272.2</ele>
        <time>2026-08-31T09:04:03Z</time>
      </trkpt>
      <trkpt lat="43.44083" lon="-0.37975">
        <ele>272.2</ele>
        <time>2026-08-31T09:04:04Z</time>
      </trkpt>
      <trkpt lat="43.44084" lon="-0.37975">
        <ele>272.2</ele>
        <time>2026-08-31T09:04:04Z</time>
      </trkpt>
      <trkpt lat="43.44084" lon="-0.37975">
        <ele>272.2</ele>
        <time>2026-08-31T09:04:05Z</time>
      </trkpt>
      <trkpt lat="43.44085" lon="-0.37976">
        <ele>272.2</ele>
        <time>2026-08-31T09:04:05Z</time>
      </trkpt>
      <trkpt lat="43.44086" lon="-0.37976">
        <ele>273.2</ele>
        <time>2026-08-31T09:04:06Z</time>
      </trkpt>
      <trkpt lat="43.44086" lon="-0.37976">
        <ele>273.2</ele>
        <time>2026-08-31T09:04:06Z</time>
      </trkpt>
      <trkpt lat="43.44087" lon="-0.37976">
        <ele>273.2</ele>
        <time>2026-08-31T09:04:07Z</time>
      </trkpt>
      <trkpt lat="43.44088" lon="-0.37977">
        <ele>273.2</ele>
        <time>2026-08-31T09:04:07Z</time>
      </trkpt>
      <trkpt lat="43.44088" lon="-0.37977">
        <ele>273.2</ele>
        <time>2026-08-31T09:04:08Z</time>
      </trkpt>
      <trkpt lat="43.44089" lon="-0.37977">
        <ele>273.2</ele>
        <time>2026-08-31T09:04:09Z</time>
      </trkpt>
      <trkpt lat="43.4409" lon="-0.37977">
        <ele>273.2</ele>
        <time>2026-08-31T09:04:09Z</time>
      </trkpt>
      <trkpt lat="43.44091" lon="-0.37977">
        <ele>273.2</ele>
        <time>2026-08-31T09:04:10Z</time>
      </trkpt>
      <trkpt lat="43.44091" lon="-0.37977">
        <ele>274.2</ele>
        <time>2026-08-31T09:04:10Z</time>
      </trkpt>
      <trkpt lat="43.44092" lon="-0.37977">
        <ele>274.2</ele>
        <time>2026-08-31T09:04:11Z</time>
      </trkpt>
      <trkpt lat="43.44093" lon="-0.37977">
        <ele>273.2</ele>
        <time>2026-08-31T09:04:11Z</time>
      </trkpt>
      <trkpt lat="43.44094" lon="-0.37977">
        <ele>273.2</ele>
        <time>2026-08-31T09:04:12Z</time>
      </trkpt>
      <trkpt lat="43.44094" lon="-0.37977">
        <ele>274.2</ele>
        <time>2026-08-31T09:04:12Z</time>
      </trkpt>
      <trkpt lat="43.44095" lon="-0.37977">
        <ele>274.2</ele>
        <time>2026-08-31T09:04:13Z</time>
      </trkpt>
      <trkpt lat="43.44096" lon="-0.37977">
        <ele>274.2</ele>
        <time>2026-08-31T09:04:13Z</time>
      </trkpt>
      <trkpt lat="43.44096" lon="-0.37977">
        <ele>274.2</ele>
        <time>2026-08-31T09:04:14Z</time>
      </trkpt>
      <trkpt lat="43.44097" lon="-0.37977">
        <ele>274.2</ele>
        <time>2026-08-31T09:04:14Z</time>
      </trkpt>
      <trkpt lat="43.44098" lon="-0.37978">
        <ele>274.2</ele>
        <time>2026-08-31T09:04:15Z</time>
      </trkpt>
      <trkpt lat="43.44098" lon="-0.37978">
        <ele>274.2</ele>
        <time>2026-08-31T09:04:15Z</time>
      </trkpt>
      <trkpt lat="43.441" lon="-0.37979">
        <ele>274.2</ele>
        <time>2026-08-31T09:04:16Z</time>
      </trkpt>
      <trkpt lat="43.44101" lon="-0.37979">
        <ele>274.2</ele>
        <time>2026-08-31T09:04:17Z</time>
      </trkpt>
      <trkpt lat="43.44101" lon="-0.37979">
        <ele>274.2</ele>
        <time>2026-08-31T09:04:18Z</time>
      </trkpt>
      <trkpt lat="43.44102" lon="-0.3798">
        <ele>274.2</ele>
        <time>2026-08-31T09:04:18Z</time>
      </trkpt>
      <trkpt lat="43.44103" lon="-0.3798">
        <ele>274.2</ele>
        <time>2026-08-31T09:04:19Z</time>
      </trkpt>
      <trkpt lat="43.44104" lon="-0.3798">
        <ele>274.2</ele>
        <time>2026-08-31T09:04:19Z</time>
      </trkpt>
      <trkpt lat="43.44104" lon="-0.3798">
        <ele>274.2</ele>
        <time>2026-08-31T09:04:20Z</time>
      </trkpt>
      <trkpt lat="43.44105" lon="-0.37981">
        <ele>274.2</ele>
        <time>2026-08-31T09:04:20Z</time>
      </trkpt>
      <trkpt lat="43.44106" lon="-0.37981">
        <ele>274.2</ele>
        <time>2026-08-31T09:04:21Z</time>
      </trkpt>
      <trkpt lat="43.44107" lon="-0.37981">
        <ele>274.2</ele>
        <time>2026-08-31T09:04:21Z</time>
      </trkpt>
      <trkpt lat="43.44108" lon="-0.37982">
        <ele>273.2</ele>
        <time>2026-08-31T09:04:22Z</time>
      </trkpt>
      <trkpt lat="43.44108" lon="-0.37982">
        <ele>273.2</ele>
        <time>2026-08-31T09:04:22Z</time>
      </trkpt>
      <trkpt lat="43.44109" lon="-0.37982">
        <ele>273.2</ele>
        <time>2026-08-31T09:04:23Z</time>
      </trkpt>
      <trkpt lat="43.4411" lon="-0.37982">
        <ele>273.2</ele>
        <time>2026-08-31T09:04:23Z</time>
      </trkpt>
      <trkpt lat="43.4411" lon="-0.37983">
        <ele>273.2</ele>
        <time>2026-08-31T09:04:24Z</time>
      </trkpt>
      <trkpt lat="43.44111" lon="-0.37983">
        <ele>273.2</ele>
        <time>2026-08-31T09:04:24Z</time>
      </trkpt>
      <trkpt lat="43.44112" lon="-0.37984">
        <ele>273.2</ele>
        <time>2026-08-31T09:04:25Z</time>
      </trkpt>
      <trkpt lat="43.44113" lon="-0.37984">
        <ele>273.2</ele>
        <time>2026-08-31T09:04:26Z</time>
      </trkpt>
      <trkpt lat="43.44113" lon="-0.37985">
        <ele>273.2</ele>
        <time>2026-08-31T09:04:26Z</time>
      </trkpt>
      <trkpt lat="43.44114" lon="-0.37985">
        <ele>273.2</ele>
        <time>2026-08-31T09:04:27Z</time>
      </trkpt>
      <trkpt lat="43.44115" lon="-0.37985">
        <ele>272.2</ele>
        <time>2026-08-31T09:04:27Z</time>
      </trkpt>
      <trkpt lat="43.44116" lon="-0.37985">
        <ele>272.2</ele>
        <time>2026-08-31T09:04:28Z</time>
      </trkpt>
      <trkpt lat="43.44116" lon="-0.37985">
        <ele>272.2</ele>
        <time>2026-08-31T09:04:28Z</time>
      </trkpt>
      <trkpt lat="43.44117" lon="-0.37986">
        <ele>272.2</ele>
        <time>2026-08-31T09:04:29Z</time>
      </trkpt>
      <trkpt lat="43.44117" lon="-0.37986">
        <ele>271.2</ele>
        <time>2026-08-31T09:04:29Z</time>
      </trkpt>
      <trkpt lat="43.44118" lon="-0.37986">
        <ele>271.2</ele>
        <time>2026-08-31T09:04:30Z</time>
      </trkpt>
      <trkpt lat="43.44119" lon="-0.37986">
        <ele>271.2</ele>
        <time>2026-08-31T09:04:30Z</time>
      </trkpt>
      <trkpt lat="43.44119" lon="-0.37986">
        <ele>271.2</ele>
        <time>2026-08-31T09:04:31Z</time>
      </trkpt>
      <trkpt lat="43.4412" lon="-0.37987">
        <ele>271.2</ele>
        <time>2026-08-31T09:04:31Z</time>
      </trkpt>
      <trkpt lat="43.44121" lon="-0.37987">
        <ele>271.2</ele>
        <time>2026-08-31T09:04:32Z</time>
      </trkpt>
      <trkpt lat="43.44121" lon="-0.37987">
        <ele>271.2</ele>
        <time>2026-08-31T09:04:32Z</time>
      </trkpt>
      <trkpt lat="43.44122" lon="-0.37987">
        <ele>271.2</ele>
        <time>2026-08-31T09:04:33Z</time>
      </trkpt>
      <trkpt lat="43.44123" lon="-0.37988">
        <ele>271.2</ele>
        <time>2026-08-31T09:04:34Z</time>
      </trkpt>
      <trkpt lat="43.44123" lon="-0.37988">
        <ele>271.2</ele>
        <time>2026-08-31T09:04:34Z</time>
      </trkpt>
      <trkpt lat="43.44124" lon="-0.37988">
        <ele>271.2</ele>
        <time>2026-08-31T09:04:35Z</time>
      </trkpt>
      <trkpt lat="43.44125" lon="-0.37988">
        <ele>271.2</ele>
        <time>2026-08-31T09:04:35Z</time>
      </trkpt>
      <trkpt lat="43.44125" lon="-0.37989">
        <ele>271.2</ele>
        <time>2026-08-31T09:04:36Z</time>
      </trkpt>
      <trkpt lat="43.44126" lon="-0.37989">
        <ele>271.2</ele>
        <time>2026-08-31T09:04:36Z</time>
      </trkpt>
      <trkpt lat="43.44127" lon="-0.37989">
        <ele>271.2</ele>
        <time>2026-08-31T09:04:37Z</time>
      </trkpt>
      <trkpt lat="43.44127" lon="-0.37989">
        <ele>271.2</ele>
        <time>2026-08-31T09:04:37Z</time>
      </trkpt>
      <trkpt lat="43.44128" lon="-0.3799">
        <ele>271.2</ele>
        <time>2026-08-31T09:04:38Z</time>
      </trkpt>
      <trkpt lat="43.44129" lon="-0.3799">
        <ele>271.2</ele>
        <time>2026-08-31T09:04:38Z</time>
      </trkpt>
      <trkpt lat="43.44129" lon="-0.3799">
        <ele>271.2</ele>
        <time>2026-08-31T09:04:39Z</time>
      </trkpt>
      <trkpt lat="43.4413" lon="-0.3799">
        <ele>271.2</ele>
        <time>2026-08-31T09:04:39Z</time>
      </trkpt>
      <trkpt lat="43.44131" lon="-0.3799">
        <ele>272.2</ele>
        <time>2026-08-31T09:04:40Z</time>
      </trkpt>
      <trkpt lat="43.44132" lon="-0.3799">
        <ele>272.2</ele>
        <time>2026-08-31T09:04:40Z</time>
      </trkpt>
      <trkpt lat="43.44132" lon="-0.3799">
        <ele>272.2</ele>
        <time>2026-08-31T09:04:41Z</time>
      </trkpt>
      <trkpt lat="43.44133" lon="-0.3799">
        <ele>272.2</ele>
        <time>2026-08-31T09:04:42Z</time>
      </trkpt>
      <trkpt lat="43.44134" lon="-0.37991">
        <ele>272.2</ele>
        <time>2026-08-31T09:04:42Z</time>
      </trkpt>
      <trkpt lat="43.44134" lon="-0.37991">
        <ele>272.2</ele>
        <time>2026-08-31T09:04:43Z</time>
      </trkpt>
      <trkpt lat="43.44135" lon="-0.37991">
        <ele>272.2</ele>
        <time>2026-08-31T09:04:43Z</time>
      </trkpt>
      <trkpt lat="43.44136" lon="-0.37991">
        <ele>272.2</ele>
        <time>2026-08-31T09:04:44Z</time>
      </trkpt>
      <trkpt lat="43.44136" lon="-0.37991">
        <ele>272.2</ele>
        <time>2026-08-31T09:04:44Z</time>
      </trkpt>
      <trkpt lat="43.44137" lon="-0.37991">
        <ele>272.2</ele>
        <time>2026-08-31T09:04:45Z</time>
      </trkpt>
      <trkpt lat="43.44138" lon="-0.37991">
        <ele>272.2</ele>
        <time>2026-08-31T09:04:45Z</time>
      </trkpt>
      <trkpt lat="43.44138" lon="-0.37992">
        <ele>272.2</ele>
        <time>2026-08-31T09:04:46Z</time>
      </trkpt>
      <trkpt lat="43.44139" lon="-0.37992">
        <ele>272.2</ele>
        <time>2026-08-31T09:04:46Z</time>
      </trkpt>
      <trkpt lat="43.4414" lon="-0.37992">
        <ele>272.2</ele>
        <time>2026-08-31T09:04:47Z</time>
      </trkpt>
      <trkpt lat="43.4414" lon="-0.37992">
        <ele>272.2</ele>
        <time>2026-08-31T09:04:47Z</time>
      </trkpt>
      <trkpt lat="43.44141" lon="-0.37993">
        <ele>272.2</ele>
        <time>2026-08-31T09:04:48Z</time>
      </trkpt>
      <trkpt lat="43.44141" lon="-0.37993">
        <ele>272.2</ele>
        <time>2026-08-31T09:04:48Z</time>
      </trkpt>
      <trkpt lat="43.44142" lon="-0.37993">
        <ele>272.2</ele>
        <time>2026-08-31T09:04:49Z</time>
      </trkpt>
      <trkpt lat="43.44143" lon="-0.37993">
        <ele>272.2</ele>
        <time>2026-08-31T09:04:50Z</time>
      </trkpt>
      <trkpt lat="43.44143" lon="-0.37993">
        <ele>272.2</ele>
        <time>2026-08-31T09:04:50Z</time>
      </trkpt>
      <trkpt lat="43.44144" lon="-0.37994">
        <ele>272.2</ele>
        <time>2026-08-31T09:04:51Z</time>
      </trkpt>
      <trkpt lat="43.44144" lon="-0.37994">
        <ele>272.2</ele>
        <time>2026-08-31T09:04:51Z</time>
      </trkpt>
      <trkpt lat="43.44145" lon="-0.37994">
        <ele>272.2</ele>
        <time>2026-08-31T09:04:52Z</time>
      </trkpt>
      <trkpt lat="43.44146" lon="-0.37994">
        <ele>271.2</ele>
        <time>2026-08-31T09:04:52Z</time>
      </trkpt>
      <trkpt lat="43.44146" lon="-0.37994">
        <ele>271.2</ele>
        <time>2026-08-31T09:04:53Z</time>
      </trkpt>
      <trkpt lat="43.44147" lon="-0.37994">
        <ele>271.2</ele>
        <time>2026-08-31T09:04:53Z</time>
      </trkpt>
      <trkpt lat="43.44147" lon="-0.37995">
        <ele>271.2</ele>
        <time>2026-08-31T09:04:54Z</time>
      </trkpt>
      <trkpt lat="43.44148" lon="-0.37995">
        <ele>271.2</ele>
        <time>2026-08-31T09:04:54Z</time>
      </trkpt>
      <trkpt lat="43.44149" lon="-0.37995">
        <ele>271.2</ele>
        <time>2026-08-31T09:04:55Z</time>
      </trkpt>
      <trkpt lat="43.44149" lon="-0.37996">
        <ele>271.2</ele>
        <time>2026-08-31T09:04:55Z</time>
      </trkpt>
      <trkpt lat="43.4415" lon="-0.37996">
        <ele>271.2</ele>
        <time>2026-08-31T09:04:56Z</time>
      </trkpt>
      <trkpt lat="43.44151" lon="-0.37996">
        <ele>271.2</ele>
        <time>2026-08-31T09:04:56Z</time>
      </trkpt>
      <trkpt lat="43.44151" lon="-0.37997">
        <ele>271.2</ele>
        <time>2026-08-31T09:04:57Z</time>
      </trkpt>
      <trkpt lat="43.44152" lon="-0.37997">
        <ele>271.2</ele>
        <time>2026-08-31T09:04:57Z</time>
      </trkpt>
      <trkpt lat="43.44153" lon="-0.37997">
        <ele>271.2</ele>
        <time>2026-08-31T09:04:58Z</time>
      </trkpt>
      <trkpt lat="43.44153" lon="-0.37998">
        <ele>271.2</ele>
        <time>2026-08-31T09:04:59Z</time>
      </trkpt>
      <trkpt lat="43.44154" lon="-0.37998">
        <ele>270.2</ele>
        <time>2026-08-31T09:04:59Z</time>
      </trkpt>
      <trkpt lat="43.44154" lon="-0.37998">
        <ele>270.2</ele>
        <time>2026-08-31T09:05:00Z</time>
      </trkpt>
      <trkpt lat="43.44155" lon="-0.37997">
        <ele>269.2</ele>
        <time>2026-08-31T09:05:00Z</time>
      </trkpt>
      <trkpt lat="43.44156" lon="-0.37997">
        <ele>269.2</ele>
        <time>2026-08-31T09:05:01Z</time>
      </trkpt>
      <trkpt lat="43.44156" lon="-0.37997">
        <ele>269.2</ele>
        <time>2026-08-31T09:05:01Z</time>
      </trkpt>
      <trkpt lat="43.44156" lon="-0.37997">
        <ele>269.2</ele>
        <time>2026-08-31T09:05:02Z</time>
      </trkpt>
      <trkpt lat="43.44157" lon="-0.37997">
        <ele>269.2</ele>
        <time>2026-08-31T09:05:02Z</time>
      </trkpt>
      <trkpt lat="43.44158" lon="-0.37996">
        <ele>269.2</ele>
        <time>2026-08-31T09:05:03Z</time>
      </trkpt>
      <trkpt lat="43.44158" lon="-0.37996">
        <ele>269.2</ele>
        <time>2026-08-31T09:05:03Z</time>
      </trkpt>
      <trkpt lat="43.44159" lon="-0.37996">
        <ele>269.2</ele>
        <time>2026-08-31T09:05:04Z</time>
      </trkpt>
      <trkpt lat="43.4416" lon="-0.37996">
        <ele>269.2</ele>
        <time>2026-08-31T09:05:04Z</time>
      </trkpt>
      <trkpt lat="43.4416" lon="-0.37996">
        <ele>269.2</ele>
        <time>2026-08-31T09:05:05Z</time>
      </trkpt>
      <trkpt lat="43.44161" lon="-0.37995">
        <ele>269.2</ele>
        <time>2026-08-31T09:05:05Z</time>
      </trkpt>
      <trkpt lat="43.44162" lon="-0.37995">
        <ele>269.2</ele>
        <time>2026-08-31T09:05:06Z</time>
      </trkpt>
      <trkpt lat="43.44162" lon="-0.37995">
        <ele>269.2</ele>
        <time>2026-08-31T09:05:06Z</time>
      </trkpt>
      <trkpt lat="43.44163" lon="-0.37995">
        <ele>269.2</ele>
        <time>2026-08-31T09:05:07Z</time>
      </trkpt>
      <trkpt lat="43.44164" lon="-0.37994">
        <ele>269.2</ele>
        <time>2026-08-31T09:05:08Z</time>
      </trkpt>
      <trkpt lat="43.44164" lon="-0.37994">
        <ele>269.2</ele>
        <time>2026-08-31T09:05:08Z</time>
      </trkpt>
      <trkpt lat="43.44165" lon="-0.37994">
        <ele>269.2</ele>
        <time>2026-08-31T09:05:09Z</time>
      </trkpt>
      <trkpt lat="43.44165" lon="-0.37994">
        <ele>269.2</ele>
        <time>2026-08-31T09:05:09Z</time>
      </trkpt>
      <trkpt lat="43.44166" lon="-0.37993">
        <ele>269.2</ele>
        <time>2026-08-31T09:05:10Z</time>
      </trkpt>
      <trkpt lat="43.44167" lon="-0.37993">
        <ele>269.2</ele>
        <time>2026-08-31T09:05:10Z</time>
      </trkpt>
      <trkpt lat="43.44167" lon="-0.37993">
        <ele>269.2</ele>
        <time>2026-08-31T09:05:11Z</time>
      </trkpt>
      <trkpt lat="43.44168" lon="-0.37993">
        <ele>268.2</ele>
        <time>2026-08-31T09:05:11Z</time>
      </trkpt>
      <trkpt lat="43.44168" lon="-0.37992">
        <ele>268.2</ele>
        <time>2026-08-31T09:05:12Z</time>
      </trkpt>
      <trkpt lat="43.44169" lon="-0.37992">
        <ele>268.2</ele>
        <time>2026-08-31T09:05:12Z</time>
      </trkpt>
      <trkpt lat="43.44169" lon="-0.37992">
        <ele>268.2</ele>
        <time>2026-08-31T09:05:13Z</time>
      </trkpt>
      <trkpt lat="43.4417" lon="-0.37992">
        <ele>268.2</ele>
        <time>2026-08-31T09:05:13Z</time>
      </trkpt>
      <trkpt lat="43.44171" lon="-0.37992">
        <ele>268.2</ele>
        <time>2026-08-31T09:05:14Z</time>
      </trkpt>
      <trkpt lat="43.44171" lon="-0.37991">
        <ele>268.2</ele>
        <time>2026-08-31T09:05:14Z</time>
      </trkpt>
      <trkpt lat="43.44172" lon="-0.37991">
        <ele>268.2</ele>
        <time>2026-08-31T09:05:15Z</time>
      </trkpt>
      <trkpt lat="43.44173" lon="-0.37991">
        <ele>268.2</ele>
        <time>2026-08-31T09:05:15Z</time>
      </trkpt>
      <trkpt lat="43.44174" lon="-0.37991">
        <ele>268.2</ele>
        <time>2026-08-31T09:05:16Z</time>
      </trkpt>
      <trkpt lat="43.44174" lon="-0.37991">
        <ele>268.2</ele>
        <time>2026-08-31T09:05:16Z</time>
      </trkpt>
      <trkpt lat="43.44175" lon="-0.37991">
        <ele>268.2</ele>
        <time>2026-08-31T09:05:17Z</time>
      </trkpt>
      <trkpt lat="43.44176" lon="-0.37991">
        <ele>268.2</ele>
        <time>2026-08-31T09:05:18Z</time>
      </trkpt>
      <trkpt lat="43.44176" lon="-0.37991">
        <ele>267.2</ele>
        <time>2026-08-31T09:05:18Z</time>
      </trkpt>
      <trkpt lat="43.44177" lon="-0.37991">
        <ele>267.2</ele>
        <time>2026-08-31T09:05:19Z</time>
      </trkpt>
      <trkpt lat="43.44178" lon="-0.37991">
        <ele>267.2</ele>
        <time>2026-08-31T09:05:19Z</time>
      </trkpt>
      <trkpt lat="43.44178" lon="-0.37991">
        <ele>267.2</ele>
        <time>2026-08-31T09:05:20Z</time>
      </trkpt>
      <trkpt lat="43.44179" lon="-0.37991">
        <ele>267.2</ele>
        <time>2026-08-31T09:05:20Z</time>
      </trkpt>
      <trkpt lat="43.44179" lon="-0.37991">
        <ele>267.2</ele>
        <time>2026-08-31T09:05:21Z</time>
      </trkpt>
      <trkpt lat="43.4418" lon="-0.37991">
        <ele>267.2</ele>
        <time>2026-08-31T09:05:21Z</time>
      </trkpt>
      <trkpt lat="43.44181" lon="-0.37991">
        <ele>267.2</ele>
        <time>2026-08-31T09:05:22Z</time>
      </trkpt>
      <trkpt lat="43.44182" lon="-0.37991">
        <ele>267.2</ele>
        <time>2026-08-31T09:05:22Z</time>
      </trkpt>
      <trkpt lat="43.44182" lon="-0.3799">
        <ele>267.2</ele>
        <time>2026-08-31T09:05:23Z</time>
      </trkpt>
      <trkpt lat="43.44183" lon="-0.3799">
        <ele>267.2</ele>
        <time>2026-08-31T09:05:23Z</time>
      </trkpt>
      <trkpt lat="43.44184" lon="-0.3799">
        <ele>266.2</ele>
        <time>2026-08-31T09:05:24Z</time>
      </trkpt>
      <trkpt lat="43.44184" lon="-0.3799">
        <ele>266.2</ele>
        <time>2026-08-31T09:05:24Z</time>
      </trkpt>
      <trkpt lat="43.44185" lon="-0.3799">
        <ele>266.2</ele>
        <time>2026-08-31T09:05:25Z</time>
      </trkpt>
      <trkpt lat="43.44186" lon="-0.3799">
        <ele>266.2</ele>
        <time>2026-08-31T09:05:25Z</time>
      </trkpt>
      <trkpt lat="43.44186" lon="-0.37989">
        <ele>265.2</ele>
        <time>2026-08-31T09:05:26Z</time>
      </trkpt>
      <trkpt lat="43.44187" lon="-0.37989">
        <ele>265.2</ele>
        <time>2026-08-31T09:05:27Z</time>
      </trkpt>
      <trkpt lat="43.44187" lon="-0.37989">
        <ele>265.2</ele>
        <time>2026-08-31T09:05:27Z</time>
      </trkpt>
      <trkpt lat="43.44188" lon="-0.37989">
        <ele>265.2</ele>
        <time>2026-08-31T09:05:28Z</time>
      </trkpt>
      <trkpt lat="43.44189" lon="-0.37988">
        <ele>265.2</ele>
        <time>2026-08-31T09:05:28Z</time>
      </trkpt>
      <trkpt lat="43.44189" lon="-0.37988">
        <ele>265.2</ele>
        <time>2026-08-31T09:05:29Z</time>
      </trkpt>
      <trkpt lat="43.4419" lon="-0.37988">
        <ele>265.2</ele>
        <time>2026-08-31T09:05:29Z</time>
      </trkpt>
      <trkpt lat="43.4419" lon="-0.37988">
        <ele>265.2</ele>
        <time>2026-08-31T09:05:30Z</time>
      </trkpt>
      <trkpt lat="43.44191" lon="-0.37987">
        <ele>265.2</ele>
        <time>2026-08-31T09:05:30Z</time>
      </trkpt>
      <trkpt lat="43.44192" lon="-0.37987">
        <ele>265.2</ele>
        <time>2026-08-31T09:05:31Z</time>
      </trkpt>
      <trkpt lat="43.44192" lon="-0.37987">
        <ele>265.2</ele>
        <time>2026-08-31T09:05:31Z</time>
      </trkpt>
      <trkpt lat="43.44193" lon="-0.37986">
        <ele>264.2</ele>
        <time>2026-08-31T09:05:32Z</time>
      </trkpt>
      <trkpt lat="43.44194" lon="-0.37986">
        <ele>264.2</ele>
        <time>2026-08-31T09:05:32Z</time>
      </trkpt>
      <trkpt lat="43.44195" lon="-0.37986">
        <ele>264.2</ele>
        <time>2026-08-31T09:05:33Z</time>
      </trkpt>
      <trkpt lat="43.44195" lon="-0.37986">
        <ele>264.2</ele>
        <time>2026-08-31T09:05:33Z</time>
      </trkpt>
      <trkpt lat="43.44196" lon="-0.37985">
        <ele>264.2</ele>
        <time>2026-08-31T09:05:34Z</time>
      </trkpt>
      <trkpt lat="43.44197" lon="-0.37985">
        <ele>264.2</ele>
        <time>2026-08-31T09:05:34Z</time>
      </trkpt>
      <trkpt lat="43.44198" lon="-0.37985">
        <ele>264.2</ele>
        <time>2026-08-31T09:05:35Z</time>
      </trkpt>
      <trkpt lat="43.44198" lon="-0.37985">
        <ele>264.2</ele>
        <time>2026-08-31T09:05:36Z</time>
      </trkpt>
      <trkpt lat="43.44199" lon="-0.37984">
        <ele>264.2</ele>
        <time>2026-08-31T09:05:36Z</time>
      </trkpt>
      <trkpt lat="43.442" lon="-0.37984">
        <ele>264.2</ele>
        <time>2026-08-31T09:05:37Z</time>
      </trkpt>
      <trkpt lat="43.442" lon="-0.37984">
        <ele>265.2</ele>
        <time>2026-08-31T09:05:37Z</time>
      </trkpt>
      <trkpt lat="43.44201" lon="-0.37984">
        <ele>265.2</ele>
        <time>2026-08-31T09:05:38Z</time>
      </trkpt>
      <trkpt lat="43.44202" lon="-0.37984">
        <ele>265.2</ele>
        <time>2026-08-31T09:05:38Z</time>
      </trkpt>
      <trkpt lat="43.44203" lon="-0.37983">
        <ele>265.2</ele>
        <time>2026-08-31T09:05:39Z</time>
      </trkpt>
      <trkpt lat="43.44203" lon="-0.37983">
        <ele>265.2</ele>
        <time>2026-08-31T09:05:39Z</time>
      </trkpt>
      <trkpt lat="43.44204" lon="-0.37983">
        <ele>265.2</ele>
        <time>2026-08-31T09:05:40Z</time>
      </trkpt>
      <trkpt lat="43.44205" lon="-0.37983">
        <ele>265.2</ele>
        <time>2026-08-31T09:05:40Z</time>
      </trkpt>
      <trkpt lat="43.44205" lon="-0.37983">
        <ele>265.2</ele>
        <time>2026-08-31T09:05:41Z</time>
      </trkpt>
      <trkpt lat="43.44206" lon="-0.37982">
        <ele>265.2</ele>
        <time>2026-08-31T09:05:41Z</time>
      </trkpt>
      <trkpt lat="43.44207" lon="-0.37982">
        <ele>265.2</ele>
        <time>2026-08-31T09:05:42Z</time>
      </trkpt>
      <trkpt lat="43.44207" lon="-0.37982">
        <ele>265.2</ele>
        <time>2026-08-31T09:05:43Z</time>
      </trkpt>
      <trkpt lat="43.44208" lon="-0.37982">
        <ele>265.2</ele>
        <time>2026-08-31T09:05:43Z</time>
      </trkpt>
      <trkpt lat="43.44209" lon="-0.37982">
        <ele>265.2</ele>
        <time>2026-08-31T09:05:44Z</time>
      </trkpt>
      <trkpt lat="43.44209" lon="-0.37981">
        <ele>265.2</ele>
        <time>2026-08-31T09:05:44Z</time>
      </trkpt>
      <trkpt lat="43.4421" lon="-0.37981">
        <ele>265.2</ele>
        <time>2026-08-31T09:05:45Z</time>
      </trkpt>
      <trkpt lat="43.44211" lon="-0.37981">
        <ele>265.2</ele>
        <time>2026-08-31T09:05:45Z</time>
      </trkpt>
      <trkpt lat="43.44212" lon="-0.37981">
        <ele>265.2</ele>
        <time>2026-08-31T09:05:46Z</time>
      </trkpt>
      <trkpt lat="43.44212" lon="-0.37981">
        <ele>265.2</ele>
        <time>2026-08-31T09:05:46Z</time>
      </trkpt>
      <trkpt lat="43.44213" lon="-0.3798">
        <ele>265.2</ele>
        <time>2026-08-31T09:05:47Z</time>
      </trkpt>
      <trkpt lat="43.44214" lon="-0.3798">
        <ele>265.2</ele>
        <time>2026-08-31T09:05:47Z</time>
      </trkpt>
      <trkpt lat="43.44215" lon="-0.3798">
        <ele>265.2</ele>
        <time>2026-08-31T09:05:48Z</time>
      </trkpt>
      <trkpt lat="43.44215" lon="-0.3798">
        <ele>265.2</ele>
        <time>2026-08-31T09:05:48Z</time>
      </trkpt>
      <trkpt lat="43.44216" lon="-0.3798">
        <ele>265.2</ele>
        <time>2026-08-31T09:05:49Z</time>
      </trkpt>
      <trkpt lat="43.44217" lon="-0.37979">
        <ele>265.2</ele>
        <time>2026-08-31T09:05:49Z</time>
      </trkpt>
      <trkpt lat="43.44218" lon="-0.37979">
        <ele>266.2</ele>
        <time>2026-08-31T09:05:50Z</time>
      </trkpt>
      <trkpt lat="43.44219" lon="-0.37979">
        <ele>266.2</ele>
        <time>2026-08-31T09:05:50Z</time>
      </trkpt>
      <trkpt lat="43.4422" lon="-0.37978">
        <ele>266.2</ele>
        <time>2026-08-31T09:05:51Z</time>
      </trkpt>
      <trkpt lat="43.4422" lon="-0.37978">
        <ele>266.2</ele>
        <time>2026-08-31T09:05:52Z</time>
      </trkpt>
      <trkpt lat="43.44221" lon="-0.37978">
        <ele>266.2</ele>
        <time>2026-08-31T09:05:52Z</time>
      </trkpt>
      <trkpt lat="43.44222" lon="-0.37977">
        <ele>266.2</ele>
        <time>2026-08-31T09:05:53Z</time>
      </trkpt>
      <trkpt lat="43.44222" lon="-0.37977">
        <ele>266.2</ele>
        <time>2026-08-31T09:05:53Z</time>
      </trkpt>
      <trkpt lat="43.44223" lon="-0.37976">
        <ele>266.2</ele>
        <time>2026-08-31T09:05:54Z</time>
      </trkpt>
      <trkpt lat="43.44223" lon="-0.37976">
        <ele>265.2</ele>
        <time>2026-08-31T09:05:54Z</time>
      </trkpt>
      <trkpt lat="43.44224" lon="-0.37976">
        <ele>266.2</ele>
        <time>2026-08-31T09:05:55Z</time>
      </trkpt>
      <trkpt lat="43.44225" lon="-0.37976">
        <ele>266.2</ele>
        <time>2026-08-31T09:05:55Z</time>
      </trkpt>
      <trkpt lat="43.44225" lon="-0.37975">
        <ele>266.2</ele>
        <time>2026-08-31T09:05:56Z</time>
      </trkpt>
      <trkpt lat="43.44226" lon="-0.37975">
        <ele>266.2</ele>
        <time>2026-08-31T09:05:56Z</time>
      </trkpt>
      <trkpt lat="43.44227" lon="-0.37975">
        <ele>267.2</ele>
        <time>2026-08-31T09:05:57Z</time>
      </trkpt>
      <trkpt lat="43.44227" lon="-0.37974">
        <ele>267.2</ele>
        <time>2026-08-31T09:05:57Z</time>
      </trkpt>
      <trkpt lat="43.44228" lon="-0.37974">
        <ele>267.2</ele>
        <time>2026-08-31T09:05:58Z</time>
      </trkpt>
      <trkpt lat="43.44228" lon="-0.37973">
        <ele>267.2</ele>
        <time>2026-08-31T09:05:58Z</time>
      </trkpt>
      <trkpt lat="43.44229" lon="-0.37973">
        <ele>267.2</ele>
        <time>2026-08-31T09:05:59Z</time>
      </trkpt>
      <trkpt lat="43.4423" lon="-0.37972">
        <ele>267.2</ele>
        <time>2026-08-31T09:06:00Z</time>
      </trkpt>
      <trkpt lat="43.4423" lon="-0.37972">
        <ele>267.2</ele>
        <time>2026-08-31T09:06:00Z</time>
      </trkpt>
      <trkpt lat="43.44231" lon="-0.37972">
        <ele>267.2</ele>
        <time>2026-08-31T09:06:01Z</time>
      </trkpt>
      <trkpt lat="43.44231" lon="-0.37971">
        <ele>267.2</ele>
        <time>2026-08-31T09:06:01Z</time>
      </trkpt>
      <trkpt lat="43.44232" lon="-0.37971">
        <ele>267.2</ele>
        <time>2026-08-31T09:06:02Z</time>
      </trkpt>
      <trkpt lat="43.44233" lon="-0.37971">
        <ele>267.2</ele>
        <time>2026-08-31T09:06:02Z</time>
      </trkpt>
      <trkpt lat="43.44233" lon="-0.3797">
        <ele>267.2</ele>
        <time>2026-08-31T09:06:03Z</time>
      </trkpt>
      <trkpt lat="43.44234" lon="-0.3797">
        <ele>267.2</ele>
        <time>2026-08-31T09:06:03Z</time>
      </trkpt>
      <trkpt lat="43.44235" lon="-0.3797">
        <ele>267.2</ele>
        <time>2026-08-31T09:06:04Z</time>
      </trkpt>
      <trkpt lat="43.44235" lon="-0.3797">
        <ele>267.2</ele>
        <time>2026-08-31T09:06:04Z</time>
      </trkpt>
      <trkpt lat="43.44236" lon="-0.37969">
        <ele>267.2</ele>
        <time>2026-08-31T09:06:05Z</time>
      </trkpt>
      <trkpt lat="43.44237" lon="-0.37969">
        <ele>267.2</ele>
        <time>2026-08-31T09:06:05Z</time>
      </trkpt>
      <trkpt lat="43.44237" lon="-0.37969">
        <ele>268.2</ele>
        <time>2026-08-31T09:06:06Z</time>
      </trkpt>
      <trkpt lat="43.44238" lon="-0.37968">
        <ele>268.2</ele>
        <time>2026-08-31T09:06:06Z</time>
      </trkpt>
      <trkpt lat="43.44238" lon="-0.37968">
        <ele>267.2</ele>
        <time>2026-08-31T09:06:07Z</time>
      </trkpt>
      <trkpt lat="43.44239" lon="-0.37968">
        <ele>267.2</ele>
        <time>2026-08-31T09:06:07Z</time>
      </trkpt>
      <trkpt lat="43.4424" lon="-0.37967">
        <ele>267.2</ele>
        <time>2026-08-31T09:06:08Z</time>
      </trkpt>
      <trkpt lat="43.4424" lon="-0.37967">
        <ele>267.2</ele>
        <time>2026-08-31T09:06:08Z</time>
      </trkpt>
      <trkpt lat="43.44241" lon="-0.37967">
        <ele>267.2</ele>
        <time>2026-08-31T09:06:09Z</time>
      </trkpt>
      <trkpt lat="43.44242" lon="-0.37967">
        <ele>267.2</ele>
        <time>2026-08-31T09:06:09Z</time>
      </trkpt>
      <trkpt lat="43.44242" lon="-0.37966">
        <ele>267.2</ele>
        <time>2026-08-31T09:06:10Z</time>
      </trkpt>
      <trkpt lat="43.44243" lon="-0.37966">
        <ele>267.2</ele>
        <time>2026-08-31T09:06:11Z</time>
      </trkpt>
      <trkpt lat="43.44244" lon="-0.37966">
        <ele>267.2</ele>
        <time>2026-08-31T09:06:11Z</time>
      </trkpt>
      <trkpt lat="43.44245" lon="-0.37965">
        <ele>267.2</ele>
        <time>2026-08-31T09:06:12Z</time>
      </trkpt>
      <trkpt lat="43.44245" lon="-0.37965">
        <ele>267.2</ele>
        <time>2026-08-31T09:06:12Z</time>
      </trkpt>
      <trkpt lat="43.44246" lon="-0.37965">
        <ele>267.2</ele>
        <time>2026-08-31T09:06:13Z</time>
      </trkpt>
      <trkpt lat="43.44247" lon="-0.37964">
        <ele>268.2</ele>
        <time>2026-08-31T09:06:13Z</time>
      </trkpt>
      <trkpt lat="43.44247" lon="-0.37964">
        <ele>268.2</ele>
        <time>2026-08-31T09:06:14Z</time>
      </trkpt>
      <trkpt lat="43.44248" lon="-0.37964">
        <ele>268.2</ele>
        <time>2026-08-31T09:06:14Z</time>
      </trkpt>
      <trkpt lat="43.44249" lon="-0.37964">
        <ele>268.2</ele>
        <time>2026-08-31T09:06:15Z</time>
      </trkpt>
      <trkpt lat="43.4425" lon="-0.37963">
        <ele>268.2</ele>
        <time>2026-08-31T09:06:15Z</time>
      </trkpt>
      <trkpt lat="43.4425" lon="-0.37963">
        <ele>267.2</ele>
        <time>2026-08-31T09:06:16Z</time>
      </trkpt>
      <trkpt lat="43.44251" lon="-0.37963">
        <ele>267.2</ele>
        <time>2026-08-31T09:06:16Z</time>
      </trkpt>
      <trkpt lat="43.44252" lon="-0.37962">
        <ele>268.2</ele>
        <time>2026-08-31T09:06:17Z</time>
      </trkpt>
      <trkpt lat="43.44252" lon="-0.37962">
        <ele>268.2</ele>
        <time>2026-08-31T09:06:17Z</time>
      </trkpt>
      <trkpt lat="43.44253" lon="-0.37962">
        <ele>268.2</ele>
        <time>2026-08-31T09:06:18Z</time>
      </trkpt>
      <trkpt lat="43.44254" lon="-0.37962">
        <ele>268.2</ele>
        <time>2026-08-31T09:06:18Z</time>
      </trkpt>
      <trkpt lat="43.44255" lon="-0.37961">
        <ele>268.2</ele>
        <time>2026-08-31T09:06:19Z</time>
      </trkpt>
      <trkpt lat="43.44255" lon="-0.37961">
        <ele>268.2</ele>
        <time>2026-08-31T09:06:20Z</time>
      </trkpt>
      <trkpt lat="43.44256" lon="-0.37961">
        <ele>268.2</ele>
        <time>2026-08-31T09:06:20Z</time>
      </trkpt>
      <trkpt lat="43.44257" lon="-0.3796">
        <ele>268.2</ele>
        <time>2026-08-31T09:06:21Z</time>
      </trkpt>
      <trkpt lat="43.44257" lon="-0.3796">
        <ele>268.2</ele>
        <time>2026-08-31T09:06:21Z</time>
      </trkpt>
      <trkpt lat="43.44258" lon="-0.3796">
        <ele>268.2</ele>
        <time>2026-08-31T09:06:22Z</time>
      </trkpt>
      <trkpt lat="43.44258" lon="-0.37959">
        <ele>268.2</ele>
        <time>2026-08-31T09:06:22Z</time>
      </trkpt>
      <trkpt lat="43.44259" lon="-0.37959">
        <ele>268.2</ele>
        <time>2026-08-31T09:06:23Z</time>
      </trkpt>
      <trkpt lat="43.44259" lon="-0.37959">
        <ele>267.2</ele>
        <time>2026-08-31T09:06:23Z</time>
      </trkpt>
      <trkpt lat="43.4426" lon="-0.37959">
        <ele>268.2</ele>
        <time>2026-08-31T09:06:24Z</time>
      </trkpt>
      <trkpt lat="43.44261" lon="-0.37958">
        <ele>268.2</ele>
        <time>2026-08-31T09:06:24Z</time>
      </trkpt>
      <trkpt lat="43.44261" lon="-0.37958">
        <ele>268.2</ele>
        <time>2026-08-31T09:06:25Z</time>
      </trkpt>
      <trkpt lat="43.44262" lon="-0.37958">
        <ele>268.2</ele>
        <time>2026-08-31T09:06:25Z</time>
      </trkpt>
      <trkpt lat="43.44263" lon="-0.37958">
        <ele>268.2</ele>
        <time>2026-08-31T09:06:26Z</time>
      </trkpt>
      <trkpt lat="43.44263" lon="-0.37958">
        <ele>268.2</ele>
        <time>2026-08-31T09:06:26Z</time>
      </trkpt>
      <trkpt lat="43.44264" lon="-0.37957">
        <ele>268.2</ele>
        <time>2026-08-31T09:06:27Z</time>
      </trkpt>
      <trkpt lat="43.44265" lon="-0.37957">
        <ele>268.2</ele>
        <time>2026-08-31T09:06:27Z</time>
      </trkpt>
      <trkpt lat="43.44265" lon="-0.37957">
        <ele>268.2</ele>
        <time>2026-08-31T09:06:28Z</time>
      </trkpt>
      <trkpt lat="43.44266" lon="-0.37957">
        <ele>268.2</ele>
        <time>2026-08-31T09:06:28Z</time>
      </trkpt>
      <trkpt lat="43.44267" lon="-0.37957">
        <ele>267.2</ele>
        <time>2026-08-31T09:06:29Z</time>
      </trkpt>
      <trkpt lat="43.44267" lon="-0.37956">
        <ele>267.2</ele>
        <time>2026-08-31T09:06:30Z</time>
      </trkpt>
      <trkpt lat="43.44268" lon="-0.37956">
        <ele>267.2</ele>
        <time>2026-08-31T09:06:30Z</time>
      </trkpt>
      <trkpt lat="43.44269" lon="-0.37956">
        <ele>267.2</ele>
        <time>2026-08-31T09:06:31Z</time>
      </trkpt>
      <trkpt lat="43.44269" lon="-0.37956">
        <ele>268.2</ele>
        <time>2026-08-31T09:06:31Z</time>
      </trkpt>
      <trkpt lat="43.4427" lon="-0.37956">
        <ele>268.2</ele>
        <time>2026-08-31T09:06:32Z</time>
      </trkpt>
      <trkpt lat="43.44271" lon="-0.37956">
        <ele>268.2</ele>
        <time>2026-08-31T09:06:32Z</time>
      </trkpt>
      <trkpt lat="43.44271" lon="-0.37955">
        <ele>267.2</ele>
        <time>2026-08-31T09:06:33Z</time>
      </trkpt>
      <trkpt lat="43.44272" lon="-0.37955">
        <ele>267.2</ele>
        <time>2026-08-31T09:06:33Z</time>
      </trkpt>
      <trkpt lat="43.44273" lon="-0.37955">
        <ele>267.2</ele>
        <time>2026-08-31T09:06:34Z</time>
      </trkpt>
      <trkpt lat="43.44273" lon="-0.37955">
        <ele>267.2</ele>
        <time>2026-08-31T09:06:34Z</time>
      </trkpt>
      <trkpt lat="43.44274" lon="-0.37955">
        <ele>267.2</ele>
        <time>2026-08-31T09:06:35Z</time>
      </trkpt>
      <trkpt lat="43.44275" lon="-0.37954">
        <ele>267.2</ele>
        <time>2026-08-31T09:06:35Z</time>
      </trkpt>
      <trkpt lat="43.44275" lon="-0.37954">
        <ele>268.2</ele>
        <time>2026-08-31T09:06:36Z</time>
      </trkpt>
      <trkpt lat="43.44276" lon="-0.37954">
        <ele>268.2</ele>
        <time>2026-08-31T09:06:36Z</time>
      </trkpt>
      <trkpt lat="43.44277" lon="-0.37953">
        <ele>268.2</ele>
        <time>2026-08-31T09:06:37Z</time>
      </trkpt>
      <trkpt lat="43.44277" lon="-0.37953">
        <ele>268.2</ele>
        <time>2026-08-31T09:06:37Z</time>
      </trkpt>
      <trkpt lat="43.44278" lon="-0.37952">
        <ele>268.2</ele>
        <time>2026-08-31T09:06:38Z</time>
      </trkpt>
      <trkpt lat="43.44278" lon="-0.37952">
        <ele>268.2</ele>
        <time>2026-08-31T09:06:39Z</time>
      </trkpt>
      <trkpt lat="43.44279" lon="-0.37952">
        <ele>267.2</ele>
        <time>2026-08-31T09:06:39Z</time>
      </trkpt>
      <trkpt lat="43.4428" lon="-0.37951">
        <ele>267.2</ele>
        <time>2026-08-31T09:06:40Z</time>
      </trkpt>
      <trkpt lat="43.4428" lon="-0.37951">
        <ele>268.2</ele>
        <time>2026-08-31T09:06:40Z</time>
      </trkpt>
      <trkpt lat="43.44281" lon="-0.37951">
        <ele>268.2</ele>
        <time>2026-08-31T09:06:41Z</time>
      </trkpt>
      <trkpt lat="43.44281" lon="-0.3795">
        <ele>268.2</ele>
        <time>2026-08-31T09:06:41Z</time>
      </trkpt>
      <trkpt lat="43.44282" lon="-0.3795">
        <ele>268.2</ele>
        <time>2026-08-31T09:06:42Z</time>
      </trkpt>
      <trkpt lat="43.44283" lon="-0.3795">
        <ele>268.2</ele>
        <time>2026-08-31T09:06:42Z</time>
      </trkpt>
      <trkpt lat="43.44283" lon="-0.3795">
        <ele>269.2</ele>
        <time>2026-08-31T09:06:43Z</time>
      </trkpt>
      <trkpt lat="43.44284" lon="-0.37949">
        <ele>269.2</ele>
        <time>2026-08-31T09:06:43Z</time>
      </trkpt>
      <trkpt lat="43.44284" lon="-0.37949">
        <ele>269.2</ele>
        <time>2026-08-31T09:06:44Z</time>
      </trkpt>
      <trkpt lat="43.44285" lon="-0.37948">
        <ele>269.2</ele>
        <time>2026-08-31T09:06:44Z</time>
      </trkpt>
      <trkpt lat="43.44285" lon="-0.37947">
        <ele>269.2</ele>
        <time>2026-08-31T09:06:45Z</time>
      </trkpt>
      <trkpt lat="43.44286" lon="-0.37947">
        <ele>269.2</ele>
        <time>2026-08-31T09:06:45Z</time>
      </trkpt>
      <trkpt lat="43.44286" lon="-0.37947">
        <ele>269.2</ele>
        <time>2026-08-31T09:06:46Z</time>
      </trkpt>
      <trkpt lat="43.44287" lon="-0.37946">
        <ele>269.2</ele>
        <time>2026-08-31T09:06:46Z</time>
      </trkpt>
      <trkpt lat="43.44287" lon="-0.37946">
        <ele>269.2</ele>
        <time>2026-08-31T09:06:47Z</time>
      </trkpt>
      <trkpt lat="43.44288" lon="-0.37945">
        <ele>269.2</ele>
        <time>2026-08-31T09:06:47Z</time>
      </trkpt>
      <trkpt lat="43.44288" lon="-0.37945">
        <ele>269.2</ele>
        <time>2026-08-31T09:06:48Z</time>
      </trkpt>
      <trkpt lat="43.44289" lon="-0.37944">
        <ele>269.2</ele>
        <time>2026-08-31T09:06:49Z</time>
      </trkpt>
      <trkpt lat="43.44289" lon="-0.37944">
        <ele>269.2</ele>
        <time>2026-08-31T09:06:49Z</time>
      </trkpt>
      <trkpt lat="43.4429" lon="-0.37943">
        <ele>269.2</ele>
        <time>2026-08-31T09:06:50Z</time>
      </trkpt>
      <trkpt lat="43.4429" lon="-0.37943">
        <ele>270.2</ele>
        <time>2026-08-31T09:06:50Z</time>
      </trkpt>
      <trkpt lat="43.44291" lon="-0.37942">
        <ele>270.2</ele>
        <time>2026-08-31T09:06:51Z</time>
      </trkpt>
      <trkpt lat="43.44291" lon="-0.37942">
        <ele>270.2</ele>
        <time>2026-08-31T09:06:51Z</time>
      </trkpt>
      <trkpt lat="43.44292" lon="-0.37942">
        <ele>270.2</ele>
        <time>2026-08-31T09:06:52Z</time>
      </trkpt>
      <trkpt lat="43.44292" lon="-0.37941">
        <ele>270.2</ele>
        <time>2026-08-31T09:06:52Z</time>
      </trkpt>
      <trkpt lat="43.44293" lon="-0.37941">
        <ele>271.2</ele>
        <time>2026-08-31T09:06:53Z</time>
      </trkpt>
      <trkpt lat="43.44293" lon="-0.3794">
        <ele>271.2</ele>
        <time>2026-08-31T09:06:53Z</time>
      </trkpt>
      <trkpt lat="43.44294" lon="-0.3794">
        <ele>271.2</ele>
        <time>2026-08-31T09:06:54Z</time>
      </trkpt>
      <trkpt lat="43.44295" lon="-0.3794">
        <ele>271.2</ele>
        <time>2026-08-31T09:06:54Z</time>
      </trkpt>
      <trkpt lat="43.44295" lon="-0.3794">
        <ele>271.2</ele>
        <time>2026-08-31T09:06:55Z</time>
      </trkpt>
      <trkpt lat="43.44296" lon="-0.37939">
        <ele>271.2</ele>
        <time>2026-08-31T09:06:55Z</time>
      </trkpt>
      <trkpt lat="43.44296" lon="-0.37939">
        <ele>271.2</ele>
        <time>2026-08-31T09:06:56Z</time>
      </trkpt>
      <trkpt lat="43.44297" lon="-0.37939">
        <ele>271.2</ele>
        <time>2026-08-31T09:06:57Z</time>
      </trkpt>
      <trkpt lat="43.44297" lon="-0.37939">
        <ele>271.2</ele>
        <time>2026-08-31T09:06:57Z</time>
      </trkpt>
      <trkpt lat="43.44298" lon="-0.37939">
        <ele>271.2</ele>
        <time>2026-08-31T09:06:58Z</time>
      </trkpt>
      <trkpt lat="43.44298" lon="-0.37939">
        <ele>271.2</ele>
        <time>2026-08-31T09:06:58Z</time>
      </trkpt>
      <trkpt lat="43.44299" lon="-0.37939">
        <ele>271.2</ele>
        <time>2026-08-31T09:06:59Z</time>
      </trkpt>
      <trkpt lat="43.44299" lon="-0.37938">
        <ele>270.2</ele>
        <time>2026-08-31T09:06:59Z</time>
      </trkpt>
      <trkpt lat="43.443" lon="-0.37938">
        <ele>270.2</ele>
        <time>2026-08-31T09:07:00Z</time>
      </trkpt>
      <trkpt lat="43.443" lon="-0.37938">
        <ele>270.2</ele>
        <time>2026-08-31T09:07:00Z</time>
      </trkpt>
      <trkpt lat="43.44301" lon="-0.37938">
        <ele>270.2</ele>
        <time>2026-08-31T09:07:01Z</time>
      </trkpt>
      <trkpt lat="43.44301" lon="-0.37938">
        <ele>270.2</ele>
        <time>2026-08-31T09:07:01Z</time>
      </trkpt>
      <trkpt lat="43.44302" lon="-0.37937">
        <ele>270.2</ele>
        <time>2026-08-31T09:07:02Z</time>
      </trkpt>
      <trkpt lat="43.44303" lon="-0.37937">
        <ele>270.2</ele>
        <time>2026-08-31T09:07:02Z</time>
      </trkpt>
      <trkpt lat="43.44303" lon="-0.37937">
        <ele>270.2</ele>
        <time>2026-08-31T09:07:03Z</time>
      </trkpt>
      <trkpt lat="43.44304" lon="-0.37937">
        <ele>270.2</ele>
        <time>2026-08-31T09:07:03Z</time>
      </trkpt>
      <trkpt lat="43.44305" lon="-0.37937">
        <ele>270.2</ele>
        <time>2026-08-31T09:07:04Z</time>
      </trkpt>
      <trkpt lat="43.44305" lon="-0.37936">
        <ele>270.2</ele>
        <time>2026-08-31T09:07:04Z</time>
      </trkpt>
      <trkpt lat="43.44306" lon="-0.37936">
        <ele>270.2</ele>
        <time>2026-08-31T09:07:05Z</time>
      </trkpt>
      <trkpt lat="43.44307" lon="-0.37936">
        <ele>270.2</ele>
        <time>2026-08-31T09:07:06Z</time>
      </trkpt>
      <trkpt lat="43.44308" lon="-0.37936">
        <ele>270.2</ele>
        <time>2026-08-31T09:07:06Z</time>
      </trkpt>
      <trkpt lat="43.44308" lon="-0.37936">
        <ele>270.2</ele>
        <time>2026-08-31T09:07:07Z</time>
      </trkpt>
      <trkpt lat="43.44309" lon="-0.37936">
        <ele>271.2</ele>
        <time>2026-08-31T09:07:07Z</time>
      </trkpt>
      <trkpt lat="43.4431" lon="-0.37936">
        <ele>271.2</ele>
        <time>2026-08-31T09:07:08Z</time>
      </trkpt>
      <trkpt lat="43.44311" lon="-0.37936">
        <ele>271.2</ele>
        <time>2026-08-31T09:07:08Z</time>
      </trkpt>
      <trkpt lat="43.44311" lon="-0.37936">
        <ele>271.2</ele>
        <time>2026-08-31T09:07:09Z</time>
      </trkpt>
      <trkpt lat="43.44312" lon="-0.37936">
        <ele>271.2</ele>
        <time>2026-08-31T09:07:09Z</time>
      </trkpt>
      <trkpt lat="43.44313" lon="-0.37936">
        <ele>270.2</ele>
        <time>2026-08-31T09:07:10Z</time>
      </trkpt>
      <trkpt lat="43.44314" lon="-0.37936">
        <ele>270.2</ele>
        <time>2026-08-31T09:07:10Z</time>
      </trkpt>
      <trkpt lat="43.44314" lon="-0.37936">
        <ele>270.2</ele>
        <time>2026-08-31T09:07:11Z</time>
      </trkpt>
      <trkpt lat="43.44315" lon="-0.37936">
        <ele>270.2</ele>
        <time>2026-08-31T09:07:11Z</time>
      </trkpt>
      <trkpt lat="43.44316" lon="-0.37936">
        <ele>270.2</ele>
        <time>2026-08-31T09:07:12Z</time>
      </trkpt>
      <trkpt lat="43.44317" lon="-0.37936">
        <ele>270.2</ele>
        <time>2026-08-31T09:07:12Z</time>
      </trkpt>
      <trkpt lat="43.44317" lon="-0.37936">
        <ele>270.2</ele>
        <time>2026-08-31T09:07:13Z</time>
      </trkpt>
      <trkpt lat="43.44318" lon="-0.37936">
        <ele>270.2</ele>
        <time>2026-08-31T09:07:13Z</time>
      </trkpt>
      <trkpt lat="43.44319" lon="-0.37935">
        <ele>270.2</ele>
        <time>2026-08-31T09:07:14Z</time>
      </trkpt>
      <trkpt lat="43.4432" lon="-0.37935">
        <ele>270.2</ele>
        <time>2026-08-31T09:07:15Z</time>
      </trkpt>
      <trkpt lat="43.4432" lon="-0.37935">
        <ele>270.2</ele>
        <time>2026-08-31T09:07:15Z</time>
      </trkpt>
      <trkpt lat="43.44321" lon="-0.37935">
        <ele>270.2</ele>
        <time>2026-08-31T09:07:16Z</time>
      </trkpt>
      <trkpt lat="43.44321" lon="-0.37934">
        <ele>270.2</ele>
        <time>2026-08-31T09:07:16Z</time>
      </trkpt>
      <trkpt lat="43.44322" lon="-0.37934">
        <ele>270.2</ele>
        <time>2026-08-31T09:07:17Z</time>
      </trkpt>
      <trkpt lat="43.44322" lon="-0.37934">
        <ele>270.2</ele>
        <time>2026-08-31T09:07:17Z</time>
      </trkpt>
      <trkpt lat="43.44323" lon="-0.37934">
        <ele>270.2</ele>
        <time>2026-08-31T09:07:18Z</time>
      </trkpt>
      <trkpt lat="43.44324" lon="-0.37933">
        <ele>270.2</ele>
        <time>2026-08-31T09:07:18Z</time>
      </trkpt>
      <trkpt lat="43.44324" lon="-0.37933">
        <ele>270.2</ele>
        <time>2026-08-31T09:07:19Z</time>
      </trkpt>
      <trkpt lat="43.44325" lon="-0.37933">
        <ele>270.2</ele>
        <time>2026-08-31T09:07:19Z</time>
      </trkpt>
      <trkpt lat="43.44326" lon="-0.37932">
        <ele>270.2</ele>
        <time>2026-08-31T09:07:20Z</time>
      </trkpt>
      <trkpt lat="43.44327" lon="-0.37932">
        <ele>270.2</ele>
        <time>2026-08-31T09:07:20Z</time>
      </trkpt>
      <trkpt lat="43.44328" lon="-0.37932">
        <ele>270.2</ele>
        <time>2026-08-31T09:07:21Z</time>
      </trkpt>
      <trkpt lat="43.44328" lon="-0.37932">
        <ele>270.2</ele>
        <time>2026-08-31T09:07:21Z</time>
      </trkpt>
      <trkpt lat="43.44329" lon="-0.37932">
        <ele>270.2</ele>
        <time>2026-08-31T09:07:22Z</time>
      </trkpt>
      <trkpt lat="43.4433" lon="-0.37932">
        <ele>270.2</ele>
        <time>2026-08-31T09:07:22Z</time>
      </trkpt>
      <trkpt lat="43.44331" lon="-0.37931">
        <ele>270.2</ele>
        <time>2026-08-31T09:07:23Z</time>
      </trkpt>
      <trkpt lat="43.44332" lon="-0.37931">
        <ele>270.2</ele>
        <time>2026-08-31T09:07:24Z</time>
      </trkpt>
      <trkpt lat="43.44332" lon="-0.37931">
        <ele>271.2</ele>
        <time>2026-08-31T09:07:24Z</time>
      </trkpt>
      <trkpt lat="43.44333" lon="-0.37931">
        <ele>271.2</ele>
        <time>2026-08-31T09:07:25Z</time>
      </trkpt>
      <trkpt lat="43.44334" lon="-0.37931">
        <ele>270.2</ele>
        <time>2026-08-31T09:07:25Z</time>
      </trkpt>
      <trkpt lat="43.44335" lon="-0.3793">
        <ele>270.2</ele>
        <time>2026-08-31T09:07:26Z</time>
      </trkpt>
      <trkpt lat="43.44335" lon="-0.3793">
        <ele>270.2</ele>
        <time>2026-08-31T09:07:26Z</time>
      </trkpt>
      <trkpt lat="43.44336" lon="-0.3793">
        <ele>270.2</ele>
        <time>2026-08-31T09:07:27Z</time>
      </trkpt>
      <trkpt lat="43.44337" lon="-0.3793">
        <ele>270.2</ele>
        <time>2026-08-31T09:07:27Z</time>
      </trkpt>
      <trkpt lat="43.44338" lon="-0.3793">
        <ele>270.2</ele>
        <time>2026-08-31T09:07:28Z</time>
      </trkpt>
      <trkpt lat="43.44338" lon="-0.3793">
        <ele>270.2</ele>
        <time>2026-08-31T09:07:28Z</time>
      </trkpt>
      <trkpt lat="43.44339" lon="-0.37929">
        <ele>270.2</ele>
        <time>2026-08-31T09:07:29Z</time>
      </trkpt>
      <trkpt lat="43.4434" lon="-0.37929">
        <ele>270.2</ele>
        <time>2026-08-31T09:07:29Z</time>
      </trkpt>
      <trkpt lat="43.44341" lon="-0.37929">
        <ele>269.2</ele>
        <time>2026-08-31T09:07:30Z</time>
      </trkpt>
      <trkpt lat="43.44342" lon="-0.37929">
        <ele>269.2</ele>
        <time>2026-08-31T09:07:30Z</time>
      </trkpt>
      <trkpt lat="43.44342" lon="-0.37928">
        <ele>269.2</ele>
        <time>2026-08-31T09:07:31Z</time>
      </trkpt>
      <trkpt lat="43.44343" lon="-0.37928">
        <ele>269.2</ele>
        <time>2026-08-31T09:07:31Z</time>
      </trkpt>
      <trkpt lat="43.44344" lon="-0.37928">
        <ele>270.2</ele>
        <time>2026-08-31T09:07:32Z</time>
      </trkpt>
      <trkpt lat="43.44345" lon="-0.37928">
        <ele>270.2</ele>
        <time>2026-08-31T09:07:32Z</time>
      </trkpt>
      <trkpt lat="43.44345" lon="-0.37928">
        <ele>269.2</ele>
        <time>2026-08-31T09:07:33Z</time>
      </trkpt>
      <trkpt lat="43.44346" lon="-0.37927">
        <ele>269.2</ele>
        <time>2026-08-31T09:07:34Z</time>
      </trkpt>
      <trkpt lat="43.44347" lon="-0.37927">
        <ele>269.2</ele>
        <time>2026-08-31T09:07:34Z</time>
      </trkpt>
      <trkpt lat="43.44347" lon="-0.37927">
        <ele>269.2</ele>
        <time>2026-08-31T09:07:35Z</time>
      </trkpt>
      <trkpt lat="43.44348" lon="-0.37927">
        <ele>270.2</ele>
        <time>2026-08-31T09:07:35Z</time>
      </trkpt>
      <trkpt lat="43.44349" lon="-0.37927">
        <ele>270.2</ele>
        <time>2026-08-31T09:07:36Z</time>
      </trkpt>
      <trkpt lat="43.44349" lon="-0.37927">
        <ele>269.2</ele>
        <time>2026-08-31T09:07:36Z</time>
      </trkpt>
      <trkpt lat="43.4435" lon="-0.37927">
        <ele>269.2</ele>
        <time>2026-08-31T09:07:37Z</time>
      </trkpt>
      <trkpt lat="43.44351" lon="-0.37926">
        <ele>269.2</ele>
        <time>2026-08-31T09:07:37Z</time>
      </trkpt>
      <trkpt lat="43.44351" lon="-0.37926">
        <ele>269.2</ele>
        <time>2026-08-31T09:07:38Z</time>
      </trkpt>
      <trkpt lat="43.44352" lon="-0.37926">
        <ele>269.2</ele>
        <time>2026-08-31T09:07:38Z</time>
      </trkpt>
      <trkpt lat="43.44353" lon="-0.37926">
        <ele>269.2</ele>
        <time>2026-08-31T09:07:39Z</time>
      </trkpt>
      <trkpt lat="43.44354" lon="-0.37926">
        <ele>269.2</ele>
        <time>2026-08-31T09:07:39Z</time>
      </trkpt>
      <trkpt lat="43.44354" lon="-0.37926">
        <ele>269.2</ele>
        <time>2026-08-31T09:07:40Z</time>
      </trkpt>
      <trkpt lat="43.44355" lon="-0.37925">
        <ele>269.2</ele>
        <time>2026-08-31T09:07:40Z</time>
      </trkpt>
      <trkpt lat="43.44356" lon="-0.37925">
        <ele>269.2</ele>
        <time>2026-08-31T09:07:41Z</time>
      </trkpt>
      <trkpt lat="43.44356" lon="-0.37925">
        <ele>269.2</ele>
        <time>2026-08-31T09:07:41Z</time>
      </trkpt>
      <trkpt lat="43.44357" lon="-0.37925">
        <ele>269.2</ele>
        <time>2026-08-31T09:07:42Z</time>
      </trkpt>
      <trkpt lat="43.44358" lon="-0.37924">
        <ele>269.2</ele>
        <time>2026-08-31T09:07:42Z</time>
      </trkpt>
      <trkpt lat="43.44359" lon="-0.37924">
        <ele>270.2</ele>
        <time>2026-08-31T09:07:43Z</time>
      </trkpt>
      <trkpt lat="43.44359" lon="-0.37924">
        <ele>270.2</ele>
        <time>2026-08-31T09:07:44Z</time>
      </trkpt>
      <trkpt lat="43.4436" lon="-0.37923">
        <ele>270.2</ele>
        <time>2026-08-31T09:07:44Z</time>
      </trkpt>
      <trkpt lat="43.44361" lon="-0.37923">
        <ele>270.2</ele>
        <time>2026-08-31T09:07:45Z</time>
      </trkpt>
      <trkpt lat="43.44362" lon="-0.37923">
        <ele>270.2</ele>
        <time>2026-08-31T09:07:45Z</time>
      </trkpt>
      <trkpt lat="43.44362" lon="-0.37922">
        <ele>270.2</ele>
        <time>2026-08-31T09:07:46Z</time>
      </trkpt>
      <trkpt lat="43.44363" lon="-0.37922">
        <ele>270.2</ele>
        <time>2026-08-31T09:07:46Z</time>
      </trkpt>
      <trkpt lat="43.44364" lon="-0.37922">
        <ele>270.2</ele>
        <time>2026-08-31T09:07:47Z</time>
      </trkpt>
      <trkpt lat="43.44364" lon="-0.37922">
        <ele>270.2</ele>
        <time>2026-08-31T09:07:47Z</time>
      </trkpt>
      <trkpt lat="43.44365" lon="-0.37921">
        <ele>270.2</ele>
        <time>2026-08-31T09:07:48Z</time>
      </trkpt>
      <trkpt lat="43.44366" lon="-0.37921">
        <ele>270.2</ele>
        <time>2026-08-31T09:07:48Z</time>
      </trkpt>
      <trkpt lat="43.44367" lon="-0.37921">
        <ele>270.2</ele>
        <time>2026-08-31T09:07:49Z</time>
      </trkpt>
      <trkpt lat="43.44367" lon="-0.3792">
        <ele>270.2</ele>
        <time>2026-08-31T09:07:49Z</time>
      </trkpt>
      <trkpt lat="43.44368" lon="-0.3792">
        <ele>270.2</ele>
        <time>2026-08-31T09:07:50Z</time>
      </trkpt>
      <trkpt lat="43.44369" lon="-0.3792">
        <ele>270.2</ele>
        <time>2026-08-31T09:07:50Z</time>
      </trkpt>
      <trkpt lat="43.4437" lon="-0.3792">
        <ele>270.2</ele>
        <time>2026-08-31T09:07:51Z</time>
      </trkpt>
      <trkpt lat="43.4437" lon="-0.37919">
        <ele>270.2</ele>
        <time>2026-08-31T09:07:51Z</time>
      </trkpt>
      <trkpt lat="43.44371" lon="-0.37919">
        <ele>270.2</ele>
        <time>2026-08-31T09:07:52Z</time>
      </trkpt>
      <trkpt lat="43.44372" lon="-0.37919">
        <ele>270.2</ele>
        <time>2026-08-31T09:07:53Z</time>
      </trkpt>
      <trkpt lat="43.44372" lon="-0.37918">
        <ele>270.2</ele>
        <time>2026-08-31T09:07:53Z</time>
      </trkpt>
      <trkpt lat="43.44373" lon="-0.37918">
        <ele>270.2</ele>
        <time>2026-08-31T09:07:54Z</time>
      </trkpt>
      <trkpt lat="43.44374" lon="-0.37918">
        <ele>269.2</ele>
        <time>2026-08-31T09:07:54Z</time>
      </trkpt>
      <trkpt lat="43.44374" lon="-0.37917">
        <ele>269.2</ele>
        <time>2026-08-31T09:07:55Z</time>
      </trkpt>
      <trkpt lat="43.44375" lon="-0.37917">
        <ele>270.2</ele>
        <time>2026-08-31T09:07:55Z</time>
      </trkpt>
      <trkpt lat="43.44376" lon="-0.37917">
        <ele>269.2</ele>
        <time>2026-08-31T09:07:56Z</time>
      </trkpt>
      <trkpt lat="43.44377" lon="-0.37917">
        <ele>269.2</ele>
        <time>2026-08-31T09:07:56Z</time>
      </trkpt>
      <trkpt lat="43.44377" lon="-0.37916">
        <ele>270.2</ele>
        <time>2026-08-31T09:07:57Z</time>
      </trkpt>
      <trkpt lat="43.44378" lon="-0.37916">
        <ele>270.2</ele>
        <time>2026-08-31T09:07:57Z</time>
      </trkpt>
      <trkpt lat="43.44379" lon="-0.37916">
        <ele>270.2</ele>
        <time>2026-08-31T09:07:58Z</time>
      </trkpt>
      <trkpt lat="43.44379" lon="-0.37916">
        <ele>270.2</ele>
        <time>2026-08-31T09:07:58Z</time>
      </trkpt>
      <trkpt lat="43.4438" lon="-0.37915">
        <ele>270.2</ele>
        <time>2026-08-31T09:07:59Z</time>
      </trkpt>
      <trkpt lat="43.44381" lon="-0.37915">
        <ele>270.2</ele>
        <time>2026-08-31T09:07:59Z</time>
      </trkpt>
      <trkpt lat="43.44381" lon="-0.37915">
        <ele>270.2</ele>
        <time>2026-08-31T09:08:00Z</time>
      </trkpt>
      <trkpt lat="43.44382" lon="-0.37915">
        <ele>270.2</ele>
        <time>2026-08-31T09:08:00Z</time>
      </trkpt>
      <trkpt lat="43.44383" lon="-0.37915">
        <ele>270.2</ele>
        <time>2026-08-31T09:08:01Z</time>
      </trkpt>
      <trkpt lat="43.44383" lon="-0.37914">
        <ele>270.2</ele>
        <time>2026-08-31T09:08:02Z</time>
      </trkpt>
      <trkpt lat="43.44384" lon="-0.37914">
        <ele>270.2</ele>
        <time>2026-08-31T09:08:02Z</time>
      </trkpt>
      <trkpt lat="43.44385" lon="-0.37914">
        <ele>270.2</ele>
        <time>2026-08-31T09:08:03Z</time>
      </trkpt>
      <trkpt lat="43.44385" lon="-0.37914">
        <ele>270.2</ele>
        <time>2026-08-31T09:08:03Z</time>
      </trkpt>
      <trkpt lat="43.44386" lon="-0.37913">
        <ele>270.2</ele>
        <time>2026-08-31T09:08:04Z</time>
      </trkpt>
      <trkpt lat="43.44387" lon="-0.37913">
        <ele>270.2</ele>
        <time>2026-08-31T09:08:04Z</time>
      </trkpt>
      <trkpt lat="43.44388" lon="-0.37913">
        <ele>270.2</ele>
        <time>2026-08-31T09:08:05Z</time>
      </trkpt>
      <trkpt lat="43.44388" lon="-0.37913">
        <ele>270.2</ele>
        <time>2026-08-31T09:08:05Z</time>
      </trkpt>
      <trkpt lat="43.44389" lon="-0.37912">
        <ele>270.2</ele>
        <time>2026-08-31T09:08:06Z</time>
      </trkpt>
      <trkpt lat="43.4439" lon="-0.37912">
        <ele>270.2</ele>
        <time>2026-08-31T09:08:06Z</time>
      </trkpt>
      <trkpt lat="43.4439" lon="-0.37912">
        <ele>271.2</ele>
        <time>2026-08-31T09:08:07Z</time>
      </trkpt>
      <trkpt lat="43.44391" lon="-0.37912">
        <ele>271.2</ele>
        <time>2026-08-31T09:08:07Z</time>
      </trkpt>
      <trkpt lat="43.44392" lon="-0.37912">
        <ele>271.2</ele>
        <time>2026-08-31T09:08:08Z</time>
      </trkpt>
      <trkpt lat="43.44393" lon="-0.37912">
        <ele>271.2</ele>
        <time>2026-08-31T09:08:08Z</time>
      </trkpt>
      <trkpt lat="43.44393" lon="-0.37911">
        <ele>271.2</ele>
        <time>2026-08-31T09:08:09Z</time>
      </trkpt>
      <trkpt lat="43.44394" lon="-0.37911">
        <ele>271.2</ele>
        <time>2026-08-31T09:08:10Z</time>
      </trkpt>
      <trkpt lat="43.44395" lon="-0.37911">
        <ele>270.2</ele>
        <time>2026-08-31T09:08:10Z</time>
      </trkpt>
      <trkpt lat="43.44395" lon="-0.3791">
        <ele>270.2</ele>
        <time>2026-08-31T09:08:11Z</time>
      </trkpt>
      <trkpt lat="43.44396" lon="-0.3791">
        <ele>270.2</ele>
        <time>2026-08-31T09:08:11Z</time>
      </trkpt>
      <trkpt lat="43.44397" lon="-0.3791">
        <ele>270.2</ele>
        <time>2026-08-31T09:08:12Z</time>
      </trkpt>
      <trkpt lat="43.44397" lon="-0.37909">
        <ele>270.2</ele>
        <time>2026-08-31T09:08:12Z</time>
      </trkpt>
      <trkpt lat="43.44398" lon="-0.37909">
        <ele>270.2</ele>
        <time>2026-08-31T09:08:13Z</time>
      </trkpt>
      <trkpt lat="43.44399" lon="-0.37909">
        <ele>270.2</ele>
        <time>2026-08-31T09:08:13Z</time>
      </trkpt>
      <trkpt lat="43.44399" lon="-0.37908">
        <ele>270.2</ele>
        <time>2026-08-31T09:08:14Z</time>
      </trkpt>
      <trkpt lat="43.444" lon="-0.37908">
        <ele>270.2</ele>
        <time>2026-08-31T09:08:14Z</time>
      </trkpt>
      <trkpt lat="43.44401" lon="-0.37908">
        <ele>271.2</ele>
        <time>2026-08-31T09:08:15Z</time>
      </trkpt>
      <trkpt lat="43.44401" lon="-0.37907">
        <ele>271.2</ele>
        <time>2026-08-31T09:08:15Z</time>
      </trkpt>
      <trkpt lat="43.44402" lon="-0.37907">
        <ele>270.2</ele>
        <time>2026-08-31T09:08:16Z</time>
      </trkpt>
      <trkpt lat="43.44403" lon="-0.37907">
        <ele>270.2</ele>
        <time>2026-08-31T09:08:16Z</time>
      </trkpt>
      <trkpt lat="43.44403" lon="-0.37907">
        <ele>271.2</ele>
        <time>2026-08-31T09:08:17Z</time>
      </trkpt>
      <trkpt lat="43.44404" lon="-0.37906">
        <ele>271.2</ele>
        <time>2026-08-31T09:08:18Z</time>
      </trkpt>
      <trkpt lat="43.44405" lon="-0.37906">
        <ele>271.2</ele>
        <time>2026-08-31T09:08:18Z</time>
      </trkpt>
      <trkpt lat="43.44405" lon="-0.37906">
        <ele>271.2</ele>
        <time>2026-08-31T09:08:19Z</time>
      </trkpt>
      <trkpt lat="43.44406" lon="-0.37905">
        <ele>271.2</ele>
        <time>2026-08-31T09:08:19Z</time>
      </trkpt>
      <trkpt lat="43.44407" lon="-0.37905">
        <ele>271.2</ele>
        <time>2026-08-31T09:08:20Z</time>
      </trkpt>
      <trkpt lat="43.44407" lon="-0.37905">
        <ele>271.2</ele>
        <time>2026-08-31T09:08:20Z</time>
      </trkpt>
      <trkpt lat="43.44408" lon="-0.37904">
        <ele>271.2</ele>
        <time>2026-08-31T09:08:21Z</time>
      </trkpt>
      <trkpt lat="43.44409" lon="-0.37904">
        <ele>271.2</ele>
        <time>2026-08-31T09:08:21Z</time>
      </trkpt>
      <trkpt lat="43.44409" lon="-0.37904">
        <ele>272.2</ele>
        <time>2026-08-31T09:08:22Z</time>
      </trkpt>
      <trkpt lat="43.4441" lon="-0.37904">
        <ele>272.2</ele>
        <time>2026-08-31T09:08:22Z</time>
      </trkpt>
      <trkpt lat="43.44411" lon="-0.37904">
        <ele>272.2</ele>
        <time>2026-08-31T09:08:23Z</time>
      </trkpt>
      <trkpt lat="43.44411" lon="-0.37903">
        <ele>272.2</ele>
        <time>2026-08-31T09:08:23Z</time>
      </trkpt>
      <trkpt lat="43.44412" lon="-0.37904">
        <ele>272.2</ele>
        <time>2026-08-31T09:08:24Z</time>
      </trkpt>
      <trkpt lat="43.44413" lon="-0.37903">
        <ele>272.2</ele>
        <time>2026-08-31T09:08:24Z</time>
      </trkpt>
      <trkpt lat="43.44413" lon="-0.37904">
        <ele>272.2</ele>
        <time>2026-08-31T09:08:25Z</time>
      </trkpt>
      <trkpt lat="43.44414" lon="-0.37903">
        <ele>272.2</ele>
        <time>2026-08-31T09:08:26Z</time>
      </trkpt>
      <trkpt lat="43.44415" lon="-0.37903">
        <ele>272.2</ele>
        <time>2026-08-31T09:08:26Z</time>
      </trkpt>
      <trkpt lat="43.44415" lon="-0.37903">
        <ele>272.2</ele>
        <time>2026-08-31T09:08:27Z</time>
      </trkpt>
      <trkpt lat="43.44416" lon="-0.37903">
        <ele>272.2</ele>
        <time>2026-08-31T09:08:27Z</time>
      </trkpt>
      <trkpt lat="43.44416" lon="-0.37903">
        <ele>271.2</ele>
        <time>2026-08-31T09:08:28Z</time>
      </trkpt>
      <trkpt lat="43.44417" lon="-0.37903">
        <ele>271.2</ele>
        <time>2026-08-31T09:08:28Z</time>
      </trkpt>
      <trkpt lat="43.44418" lon="-0.37903">
        <ele>271.2</ele>
        <time>2026-08-31T09:08:29Z</time>
      </trkpt>
      <trkpt lat="43.44419" lon="-0.37902">
        <ele>271.2</ele>
        <time>2026-08-31T09:08:29Z</time>
      </trkpt>
      <trkpt lat="43.44419" lon="-0.37902">
        <ele>271.2</ele>
        <time>2026-08-31T09:08:30Z</time>
      </trkpt>
      <trkpt lat="43.4442" lon="-0.37902">
        <ele>271.2</ele>
        <time>2026-08-31T09:08:30Z</time>
      </trkpt>
      <trkpt lat="43.44421" lon="-0.37901">
        <ele>271.2</ele>
        <time>2026-08-31T09:08:31Z</time>
      </trkpt>
      <trkpt lat="43.44421" lon="-0.37901">
        <ele>271.2</ele>
        <time>2026-08-31T09:08:31Z</time>
      </trkpt>
      <trkpt lat="43.44422" lon="-0.37901">
        <ele>271.2</ele>
        <time>2026-08-31T09:08:32Z</time>
      </trkpt>
      <trkpt lat="43.44423" lon="-0.37901">
        <ele>271.2</ele>
        <time>2026-08-31T09:08:33Z</time>
      </trkpt>
      <trkpt lat="43.44424" lon="-0.379">
        <ele>272.2</ele>
        <time>2026-08-31T09:08:33Z</time>
      </trkpt>
      <trkpt lat="43.44424" lon="-0.379">
        <ele>272.2</ele>
        <time>2026-08-31T09:08:34Z</time>
      </trkpt>
      <trkpt lat="43.44425" lon="-0.379">
        <ele>272.2</ele>
        <time>2026-08-31T09:08:34Z</time>
      </trkpt>
      <trkpt lat="43.44426" lon="-0.379">
        <ele>272.2</ele>
        <time>2026-08-31T09:08:35Z</time>
      </trkpt>
      <trkpt lat="43.44426" lon="-0.37899">
        <ele>272.2</ele>
        <time>2026-08-31T09:08:35Z</time>
      </trkpt>
      <trkpt lat="43.44427" lon="-0.37899">
        <ele>271.2</ele>
        <time>2026-08-31T09:08:36Z</time>
      </trkpt>
      <trkpt lat="43.44428" lon="-0.37899">
        <ele>271.2</ele>
        <time>2026-08-31T09:08:36Z</time>
      </trkpt>
      <trkpt lat="43.44429" lon="-0.37898">
        <ele>271.2</ele>
        <time>2026-08-31T09:08:37Z</time>
      </trkpt>
      <trkpt lat="43.44429" lon="-0.37898">
        <ele>271.2</ele>
        <time>2026-08-31T09:08:37Z</time>
      </trkpt>
      <trkpt lat="43.4443" lon="-0.37898">
        <ele>271.2</ele>
        <time>2026-08-31T09:08:38Z</time>
      </trkpt>
      <trkpt lat="43.44431" lon="-0.37897">
        <ele>271.2</ele>
        <time>2026-08-31T09:08:38Z</time>
      </trkpt>
      <trkpt lat="43.44431" lon="-0.37897">
        <ele>271.2</ele>
        <time>2026-08-31T09:08:39Z</time>
      </trkpt>
      <trkpt lat="43.44432" lon="-0.37897">
        <ele>271.2</ele>
        <time>2026-08-31T09:08:39Z</time>
      </trkpt>
      <trkpt lat="43.44433" lon="-0.37896">
        <ele>271.2</ele>
        <time>2026-08-31T09:08:40Z</time>
      </trkpt>
      <trkpt lat="43.44434" lon="-0.37896">
        <ele>271.2</ele>
        <time>2026-08-31T09:08:41Z</time>
      </trkpt>
      <trkpt lat="43.44434" lon="-0.37896">
        <ele>271.2</ele>
        <time>2026-08-31T09:08:41Z</time>
      </trkpt>
      <trkpt lat="43.44435" lon="-0.37895">
        <ele>271.2</ele>
        <time>2026-08-31T09:08:42Z</time>
      </trkpt>
      <trkpt lat="43.44436" lon="-0.37895">
        <ele>271.2</ele>
        <time>2026-08-31T09:08:42Z</time>
      </trkpt>
      <trkpt lat="43.44436" lon="-0.37895">
        <ele>271.2</ele>
        <time>2026-08-31T09:08:43Z</time>
      </trkpt>
      <trkpt lat="43.44437" lon="-0.37895">
        <ele>271.2</ele>
        <time>2026-08-31T09:08:43Z</time>
      </trkpt>
      <trkpt lat="43.44438" lon="-0.37895">
        <ele>271.2</ele>
        <time>2026-08-31T09:08:44Z</time>
      </trkpt>
      <trkpt lat="43.44438" lon="-0.37895">
        <ele>271.2</ele>
        <time>2026-08-31T09:08:44Z</time>
      </trkpt>
      <trkpt lat="43.44439" lon="-0.37895">
        <ele>271.2</ele>
        <time>2026-08-31T09:08:45Z</time>
      </trkpt>
      <trkpt lat="43.4444" lon="-0.37894">
        <ele>271.2</ele>
        <time>2026-08-31T09:08:45Z</time>
      </trkpt>
      <trkpt lat="43.44441" lon="-0.37894">
        <ele>271.2</ele>
        <time>2026-08-31T09:08:46Z</time>
      </trkpt>
      <trkpt lat="43.44441" lon="-0.37894">
        <ele>271.2</ele>
        <time>2026-08-31T09:08:46Z</time>
      </trkpt>
      <trkpt lat="43.44442" lon="-0.37894">
        <ele>270.2</ele>
        <time>2026-08-31T09:08:47Z</time>
      </trkpt>
      <trkpt lat="43.44443" lon="-0.37894">
        <ele>270.2</ele>
        <time>2026-08-31T09:08:48Z</time>
      </trkpt>
      <trkpt lat="43.44443" lon="-0.37893">
        <ele>270.2</ele>
        <time>2026-08-31T09:08:48Z</time>
      </trkpt>
      <trkpt lat="43.44444" lon="-0.37893">
        <ele>270.2</ele>
        <time>2026-08-31T09:08:49Z</time>
      </trkpt>
      <trkpt lat="43.44445" lon="-0.37893">
        <ele>270.2</ele>
        <time>2026-08-31T09:08:49Z</time>
      </trkpt>
      <trkpt lat="43.44445" lon="-0.37893">
        <ele>270.2</ele>
        <time>2026-08-31T09:08:50Z</time>
      </trkpt>
      <trkpt lat="43.44446" lon="-0.37892">
        <ele>270.2</ele>
        <time>2026-08-31T09:08:50Z</time>
      </trkpt>
      <trkpt lat="43.44447" lon="-0.37892">
        <ele>270.2</ele>
        <time>2026-08-31T09:08:51Z</time>
      </trkpt>
      <trkpt lat="43.44447" lon="-0.37892">
        <ele>270.2</ele>
        <time>2026-08-31T09:08:51Z</time>
      </trkpt>
      <trkpt lat="43.44448" lon="-0.37891">
        <ele>270.2</ele>
        <time>2026-08-31T09:08:52Z</time>
      </trkpt>
      <trkpt lat="43.44448" lon="-0.37891">
        <ele>270.2</ele>
        <time>2026-08-31T09:08:52Z</time>
      </trkpt>
      <trkpt lat="43.44449" lon="-0.37891">
        <ele>271.2</ele>
        <time>2026-08-31T09:08:53Z</time>
      </trkpt>
      <trkpt lat="43.4445" lon="-0.37891">
        <ele>271.2</ele>
        <time>2026-08-31T09:08:53Z</time>
      </trkpt>
      <trkpt lat="43.4445" lon="-0.3789">
        <ele>271.2</ele>
        <time>2026-08-31T09:08:54Z</time>
      </trkpt>
      <trkpt lat="43.44451" lon="-0.3789">
        <ele>271.2</ele>
        <time>2026-08-31T09:08:55Z</time>
      </trkpt>
      <trkpt lat="43.44452" lon="-0.3789">
        <ele>271.2</ele>
        <time>2026-08-31T09:08:55Z</time>
      </trkpt>
      <trkpt lat="43.44452" lon="-0.37889">
        <ele>271.2</ele>
        <time>2026-08-31T09:08:56Z</time>
      </trkpt>
      <trkpt lat="43.44453" lon="-0.37889">
        <ele>270.2</ele>
        <time>2026-08-31T09:08:56Z</time>
      </trkpt>
      <trkpt lat="43.44454" lon="-0.37888">
        <ele>270.2</ele>
        <time>2026-08-31T09:08:57Z</time>
      </trkpt>
      <trkpt lat="43.44454" lon="-0.37888">
        <ele>271.2</ele>
        <time>2026-08-31T09:08:57Z</time>
      </trkpt>
      <trkpt lat="43.44455" lon="-0.37888">
        <ele>271.2</ele>
        <time>2026-08-31T09:08:58Z</time>
      </trkpt>
      <trkpt lat="43.44456" lon="-0.37888">
        <ele>271.2</ele>
        <time>2026-08-31T09:08:58Z</time>
      </trkpt>
      <trkpt lat="43.44456" lon="-0.37887">
        <ele>271.2</ele>
        <time>2026-08-31T09:08:59Z</time>
      </trkpt>
      <trkpt lat="43.44457" lon="-0.37887">
        <ele>271.2</ele>
        <time>2026-08-31T09:08:59Z</time>
      </trkpt>
      <trkpt lat="43.44458" lon="-0.37887">
        <ele>271.2</ele>
        <time>2026-08-31T09:09:00Z</time>
      </trkpt>
      <trkpt lat="43.44458" lon="-0.37886">
        <ele>271.2</ele>
        <time>2026-08-31T09:09:00Z</time>
      </trkpt>
      <trkpt lat="43.44459" lon="-0.37886">
        <ele>271.2</ele>
        <time>2026-08-31T09:09:01Z</time>
      </trkpt>
      <trkpt lat="43.4446" lon="-0.37886">
        <ele>271.2</ele>
        <time>2026-08-31T09:09:01Z</time>
      </trkpt>
      <trkpt lat="43.4446" lon="-0.37886">
        <ele>272.2</ele>
        <time>2026-08-31T09:09:02Z</time>
      </trkpt>
      <trkpt lat="43.44461" lon="-0.37885">
        <ele>272.2</ele>
        <time>2026-08-31T09:09:02Z</time>
      </trkpt>
      <trkpt lat="43.44461" lon="-0.37885">
        <ele>272.2</ele>
        <time>2026-08-31T09:09:03Z</time>
      </trkpt>
      <trkpt lat="43.44462" lon="-0.37885">
        <ele>272.2</ele>
        <time>2026-08-31T09:09:04Z</time>
      </trkpt>
      <trkpt lat="43.44463" lon="-0.37885">
        <ele>271.2</ele>
        <time>2026-08-31T09:09:04Z</time>
      </trkpt>
      <trkpt lat="43.44463" lon="-0.37885">
        <ele>271.2</ele>
        <time>2026-08-31T09:09:05Z</time>
      </trkpt>
      <trkpt lat="43.44464" lon="-0.37885">
        <ele>272.2</ele>
        <time>2026-08-31T09:09:05Z</time>
      </trkpt>
      <trkpt lat="43.44465" lon="-0.37884">
        <ele>272.2</ele>
        <time>2026-08-31T09:09:06Z</time>
      </trkpt>
      <trkpt lat="43.44465" lon="-0.37884">
        <ele>272.2</ele>
        <time>2026-08-31T09:09:06Z</time>
      </trkpt>
      <trkpt lat="43.44466" lon="-0.37884">
        <ele>272.2</ele>
        <time>2026-08-31T09:09:07Z</time>
      </trkpt>
      <trkpt lat="43.44466" lon="-0.37884">
        <ele>272.2</ele>
        <time>2026-08-31T09:09:07Z</time>
      </trkpt>
      <trkpt lat="43.44467" lon="-0.37884">
        <ele>272.2</ele>
        <time>2026-08-31T09:09:08Z</time>
      </trkpt>
      <trkpt lat="43.44468" lon="-0.37883">
        <ele>272.2</ele>
        <time>2026-08-31T09:09:08Z</time>
      </trkpt>
      <trkpt lat="43.44468" lon="-0.37883">
        <ele>272.2</ele>
        <time>2026-08-31T09:09:09Z</time>
      </trkpt>
      <trkpt lat="43.44469" lon="-0.37883">
        <ele>272.2</ele>
        <time>2026-08-31T09:09:09Z</time>
      </trkpt>
      <trkpt lat="43.44469" lon="-0.37882">
        <ele>272.2</ele>
        <time>2026-08-31T09:09:10Z</time>
      </trkpt>
      <trkpt lat="43.4447" lon="-0.37882">
        <ele>272.2</ele>
        <time>2026-08-31T09:09:11Z</time>
      </trkpt>
      <trkpt lat="43.44471" lon="-0.37882">
        <ele>271.2</ele>
        <time>2026-08-31T09:09:11Z</time>
      </trkpt>
      <trkpt lat="43.44471" lon="-0.37881">
        <ele>271.2</ele>
        <time>2026-08-31T09:09:12Z</time>
      </trkpt>
      <trkpt lat="43.44472" lon="-0.37881">
        <ele>271.2</ele>
        <time>2026-08-31T09:09:12Z</time>
      </trkpt>
      <trkpt lat="43.44473" lon="-0.37881">
        <ele>271.2</ele>
        <time>2026-08-31T09:09:13Z</time>
      </trkpt>
      <trkpt lat="43.44473" lon="-0.3788">
        <ele>272.2</ele>
        <time>2026-08-31T09:09:13Z</time>
      </trkpt>
      <trkpt lat="43.44474" lon="-0.3788">
        <ele>272.2</ele>
        <time>2026-08-31T09:09:14Z</time>
      </trkpt>
      <trkpt lat="43.44475" lon="-0.3788">
        <ele>272.2</ele>
        <time>2026-08-31T09:09:14Z</time>
      </trkpt>
      <trkpt lat="43.44475" lon="-0.37879">
        <ele>272.2</ele>
        <time>2026-08-31T09:09:15Z</time>
      </trkpt>
      <trkpt lat="43.44476" lon="-0.37879">
        <ele>272.2</ele>
        <time>2026-08-31T09:09:15Z</time>
      </trkpt>
      <trkpt lat="43.44476" lon="-0.37879">
        <ele>271.2</ele>
        <time>2026-08-31T09:09:16Z</time>
      </trkpt>
      <trkpt lat="43.44477" lon="-0.37878">
        <ele>271.2</ele>
        <time>2026-08-31T09:09:16Z</time>
      </trkpt>
      <trkpt lat="43.44478" lon="-0.37878">
        <ele>271.2</ele>
        <time>2026-08-31T09:09:17Z</time>
      </trkpt>
      <trkpt lat="43.44478" lon="-0.37877">
        <ele>271.2</ele>
        <time>2026-08-31T09:09:17Z</time>
      </trkpt>
      <trkpt lat="43.44479" lon="-0.37877">
        <ele>270.2</ele>
        <time>2026-08-31T09:09:18Z</time>
      </trkpt>
      <trkpt lat="43.4448" lon="-0.37877">
        <ele>270.2</ele>
        <time>2026-08-31T09:09:19Z</time>
      </trkpt>
      <trkpt lat="43.4448" lon="-0.37876">
        <ele>270.2</ele>
        <time>2026-08-31T09:09:19Z</time>
      </trkpt>
      <trkpt lat="43.44481" lon="-0.37876">
        <ele>270.2</ele>
        <time>2026-08-31T09:09:20Z</time>
      </trkpt>
      <trkpt lat="43.44481" lon="-0.37875">
        <ele>270.2</ele>
        <time>2026-08-31T09:09:20Z</time>
      </trkpt>
      <trkpt lat="43.44482" lon="-0.37875">
        <ele>270.2</ele>
        <time>2026-08-31T09:09:21Z</time>
      </trkpt>
      <trkpt lat="43.44482" lon="-0.37874">
        <ele>270.2</ele>
        <time>2026-08-31T09:09:21Z</time>
      </trkpt>
      <trkpt lat="43.44483" lon="-0.37874">
        <ele>269.2</ele>
        <time>2026-08-31T09:09:22Z</time>
      </trkpt>
      <trkpt lat="43.44484" lon="-0.37874">
        <ele>269.2</ele>
        <time>2026-08-31T09:09:22Z</time>
      </trkpt>
      <trkpt lat="43.44484" lon="-0.37873">
        <ele>269.2</ele>
        <time>2026-08-31T09:09:23Z</time>
      </trkpt>
      <trkpt lat="43.44485" lon="-0.37873">
        <ele>269.2</ele>
        <time>2026-08-31T09:09:23Z</time>
      </trkpt>
      <trkpt lat="43.44486" lon="-0.37872">
        <ele>269.2</ele>
        <time>2026-08-31T09:09:24Z</time>
      </trkpt>
      <trkpt lat="43.44486" lon="-0.37872">
        <ele>269.2</ele>
        <time>2026-08-31T09:09:24Z</time>
      </trkpt>
      <trkpt lat="43.44487" lon="-0.37871">
        <ele>269.2</ele>
        <time>2026-08-31T09:09:25Z</time>
      </trkpt>
      <trkpt lat="43.44488" lon="-0.37871">
        <ele>269.2</ele>
        <time>2026-08-31T09:09:26Z</time>
      </trkpt>
      <trkpt lat="43.44488" lon="-0.37871">
        <ele>269.2</ele>
        <time>2026-08-31T09:09:26Z</time>
      </trkpt>
      <trkpt lat="43.44489" lon="-0.3787">
        <ele>269.2</ele>
        <time>2026-08-31T09:09:27Z</time>
      </trkpt>
      <trkpt lat="43.4449" lon="-0.3787">
        <ele>269.2</ele>
        <time>2026-08-31T09:09:27Z</time>
      </trkpt>
      <trkpt lat="43.44491" lon="-0.3787">
        <ele>269.2</ele>
        <time>2026-08-31T09:09:28Z</time>
      </trkpt>
      <trkpt lat="43.44491" lon="-0.3787">
        <ele>270.2</ele>
        <time>2026-08-31T09:09:28Z</time>
      </trkpt>
      <trkpt lat="43.44492" lon="-0.37869">
        <ele>270.2</ele>
        <time>2026-08-31T09:09:29Z</time>
      </trkpt>
      <trkpt lat="43.44493" lon="-0.37869">
        <ele>270.2</ele>
        <time>2026-08-31T09:09:29Z</time>
      </trkpt>
      <trkpt lat="43.44493" lon="-0.37869">
        <ele>269.2</ele>
        <time>2026-08-31T09:09:30Z</time>
      </trkpt>
      <trkpt lat="43.44494" lon="-0.37868">
        <ele>269.2</ele>
        <time>2026-08-31T09:09:30Z</time>
      </trkpt>
      <trkpt lat="43.44495" lon="-0.37868">
        <ele>270.2</ele>
        <time>2026-08-31T09:09:31Z</time>
      </trkpt>
      <trkpt lat="43.44495" lon="-0.37868">
        <ele>270.2</ele>
        <time>2026-08-31T09:09:31Z</time>
      </trkpt>
      <trkpt lat="43.44496" lon="-0.37867">
        <ele>270.2</ele>
        <time>2026-08-31T09:09:32Z</time>
      </trkpt>
      <trkpt lat="43.44497" lon="-0.37867">
        <ele>270.2</ele>
        <time>2026-08-31T09:09:32Z</time>
      </trkpt>
      <trkpt lat="43.44497" lon="-0.37867">
        <ele>270.2</ele>
        <time>2026-08-31T09:09:33Z</time>
      </trkpt>
      <trkpt lat="43.44498" lon="-0.37866">
        <ele>270.2</ele>
        <time>2026-08-31T09:09:34Z</time>
      </trkpt>
      <trkpt lat="43.44499" lon="-0.37866">
        <ele>270.2</ele>
        <time>2026-08-31T09:09:34Z</time>
      </trkpt>
      <trkpt lat="43.44499" lon="-0.37866">
        <ele>270.2</ele>
        <time>2026-08-31T09:09:35Z</time>
      </trkpt>
      <trkpt lat="43.445" lon="-0.37865">
        <ele>270.2</ele>
        <time>2026-08-31T09:09:35Z</time>
      </trkpt>
      <trkpt lat="43.44501" lon="-0.37865">
        <ele>270.2</ele>
        <time>2026-08-31T09:09:36Z</time>
      </trkpt>
      <trkpt lat="43.44501" lon="-0.37865">
        <ele>270.2</ele>
        <time>2026-08-31T09:09:36Z</time>
      </trkpt>
      <trkpt lat="43.44502" lon="-0.37865">
        <ele>270.2</ele>
        <time>2026-08-31T09:09:37Z</time>
      </trkpt>
      <trkpt lat="43.44503" lon="-0.37865">
        <ele>270.2</ele>
        <time>2026-08-31T09:09:37Z</time>
      </trkpt>
      <trkpt lat="43.44504" lon="-0.37864">
        <ele>270.2</ele>
        <time>2026-08-31T09:09:38Z</time>
      </trkpt>
      <trkpt lat="43.44504" lon="-0.37864">
        <ele>270.2</ele>
        <time>2026-08-31T09:09:38Z</time>
      </trkpt>
      <trkpt lat="43.44505" lon="-0.37864">
        <ele>271.2</ele>
        <time>2026-08-31T09:09:39Z</time>
      </trkpt>
      <trkpt lat="43.44506" lon="-0.37864">
        <ele>271.2</ele>
        <time>2026-08-31T09:09:39Z</time>
      </trkpt>
      <trkpt lat="43.44507" lon="-0.37864">
        <ele>270.2</ele>
        <time>2026-08-31T09:09:40Z</time>
      </trkpt>
      <trkpt lat="43.44508" lon="-0.37864">
        <ele>270.2</ele>
        <time>2026-08-31T09:09:41Z</time>
      </trkpt>
      <trkpt lat="43.44508" lon="-0.37864">
        <ele>271.2</ele>
        <time>2026-08-31T09:09:41Z</time>
      </trkpt>
      <trkpt lat="43.44509" lon="-0.37864">
        <ele>271.2</ele>
        <time>2026-08-31T09:09:42Z</time>
      </trkpt>
      <trkpt lat="43.4451" lon="-0.37864">
        <ele>271.2</ele>
        <time>2026-08-31T09:09:42Z</time>
      </trkpt>
      <trkpt lat="43.4451" lon="-0.37864">
        <ele>271.2</ele>
        <time>2026-08-31T09:09:43Z</time>
      </trkpt>
      <trkpt lat="43.44511" lon="-0.37864">
        <ele>271.2</ele>
        <time>2026-08-31T09:09:43Z</time>
      </trkpt>
      <trkpt lat="43.44512" lon="-0.37864">
        <ele>271.2</ele>
        <time>2026-08-31T09:09:44Z</time>
      </trkpt>
      <trkpt lat="43.44513" lon="-0.37864">
        <ele>271.2</ele>
        <time>2026-08-31T09:09:44Z</time>
      </trkpt>
      <trkpt lat="43.44513" lon="-0.37864">
        <ele>271.2</ele>
        <time>2026-08-31T09:09:45Z</time>
      </trkpt>
      <trkpt lat="43.44514" lon="-0.37864">
        <ele>271.2</ele>
        <time>2026-08-31T09:09:45Z</time>
      </trkpt>
      <trkpt lat="43.44515" lon="-0.37864">
        <ele>271.2</ele>
        <time>2026-08-31T09:09:46Z</time>
      </trkpt>
      <trkpt lat="43.44516" lon="-0.37864">
        <ele>271.2</ele>
        <time>2026-08-31T09:09:46Z</time>
      </trkpt>
      <trkpt lat="43.44516" lon="-0.37864">
        <ele>271.2</ele>
        <time>2026-08-31T09:09:47Z</time>
      </trkpt>
      <trkpt lat="43.44517" lon="-0.37864">
        <ele>271.2</ele>
        <time>2026-08-31T09:09:48Z</time>
      </trkpt>
      <trkpt lat="43.44518" lon="-0.37864">
        <ele>272.2</ele>
        <time>2026-08-31T09:09:48Z</time>
      </trkpt>
      <trkpt lat="43.44519" lon="-0.37864">
        <ele>272.2</ele>
        <time>2026-08-31T09:09:49Z</time>
      </trkpt>
      <trkpt lat="43.44519" lon="-0.37865">
        <ele>272.2</ele>
        <time>2026-08-31T09:09:49Z</time>
      </trkpt>
      <trkpt lat="43.4452" lon="-0.37865">
        <ele>272.2</ele>
        <time>2026-08-31T09:09:50Z</time>
      </trkpt>
      <trkpt lat="43.44521" lon="-0.37865">
        <ele>272.2</ele>
        <time>2026-08-31T09:09:50Z</time>
      </trkpt>
      <trkpt lat="43.44522" lon="-0.37865">
        <ele>272.2</ele>
        <time>2026-08-31T09:09:51Z</time>
      </trkpt>
      <trkpt lat="43.44522" lon="-0.37865">
        <ele>272.2</ele>
        <time>2026-08-31T09:09:51Z</time>
      </trkpt>
      <trkpt lat="43.44523" lon="-0.37865">
        <ele>272.2</ele>
        <time>2026-08-31T09:09:52Z</time>
      </trkpt>
      <trkpt lat="43.44524" lon="-0.37865">
        <ele>272.2</ele>
        <time>2026-08-31T09:09:52Z</time>
      </trkpt>
      <trkpt lat="43.44525" lon="-0.37865">
        <ele>272.2</ele>
        <time>2026-08-31T09:09:53Z</time>
      </trkpt>
      <trkpt lat="43.44525" lon="-0.37865">
        <ele>272.2</ele>
        <time>2026-08-31T09:09:53Z</time>
      </trkpt>
      <trkpt lat="43.44526" lon="-0.37865">
        <ele>273.2</ele>
        <time>2026-08-31T09:09:54Z</time>
      </trkpt>
      <trkpt lat="43.44527" lon="-0.37865">
        <ele>273.2</ele>
        <time>2026-08-31T09:09:54Z</time>
      </trkpt>
      <trkpt lat="43.44528" lon="-0.37865">
        <ele>273.2</ele>
        <time>2026-08-31T09:09:55Z</time>
      </trkpt>
      <trkpt lat="43.44528" lon="-0.37865">
        <ele>273.2</ele>
        <time>2026-08-31T09:09:56Z</time>
      </trkpt>
      <trkpt lat="43.44529" lon="-0.37865">
        <ele>273.2</ele>
        <time>2026-08-31T09:09:56Z</time>
      </trkpt>
      <trkpt lat="43.4453" lon="-0.37865">
        <ele>273.2</ele>
        <time>2026-08-31T09:09:57Z</time>
      </trkpt>
      <trkpt lat="43.4453" lon="-0.37865">
        <ele>273.2</ele>
        <time>2026-08-31T09:09:57Z</time>
      </trkpt>
      <trkpt lat="43.44531" lon="-0.37865">
        <ele>273.2</ele>
        <time>2026-08-31T09:09:58Z</time>
      </trkpt>
      <trkpt lat="43.44532" lon="-0.37865">
        <ele>273.2</ele>
        <time>2026-08-31T09:09:58Z</time>
      </trkpt>
      <trkpt lat="43.44533" lon="-0.37865">
        <ele>273.2</ele>
        <time>2026-08-31T09:09:59Z</time>
      </trkpt>
      <trkpt lat="43.44533" lon="-0.37865">
        <ele>273.2</ele>
        <time>2026-08-31T09:09:59Z</time>
      </trkpt>
      <trkpt lat="43.44534" lon="-0.37865">
        <ele>273.2</ele>
        <time>2026-08-31T09:10:00Z</time>
      </trkpt>
      <trkpt lat="43.44535" lon="-0.37865">
        <ele>273.2</ele>
        <time>2026-08-31T09:10:00Z</time>
      </trkpt>
      <trkpt lat="43.44535" lon="-0.37865">
        <ele>274.2</ele>
        <time>2026-08-31T09:10:01Z</time>
      </trkpt>
      <trkpt lat="43.44536" lon="-0.37865">
        <ele>274.2</ele>
        <time>2026-08-31T09:10:01Z</time>
      </trkpt>
      <trkpt lat="43.44537" lon="-0.37864">
        <ele>273.2</ele>
        <time>2026-08-31T09:10:02Z</time>
      </trkpt>
      <trkpt lat="43.44537" lon="-0.37864">
        <ele>273.2</ele>
        <time>2026-08-31T09:10:03Z</time>
      </trkpt>
      <trkpt lat="43.44538" lon="-0.37864">
        <ele>273.2</ele>
        <time>2026-08-31T09:10:03Z</time>
      </trkpt>
      <trkpt lat="43.44539" lon="-0.37864">
        <ele>273.2</ele>
        <time>2026-08-31T09:10:04Z</time>
      </trkpt>
      <trkpt lat="43.4454" lon="-0.37863">
        <ele>274.2</ele>
        <time>2026-08-31T09:10:04Z</time>
      </trkpt>
      <trkpt lat="43.4454" lon="-0.37863">
        <ele>274.2</ele>
        <time>2026-08-31T09:10:05Z</time>
      </trkpt>
      <trkpt lat="43.44541" lon="-0.37863">
        <ele>274.2</ele>
        <time>2026-08-31T09:10:05Z</time>
      </trkpt>
      <trkpt lat="43.44542" lon="-0.37863">
        <ele>273.2</ele>
        <time>2026-08-31T09:10:06Z</time>
      </trkpt>
      <trkpt lat="43.44543" lon="-0.37863">
        <ele>273.2</ele>
        <time>2026-08-31T09:10:06Z</time>
      </trkpt>
      <trkpt lat="43.44543" lon="-0.37863">
        <ele>274.2</ele>
        <time>2026-08-31T09:10:07Z</time>
      </trkpt>
      <trkpt lat="43.44544" lon="-0.37863">
        <ele>274.2</ele>
        <time>2026-08-31T09:10:07Z</time>
      </trkpt>
      <trkpt lat="43.44545" lon="-0.37863">
        <ele>274.2</ele>
        <time>2026-08-31T09:10:08Z</time>
      </trkpt>
      <trkpt lat="43.44546" lon="-0.37863">
        <ele>274.2</ele>
        <time>2026-08-31T09:10:08Z</time>
      </trkpt>
      <trkpt lat="43.44546" lon="-0.37863">
        <ele>274.2</ele>
        <time>2026-08-31T09:10:09Z</time>
      </trkpt>
      <trkpt lat="43.44547" lon="-0.37862">
        <ele>274.2</ele>
        <time>2026-08-31T09:10:09Z</time>
      </trkpt>
      <trkpt lat="43.44548" lon="-0.37862">
        <ele>274.2</ele>
        <time>2026-08-31T09:10:10Z</time>
      </trkpt>
      <trkpt lat="43.44549" lon="-0.37862">
        <ele>274.2</ele>
        <time>2026-08-31T09:10:10Z</time>
      </trkpt>
      <trkpt lat="43.4455" lon="-0.37862">
        <ele>274.2</ele>
        <time>2026-08-31T09:10:11Z</time>
      </trkpt>
      <trkpt lat="43.4455" lon="-0.37862">
        <ele>274.2</ele>
        <time>2026-08-31T09:10:12Z</time>
      </trkpt>
      <trkpt lat="43.44551" lon="-0.37862">
        <ele>273.2</ele>
        <time>2026-08-31T09:10:12Z</time>
      </trkpt>
      <trkpt lat="43.44552" lon="-0.37862">
        <ele>273.2</ele>
        <time>2026-08-31T09:10:13Z</time>
      </trkpt>
      <trkpt lat="43.44552" lon="-0.37862">
        <ele>273.2</ele>
        <time>2026-08-31T09:10:13Z</time>
      </trkpt>
      <trkpt lat="43.44553" lon="-0.37862">
        <ele>273.2</ele>
        <time>2026-08-31T09:10:14Z</time>
      </trkpt>
      <trkpt lat="43.44554" lon="-0.37862">
        <ele>273.2</ele>
        <time>2026-08-31T09:10:14Z</time>
      </trkpt>
      <trkpt lat="43.44555" lon="-0.37862">
        <ele>273.2</ele>
        <time>2026-08-31T09:10:15Z</time>
      </trkpt>
      <trkpt lat="43.44555" lon="-0.37861">
        <ele>273.2</ele>
        <time>2026-08-31T09:10:15Z</time>
      </trkpt>
      <trkpt lat="43.44556" lon="-0.37861">
        <ele>273.2</ele>
        <time>2026-08-31T09:10:16Z</time>
      </trkpt>
      <trkpt lat="43.44557" lon="-0.37861">
        <ele>273.2</ele>
        <time>2026-08-31T09:10:16Z</time>
      </trkpt>
      <trkpt lat="43.44557" lon="-0.3786">
        <ele>273.2</ele>
        <time>2026-08-31T09:10:17Z</time>
      </trkpt>
      <trkpt lat="43.44558" lon="-0.3786">
        <ele>273.2</ele>
        <time>2026-08-31T09:10:17Z</time>
      </trkpt>
      <trkpt lat="43.44558" lon="-0.3786">
        <ele>273.2</ele>
        <time>2026-08-31T09:10:18Z</time>
      </trkpt>
      <trkpt lat="43.44559" lon="-0.37859">
        <ele>273.2</ele>
        <time>2026-08-31T09:10:19Z</time>
      </trkpt>
      <trkpt lat="43.4456" lon="-0.37859">
        <ele>273.2</ele>
        <time>2026-08-31T09:10:19Z</time>
      </trkpt>
      <trkpt lat="43.4456" lon="-0.37859">
        <ele>273.2</ele>
        <time>2026-08-31T09:10:20Z</time>
      </trkpt>
      <trkpt lat="43.44561" lon="-0.37859">
        <ele>273.2</ele>
        <time>2026-08-31T09:10:20Z</time>
      </trkpt>
      <trkpt lat="43.44561" lon="-0.37859">
        <ele>273.2</ele>
        <time>2026-08-31T09:10:21Z</time>
      </trkpt>
      <trkpt lat="43.44562" lon="-0.37859">
        <ele>273.2</ele>
        <time>2026-08-31T09:10:21Z</time>
      </trkpt>
      <trkpt lat="43.44563" lon="-0.37859">
        <ele>273.2</ele>
        <time>2026-08-31T09:10:22Z</time>
      </trkpt>
      <trkpt lat="43.44563" lon="-0.37859">
        <ele>273.2</ele>
        <time>2026-08-31T09:10:22Z</time>
      </trkpt>
      <trkpt lat="43.44564" lon="-0.37859">
        <ele>272.2</ele>
        <time>2026-08-31T09:10:23Z</time>
      </trkpt>
      <trkpt lat="43.44564" lon="-0.37859">
        <ele>272.2</ele>
        <time>2026-08-31T09:10:23Z</time>
      </trkpt>
      <trkpt lat="43.44565" lon="-0.37859">
        <ele>273.2</ele>
        <time>2026-08-31T09:10:24Z</time>
      </trkpt>
      <trkpt lat="43.44566" lon="-0.37859">
        <ele>273.2</ele>
        <time>2026-08-31T09:10:24Z</time>
      </trkpt>
      <trkpt lat="43.44566" lon="-0.37859">
        <ele>272.2</ele>
        <time>2026-08-31T09:10:25Z</time>
      </trkpt>
      <trkpt lat="43.44567" lon="-0.3786">
        <ele>272.2</ele>
        <time>2026-08-31T09:10:25Z</time>
      </trkpt>
      <trkpt lat="43.44567" lon="-0.3786">
        <ele>272.2</ele>
        <time>2026-08-31T09:10:26Z</time>
      </trkpt>
      <trkpt lat="43.44568" lon="-0.3786">
        <ele>272.2</ele>
        <time>2026-08-31T09:10:26Z</time>
      </trkpt>
      <trkpt lat="43.44568" lon="-0.3786">
        <ele>272.2</ele>
        <time>2026-08-31T09:10:27Z</time>
      </trkpt>
      <trkpt lat="43.44569" lon="-0.3786">
        <ele>272.2</ele>
        <time>2026-08-31T09:10:28Z</time>
      </trkpt>
      <trkpt lat="43.44569" lon="-0.3786">
        <ele>271.2</ele>
        <time>2026-08-31T09:10:28Z</time>
      </trkpt>
      <trkpt lat="43.4457" lon="-0.3786">
        <ele>271.2</ele>
        <time>2026-08-31T09:10:29Z</time>
      </trkpt>
      <trkpt lat="43.44571" lon="-0.3786">
        <ele>271.2</ele>
        <time>2026-08-31T09:10:29Z</time>
      </trkpt>
      <trkpt lat="43.44571" lon="-0.3786">
        <ele>271.2</ele>
        <time>2026-08-31T09:10:30Z</time>
      </trkpt>
      <trkpt lat="43.44572" lon="-0.3786">
        <ele>271.2</ele>
        <time>2026-08-31T09:10:30Z</time>
      </trkpt>
      <trkpt lat="43.44572" lon="-0.3786">
        <ele>271.2</ele>
        <time>2026-08-31T09:10:31Z</time>
      </trkpt>
      <trkpt lat="43.44573" lon="-0.3786">
        <ele>271.2</ele>
        <time>2026-08-31T09:10:31Z</time>
      </trkpt>
      <trkpt lat="43.44573" lon="-0.37861">
        <ele>271.2</ele>
        <time>2026-08-31T09:10:32Z</time>
      </trkpt>
      <trkpt lat="43.44574" lon="-0.37861">
        <ele>271.2</ele>
        <time>2026-08-31T09:10:32Z</time>
      </trkpt>
      <trkpt lat="43.44574" lon="-0.37861">
        <ele>271.2</ele>
        <time>2026-08-31T09:10:33Z</time>
      </trkpt>
      <trkpt lat="43.44575" lon="-0.37861">
        <ele>271.2</ele>
        <time>2026-08-31T09:10:33Z</time>
      </trkpt>
      <trkpt lat="43.44576" lon="-0.37861">
        <ele>270.2</ele>
        <time>2026-08-31T09:10:34Z</time>
      </trkpt>
      <trkpt lat="43.44576" lon="-0.3786">
        <ele>270.2</ele>
        <time>2026-08-31T09:10:35Z</time>
      </trkpt>
      <trkpt lat="43.44577" lon="-0.3786">
        <ele>271.2</ele>
        <time>2026-08-31T09:10:35Z</time>
      </trkpt>
      <trkpt lat="43.44577" lon="-0.37859">
        <ele>271.2</ele>
        <time>2026-08-31T09:10:36Z</time>
      </trkpt>
      <trkpt lat="43.44578" lon="-0.37859">
        <ele>271.2</ele>
        <time>2026-08-31T09:10:36Z</time>
      </trkpt>
      <trkpt lat="43.44578" lon="-0.37858">
        <ele>271.2</ele>
        <time>2026-08-31T09:10:37Z</time>
      </trkpt>
      <trkpt lat="43.44579" lon="-0.37857">
        <ele>271.2</ele>
        <time>2026-08-31T09:10:37Z</time>
      </trkpt>
      <trkpt lat="43.4458" lon="-0.37857">
        <ele>271.2</ele>
        <time>2026-08-31T09:10:38Z</time>
      </trkpt>
      <trkpt lat="43.4458" lon="-0.37856">
        <ele>271.2</ele>
        <time>2026-08-31T09:10:38Z</time>
      </trkpt>
      <trkpt lat="43.4458" lon="-0.37856">
        <ele>271.2</ele>
        <time>2026-08-31T09:10:39Z</time>
      </trkpt>
      <trkpt lat="43.44581" lon="-0.37855">
        <ele>271.2</ele>
        <time>2026-08-31T09:10:39Z</time>
      </trkpt>
      <trkpt lat="43.44581" lon="-0.37855">
        <ele>270.2</ele>
        <time>2026-08-31T09:10:40Z</time>
      </trkpt>
      <trkpt lat="43.44582" lon="-0.37854">
        <ele>270.2</ele>
        <time>2026-08-31T09:10:40Z</time>
      </trkpt>
      <trkpt lat="43.44582" lon="-0.37854">
        <ele>270.2</ele>
        <time>2026-08-31T09:10:41Z</time>
      </trkpt>
      <trkpt lat="43.44583" lon="-0.37853">
        <ele>270.2</ele>
        <time>2026-08-31T09:10:41Z</time>
      </trkpt>
      <trkpt lat="43.44583" lon="-0.37853">
        <ele>270.2</ele>
        <time>2026-08-31T09:10:42Z</time>
      </trkpt>
      <trkpt lat="43.44584" lon="-0.37852">
        <ele>270.2</ele>
        <time>2026-08-31T09:10:42Z</time>
      </trkpt>
      <trkpt lat="43.44584" lon="-0.37852">
        <ele>270.2</ele>
        <time>2026-08-31T09:10:43Z</time>
      </trkpt>
      <trkpt lat="43.44585" lon="-0.37851">
        <ele>270.2</ele>
        <time>2026-08-31T09:10:43Z</time>
      </trkpt>
      <trkpt lat="43.44585" lon="-0.37851">
        <ele>270.2</ele>
        <time>2026-08-31T09:10:44Z</time>
      </trkpt>
      <trkpt lat="43.44586" lon="-0.37851">
        <ele>270.2</ele>
        <time>2026-08-31T09:10:45Z</time>
      </trkpt>
      <trkpt lat="43.44586" lon="-0.3785">
        <ele>270.2</ele>
        <time>2026-08-31T09:10:45Z</time>
      </trkpt>
      <trkpt lat="43.44587" lon="-0.3785">
        <ele>270.2</ele>
        <time>2026-08-31T09:10:46Z</time>
      </trkpt>
      <trkpt lat="43.44587" lon="-0.37849">
        <ele>269.2</ele>
        <time>2026-08-31T09:10:46Z</time>
      </trkpt>
      <trkpt lat="43.44588" lon="-0.37849">
        <ele>269.2</ele>
        <time>2026-08-31T09:10:47Z</time>
      </trkpt>
      <trkpt lat="43.44588" lon="-0.37849">
        <ele>268.2</ele>
        <time>2026-08-31T09:10:47Z</time>
      </trkpt>
      <trkpt lat="43.44589" lon="-0.37848">
        <ele>268.2</ele>
        <time>2026-08-31T09:10:48Z</time>
      </trkpt>
      <trkpt lat="43.4459" lon="-0.37848">
        <ele>268.2</ele>
        <time>2026-08-31T09:10:48Z</time>
      </trkpt>
      <trkpt lat="43.4459" lon="-0.37847">
        <ele>268.2</ele>
        <time>2026-08-31T09:10:49Z</time>
      </trkpt>
      <trkpt lat="43.44591" lon="-0.37847">
        <ele>268.2</ele>
        <time>2026-08-31T09:10:49Z</time>
      </trkpt>
      <trkpt lat="43.44591" lon="-0.37846">
        <ele>268.2</ele>
        <time>2026-08-31T09:10:50Z</time>
      </trkpt>
      <trkpt lat="43.44592" lon="-0.37845">
        <ele>268.2</ele>
        <time>2026-08-31T09:10:50Z</time>
      </trkpt>
      <trkpt lat="43.44592" lon="-0.37845">
        <ele>268.2</ele>
        <time>2026-08-31T09:10:51Z</time>
      </trkpt>
      <trkpt lat="43.44593" lon="-0.37844">
        <ele>268.2</ele>
        <time>2026-08-31T09:10:51Z</time>
      </trkpt>
      <trkpt lat="43.44594" lon="-0.37843">
        <ele>268.2</ele>
        <time>2026-08-31T09:10:52Z</time>
      </trkpt>
      <trkpt lat="43.44594" lon="-0.37843">
        <ele>268.2</ele>
        <time>2026-08-31T09:10:53Z</time>
      </trkpt>
      <trkpt lat="43.44595" lon="-0.37842">
        <ele>269.2</ele>
        <time>2026-08-31T09:10:53Z</time>
      </trkpt>
      <trkpt lat="43.44595" lon="-0.37842">
        <ele>269.2</ele>
        <time>2026-08-31T09:10:54Z</time>
      </trkpt>
      <trkpt lat="43.44596" lon="-0.37841">
        <ele>269.2</ele>
        <time>2026-08-31T09:10:54Z</time>
      </trkpt>
      <trkpt lat="43.44596" lon="-0.3784">
        <ele>269.2</ele>
        <time>2026-08-31T09:10:55Z</time>
      </trkpt>
      <trkpt lat="43.44597" lon="-0.3784">
        <ele>269.2</ele>
        <time>2026-08-31T09:10:55Z</time>
      </trkpt>
      <trkpt lat="43.44597" lon="-0.37839">
        <ele>269.2</ele>
        <time>2026-08-31T09:10:56Z</time>
      </trkpt>
      <trkpt lat="43.44598" lon="-0.37838">
        <ele>269.2</ele>
        <time>2026-08-31T09:10:56Z</time>
      </trkpt>
      <trkpt lat="43.44599" lon="-0.37838">
        <ele>268.2</ele>
        <time>2026-08-31T09:10:57Z</time>
      </trkpt>
      <trkpt lat="43.44599" lon="-0.37837">
        <ele>268.2</ele>
        <time>2026-08-31T09:10:57Z</time>
      </trkpt>
      <trkpt lat="43.446" lon="-0.37836">
        <ele>268.2</ele>
        <time>2026-08-31T09:10:58Z</time>
      </trkpt>
      <trkpt lat="43.446" lon="-0.37836">
        <ele>268.2</ele>
        <time>2026-08-31T09:10:59Z</time>
      </trkpt>
      <trkpt lat="43.446" lon="-0.37835">
        <ele>267.2</ele>
        <time>2026-08-31T09:10:59Z</time>
      </trkpt>
      <trkpt lat="43.44601" lon="-0.37834">
        <ele>267.2</ele>
        <time>2026-08-31T09:11:00Z</time>
      </trkpt>
      <trkpt lat="43.44601" lon="-0.37834">
        <ele>267.2</ele>
        <time>2026-08-31T09:11:00Z</time>
      </trkpt>
      <trkpt lat="43.44602" lon="-0.37833">
        <ele>267.2</ele>
        <time>2026-08-31T09:11:01Z</time>
      </trkpt>
      <trkpt lat="43.44602" lon="-0.37833">
        <ele>267.2</ele>
        <time>2026-08-31T09:11:01Z</time>
      </trkpt>
      <trkpt lat="43.44603" lon="-0.37832">
        <ele>267.2</ele>
        <time>2026-08-31T09:11:02Z</time>
      </trkpt>
      <trkpt lat="43.44603" lon="-0.37831">
        <ele>267.2</ele>
        <time>2026-08-31T09:11:02Z</time>
      </trkpt>
      <trkpt lat="43.44604" lon="-0.37831">
        <ele>267.2</ele>
        <time>2026-08-31T09:11:03Z</time>
      </trkpt>
      <trkpt lat="43.44604" lon="-0.3783">
        <ele>267.2</ele>
        <time>2026-08-31T09:11:03Z</time>
      </trkpt>
      <trkpt lat="43.44605" lon="-0.37829">
        <ele>267.2</ele>
        <time>2026-08-31T09:11:04Z</time>
      </trkpt>
      <trkpt lat="43.44605" lon="-0.37828">
        <ele>267.2</ele>
        <time>2026-08-31T09:11:04Z</time>
      </trkpt>
      <trkpt lat="43.44605" lon="-0.37828">
        <ele>267.2</ele>
        <time>2026-08-31T09:11:05Z</time>
      </trkpt>
      <trkpt lat="43.44606" lon="-0.37827">
        <ele>267.2</ele>
        <time>2026-08-31T09:11:05Z</time>
      </trkpt>
      <trkpt lat="43.44606" lon="-0.37827">
        <ele>266.2</ele>
        <time>2026-08-31T09:11:06Z</time>
      </trkpt>
      <trkpt lat="43.44607" lon="-0.37826">
        <ele>266.2</ele>
        <time>2026-08-31T09:11:07Z</time>
      </trkpt>
      <trkpt lat="43.44607" lon="-0.37825">
        <ele>266.2</ele>
        <time>2026-08-31T09:11:07Z</time>
      </trkpt>
      <trkpt lat="43.44608" lon="-0.37824">
        <ele>266.2</ele>
        <time>2026-08-31T09:11:08Z</time>
      </trkpt>
      <trkpt lat="43.44608" lon="-0.37824">
        <ele>267.2</ele>
        <time>2026-08-31T09:11:08Z</time>
      </trkpt>
      <trkpt lat="43.44608" lon="-0.37823">
        <ele>267.2</ele>
        <time>2026-08-31T09:11:09Z</time>
      </trkpt>
      <trkpt lat="43.44609" lon="-0.37823">
        <ele>267.2</ele>
        <time>2026-08-31T09:11:09Z</time>
      </trkpt>
      <trkpt lat="43.44609" lon="-0.37822">
        <ele>268.2</ele>
        <time>2026-08-31T09:11:10Z</time>
      </trkpt>
      <trkpt lat="43.4461" lon="-0.37821">
        <ele>268.2</ele>
        <time>2026-08-31T09:11:10Z</time>
      </trkpt>
      <trkpt lat="43.44611" lon="-0.3782">
        <ele>268.2</ele>
        <time>2026-08-31T09:11:11Z</time>
      </trkpt>
      <trkpt lat="43.44611" lon="-0.37819">
        <ele>268.2</ele>
        <time>2026-08-31T09:11:11Z</time>
      </trkpt>
      <trkpt lat="43.44612" lon="-0.37818">
        <ele>268.2</ele>
        <time>2026-08-31T09:11:12Z</time>
      </trkpt>
      <trkpt lat="43.44612" lon="-0.37818">
        <ele>268.2</ele>
        <time>2026-08-31T09:11:12Z</time>
      </trkpt>
      <trkpt lat="43.44613" lon="-0.37817">
        <ele>268.2</ele>
        <time>2026-08-31T09:11:13Z</time>
      </trkpt>
      <trkpt lat="43.44613" lon="-0.37816">
        <ele>268.2</ele>
        <time>2026-08-31T09:11:14Z</time>
      </trkpt>
      <trkpt lat="43.44614" lon="-0.37816">
        <ele>268.2</ele>
        <time>2026-08-31T09:11:14Z</time>
      </trkpt>
      <trkpt lat="43.44615" lon="-0.37815">
        <ele>268.2</ele>
        <time>2026-08-31T09:11:15Z</time>
      </trkpt>
      <trkpt lat="43.44615" lon="-0.37814">
        <ele>268.2</ele>
        <time>2026-08-31T09:11:15Z</time>
      </trkpt>
      <trkpt lat="43.44616" lon="-0.37813">
        <ele>268.2</ele>
        <time>2026-08-31T09:11:16Z</time>
      </trkpt>
      <trkpt lat="43.44616" lon="-0.37812">
        <ele>268.2</ele>
        <time>2026-08-31T09:11:16Z</time>
      </trkpt>
      <trkpt lat="43.44617" lon="-0.37812">
        <ele>268.2</ele>
        <time>2026-08-31T09:11:17Z</time>
      </trkpt>
      <trkpt lat="43.44617" lon="-0.37811">
        <ele>268.2</ele>
        <time>2026-08-31T09:11:17Z</time>
      </trkpt>
      <trkpt lat="43.44618" lon="-0.3781">
        <ele>268.2</ele>
        <time>2026-08-31T09:11:18Z</time>
      </trkpt>
      <trkpt lat="43.44618" lon="-0.3781">
        <ele>268.2</ele>
        <time>2026-08-31T09:11:18Z</time>
      </trkpt>
      <trkpt lat="43.44619" lon="-0.37809">
        <ele>268.2</ele>
        <time>2026-08-31T09:11:19Z</time>
      </trkpt>
      <trkpt lat="43.44619" lon="-0.37809">
        <ele>268.2</ele>
        <time>2026-08-31T09:11:19Z</time>
      </trkpt>
      <trkpt lat="43.4462" lon="-0.37808">
        <ele>268.2</ele>
        <time>2026-08-31T09:11:20Z</time>
      </trkpt>
      <trkpt lat="43.44621" lon="-0.37807">
        <ele>268.2</ele>
        <time>2026-08-31T09:11:20Z</time>
      </trkpt>
      <trkpt lat="43.44621" lon="-0.37807">
        <ele>268.2</ele>
        <time>2026-08-31T09:11:21Z</time>
      </trkpt>
      <trkpt lat="43.44622" lon="-0.37806">
        <ele>268.2</ele>
        <time>2026-08-31T09:11:22Z</time>
      </trkpt>
      <trkpt lat="43.44622" lon="-0.37806">
        <ele>268.2</ele>
        <time>2026-08-31T09:11:22Z</time>
      </trkpt>
      <trkpt lat="43.44623" lon="-0.37805">
        <ele>268.2</ele>
        <time>2026-08-31T09:11:23Z</time>
      </trkpt>
      <trkpt lat="43.44624" lon="-0.37804">
        <ele>268.2</ele>
        <time>2026-08-31T09:11:23Z</time>
      </trkpt>
      <trkpt lat="43.44624" lon="-0.37804">
        <ele>268.2</ele>
        <time>2026-08-31T09:11:24Z</time>
      </trkpt>
      <trkpt lat="43.44625" lon="-0.37803">
        <ele>268.2</ele>
        <time>2026-08-31T09:11:24Z</time>
      </trkpt>
      <trkpt lat="43.44625" lon="-0.37802">
        <ele>268.2</ele>
        <time>2026-08-31T09:11:25Z</time>
      </trkpt>
      <trkpt lat="43.44626" lon="-0.37801">
        <ele>268.2</ele>
        <time>2026-08-31T09:11:25Z</time>
      </trkpt>
      <trkpt lat="43.44626" lon="-0.37801">
        <ele>268.2</ele>
        <time>2026-08-31T09:11:26Z</time>
      </trkpt>
      <trkpt lat="43.44627" lon="-0.378">
        <ele>268.2</ele>
        <time>2026-08-31T09:11:26Z</time>
      </trkpt>
      <trkpt lat="43.44627" lon="-0.37799">
        <ele>268.2</ele>
        <time>2026-08-31T09:11:27Z</time>
      </trkpt>
      <trkpt lat="43.44628" lon="-0.37798">
        <ele>268.2</ele>
        <time>2026-08-31T09:11:27Z</time>
      </trkpt>
      <trkpt lat="43.44628" lon="-0.37798">
        <ele>268.2</ele>
        <time>2026-08-31T09:11:28Z</time>
      </trkpt>
      <trkpt lat="43.44629" lon="-0.37797">
        <ele>268.2</ele>
        <time>2026-08-31T09:11:29Z</time>
      </trkpt>
      <trkpt lat="43.44629" lon="-0.37796">
        <ele>268.2</ele>
        <time>2026-08-31T09:11:29Z</time>
      </trkpt>
      <trkpt lat="43.4463" lon="-0.37796">
        <ele>268.2</ele>
        <time>2026-08-31T09:11:30Z</time>
      </trkpt>
      <trkpt lat="43.4463" lon="-0.37795">
        <ele>268.2</ele>
        <time>2026-08-31T09:11:30Z</time>
      </trkpt>
      <trkpt lat="43.44631" lon="-0.37794">
        <ele>268.2</ele>
        <time>2026-08-31T09:11:31Z</time>
      </trkpt>
      <trkpt lat="43.44631" lon="-0.37794">
        <ele>268.2</ele>
        <time>2026-08-31T09:11:31Z</time>
      </trkpt>
      <trkpt lat="43.44632" lon="-0.37793">
        <ele>268.2</ele>
        <time>2026-08-31T09:11:32Z</time>
      </trkpt>
      <trkpt lat="43.44632" lon="-0.37792">
        <ele>267.2</ele>
        <time>2026-08-31T09:11:32Z</time>
      </trkpt>
      <trkpt lat="43.44633" lon="-0.37791">
        <ele>267.2</ele>
        <time>2026-08-31T09:11:33Z</time>
      </trkpt>
      <trkpt lat="43.44633" lon="-0.3779">
        <ele>267.2</ele>
        <time>2026-08-31T09:11:33Z</time>
      </trkpt>
      <trkpt lat="43.44633" lon="-0.37789">
        <ele>268.2</ele>
        <time>2026-08-31T09:11:34Z</time>
      </trkpt>
      <trkpt lat="43.44634" lon="-0.37789">
        <ele>268.2</ele>
        <time>2026-08-31T09:11:34Z</time>
      </trkpt>
      <trkpt lat="43.44634" lon="-0.37788">
        <ele>268.2</ele>
        <time>2026-08-31T09:11:35Z</time>
      </trkpt>
      <trkpt lat="43.44635" lon="-0.37787">
        <ele>268.2</ele>
        <time>2026-08-31T09:11:35Z</time>
      </trkpt>
      <trkpt lat="43.44635" lon="-0.37786">
        <ele>268.2</ele>
        <time>2026-08-31T09:11:36Z</time>
      </trkpt>
      <trkpt lat="43.44636" lon="-0.37785">
        <ele>268.2</ele>
        <time>2026-08-31T09:11:37Z</time>
      </trkpt>
      <trkpt lat="43.44636" lon="-0.37784">
        <ele>268.2</ele>
        <time>2026-08-31T09:11:37Z</time>
      </trkpt>
      <trkpt lat="43.44636" lon="-0.37783">
        <ele>268.2</ele>
        <time>2026-08-31T09:11:38Z</time>
      </trkpt>
      <trkpt lat="43.44637" lon="-0.37782">
        <ele>268.2</ele>
        <time>2026-08-31T09:11:38Z</time>
      </trkpt>
      <trkpt lat="43.44637" lon="-0.37781">
        <ele>268.2</ele>
        <time>2026-08-31T09:11:39Z</time>
      </trkpt>
      <trkpt lat="43.44638" lon="-0.3778">
        <ele>268.2</ele>
        <time>2026-08-31T09:11:39Z</time>
      </trkpt>
      <trkpt lat="43.44638" lon="-0.37779">
        <ele>268.2</ele>
        <time>2026-08-31T09:11:40Z</time>
      </trkpt>
      <trkpt lat="43.44639" lon="-0.37778">
        <ele>268.2</ele>
        <time>2026-08-31T09:11:40Z</time>
      </trkpt>
      <trkpt lat="43.44639" lon="-0.37777">
        <ele>268.2</ele>
        <time>2026-08-31T09:11:41Z</time>
      </trkpt>
      <trkpt lat="43.44639" lon="-0.37777">
        <ele>268.2</ele>
        <time>2026-08-31T09:11:41Z</time>
      </trkpt>
      <trkpt lat="43.4464" lon="-0.37775">
        <ele>268.2</ele>
        <time>2026-08-31T09:11:42Z</time>
      </trkpt>
      <trkpt lat="43.4464" lon="-0.37775">
        <ele>268.2</ele>
        <time>2026-08-31T09:11:42Z</time>
      </trkpt>
      <trkpt lat="43.44641" lon="-0.37774">
        <ele>268.2</ele>
        <time>2026-08-31T09:11:43Z</time>
      </trkpt>
      <trkpt lat="43.44641" lon="-0.37773">
        <ele>268.2</ele>
        <time>2026-08-31T09:11:44Z</time>
      </trkpt>
      <trkpt lat="43.44641" lon="-0.37772">
        <ele>268.2</ele>
        <time>2026-08-31T09:11:44Z</time>
      </trkpt>
      <trkpt lat="43.44642" lon="-0.37771">
        <ele>268.2</ele>
        <time>2026-08-31T09:11:45Z</time>
      </trkpt>
      <trkpt lat="43.44642" lon="-0.3777">
        <ele>268.2</ele>
        <time>2026-08-31T09:11:45Z</time>
      </trkpt>
      <trkpt lat="43.44642" lon="-0.37769">
        <ele>268.2</ele>
        <time>2026-08-31T09:11:46Z</time>
      </trkpt>
      <trkpt lat="43.44643" lon="-0.37768">
        <ele>268.2</ele>
        <time>2026-08-31T09:11:46Z</time>
      </trkpt>
      <trkpt lat="43.44643" lon="-0.37767">
        <ele>268.2</ele>
        <time>2026-08-31T09:11:47Z</time>
      </trkpt>
      <trkpt lat="43.44644" lon="-0.37766">
        <ele>268.2</ele>
        <time>2026-08-31T09:11:47Z</time>
      </trkpt>
      <trkpt lat="43.44644" lon="-0.37766">
        <ele>268.2</ele>
        <time>2026-08-31T09:11:48Z</time>
      </trkpt>
      <trkpt lat="43.44645" lon="-0.37765">
        <ele>268.2</ele>
        <time>2026-08-31T09:11:48Z</time>
      </trkpt>
      <trkpt lat="43.44645" lon="-0.37764">
        <ele>268.2</ele>
        <time>2026-08-31T09:11:49Z</time>
      </trkpt>
      <trkpt lat="43.44645" lon="-0.37763">
        <ele>268.2</ele>
        <time>2026-08-31T09:11:49Z</time>
      </trkpt>
      <trkpt lat="43.44646" lon="-0.37762">
        <ele>268.2</ele>
        <time>2026-08-31T09:11:50Z</time>
      </trkpt>
      <trkpt lat="43.44646" lon="-0.37761">
        <ele>268.2</ele>
        <time>2026-08-31T09:11:51Z</time>
      </trkpt>
      <trkpt lat="43.44647" lon="-0.3776">
        <ele>268.2</ele>
        <time>2026-08-31T09:11:51Z</time>
      </trkpt>
      <trkpt lat="43.44647" lon="-0.37759">
        <ele>268.2</ele>
        <time>2026-08-31T09:11:52Z</time>
      </trkpt>
      <trkpt lat="43.44647" lon="-0.37759">
        <ele>268.2</ele>
        <time>2026-08-31T09:11:52Z</time>
      </trkpt>
      <trkpt lat="43.44648" lon="-0.37758">
        <ele>268.2</ele>
        <time>2026-08-31T09:11:53Z</time>
      </trkpt>
      <trkpt lat="43.44648" lon="-0.37757">
        <ele>268.2</ele>
        <time>2026-08-31T09:11:53Z</time>
      </trkpt>
      <trkpt lat="43.44649" lon="-0.37757">
        <ele>267.2</ele>
        <time>2026-08-31T09:11:54Z</time>
      </trkpt>
      <trkpt lat="43.44649" lon="-0.37756">
        <ele>267.2</ele>
        <time>2026-08-31T09:11:54Z</time>
      </trkpt>
      <trkpt lat="43.44649" lon="-0.37755">
        <ele>267.2</ele>
        <time>2026-08-31T09:11:55Z</time>
      </trkpt>
      <trkpt lat="43.4465" lon="-0.37754">
        <ele>267.2</ele>
        <time>2026-08-31T09:11:55Z</time>
      </trkpt>
      <trkpt lat="43.4465" lon="-0.37753">
        <ele>267.2</ele>
        <time>2026-08-31T09:11:56Z</time>
      </trkpt>
      <trkpt lat="43.44651" lon="-0.37752">
        <ele>267.2</ele>
        <time>2026-08-31T09:11:57Z</time>
      </trkpt>
      <trkpt lat="43.44651" lon="-0.37752">
        <ele>267.2</ele>
        <time>2026-08-31T09:11:57Z</time>
      </trkpt>
      <trkpt lat="43.44651" lon="-0.37751">
        <ele>267.2</ele>
        <time>2026-08-31T09:11:58Z</time>
      </trkpt>
      <trkpt lat="43.44652" lon="-0.3775">
        <ele>267.2</ele>
        <time>2026-08-31T09:11:58Z</time>
      </trkpt>
      <trkpt lat="43.44652" lon="-0.37749">
        <ele>267.2</ele>
        <time>2026-08-31T09:11:59Z</time>
      </trkpt>
      <trkpt lat="43.44653" lon="-0.37748">
        <ele>267.2</ele>
        <time>2026-08-31T09:11:59Z</time>
      </trkpt>
      <trkpt lat="43.44653" lon="-0.37747">
        <ele>267.2</ele>
        <time>2026-08-31T09:12:00Z</time>
      </trkpt>
      <trkpt lat="43.44653" lon="-0.37746">
        <ele>267.2</ele>
        <time>2026-08-31T09:12:00Z</time>
      </trkpt>
      <trkpt lat="43.44654" lon="-0.37746">
        <ele>267.2</ele>
        <time>2026-08-31T09:12:01Z</time>
      </trkpt>
      <trkpt lat="43.44654" lon="-0.37745">
        <ele>267.2</ele>
        <time>2026-08-31T09:12:01Z</time>
      </trkpt>
      <trkpt lat="43.44655" lon="-0.37744">
        <ele>267.2</ele>
        <time>2026-08-31T09:12:02Z</time>
      </trkpt>
      <trkpt lat="43.44655" lon="-0.37743">
        <ele>267.2</ele>
        <time>2026-08-31T09:12:02Z</time>
      </trkpt>
      <trkpt lat="43.44655" lon="-0.37742">
        <ele>268.2</ele>
        <time>2026-08-31T09:12:03Z</time>
      </trkpt>
      <trkpt lat="43.44656" lon="-0.37741">
        <ele>268.2</ele>
        <time>2026-08-31T09:12:04Z</time>
      </trkpt>
      <trkpt lat="43.44656" lon="-0.3774">
        <ele>267.2</ele>
        <time>2026-08-31T09:12:04Z</time>
      </trkpt>
      <trkpt lat="43.44656" lon="-0.37739">
        <ele>267.2</ele>
        <time>2026-08-31T09:12:05Z</time>
      </trkpt>
      <trkpt lat="43.44657" lon="-0.37739">
        <ele>267.2</ele>
        <time>2026-08-31T09:12:05Z</time>
      </trkpt>
      <trkpt lat="43.44657" lon="-0.37738">
        <ele>267.2</ele>
        <time>2026-08-31T09:12:06Z</time>
      </trkpt>
      <trkpt lat="43.44658" lon="-0.37737">
        <ele>267.2</ele>
        <time>2026-08-31T09:12:06Z</time>
      </trkpt>
      <trkpt lat="43.44658" lon="-0.37736">
        <ele>267.2</ele>
        <time>2026-08-31T09:12:07Z</time>
      </trkpt>
      <trkpt lat="43.44659" lon="-0.37735">
        <ele>267.2</ele>
        <time>2026-08-31T09:12:07Z</time>
      </trkpt>
      <trkpt lat="43.44659" lon="-0.37734">
        <ele>267.2</ele>
        <time>2026-08-31T09:12:08Z</time>
      </trkpt>
      <trkpt lat="43.44659" lon="-0.37734">
        <ele>267.2</ele>
        <time>2026-08-31T09:12:08Z</time>
      </trkpt>
      <trkpt lat="43.4466" lon="-0.37733">
        <ele>267.2</ele>
        <time>2026-08-31T09:12:09Z</time>
      </trkpt>
      <trkpt lat="43.4466" lon="-0.37732">
        <ele>267.2</ele>
        <time>2026-08-31T09:12:10Z</time>
      </trkpt>
      <trkpt lat="43.4466" lon="-0.37731">
        <ele>267.2</ele>
        <time>2026-08-31T09:12:10Z</time>
      </trkpt>
      <trkpt lat="43.44661" lon="-0.3773">
        <ele>267.2</ele>
        <time>2026-08-31T09:12:11Z</time>
      </trkpt>
      <trkpt lat="43.44661" lon="-0.37729">
        <ele>267.2</ele>
        <time>2026-08-31T09:12:11Z</time>
      </trkpt>
      <trkpt lat="43.44661" lon="-0.37728">
        <ele>267.2</ele>
        <time>2026-08-31T09:12:12Z</time>
      </trkpt>
      <trkpt lat="43.44662" lon="-0.37727">
        <ele>267.2</ele>
        <time>2026-08-31T09:12:12Z</time>
      </trkpt>
      <trkpt lat="43.44662" lon="-0.37726">
        <ele>267.2</ele>
        <time>2026-08-31T09:12:13Z</time>
      </trkpt>
      <trkpt lat="43.44662" lon="-0.37725">
        <ele>267.2</ele>
        <time>2026-08-31T09:12:13Z</time>
      </trkpt>
      <trkpt lat="43.44663" lon="-0.37724">
        <ele>267.2</ele>
        <time>2026-08-31T09:12:14Z</time>
      </trkpt>
      <trkpt lat="43.44663" lon="-0.37724">
        <ele>267.2</ele>
        <time>2026-08-31T09:12:14Z</time>
      </trkpt>
      <trkpt lat="43.44664" lon="-0.37723">
        <ele>267.2</ele>
        <time>2026-08-31T09:12:15Z</time>
      </trkpt>
      <trkpt lat="43.44664" lon="-0.37722">
        <ele>267.2</ele>
        <time>2026-08-31T09:12:15Z</time>
      </trkpt>
      <trkpt lat="43.44664" lon="-0.37721">
        <ele>268.2</ele>
        <time>2026-08-31T09:12:16Z</time>
      </trkpt>
      <trkpt lat="43.44665" lon="-0.3772">
        <ele>268.2</ele>
        <time>2026-08-31T09:12:17Z</time>
      </trkpt>
      <trkpt lat="43.44665" lon="-0.37719">
        <ele>268.2</ele>
        <time>2026-08-31T09:12:17Z</time>
      </trkpt>
      <trkpt lat="43.44665" lon="-0.37718">
        <ele>268.2</ele>
        <time>2026-08-31T09:12:18Z</time>
      </trkpt>
      <trkpt lat="43.44666" lon="-0.37717">
        <ele>268.2</ele>
        <time>2026-08-31T09:12:18Z</time>
      </trkpt>
      <trkpt lat="43.44666" lon="-0.37716">
        <ele>268.2</ele>
        <time>2026-08-31T09:12:19Z</time>
      </trkpt>
      <trkpt lat="43.44666" lon="-0.37716">
        <ele>268.2</ele>
        <time>2026-08-31T09:12:19Z</time>
      </trkpt>
      <trkpt lat="43.44667" lon="-0.37715">
        <ele>268.2</ele>
        <time>2026-08-31T09:12:20Z</time>
      </trkpt>
      <trkpt lat="43.44667" lon="-0.37714">
        <ele>268.2</ele>
        <time>2026-08-31T09:12:20Z</time>
      </trkpt>
      <trkpt lat="43.44668" lon="-0.37713">
        <ele>268.2</ele>
        <time>2026-08-31T09:12:21Z</time>
      </trkpt>
      <trkpt lat="43.44668" lon="-0.37712">
        <ele>268.2</ele>
        <time>2026-08-31T09:12:21Z</time>
      </trkpt>
      <trkpt lat="43.44668" lon="-0.37712">
        <ele>268.2</ele>
        <time>2026-08-31T09:12:22Z</time>
      </trkpt>
      <trkpt lat="43.44669" lon="-0.37711">
        <ele>268.2</ele>
        <time>2026-08-31T09:12:22Z</time>
      </trkpt>
      <trkpt lat="43.44669" lon="-0.3771">
        <ele>268.2</ele>
        <time>2026-08-31T09:12:23Z</time>
      </trkpt>
      <trkpt lat="43.4467" lon="-0.37709">
        <ele>268.2</ele>
        <time>2026-08-31T09:12:23Z</time>
      </trkpt>
      <trkpt lat="43.4467" lon="-0.37708">
        <ele>268.2</ele>
        <time>2026-08-31T09:12:24Z</time>
      </trkpt>
      <trkpt lat="43.4467" lon="-0.37707">
        <ele>268.2</ele>
        <time>2026-08-31T09:12:25Z</time>
      </trkpt>
      <trkpt lat="43.44671" lon="-0.37706">
        <ele>268.2</ele>
        <time>2026-08-31T09:12:25Z</time>
      </trkpt>
      <trkpt lat="43.44671" lon="-0.37706">
        <ele>268.2</ele>
        <time>2026-08-31T09:12:26Z</time>
      </trkpt>
      <trkpt lat="43.44671" lon="-0.37705">
        <ele>268.2</ele>
        <time>2026-08-31T09:12:26Z</time>
      </trkpt>
      <trkpt lat="43.44672" lon="-0.37704">
        <ele>268.2</ele>
        <time>2026-08-31T09:12:27Z</time>
      </trkpt>
      <trkpt lat="43.44672" lon="-0.37703">
        <ele>268.2</ele>
        <time>2026-08-31T09:12:27Z</time>
      </trkpt>
      <trkpt lat="43.44673" lon="-0.37702">
        <ele>268.2</ele>
        <time>2026-08-31T09:12:28Z</time>
      </trkpt>
      <trkpt lat="43.44673" lon="-0.37701">
        <ele>268.2</ele>
        <time>2026-08-31T09:12:28Z</time>
      </trkpt>
      <trkpt lat="43.44673" lon="-0.377">
        <ele>268.2</ele>
        <time>2026-08-31T09:12:29Z</time>
      </trkpt>
      <trkpt lat="43.44674" lon="-0.377">
        <ele>268.2</ele>
        <time>2026-08-31T09:12:29Z</time>
      </trkpt>
      <trkpt lat="43.44674" lon="-0.37699">
        <ele>268.2</ele>
        <time>2026-08-31T09:12:30Z</time>
      </trkpt>
      <trkpt lat="43.44675" lon="-0.37698">
        <ele>268.2</ele>
        <time>2026-08-31T09:12:30Z</time>
      </trkpt>
      <trkpt lat="43.44675" lon="-0.37697">
        <ele>268.2</ele>
        <time>2026-08-31T09:12:31Z</time>
      </trkpt>
      <trkpt lat="43.44675" lon="-0.37696">
        <ele>268.2</ele>
        <time>2026-08-31T09:12:32Z</time>
      </trkpt>
      <trkpt lat="43.44676" lon="-0.37696">
        <ele>268.2</ele>
        <time>2026-08-31T09:12:32Z</time>
      </trkpt>
      <trkpt lat="43.44676" lon="-0.37695">
        <ele>268.2</ele>
        <time>2026-08-31T09:12:33Z</time>
      </trkpt>
      <trkpt lat="43.44676" lon="-0.37694">
        <ele>268.2</ele>
        <time>2026-08-31T09:12:33Z</time>
      </trkpt>
      <trkpt lat="43.44676" lon="-0.37693">
        <ele>268.2</ele>
        <time>2026-08-31T09:12:34Z</time>
      </trkpt>
      <trkpt lat="43.44677" lon="-0.37692">
        <ele>268.2</ele>
        <time>2026-08-31T09:12:34Z</time>
      </trkpt>
      <trkpt lat="43.44677" lon="-0.37691">
        <ele>268.2</ele>
        <time>2026-08-31T09:12:35Z</time>
      </trkpt>
      <trkpt lat="43.44677" lon="-0.3769">
        <ele>268.2</ele>
        <time>2026-08-31T09:12:35Z</time>
      </trkpt>
      <trkpt lat="43.44677" lon="-0.37689">
        <ele>268.2</ele>
        <time>2026-08-31T09:12:36Z</time>
      </trkpt>
      <trkpt lat="43.44677" lon="-0.37689">
        <ele>268.2</ele>
        <time>2026-08-31T09:12:36Z</time>
      </trkpt>
      <trkpt lat="43.44677" lon="-0.37688">
        <ele>268.2</ele>
        <time>2026-08-31T09:12:37Z</time>
      </trkpt>
      <trkpt lat="43.44678" lon="-0.37687">
        <ele>268.2</ele>
        <time>2026-08-31T09:12:37Z</time>
      </trkpt>
      <trkpt lat="43.44678" lon="-0.37686">
        <ele>268.2</ele>
        <time>2026-08-31T09:12:38Z</time>
      </trkpt>
      <trkpt lat="43.44678" lon="-0.37685">
        <ele>268.2</ele>
        <time>2026-08-31T09:12:39Z</time>
      </trkpt>
      <trkpt lat="43.44678" lon="-0.37684">
        <ele>268.2</ele>
        <time>2026-08-31T09:12:39Z</time>
      </trkpt>
      <trkpt lat="43.44678" lon="-0.37683">
        <ele>268.2</ele>
        <time>2026-08-31T09:12:40Z</time>
      </trkpt>
      <trkpt lat="43.44679" lon="-0.37682">
        <ele>268.2</ele>
        <time>2026-08-31T09:12:40Z</time>
      </trkpt>
      <trkpt lat="43.44679" lon="-0.37681">
        <ele>268.2</ele>
        <time>2026-08-31T09:12:41Z</time>
      </trkpt>
      <trkpt lat="43.44679" lon="-0.3768">
        <ele>268.2</ele>
        <time>2026-08-31T09:12:41Z</time>
      </trkpt>
      <trkpt lat="43.44679" lon="-0.3768">
        <ele>268.2</ele>
        <time>2026-08-31T09:12:42Z</time>
      </trkpt>
      <trkpt lat="43.44679" lon="-0.37679">
        <ele>268.2</ele>
        <time>2026-08-31T09:12:42Z</time>
      </trkpt>
      <trkpt lat="43.4468" lon="-0.37678">
        <ele>268.2</ele>
        <time>2026-08-31T09:12:43Z</time>
      </trkpt>
      <trkpt lat="43.4468" lon="-0.37677">
        <ele>268.2</ele>
        <time>2026-08-31T09:12:43Z</time>
      </trkpt>
      <trkpt lat="43.4468" lon="-0.37676">
        <ele>268.2</ele>
        <time>2026-08-31T09:12:44Z</time>
      </trkpt>
      <trkpt lat="43.4468" lon="-0.37675">
        <ele>268.2</ele>
        <time>2026-08-31T09:12:44Z</time>
      </trkpt>
      <trkpt lat="43.44681" lon="-0.37674">
        <ele>268.2</ele>
        <time>2026-08-31T09:12:45Z</time>
      </trkpt>
      <trkpt lat="43.44681" lon="-0.37673">
        <ele>268.2</ele>
        <time>2026-08-31T09:12:46Z</time>
      </trkpt>
      <trkpt lat="43.44681" lon="-0.37672">
        <ele>268.2</ele>
        <time>2026-08-31T09:12:46Z</time>
      </trkpt>
      <trkpt lat="43.44681" lon="-0.37671">
        <ele>268.2</ele>
        <time>2026-08-31T09:12:47Z</time>
      </trkpt>
      <trkpt lat="43.44681" lon="-0.3767">
        <ele>268.2</ele>
        <time>2026-08-31T09:12:47Z</time>
      </trkpt>
      <trkpt lat="43.44682" lon="-0.37669">
        <ele>268.2</ele>
        <time>2026-08-31T09:12:48Z</time>
      </trkpt>
      <trkpt lat="43.44682" lon="-0.37669">
        <ele>267.2</ele>
        <time>2026-08-31T09:12:48Z</time>
      </trkpt>
      <trkpt lat="43.44682" lon="-0.37668">
        <ele>267.2</ele>
        <time>2026-08-31T09:12:49Z</time>
      </trkpt>
      <trkpt lat="43.44682" lon="-0.37667">
        <ele>267.2</ele>
        <time>2026-08-31T09:12:49Z</time>
      </trkpt>
      <trkpt lat="43.44682" lon="-0.37666">
        <ele>267.2</ele>
        <time>2026-08-31T09:12:50Z</time>
      </trkpt>
      <trkpt lat="43.44683" lon="-0.37665">
        <ele>267.2</ele>
        <time>2026-08-31T09:12:50Z</time>
      </trkpt>
      <trkpt lat="43.44683" lon="-0.37664">
        <ele>268.2</ele>
        <time>2026-08-31T09:12:51Z</time>
      </trkpt>
      <trkpt lat="43.44683" lon="-0.37663">
        <ele>268.2</ele>
        <time>2026-08-31T09:12:51Z</time>
      </trkpt>
      <trkpt lat="43.44683" lon="-0.37662">
        <ele>268.2</ele>
        <time>2026-08-31T09:12:52Z</time>
      </trkpt>
      <trkpt lat="43.44683" lon="-0.37661">
        <ele>268.2</ele>
        <time>2026-08-31T09:12:52Z</time>
      </trkpt>
      <trkpt lat="43.44683" lon="-0.3766">
        <ele>268.2</ele>
        <time>2026-08-31T09:12:53Z</time>
      </trkpt>
      <trkpt lat="43.44684" lon="-0.37659">
        <ele>268.2</ele>
        <time>2026-08-31T09:12:54Z</time>
      </trkpt>
      <trkpt lat="43.44684" lon="-0.37658">
        <ele>268.2</ele>
        <time>2026-08-31T09:12:54Z</time>
      </trkpt>
      <trkpt lat="43.44684" lon="-0.37657">
        <ele>268.2</ele>
        <time>2026-08-31T09:12:55Z</time>
      </trkpt>
      <trkpt lat="43.44684" lon="-0.37657">
        <ele>268.2</ele>
        <time>2026-08-31T09:12:55Z</time>
      </trkpt>
      <trkpt lat="43.44684" lon="-0.37656">
        <ele>268.2</ele>
        <time>2026-08-31T09:12:56Z</time>
      </trkpt>
      <trkpt lat="43.44684" lon="-0.37655">
        <ele>268.2</ele>
        <time>2026-08-31T09:12:56Z</time>
      </trkpt>
      <trkpt lat="43.44685" lon="-0.37654">
        <ele>268.2</ele>
        <time>2026-08-31T09:12:57Z</time>
      </trkpt>
      <trkpt lat="43.44685" lon="-0.37653">
        <ele>268.2</ele>
        <time>2026-08-31T09:12:57Z</time>
      </trkpt>
      <trkpt lat="43.44685" lon="-0.37652">
        <ele>268.2</ele>
        <time>2026-08-31T09:12:58Z</time>
      </trkpt>
      <trkpt lat="43.44685" lon="-0.37651">
        <ele>268.2</ele>
        <time>2026-08-31T09:12:58Z</time>
      </trkpt>
      <trkpt lat="43.44685" lon="-0.3765">
        <ele>268.2</ele>
        <time>2026-08-31T09:12:59Z</time>
      </trkpt>
      <trkpt lat="43.44686" lon="-0.37649">
        <ele>268.2</ele>
        <time>2026-08-31T09:12:59Z</time>
      </trkpt>
      <trkpt lat="43.44686" lon="-0.37648">
        <ele>268.2</ele>
        <time>2026-08-31T09:13:00Z</time>
      </trkpt>
      <trkpt lat="43.44686" lon="-0.37647">
        <ele>268.2</ele>
        <time>2026-08-31T09:13:01Z</time>
      </trkpt>
      <trkpt lat="43.44686" lon="-0.37646">
        <ele>268.2</ele>
        <time>2026-08-31T09:13:01Z</time>
      </trkpt>
      <trkpt lat="43.44686" lon="-0.37645">
        <ele>268.2</ele>
        <time>2026-08-31T09:13:02Z</time>
      </trkpt>
      <trkpt lat="43.44686" lon="-0.37644">
        <ele>268.2</ele>
        <time>2026-08-31T09:13:02Z</time>
      </trkpt>
      <trkpt lat="43.44686" lon="-0.37643">
        <ele>268.2</ele>
        <time>2026-08-31T09:13:03Z</time>
      </trkpt>
      <trkpt lat="43.44686" lon="-0.37642">
        <ele>268.2</ele>
        <time>2026-08-31T09:13:03Z</time>
      </trkpt>
      <trkpt lat="43.44686" lon="-0.37641">
        <ele>268.2</ele>
        <time>2026-08-31T09:13:04Z</time>
      </trkpt>
      <trkpt lat="43.44686" lon="-0.3764">
        <ele>268.2</ele>
        <time>2026-08-31T09:13:04Z</time>
      </trkpt>
      <trkpt lat="43.44686" lon="-0.37639">
        <ele>268.2</ele>
        <time>2026-08-31T09:13:05Z</time>
      </trkpt>
      <trkpt lat="43.44686" lon="-0.37638">
        <ele>268.2</ele>
        <time>2026-08-31T09:13:05Z</time>
      </trkpt>
      <trkpt lat="43.44686" lon="-0.37637">
        <ele>268.2</ele>
        <time>2026-08-31T09:13:06Z</time>
      </trkpt>
      <trkpt lat="43.44687" lon="-0.37636">
        <ele>268.2</ele>
        <time>2026-08-31T09:13:06Z</time>
      </trkpt>
      <trkpt lat="43.44687" lon="-0.37635">
        <ele>268.2</ele>
        <time>2026-08-31T09:13:07Z</time>
      </trkpt>
      <trkpt lat="43.44687" lon="-0.37634">
        <ele>268.2</ele>
        <time>2026-08-31T09:13:07Z</time>
      </trkpt>
      <trkpt lat="43.44687" lon="-0.37633">
        <ele>268.2</ele>
        <time>2026-08-31T09:13:08Z</time>
      </trkpt>
      <trkpt lat="43.44687" lon="-0.37632">
        <ele>268.2</ele>
        <time>2026-08-31T09:13:09Z</time>
      </trkpt>
      <trkpt lat="43.44687" lon="-0.37631">
        <ele>268.2</ele>
        <time>2026-08-31T09:13:09Z</time>
      </trkpt>
      <trkpt lat="43.44687" lon="-0.3763">
        <ele>268.2</ele>
        <time>2026-08-31T09:13:10Z</time>
      </trkpt>
      <trkpt lat="43.44687" lon="-0.37629">
        <ele>267.2</ele>
        <time>2026-08-31T09:13:10Z</time>
      </trkpt>
      <trkpt lat="43.44687" lon="-0.37628">
        <ele>267.2</ele>
        <time>2026-08-31T09:13:11Z</time>
      </trkpt>
      <trkpt lat="43.44687" lon="-0.37627">
        <ele>267.2</ele>
        <time>2026-08-31T09:13:11Z</time>
      </trkpt>
      <trkpt lat="43.44687" lon="-0.37626">
        <ele>267.2</ele>
        <time>2026-08-31T09:13:12Z</time>
      </trkpt>
      <trkpt lat="43.44687" lon="-0.37625">
        <ele>267.2</ele>
        <time>2026-08-31T09:13:12Z</time>
      </trkpt>
      <trkpt lat="43.44687" lon="-0.37624">
        <ele>267.2</ele>
        <time>2026-08-31T09:13:13Z</time>
      </trkpt>
      <trkpt lat="43.44687" lon="-0.37623">
        <ele>267.2</ele>
        <time>2026-08-31T09:13:13Z</time>
      </trkpt>
      <trkpt lat="43.44687" lon="-0.37622">
        <ele>266.2</ele>
        <time>2026-08-31T09:13:14Z</time>
      </trkpt>
      <trkpt lat="43.44687" lon="-0.37621">
        <ele>266.2</ele>
        <time>2026-08-31T09:13:14Z</time>
      </trkpt>
      <trkpt lat="43.44687" lon="-0.37621">
        <ele>266.2</ele>
        <time>2026-08-31T09:13:15Z</time>
      </trkpt>
      <trkpt lat="43.44687" lon="-0.3762">
        <ele>266.2</ele>
        <time>2026-08-31T09:13:15Z</time>
      </trkpt>
      <trkpt lat="43.44687" lon="-0.37619">
        <ele>266.2</ele>
        <time>2026-08-31T09:13:16Z</time>
      </trkpt>
      <trkpt lat="43.44687" lon="-0.37618">
        <ele>266.2</ele>
        <time>2026-08-31T09:13:17Z</time>
      </trkpt>
      <trkpt lat="43.44687" lon="-0.37617">
        <ele>266.2</ele>
        <time>2026-08-31T09:13:17Z</time>
      </trkpt>
      <trkpt lat="43.44686" lon="-0.37616">
        <ele>266.2</ele>
        <time>2026-08-31T09:13:18Z</time>
      </trkpt>
      <trkpt lat="43.44686" lon="-0.37615">
        <ele>266.2</ele>
        <time>2026-08-31T09:13:18Z</time>
      </trkpt>
      <trkpt lat="43.44686" lon="-0.37614">
        <ele>266.2</ele>
        <time>2026-08-31T09:13:19Z</time>
      </trkpt>
      <trkpt lat="43.44686" lon="-0.37613">
        <ele>266.2</ele>
        <time>2026-08-31T09:13:19Z</time>
      </trkpt>
      <trkpt lat="43.44686" lon="-0.37612">
        <ele>265.2</ele>
        <time>2026-08-31T09:13:20Z</time>
      </trkpt>
      <trkpt lat="43.44686" lon="-0.37611">
        <ele>265.2</ele>
        <time>2026-08-31T09:13:20Z</time>
      </trkpt>
      <trkpt lat="43.44686" lon="-0.3761">
        <ele>265.2</ele>
        <time>2026-08-31T09:13:21Z</time>
      </trkpt>
      <trkpt lat="43.44686" lon="-0.37609">
        <ele>265.2</ele>
        <time>2026-08-31T09:13:21Z</time>
      </trkpt>
      <trkpt lat="43.44686" lon="-0.37609">
        <ele>265.2</ele>
        <time>2026-08-31T09:13:22Z</time>
      </trkpt>
      <trkpt lat="43.44686" lon="-0.37608">
        <ele>265.2</ele>
        <time>2026-08-31T09:13:22Z</time>
      </trkpt>
      <trkpt lat="43.44686" lon="-0.37607">
        <ele>265.2</ele>
        <time>2026-08-31T09:13:23Z</time>
      </trkpt>
      <trkpt lat="43.44686" lon="-0.37606">
        <ele>265.2</ele>
        <time>2026-08-31T09:13:24Z</time>
      </trkpt>
      <trkpt lat="43.44686" lon="-0.37605">
        <ele>265.2</ele>
        <time>2026-08-31T09:13:24Z</time>
      </trkpt>
      <trkpt lat="43.44686" lon="-0.37604">
        <ele>265.2</ele>
        <time>2026-08-31T09:13:25Z</time>
      </trkpt>
      <trkpt lat="43.44686" lon="-0.37603">
        <ele>265.2</ele>
        <time>2026-08-31T09:13:25Z</time>
      </trkpt>
      <trkpt lat="43.44686" lon="-0.37602">
        <ele>265.2</ele>
        <time>2026-08-31T09:13:26Z</time>
      </trkpt>
      <trkpt lat="43.44686" lon="-0.37601">
        <ele>265.2</ele>
        <time>2026-08-31T09:13:26Z</time>
      </trkpt>
      <trkpt lat="43.44685" lon="-0.37601">
        <ele>265.2</ele>
        <time>2026-08-31T09:13:27Z</time>
      </trkpt>
      <trkpt lat="43.44685" lon="-0.376">
        <ele>265.2</ele>
        <time>2026-08-31T09:13:27Z</time>
      </trkpt>
      <trkpt lat="43.44685" lon="-0.37599">
        <ele>264.2</ele>
        <time>2026-08-31T09:13:28Z</time>
      </trkpt>
      <trkpt lat="43.44685" lon="-0.37598">
        <ele>264.2</ele>
        <time>2026-08-31T09:13:28Z</time>
      </trkpt>
      <trkpt lat="43.44685" lon="-0.37598">
        <ele>264.2</ele>
        <time>2026-08-31T09:13:29Z</time>
      </trkpt>
      <trkpt lat="43.44684" lon="-0.37597">
        <ele>264.2</ele>
        <time>2026-08-31T09:13:29Z</time>
      </trkpt>
      <trkpt lat="43.44684" lon="-0.37596">
        <ele>264.2</ele>
        <time>2026-08-31T09:13:30Z</time>
      </trkpt>
      <trkpt lat="43.44684" lon="-0.37595">
        <ele>264.2</ele>
        <time>2026-08-31T09:13:30Z</time>
      </trkpt>
      <trkpt lat="43.44684" lon="-0.37595">
        <ele>264.2</ele>
        <time>2026-08-31T09:13:31Z</time>
      </trkpt>
      <trkpt lat="43.44684" lon="-0.37594">
        <ele>264.2</ele>
        <time>2026-08-31T09:13:32Z</time>
      </trkpt>
      <trkpt lat="43.44684" lon="-0.37593">
        <ele>264.2</ele>
        <time>2026-08-31T09:13:32Z</time>
      </trkpt>
      <trkpt lat="43.44684" lon="-0.37592">
        <ele>264.2</ele>
        <time>2026-08-31T09:13:33Z</time>
      </trkpt>
      <trkpt lat="43.44684" lon="-0.37592">
        <ele>264.2</ele>
        <time>2026-08-31T09:13:33Z</time>
      </trkpt>
      <trkpt lat="43.44684" lon="-0.37591">
        <ele>264.2</ele>
        <time>2026-08-31T09:13:34Z</time>
      </trkpt>
      <trkpt lat="43.44684" lon="-0.3759">
        <ele>263.2</ele>
        <time>2026-08-31T09:13:34Z</time>
      </trkpt>
      <trkpt lat="43.44683" lon="-0.37589">
        <ele>263.2</ele>
        <time>2026-08-31T09:13:35Z</time>
      </trkpt>
      <trkpt lat="43.44683" lon="-0.37589">
        <ele>262.2</ele>
        <time>2026-08-31T09:13:35Z</time>
      </trkpt>
      <trkpt lat="43.44683" lon="-0.37588">
        <ele>261.2</ele>
        <time>2026-08-31T09:13:36Z</time>
      </trkpt>
      <trkpt lat="43.44683" lon="-0.37588">
        <ele>261.2</ele>
        <time>2026-08-31T09:13:36Z</time>
      </trkpt>
      <trkpt lat="43.44683" lon="-0.37587">
        <ele>262.2</ele>
        <time>2026-08-31T09:13:37Z</time>
      </trkpt>
      <trkpt lat="43.44683" lon="-0.37586">
        <ele>262.2</ele>
        <time>2026-08-31T09:13:37Z</time>
      </trkpt>
      <trkpt lat="43.44683" lon="-0.37585">
        <ele>262.2</ele>
        <time>2026-08-31T09:13:38Z</time>
      </trkpt>
      <trkpt lat="43.44683" lon="-0.37584">
        <ele>262.2</ele>
        <time>2026-08-31T09:13:38Z</time>
      </trkpt>
      <trkpt lat="43.44683" lon="-0.37584">
        <ele>262.2</ele>
        <time>2026-08-31T09:13:39Z</time>
      </trkpt>
      <trkpt lat="43.44683" lon="-0.37583">
        <ele>262.2</ele>
        <time>2026-08-31T09:13:39Z</time>
      </trkpt>
      <trkpt lat="43.44683" lon="-0.37582">
        <ele>262.2</ele>
        <time>2026-08-31T09:13:40Z</time>
      </trkpt>
      <trkpt lat="43.44683" lon="-0.37581">
        <ele>262.2</ele>
        <time>2026-08-31T09:13:41Z</time>
      </trkpt>
      <trkpt lat="43.44683" lon="-0.3758">
        <ele>262.2</ele>
        <time>2026-08-31T09:13:41Z</time>
      </trkpt>
      <trkpt lat="43.44682" lon="-0.3758">
        <ele>262.2</ele>
        <time>2026-08-31T09:13:42Z</time>
      </trkpt>
      <trkpt lat="43.44682" lon="-0.37579">
        <ele>262.2</ele>
        <time>2026-08-31T09:13:42Z</time>
      </trkpt>
      <trkpt lat="43.44682" lon="-0.37578">
        <ele>262.2</ele>
        <time>2026-08-31T09:13:43Z</time>
      </trkpt>
      <trkpt lat="43.44682" lon="-0.37577">
        <ele>262.2</ele>
        <time>2026-08-31T09:13:43Z</time>
      </trkpt>
      <trkpt lat="43.44682" lon="-0.37576">
        <ele>262.2</ele>
        <time>2026-08-31T09:13:44Z</time>
      </trkpt>
      <trkpt lat="43.44682" lon="-0.37576">
        <ele>262.2</ele>
        <time>2026-08-31T09:13:44Z</time>
      </trkpt>
      <trkpt lat="43.44683" lon="-0.37575">
        <ele>261.2</ele>
        <time>2026-08-31T09:13:45Z</time>
      </trkpt>
      <trkpt lat="43.44683" lon="-0.37574">
        <ele>261.2</ele>
        <time>2026-08-31T09:13:45Z</time>
      </trkpt>
      <trkpt lat="43.44683" lon="-0.37574">
        <ele>261.2</ele>
        <time>2026-08-31T09:13:46Z</time>
      </trkpt>
      <trkpt lat="43.44683" lon="-0.37573">
        <ele>261.2</ele>
        <time>2026-08-31T09:13:46Z</time>
      </trkpt>
      <trkpt lat="43.44683" lon="-0.37572">
        <ele>261.2</ele>
        <time>2026-08-31T09:13:47Z</time>
      </trkpt>
      <trkpt lat="43.44683" lon="-0.37571">
        <ele>261.2</ele>
        <time>2026-08-31T09:13:47Z</time>
      </trkpt>
      <trkpt lat="43.44683" lon="-0.3757">
        <ele>262.2</ele>
        <time>2026-08-31T09:13:48Z</time>
      </trkpt>
      <trkpt lat="43.44683" lon="-0.37569">
        <ele>262.2</ele>
        <time>2026-08-31T09:13:48Z</time>
      </trkpt>
      <trkpt lat="43.44683" lon="-0.37568">
        <ele>262.2</ele>
        <time>2026-08-31T09:13:49Z</time>
      </trkpt>
      <trkpt lat="43.44683" lon="-0.37567">
        <ele>262.2</ele>
        <time>2026-08-31T09:13:49Z</time>
      </trkpt>
      <trkpt lat="43.44683" lon="-0.37567">
        <ele>262.2</ele>
        <time>2026-08-31T09:13:50Z</time>
      </trkpt>
      <trkpt lat="43.44683" lon="-0.37566">
        <ele>262.2</ele>
        <time>2026-08-31T09:13:51Z</time>
      </trkpt>
      <trkpt lat="43.44683" lon="-0.37565">
        <ele>262.2</ele>
        <time>2026-08-31T09:13:51Z</time>
      </trkpt>
      <trkpt lat="43.44683" lon="-0.37564">
        <ele>262.2</ele>
        <time>2026-08-31T09:13:52Z</time>
      </trkpt>
      <trkpt lat="43.44683" lon="-0.37563">
        <ele>262.2</ele>
        <time>2026-08-31T09:13:52Z</time>
      </trkpt>
      <trkpt lat="43.44683" lon="-0.37562">
        <ele>262.2</ele>
        <time>2026-08-31T09:13:53Z</time>
      </trkpt>
      <trkpt lat="43.44683" lon="-0.37561">
        <ele>262.2</ele>
        <time>2026-08-31T09:13:53Z</time>
      </trkpt>
      <trkpt lat="43.44683" lon="-0.3756">
        <ele>262.2</ele>
        <time>2026-08-31T09:13:54Z</time>
      </trkpt>
      <trkpt lat="43.44683" lon="-0.37559">
        <ele>262.2</ele>
        <time>2026-08-31T09:13:54Z</time>
      </trkpt>
      <trkpt lat="43.44683" lon="-0.37558">
        <ele>262.2</ele>
        <time>2026-08-31T09:13:55Z</time>
      </trkpt>
      <trkpt lat="43.44683" lon="-0.37557">
        <ele>262.2</ele>
        <time>2026-08-31T09:13:55Z</time>
      </trkpt>
      <trkpt lat="43.44683" lon="-0.37556">
        <ele>262.2</ele>
        <time>2026-08-31T09:13:56Z</time>
      </trkpt>
      <trkpt lat="43.44683" lon="-0.37555">
        <ele>262.2</ele>
        <time>2026-08-31T09:13:56Z</time>
      </trkpt>
      <trkpt lat="43.44683" lon="-0.37555">
        <ele>261.2</ele>
        <time>2026-08-31T09:13:57Z</time>
      </trkpt>
      <trkpt lat="43.44683" lon="-0.37553">
        <ele>261.2</ele>
        <time>2026-08-31T09:13:57Z</time>
      </trkpt>
      <trkpt lat="43.44683" lon="-0.37553">
        <ele>261.2</ele>
        <time>2026-08-31T09:13:58Z</time>
      </trkpt>
      <trkpt lat="43.44683" lon="-0.37552">
        <ele>261.2</ele>
        <time>2026-08-31T09:13:58Z</time>
      </trkpt>
      <trkpt lat="43.44682" lon="-0.37551">
        <ele>261.2</ele>
        <time>2026-08-31T09:13:59Z</time>
      </trkpt>
      <trkpt lat="43.44682" lon="-0.3755">
        <ele>261.2</ele>
        <time>2026-08-31T09:13:59Z</time>
      </trkpt>
      <trkpt lat="43.44682" lon="-0.37549">
        <ele>261.2</ele>
        <time>2026-08-31T09:14:00Z</time>
      </trkpt>
      <trkpt lat="43.44682" lon="-0.37548">
        <ele>261.2</ele>
        <time>2026-08-31T09:14:01Z</time>
      </trkpt>
      <trkpt lat="43.44682" lon="-0.37547">
        <ele>260.2</ele>
        <time>2026-08-31T09:14:01Z</time>
      </trkpt>
      <trkpt lat="43.44682" lon="-0.37546">
        <ele>260.2</ele>
        <time>2026-08-31T09:14:02Z</time>
      </trkpt>
      <trkpt lat="43.44682" lon="-0.37545">
        <ele>259.2</ele>
        <time>2026-08-31T09:14:02Z</time>
      </trkpt>
      <trkpt lat="43.44682" lon="-0.37544">
        <ele>259.2</ele>
        <time>2026-08-31T09:14:03Z</time>
      </trkpt>
      <trkpt lat="43.44682" lon="-0.37544">
        <ele>259.2</ele>
        <time>2026-08-31T09:14:03Z</time>
      </trkpt>
      <trkpt lat="43.44682" lon="-0.37543">
        <ele>258.2</ele>
        <time>2026-08-31T09:14:04Z</time>
      </trkpt>
      <trkpt lat="43.44682" lon="-0.37542">
        <ele>258.2</ele>
        <time>2026-08-31T09:14:04Z</time>
      </trkpt>
      <trkpt lat="43.44682" lon="-0.37542">
        <ele>258.2</ele>
        <time>2026-08-31T09:14:05Z</time>
      </trkpt>
      <trkpt lat="43.44682" lon="-0.3754">
        <ele>258.2</ele>
        <time>2026-08-31T09:14:05Z</time>
      </trkpt>
      <trkpt lat="43.44682" lon="-0.3754">
        <ele>258.2</ele>
        <time>2026-08-31T09:14:06Z</time>
      </trkpt>
      <trkpt lat="43.44681" lon="-0.37539">
        <ele>258.2</ele>
        <time>2026-08-31T09:14:06Z</time>
      </trkpt>
      <trkpt lat="43.44681" lon="-0.37538">
        <ele>258.2</ele>
        <time>2026-08-31T09:14:07Z</time>
      </trkpt>
      <trkpt lat="43.44681" lon="-0.37537">
        <ele>258.2</ele>
        <time>2026-08-31T09:14:07Z</time>
      </trkpt>
      <trkpt lat="43.44681" lon="-0.37536">
        <ele>258.2</ele>
        <time>2026-08-31T09:14:08Z</time>
      </trkpt>
      <trkpt lat="43.44681" lon="-0.37535">
        <ele>258.2</ele>
        <time>2026-08-31T09:14:08Z</time>
      </trkpt>
      <trkpt lat="43.44681" lon="-0.37534">
        <ele>258.2</ele>
        <time>2026-08-31T09:14:09Z</time>
      </trkpt>
      <trkpt lat="43.44681" lon="-0.37533">
        <ele>258.2</ele>
        <time>2026-08-31T09:14:09Z</time>
      </trkpt>
      <trkpt lat="43.44681" lon="-0.37532">
        <ele>258.2</ele>
        <time>2026-08-31T09:14:10Z</time>
      </trkpt>
      <trkpt lat="43.44681" lon="-0.37531">
        <ele>258.2</ele>
        <time>2026-08-31T09:14:11Z</time>
      </trkpt>
      <trkpt lat="43.44681" lon="-0.3753">
        <ele>258.2</ele>
        <time>2026-08-31T09:14:11Z</time>
      </trkpt>
      <trkpt lat="43.44681" lon="-0.37529">
        <ele>258.2</ele>
        <time>2026-08-31T09:14:12Z</time>
      </trkpt>
      <trkpt lat="43.44681" lon="-0.37528">
        <ele>257.2</ele>
        <time>2026-08-31T09:14:12Z</time>
      </trkpt>
      <trkpt lat="43.44681" lon="-0.37527">
        <ele>257.2</ele>
        <time>2026-08-31T09:14:13Z</time>
      </trkpt>
      <trkpt lat="43.4468" lon="-0.37526">
        <ele>257.2</ele>
        <time>2026-08-31T09:14:13Z</time>
      </trkpt>
      <trkpt lat="43.4468" lon="-0.37525">
        <ele>257.2</ele>
        <time>2026-08-31T09:14:14Z</time>
      </trkpt>
      <trkpt lat="43.4468" lon="-0.37524">
        <ele>257.2</ele>
        <time>2026-08-31T09:14:14Z</time>
      </trkpt>
      <trkpt lat="43.4468" lon="-0.37523">
        <ele>257.2</ele>
        <time>2026-08-31T09:14:15Z</time>
      </trkpt>
      <trkpt lat="43.4468" lon="-0.37522">
        <ele>258.2</ele>
        <time>2026-08-31T09:14:15Z</time>
      </trkpt>
      <trkpt lat="43.4468" lon="-0.37521">
        <ele>258.2</ele>
        <time>2026-08-31T09:14:16Z</time>
      </trkpt>
      <trkpt lat="43.4468" lon="-0.3752">
        <ele>258.2</ele>
        <time>2026-08-31T09:14:16Z</time>
      </trkpt>
      <trkpt lat="43.4468" lon="-0.37519">
        <ele>258.2</ele>
        <time>2026-08-31T09:14:17Z</time>
      </trkpt>
      <trkpt lat="43.4468" lon="-0.37518">
        <ele>258.2</ele>
        <time>2026-08-31T09:14:17Z</time>
      </trkpt>
      <trkpt lat="43.4468" lon="-0.37517">
        <ele>258.2</ele>
        <time>2026-08-31T09:14:18Z</time>
      </trkpt>
      <trkpt lat="43.4468" lon="-0.37516">
        <ele>258.2</ele>
        <time>2026-08-31T09:14:18Z</time>
      </trkpt>
      <trkpt lat="43.44679" lon="-0.37515">
        <ele>258.2</ele>
        <time>2026-08-31T09:14:19Z</time>
      </trkpt>
      <trkpt lat="43.44679" lon="-0.37514">
        <ele>258.2</ele>
        <time>2026-08-31T09:14:19Z</time>
      </trkpt>
      <trkpt lat="43.44679" lon="-0.37513">
        <ele>258.2</ele>
        <time>2026-08-31T09:14:20Z</time>
      </trkpt>
      <trkpt lat="43.44679" lon="-0.37512">
        <ele>258.2</ele>
        <time>2026-08-31T09:14:20Z</time>
      </trkpt>
      <trkpt lat="43.44679" lon="-0.37511">
        <ele>258.2</ele>
        <time>2026-08-31T09:14:21Z</time>
      </trkpt>
      <trkpt lat="43.44679" lon="-0.3751">
        <ele>258.2</ele>
        <time>2026-08-31T09:14:22Z</time>
      </trkpt>
      <trkpt lat="43.44679" lon="-0.37509">
        <ele>258.2</ele>
        <time>2026-08-31T09:14:22Z</time>
      </trkpt>
      <trkpt lat="43.44679" lon="-0.37508">
        <ele>258.2</ele>
        <time>2026-08-31T09:14:23Z</time>
      </trkpt>
      <trkpt lat="43.44679" lon="-0.37507">
        <ele>258.2</ele>
        <time>2026-08-31T09:14:23Z</time>
      </trkpt>
      <trkpt lat="43.44679" lon="-0.37507">
        <ele>258.2</ele>
        <time>2026-08-31T09:14:24Z</time>
      </trkpt>
      <trkpt lat="43.44679" lon="-0.37505">
        <ele>258.2</ele>
        <time>2026-08-31T09:14:24Z</time>
      </trkpt>
      <trkpt lat="43.44679" lon="-0.37505">
        <ele>258.2</ele>
        <time>2026-08-31T09:14:25Z</time>
      </trkpt>
      <trkpt lat="43.44679" lon="-0.37503">
        <ele>258.2</ele>
        <time>2026-08-31T09:14:25Z</time>
      </trkpt>
      <trkpt lat="43.4468" lon="-0.37502">
        <ele>258.2</ele>
        <time>2026-08-31T09:14:26Z</time>
      </trkpt>
      <trkpt lat="43.4468" lon="-0.37501">
        <ele>258.2</ele>
        <time>2026-08-31T09:14:26Z</time>
      </trkpt>
      <trkpt lat="43.4468" lon="-0.375">
        <ele>258.2</ele>
        <time>2026-08-31T09:14:27Z</time>
      </trkpt>
      <trkpt lat="43.4468" lon="-0.37499">
        <ele>258.2</ele>
        <time>2026-08-31T09:14:27Z</time>
      </trkpt>
      <trkpt lat="43.4468" lon="-0.37498">
        <ele>259.2</ele>
        <time>2026-08-31T09:14:28Z</time>
      </trkpt>
      <trkpt lat="43.4468" lon="-0.37497">
        <ele>259.2</ele>
        <time>2026-08-31T09:14:28Z</time>
      </trkpt>
      <trkpt lat="43.4468" lon="-0.37496">
        <ele>259.2</ele>
        <time>2026-08-31T09:14:29Z</time>
      </trkpt>
      <trkpt lat="43.4468" lon="-0.37495">
        <ele>259.2</ele>
        <time>2026-08-31T09:14:29Z</time>
      </trkpt>
      <trkpt lat="43.4468" lon="-0.37494">
        <ele>258.2</ele>
        <time>2026-08-31T09:14:30Z</time>
      </trkpt>
      <trkpt lat="43.4468" lon="-0.37493">
        <ele>258.2</ele>
        <time>2026-08-31T09:14:30Z</time>
      </trkpt>
      <trkpt lat="43.44679" lon="-0.37492">
        <ele>258.2</ele>
        <time>2026-08-31T09:14:31Z</time>
      </trkpt>
      <trkpt lat="43.44679" lon="-0.37491">
        <ele>258.2</ele>
        <time>2026-08-31T09:14:31Z</time>
      </trkpt>
      <trkpt lat="43.44679" lon="-0.3749">
        <ele>258.2</ele>
        <time>2026-08-31T09:14:32Z</time>
      </trkpt>
      <trkpt lat="43.44679" lon="-0.37489">
        <ele>258.2</ele>
        <time>2026-08-31T09:14:33Z</time>
      </trkpt>
      <trkpt lat="43.44679" lon="-0.37488">
        <ele>258.2</ele>
        <time>2026-08-31T09:14:33Z</time>
      </trkpt>
      <trkpt lat="43.44679" lon="-0.37487">
        <ele>258.2</ele>
        <time>2026-08-31T09:14:34Z</time>
      </trkpt>
      <trkpt lat="43.44679" lon="-0.37486">
        <ele>258.2</ele>
        <time>2026-08-31T09:14:34Z</time>
      </trkpt>
      <trkpt lat="43.44678" lon="-0.37485">
        <ele>258.2</ele>
        <time>2026-08-31T09:14:35Z</time>
      </trkpt>
      <trkpt lat="43.44678" lon="-0.37484">
        <ele>258.2</ele>
        <time>2026-08-31T09:14:35Z</time>
      </trkpt>
      <trkpt lat="43.44678" lon="-0.37483">
        <ele>258.2</ele>
        <time>2026-08-31T09:14:36Z</time>
      </trkpt>
      <trkpt lat="43.44678" lon="-0.37482">
        <ele>258.2</ele>
        <time>2026-08-31T09:14:36Z</time>
      </trkpt>
      <trkpt lat="43.44678" lon="-0.37481">
        <ele>258.2</ele>
        <time>2026-08-31T09:14:37Z</time>
      </trkpt>
      <trkpt lat="43.44678" lon="-0.3748">
        <ele>258.2</ele>
        <time>2026-08-31T09:14:37Z</time>
      </trkpt>
      <trkpt lat="43.44678" lon="-0.37479">
        <ele>258.2</ele>
        <time>2026-08-31T09:14:38Z</time>
      </trkpt>
      <trkpt lat="43.44678" lon="-0.37478">
        <ele>258.2</ele>
        <time>2026-08-31T09:14:38Z</time>
      </trkpt>
      <trkpt lat="43.44678" lon="-0.37477">
        <ele>258.2</ele>
        <time>2026-08-31T09:14:39Z</time>
      </trkpt>
      <trkpt lat="43.44678" lon="-0.37476">
        <ele>258.2</ele>
        <time>2026-08-31T09:14:39Z</time>
      </trkpt>
      <trkpt lat="43.44678" lon="-0.37475">
        <ele>258.2</ele>
        <time>2026-08-31T09:14:40Z</time>
      </trkpt>
      <trkpt lat="43.44678" lon="-0.37474">
        <ele>258.2</ele>
        <time>2026-08-31T09:14:40Z</time>
      </trkpt>
      <trkpt lat="43.44678" lon="-0.37473">
        <ele>258.2</ele>
        <time>2026-08-31T09:14:41Z</time>
      </trkpt>
      <trkpt lat="43.44678" lon="-0.37472">
        <ele>258.2</ele>
        <time>2026-08-31T09:14:41Z</time>
      </trkpt>
      <trkpt lat="43.44678" lon="-0.37471">
        <ele>258.2</ele>
        <time>2026-08-31T09:14:42Z</time>
      </trkpt>
      <trkpt lat="43.44677" lon="-0.3747">
        <ele>258.2</ele>
        <time>2026-08-31T09:14:43Z</time>
      </trkpt>
      <trkpt lat="43.44678" lon="-0.37469">
        <ele>258.2</ele>
        <time>2026-08-31T09:14:43Z</time>
      </trkpt>
      <trkpt lat="43.44677" lon="-0.37468">
        <ele>258.2</ele>
        <time>2026-08-31T09:14:44Z</time>
      </trkpt>
      <trkpt lat="43.44677" lon="-0.37467">
        <ele>258.2</ele>
        <time>2026-08-31T09:14:44Z</time>
      </trkpt>
      <trkpt lat="43.44677" lon="-0.37466">
        <ele>258.2</ele>
        <time>2026-08-31T09:14:45Z</time>
      </trkpt>
      <trkpt lat="43.44677" lon="-0.37465">
        <ele>258.2</ele>
        <time>2026-08-31T09:14:45Z</time>
      </trkpt>
      <trkpt lat="43.44677" lon="-0.37464">
        <ele>258.2</ele>
        <time>2026-08-31T09:14:46Z</time>
      </trkpt>
      <trkpt lat="43.44678" lon="-0.37463">
        <ele>258.2</ele>
        <time>2026-08-31T09:14:46Z</time>
      </trkpt>
      <trkpt lat="43.44678" lon="-0.37462">
        <ele>258.2</ele>
        <time>2026-08-31T09:14:47Z</time>
      </trkpt>
      <trkpt lat="43.44678" lon="-0.37461">
        <ele>258.2</ele>
        <time>2026-08-31T09:14:47Z</time>
      </trkpt>
      <trkpt lat="43.44678" lon="-0.3746">
        <ele>258.2</ele>
        <time>2026-08-31T09:14:48Z</time>
      </trkpt>
      <trkpt lat="43.44678" lon="-0.37459">
        <ele>258.2</ele>
        <time>2026-08-31T09:14:48Z</time>
      </trkpt>
      <trkpt lat="43.44678" lon="-0.37458">
        <ele>258.2</ele>
        <time>2026-08-31T09:14:49Z</time>
      </trkpt>
      <trkpt lat="43.44678" lon="-0.37457">
        <ele>258.2</ele>
        <time>2026-08-31T09:14:49Z</time>
      </trkpt>
      <trkpt lat="43.44678" lon="-0.37456">
        <ele>258.2</ele>
        <time>2026-08-31T09:14:50Z</time>
      </trkpt>
      <trkpt lat="43.44678" lon="-0.37455">
        <ele>258.2</ele>
        <time>2026-08-31T09:14:50Z</time>
      </trkpt>
      <trkpt lat="43.44678" lon="-0.37455">
        <ele>258.2</ele>
        <time>2026-08-31T09:14:51Z</time>
      </trkpt>
      <trkpt lat="43.44678" lon="-0.37454">
        <ele>258.2</ele>
        <time>2026-08-31T09:14:51Z</time>
      </trkpt>
      <trkpt lat="43.44678" lon="-0.37453">
        <ele>258.2</ele>
        <time>2026-08-31T09:14:52Z</time>
      </trkpt>
      <trkpt lat="43.44678" lon="-0.37452">
        <ele>258.2</ele>
        <time>2026-08-31T09:14:52Z</time>
      </trkpt>
      <trkpt lat="43.44678" lon="-0.37451">
        <ele>259.2</ele>
        <time>2026-08-31T09:14:53Z</time>
      </trkpt>
      <trkpt lat="43.44678" lon="-0.3745">
        <ele>259.2</ele>
        <time>2026-08-31T09:14:54Z</time>
      </trkpt>
      <trkpt lat="43.44678" lon="-0.37449">
        <ele>258.2</ele>
        <time>2026-08-31T09:14:54Z</time>
      </trkpt>
      <trkpt lat="43.44678" lon="-0.37448">
        <ele>258.2</ele>
        <time>2026-08-31T09:14:55Z</time>
      </trkpt>
      <trkpt lat="43.44678" lon="-0.37447">
        <ele>258.2</ele>
        <time>2026-08-31T09:14:55Z</time>
      </trkpt>
      <trkpt lat="43.44678" lon="-0.37446">
        <ele>258.2</ele>
        <time>2026-08-31T09:14:56Z</time>
      </trkpt>
      <trkpt lat="43.44678" lon="-0.37445">
        <ele>258.2</ele>
        <time>2026-08-31T09:14:56Z</time>
      </trkpt>
      <trkpt lat="43.44678" lon="-0.37445">
        <ele>258.2</ele>
        <time>2026-08-31T09:14:57Z</time>
      </trkpt>
      <trkpt lat="43.44678" lon="-0.37444">
        <ele>258.2</ele>
        <time>2026-08-31T09:14:57Z</time>
      </trkpt>
      <trkpt lat="43.44678" lon="-0.37443">
        <ele>258.2</ele>
        <time>2026-08-31T09:14:58Z</time>
      </trkpt>
      <trkpt lat="43.44678" lon="-0.37441">
        <ele>258.2</ele>
        <time>2026-08-31T09:14:58Z</time>
      </trkpt>
      <trkpt lat="43.44678" lon="-0.3744">
        <ele>258.2</ele>
        <time>2026-08-31T09:14:59Z</time>
      </trkpt>
      <trkpt lat="43.44678" lon="-0.37439">
        <ele>258.2</ele>
        <time>2026-08-31T09:14:59Z</time>
      </trkpt>
      <trkpt lat="43.44679" lon="-0.37438">
        <ele>259.2</ele>
        <time>2026-08-31T09:15:00Z</time>
      </trkpt>
      <trkpt lat="43.44679" lon="-0.37437">
        <ele>259.2</ele>
        <time>2026-08-31T09:15:00Z</time>
      </trkpt>
      <trkpt lat="43.44679" lon="-0.37437">
        <ele>259.2</ele>
        <time>2026-08-31T09:15:01Z</time>
      </trkpt>
      <trkpt lat="43.44679" lon="-0.37436">
        <ele>259.2</ele>
        <time>2026-08-31T09:15:01Z</time>
      </trkpt>
      <trkpt lat="43.44679" lon="-0.37435">
        <ele>259.2</ele>
        <time>2026-08-31T09:15:02Z</time>
      </trkpt>
      <trkpt lat="43.44679" lon="-0.37434">
        <ele>259.2</ele>
        <time>2026-08-31T09:15:03Z</time>
      </trkpt>
      <trkpt lat="43.44679" lon="-0.37433">
        <ele>259.2</ele>
        <time>2026-08-31T09:15:03Z</time>
      </trkpt>
      <trkpt lat="43.44679" lon="-0.37432">
        <ele>259.2</ele>
        <time>2026-08-31T09:15:04Z</time>
      </trkpt>
      <trkpt lat="43.44679" lon="-0.37431">
        <ele>259.2</ele>
        <time>2026-08-31T09:15:04Z</time>
      </trkpt>
      <trkpt lat="43.44679" lon="-0.3743">
        <ele>259.2</ele>
        <time>2026-08-31T09:15:05Z</time>
      </trkpt>
      <trkpt lat="43.44679" lon="-0.37429">
        <ele>259.2</ele>
        <time>2026-08-31T09:15:05Z</time>
      </trkpt>
      <trkpt lat="43.44679" lon="-0.37428">
        <ele>259.2</ele>
        <time>2026-08-31T09:15:06Z</time>
      </trkpt>
      <trkpt lat="43.44679" lon="-0.37427">
        <ele>259.2</ele>
        <time>2026-08-31T09:15:06Z</time>
      </trkpt>
      <trkpt lat="43.44679" lon="-0.37426">
        <ele>259.2</ele>
        <time>2026-08-31T09:15:07Z</time>
      </trkpt>
      <trkpt lat="43.44679" lon="-0.37425">
        <ele>259.2</ele>
        <time>2026-08-31T09:15:07Z</time>
      </trkpt>
      <trkpt lat="43.44678" lon="-0.37424">
        <ele>259.2</ele>
        <time>2026-08-31T09:15:08Z</time>
      </trkpt>
      <trkpt lat="43.44678" lon="-0.37423">
        <ele>259.2</ele>
        <time>2026-08-31T09:15:08Z</time>
      </trkpt>
      <trkpt lat="43.44678" lon="-0.37422">
        <ele>259.2</ele>
        <time>2026-08-31T09:15:09Z</time>
      </trkpt>
      <trkpt lat="43.44678" lon="-0.37422">
        <ele>259.2</ele>
        <time>2026-08-31T09:15:09Z</time>
      </trkpt>
      <trkpt lat="43.44678" lon="-0.3742">
        <ele>260.2</ele>
        <time>2026-08-31T09:15:10Z</time>
      </trkpt>
      <trkpt lat="43.44678" lon="-0.37419">
        <ele>260.2</ele>
        <time>2026-08-31T09:15:10Z</time>
      </trkpt>
      <trkpt lat="43.44678" lon="-0.37418">
        <ele>260.2</ele>
        <time>2026-08-31T09:15:11Z</time>
      </trkpt>
      <trkpt lat="43.44677" lon="-0.37417">
        <ele>260.2</ele>
        <time>2026-08-31T09:15:11Z</time>
      </trkpt>
      <trkpt lat="43.44677" lon="-0.37416">
        <ele>260.2</ele>
        <time>2026-08-31T09:15:12Z</time>
      </trkpt>
      <trkpt lat="43.44677" lon="-0.37415">
        <ele>260.2</ele>
        <time>2026-08-31T09:15:13Z</time>
      </trkpt>
      <trkpt lat="43.44677" lon="-0.37414">
        <ele>260.2</ele>
        <time>2026-08-31T09:15:13Z</time>
      </trkpt>
      <trkpt lat="43.44677" lon="-0.37413">
        <ele>260.2</ele>
        <time>2026-08-31T09:15:14Z</time>
      </trkpt>
      <trkpt lat="43.44677" lon="-0.37412">
        <ele>259.2</ele>
        <time>2026-08-31T09:15:14Z</time>
      </trkpt>
      <trkpt lat="43.44677" lon="-0.37411">
        <ele>259.2</ele>
        <time>2026-08-31T09:15:15Z</time>
      </trkpt>
      <trkpt lat="43.44677" lon="-0.3741">
        <ele>260.2</ele>
        <time>2026-08-31T09:15:15Z</time>
      </trkpt>
      <trkpt lat="43.44677" lon="-0.37409">
        <ele>260.2</ele>
        <time>2026-08-31T09:15:16Z</time>
      </trkpt>
      <trkpt lat="43.44676" lon="-0.37408">
        <ele>260.2</ele>
        <time>2026-08-31T09:15:16Z</time>
      </trkpt>
      <trkpt lat="43.44677" lon="-0.37407">
        <ele>259.2</ele>
        <time>2026-08-31T09:15:17Z</time>
      </trkpt>
      <trkpt lat="43.44676" lon="-0.37406">
        <ele>259.2</ele>
        <time>2026-08-31T09:15:17Z</time>
      </trkpt>
      <trkpt lat="43.44676" lon="-0.37405">
        <ele>259.2</ele>
        <time>2026-08-31T09:15:18Z</time>
      </trkpt>
      <trkpt lat="43.44676" lon="-0.37404">
        <ele>259.2</ele>
        <time>2026-08-31T09:15:18Z</time>
      </trkpt>
      <trkpt lat="43.44676" lon="-0.37403">
        <ele>259.2</ele>
        <time>2026-08-31T09:15:19Z</time>
      </trkpt>
      <trkpt lat="43.44676" lon="-0.37402">
        <ele>259.2</ele>
        <time>2026-08-31T09:15:19Z</time>
      </trkpt>
      <trkpt lat="43.44676" lon="-0.37401">
        <ele>259.2</ele>
        <time>2026-08-31T09:15:20Z</time>
      </trkpt>
      <trkpt lat="43.44675" lon="-0.374">
        <ele>259.2</ele>
        <time>2026-08-31T09:15:20Z</time>
      </trkpt>
      <trkpt lat="43.44675" lon="-0.37399">
        <ele>259.2</ele>
        <time>2026-08-31T09:15:21Z</time>
      </trkpt>
      <trkpt lat="43.44675" lon="-0.37398">
        <ele>259.2</ele>
        <time>2026-08-31T09:15:22Z</time>
      </trkpt>
      <trkpt lat="43.44675" lon="-0.37397">
        <ele>259.2</ele>
        <time>2026-08-31T09:15:22Z</time>
      </trkpt>
      <trkpt lat="43.44675" lon="-0.37396">
        <ele>259.2</ele>
        <time>2026-08-31T09:15:23Z</time>
      </trkpt>
      <trkpt lat="43.44675" lon="-0.37395">
        <ele>259.2</ele>
        <time>2026-08-31T09:15:23Z</time>
      </trkpt>
      <trkpt lat="43.44675" lon="-0.37395">
        <ele>259.2</ele>
        <time>2026-08-31T09:15:24Z</time>
      </trkpt>
      <trkpt lat="43.44675" lon="-0.37394">
        <ele>259.2</ele>
        <time>2026-08-31T09:15:24Z</time>
      </trkpt>
      <trkpt lat="43.44674" lon="-0.37393">
        <ele>260.2</ele>
        <time>2026-08-31T09:15:25Z</time>
      </trkpt>
      <trkpt lat="43.44674" lon="-0.37392">
        <ele>260.2</ele>
        <time>2026-08-31T09:15:25Z</time>
      </trkpt>
      <trkpt lat="43.44674" lon="-0.37391">
        <ele>260.2</ele>
        <time>2026-08-31T09:15:26Z</time>
      </trkpt>
      <trkpt lat="43.44674" lon="-0.3739">
        <ele>260.2</ele>
        <time>2026-08-31T09:15:26Z</time>
      </trkpt>
      <trkpt lat="43.44674" lon="-0.37389">
        <ele>260.2</ele>
        <time>2026-08-31T09:15:27Z</time>
      </trkpt>
      <trkpt lat="43.44674" lon="-0.37388">
        <ele>260.2</ele>
        <time>2026-08-31T09:15:27Z</time>
      </trkpt>
      <trkpt lat="43.44674" lon="-0.37387">
        <ele>260.2</ele>
        <time>2026-08-31T09:15:28Z</time>
      </trkpt>
      <trkpt lat="43.44674" lon="-0.37386">
        <ele>260.2</ele>
        <time>2026-08-31T09:15:28Z</time>
      </trkpt>
      <trkpt lat="43.44674" lon="-0.37385">
        <ele>260.2</ele>
        <time>2026-08-31T09:15:29Z</time>
      </trkpt>
      <trkpt lat="43.44673" lon="-0.37384">
        <ele>260.2</ele>
        <time>2026-08-31T09:15:29Z</time>
      </trkpt>
      <trkpt lat="43.44673" lon="-0.37383">
        <ele>260.2</ele>
        <time>2026-08-31T09:15:30Z</time>
      </trkpt>
      <trkpt lat="43.44673" lon="-0.37382">
        <ele>260.2</ele>
        <time>2026-08-31T09:15:31Z</time>
      </trkpt>
      <trkpt lat="43.44673" lon="-0.37381">
        <ele>260.2</ele>
        <time>2026-08-31T09:15:31Z</time>
      </trkpt>
      <trkpt lat="43.44673" lon="-0.3738">
        <ele>260.2</ele>
        <time>2026-08-31T09:15:32Z</time>
      </trkpt>
      <trkpt lat="43.44673" lon="-0.3738">
        <ele>260.2</ele>
        <time>2026-08-31T09:15:32Z</time>
      </trkpt>
      <trkpt lat="43.44673" lon="-0.37379">
        <ele>260.2</ele>
        <time>2026-08-31T09:15:33Z</time>
      </trkpt>
      <trkpt lat="43.44673" lon="-0.37378">
        <ele>261.2</ele>
        <time>2026-08-31T09:15:33Z</time>
      </trkpt>
      <trkpt lat="43.44673" lon="-0.37377">
        <ele>260.2</ele>
        <time>2026-08-31T09:15:34Z</time>
      </trkpt>
      <trkpt lat="43.44673" lon="-0.37377">
        <ele>260.2</ele>
        <time>2026-08-31T09:15:34Z</time>
      </trkpt>
      <trkpt lat="43.44673" lon="-0.37376">
        <ele>260.2</ele>
        <time>2026-08-31T09:15:35Z</time>
      </trkpt>
      <trkpt lat="43.44673" lon="-0.37375">
        <ele>260.2</ele>
        <time>2026-08-31T09:15:35Z</time>
      </trkpt>
      <trkpt lat="43.44673" lon="-0.37374">
        <ele>260.2</ele>
        <time>2026-08-31T09:15:36Z</time>
      </trkpt>
      <trkpt lat="43.44673" lon="-0.37373">
        <ele>260.2</ele>
        <time>2026-08-31T09:15:36Z</time>
      </trkpt>
      <trkpt lat="43.44673" lon="-0.37373">
        <ele>260.2</ele>
        <time>2026-08-31T09:15:37Z</time>
      </trkpt>
      <trkpt lat="43.44673" lon="-0.37372">
        <ele>260.2</ele>
        <time>2026-08-31T09:15:37Z</time>
      </trkpt>
      <trkpt lat="43.44673" lon="-0.37371">
        <ele>260.2</ele>
        <time>2026-08-31T09:15:38Z</time>
      </trkpt>
      <trkpt lat="43.44673" lon="-0.3737">
        <ele>260.2</ele>
        <time>2026-08-31T09:15:38Z</time>
      </trkpt>
      <trkpt lat="43.44673" lon="-0.37369">
        <ele>260.2</ele>
        <time>2026-08-31T09:15:39Z</time>
      </trkpt>
      <trkpt lat="43.44673" lon="-0.37368">
        <ele>260.2</ele>
        <time>2026-08-31T09:15:40Z</time>
      </trkpt>
      <trkpt lat="43.44673" lon="-0.37367">
        <ele>260.2</ele>
        <time>2026-08-31T09:15:40Z</time>
      </trkpt>
      <trkpt lat="43.44672" lon="-0.37366">
        <ele>260.2</ele>
        <time>2026-08-31T09:15:41Z</time>
      </trkpt>
      <trkpt lat="43.44672" lon="-0.37365">
        <ele>260.2</ele>
        <time>2026-08-31T09:15:41Z</time>
      </trkpt>
      <trkpt lat="43.44672" lon="-0.37364">
        <ele>260.2</ele>
        <time>2026-08-31T09:15:42Z</time>
      </trkpt>
      <trkpt lat="43.44673" lon="-0.37364">
        <ele>260.2</ele>
        <time>2026-08-31T09:15:42Z</time>
      </trkpt>
      <trkpt lat="43.44673" lon="-0.37363">
        <ele>260.2</ele>
        <time>2026-08-31T09:15:43Z</time>
      </trkpt>
      <trkpt lat="43.44673" lon="-0.37362">
        <ele>260.2</ele>
        <time>2026-08-31T09:15:43Z</time>
      </trkpt>
      <trkpt lat="43.44673" lon="-0.37361">
        <ele>260.2</ele>
        <time>2026-08-31T09:15:44Z</time>
      </trkpt>
      <trkpt lat="43.44673" lon="-0.3736">
        <ele>260.2</ele>
        <time>2026-08-31T09:15:44Z</time>
      </trkpt>
      <trkpt lat="43.44673" lon="-0.37359">
        <ele>260.2</ele>
        <time>2026-08-31T09:15:45Z</time>
      </trkpt>
      <trkpt lat="43.44673" lon="-0.37358">
        <ele>260.2</ele>
        <time>2026-08-31T09:15:45Z</time>
      </trkpt>
      <trkpt lat="43.44673" lon="-0.37357">
        <ele>260.2</ele>
        <time>2026-08-31T09:15:46Z</time>
      </trkpt>
      <trkpt lat="43.44673" lon="-0.37356">
        <ele>260.2</ele>
        <time>2026-08-31T09:15:46Z</time>
      </trkpt>
      <trkpt lat="43.44673" lon="-0.37355">
        <ele>260.2</ele>
        <time>2026-08-31T09:15:47Z</time>
      </trkpt>
      <trkpt lat="43.44673" lon="-0.37354">
        <ele>260.2</ele>
        <time>2026-08-31T09:15:47Z</time>
      </trkpt>
      <trkpt lat="43.44672" lon="-0.37354">
        <ele>260.2</ele>
        <time>2026-08-31T09:15:48Z</time>
      </trkpt>
      <trkpt lat="43.44672" lon="-0.37353">
        <ele>260.2</ele>
        <time>2026-08-31T09:15:49Z</time>
      </trkpt>
      <trkpt lat="43.44672" lon="-0.37352">
        <ele>260.2</ele>
        <time>2026-08-31T09:15:49Z</time>
      </trkpt>
      <trkpt lat="43.44672" lon="-0.37351">
        <ele>260.2</ele>
        <time>2026-08-31T09:15:50Z</time>
      </trkpt>
      <trkpt lat="43.44672" lon="-0.3735">
        <ele>259.2</ele>
        <time>2026-08-31T09:15:50Z</time>
      </trkpt>
      <trkpt lat="43.44672" lon="-0.37349">
        <ele>259.2</ele>
        <time>2026-08-31T09:15:51Z</time>
      </trkpt>
      <trkpt lat="43.44672" lon="-0.37348">
        <ele>259.2</ele>
        <time>2026-08-31T09:15:51Z</time>
      </trkpt>
      <trkpt lat="43.44672" lon="-0.37348">
        <ele>259.2</ele>
        <time>2026-08-31T09:15:52Z</time>
      </trkpt>
      <trkpt lat="43.44672" lon="-0.37347">
        <ele>259.2</ele>
        <time>2026-08-31T09:15:52Z</time>
      </trkpt>
      <trkpt lat="43.44672" lon="-0.37346">
        <ele>259.2</ele>
        <time>2026-08-31T09:15:53Z</time>
      </trkpt>
      <trkpt lat="43.44672" lon="-0.37346">
        <ele>259.2</ele>
        <time>2026-08-31T09:15:53Z</time>
      </trkpt>
      <trkpt lat="43.44673" lon="-0.37345">
        <ele>260.2</ele>
        <time>2026-08-31T09:15:54Z</time>
      </trkpt>
      <trkpt lat="43.44673" lon="-0.37344">
        <ele>260.2</ele>
        <time>2026-08-31T09:15:54Z</time>
      </trkpt>
      <trkpt lat="43.44674" lon="-0.37343">
        <ele>260.2</ele>
        <time>2026-08-31T09:15:55Z</time>
      </trkpt>
      <trkpt lat="43.44674" lon="-0.37342">
        <ele>260.2</ele>
        <time>2026-08-31T09:15:56Z</time>
      </trkpt>
      <trkpt lat="43.44675" lon="-0.37342">
        <ele>260.2</ele>
        <time>2026-08-31T09:15:56Z</time>
      </trkpt>
      <trkpt lat="43.44675" lon="-0.37341">
        <ele>260.2</ele>
        <time>2026-08-31T09:15:57Z</time>
      </trkpt>
      <trkpt lat="43.44676" lon="-0.3734">
        <ele>259.2</ele>
        <time>2026-08-31T09:15:57Z</time>
      </trkpt>
      <trkpt lat="43.44676" lon="-0.3734">
        <ele>259.2</ele>
        <time>2026-08-31T09:15:58Z</time>
      </trkpt>
      <trkpt lat="43.44677" lon="-0.37339">
        <ele>259.2</ele>
        <time>2026-08-31T09:15:58Z</time>
      </trkpt>
      <trkpt lat="43.44678" lon="-0.37339">
        <ele>260.2</ele>
        <time>2026-08-31T09:15:59Z</time>
      </trkpt>
      <trkpt lat="43.44678" lon="-0.37338">
        <ele>260.2</ele>
        <time>2026-08-31T09:15:59Z</time>
      </trkpt>
      <trkpt lat="43.44679" lon="-0.37337">
        <ele>260.2</ele>
        <time>2026-08-31T09:16:00Z</time>
      </trkpt>
      <trkpt lat="43.44679" lon="-0.37337">
        <ele>260.2</ele>
        <time>2026-08-31T09:16:00Z</time>
      </trkpt>
      <trkpt lat="43.4468" lon="-0.37336">
        <ele>261.2</ele>
        <time>2026-08-31T09:16:01Z</time>
      </trkpt>
      <trkpt lat="43.4468" lon="-0.37335">
        <ele>261.2</ele>
        <time>2026-08-31T09:16:01Z</time>
      </trkpt>
      <trkpt lat="43.44681" lon="-0.37335">
        <ele>261.2</ele>
        <time>2026-08-31T09:16:02Z</time>
      </trkpt>
      <trkpt lat="43.44682" lon="-0.37334">
        <ele>261.2</ele>
        <time>2026-08-31T09:16:02Z</time>
      </trkpt>
      <trkpt lat="43.44682" lon="-0.37333">
        <ele>261.2</ele>
        <time>2026-08-31T09:16:03Z</time>
      </trkpt>
      <trkpt lat="43.44683" lon="-0.37333">
        <ele>261.2</ele>
        <time>2026-08-31T09:16:04Z</time>
      </trkpt>
      <trkpt lat="43.44683" lon="-0.37332">
        <ele>261.2</ele>
        <time>2026-08-31T09:16:04Z</time>
      </trkpt>
      <trkpt lat="43.44684" lon="-0.37332">
        <ele>261.2</ele>
        <time>2026-08-31T09:16:05Z</time>
      </trkpt>
      <trkpt lat="43.44685" lon="-0.37331">
        <ele>261.2</ele>
        <time>2026-08-31T09:16:05Z</time>
      </trkpt>
      <trkpt lat="43.44685" lon="-0.37331">
        <ele>261.2</ele>
        <time>2026-08-31T09:16:06Z</time>
      </trkpt>
      <trkpt lat="43.44686" lon="-0.3733">
        <ele>260.2</ele>
        <time>2026-08-31T09:16:06Z</time>
      </trkpt>
      <trkpt lat="43.44687" lon="-0.37329">
        <ele>260.2</ele>
        <time>2026-08-31T09:16:07Z</time>
      </trkpt>
      <trkpt lat="43.44687" lon="-0.37329">
        <ele>260.2</ele>
        <time>2026-08-31T09:16:07Z</time>
      </trkpt>
      <trkpt lat="43.44688" lon="-0.37328">
        <ele>260.2</ele>
        <time>2026-08-31T09:16:08Z</time>
      </trkpt>
      <trkpt lat="43.44688" lon="-0.37328">
        <ele>260.2</ele>
        <time>2026-08-31T09:16:08Z</time>
      </trkpt>
      <trkpt lat="43.44689" lon="-0.37327">
        <ele>261.2</ele>
        <time>2026-08-31T09:16:09Z</time>
      </trkpt>
      <trkpt lat="43.4469" lon="-0.37326">
        <ele>261.2</ele>
        <time>2026-08-31T09:16:09Z</time>
      </trkpt>
      <trkpt lat="43.4469" lon="-0.37326">
        <ele>260.2</ele>
        <time>2026-08-31T09:16:10Z</time>
      </trkpt>
      <trkpt lat="43.44691" lon="-0.37325">
        <ele>260.2</ele>
        <time>2026-08-31T09:16:10Z</time>
      </trkpt>
      <trkpt lat="43.44692" lon="-0.37325">
        <ele>261.2</ele>
        <time>2026-08-31T09:16:11Z</time>
      </trkpt>
      <trkpt lat="43.44692" lon="-0.37324">
        <ele>261.2</ele>
        <time>2026-08-31T09:16:12Z</time>
      </trkpt>
      <trkpt lat="43.44693" lon="-0.37324">
        <ele>260.2</ele>
        <time>2026-08-31T09:16:12Z</time>
      </trkpt>
      <trkpt lat="43.44694" lon="-0.37323">
        <ele>260.2</ele>
        <time>2026-08-31T09:16:13Z</time>
      </trkpt>
      <trkpt lat="43.44694" lon="-0.37323">
        <ele>261.2</ele>
        <time>2026-08-31T09:16:13Z</time>
      </trkpt>
      <trkpt lat="43.44695" lon="-0.37322">
        <ele>261.2</ele>
        <time>2026-08-31T09:16:14Z</time>
      </trkpt>
      <trkpt lat="43.44695" lon="-0.37322">
        <ele>261.2</ele>
        <time>2026-08-31T09:16:14Z</time>
      </trkpt>
      <trkpt lat="43.44696" lon="-0.37322">
        <ele>261.2</ele>
        <time>2026-08-31T09:16:15Z</time>
      </trkpt>
      <trkpt lat="43.44697" lon="-0.37321">
        <ele>261.2</ele>
        <time>2026-08-31T09:16:15Z</time>
      </trkpt>
      <trkpt lat="43.44697" lon="-0.3732">
        <ele>261.2</ele>
        <time>2026-08-31T09:16:16Z</time>
      </trkpt>
      <trkpt lat="43.44698" lon="-0.3732">
        <ele>261.2</ele>
        <time>2026-08-31T09:16:16Z</time>
      </trkpt>
      <trkpt lat="43.44699" lon="-0.37319">
        <ele>261.2</ele>
        <time>2026-08-31T09:16:17Z</time>
      </trkpt>
      <trkpt lat="43.44699" lon="-0.37319">
        <ele>261.2</ele>
        <time>2026-08-31T09:16:17Z</time>
      </trkpt>
      <trkpt lat="43.447" lon="-0.37319">
        <ele>261.2</ele>
        <time>2026-08-31T09:16:18Z</time>
      </trkpt>
      <trkpt lat="43.44701" lon="-0.37318">
        <ele>261.2</ele>
        <time>2026-08-31T09:16:18Z</time>
      </trkpt>
      <trkpt lat="43.44701" lon="-0.37318">
        <ele>261.2</ele>
        <time>2026-08-31T09:16:19Z</time>
      </trkpt>
      <trkpt lat="43.44702" lon="-0.37317">
        <ele>261.2</ele>
        <time>2026-08-31T09:16:20Z</time>
      </trkpt>
      <trkpt lat="43.44702" lon="-0.37317">
        <ele>261.2</ele>
        <time>2026-08-31T09:16:20Z</time>
      </trkpt>
      <trkpt lat="43.44703" lon="-0.37316">
        <ele>261.2</ele>
        <time>2026-08-31T09:16:21Z</time>
      </trkpt>
      <trkpt lat="43.44703" lon="-0.37315">
        <ele>262.2</ele>
        <time>2026-08-31T09:16:21Z</time>
      </trkpt>
      <trkpt lat="43.44703" lon="-0.37314">
        <ele>262.2</ele>
        <time>2026-08-31T09:16:22Z</time>
      </trkpt>
      <trkpt lat="43.44703" lon="-0.37313">
        <ele>261.2</ele>
        <time>2026-08-31T09:16:22Z</time>
      </trkpt>
      <trkpt lat="43.44703" lon="-0.37312">
        <ele>262.2</ele>
        <time>2026-08-31T09:16:23Z</time>
      </trkpt>
      <trkpt lat="43.44703" lon="-0.37311">
        <ele>262.2</ele>
        <time>2026-08-31T09:16:23Z</time>
      </trkpt>
      <trkpt lat="43.44703" lon="-0.3731">
        <ele>262.2</ele>
        <time>2026-08-31T09:16:24Z</time>
      </trkpt>
      <trkpt lat="43.44703" lon="-0.37309">
        <ele>262.2</ele>
        <time>2026-08-31T09:16:24Z</time>
      </trkpt>
      <trkpt lat="43.44703" lon="-0.37308">
        <ele>262.2</ele>
        <time>2026-08-31T09:16:25Z</time>
      </trkpt>
      <trkpt lat="43.44703" lon="-0.37307">
        <ele>262.2</ele>
        <time>2026-08-31T09:16:25Z</time>
      </trkpt>
      <trkpt lat="43.44702" lon="-0.37306">
        <ele>262.2</ele>
        <time>2026-08-31T09:16:26Z</time>
      </trkpt>
      <trkpt lat="43.44702" lon="-0.37305">
        <ele>262.2</ele>
        <time>2026-08-31T09:16:26Z</time>
      </trkpt>
      <trkpt lat="43.44702" lon="-0.37305">
        <ele>262.2</ele>
        <time>2026-08-31T09:16:27Z</time>
      </trkpt>
      <trkpt lat="43.44702" lon="-0.37304">
        <ele>262.2</ele>
        <time>2026-08-31T09:16:28Z</time>
      </trkpt>
      <trkpt lat="43.44702" lon="-0.37303">
        <ele>262.2</ele>
        <time>2026-08-31T09:16:28Z</time>
      </trkpt>
      <trkpt lat="43.44702" lon="-0.37302">
        <ele>262.2</ele>
        <time>2026-08-31T09:16:29Z</time>
      </trkpt>
      <trkpt lat="43.44702" lon="-0.37301">
        <ele>262.2</ele>
        <time>2026-08-31T09:16:29Z</time>
      </trkpt>
      <trkpt lat="43.44702" lon="-0.373">
        <ele>262.2</ele>
        <time>2026-08-31T09:16:30Z</time>
      </trkpt>
      <trkpt lat="43.44702" lon="-0.373">
        <ele>262.2</ele>
        <time>2026-08-31T09:16:30Z</time>
      </trkpt>
      <trkpt lat="43.44702" lon="-0.37299">
        <ele>262.2</ele>
        <time>2026-08-31T09:16:31Z</time>
      </trkpt>
      <trkpt lat="43.44702" lon="-0.37298">
        <ele>261.2</ele>
        <time>2026-08-31T09:16:31Z</time>
      </trkpt>
      <trkpt lat="43.44703" lon="-0.37297">
        <ele>261.2</ele>
        <time>2026-08-31T09:16:32Z</time>
      </trkpt>
      <trkpt lat="43.44703" lon="-0.37296">
        <ele>261.2</ele>
        <time>2026-08-31T09:16:32Z</time>
      </trkpt>
      <trkpt lat="43.44703" lon="-0.37296">
        <ele>261.2</ele>
        <time>2026-08-31T09:16:33Z</time>
      </trkpt>
      <trkpt lat="43.44703" lon="-0.37295">
        <ele>261.2</ele>
        <time>2026-08-31T09:16:33Z</time>
      </trkpt>
      <trkpt lat="43.44703" lon="-0.37294">
        <ele>260.2</ele>
        <time>2026-08-31T09:16:34Z</time>
      </trkpt>
      <trkpt lat="43.44703" lon="-0.37293">
        <ele>260.2</ele>
        <time>2026-08-31T09:16:34Z</time>
      </trkpt>
      <trkpt lat="43.44703" lon="-0.37292">
        <ele>261.2</ele>
        <time>2026-08-31T09:16:35Z</time>
      </trkpt>
      <trkpt lat="43.44703" lon="-0.37291">
        <ele>261.2</ele>
        <time>2026-08-31T09:16:35Z</time>
      </trkpt>
      <trkpt lat="43.44704" lon="-0.3729">
        <ele>261.2</ele>
        <time>2026-08-31T09:16:36Z</time>
      </trkpt>
      <trkpt lat="43.44704" lon="-0.3729">
        <ele>261.2</ele>
        <time>2026-08-31T09:16:37Z</time>
      </trkpt>
      <trkpt lat="43.44704" lon="-0.37289">
        <ele>261.2</ele>
        <time>2026-08-31T09:16:37Z</time>
      </trkpt>
      <trkpt lat="43.44703" lon="-0.37287">
        <ele>261.2</ele>
        <time>2026-08-31T09:16:38Z</time>
      </trkpt>
      <trkpt lat="43.44704" lon="-0.37287">
        <ele>261.2</ele>
        <time>2026-08-31T09:16:38Z</time>
      </trkpt>
      <trkpt lat="43.44704" lon="-0.37286">
        <ele>261.2</ele>
        <time>2026-08-31T09:16:39Z</time>
      </trkpt>
      <trkpt lat="43.44704" lon="-0.37285">
        <ele>261.2</ele>
        <time>2026-08-31T09:16:39Z</time>
      </trkpt>
      <trkpt lat="43.44704" lon="-0.37284">
        <ele>261.2</ele>
        <time>2026-08-31T09:16:40Z</time>
      </trkpt>
      <trkpt lat="43.44704" lon="-0.37283">
        <ele>260.2</ele>
        <time>2026-08-31T09:16:40Z</time>
      </trkpt>
      <trkpt lat="43.44704" lon="-0.37283">
        <ele>260.2</ele>
        <time>2026-08-31T09:16:41Z</time>
      </trkpt>
      <trkpt lat="43.44704" lon="-0.37282">
        <ele>260.2</ele>
        <time>2026-08-31T09:16:41Z</time>
      </trkpt>
      <trkpt lat="43.44705" lon="-0.37281">
        <ele>260.2</ele>
        <time>2026-08-31T09:16:42Z</time>
      </trkpt>
      <trkpt lat="43.44705" lon="-0.3728">
        <ele>260.2</ele>
        <time>2026-08-31T09:16:42Z</time>
      </trkpt>
      <trkpt lat="43.44706" lon="-0.37279">
        <ele>260.2</ele>
        <time>2026-08-31T09:16:43Z</time>
      </trkpt>
      <trkpt lat="43.44706" lon="-0.37278">
        <ele>260.2</ele>
        <time>2026-08-31T09:16:43Z</time>
      </trkpt>
      <trkpt lat="43.44706" lon="-0.37278">
        <ele>260.2</ele>
        <time>2026-08-31T09:16:44Z</time>
      </trkpt>
      <trkpt lat="43.44706" lon="-0.37277">
        <ele>260.2</ele>
        <time>2026-08-31T09:16:45Z</time>
      </trkpt>
      <trkpt lat="43.44707" lon="-0.37276">
        <ele>260.2</ele>
        <time>2026-08-31T09:16:45Z</time>
      </trkpt>
      <trkpt lat="43.44707" lon="-0.37275">
        <ele>260.2</ele>
        <time>2026-08-31T09:16:46Z</time>
      </trkpt>
      <trkpt lat="43.44707" lon="-0.37275">
        <ele>259.2</ele>
        <time>2026-08-31T09:16:46Z</time>
      </trkpt>
      <trkpt lat="43.44707" lon="-0.37274">
        <ele>259.2</ele>
        <time>2026-08-31T09:16:47Z</time>
      </trkpt>
      <trkpt lat="43.44707" lon="-0.37273">
        <ele>259.2</ele>
        <time>2026-08-31T09:16:47Z</time>
      </trkpt>
      <trkpt lat="43.44708" lon="-0.37273">
        <ele>258.2</ele>
        <time>2026-08-31T09:16:48Z</time>
      </trkpt>
      <trkpt lat="43.44708" lon="-0.37272">
        <ele>258.2</ele>
        <time>2026-08-31T09:16:48Z</time>
      </trkpt>
      <trkpt lat="43.44709" lon="-0.37271">
        <ele>258.2</ele>
        <time>2026-08-31T09:16:49Z</time>
      </trkpt>
      <trkpt lat="43.44709" lon="-0.3727">
        <ele>258.2</ele>
        <time>2026-08-31T09:16:49Z</time>
      </trkpt>
      <trkpt lat="43.44709" lon="-0.37269">
        <ele>258.2</ele>
        <time>2026-08-31T09:16:50Z</time>
      </trkpt>
      <trkpt lat="43.4471" lon="-0.37268">
        <ele>258.2</ele>
        <time>2026-08-31T09:16:50Z</time>
      </trkpt>
      <trkpt lat="43.4471" lon="-0.37268">
        <ele>258.2</ele>
        <time>2026-08-31T09:16:51Z</time>
      </trkpt>
      <trkpt lat="43.4471" lon="-0.37267">
        <ele>258.2</ele>
        <time>2026-08-31T09:16:51Z</time>
      </trkpt>
      <trkpt lat="43.4471" lon="-0.37266">
        <ele>257.2</ele>
        <time>2026-08-31T09:16:52Z</time>
      </trkpt>
      <trkpt lat="43.4471" lon="-0.37265">
        <ele>257.2</ele>
        <time>2026-08-31T09:16:52Z</time>
      </trkpt>
      <trkpt lat="43.4471" lon="-0.37264">
        <ele>257.2</ele>
        <time>2026-08-31T09:16:53Z</time>
      </trkpt>
      <trkpt lat="43.4471" lon="-0.37263">
        <ele>257.2</ele>
        <time>2026-08-31T09:16:54Z</time>
      </trkpt>
      <trkpt lat="43.4471" lon="-0.37262">
        <ele>256.2</ele>
        <time>2026-08-31T09:16:54Z</time>
      </trkpt>
      <trkpt lat="43.4471" lon="-0.37261">
        <ele>256.2</ele>
        <time>2026-08-31T09:16:55Z</time>
      </trkpt>
      <trkpt lat="43.4471" lon="-0.3726">
        <ele>256.2</ele>
        <time>2026-08-31T09:16:55Z</time>
      </trkpt>
      <trkpt lat="43.4471" lon="-0.37259">
        <ele>256.2</ele>
        <time>2026-08-31T09:16:56Z</time>
      </trkpt>
      <trkpt lat="43.4471" lon="-0.37258">
        <ele>256.2</ele>
        <time>2026-08-31T09:16:56Z</time>
      </trkpt>
      <trkpt lat="43.44709" lon="-0.37257">
        <ele>257.2</ele>
        <time>2026-08-31T09:16:57Z</time>
      </trkpt>
      <trkpt lat="43.44709" lon="-0.37256">
        <ele>257.2</ele>
        <time>2026-08-31T09:16:57Z</time>
      </trkpt>
      <trkpt lat="43.44709" lon="-0.37255">
        <ele>257.2</ele>
        <time>2026-08-31T09:16:58Z</time>
      </trkpt>
      <trkpt lat="43.44709" lon="-0.37254">
        <ele>257.2</ele>
        <time>2026-08-31T09:16:58Z</time>
      </trkpt>
      <trkpt lat="43.44709" lon="-0.37253">
        <ele>257.2</ele>
        <time>2026-08-31T09:16:59Z</time>
      </trkpt>
      <trkpt lat="43.44709" lon="-0.37252">
        <ele>257.2</ele>
        <time>2026-08-31T09:17:00Z</time>
      </trkpt>
      <trkpt lat="43.44709" lon="-0.37251">
        <ele>256.2</ele>
        <time>2026-08-31T09:17:00Z</time>
      </trkpt>
      <trkpt lat="43.44709" lon="-0.3725">
        <ele>256.2</ele>
        <time>2026-08-31T09:17:01Z</time>
      </trkpt>
      <trkpt lat="43.44708" lon="-0.37249">
        <ele>256.2</ele>
        <time>2026-08-31T09:17:01Z</time>
      </trkpt>
      <trkpt lat="43.44708" lon="-0.37249">
        <ele>256.2</ele>
        <time>2026-08-31T09:17:02Z</time>
      </trkpt>
      <trkpt lat="43.44708" lon="-0.37248">
        <ele>256.2</ele>
        <time>2026-08-31T09:17:02Z</time>
      </trkpt>
      <trkpt lat="43.44708" lon="-0.37247">
        <ele>256.2</ele>
        <time>2026-08-31T09:17:03Z</time>
      </trkpt>
      <trkpt lat="43.44708" lon="-0.37246">
        <ele>256.2</ele>
        <time>2026-08-31T09:17:03Z</time>
      </trkpt>
      <trkpt lat="43.44708" lon="-0.37245">
        <ele>256.2</ele>
        <time>2026-08-31T09:17:04Z</time>
      </trkpt>
      <trkpt lat="43.44708" lon="-0.37244">
        <ele>256.2</ele>
        <time>2026-08-31T09:17:04Z</time>
      </trkpt>
      <trkpt lat="43.44708" lon="-0.37243">
        <ele>256.2</ele>
        <time>2026-08-31T09:17:05Z</time>
      </trkpt>
      <trkpt lat="43.44708" lon="-0.37242">
        <ele>256.2</ele>
        <time>2026-08-31T09:17:05Z</time>
      </trkpt>
      <trkpt lat="43.44708" lon="-0.37242">
        <ele>255.2</ele>
        <time>2026-08-31T09:17:06Z</time>
      </trkpt>
      <trkpt lat="43.44708" lon="-0.37241">
        <ele>255.2</ele>
        <time>2026-08-31T09:17:07Z</time>
      </trkpt>
      <trkpt lat="43.44708" lon="-0.3724">
        <ele>255.2</ele>
        <time>2026-08-31T09:17:07Z</time>
      </trkpt>
      <trkpt lat="43.44707" lon="-0.37239">
        <ele>255.2</ele>
        <time>2026-08-31T09:17:08Z</time>
      </trkpt>
      <trkpt lat="43.44707" lon="-0.37239">
        <ele>255.2</ele>
        <time>2026-08-31T09:17:08Z</time>
      </trkpt>
      <trkpt lat="43.44707" lon="-0.37238">
        <ele>255.2</ele>
        <time>2026-08-31T09:17:09Z</time>
      </trkpt>
      <trkpt lat="43.44707" lon="-0.37237">
        <ele>255.2</ele>
        <time>2026-08-31T09:17:09Z</time>
      </trkpt>
      <trkpt lat="43.44707" lon="-0.37236">
        <ele>255.2</ele>
        <time>2026-08-31T09:17:10Z</time>
      </trkpt>
      <trkpt lat="43.44707" lon="-0.37235">
        <ele>255.2</ele>
        <time>2026-08-31T09:17:10Z</time>
      </trkpt>
      <trkpt lat="43.44708" lon="-0.37235">
        <ele>255.2</ele>
        <time>2026-08-31T09:17:11Z</time>
      </trkpt>
      <trkpt lat="43.44708" lon="-0.37234">
        <ele>255.2</ele>
        <time>2026-08-31T09:17:11Z</time>
      </trkpt>
      <trkpt lat="43.44709" lon="-0.37233">
        <ele>255.2</ele>
        <time>2026-08-31T09:17:12Z</time>
      </trkpt>
      <trkpt lat="43.44709" lon="-0.37232">
        <ele>255.2</ele>
        <time>2026-08-31T09:17:12Z</time>
      </trkpt>
      <trkpt lat="43.4471" lon="-0.37232">
        <ele>255.2</ele>
        <time>2026-08-31T09:17:13Z</time>
      </trkpt>
      <trkpt lat="43.44711" lon="-0.37231">
        <ele>255.2</ele>
        <time>2026-08-31T09:17:13Z</time>
      </trkpt>
      <trkpt lat="43.44711" lon="-0.3723">
        <ele>255.2</ele>
        <time>2026-08-31T09:17:14Z</time>
      </trkpt>
      <trkpt lat="43.44712" lon="-0.3723">
        <ele>255.2</ele>
        <time>2026-08-31T09:17:15Z</time>
      </trkpt>
      <trkpt lat="43.44713" lon="-0.37229">
        <ele>255.2</ele>
        <time>2026-08-31T09:17:15Z</time>
      </trkpt>
      <trkpt lat="43.44714" lon="-0.3723">
        <ele>255.2</ele>
        <time>2026-08-31T09:17:16Z</time>
      </trkpt>
      <trkpt lat="43.44715" lon="-0.3723">
        <ele>255.2</ele>
        <time>2026-08-31T09:17:16Z</time>
      </trkpt>
      <trkpt lat="43.44716" lon="-0.3723">
        <ele>254.2</ele>
        <time>2026-08-31T09:17:17Z</time>
      </trkpt>
      <trkpt lat="43.44717" lon="-0.3723">
        <ele>254.2</ele>
        <time>2026-08-31T09:17:17Z</time>
      </trkpt>
      <trkpt lat="43.44718" lon="-0.3723">
        <ele>254.2</ele>
        <time>2026-08-31T09:17:18Z</time>
      </trkpt>
      <trkpt lat="43.44719" lon="-0.37231">
        <ele>254.2</ele>
        <time>2026-08-31T09:17:19Z</time>
      </trkpt>
      <trkpt lat="43.4472" lon="-0.37231">
        <ele>254.2</ele>
        <time>2026-08-31T09:17:19Z</time>
      </trkpt>
      <trkpt lat="43.44721" lon="-0.37231">
        <ele>254.2</ele>
        <time>2026-08-31T09:17:20Z</time>
      </trkpt>
      <trkpt lat="43.44722" lon="-0.37232">
        <ele>254.2</ele>
        <time>2026-08-31T09:17:21Z</time>
      </trkpt>
      <trkpt lat="43.44723" lon="-0.37232">
        <ele>254.2</ele>
        <time>2026-08-31T09:17:22Z</time>
      </trkpt>
      <trkpt lat="43.44724" lon="-0.37232">
        <ele>254.2</ele>
        <time>2026-08-31T09:17:22Z</time>
      </trkpt>
      <trkpt lat="43.44724" lon="-0.37232">
        <ele>254.2</ele>
        <time>2026-08-31T09:17:23Z</time>
      </trkpt>
      <trkpt lat="43.44725" lon="-0.37232">
        <ele>254.2</ele>
        <time>2026-08-31T09:17:23Z</time>
      </trkpt>
      <trkpt lat="43.44726" lon="-0.37232">
        <ele>253.2</ele>
        <time>2026-08-31T09:17:24Z</time>
      </trkpt>
      <trkpt lat="43.44726" lon="-0.37232">
        <ele>253.2</ele>
        <time>2026-08-31T09:17:24Z</time>
      </trkpt>
      <trkpt lat="43.44727" lon="-0.37232">
        <ele>253.2</ele>
        <time>2026-08-31T09:17:25Z</time>
      </trkpt>
      <trkpt lat="43.44728" lon="-0.37232">
        <ele>253.2</ele>
        <time>2026-08-31T09:17:25Z</time>
      </trkpt>
      <trkpt lat="43.44728" lon="-0.37232">
        <ele>253.2</ele>
        <time>2026-08-31T09:17:26Z</time>
      </trkpt>
      <trkpt lat="43.44729" lon="-0.37232">
        <ele>253.2</ele>
        <time>2026-08-31T09:17:26Z</time>
      </trkpt>
      <trkpt lat="43.4473" lon="-0.37232">
        <ele>253.2</ele>
        <time>2026-08-31T09:17:27Z</time>
      </trkpt>
      <trkpt lat="43.44731" lon="-0.37233">
        <ele>253.2</ele>
        <time>2026-08-31T09:17:28Z</time>
      </trkpt>
      <trkpt lat="43.44731" lon="-0.37233">
        <ele>253.2</ele>
        <time>2026-08-31T09:17:28Z</time>
      </trkpt>
      <trkpt lat="43.44732" lon="-0.37233">
        <ele>253.2</ele>
        <time>2026-08-31T09:17:29Z</time>
      </trkpt>
      <trkpt lat="43.44732" lon="-0.37233">
        <ele>253.2</ele>
        <time>2026-08-31T09:17:29Z</time>
      </trkpt>
      <trkpt lat="43.44733" lon="-0.37233">
        <ele>253.2</ele>
        <time>2026-08-31T09:17:30Z</time>
      </trkpt>
      <trkpt lat="43.44734" lon="-0.37233">
        <ele>253.2</ele>
        <time>2026-08-31T09:17:30Z</time>
      </trkpt>
      <trkpt lat="43.44734" lon="-0.37234">
        <ele>253.2</ele>
        <time>2026-08-31T09:17:31Z</time>
      </trkpt>
      <trkpt lat="43.44735" lon="-0.37234">
        <ele>253.2</ele>
        <time>2026-08-31T09:17:31Z</time>
      </trkpt>
      <trkpt lat="43.44736" lon="-0.37234">
        <ele>253.2</ele>
        <time>2026-08-31T09:17:32Z</time>
      </trkpt>
      <trkpt lat="43.44737" lon="-0.37234">
        <ele>253.2</ele>
        <time>2026-08-31T09:17:32Z</time>
      </trkpt>
      <trkpt lat="43.44737" lon="-0.37234">
        <ele>253.2</ele>
        <time>2026-08-31T09:17:33Z</time>
      </trkpt>
      <trkpt lat="43.44738" lon="-0.37234">
        <ele>253.2</ele>
        <time>2026-08-31T09:17:33Z</time>
      </trkpt>
      <trkpt lat="43.44738" lon="-0.37234">
        <ele>253.2</ele>
        <time>2026-08-31T09:17:34Z</time>
      </trkpt>
      <trkpt lat="43.44739" lon="-0.37234">
        <ele>253.2</ele>
        <time>2026-08-31T09:17:35Z</time>
      </trkpt>
      <trkpt lat="43.44739" lon="-0.37233">
        <ele>252.2</ele>
        <time>2026-08-31T09:17:35Z</time>
      </trkpt>
      <trkpt lat="43.4474" lon="-0.37233">
        <ele>252.2</ele>
        <time>2026-08-31T09:17:36Z</time>
      </trkpt>
      <trkpt lat="43.4474" lon="-0.37233">
        <ele>252.2</ele>
        <time>2026-08-31T09:17:36Z</time>
      </trkpt>
      <trkpt lat="43.44741" lon="-0.37233">
        <ele>252.2</ele>
        <time>2026-08-31T09:17:37Z</time>
      </trkpt>
      <trkpt lat="43.44741" lon="-0.37233">
        <ele>252.2</ele>
        <time>2026-08-31T09:17:37Z</time>
      </trkpt>
      <trkpt lat="43.44742" lon="-0.37233">
        <ele>251.2</ele>
        <time>2026-08-31T09:17:38Z</time>
      </trkpt>
      <trkpt lat="43.44743" lon="-0.37233">
        <ele>251.2</ele>
        <time>2026-08-31T09:17:38Z</time>
      </trkpt>
      <trkpt lat="43.44743" lon="-0.37233">
        <ele>251.2</ele>
        <time>2026-08-31T09:17:39Z</time>
      </trkpt>
      <trkpt lat="43.44744" lon="-0.37233">
        <ele>251.2</ele>
        <time>2026-08-31T09:17:39Z</time>
      </trkpt>
      <trkpt lat="43.44744" lon="-0.37233">
        <ele>251.2</ele>
        <time>2026-08-31T09:17:40Z</time>
      </trkpt>
      <trkpt lat="43.44745" lon="-0.37233">
        <ele>251.2</ele>
        <time>2026-08-31T09:17:40Z</time>
      </trkpt>
      <trkpt lat="43.44746" lon="-0.37233">
        <ele>251.2</ele>
        <time>2026-08-31T09:17:41Z</time>
      </trkpt>
      <trkpt lat="43.44747" lon="-0.37233">
        <ele>251.2</ele>
        <time>2026-08-31T09:17:42Z</time>
      </trkpt>
      <trkpt lat="43.44747" lon="-0.37233">
        <ele>250.2</ele>
        <time>2026-08-31T09:17:42Z</time>
      </trkpt>
      <trkpt lat="43.44748" lon="-0.37233">
        <ele>250.2</ele>
        <time>2026-08-31T09:17:43Z</time>
      </trkpt>
      <trkpt lat="43.44748" lon="-0.37233">
        <ele>250.2</ele>
        <time>2026-08-31T09:17:43Z</time>
      </trkpt>
      <trkpt lat="43.44749" lon="-0.37233">
        <ele>250.2</ele>
        <time>2026-08-31T09:17:44Z</time>
      </trkpt>
      <trkpt lat="43.44749" lon="-0.37232">
        <ele>250.2</ele>
        <time>2026-08-31T09:17:44Z</time>
      </trkpt>
      <trkpt lat="43.4475" lon="-0.37232">
        <ele>250.2</ele>
        <time>2026-08-31T09:17:45Z</time>
      </trkpt>
      <trkpt lat="43.4475" lon="-0.37232">
        <ele>250.2</ele>
        <time>2026-08-31T09:17:45Z</time>
      </trkpt>
      <trkpt lat="43.44751" lon="-0.37232">
        <ele>250.2</ele>
        <time>2026-08-31T09:17:46Z</time>
      </trkpt>
      <trkpt lat="43.44751" lon="-0.37232">
        <ele>250.2</ele>
        <time>2026-08-31T09:17:46Z</time>
      </trkpt>
      <trkpt lat="43.44752" lon="-0.37232">
        <ele>250.2</ele>
        <time>2026-08-31T09:17:47Z</time>
      </trkpt>
      <trkpt lat="43.44752" lon="-0.37232">
        <ele>250.2</ele>
        <time>2026-08-31T09:17:47Z</time>
      </trkpt>
      <trkpt lat="43.44753" lon="-0.37232">
        <ele>250.2</ele>
        <time>2026-08-31T09:17:48Z</time>
      </trkpt>
      <trkpt lat="43.44754" lon="-0.37232">
        <ele>250.2</ele>
        <time>2026-08-31T09:17:49Z</time>
      </trkpt>
      <trkpt lat="43.44754" lon="-0.37232">
        <ele>250.2</ele>
        <time>2026-08-31T09:17:49Z</time>
      </trkpt>
      <trkpt lat="43.44755" lon="-0.37232">
        <ele>249.2</ele>
        <time>2026-08-31T09:17:50Z</time>
      </trkpt>
      <trkpt lat="43.44756" lon="-0.37232">
        <ele>249.2</ele>
        <time>2026-08-31T09:17:50Z</time>
      </trkpt>
      <trkpt lat="43.44756" lon="-0.37232">
        <ele>249.2</ele>
        <time>2026-08-31T09:17:51Z</time>
      </trkpt>
      <trkpt lat="43.44757" lon="-0.37232">
        <ele>249.2</ele>
        <time>2026-08-31T09:17:51Z</time>
      </trkpt>
      <trkpt lat="43.44757" lon="-0.37232">
        <ele>249.2</ele>
        <time>2026-08-31T09:17:52Z</time>
      </trkpt>
      <trkpt lat="43.44758" lon="-0.37232">
        <ele>249.2</ele>
        <time>2026-08-31T09:17:52Z</time>
      </trkpt>
      <trkpt lat="43.44758" lon="-0.37231">
        <ele>249.2</ele>
        <time>2026-08-31T09:17:53Z</time>
      </trkpt>
      <trkpt lat="43.44759" lon="-0.37231">
        <ele>249.2</ele>
        <time>2026-08-31T09:17:53Z</time>
      </trkpt>
      <trkpt lat="43.44759" lon="-0.3723">
        <ele>249.2</ele>
        <time>2026-08-31T09:17:54Z</time>
      </trkpt>
      <trkpt lat="43.44759" lon="-0.37229">
        <ele>249.2</ele>
        <time>2026-08-31T09:17:55Z</time>
      </trkpt>
      <trkpt lat="43.4476" lon="-0.37229">
        <ele>249.2</ele>
        <time>2026-08-31T09:17:55Z</time>
      </trkpt>
      <trkpt lat="43.44761" lon="-0.37228">
        <ele>249.2</ele>
        <time>2026-08-31T09:17:56Z</time>
      </trkpt>
      <trkpt lat="43.44761" lon="-0.37227">
        <ele>248.2</ele>
        <time>2026-08-31T09:17:56Z</time>
      </trkpt>
      <trkpt lat="43.44761" lon="-0.37226">
        <ele>248.2</ele>
        <time>2026-08-31T09:17:57Z</time>
      </trkpt>
      <trkpt lat="43.44762" lon="-0.37225">
        <ele>248.2</ele>
        <time>2026-08-31T09:17:57Z</time>
      </trkpt>
      <trkpt lat="43.44762" lon="-0.37225">
        <ele>248.2</ele>
        <time>2026-08-31T09:17:58Z</time>
      </trkpt>
      <trkpt lat="43.44762" lon="-0.37224">
        <ele>248.2</ele>
        <time>2026-08-31T09:17:58Z</time>
      </trkpt>
      <trkpt lat="43.44763" lon="-0.37224">
        <ele>248.2</ele>
        <time>2026-08-31T09:17:59Z</time>
      </trkpt>
      <trkpt lat="43.44764" lon="-0.37223">
        <ele>248.2</ele>
        <time>2026-08-31T09:18:00Z</time>
      </trkpt>
      <trkpt lat="43.44765" lon="-0.37223">
        <ele>248.2</ele>
        <time>2026-08-31T09:18:01Z</time>
      </trkpt>
      <trkpt lat="43.44765" lon="-0.37223">
        <ele>248.2</ele>
        <time>2026-08-31T09:18:01Z</time>
      </trkpt>
      <trkpt lat="43.44766" lon="-0.37223">
        <ele>248.2</ele>
        <time>2026-08-31T09:18:02Z</time>
      </trkpt>
      <trkpt lat="43.44766" lon="-0.37222">
        <ele>248.2</ele>
        <time>2026-08-31T09:18:02Z</time>
      </trkpt>
      <trkpt lat="43.44767" lon="-0.37222">
        <ele>247.2</ele>
        <time>2026-08-31T09:18:03Z</time>
      </trkpt>
      <trkpt lat="43.44768" lon="-0.37222">
        <ele>247.2</ele>
        <time>2026-08-31T09:18:03Z</time>
      </trkpt>
      <trkpt lat="43.44768" lon="-0.37222">
        <ele>247.2</ele>
        <time>2026-08-31T09:18:04Z</time>
      </trkpt>
      <trkpt lat="43.44768" lon="-0.37222">
        <ele>247.2</ele>
        <time>2026-08-31T09:18:04Z</time>
      </trkpt>
      <trkpt lat="43.44769" lon="-0.37222">
        <ele>247.2</ele>
        <time>2026-08-31T09:18:05Z</time>
      </trkpt>
      <trkpt lat="43.4477" lon="-0.37222">
        <ele>247.2</ele>
        <time>2026-08-31T09:18:06Z</time>
      </trkpt>
      <trkpt lat="43.4477" lon="-0.37222">
        <ele>247.2</ele>
        <time>2026-08-31T09:18:06Z</time>
      </trkpt>
      <trkpt lat="43.44771" lon="-0.37222">
        <ele>247.2</ele>
        <time>2026-08-31T09:18:07Z</time>
      </trkpt>
      <trkpt lat="43.44772" lon="-0.37222">
        <ele>247.2</ele>
        <time>2026-08-31T09:18:07Z</time>
      </trkpt>
      <trkpt lat="43.44772" lon="-0.37223">
        <ele>247.2</ele>
        <time>2026-08-31T09:18:08Z</time>
      </trkpt>
      <trkpt lat="43.44772" lon="-0.37222">
        <ele>247.2</ele>
        <time>2026-08-31T09:18:08Z</time>
      </trkpt>
      <trkpt lat="43.44773" lon="-0.37222">
        <ele>247.2</ele>
        <time>2026-08-31T09:18:09Z</time>
      </trkpt>
      <trkpt lat="43.44773" lon="-0.37222">
        <ele>247.2</ele>
        <time>2026-08-31T09:18:09Z</time>
      </trkpt>
      <trkpt lat="43.44773" lon="-0.37222">
        <ele>247.2</ele>
        <time>2026-08-31T09:18:10Z</time>
      </trkpt>
      <trkpt lat="43.44774" lon="-0.37221">
        <ele>247.2</ele>
        <time>2026-08-31T09:18:10Z</time>
      </trkpt>
      <trkpt lat="43.44774" lon="-0.3722">
        <ele>247.2</ele>
        <time>2026-08-31T09:18:11Z</time>
      </trkpt>
      <trkpt lat="43.44774" lon="-0.3722">
        <ele>246.2</ele>
        <time>2026-08-31T09:18:12Z</time>
      </trkpt>
      <trkpt lat="43.44774" lon="-0.37219">
        <ele>246.2</ele>
        <time>2026-08-31T09:18:12Z</time>
      </trkpt>
      <trkpt lat="43.44775" lon="-0.37219">
        <ele>246.2</ele>
        <time>2026-08-31T09:18:13Z</time>
      </trkpt>
      <trkpt lat="43.44775" lon="-0.37218">
        <ele>246.2</ele>
        <time>2026-08-31T09:18:13Z</time>
      </trkpt>
      <trkpt lat="43.44775" lon="-0.37217">
        <ele>246.2</ele>
        <time>2026-08-31T09:18:14Z</time>
      </trkpt>
      <trkpt lat="43.44775" lon="-0.37216">
        <ele>246.2</ele>
        <time>2026-08-31T09:18:15Z</time>
      </trkpt>
      <trkpt lat="43.44775" lon="-0.37216">
        <ele>246.2</ele>
        <time>2026-08-31T09:18:15Z</time>
      </trkpt>
      <trkpt lat="43.44775" lon="-0.37215">
        <ele>245.2</ele>
        <time>2026-08-31T09:18:16Z</time>
      </trkpt>
      <trkpt lat="43.44775" lon="-0.37214">
        <ele>245.2</ele>
        <time>2026-08-31T09:18:16Z</time>
      </trkpt>
      <trkpt lat="43.44775" lon="-0.37213">
        <ele>245.2</ele>
        <time>2026-08-31T09:18:17Z</time>
      </trkpt>
      <trkpt lat="43.44775" lon="-0.37212">
        <ele>245.2</ele>
        <time>2026-08-31T09:18:18Z</time>
      </trkpt>
      <trkpt lat="43.44775" lon="-0.37211">
        <ele>245.2</ele>
        <time>2026-08-31T09:18:18Z</time>
      </trkpt>
      <trkpt lat="43.44775" lon="-0.3721">
        <ele>245.2</ele>
        <time>2026-08-31T09:18:19Z</time>
      </trkpt>
      <trkpt lat="43.44775" lon="-0.3721">
        <ele>245.2</ele>
        <time>2026-08-31T09:18:19Z</time>
      </trkpt>
      <trkpt lat="43.44775" lon="-0.37209">
        <ele>245.2</ele>
        <time>2026-08-31T09:18:20Z</time>
      </trkpt>
      <trkpt lat="43.44774" lon="-0.37208">
        <ele>245.2</ele>
        <time>2026-08-31T09:18:20Z</time>
      </trkpt>
      <trkpt lat="43.44774" lon="-0.37208">
        <ele>244.2</ele>
        <time>2026-08-31T09:18:21Z</time>
      </trkpt>
      <trkpt lat="43.44774" lon="-0.37207">
        <ele>244.2</ele>
        <time>2026-08-31T09:18:21Z</time>
      </trkpt>
      <trkpt lat="43.44774" lon="-0.37206">
        <ele>244.2</ele>
        <time>2026-08-31T09:18:22Z</time>
      </trkpt>
      <trkpt lat="43.44773" lon="-0.37206">
        <ele>244.2</ele>
        <time>2026-08-31T09:18:22Z</time>
      </trkpt>
      <trkpt lat="43.44773" lon="-0.37205">
        <ele>244.2</ele>
        <time>2026-08-31T09:18:23Z</time>
      </trkpt>
      <trkpt lat="43.44772" lon="-0.37205">
        <ele>244.2</ele>
        <time>2026-08-31T09:18:24Z</time>
      </trkpt>
      <trkpt lat="43.44772" lon="-0.37205">
        <ele>244.2</ele>
        <time>2026-08-31T09:18:24Z</time>
      </trkpt>
      <trkpt lat="43.44772" lon="-0.37205">
        <ele>243.2</ele>
        <time>2026-08-31T09:18:25Z</time>
      </trkpt>
      <trkpt lat="43.44772" lon="-0.37204">
        <ele>243.2</ele>
        <time>2026-08-31T09:18:25Z</time>
      </trkpt>
      <trkpt lat="43.44772" lon="-0.37204">
        <ele>244.2</ele>
        <time>2026-08-31T09:18:26Z</time>
      </trkpt>
      <trkpt lat="43.44772" lon="-0.37203">
        <ele>244.2</ele>
        <time>2026-08-31T09:18:26Z</time>
      </trkpt>
      <trkpt lat="43.44772" lon="-0.37203">
        <ele>244.2</ele>
        <time>2026-08-31T09:18:27Z</time>
      </trkpt>
      <trkpt lat="43.44771" lon="-0.37203">
        <ele>244.2</ele>
        <time>2026-08-31T09:18:27Z</time>
      </trkpt>
      <trkpt lat="43.44771" lon="-0.37203">
        <ele>244.2</ele>
        <time>2026-08-31T09:18:28Z</time>
      </trkpt>
      <trkpt lat="43.44771" lon="-0.37202">
        <ele>244.2</ele>
        <time>2026-08-31T09:18:29Z</time>
      </trkpt>
      <trkpt lat="43.44771" lon="-0.37202">
        <ele>244.2</ele>
        <time>2026-08-31T09:18:29Z</time>
      </trkpt>
      <trkpt lat="43.44771" lon="-0.37202">
        <ele>244.2</ele>
        <time>2026-08-31T09:18:30Z</time>
      </trkpt>
      <trkpt lat="43.44772" lon="-0.37202">
        <ele>244.2</ele>
        <time>2026-08-31T09:18:30Z</time>
      </trkpt>
      <trkpt lat="43.44772" lon="-0.37203">
        <ele>244.2</ele>
        <time>2026-08-31T09:18:31Z</time>
      </trkpt>
      <trkpt lat="43.44772" lon="-0.37202">
        <ele>244.2</ele>
        <time>2026-08-31T09:18:31Z</time>
      </trkpt>
      <trkpt lat="43.44772" lon="-0.37202">
        <ele>244.2</ele>
        <time>2026-08-31T09:18:32Z</time>
      </trkpt>
      <trkpt lat="43.44772" lon="-0.37202">
        <ele>244.2</ele>
        <time>2026-08-31T09:18:33Z</time>
      </trkpt>
      <trkpt lat="43.44771" lon="-0.37201">
        <ele>244.2</ele>
        <time>2026-08-31T09:18:33Z</time>
      </trkpt>
      <trkpt lat="43.44771" lon="-0.37201">
        <ele>244.2</ele>
        <time>2026-08-31T09:18:34Z</time>
      </trkpt>
      <trkpt lat="43.4477" lon="-0.372">
        <ele>244.2</ele>
        <time>2026-08-31T09:18:35Z</time>
      </trkpt>
      <trkpt lat="43.4477" lon="-0.372">
        <ele>244.2</ele>
        <time>2026-08-31T09:18:35Z</time>
      </trkpt>
      <trkpt lat="43.44769" lon="-0.37199">
        <ele>244.2</ele>
        <time>2026-08-31T09:18:36Z</time>
      </trkpt>
      <trkpt lat="43.44769" lon="-0.37199">
        <ele>243.2</ele>
        <time>2026-08-31T09:18:36Z</time>
      </trkpt>
      <trkpt lat="43.44768" lon="-0.37199">
        <ele>243.2</ele>
        <time>2026-08-31T09:18:37Z</time>
      </trkpt>
      <trkpt lat="43.44768" lon="-0.37198">
        <ele>243.2</ele>
        <time>2026-08-31T09:18:37Z</time>
      </trkpt>
      <trkpt lat="43.44768" lon="-0.37198">
        <ele>243.2</ele>
        <time>2026-08-31T09:18:38Z</time>
      </trkpt>
      <trkpt lat="43.44767" lon="-0.37197">
        <ele>243.2</ele>
        <time>2026-08-31T09:18:38Z</time>
      </trkpt>
      <trkpt lat="43.44767" lon="-0.37197">
        <ele>243.2</ele>
        <time>2026-08-31T09:18:39Z</time>
      </trkpt>
      <trkpt lat="43.44766" lon="-0.37196">
        <ele>243.2</ele>
        <time>2026-08-31T09:18:39Z</time>
      </trkpt>
      <trkpt lat="43.44766" lon="-0.37196">
        <ele>242.2</ele>
        <time>2026-08-31T09:18:40Z</time>
      </trkpt>
      <trkpt lat="43.44765" lon="-0.37195">
        <ele>242.2</ele>
        <time>2026-08-31T09:18:40Z</time>
      </trkpt>
      <trkpt lat="43.44766" lon="-0.37195">
        <ele>242.2</ele>
        <time>2026-08-31T09:18:41Z</time>
      </trkpt>
      <trkpt lat="43.44765" lon="-0.37194">
        <ele>242.2</ele>
        <time>2026-08-31T09:18:41Z</time>
      </trkpt>
      <trkpt lat="43.44765" lon="-0.37193">
        <ele>241.2</ele>
        <time>2026-08-31T09:18:42Z</time>
      </trkpt>
      <trkpt lat="43.44765" lon="-0.37193">
        <ele>241.2</ele>
        <time>2026-08-31T09:18:43Z</time>
      </trkpt>
      <trkpt lat="43.44765" lon="-0.37192">
        <ele>240.2</ele>
        <time>2026-08-31T09:18:43Z</time>
      </trkpt>
      <trkpt lat="43.44766" lon="-0.37191">
        <ele>241.2</ele>
        <time>2026-08-31T09:18:44Z</time>
      </trkpt>
      <trkpt lat="43.44766" lon="-0.37191">
        <ele>241.2</ele>
        <time>2026-08-31T09:18:44Z</time>
      </trkpt>
      <trkpt lat="43.44766" lon="-0.3719">
        <ele>240.2</ele>
        <time>2026-08-31T09:18:45Z</time>
      </trkpt>
      <trkpt lat="43.44766" lon="-0.37189">
        <ele>240.2</ele>
        <time>2026-08-31T09:18:45Z</time>
      </trkpt>
      <trkpt lat="43.44765" lon="-0.37189">
        <ele>240.2</ele>
        <time>2026-08-31T09:18:46Z</time>
      </trkpt>
      <trkpt lat="43.44765" lon="-0.37188">
        <ele>240.2</ele>
        <time>2026-08-31T09:18:46Z</time>
      </trkpt>
      <trkpt lat="43.44764" lon="-0.37187">
        <ele>240.2</ele>
        <time>2026-08-31T09:18:47Z</time>
      </trkpt>
      <trkpt lat="43.44764" lon="-0.37187">
        <ele>240.2</ele>
        <time>2026-08-31T09:18:47Z</time>
      </trkpt>
      <trkpt lat="43.44764" lon="-0.37186">
        <ele>240.2</ele>
        <time>2026-08-31T09:18:48Z</time>
      </trkpt>
      <trkpt lat="43.44763" lon="-0.37185">
        <ele>240.2</ele>
        <time>2026-08-31T09:18:49Z</time>
      </trkpt>
      <trkpt lat="43.44762" lon="-0.37184">
        <ele>240.2</ele>
        <time>2026-08-31T09:18:50Z</time>
      </trkpt>
      <trkpt lat="43.44762" lon="-0.37184">
        <ele>240.2</ele>
        <time>2026-08-31T09:18:50Z</time>
      </trkpt>
      <trkpt lat="43.44762" lon="-0.37183">
        <ele>240.2</ele>
        <time>2026-08-31T09:18:51Z</time>
      </trkpt>
      <trkpt lat="43.44762" lon="-0.37182">
        <ele>240.2</ele>
        <time>2026-08-31T09:18:51Z</time>
      </trkpt>
      <trkpt lat="43.44762" lon="-0.37182">
        <ele>240.2</ele>
        <time>2026-08-31T09:18:52Z</time>
      </trkpt>
      <trkpt lat="43.44761" lon="-0.37182">
        <ele>240.2</ele>
        <time>2026-08-31T09:18:52Z</time>
      </trkpt>
      <trkpt lat="43.44761" lon="-0.37181">
        <ele>240.2</ele>
        <time>2026-08-31T09:18:53Z</time>
      </trkpt>
      <trkpt lat="43.44761" lon="-0.3718">
        <ele>240.2</ele>
        <time>2026-08-31T09:18:54Z</time>
      </trkpt>
      <trkpt lat="43.4476" lon="-0.37179">
        <ele>240.2</ele>
        <time>2026-08-31T09:18:55Z</time>
      </trkpt>
      <trkpt lat="43.4476" lon="-0.37178">
        <ele>240.2</ele>
        <time>2026-08-31T09:18:55Z</time>
      </trkpt>
      <trkpt lat="43.4476" lon="-0.37178">
        <ele>239.2</ele>
        <time>2026-08-31T09:18:56Z</time>
      </trkpt>
      <trkpt lat="43.44759" lon="-0.37177">
        <ele>239.2</ele>
        <time>2026-08-31T09:18:57Z</time>
      </trkpt>
      <trkpt lat="43.44759" lon="-0.37177">
        <ele>240.2</ele>
        <time>2026-08-31T09:18:57Z</time>
      </trkpt>
      <trkpt lat="43.44759" lon="-0.37176">
        <ele>240.2</ele>
        <time>2026-08-31T09:18:58Z</time>
      </trkpt>
      <trkpt lat="43.44759" lon="-0.37175">
        <ele>241.2</ele>
        <time>2026-08-31T09:18:59Z</time>
      </trkpt>
      <trkpt lat="43.44758" lon="-0.37175">
        <ele>241.2</ele>
        <time>2026-08-31T09:18:59Z</time>
      </trkpt>
      <trkpt lat="43.44758" lon="-0.37174">
        <ele>240.2</ele>
        <time>2026-08-31T09:19:00Z</time>
      </trkpt>
      <trkpt lat="43.44758" lon="-0.37174">
        <ele>240.2</ele>
        <time>2026-08-31T09:19:00Z</time>
      </trkpt>
      <trkpt lat="43.44758" lon="-0.37174">
        <ele>239.2</ele>
        <time>2026-08-31T09:19:01Z</time>
      </trkpt>
      <trkpt lat="43.44758" lon="-0.37173">
        <ele>239.2</ele>
        <time>2026-08-31T09:19:02Z</time>
      </trkpt>
      <trkpt lat="43.44757" lon="-0.37172">
        <ele>239.2</ele>
        <time>2026-08-31T09:19:02Z</time>
      </trkpt>
      <trkpt lat="43.44757" lon="-0.37171">
        <ele>239.2</ele>
        <time>2026-08-31T09:19:03Z</time>
      </trkpt>
      <trkpt lat="43.44757" lon="-0.37171">
        <ele>239.2</ele>
        <time>2026-08-31T09:19:03Z</time>
      </trkpt>
      <trkpt lat="43.44757" lon="-0.3717">
        <ele>239.2</ele>
        <time>2026-08-31T09:19:04Z</time>
      </trkpt>
      <trkpt lat="43.44756" lon="-0.37169">
        <ele>239.2</ele>
        <time>2026-08-31T09:19:05Z</time>
      </trkpt>
      <trkpt lat="43.44756" lon="-0.37169">
        <ele>239.2</ele>
        <time>2026-08-31T09:19:05Z</time>
      </trkpt>
      <trkpt lat="43.44756" lon="-0.37168">
        <ele>239.2</ele>
        <time>2026-08-31T09:19:06Z</time>
      </trkpt>
      <trkpt lat="43.44756" lon="-0.37168">
        <ele>238.2</ele>
        <time>2026-08-31T09:19:06Z</time>
      </trkpt>
      <trkpt lat="43.44755" lon="-0.37167">
        <ele>238.2</ele>
        <time>2026-08-31T09:19:07Z</time>
      </trkpt>
      <trkpt lat="43.44755" lon="-0.37167">
        <ele>238.2</ele>
        <time>2026-08-31T09:19:07Z</time>
      </trkpt>
      <trkpt lat="43.44755" lon="-0.37166">
        <ele>238.2</ele>
        <time>2026-08-31T09:19:08Z</time>
      </trkpt>
      <trkpt lat="43.44755" lon="-0.37166">
        <ele>238.2</ele>
        <time>2026-08-31T09:19:08Z</time>
      </trkpt>
      <trkpt lat="43.44754" lon="-0.37165">
        <ele>239.2</ele>
        <time>2026-08-31T09:19:09Z</time>
      </trkpt>
      <trkpt lat="43.44754" lon="-0.37164">
        <ele>239.2</ele>
        <time>2026-08-31T09:19:09Z</time>
      </trkpt>
      <trkpt lat="43.44754" lon="-0.37164">
        <ele>239.2</ele>
        <time>2026-08-31T09:19:10Z</time>
      </trkpt>
      <trkpt lat="43.44754" lon="-0.37163">
        <ele>239.2</ele>
        <time>2026-08-31T09:19:10Z</time>
      </trkpt>
      <trkpt lat="43.44754" lon="-0.37162">
        <ele>238.2</ele>
        <time>2026-08-31T09:19:11Z</time>
      </trkpt>
      <trkpt lat="43.44754" lon="-0.37161">
        <ele>238.2</ele>
        <time>2026-08-31T09:19:12Z</time>
      </trkpt>
      <trkpt lat="43.44754" lon="-0.37161">
        <ele>238.2</ele>
        <time>2026-08-31T09:19:12Z</time>
      </trkpt>
      <trkpt lat="43.44754" lon="-0.3716">
        <ele>238.2</ele>
        <time>2026-08-31T09:19:13Z</time>
      </trkpt>
      <trkpt lat="43.44754" lon="-0.37159">
        <ele>239.2</ele>
        <time>2026-08-31T09:19:13Z</time>
      </trkpt>
      <trkpt lat="43.44753" lon="-0.37159">
        <ele>239.2</ele>
        <time>2026-08-31T09:19:14Z</time>
      </trkpt>
      <trkpt lat="43.44753" lon="-0.37158">
        <ele>239.2</ele>
        <time>2026-08-31T09:19:14Z</time>
      </trkpt>
      <trkpt lat="43.44753" lon="-0.37158">
        <ele>239.2</ele>
        <time>2026-08-31T09:19:15Z</time>
      </trkpt>
      <trkpt lat="43.44753" lon="-0.37157">
        <ele>238.2</ele>
        <time>2026-08-31T09:19:16Z</time>
      </trkpt>
      <trkpt lat="43.44752" lon="-0.37156">
        <ele>238.2</ele>
        <time>2026-08-31T09:19:16Z</time>
      </trkpt>
      <trkpt lat="43.44752" lon="-0.37156">
        <ele>238.2</ele>
        <time>2026-08-31T09:19:17Z</time>
      </trkpt>
      <trkpt lat="43.44751" lon="-0.37155">
        <ele>238.2</ele>
        <time>2026-08-31T09:19:17Z</time>
      </trkpt>
      <trkpt lat="43.44751" lon="-0.37154">
        <ele>238.2</ele>
        <time>2026-08-31T09:19:18Z</time>
      </trkpt>
      <trkpt lat="43.4475" lon="-0.37154">
        <ele>238.2</ele>
        <time>2026-08-31T09:19:19Z</time>
      </trkpt>
      <trkpt lat="43.4475" lon="-0.37153">
        <ele>238.2</ele>
        <time>2026-08-31T09:19:19Z</time>
      </trkpt>
      <trkpt lat="43.44749" lon="-0.37153">
        <ele>238.2</ele>
        <time>2026-08-31T09:19:20Z</time>
      </trkpt>
      <trkpt lat="43.44749" lon="-0.37152">
        <ele>237.2</ele>
        <time>2026-08-31T09:19:21Z</time>
      </trkpt>
      <trkpt lat="43.44749" lon="-0.37151">
        <ele>236.2</ele>
        <time>2026-08-31T09:19:21Z</time>
      </trkpt>
      <trkpt lat="43.44748" lon="-0.37151">
        <ele>236.2</ele>
        <time>2026-08-31T09:19:22Z</time>
      </trkpt>
      <trkpt lat="43.44748" lon="-0.37149">
        <ele>236.2</ele>
        <time>2026-08-31T09:19:23Z</time>
      </trkpt>
      <trkpt lat="43.44747" lon="-0.37148">
        <ele>236.2</ele>
        <time>2026-08-31T09:19:23Z</time>
      </trkpt>
      <trkpt lat="43.44747" lon="-0.37148">
        <ele>235.2</ele>
        <time>2026-08-31T09:19:24Z</time>
      </trkpt>
      <trkpt lat="43.44747" lon="-0.37147">
        <ele>235.2</ele>
        <time>2026-08-31T09:19:24Z</time>
      </trkpt>
      <trkpt lat="43.44747" lon="-0.37146">
        <ele>235.2</ele>
        <time>2026-08-31T09:19:25Z</time>
      </trkpt>
      <trkpt lat="43.44747" lon="-0.37145">
        <ele>235.2</ele>
        <time>2026-08-31T09:19:25Z</time>
      </trkpt>
      <trkpt lat="43.44746" lon="-0.37145">
        <ele>234.2</ele>
        <time>2026-08-31T09:19:26Z</time>
      </trkpt>
      <trkpt lat="43.44746" lon="-0.37144">
        <ele>234.2</ele>
        <time>2026-08-31T09:19:27Z</time>
      </trkpt>
      <trkpt lat="43.44746" lon="-0.37143">
        <ele>234.2</ele>
        <time>2026-08-31T09:19:27Z</time>
      </trkpt>
      <trkpt lat="43.44745" lon="-0.37143">
        <ele>234.2</ele>
        <time>2026-08-31T09:19:28Z</time>
      </trkpt>
      <trkpt lat="43.44745" lon="-0.37142">
        <ele>234.2</ele>
        <time>2026-08-31T09:19:28Z</time>
      </trkpt>
      <trkpt lat="43.44745" lon="-0.37141">
        <ele>234.2</ele>
        <time>2026-08-31T09:19:29Z</time>
      </trkpt>
      <trkpt lat="43.44744" lon="-0.37141">
        <ele>234.2</ele>
        <time>2026-08-31T09:19:29Z</time>
      </trkpt>
      <trkpt lat="43.44744" lon="-0.3714">
        <ele>234.2</ele>
        <time>2026-08-31T09:19:30Z</time>
      </trkpt>
      <trkpt lat="43.44744" lon="-0.3714">
        <ele>234.2</ele>
        <time>2026-08-31T09:19:30Z</time>
      </trkpt>
      <trkpt lat="43.44743" lon="-0.37139">
        <ele>233.2</ele>
        <time>2026-08-31T09:19:31Z</time>
      </trkpt>
      <trkpt lat="43.44743" lon="-0.37138">
        <ele>233.2</ele>
        <time>2026-08-31T09:19:31Z</time>
      </trkpt>
      <trkpt lat="43.44742" lon="-0.37139">
        <ele>233.2</ele>
        <time>2026-08-31T09:19:32Z</time>
      </trkpt>
      <trkpt lat="43.44742" lon="-0.37138">
        <ele>233.2</ele>
        <time>2026-08-31T09:19:33Z</time>
      </trkpt>
      <trkpt lat="43.44741" lon="-0.37138">
        <ele>233.2</ele>
        <time>2026-08-31T09:19:33Z</time>
      </trkpt>
      <trkpt lat="43.44741" lon="-0.37137">
        <ele>233.2</ele>
        <time>2026-08-31T09:19:34Z</time>
      </trkpt>
      <trkpt lat="43.4474" lon="-0.37137">
        <ele>233.2</ele>
        <time>2026-08-31T09:19:34Z</time>
      </trkpt>
      <trkpt lat="43.4474" lon="-0.37137">
        <ele>233.2</ele>
        <time>2026-08-31T09:19:35Z</time>
      </trkpt>
      <trkpt lat="43.44739" lon="-0.37136">
        <ele>233.2</ele>
        <time>2026-08-31T09:19:35Z</time>
      </trkpt>
      <trkpt lat="43.44739" lon="-0.37136">
        <ele>233.2</ele>
        <time>2026-08-31T09:19:36Z</time>
      </trkpt>
      <trkpt lat="43.44739" lon="-0.37136">
        <ele>233.2</ele>
        <time>2026-08-31T09:19:36Z</time>
      </trkpt>
      <trkpt lat="43.44738" lon="-0.37135">
        <ele>233.2</ele>
        <time>2026-08-31T09:19:37Z</time>
      </trkpt>
      <trkpt lat="43.44738" lon="-0.37134">
        <ele>233.2</ele>
        <time>2026-08-31T09:19:37Z</time>
      </trkpt>
      <trkpt lat="43.44738" lon="-0.37134">
        <ele>233.2</ele>
        <time>2026-08-31T09:19:38Z</time>
      </trkpt>
      <trkpt lat="43.44738" lon="-0.37133">
        <ele>233.2</ele>
        <time>2026-08-31T09:19:39Z</time>
      </trkpt>
      <trkpt lat="43.44737" lon="-0.37132">
        <ele>233.2</ele>
        <time>2026-08-31T09:19:39Z</time>
      </trkpt>
      <trkpt lat="43.44737" lon="-0.37132">
        <ele>232.2</ele>
        <time>2026-08-31T09:19:40Z</time>
      </trkpt>
      <trkpt lat="43.44737" lon="-0.37131">
        <ele>232.2</ele>
        <time>2026-08-31T09:19:40Z</time>
      </trkpt>
      <trkpt lat="43.44737" lon="-0.37131">
        <ele>232.2</ele>
        <time>2026-08-31T09:19:41Z</time>
      </trkpt>
      <trkpt lat="43.44738" lon="-0.3713">
        <ele>232.2</ele>
        <time>2026-08-31T09:19:41Z</time>
      </trkpt>
      <trkpt lat="43.44738" lon="-0.3713">
        <ele>232.2</ele>
        <time>2026-08-31T09:19:42Z</time>
      </trkpt>
      <trkpt lat="43.44739" lon="-0.3713">
        <ele>232.2</ele>
        <time>2026-08-31T09:19:42Z</time>
      </trkpt>
      <trkpt lat="43.44739" lon="-0.3713">
        <ele>232.2</ele>
        <time>2026-08-31T09:19:43Z</time>
      </trkpt>
      <trkpt lat="43.4474" lon="-0.37129">
        <ele>232.2</ele>
        <time>2026-08-31T09:19:44Z</time>
      </trkpt>
      <trkpt lat="43.4474" lon="-0.37129">
        <ele>231.2</ele>
        <time>2026-08-31T09:19:44Z</time>
      </trkpt>
      <trkpt lat="43.44741" lon="-0.37128">
        <ele>231.2</ele>
        <time>2026-08-31T09:19:45Z</time>
      </trkpt>
      <trkpt lat="43.44741" lon="-0.37128">
        <ele>231.2</ele>
        <time>2026-08-31T09:19:45Z</time>
      </trkpt>
      <trkpt lat="43.44741" lon="-0.37127">
        <ele>231.2</ele>
        <time>2026-08-31T09:19:46Z</time>
      </trkpt>
      <trkpt lat="43.44742" lon="-0.37126">
        <ele>231.2</ele>
        <time>2026-08-31T09:19:46Z</time>
      </trkpt>
      <trkpt lat="43.44742" lon="-0.37125">
        <ele>231.2</ele>
        <time>2026-08-31T09:19:47Z</time>
      </trkpt>
      <trkpt lat="43.44742" lon="-0.37124">
        <ele>231.2</ele>
        <time>2026-08-31T09:19:47Z</time>
      </trkpt>
      <trkpt lat="43.44743" lon="-0.37124">
        <ele>231.2</ele>
        <time>2026-08-31T09:19:48Z</time>
      </trkpt>
      <trkpt lat="43.44743" lon="-0.37123">
        <ele>231.2</ele>
        <time>2026-08-31T09:19:48Z</time>
      </trkpt>
      <trkpt lat="43.44744" lon="-0.37123">
        <ele>231.2</ele>
        <time>2026-08-31T09:19:49Z</time>
      </trkpt>
      <trkpt lat="43.44744" lon="-0.37122">
        <ele>231.2</ele>
        <time>2026-08-31T09:19:50Z</time>
      </trkpt>
      <trkpt lat="43.44746" lon="-0.37121">
        <ele>231.2</ele>
        <time>2026-08-31T09:19:51Z</time>
      </trkpt>
      <trkpt lat="43.44746" lon="-0.37121">
        <ele>230.2</ele>
        <time>2026-08-31T09:19:51Z</time>
      </trkpt>
      <trkpt lat="43.44747" lon="-0.3712">
        <ele>230.2</ele>
        <time>2026-08-31T09:19:52Z</time>
      </trkpt>
      <trkpt lat="43.44747" lon="-0.3712">
        <ele>230.2</ele>
        <time>2026-08-31T09:19:52Z</time>
      </trkpt>
      <trkpt lat="43.44748" lon="-0.37119">
        <ele>230.2</ele>
        <time>2026-08-31T09:19:53Z</time>
      </trkpt>
      <trkpt lat="43.44749" lon="-0.37119">
        <ele>230.2</ele>
        <time>2026-08-31T09:19:53Z</time>
      </trkpt>
      <trkpt lat="43.4475" lon="-0.37118">
        <ele>229.2</ele>
        <time>2026-08-31T09:19:54Z</time>
      </trkpt>
      <trkpt lat="43.4475" lon="-0.37118">
        <ele>229.2</ele>
        <time>2026-08-31T09:19:55Z</time>
      </trkpt>
      <trkpt lat="43.44751" lon="-0.37117">
        <ele>229.2</ele>
        <time>2026-08-31T09:19:55Z</time>
      </trkpt>
      <trkpt lat="43.44751" lon="-0.37117">
        <ele>229.2</ele>
        <time>2026-08-31T09:19:56Z</time>
      </trkpt>
      <trkpt lat="43.44752" lon="-0.37116">
        <ele>229.2</ele>
        <time>2026-08-31T09:19:56Z</time>
      </trkpt>
      <trkpt lat="43.44752" lon="-0.37116">
        <ele>229.2</ele>
        <time>2026-08-31T09:19:57Z</time>
      </trkpt>
      <trkpt lat="43.44752" lon="-0.37115">
        <ele>229.2</ele>
        <time>2026-08-31T09:19:57Z</time>
      </trkpt>
      <trkpt lat="43.44753" lon="-0.37114">
        <ele>229.2</ele>
        <time>2026-08-31T09:19:58Z</time>
      </trkpt>
      <trkpt lat="43.44753" lon="-0.37113">
        <ele>229.2</ele>
        <time>2026-08-31T09:19:59Z</time>
      </trkpt>
      <trkpt lat="43.44754" lon="-0.37112">
        <ele>229.2</ele>
        <time>2026-08-31T09:19:59Z</time>
      </trkpt>
      <trkpt lat="43.44754" lon="-0.37112">
        <ele>229.2</ele>
        <time>2026-08-31T09:20:00Z</time>
      </trkpt>
      <trkpt lat="43.44755" lon="-0.37111">
        <ele>229.2</ele>
        <time>2026-08-31T09:20:01Z</time>
      </trkpt>
      <trkpt lat="43.44755" lon="-0.37111">
        <ele>229.2</ele>
        <time>2026-08-31T09:20:01Z</time>
      </trkpt>
      <trkpt lat="43.44756" lon="-0.3711">
        <ele>229.2</ele>
        <time>2026-08-31T09:20:02Z</time>
      </trkpt>
      <trkpt lat="43.44756" lon="-0.37109">
        <ele>229.2</ele>
        <time>2026-08-31T09:20:02Z</time>
      </trkpt>
      <trkpt lat="43.44756" lon="-0.37109">
        <ele>229.2</ele>
        <time>2026-08-31T09:20:03Z</time>
      </trkpt>
      <trkpt lat="43.44756" lon="-0.37108">
        <ele>229.2</ele>
        <time>2026-08-31T09:20:03Z</time>
      </trkpt>
      <trkpt lat="43.44757" lon="-0.37107">
        <ele>229.2</ele>
        <time>2026-08-31T09:20:04Z</time>
      </trkpt>
      <trkpt lat="43.44757" lon="-0.37107">
        <ele>229.2</ele>
        <time>2026-08-31T09:20:05Z</time>
      </trkpt>
      <trkpt lat="43.44758" lon="-0.37106">
        <ele>229.2</ele>
        <time>2026-08-31T09:20:05Z</time>
      </trkpt>
      <trkpt lat="43.44759" lon="-0.37105">
        <ele>229.2</ele>
        <time>2026-08-31T09:20:06Z</time>
      </trkpt>
      <trkpt lat="43.44759" lon="-0.37105">
        <ele>229.2</ele>
        <time>2026-08-31T09:20:07Z</time>
      </trkpt>
      <trkpt lat="43.44759" lon="-0.37104">
        <ele>228.2</ele>
        <time>2026-08-31T09:20:07Z</time>
      </trkpt>
      <trkpt lat="43.4476" lon="-0.37103">
        <ele>228.2</ele>
        <time>2026-08-31T09:20:08Z</time>
      </trkpt>
      <trkpt lat="43.4476" lon="-0.37103">
        <ele>228.2</ele>
        <time>2026-08-31T09:20:08Z</time>
      </trkpt>
      <trkpt lat="43.44761" lon="-0.37102">
        <ele>228.2</ele>
        <time>2026-08-31T09:20:09Z</time>
      </trkpt>
      <trkpt lat="43.44761" lon="-0.37101">
        <ele>228.2</ele>
        <time>2026-08-31T09:20:10Z</time>
      </trkpt>
      <trkpt lat="43.44761" lon="-0.371">
        <ele>228.2</ele>
        <time>2026-08-31T09:20:10Z</time>
      </trkpt>
      <trkpt lat="43.44762" lon="-0.37099">
        <ele>228.2</ele>
        <time>2026-08-31T09:20:11Z</time>
      </trkpt>
      <trkpt lat="43.44762" lon="-0.37098">
        <ele>228.2</ele>
        <time>2026-08-31T09:20:11Z</time>
      </trkpt>
      <trkpt lat="43.44762" lon="-0.37097">
        <ele>228.2</ele>
        <time>2026-08-31T09:20:12Z</time>
      </trkpt>
      <trkpt lat="43.44763" lon="-0.37097">
        <ele>228.2</ele>
        <time>2026-08-31T09:20:12Z</time>
      </trkpt>
      <trkpt lat="43.44763" lon="-0.37096">
        <ele>228.2</ele>
        <time>2026-08-31T09:20:13Z</time>
      </trkpt>
      <trkpt lat="43.44764" lon="-0.37095">
        <ele>228.2</ele>
        <time>2026-08-31T09:20:14Z</time>
      </trkpt>
      <trkpt lat="43.44764" lon="-0.37095">
        <ele>228.2</ele>
        <time>2026-08-31T09:20:14Z</time>
      </trkpt>
      <trkpt lat="43.44764" lon="-0.37094">
        <ele>228.2</ele>
        <time>2026-08-31T09:20:15Z</time>
      </trkpt>
      <trkpt lat="43.44764" lon="-0.37093">
        <ele>228.2</ele>
        <time>2026-08-31T09:20:15Z</time>
      </trkpt>
      <trkpt lat="43.44764" lon="-0.37092">
        <ele>228.2</ele>
        <time>2026-08-31T09:20:16Z</time>
      </trkpt>
      <trkpt lat="43.44765" lon="-0.37092">
        <ele>228.2</ele>
        <time>2026-08-31T09:20:16Z</time>
      </trkpt>
      <trkpt lat="43.44765" lon="-0.37091">
        <ele>227.2</ele>
        <time>2026-08-31T09:20:17Z</time>
      </trkpt>
      <trkpt lat="43.44765" lon="-0.3709">
        <ele>227.2</ele>
        <time>2026-08-31T09:20:17Z</time>
      </trkpt>
      <trkpt lat="43.44765" lon="-0.37089">
        <ele>228.2</ele>
        <time>2026-08-31T09:20:18Z</time>
      </trkpt>
      <trkpt lat="43.44765" lon="-0.37089">
        <ele>228.2</ele>
        <time>2026-08-31T09:20:18Z</time>
      </trkpt>
      <trkpt lat="43.44766" lon="-0.37088">
        <ele>227.2</ele>
        <time>2026-08-31T09:20:19Z</time>
      </trkpt>
      <trkpt lat="43.44766" lon="-0.37087">
        <ele>227.2</ele>
        <time>2026-08-31T09:20:20Z</time>
      </trkpt>
      <trkpt lat="43.44767" lon="-0.37086">
        <ele>227.2</ele>
        <time>2026-08-31T09:20:20Z</time>
      </trkpt>
      <trkpt lat="43.44767" lon="-0.37086">
        <ele>226.2</ele>
        <time>2026-08-31T09:20:21Z</time>
      </trkpt>
      <trkpt lat="43.44767" lon="-0.37085">
        <ele>226.2</ele>
        <time>2026-08-31T09:20:22Z</time>
      </trkpt>
      <trkpt lat="43.44768" lon="-0.37085">
        <ele>226.2</ele>
        <time>2026-08-31T09:20:22Z</time>
      </trkpt>
      <trkpt lat="43.44768" lon="-0.37084">
        <ele>226.2</ele>
        <time>2026-08-31T09:20:23Z</time>
      </trkpt>
      <trkpt lat="43.44768" lon="-0.37083">
        <ele>226.2</ele>
        <time>2026-08-31T09:20:23Z</time>
      </trkpt>
      <trkpt lat="43.44769" lon="-0.37083">
        <ele>226.2</ele>
        <time>2026-08-31T09:20:24Z</time>
      </trkpt>
      <trkpt lat="43.44769" lon="-0.37082">
        <ele>226.2</ele>
        <time>2026-08-31T09:20:24Z</time>
      </trkpt>
      <trkpt lat="43.44769" lon="-0.37082">
        <ele>225.2</ele>
        <time>2026-08-31T09:20:25Z</time>
      </trkpt>
      <trkpt lat="43.44769" lon="-0.37081">
        <ele>225.2</ele>
        <time>2026-08-31T09:20:25Z</time>
      </trkpt>
      <trkpt lat="43.4477" lon="-0.37081">
        <ele>226.2</ele>
        <time>2026-08-31T09:20:26Z</time>
      </trkpt>
      <trkpt lat="43.4477" lon="-0.3708">
        <ele>226.2</ele>
        <time>2026-08-31T09:20:26Z</time>
      </trkpt>
      <trkpt lat="43.44771" lon="-0.37079">
        <ele>225.2</ele>
        <time>2026-08-31T09:20:27Z</time>
      </trkpt>
      <trkpt lat="43.44771" lon="-0.37078">
        <ele>225.2</ele>
        <time>2026-08-31T09:20:28Z</time>
      </trkpt>
      <trkpt lat="43.44771" lon="-0.37078">
        <ele>226.2</ele>
        <time>2026-08-31T09:20:28Z</time>
      </trkpt>
      <trkpt lat="43.44772" lon="-0.37077">
        <ele>226.2</ele>
        <time>2026-08-31T09:20:29Z</time>
      </trkpt>
      <trkpt lat="43.44772" lon="-0.37076">
        <ele>226.2</ele>
        <time>2026-08-31T09:20:29Z</time>
      </trkpt>
      <trkpt lat="43.44772" lon="-0.37075">
        <ele>225.2</ele>
        <time>2026-08-31T09:20:30Z</time>
      </trkpt>
      <trkpt lat="43.44773" lon="-0.37074">
        <ele>224.2</ele>
        <time>2026-08-31T09:20:31Z</time>
      </trkpt>
      <trkpt lat="43.44773" lon="-0.37073">
        <ele>224.2</ele>
        <time>2026-08-31T09:20:32Z</time>
      </trkpt>
      <trkpt lat="43.44774" lon="-0.37072">
        <ele>224.2</ele>
        <time>2026-08-31T09:20:32Z</time>
      </trkpt>
      <trkpt lat="43.44774" lon="-0.37072">
        <ele>224.2</ele>
        <time>2026-08-31T09:20:33Z</time>
      </trkpt>
      <trkpt lat="43.44774" lon="-0.37071">
        <ele>224.2</ele>
        <time>2026-08-31T09:20:33Z</time>
      </trkpt>
      <trkpt lat="43.44775" lon="-0.3707">
        <ele>224.2</ele>
        <time>2026-08-31T09:20:34Z</time>
      </trkpt>
      <trkpt lat="43.44775" lon="-0.3707">
        <ele>224.2</ele>
        <time>2026-08-31T09:20:35Z</time>
      </trkpt>
      <trkpt lat="43.44775" lon="-0.37069">
        <ele>223.2</ele>
        <time>2026-08-31T09:20:35Z</time>
      </trkpt>
      <trkpt lat="43.44776" lon="-0.37069">
        <ele>223.2</ele>
        <time>2026-08-31T09:20:36Z</time>
      </trkpt>
      <trkpt lat="43.44776" lon="-0.37068">
        <ele>223.2</ele>
        <time>2026-08-31T09:20:36Z</time>
      </trkpt>
      <trkpt lat="43.44776" lon="-0.37067">
        <ele>223.2</ele>
        <time>2026-08-31T09:20:37Z</time>
      </trkpt>
      <trkpt lat="43.44777" lon="-0.37067">
        <ele>223.2</ele>
        <time>2026-08-31T09:20:37Z</time>
      </trkpt>
      <trkpt lat="43.44777" lon="-0.37067">
        <ele>223.2</ele>
        <time>2026-08-31T09:20:38Z</time>
      </trkpt>
      <trkpt lat="43.44777" lon="-0.37066">
        <ele>223.2</ele>
        <time>2026-08-31T09:20:38Z</time>
      </trkpt>
      <trkpt lat="43.44778" lon="-0.37065">
        <ele>222.2</ele>
        <time>2026-08-31T09:20:39Z</time>
      </trkpt>
      <trkpt lat="43.44778" lon="-0.37065">
        <ele>222.2</ele>
        <time>2026-08-31T09:20:39Z</time>
      </trkpt>
      <trkpt lat="43.44779" lon="-0.37064">
        <ele>223.2</ele>
        <time>2026-08-31T09:20:40Z</time>
      </trkpt>
      <trkpt lat="43.44779" lon="-0.37063">
        <ele>222.2</ele>
        <time>2026-08-31T09:20:41Z</time>
      </trkpt>
      <trkpt lat="43.4478" lon="-0.37062">
        <ele>222.2</ele>
        <time>2026-08-31T09:20:42Z</time>
      </trkpt>
      <trkpt lat="43.4478" lon="-0.37062">
        <ele>222.2</ele>
        <time>2026-08-31T09:20:42Z</time>
      </trkpt>
      <trkpt lat="43.4478" lon="-0.37061">
        <ele>222.2</ele>
        <time>2026-08-31T09:20:43Z</time>
      </trkpt>
      <trkpt lat="43.44781" lon="-0.37061">
        <ele>222.2</ele>
        <time>2026-08-31T09:20:43Z</time>
      </trkpt>
      <trkpt lat="43.44781" lon="-0.3706">
        <ele>222.2</ele>
        <time>2026-08-31T09:20:44Z</time>
      </trkpt>
      <trkpt lat="43.44782" lon="-0.3706">
        <ele>222.2</ele>
        <time>2026-08-31T09:20:44Z</time>
      </trkpt>
      <trkpt lat="43.44782" lon="-0.37059">
        <ele>222.2</ele>
        <time>2026-08-31T09:20:45Z</time>
      </trkpt>
      <trkpt lat="43.44783" lon="-0.37058">
        <ele>222.2</ele>
        <time>2026-08-31T09:20:45Z</time>
      </trkpt>
      <trkpt lat="43.44783" lon="-0.37058">
        <ele>222.2</ele>
        <time>2026-08-31T09:20:46Z</time>
      </trkpt>
      <trkpt lat="43.44784" lon="-0.37057">
        <ele>222.2</ele>
        <time>2026-08-31T09:20:47Z</time>
      </trkpt>
      <trkpt lat="43.44785" lon="-0.37057">
        <ele>221.2</ele>
        <time>2026-08-31T09:20:48Z</time>
      </trkpt>
      <trkpt lat="43.44785" lon="-0.37057">
        <ele>222.2</ele>
        <time>2026-08-31T09:20:48Z</time>
      </trkpt>
      <trkpt lat="43.44786" lon="-0.37056">
        <ele>222.2</ele>
        <time>2026-08-31T09:20:49Z</time>
      </trkpt>
      <trkpt lat="43.44786" lon="-0.37056">
        <ele>221.2</ele>
        <time>2026-08-31T09:20:49Z</time>
      </trkpt>
      <trkpt lat="43.44787" lon="-0.37056">
        <ele>221.2</ele>
        <time>2026-08-31T09:20:50Z</time>
      </trkpt>
      <trkpt lat="43.44787" lon="-0.37055">
        <ele>220.2</ele>
        <time>2026-08-31T09:20:51Z</time>
      </trkpt>
      <trkpt lat="43.44788" lon="-0.37054">
        <ele>220.2</ele>
        <time>2026-08-31T09:20:51Z</time>
      </trkpt>
      <trkpt lat="43.44788" lon="-0.37054">
        <ele>220.2</ele>
        <time>2026-08-31T09:20:52Z</time>
      </trkpt>
      <trkpt lat="43.44789" lon="-0.37054">
        <ele>220.2</ele>
        <time>2026-08-31T09:20:52Z</time>
      </trkpt>
      <trkpt lat="43.44789" lon="-0.37053">
        <ele>220.2</ele>
        <time>2026-08-31T09:20:53Z</time>
      </trkpt>
      <trkpt lat="43.4479" lon="-0.37053">
        <ele>220.2</ele>
        <time>2026-08-31T09:20:54Z</time>
      </trkpt>
      <trkpt lat="43.4479" lon="-0.37053">
        <ele>220.2</ele>
        <time>2026-08-31T09:20:54Z</time>
      </trkpt>
      <trkpt lat="43.44791" lon="-0.37052">
        <ele>220.2</ele>
        <time>2026-08-31T09:20:55Z</time>
      </trkpt>
      <trkpt lat="43.44791" lon="-0.37052">
        <ele>219.2</ele>
        <time>2026-08-31T09:20:55Z</time>
      </trkpt>
      <trkpt lat="43.44791" lon="-0.37052">
        <ele>219.2</ele>
        <time>2026-08-31T09:20:56Z</time>
      </trkpt>
      <trkpt lat="43.44792" lon="-0.37051">
        <ele>219.2</ele>
        <time>2026-08-31T09:20:56Z</time>
      </trkpt>
      <trkpt lat="43.44792" lon="-0.37051">
        <ele>219.2</ele>
        <time>2026-08-31T09:20:57Z</time>
      </trkpt>
      <trkpt lat="43.44793" lon="-0.3705">
        <ele>219.2</ele>
        <time>2026-08-31T09:20:57Z</time>
      </trkpt>
      <trkpt lat="43.44793" lon="-0.3705">
        <ele>218.2</ele>
        <time>2026-08-31T09:20:58Z</time>
      </trkpt>
      <trkpt lat="43.44794" lon="-0.3705">
        <ele>218.2</ele>
        <time>2026-08-31T09:20:58Z</time>
      </trkpt>
      <trkpt lat="43.44794" lon="-0.37049">
        <ele>218.2</ele>
        <time>2026-08-31T09:20:59Z</time>
      </trkpt>
      <trkpt lat="43.44795" lon="-0.37049">
        <ele>218.2</ele>
        <time>2026-08-31T09:20:59Z</time>
      </trkpt>
      <trkpt lat="43.44795" lon="-0.37048">
        <ele>218.2</ele>
        <time>2026-08-31T09:21:00Z</time>
      </trkpt>
      <trkpt lat="43.44796" lon="-0.37048">
        <ele>218.2</ele>
        <time>2026-08-31T09:21:01Z</time>
      </trkpt>
      <trkpt lat="43.44796" lon="-0.37047">
        <ele>217.2</ele>
        <time>2026-08-31T09:21:01Z</time>
      </trkpt>
      <trkpt lat="43.44797" lon="-0.37047">
        <ele>217.2</ele>
        <time>2026-08-31T09:21:02Z</time>
      </trkpt>
      <trkpt lat="43.44798" lon="-0.37046">
        <ele>217.2</ele>
        <time>2026-08-31T09:21:03Z</time>
      </trkpt>
      <trkpt lat="43.44798" lon="-0.37046">
        <ele>217.2</ele>
        <time>2026-08-31T09:21:03Z</time>
      </trkpt>
      <trkpt lat="43.44799" lon="-0.37046">
        <ele>216.2</ele>
        <time>2026-08-31T09:21:04Z</time>
      </trkpt>
      <trkpt lat="43.44799" lon="-0.37045">
        <ele>216.2</ele>
        <time>2026-08-31T09:21:04Z</time>
      </trkpt>
      <trkpt lat="43.448" lon="-0.37045">
        <ele>216.2</ele>
        <time>2026-08-31T09:21:05Z</time>
      </trkpt>
      <trkpt lat="43.44801" lon="-0.37045">
        <ele>216.2</ele>
        <time>2026-08-31T09:21:05Z</time>
      </trkpt>
      <trkpt lat="43.44801" lon="-0.37044">
        <ele>216.2</ele>
        <time>2026-08-31T09:21:06Z</time>
      </trkpt>
      <trkpt lat="43.44802" lon="-0.37044">
        <ele>216.2</ele>
        <time>2026-08-31T09:21:06Z</time>
      </trkpt>
      <trkpt lat="43.44802" lon="-0.37043">
        <ele>216.2</ele>
        <time>2026-08-31T09:21:07Z</time>
      </trkpt>
      <trkpt lat="43.44803" lon="-0.37043">
        <ele>216.2</ele>
        <time>2026-08-31T09:21:07Z</time>
      </trkpt>
      <trkpt lat="43.44803" lon="-0.37042">
        <ele>216.2</ele>
        <time>2026-08-31T09:21:08Z</time>
      </trkpt>
      <trkpt lat="43.44804" lon="-0.37042">
        <ele>216.2</ele>
        <time>2026-08-31T09:21:09Z</time>
      </trkpt>
      <trkpt lat="43.44804" lon="-0.37041">
        <ele>215.2</ele>
        <time>2026-08-31T09:21:09Z</time>
      </trkpt>
      <trkpt lat="43.44805" lon="-0.37041">
        <ele>215.2</ele>
        <time>2026-08-31T09:21:10Z</time>
      </trkpt>
      <trkpt lat="43.44805" lon="-0.3704">
        <ele>214.2</ele>
        <time>2026-08-31T09:21:10Z</time>
      </trkpt>
      <trkpt lat="43.44806" lon="-0.3704">
        <ele>214.2</ele>
        <time>2026-08-31T09:21:11Z</time>
      </trkpt>
      <trkpt lat="43.44806" lon="-0.3704">
        <ele>214.2</ele>
        <time>2026-08-31T09:21:11Z</time>
      </trkpt>
      <trkpt lat="43.44807" lon="-0.37039">
        <ele>213.2</ele>
        <time>2026-08-31T09:21:12Z</time>
      </trkpt>
      <trkpt lat="43.44807" lon="-0.37039">
        <ele>213.2</ele>
        <time>2026-08-31T09:21:12Z</time>
      </trkpt>
      <trkpt lat="43.44808" lon="-0.37039">
        <ele>213.2</ele>
        <time>2026-08-31T09:21:13Z</time>
      </trkpt>
      <trkpt lat="43.44808" lon="-0.37038">
        <ele>213.2</ele>
        <time>2026-08-31T09:21:13Z</time>
      </trkpt>
      <trkpt lat="43.44809" lon="-0.37038">
        <ele>213.2</ele>
        <time>2026-08-31T09:21:14Z</time>
      </trkpt>
      <trkpt lat="43.44809" lon="-0.37037">
        <ele>213.2</ele>
        <time>2026-08-31T09:21:14Z</time>
      </trkpt>
      <trkpt lat="43.44809" lon="-0.37037">
        <ele>212.2</ele>
        <time>2026-08-31T09:21:15Z</time>
      </trkpt>
      <trkpt lat="43.4481" lon="-0.37037">
        <ele>212.2</ele>
        <time>2026-08-31T09:21:15Z</time>
      </trkpt>
      <trkpt lat="43.4481" lon="-0.37036">
        <ele>212.2</ele>
        <time>2026-08-31T09:21:16Z</time>
      </trkpt>
      <trkpt lat="43.44811" lon="-0.37036">
        <ele>212.2</ele>
        <time>2026-08-31T09:21:17Z</time>
      </trkpt>
      <trkpt lat="43.44811" lon="-0.37035">
        <ele>211.2</ele>
        <time>2026-08-31T09:21:17Z</time>
      </trkpt>
      <trkpt lat="43.44812" lon="-0.37035">
        <ele>211.2</ele>
        <time>2026-08-31T09:21:18Z</time>
      </trkpt>
      <trkpt lat="43.44812" lon="-0.37034">
        <ele>211.2</ele>
        <time>2026-08-31T09:21:18Z</time>
      </trkpt>
      <trkpt lat="43.44812" lon="-0.37033">
        <ele>211.2</ele>
        <time>2026-08-31T09:21:19Z</time>
      </trkpt>
      <trkpt lat="43.44813" lon="-0.37033">
        <ele>210.2</ele>
        <time>2026-08-31T09:21:19Z</time>
      </trkpt>
      <trkpt lat="43.44813" lon="-0.37032">
        <ele>210.2</ele>
        <time>2026-08-31T09:21:20Z</time>
      </trkpt>
      <trkpt lat="43.44813" lon="-0.37031">
        <ele>210.2</ele>
        <time>2026-08-31T09:21:20Z</time>
      </trkpt>
      <trkpt lat="43.44813" lon="-0.37031">
        <ele>210.2</ele>
        <time>2026-08-31T09:21:21Z</time>
      </trkpt>
      <trkpt lat="43.44814" lon="-0.3703">
        <ele>210.2</ele>
        <time>2026-08-31T09:21:21Z</time>
      </trkpt>
      <trkpt lat="43.44814" lon="-0.3703">
        <ele>209.2</ele>
        <time>2026-08-31T09:21:22Z</time>
      </trkpt>
      <trkpt lat="43.44814" lon="-0.37029">
        <ele>209.2</ele>
        <time>2026-08-31T09:21:22Z</time>
      </trkpt>
      <trkpt lat="43.44815" lon="-0.37029">
        <ele>209.2</ele>
        <time>2026-08-31T09:21:23Z</time>
      </trkpt>
      <trkpt lat="43.44815" lon="-0.37028">
        <ele>209.2</ele>
        <time>2026-08-31T09:21:24Z</time>
      </trkpt>
      <trkpt lat="43.44816" lon="-0.37028">
        <ele>209.2</ele>
        <time>2026-08-31T09:21:24Z</time>
      </trkpt>
      <trkpt lat="43.44816" lon="-0.37027">
        <ele>209.2</ele>
        <time>2026-08-31T09:21:25Z</time>
      </trkpt>
      <trkpt lat="43.44817" lon="-0.37027">
        <ele>208.2</ele>
        <time>2026-08-31T09:21:25Z</time>
      </trkpt>
      <trkpt lat="43.44817" lon="-0.37026">
        <ele>208.2</ele>
        <time>2026-08-31T09:21:26Z</time>
      </trkpt>
      <trkpt lat="43.44817" lon="-0.37026">
        <ele>208.2</ele>
        <time>2026-08-31T09:21:26Z</time>
      </trkpt>
      <trkpt lat="43.44818" lon="-0.37026">
        <ele>208.2</ele>
        <time>2026-08-31T09:21:27Z</time>
      </trkpt>
      <trkpt lat="43.44818" lon="-0.37025">
        <ele>208.2</ele>
        <time>2026-08-31T09:21:27Z</time>
      </trkpt>
      <trkpt lat="43.44819" lon="-0.37025">
        <ele>208.2</ele>
        <time>2026-08-31T09:21:28Z</time>
      </trkpt>
      <trkpt lat="43.4482" lon="-0.37025">
        <ele>208.2</ele>
        <time>2026-08-31T09:21:28Z</time>
      </trkpt>
      <trkpt lat="43.4482" lon="-0.37025">
        <ele>207.2</ele>
        <time>2026-08-31T09:21:29Z</time>
      </trkpt>
      <trkpt lat="43.44821" lon="-0.37024">
        <ele>207.2</ele>
        <time>2026-08-31T09:21:29Z</time>
      </trkpt>
      <trkpt lat="43.44821" lon="-0.37024">
        <ele>207.2</ele>
        <time>2026-08-31T09:21:30Z</time>
      </trkpt>
      <trkpt lat="43.44822" lon="-0.37024">
        <ele>207.2</ele>
        <time>2026-08-31T09:21:31Z</time>
      </trkpt>
      <trkpt lat="43.44822" lon="-0.37023">
        <ele>207.2</ele>
        <time>2026-08-31T09:21:31Z</time>
      </trkpt>
      <trkpt lat="43.44823" lon="-0.37023">
        <ele>207.2</ele>
        <time>2026-08-31T09:21:32Z</time>
      </trkpt>
      <trkpt lat="43.44824" lon="-0.37023">
        <ele>207.2</ele>
        <time>2026-08-31T09:21:32Z</time>
      </trkpt>
      <trkpt lat="43.44824" lon="-0.37022">
        <ele>207.2</ele>
        <time>2026-08-31T09:21:33Z</time>
      </trkpt>
      <trkpt lat="43.44825" lon="-0.37022">
        <ele>207.2</ele>
        <time>2026-08-31T09:21:33Z</time>
      </trkpt>
      <trkpt lat="43.44825" lon="-0.37022">
        <ele>207.2</ele>
        <time>2026-08-31T09:21:34Z</time>
      </trkpt>
      <trkpt lat="43.44826" lon="-0.37022">
        <ele>207.2</ele>
        <time>2026-08-31T09:21:34Z</time>
      </trkpt>
      <trkpt lat="43.44827" lon="-0.37021">
        <ele>207.2</ele>
        <time>2026-08-31T09:21:35Z</time>
      </trkpt>
      <trkpt lat="43.44827" lon="-0.37021">
        <ele>207.2</ele>
        <time>2026-08-31T09:21:35Z</time>
      </trkpt>
      <trkpt lat="43.44828" lon="-0.3702">
        <ele>207.2</ele>
        <time>2026-08-31T09:21:36Z</time>
      </trkpt>
      <trkpt lat="43.44829" lon="-0.3702">
        <ele>207.2</ele>
        <time>2026-08-31T09:21:36Z</time>
      </trkpt>
      <trkpt lat="43.44829" lon="-0.3702">
        <ele>207.2</ele>
        <time>2026-08-31T09:21:37Z</time>
      </trkpt>
      <trkpt lat="43.4483" lon="-0.37019">
        <ele>207.2</ele>
        <time>2026-08-31T09:21:38Z</time>
      </trkpt>
      <trkpt lat="43.44831" lon="-0.37019">
        <ele>207.2</ele>
        <time>2026-08-31T09:21:38Z</time>
      </trkpt>
      <trkpt lat="43.44831" lon="-0.37018">
        <ele>207.2</ele>
        <time>2026-08-31T09:21:39Z</time>
      </trkpt>
      <trkpt lat="43.44832" lon="-0.37017">
        <ele>208.2</ele>
        <time>2026-08-31T09:21:39Z</time>
      </trkpt>
      <trkpt lat="43.44832" lon="-0.37017">
        <ele>208.2</ele>
        <time>2026-08-31T09:21:40Z</time>
      </trkpt>
      <trkpt lat="43.44833" lon="-0.37016">
        <ele>208.2</ele>
        <time>2026-08-31T09:21:40Z</time>
      </trkpt>
      <trkpt lat="43.44834" lon="-0.37016">
        <ele>208.2</ele>
        <time>2026-08-31T09:21:41Z</time>
      </trkpt>
      <trkpt lat="43.44834" lon="-0.37015">
        <ele>208.2</ele>
        <time>2026-08-31T09:21:41Z</time>
      </trkpt>
      <trkpt lat="43.44835" lon="-0.37014">
        <ele>208.2</ele>
        <time>2026-08-31T09:21:42Z</time>
      </trkpt>
      <trkpt lat="43.44836" lon="-0.37014">
        <ele>208.2</ele>
        <time>2026-08-31T09:21:42Z</time>
      </trkpt>
      <trkpt lat="43.44836" lon="-0.37013">
        <ele>208.2</ele>
        <time>2026-08-31T09:21:43Z</time>
      </trkpt>
      <trkpt lat="43.44837" lon="-0.37012">
        <ele>208.2</ele>
        <time>2026-08-31T09:21:43Z</time>
      </trkpt>
      <trkpt lat="43.44838" lon="-0.37012">
        <ele>208.2</ele>
        <time>2026-08-31T09:21:44Z</time>
      </trkpt>
      <trkpt lat="43.44838" lon="-0.37011">
        <ele>208.2</ele>
        <time>2026-08-31T09:21:44Z</time>
      </trkpt>
      <trkpt lat="43.44839" lon="-0.37011">
        <ele>208.2</ele>
        <time>2026-08-31T09:21:45Z</time>
      </trkpt>
      <trkpt lat="43.44839" lon="-0.3701">
        <ele>208.2</ele>
        <time>2026-08-31T09:21:45Z</time>
      </trkpt>
      <trkpt lat="43.4484" lon="-0.3701">
        <ele>208.2</ele>
        <time>2026-08-31T09:21:46Z</time>
      </trkpt>
      <trkpt lat="43.4484" lon="-0.37009">
        <ele>208.2</ele>
        <time>2026-08-31T09:21:47Z</time>
      </trkpt>
      <trkpt lat="43.44841" lon="-0.37008">
        <ele>207.2</ele>
        <time>2026-08-31T09:21:47Z</time>
      </trkpt>
      <trkpt lat="43.44841" lon="-0.37008">
        <ele>207.2</ele>
        <time>2026-08-31T09:21:48Z</time>
      </trkpt>
      <trkpt lat="43.44842" lon="-0.37007">
        <ele>207.2</ele>
        <time>2026-08-31T09:21:48Z</time>
      </trkpt>
      <trkpt lat="43.44842" lon="-0.37007">
        <ele>207.2</ele>
        <time>2026-08-31T09:21:49Z</time>
      </trkpt>
      <trkpt lat="43.44843" lon="-0.37006">
        <ele>207.2</ele>
        <time>2026-08-31T09:21:49Z</time>
      </trkpt>
      <trkpt lat="43.44843" lon="-0.37005">
        <ele>207.2</ele>
        <time>2026-08-31T09:21:50Z</time>
      </trkpt>
      <trkpt lat="43.44844" lon="-0.37004">
        <ele>207.2</ele>
        <time>2026-08-31T09:21:50Z</time>
      </trkpt>
      <trkpt lat="43.44844" lon="-0.37004">
        <ele>207.2</ele>
        <time>2026-08-31T09:21:51Z</time>
      </trkpt>
      <trkpt lat="43.44845" lon="-0.37003">
        <ele>207.2</ele>
        <time>2026-08-31T09:21:51Z</time>
      </trkpt>
      <trkpt lat="43.44846" lon="-0.37002">
        <ele>206.2</ele>
        <time>2026-08-31T09:21:52Z</time>
      </trkpt>
      <trkpt lat="43.44846" lon="-0.37002">
        <ele>206.2</ele>
        <time>2026-08-31T09:21:52Z</time>
      </trkpt>
      <trkpt lat="43.44846" lon="-0.37001">
        <ele>206.2</ele>
        <time>2026-08-31T09:21:53Z</time>
      </trkpt>
      <trkpt lat="43.44847" lon="-0.37001">
        <ele>206.2</ele>
        <time>2026-08-31T09:21:54Z</time>
      </trkpt>
      <trkpt lat="43.44848" lon="-0.37">
        <ele>206.2</ele>
        <time>2026-08-31T09:21:54Z</time>
      </trkpt>
      <trkpt lat="43.44848" lon="-0.36999">
        <ele>206.2</ele>
        <time>2026-08-31T09:21:55Z</time>
      </trkpt>
      <trkpt lat="43.44849" lon="-0.36999">
        <ele>206.2</ele>
        <time>2026-08-31T09:21:55Z</time>
      </trkpt>
      <trkpt lat="43.4485" lon="-0.36998">
        <ele>206.2</ele>
        <time>2026-08-31T09:21:56Z</time>
      </trkpt>
      <trkpt lat="43.44851" lon="-0.36996">
        <ele>206.2</ele>
        <time>2026-08-31T09:21:57Z</time>
      </trkpt>
      <trkpt lat="43.44851" lon="-0.36996">
        <ele>206.2</ele>
        <time>2026-08-31T09:21:58Z</time>
      </trkpt>
      <trkpt lat="43.44852" lon="-0.36995">
        <ele>206.2</ele>
        <time>2026-08-31T09:21:59Z</time>
      </trkpt>
      <trkpt lat="43.44853" lon="-0.36994">
        <ele>206.2</ele>
        <time>2026-08-31T09:22:00Z</time>
      </trkpt>
      <trkpt lat="43.44854" lon="-0.36993">
        <ele>205.2</ele>
        <time>2026-08-31T09:22:00Z</time>
      </trkpt>
      <trkpt lat="43.44854" lon="-0.36993">
        <ele>205.2</ele>
        <time>2026-08-31T09:22:01Z</time>
      </trkpt>
      <trkpt lat="43.44855" lon="-0.36992">
        <ele>203.2</ele>
        <time>2026-08-31T09:22:01Z</time>
      </trkpt>
      <trkpt lat="43.44855" lon="-0.36992">
        <ele>203.2</ele>
        <time>2026-08-31T09:22:02Z</time>
      </trkpt>
      <trkpt lat="43.44856" lon="-0.36991">
        <ele>202.2</ele>
        <time>2026-08-31T09:22:02Z</time>
      </trkpt>
      <trkpt lat="43.44857" lon="-0.36991">
        <ele>202.2</ele>
        <time>2026-08-31T09:22:03Z</time>
      </trkpt>
      <trkpt lat="43.44857" lon="-0.3699">
        <ele>200.2</ele>
        <time>2026-08-31T09:22:03Z</time>
      </trkpt>
      <trkpt lat="43.44858" lon="-0.3699">
        <ele>199.2</ele>
        <time>2026-08-31T09:22:04Z</time>
      </trkpt>
      <trkpt lat="43.44858" lon="-0.36989">
        <ele>199.2</ele>
        <time>2026-08-31T09:22:04Z</time>
      </trkpt>
      <trkpt lat="43.44859" lon="-0.36989">
        <ele>199.2</ele>
        <time>2026-08-31T09:22:05Z</time>
      </trkpt>
      <trkpt lat="43.44859" lon="-0.36988">
        <ele>199.2</ele>
        <time>2026-08-31T09:22:05Z</time>
      </trkpt>
      <trkpt lat="43.4486" lon="-0.36988">
        <ele>199.2</ele>
        <time>2026-08-31T09:22:06Z</time>
      </trkpt>
      <trkpt lat="43.44861" lon="-0.36987">
        <ele>199.2</ele>
        <time>2026-08-31T09:22:06Z</time>
      </trkpt>
      <trkpt lat="43.44861" lon="-0.36986">
        <ele>198.2</ele>
        <time>2026-08-31T09:22:07Z</time>
      </trkpt>
      <trkpt lat="43.44862" lon="-0.36985">
        <ele>198.2</ele>
        <time>2026-08-31T09:22:08Z</time>
      </trkpt>
      <trkpt lat="43.44862" lon="-0.36985">
        <ele>198.2</ele>
        <time>2026-08-31T09:22:08Z</time>
      </trkpt>
      <trkpt lat="43.44862" lon="-0.36984">
        <ele>198.2</ele>
        <time>2026-08-31T09:22:09Z</time>
      </trkpt>
      <trkpt lat="43.44863" lon="-0.36983">
        <ele>197.2</ele>
        <time>2026-08-31T09:22:09Z</time>
      </trkpt>
      <trkpt lat="43.44863" lon="-0.36983">
        <ele>197.2</ele>
        <time>2026-08-31T09:22:10Z</time>
      </trkpt>
      <trkpt lat="43.44864" lon="-0.36982">
        <ele>197.2</ele>
        <time>2026-08-31T09:22:10Z</time>
      </trkpt>
      <trkpt lat="43.44864" lon="-0.36981">
        <ele>197.2</ele>
        <time>2026-08-31T09:22:11Z</time>
      </trkpt>
      <trkpt lat="43.44865" lon="-0.36981">
        <ele>197.2</ele>
        <time>2026-08-31T09:22:11Z</time>
      </trkpt>
      <trkpt lat="43.44865" lon="-0.36981">
        <ele>197.2</ele>
        <time>2026-08-31T09:22:12Z</time>
      </trkpt>
      <trkpt lat="43.44866" lon="-0.3698">
        <ele>197.2</ele>
        <time>2026-08-31T09:22:12Z</time>
      </trkpt>
      <trkpt lat="43.44866" lon="-0.3698">
        <ele>197.2</ele>
        <time>2026-08-31T09:22:13Z</time>
      </trkpt>
      <trkpt lat="43.44866" lon="-0.36979">
        <ele>197.2</ele>
        <time>2026-08-31T09:22:13Z</time>
      </trkpt>
      <trkpt lat="43.44867" lon="-0.36978">
        <ele>197.2</ele>
        <time>2026-08-31T09:22:14Z</time>
      </trkpt>
      <trkpt lat="43.44868" lon="-0.36978">
        <ele>197.2</ele>
        <time>2026-08-31T09:22:15Z</time>
      </trkpt>
      <trkpt lat="43.44868" lon="-0.36977">
        <ele>197.2</ele>
        <time>2026-08-31T09:22:15Z</time>
      </trkpt>
      <trkpt lat="43.44869" lon="-0.36977">
        <ele>197.2</ele>
        <time>2026-08-31T09:22:16Z</time>
      </trkpt>
      <trkpt lat="43.44869" lon="-0.36976">
        <ele>197.2</ele>
        <time>2026-08-31T09:22:16Z</time>
      </trkpt>
      <trkpt lat="43.4487" lon="-0.36975">
        <ele>197.2</ele>
        <time>2026-08-31T09:22:17Z</time>
      </trkpt>
      <trkpt lat="43.4487" lon="-0.36975">
        <ele>197.2</ele>
        <time>2026-08-31T09:22:17Z</time>
      </trkpt>
      <trkpt lat="43.44871" lon="-0.36975">
        <ele>197.2</ele>
        <time>2026-08-31T09:22:18Z</time>
      </trkpt>
      <trkpt lat="43.44871" lon="-0.36974">
        <ele>197.2</ele>
        <time>2026-08-31T09:22:18Z</time>
      </trkpt>
      <trkpt lat="43.44872" lon="-0.36973">
        <ele>197.2</ele>
        <time>2026-08-31T09:22:19Z</time>
      </trkpt>
      <trkpt lat="43.44873" lon="-0.36972">
        <ele>197.2</ele>
        <time>2026-08-31T09:22:20Z</time>
      </trkpt>
      <trkpt lat="43.44874" lon="-0.36971">
        <ele>197.2</ele>
        <time>2026-08-31T09:22:21Z</time>
      </trkpt>
      <trkpt lat="43.44875" lon="-0.3697">
        <ele>197.2</ele>
        <time>2026-08-31T09:22:22Z</time>
      </trkpt>
      <trkpt lat="43.44875" lon="-0.3697">
        <ele>198.2</ele>
        <time>2026-08-31T09:22:22Z</time>
      </trkpt>
      <trkpt lat="43.44876" lon="-0.36969">
        <ele>198.2</ele>
        <time>2026-08-31T09:22:23Z</time>
      </trkpt>
      <trkpt lat="43.44876" lon="-0.36969">
        <ele>198.2</ele>
        <time>2026-08-31T09:22:23Z</time>
      </trkpt>
      <trkpt lat="43.44876" lon="-0.36968">
        <ele>198.2</ele>
        <time>2026-08-31T09:22:24Z</time>
      </trkpt>
      <trkpt lat="43.44877" lon="-0.36968">
        <ele>198.2</ele>
        <time>2026-08-31T09:22:24Z</time>
      </trkpt>
      <trkpt lat="43.44878" lon="-0.36967">
        <ele>198.2</ele>
        <time>2026-08-31T09:22:25Z</time>
      </trkpt>
      <trkpt lat="43.44878" lon="-0.36966">
        <ele>198.2</ele>
        <time>2026-08-31T09:22:25Z</time>
      </trkpt>
      <trkpt lat="43.44879" lon="-0.36966">
        <ele>198.2</ele>
        <time>2026-08-31T09:22:26Z</time>
      </trkpt>
      <trkpt lat="43.44879" lon="-0.36965">
        <ele>198.2</ele>
        <time>2026-08-31T09:22:27Z</time>
      </trkpt>
      <trkpt lat="43.4488" lon="-0.36964">
        <ele>198.2</ele>
        <time>2026-08-31T09:22:27Z</time>
      </trkpt>
      <trkpt lat="43.44881" lon="-0.36964">
        <ele>197.2</ele>
        <time>2026-08-31T09:22:28Z</time>
      </trkpt>
      <trkpt lat="43.44881" lon="-0.36963">
        <ele>197.2</ele>
        <time>2026-08-31T09:22:29Z</time>
      </trkpt>
      <trkpt lat="43.44882" lon="-0.36963">
        <ele>197.2</ele>
        <time>2026-08-31T09:22:29Z</time>
      </trkpt>
      <trkpt lat="43.44882" lon="-0.36962">
        <ele>197.2</ele>
        <time>2026-08-31T09:22:30Z</time>
      </trkpt>
      <trkpt lat="43.44883" lon="-0.36961">
        <ele>197.2</ele>
        <time>2026-08-31T09:22:30Z</time>
      </trkpt>
      <trkpt lat="43.44883" lon="-0.36961">
        <ele>198.2</ele>
        <time>2026-08-31T09:22:31Z</time>
      </trkpt>
      <trkpt lat="43.44884" lon="-0.3696">
        <ele>198.2</ele>
        <time>2026-08-31T09:22:31Z</time>
      </trkpt>
      <trkpt lat="43.44884" lon="-0.36959">
        <ele>198.2</ele>
        <time>2026-08-31T09:22:32Z</time>
      </trkpt>
      <trkpt lat="43.44884" lon="-0.36958">
        <ele>198.2</ele>
        <time>2026-08-31T09:22:32Z</time>
      </trkpt>
      <trkpt lat="43.44885" lon="-0.36958">
        <ele>198.2</ele>
        <time>2026-08-31T09:22:33Z</time>
      </trkpt>
      <trkpt lat="43.44885" lon="-0.36957">
        <ele>198.2</ele>
        <time>2026-08-31T09:22:33Z</time>
      </trkpt>
      <trkpt lat="43.44886" lon="-0.36957">
        <ele>197.2</ele>
        <time>2026-08-31T09:22:34Z</time>
      </trkpt>
      <trkpt lat="43.44886" lon="-0.36956">
        <ele>197.2</ele>
        <time>2026-08-31T09:22:34Z</time>
      </trkpt>
      <trkpt lat="43.44887" lon="-0.36955">
        <ele>197.2</ele>
        <time>2026-08-31T09:22:35Z</time>
      </trkpt>
      <trkpt lat="43.44887" lon="-0.36955">
        <ele>197.2</ele>
        <time>2026-08-31T09:22:36Z</time>
      </trkpt>
      <trkpt lat="43.44887" lon="-0.36954">
        <ele>196.2</ele>
        <time>2026-08-31T09:22:36Z</time>
      </trkpt>
      <trkpt lat="43.44888" lon="-0.36953">
        <ele>196.2</ele>
        <time>2026-08-31T09:22:37Z</time>
      </trkpt>
      <trkpt lat="43.44888" lon="-0.36953">
        <ele>196.2</ele>
        <time>2026-08-31T09:22:37Z</time>
      </trkpt>
      <trkpt lat="43.44888" lon="-0.36952">
        <ele>196.2</ele>
        <time>2026-08-31T09:22:38Z</time>
      </trkpt>
      <trkpt lat="43.44889" lon="-0.36952">
        <ele>196.2</ele>
        <time>2026-08-31T09:22:38Z</time>
      </trkpt>
      <trkpt lat="43.44889" lon="-0.36951">
        <ele>195.2</ele>
        <time>2026-08-31T09:22:39Z</time>
      </trkpt>
      <trkpt lat="43.44889" lon="-0.3695">
        <ele>195.2</ele>
        <time>2026-08-31T09:22:39Z</time>
      </trkpt>
      <trkpt lat="43.44889" lon="-0.3695">
        <ele>195.2</ele>
        <time>2026-08-31T09:22:40Z</time>
      </trkpt>
      <trkpt lat="43.4489" lon="-0.36949">
        <ele>195.2</ele>
        <time>2026-08-31T09:22:40Z</time>
      </trkpt>
      <trkpt lat="43.4489" lon="-0.36947">
        <ele>196.2</ele>
        <time>2026-08-31T09:22:42Z</time>
      </trkpt>
      <trkpt lat="43.44891" lon="-0.36946">
        <ele>196.2</ele>
        <time>2026-08-31T09:22:43Z</time>
      </trkpt>
      <trkpt lat="43.44891" lon="-0.36946">
        <ele>196.2</ele>
        <time>2026-08-31T09:22:43Z</time>
      </trkpt>
      <trkpt lat="43.44892" lon="-0.36945">
        <ele>196.2</ele>
        <time>2026-08-31T09:22:44Z</time>
      </trkpt>
      <trkpt lat="43.44892" lon="-0.36944">
        <ele>196.2</ele>
        <time>2026-08-31T09:22:44Z</time>
      </trkpt>
      <trkpt lat="43.44893" lon="-0.36944">
        <ele>196.2</ele>
        <time>2026-08-31T09:22:45Z</time>
      </trkpt>
      <trkpt lat="43.44893" lon="-0.36943">
        <ele>196.2</ele>
        <time>2026-08-31T09:22:45Z</time>
      </trkpt>
      <trkpt lat="43.44893" lon="-0.36943">
        <ele>196.2</ele>
        <time>2026-08-31T09:22:46Z</time>
      </trkpt>
      <trkpt lat="43.44893" lon="-0.36942">
        <ele>196.2</ele>
        <time>2026-08-31T09:22:46Z</time>
      </trkpt>
      <trkpt lat="43.44894" lon="-0.36941">
        <ele>196.2</ele>
        <time>2026-08-31T09:22:47Z</time>
      </trkpt>
      <trkpt lat="43.44894" lon="-0.36941">
        <ele>196.2</ele>
        <time>2026-08-31T09:22:47Z</time>
      </trkpt>
      <trkpt lat="43.44894" lon="-0.3694">
        <ele>195.2</ele>
        <time>2026-08-31T09:22:48Z</time>
      </trkpt>
      <trkpt lat="43.44895" lon="-0.36939">
        <ele>195.2</ele>
        <time>2026-08-31T09:22:48Z</time>
      </trkpt>
      <trkpt lat="43.44895" lon="-0.36939">
        <ele>195.2</ele>
        <time>2026-08-31T09:22:49Z</time>
      </trkpt>
      <trkpt lat="43.44896" lon="-0.36938">
        <ele>195.2</ele>
        <time>2026-08-31T09:22:50Z</time>
      </trkpt>
      <trkpt lat="43.44896" lon="-0.36937">
        <ele>194.2</ele>
        <time>2026-08-31T09:22:50Z</time>
      </trkpt>
      <trkpt lat="43.44896" lon="-0.36937">
        <ele>194.2</ele>
        <time>2026-08-31T09:22:51Z</time>
      </trkpt>
      <trkpt lat="43.44896" lon="-0.36936">
        <ele>194.2</ele>
        <time>2026-08-31T09:22:51Z</time>
      </trkpt>
      <trkpt lat="43.44897" lon="-0.36936">
        <ele>194.2</ele>
        <time>2026-08-31T09:22:52Z</time>
      </trkpt>
      <trkpt lat="43.44897" lon="-0.36935">
        <ele>194.2</ele>
        <time>2026-08-31T09:22:52Z</time>
      </trkpt>
      <trkpt lat="43.44897" lon="-0.36935">
        <ele>193.2</ele>
        <time>2026-08-31T09:22:53Z</time>
      </trkpt>
      <trkpt lat="43.44897" lon="-0.36934">
        <ele>193.2</ele>
        <time>2026-08-31T09:22:53Z</time>
      </trkpt>
      <trkpt lat="43.44897" lon="-0.36933">
        <ele>193.2</ele>
        <time>2026-08-31T09:22:54Z</time>
      </trkpt>
      <trkpt lat="43.44898" lon="-0.36932">
        <ele>193.2</ele>
        <time>2026-08-31T09:22:54Z</time>
      </trkpt>
      <trkpt lat="43.44898" lon="-0.36932">
        <ele>192.2</ele>
        <time>2026-08-31T09:22:55Z</time>
      </trkpt>
      <trkpt lat="43.44898" lon="-0.36931">
        <ele>192.2</ele>
        <time>2026-08-31T09:22:55Z</time>
      </trkpt>
      <trkpt lat="43.44898" lon="-0.3693">
        <ele>191.2</ele>
        <time>2026-08-31T09:22:56Z</time>
      </trkpt>
      <trkpt lat="43.44899" lon="-0.3693">
        <ele>191.2</ele>
        <time>2026-08-31T09:22:56Z</time>
      </trkpt>
      <trkpt lat="43.44899" lon="-0.36929">
        <ele>191.2</ele>
        <time>2026-08-31T09:22:57Z</time>
      </trkpt>
      <trkpt lat="43.44899" lon="-0.36928">
        <ele>191.2</ele>
        <time>2026-08-31T09:22:58Z</time>
      </trkpt>
      <trkpt lat="43.449" lon="-0.36928">
        <ele>191.2</ele>
        <time>2026-08-31T09:22:58Z</time>
      </trkpt>
      <trkpt lat="43.449" lon="-0.36927">
        <ele>191.2</ele>
        <time>2026-08-31T09:22:59Z</time>
      </trkpt>
      <trkpt lat="43.449" lon="-0.36926">
        <ele>190.2</ele>
        <time>2026-08-31T09:22:59Z</time>
      </trkpt>
      <trkpt lat="43.44901" lon="-0.36925">
        <ele>190.2</ele>
        <time>2026-08-31T09:23:00Z</time>
      </trkpt>
      <trkpt lat="43.44901" lon="-0.36925">
        <ele>190.2</ele>
        <time>2026-08-31T09:23:00Z</time>
      </trkpt>
      <trkpt lat="43.44901" lon="-0.36924">
        <ele>190.2</ele>
        <time>2026-08-31T09:23:01Z</time>
      </trkpt>
      <trkpt lat="43.44901" lon="-0.36923">
        <ele>190.2</ele>
        <time>2026-08-31T09:23:01Z</time>
      </trkpt>
      <trkpt lat="43.44902" lon="-0.36922">
        <ele>189.2</ele>
        <time>2026-08-31T09:23:02Z</time>
      </trkpt>
      <trkpt lat="43.44902" lon="-0.36922">
        <ele>189.2</ele>
        <time>2026-08-31T09:23:02Z</time>
      </trkpt>
      <trkpt lat="43.44902" lon="-0.36921">
        <ele>189.2</ele>
        <time>2026-08-31T09:23:03Z</time>
      </trkpt>
      <trkpt lat="43.44903" lon="-0.3692">
        <ele>189.2</ele>
        <time>2026-08-31T09:23:03Z</time>
      </trkpt>
      <trkpt lat="43.44903" lon="-0.3692">
        <ele>189.2</ele>
        <time>2026-08-31T09:23:04Z</time>
      </trkpt>
      <trkpt lat="43.44903" lon="-0.36919">
        <ele>189.2</ele>
        <time>2026-08-31T09:23:05Z</time>
      </trkpt>
      <trkpt lat="43.44904" lon="-0.36918">
        <ele>189.2</ele>
        <time>2026-08-31T09:23:05Z</time>
      </trkpt>
      <trkpt lat="43.44904" lon="-0.36918">
        <ele>189.2</ele>
        <time>2026-08-31T09:23:06Z</time>
      </trkpt>
      <trkpt lat="43.44904" lon="-0.36917">
        <ele>189.2</ele>
        <time>2026-08-31T09:23:06Z</time>
      </trkpt>
      <trkpt lat="43.44905" lon="-0.36916">
        <ele>189.2</ele>
        <time>2026-08-31T09:23:07Z</time>
      </trkpt>
      <trkpt lat="43.44905" lon="-0.36916">
        <ele>189.2</ele>
        <time>2026-08-31T09:23:07Z</time>
      </trkpt>
      <trkpt lat="43.44906" lon="-0.36915">
        <ele>189.2</ele>
        <time>2026-08-31T09:23:08Z</time>
      </trkpt>
      <trkpt lat="43.44906" lon="-0.36915">
        <ele>189.2</ele>
        <time>2026-08-31T09:23:08Z</time>
      </trkpt>
      <trkpt lat="43.44907" lon="-0.36914">
        <ele>188.2</ele>
        <time>2026-08-31T09:23:09Z</time>
      </trkpt>
      <trkpt lat="43.44907" lon="-0.36914">
        <ele>188.2</ele>
        <time>2026-08-31T09:23:09Z</time>
      </trkpt>
      <trkpt lat="43.44908" lon="-0.36914">
        <ele>188.2</ele>
        <time>2026-08-31T09:23:10Z</time>
      </trkpt>
      <trkpt lat="43.44909" lon="-0.36913">
        <ele>188.2</ele>
        <time>2026-08-31T09:23:10Z</time>
      </trkpt>
      <trkpt lat="43.44909" lon="-0.36913">
        <ele>188.2</ele>
        <time>2026-08-31T09:23:11Z</time>
      </trkpt>
      <trkpt lat="43.4491" lon="-0.36912">
        <ele>188.2</ele>
        <time>2026-08-31T09:23:11Z</time>
      </trkpt>
      <trkpt lat="43.4491" lon="-0.36912">
        <ele>188.2</ele>
        <time>2026-08-31T09:23:12Z</time>
      </trkpt>
      <trkpt lat="43.44911" lon="-0.36911">
        <ele>188.2</ele>
        <time>2026-08-31T09:23:13Z</time>
      </trkpt>
      <trkpt lat="43.44912" lon="-0.36911">
        <ele>188.2</ele>
        <time>2026-08-31T09:23:13Z</time>
      </trkpt>
      <trkpt lat="43.44912" lon="-0.3691">
        <ele>188.2</ele>
        <time>2026-08-31T09:23:14Z</time>
      </trkpt>
      <trkpt lat="43.44913" lon="-0.3691">
        <ele>188.2</ele>
        <time>2026-08-31T09:23:14Z</time>
      </trkpt>
      <trkpt lat="43.44913" lon="-0.36909">
        <ele>188.2</ele>
        <time>2026-08-31T09:23:15Z</time>
      </trkpt>
      <trkpt lat="43.44914" lon="-0.36909">
        <ele>187.2</ele>
        <time>2026-08-31T09:23:15Z</time>
      </trkpt>
      <trkpt lat="43.44914" lon="-0.36908">
        <ele>188.2</ele>
        <time>2026-08-31T09:23:16Z</time>
      </trkpt>
      <trkpt lat="43.44915" lon="-0.36908">
        <ele>188.2</ele>
        <time>2026-08-31T09:23:16Z</time>
      </trkpt>
      <trkpt lat="43.44915" lon="-0.36908">
        <ele>187.2</ele>
        <time>2026-08-31T09:23:17Z</time>
      </trkpt>
      <trkpt lat="43.44916" lon="-0.36907">
        <ele>187.2</ele>
        <time>2026-08-31T09:23:17Z</time>
      </trkpt>
      <trkpt lat="43.44916" lon="-0.36907">
        <ele>187.2</ele>
        <time>2026-08-31T09:23:18Z</time>
      </trkpt>
      <trkpt lat="43.44917" lon="-0.36906">
        <ele>187.2</ele>
        <time>2026-08-31T09:23:18Z</time>
      </trkpt>
      <trkpt lat="43.44918" lon="-0.36906">
        <ele>188.2</ele>
        <time>2026-08-31T09:23:19Z</time>
      </trkpt>
      <trkpt lat="43.44918" lon="-0.36905">
        <ele>188.2</ele>
        <time>2026-08-31T09:23:20Z</time>
      </trkpt>
      <trkpt lat="43.44919" lon="-0.36905">
        <ele>188.2</ele>
        <time>2026-08-31T09:23:20Z</time>
      </trkpt>
      <trkpt lat="43.4492" lon="-0.36904">
        <ele>188.2</ele>
        <time>2026-08-31T09:23:21Z</time>
      </trkpt>
      <trkpt lat="43.4492" lon="-0.36904">
        <ele>188.2</ele>
        <time>2026-08-31T09:23:21Z</time>
      </trkpt>
      <trkpt lat="43.44921" lon="-0.36903">
        <ele>188.2</ele>
        <time>2026-08-31T09:23:22Z</time>
      </trkpt>
      <trkpt lat="43.44921" lon="-0.36903">
        <ele>187.2</ele>
        <time>2026-08-31T09:23:22Z</time>
      </trkpt>
      <trkpt lat="43.44922" lon="-0.36902">
        <ele>188.2</ele>
        <time>2026-08-31T09:23:23Z</time>
      </trkpt>
      <trkpt lat="43.44923" lon="-0.36901">
        <ele>187.2</ele>
        <time>2026-08-31T09:23:24Z</time>
      </trkpt>
      <trkpt lat="43.44923" lon="-0.369">
        <ele>187.2</ele>
        <time>2026-08-31T09:23:25Z</time>
      </trkpt>
      <trkpt lat="43.44924" lon="-0.36899">
        <ele>187.2</ele>
        <time>2026-08-31T09:23:26Z</time>
      </trkpt>
      <trkpt lat="43.44925" lon="-0.36899">
        <ele>187.2</ele>
        <time>2026-08-31T09:23:26Z</time>
      </trkpt>
      <trkpt lat="43.44925" lon="-0.36898">
        <ele>187.2</ele>
        <time>2026-08-31T09:23:27Z</time>
      </trkpt>
      <trkpt lat="43.44926" lon="-0.36897">
        <ele>187.2</ele>
        <time>2026-08-31T09:23:27Z</time>
      </trkpt>
      <trkpt lat="43.44926" lon="-0.36897">
        <ele>187.2</ele>
        <time>2026-08-31T09:23:28Z</time>
      </trkpt>
      <trkpt lat="43.44926" lon="-0.36896">
        <ele>187.2</ele>
        <time>2026-08-31T09:23:28Z</time>
      </trkpt>
      <trkpt lat="43.44927" lon="-0.36896">
        <ele>187.2</ele>
        <time>2026-08-31T09:23:29Z</time>
      </trkpt>
      <trkpt lat="43.44927" lon="-0.36895">
        <ele>187.2</ele>
        <time>2026-08-31T09:23:29Z</time>
      </trkpt>
      <trkpt lat="43.44927" lon="-0.36894">
        <ele>187.2</ele>
        <time>2026-08-31T09:23:30Z</time>
      </trkpt>
      <trkpt lat="43.44928" lon="-0.36894">
        <ele>187.2</ele>
        <time>2026-08-31T09:23:30Z</time>
      </trkpt>
      <trkpt lat="43.44928" lon="-0.36893">
        <ele>187.2</ele>
        <time>2026-08-31T09:23:31Z</time>
      </trkpt>
      <trkpt lat="43.44928" lon="-0.36892">
        <ele>187.2</ele>
        <time>2026-08-31T09:23:31Z</time>
      </trkpt>
      <trkpt lat="43.44929" lon="-0.36892">
        <ele>186.2</ele>
        <time>2026-08-31T09:23:32Z</time>
      </trkpt>
      <trkpt lat="43.44929" lon="-0.36891">
        <ele>186.2</ele>
        <time>2026-08-31T09:23:33Z</time>
      </trkpt>
      <trkpt lat="43.44929" lon="-0.3689">
        <ele>186.2</ele>
        <time>2026-08-31T09:23:33Z</time>
      </trkpt>
      <trkpt lat="43.4493" lon="-0.36889">
        <ele>186.2</ele>
        <time>2026-08-31T09:23:34Z</time>
      </trkpt>
      <trkpt lat="43.4493" lon="-0.36888">
        <ele>186.2</ele>
        <time>2026-08-31T09:23:34Z</time>
      </trkpt>
      <trkpt lat="43.44931" lon="-0.36888">
        <ele>186.2</ele>
        <time>2026-08-31T09:23:35Z</time>
      </trkpt>
      <trkpt lat="43.44931" lon="-0.36887">
        <ele>186.2</ele>
        <time>2026-08-31T09:23:35Z</time>
      </trkpt>
      <trkpt lat="43.44932" lon="-0.36885">
        <ele>186.2</ele>
        <time>2026-08-31T09:23:36Z</time>
      </trkpt>
      <trkpt lat="43.44932" lon="-0.36885">
        <ele>186.2</ele>
        <time>2026-08-31T09:23:37Z</time>
      </trkpt>
      <trkpt lat="43.44932" lon="-0.36884">
        <ele>186.2</ele>
        <time>2026-08-31T09:23:37Z</time>
      </trkpt>
      <trkpt lat="43.44932" lon="-0.36884">
        <ele>186.2</ele>
        <time>2026-08-31T09:23:38Z</time>
      </trkpt>
      <trkpt lat="43.44933" lon="-0.36883">
        <ele>186.2</ele>
        <time>2026-08-31T09:23:38Z</time>
      </trkpt>
      <trkpt lat="43.44933" lon="-0.36882">
        <ele>186.2</ele>
        <time>2026-08-31T09:23:39Z</time>
      </trkpt>
      <trkpt lat="43.44933" lon="-0.36881">
        <ele>186.2</ele>
        <time>2026-08-31T09:23:40Z</time>
      </trkpt>
      <trkpt lat="43.44934" lon="-0.36881">
        <ele>186.2</ele>
        <time>2026-08-31T09:23:40Z</time>
      </trkpt>
      <trkpt lat="43.44934" lon="-0.3688">
        <ele>186.2</ele>
        <time>2026-08-31T09:23:41Z</time>
      </trkpt>
      <trkpt lat="43.44934" lon="-0.3688">
        <ele>186.2</ele>
        <time>2026-08-31T09:23:41Z</time>
      </trkpt>
      <trkpt lat="43.44935" lon="-0.36879">
        <ele>186.2</ele>
        <time>2026-08-31T09:23:42Z</time>
      </trkpt>
      <trkpt lat="43.44935" lon="-0.36879">
        <ele>186.2</ele>
        <time>2026-08-31T09:23:42Z</time>
      </trkpt>
      <trkpt lat="43.44935" lon="-0.36878">
        <ele>186.2</ele>
        <time>2026-08-31T09:23:43Z</time>
      </trkpt>
      <trkpt lat="43.44935" lon="-0.36877">
        <ele>186.2</ele>
        <time>2026-08-31T09:23:43Z</time>
      </trkpt>
      <trkpt lat="43.44936" lon="-0.36876">
        <ele>185.2</ele>
        <time>2026-08-31T09:23:44Z</time>
      </trkpt>
      <trkpt lat="43.44936" lon="-0.36876">
        <ele>185.2</ele>
        <time>2026-08-31T09:23:44Z</time>
      </trkpt>
      <trkpt lat="43.44937" lon="-0.36875">
        <ele>185.2</ele>
        <time>2026-08-31T09:23:45Z</time>
      </trkpt>
      <trkpt lat="43.44937" lon="-0.36875">
        <ele>185.2</ele>
        <time>2026-08-31T09:23:45Z</time>
      </trkpt>
      <trkpt lat="43.44937" lon="-0.36874">
        <ele>185.2</ele>
        <time>2026-08-31T09:23:46Z</time>
      </trkpt>
      <trkpt lat="43.44938" lon="-0.36873">
        <ele>185.2</ele>
        <time>2026-08-31T09:23:47Z</time>
      </trkpt>
      <trkpt lat="43.44938" lon="-0.36872">
        <ele>185.2</ele>
        <time>2026-08-31T09:23:47Z</time>
      </trkpt>
      <trkpt lat="43.44938" lon="-0.36872">
        <ele>185.2</ele>
        <time>2026-08-31T09:23:48Z</time>
      </trkpt>
      <trkpt lat="43.44939" lon="-0.36871">
        <ele>184.2</ele>
        <time>2026-08-31T09:23:48Z</time>
      </trkpt>
      <trkpt lat="43.44939" lon="-0.3687">
        <ele>184.2</ele>
        <time>2026-08-31T09:23:49Z</time>
      </trkpt>
      <trkpt lat="43.4494" lon="-0.36869">
        <ele>184.2</ele>
        <time>2026-08-31T09:23:49Z</time>
      </trkpt>
      <trkpt lat="43.4494" lon="-0.36869">
        <ele>184.2</ele>
        <time>2026-08-31T09:23:50Z</time>
      </trkpt>
      <trkpt lat="43.4494" lon="-0.36868">
        <ele>184.2</ele>
        <time>2026-08-31T09:23:50Z</time>
      </trkpt>
      <trkpt lat="43.44941" lon="-0.36868">
        <ele>184.2</ele>
        <time>2026-08-31T09:23:51Z</time>
      </trkpt>
      <trkpt lat="43.44941" lon="-0.36867">
        <ele>184.2</ele>
        <time>2026-08-31T09:23:51Z</time>
      </trkpt>
      <trkpt lat="43.44942" lon="-0.36866">
        <ele>184.2</ele>
        <time>2026-08-31T09:23:52Z</time>
      </trkpt>
      <trkpt lat="43.44943" lon="-0.36865">
        <ele>184.2</ele>
        <time>2026-08-31T09:23:53Z</time>
      </trkpt>
      <trkpt lat="43.44943" lon="-0.36864">
        <ele>184.2</ele>
        <time>2026-08-31T09:23:53Z</time>
      </trkpt>
      <trkpt lat="43.44944" lon="-0.36863">
        <ele>184.2</ele>
        <time>2026-08-31T09:23:54Z</time>
      </trkpt>
      <trkpt lat="43.44944" lon="-0.36862">
        <ele>184.2</ele>
        <time>2026-08-31T09:23:55Z</time>
      </trkpt>
      <trkpt lat="43.44944" lon="-0.36862">
        <ele>183.2</ele>
        <time>2026-08-31T09:23:55Z</time>
      </trkpt>
      <trkpt lat="43.44945" lon="-0.36861">
        <ele>183.2</ele>
        <time>2026-08-31T09:23:56Z</time>
      </trkpt>
      <trkpt lat="43.44945" lon="-0.3686">
        <ele>183.2</ele>
        <time>2026-08-31T09:23:56Z</time>
      </trkpt>
      <trkpt lat="43.44946" lon="-0.3686">
        <ele>183.2</ele>
        <time>2026-08-31T09:23:57Z</time>
      </trkpt>
      <trkpt lat="43.44946" lon="-0.36859">
        <ele>183.2</ele>
        <time>2026-08-31T09:23:57Z</time>
      </trkpt>
      <trkpt lat="43.44947" lon="-0.36859">
        <ele>183.2</ele>
        <time>2026-08-31T09:23:58Z</time>
      </trkpt>
      <trkpt lat="43.44947" lon="-0.36858">
        <ele>183.2</ele>
        <time>2026-08-31T09:23:58Z</time>
      </trkpt>
      <trkpt lat="43.44948" lon="-0.36857">
        <ele>183.2</ele>
        <time>2026-08-31T09:23:59Z</time>
      </trkpt>
      <trkpt lat="43.44948" lon="-0.36857">
        <ele>183.2</ele>
        <time>2026-08-31T09:24:00Z</time>
      </trkpt>
      <trkpt lat="43.44949" lon="-0.36856">
        <ele>182.2</ele>
        <time>2026-08-31T09:24:00Z</time>
      </trkpt>
      <trkpt lat="43.44949" lon="-0.36855">
        <ele>182.2</ele>
        <time>2026-08-31T09:24:01Z</time>
      </trkpt>
      <trkpt lat="43.4495" lon="-0.36855">
        <ele>182.2</ele>
        <time>2026-08-31T09:24:01Z</time>
      </trkpt>
      <trkpt lat="43.4495" lon="-0.36854">
        <ele>182.2</ele>
        <time>2026-08-31T09:24:02Z</time>
      </trkpt>
      <trkpt lat="43.44951" lon="-0.36854">
        <ele>181.2</ele>
        <time>2026-08-31T09:24:02Z</time>
      </trkpt>
      <trkpt lat="43.44951" lon="-0.36853">
        <ele>181.2</ele>
        <time>2026-08-31T09:24:03Z</time>
      </trkpt>
      <trkpt lat="43.44952" lon="-0.36852">
        <ele>181.2</ele>
        <time>2026-08-31T09:24:03Z</time>
      </trkpt>
      <trkpt lat="43.44952" lon="-0.36852">
        <ele>181.2</ele>
        <time>2026-08-31T09:24:04Z</time>
      </trkpt>
      <trkpt lat="43.44953" lon="-0.36851">
        <ele>181.2</ele>
        <time>2026-08-31T09:24:04Z</time>
      </trkpt>
      <trkpt lat="43.44953" lon="-0.36851">
        <ele>181.2</ele>
        <time>2026-08-31T09:24:05Z</time>
      </trkpt>
      <trkpt lat="43.44954" lon="-0.3685">
        <ele>181.2</ele>
        <time>2026-08-31T09:24:05Z</time>
      </trkpt>
      <trkpt lat="43.44954" lon="-0.36849">
        <ele>181.2</ele>
        <time>2026-08-31T09:24:06Z</time>
      </trkpt>
      <trkpt lat="43.44954" lon="-0.36849">
        <ele>181.2</ele>
        <time>2026-08-31T09:24:07Z</time>
      </trkpt>
      <trkpt lat="43.44955" lon="-0.36848">
        <ele>181.2</ele>
        <time>2026-08-31T09:24:07Z</time>
      </trkpt>
      <trkpt lat="43.44955" lon="-0.36848">
        <ele>181.2</ele>
        <time>2026-08-31T09:24:08Z</time>
      </trkpt>
      <trkpt lat="43.44956" lon="-0.36847">
        <ele>180.2</ele>
        <time>2026-08-31T09:24:08Z</time>
      </trkpt>
      <trkpt lat="43.44956" lon="-0.36847">
        <ele>180.2</ele>
        <time>2026-08-31T09:24:09Z</time>
      </trkpt>
      <trkpt lat="43.44956" lon="-0.36846">
        <ele>180.2</ele>
        <time>2026-08-31T09:24:09Z</time>
      </trkpt>
      <trkpt lat="43.44957" lon="-0.36845">
        <ele>180.2</ele>
        <time>2026-08-31T09:24:10Z</time>
      </trkpt>
      <trkpt lat="43.44957" lon="-0.36844">
        <ele>180.2</ele>
        <time>2026-08-31T09:24:11Z</time>
      </trkpt>
      <trkpt lat="43.44958" lon="-0.36843">
        <ele>180.2</ele>
        <time>2026-08-31T09:24:11Z</time>
      </trkpt>
      <trkpt lat="43.44958" lon="-0.36842">
        <ele>180.2</ele>
        <time>2026-08-31T09:24:12Z</time>
      </trkpt>
      <trkpt lat="43.44958" lon="-0.36841">
        <ele>180.2</ele>
        <time>2026-08-31T09:24:12Z</time>
      </trkpt>
      <trkpt lat="43.44958" lon="-0.3684">
        <ele>180.2</ele>
        <time>2026-08-31T09:24:13Z</time>
      </trkpt>
      <trkpt lat="43.44958" lon="-0.36839">
        <ele>180.2</ele>
        <time>2026-08-31T09:24:13Z</time>
      </trkpt>
      <trkpt lat="43.44958" lon="-0.36839">
        <ele>180.2</ele>
        <time>2026-08-31T09:24:14Z</time>
      </trkpt>
      <trkpt lat="43.44959" lon="-0.36838">
        <ele>180.2</ele>
        <time>2026-08-31T09:24:15Z</time>
      </trkpt>
      <trkpt lat="43.44959" lon="-0.36837">
        <ele>179.2</ele>
        <time>2026-08-31T09:24:15Z</time>
      </trkpt>
      <trkpt lat="43.44959" lon="-0.36836">
        <ele>179.2</ele>
        <time>2026-08-31T09:24:16Z</time>
      </trkpt>
      <trkpt lat="43.44959" lon="-0.36836">
        <ele>178.2</ele>
        <time>2026-08-31T09:24:16Z</time>
      </trkpt>
      <trkpt lat="43.44959" lon="-0.36835">
        <ele>178.2</ele>
        <time>2026-08-31T09:24:17Z</time>
      </trkpt>
      <trkpt lat="43.4496" lon="-0.36834">
        <ele>178.2</ele>
        <time>2026-08-31T09:24:17Z</time>
      </trkpt>
      <trkpt lat="43.4496" lon="-0.36833">
        <ele>178.2</ele>
        <time>2026-08-31T09:24:18Z</time>
      </trkpt>
      <trkpt lat="43.4496" lon="-0.36832">
        <ele>178.2</ele>
        <time>2026-08-31T09:24:18Z</time>
      </trkpt>
      <trkpt lat="43.4496" lon="-0.3683">
        <ele>178.2</ele>
        <time>2026-08-31T09:24:19Z</time>
      </trkpt>
      <trkpt lat="43.4496" lon="-0.36829">
        <ele>178.2</ele>
        <time>2026-08-31T09:24:20Z</time>
      </trkpt>
      <trkpt lat="43.4496" lon="-0.36829">
        <ele>178.2</ele>
        <time>2026-08-31T09:24:20Z</time>
      </trkpt>
      <trkpt lat="43.4496" lon="-0.36828">
        <ele>178.2</ele>
        <time>2026-08-31T09:24:21Z</time>
      </trkpt>
      <trkpt lat="43.44961" lon="-0.36827">
        <ele>178.2</ele>
        <time>2026-08-31T09:24:22Z</time>
      </trkpt>
      <trkpt lat="43.44961" lon="-0.36826">
        <ele>178.2</ele>
        <time>2026-08-31T09:24:23Z</time>
      </trkpt>
      <trkpt lat="43.44961" lon="-0.36825">
        <ele>178.2</ele>
        <time>2026-08-31T09:24:23Z</time>
      </trkpt>
      <trkpt lat="43.44961" lon="-0.36825">
        <ele>177.2</ele>
        <time>2026-08-31T09:24:24Z</time>
      </trkpt>
      <trkpt lat="43.44961" lon="-0.36824">
        <ele>177.2</ele>
        <time>2026-08-31T09:24:24Z</time>
      </trkpt>
      <trkpt lat="43.44962" lon="-0.36823">
        <ele>177.2</ele>
        <time>2026-08-31T09:24:25Z</time>
      </trkpt>
      <trkpt lat="43.44962" lon="-0.36822">
        <ele>177.2</ele>
        <time>2026-08-31T09:24:26Z</time>
      </trkpt>
      <trkpt lat="43.44963" lon="-0.36821">
        <ele>177.2</ele>
        <time>2026-08-31T09:24:26Z</time>
      </trkpt>
      <trkpt lat="43.44963" lon="-0.3682">
        <ele>176.2</ele>
        <time>2026-08-31T09:24:27Z</time>
      </trkpt>
      <trkpt lat="43.44963" lon="-0.36819">
        <ele>176.2</ele>
        <time>2026-08-31T09:24:27Z</time>
      </trkpt>
      <trkpt lat="43.44963" lon="-0.36818">
        <ele>176.2</ele>
        <time>2026-08-31T09:24:28Z</time>
      </trkpt>
      <trkpt lat="43.44963" lon="-0.36817">
        <ele>176.2</ele>
        <time>2026-08-31T09:24:28Z</time>
      </trkpt>
      <trkpt lat="43.44964" lon="-0.36816">
        <ele>176.2</ele>
        <time>2026-08-31T09:24:29Z</time>
      </trkpt>
      <trkpt lat="43.44964" lon="-0.36816">
        <ele>176.2</ele>
        <time>2026-08-31T09:24:30Z</time>
      </trkpt>
      <trkpt lat="43.44964" lon="-0.36815">
        <ele>176.2</ele>
        <time>2026-08-31T09:24:30Z</time>
      </trkpt>
      <trkpt lat="43.44965" lon="-0.36814">
        <ele>176.2</ele>
        <time>2026-08-31T09:24:31Z</time>
      </trkpt>
      <trkpt lat="43.44965" lon="-0.36813">
        <ele>176.2</ele>
        <time>2026-08-31T09:24:31Z</time>
      </trkpt>
      <trkpt lat="43.44965" lon="-0.36813">
        <ele>176.2</ele>
        <time>2026-08-31T09:24:32Z</time>
      </trkpt>
      <trkpt lat="43.44965" lon="-0.36812">
        <ele>176.2</ele>
        <time>2026-08-31T09:24:32Z</time>
      </trkpt>
      <trkpt lat="43.44966" lon="-0.36812">
        <ele>176.2</ele>
        <time>2026-08-31T09:24:33Z</time>
      </trkpt>
      <trkpt lat="43.44966" lon="-0.36811">
        <ele>176.2</ele>
        <time>2026-08-31T09:24:33Z</time>
      </trkpt>
      <trkpt lat="43.44966" lon="-0.3681">
        <ele>176.2</ele>
        <time>2026-08-31T09:24:34Z</time>
      </trkpt>
      <trkpt lat="43.44966" lon="-0.36809">
        <ele>176.2</ele>
        <time>2026-08-31T09:24:34Z</time>
      </trkpt>
      <trkpt lat="43.44966" lon="-0.36809">
        <ele>175.2</ele>
        <time>2026-08-31T09:24:35Z</time>
      </trkpt>
      <trkpt lat="43.44966" lon="-0.36808">
        <ele>175.2</ele>
        <time>2026-08-31T09:24:35Z</time>
      </trkpt>
      <trkpt lat="43.44966" lon="-0.36807">
        <ele>175.2</ele>
        <time>2026-08-31T09:24:36Z</time>
      </trkpt>
      <trkpt lat="43.44965" lon="-0.36806">
        <ele>175.2</ele>
        <time>2026-08-31T09:24:37Z</time>
      </trkpt>
      <trkpt lat="43.44965" lon="-0.36805">
        <ele>175.2</ele>
        <time>2026-08-31T09:24:38Z</time>
      </trkpt>
      <trkpt lat="43.44965" lon="-0.36804">
        <ele>175.2</ele>
        <time>2026-08-31T09:24:38Z</time>
      </trkpt>
      <trkpt lat="43.44965" lon="-0.36803">
        <ele>175.2</ele>
        <time>2026-08-31T09:24:39Z</time>
      </trkpt>
      <trkpt lat="43.44965" lon="-0.36803">
        <ele>175.2</ele>
        <time>2026-08-31T09:24:39Z</time>
      </trkpt>
      <trkpt lat="43.44965" lon="-0.36803">
        <ele>175.2</ele>
        <time>2026-08-31T09:24:40Z</time>
      </trkpt>
      <trkpt lat="43.44965" lon="-0.36802">
        <ele>175.2</ele>
        <time>2026-08-31T09:24:40Z</time>
      </trkpt>
      <trkpt lat="43.44966" lon="-0.36801">
        <ele>175.2</ele>
        <time>2026-08-31T09:24:41Z</time>
      </trkpt>
      <trkpt lat="43.44966" lon="-0.36801">
        <ele>175.2</ele>
        <time>2026-08-31T09:24:41Z</time>
      </trkpt>
      <trkpt lat="43.44966" lon="-0.368">
        <ele>175.2</ele>
        <time>2026-08-31T09:24:42Z</time>
      </trkpt>
      <trkpt lat="43.44966" lon="-0.36799">
        <ele>175.2</ele>
        <time>2026-08-31T09:24:42Z</time>
      </trkpt>
      <trkpt lat="43.44966" lon="-0.36799">
        <ele>175.2</ele>
        <time>2026-08-31T09:24:43Z</time>
      </trkpt>
      <trkpt lat="43.44966" lon="-0.36798">
        <ele>175.2</ele>
        <time>2026-08-31T09:24:43Z</time>
      </trkpt>
      <trkpt lat="43.44966" lon="-0.36797">
        <ele>174.2</ele>
        <time>2026-08-31T09:24:44Z</time>
      </trkpt>
      <trkpt lat="43.44967" lon="-0.36796">
        <ele>174.2</ele>
        <time>2026-08-31T09:24:45Z</time>
      </trkpt>
      <trkpt lat="43.44967" lon="-0.36795">
        <ele>173.2</ele>
        <time>2026-08-31T09:24:45Z</time>
      </trkpt>
      <trkpt lat="43.44967" lon="-0.36794">
        <ele>173.2</ele>
        <time>2026-08-31T09:24:46Z</time>
      </trkpt>
      <trkpt lat="43.44968" lon="-0.36794">
        <ele>173.2</ele>
        <time>2026-08-31T09:24:46Z</time>
      </trkpt>
      <trkpt lat="43.44968" lon="-0.36793">
        <ele>173.2</ele>
        <time>2026-08-31T09:24:47Z</time>
      </trkpt>
      <trkpt lat="43.44968" lon="-0.36792">
        <ele>173.2</ele>
        <time>2026-08-31T09:24:47Z</time>
      </trkpt>
      <trkpt lat="43.44968" lon="-0.36792">
        <ele>173.2</ele>
        <time>2026-08-31T09:24:48Z</time>
      </trkpt>
      <trkpt lat="43.44968" lon="-0.36791">
        <ele>174.2</ele>
        <time>2026-08-31T09:24:48Z</time>
      </trkpt>
      <trkpt lat="43.44969" lon="-0.3679">
        <ele>174.2</ele>
        <time>2026-08-31T09:24:49Z</time>
      </trkpt>
      <trkpt lat="43.44969" lon="-0.36789">
        <ele>174.2</ele>
        <time>2026-08-31T09:24:49Z</time>
      </trkpt>
      <trkpt lat="43.44969" lon="-0.36789">
        <ele>174.2</ele>
        <time>2026-08-31T09:24:50Z</time>
      </trkpt>
      <trkpt lat="43.44969" lon="-0.36787">
        <ele>174.2</ele>
        <time>2026-08-31T09:24:50Z</time>
      </trkpt>
      <trkpt lat="43.4497" lon="-0.36787">
        <ele>174.2</ele>
        <time>2026-08-31T09:24:51Z</time>
      </trkpt>
      <trkpt lat="43.4497" lon="-0.36786">
        <ele>174.2</ele>
        <time>2026-08-31T09:24:52Z</time>
      </trkpt>
      <trkpt lat="43.44971" lon="-0.36785">
        <ele>174.2</ele>
        <time>2026-08-31T09:24:53Z</time>
      </trkpt>
      <trkpt lat="43.44971" lon="-0.36784">
        <ele>174.2</ele>
        <time>2026-08-31T09:24:53Z</time>
      </trkpt>
      <trkpt lat="43.44972" lon="-0.36783">
        <ele>174.2</ele>
        <time>2026-08-31T09:24:54Z</time>
      </trkpt>
      <trkpt lat="43.44973" lon="-0.36783">
        <ele>174.2</ele>
        <time>2026-08-31T09:24:54Z</time>
      </trkpt>
      <trkpt lat="43.44973" lon="-0.36783">
        <ele>174.2</ele>
        <time>2026-08-31T09:24:55Z</time>
      </trkpt>
      <trkpt lat="43.44974" lon="-0.36782">
        <ele>174.2</ele>
        <time>2026-08-31T09:24:55Z</time>
      </trkpt>
      <trkpt lat="43.44974" lon="-0.36782">
        <ele>174.2</ele>
        <time>2026-08-31T09:24:56Z</time>
      </trkpt>
      <trkpt lat="43.44975" lon="-0.36781">
        <ele>174.2</ele>
        <time>2026-08-31T09:24:56Z</time>
      </trkpt>
      <trkpt lat="43.44975" lon="-0.3678">
        <ele>173.2</ele>
        <time>2026-08-31T09:24:57Z</time>
      </trkpt>
      <trkpt lat="43.44975" lon="-0.3678">
        <ele>173.2</ele>
        <time>2026-08-31T09:24:57Z</time>
      </trkpt>
      <trkpt lat="43.44976" lon="-0.36779">
        <ele>173.2</ele>
        <time>2026-08-31T09:24:58Z</time>
      </trkpt>
      <trkpt lat="43.44976" lon="-0.36778">
        <ele>173.2</ele>
        <time>2026-08-31T09:24:58Z</time>
      </trkpt>
      <trkpt lat="43.44977" lon="-0.36778">
        <ele>173.2</ele>
        <time>2026-08-31T09:24:59Z</time>
      </trkpt>
      <trkpt lat="43.44977" lon="-0.36777">
        <ele>173.2</ele>
        <time>2026-08-31T09:25:00Z</time>
      </trkpt>
      <trkpt lat="43.44978" lon="-0.36777">
        <ele>172.2</ele>
        <time>2026-08-31T09:25:00Z</time>
      </trkpt>
      <trkpt lat="43.44978" lon="-0.36776">
        <ele>172.2</ele>
        <time>2026-08-31T09:25:01Z</time>
      </trkpt>
      <trkpt lat="43.44978" lon="-0.36775">
        <ele>172.2</ele>
        <time>2026-08-31T09:25:01Z</time>
      </trkpt>
      <trkpt lat="43.44979" lon="-0.36774">
        <ele>172.2</ele>
        <time>2026-08-31T09:25:02Z</time>
      </trkpt>
      <trkpt lat="43.44979" lon="-0.36774">
        <ele>172.2</ele>
        <time>2026-08-31T09:25:02Z</time>
      </trkpt>
      <trkpt lat="43.4498" lon="-0.36773">
        <ele>172.2</ele>
        <time>2026-08-31T09:25:03Z</time>
      </trkpt>
      <trkpt lat="43.4498" lon="-0.36772">
        <ele>172.2</ele>
        <time>2026-08-31T09:25:03Z</time>
      </trkpt>
      <trkpt lat="43.4498" lon="-0.36771">
        <ele>172.2</ele>
        <time>2026-08-31T09:25:04Z</time>
      </trkpt>
      <trkpt lat="43.44981" lon="-0.36771">
        <ele>172.2</ele>
        <time>2026-08-31T09:25:04Z</time>
      </trkpt>
      <trkpt lat="43.44982" lon="-0.3677">
        <ele>172.2</ele>
        <time>2026-08-31T09:25:05Z</time>
      </trkpt>
      <trkpt lat="43.44982" lon="-0.3677">
        <ele>172.2</ele>
        <time>2026-08-31T09:25:05Z</time>
      </trkpt>
      <trkpt lat="43.44983" lon="-0.36769">
        <ele>172.2</ele>
        <time>2026-08-31T09:25:06Z</time>
      </trkpt>
      <trkpt lat="43.44983" lon="-0.36768">
        <ele>172.2</ele>
        <time>2026-08-31T09:25:06Z</time>
      </trkpt>
      <trkpt lat="43.44984" lon="-0.36768">
        <ele>172.2</ele>
        <time>2026-08-31T09:25:07Z</time>
      </trkpt>
      <trkpt lat="43.44984" lon="-0.36767">
        <ele>172.2</ele>
        <time>2026-08-31T09:25:07Z</time>
      </trkpt>
      <trkpt lat="43.44985" lon="-0.36767">
        <ele>172.2</ele>
        <time>2026-08-31T09:25:08Z</time>
      </trkpt>
      <trkpt lat="43.44985" lon="-0.36766">
        <ele>172.2</ele>
        <time>2026-08-31T09:25:09Z</time>
      </trkpt>
      <trkpt lat="43.44986" lon="-0.36766">
        <ele>171.2</ele>
        <time>2026-08-31T09:25:09Z</time>
      </trkpt>
      <trkpt lat="43.44986" lon="-0.36765">
        <ele>171.2</ele>
        <time>2026-08-31T09:25:10Z</time>
      </trkpt>
      <trkpt lat="43.44987" lon="-0.36764">
        <ele>171.2</ele>
        <time>2026-08-31T09:25:10Z</time>
      </trkpt>
      <trkpt lat="43.44987" lon="-0.36763">
        <ele>171.2</ele>
        <time>2026-08-31T09:25:11Z</time>
      </trkpt>
      <trkpt lat="43.44987" lon="-0.36762">
        <ele>171.2</ele>
        <time>2026-08-31T09:25:11Z</time>
      </trkpt>
      <trkpt lat="43.44988" lon="-0.36762">
        <ele>171.2</ele>
        <time>2026-08-31T09:25:12Z</time>
      </trkpt>
      <trkpt lat="43.44988" lon="-0.36761">
        <ele>171.2</ele>
        <time>2026-08-31T09:25:12Z</time>
      </trkpt>
      <trkpt lat="43.44988" lon="-0.3676">
        <ele>171.2</ele>
        <time>2026-08-31T09:25:13Z</time>
      </trkpt>
      <trkpt lat="43.44988" lon="-0.36759">
        <ele>171.2</ele>
        <time>2026-08-31T09:25:13Z</time>
      </trkpt>
      <trkpt lat="43.44988" lon="-0.36759">
        <ele>171.2</ele>
        <time>2026-08-31T09:25:14Z</time>
      </trkpt>
      <trkpt lat="43.44989" lon="-0.36758">
        <ele>171.2</ele>
        <time>2026-08-31T09:25:14Z</time>
      </trkpt>
      <trkpt lat="43.44989" lon="-0.36757">
        <ele>170.2</ele>
        <time>2026-08-31T09:25:15Z</time>
      </trkpt>
      <trkpt lat="43.44989" lon="-0.36756">
        <ele>170.2</ele>
        <time>2026-08-31T09:25:16Z</time>
      </trkpt>
      <trkpt lat="43.44989" lon="-0.36755">
        <ele>170.2</ele>
        <time>2026-08-31T09:25:16Z</time>
      </trkpt>
      <trkpt lat="43.44989" lon="-0.36754">
        <ele>170.2</ele>
        <time>2026-08-31T09:25:17Z</time>
      </trkpt>
      <trkpt lat="43.4499" lon="-0.36753">
        <ele>171.2</ele>
        <time>2026-08-31T09:25:17Z</time>
      </trkpt>
      <trkpt lat="43.4499" lon="-0.36752">
        <ele>171.2</ele>
        <time>2026-08-31T09:25:18Z</time>
      </trkpt>
      <trkpt lat="43.4499" lon="-0.36751">
        <ele>170.2</ele>
        <time>2026-08-31T09:25:18Z</time>
      </trkpt>
      <trkpt lat="43.4499" lon="-0.3675">
        <ele>170.2</ele>
        <time>2026-08-31T09:25:19Z</time>
      </trkpt>
      <trkpt lat="43.4499" lon="-0.36749">
        <ele>170.2</ele>
        <time>2026-08-31T09:25:19Z</time>
      </trkpt>
      <trkpt lat="43.4499" lon="-0.36749">
        <ele>169.2</ele>
        <time>2026-08-31T09:25:20Z</time>
      </trkpt>
      <trkpt lat="43.4499" lon="-0.36748">
        <ele>169.2</ele>
        <time>2026-08-31T09:25:20Z</time>
      </trkpt>
      <trkpt lat="43.4499" lon="-0.36747">
        <ele>169.2</ele>
        <time>2026-08-31T09:25:21Z</time>
      </trkpt>
      <trkpt lat="43.44991" lon="-0.36746">
        <ele>169.2</ele>
        <time>2026-08-31T09:25:21Z</time>
      </trkpt>
      <trkpt lat="43.44991" lon="-0.36745">
        <ele>169.2</ele>
        <time>2026-08-31T09:25:22Z</time>
      </trkpt>
      <trkpt lat="43.44991" lon="-0.36743">
        <ele>168.2</ele>
        <time>2026-08-31T09:25:23Z</time>
      </trkpt>
      <trkpt lat="43.44992" lon="-0.36742">
        <ele>168.2</ele>
        <time>2026-08-31T09:25:24Z</time>
      </trkpt>
      <trkpt lat="43.44991" lon="-0.36741">
        <ele>168.2</ele>
        <time>2026-08-31T09:25:24Z</time>
      </trkpt>
      <trkpt lat="43.44992" lon="-0.3674">
        <ele>168.2</ele>
        <time>2026-08-31T09:25:25Z</time>
      </trkpt>
      <trkpt lat="43.44992" lon="-0.36739">
        <ele>168.2</ele>
        <time>2026-08-31T09:25:25Z</time>
      </trkpt>
      <trkpt lat="43.44992" lon="-0.36738">
        <ele>168.2</ele>
        <time>2026-08-31T09:25:26Z</time>
      </trkpt>
      <trkpt lat="43.44992" lon="-0.36737">
        <ele>168.2</ele>
        <time>2026-08-31T09:25:26Z</time>
      </trkpt>
      <trkpt lat="43.44992" lon="-0.36736">
        <ele>168.2</ele>
        <time>2026-08-31T09:25:27Z</time>
      </trkpt>
      <trkpt lat="43.44992" lon="-0.36735">
        <ele>168.2</ele>
        <time>2026-08-31T09:25:27Z</time>
      </trkpt>
      <trkpt lat="43.44992" lon="-0.36734">
        <ele>168.2</ele>
        <time>2026-08-31T09:25:28Z</time>
      </trkpt>
      <trkpt lat="43.44992" lon="-0.36733">
        <ele>168.2</ele>
        <time>2026-08-31T09:25:28Z</time>
      </trkpt>
      <trkpt lat="43.44991" lon="-0.36731">
        <ele>167.2</ele>
        <time>2026-08-31T09:25:29Z</time>
      </trkpt>
      <trkpt lat="43.44991" lon="-0.3673">
        <ele>167.2</ele>
        <time>2026-08-31T09:25:29Z</time>
      </trkpt>
      <trkpt lat="43.44991" lon="-0.36729">
        <ele>167.2</ele>
        <time>2026-08-31T09:25:30Z</time>
      </trkpt>
      <trkpt lat="43.44992" lon="-0.36728">
        <ele>167.2</ele>
        <time>2026-08-31T09:25:30Z</time>
      </trkpt>
      <trkpt lat="43.44992" lon="-0.36727">
        <ele>167.2</ele>
        <time>2026-08-31T09:25:31Z</time>
      </trkpt>
      <trkpt lat="43.44992" lon="-0.36726">
        <ele>167.2</ele>
        <time>2026-08-31T09:25:32Z</time>
      </trkpt>
      <trkpt lat="43.44992" lon="-0.36725">
        <ele>167.2</ele>
        <time>2026-08-31T09:25:32Z</time>
      </trkpt>
      <trkpt lat="43.44992" lon="-0.36724">
        <ele>167.2</ele>
        <time>2026-08-31T09:25:33Z</time>
      </trkpt>
      <trkpt lat="43.44992" lon="-0.36723">
        <ele>167.2</ele>
        <time>2026-08-31T09:25:33Z</time>
      </trkpt>
      <trkpt lat="43.44992" lon="-0.36722">
        <ele>167.2</ele>
        <time>2026-08-31T09:25:34Z</time>
      </trkpt>
      <trkpt lat="43.44992" lon="-0.36721">
        <ele>167.2</ele>
        <time>2026-08-31T09:25:34Z</time>
      </trkpt>
      <trkpt lat="43.44993" lon="-0.3672">
        <ele>167.2</ele>
        <time>2026-08-31T09:25:35Z</time>
      </trkpt>
      <trkpt lat="43.44993" lon="-0.36719">
        <ele>167.2</ele>
        <time>2026-08-31T09:25:36Z</time>
      </trkpt>
      <trkpt lat="43.44993" lon="-0.36717">
        <ele>167.2</ele>
        <time>2026-08-31T09:25:36Z</time>
      </trkpt>
      <trkpt lat="43.44993" lon="-0.36716">
        <ele>167.2</ele>
        <time>2026-08-31T09:25:37Z</time>
      </trkpt>
      <trkpt lat="43.44993" lon="-0.36715">
        <ele>167.2</ele>
        <time>2026-08-31T09:25:37Z</time>
      </trkpt>
      <trkpt lat="43.44994" lon="-0.36714">
        <ele>166.2</ele>
        <time>2026-08-31T09:25:38Z</time>
      </trkpt>
      <trkpt lat="43.44994" lon="-0.36712">
        <ele>166.2</ele>
        <time>2026-08-31T09:25:39Z</time>
      </trkpt>
      <trkpt lat="43.44994" lon="-0.36711">
        <ele>165.2</ele>
        <time>2026-08-31T09:25:39Z</time>
      </trkpt>
      <trkpt lat="43.44994" lon="-0.3671">
        <ele>165.2</ele>
        <time>2026-08-31T09:25:40Z</time>
      </trkpt>
      <trkpt lat="43.44994" lon="-0.36709">
        <ele>166.2</ele>
        <time>2026-08-31T09:25:40Z</time>
      </trkpt>
      <trkpt lat="43.44994" lon="-0.36708">
        <ele>166.2</ele>
        <time>2026-08-31T09:25:41Z</time>
      </trkpt>
      <trkpt lat="43.44994" lon="-0.36707">
        <ele>165.2</ele>
        <time>2026-08-31T09:25:41Z</time>
      </trkpt>
      <trkpt lat="43.44995" lon="-0.36706">
        <ele>165.2</ele>
        <time>2026-08-31T09:25:42Z</time>
      </trkpt>
      <trkpt lat="43.44995" lon="-0.36705">
        <ele>165.2</ele>
        <time>2026-08-31T09:25:42Z</time>
      </trkpt>
      <trkpt lat="43.44995" lon="-0.36704">
        <ele>165.2</ele>
        <time>2026-08-31T09:25:43Z</time>
      </trkpt>
      <trkpt lat="43.44996" lon="-0.36703">
        <ele>165.2</ele>
        <time>2026-08-31T09:25:43Z</time>
      </trkpt>
      <trkpt lat="43.44996" lon="-0.36702">
        <ele>165.2</ele>
        <time>2026-08-31T09:25:44Z</time>
      </trkpt>
      <trkpt lat="43.44996" lon="-0.36701">
        <ele>165.2</ele>
        <time>2026-08-31T09:25:44Z</time>
      </trkpt>
      <trkpt lat="43.44996" lon="-0.367">
        <ele>165.2</ele>
        <time>2026-08-31T09:25:45Z</time>
      </trkpt>
      <trkpt lat="43.44997" lon="-0.36699">
        <ele>165.2</ele>
        <time>2026-08-31T09:25:45Z</time>
      </trkpt>
      <trkpt lat="43.44997" lon="-0.36698">
        <ele>165.2</ele>
        <time>2026-08-31T09:25:46Z</time>
      </trkpt>
      <trkpt lat="43.44997" lon="-0.36697">
        <ele>165.2</ele>
        <time>2026-08-31T09:25:46Z</time>
      </trkpt>
      <trkpt lat="43.44997" lon="-0.36696">
        <ele>165.2</ele>
        <time>2026-08-31T09:25:47Z</time>
      </trkpt>
      <trkpt lat="43.44997" lon="-0.36695">
        <ele>165.2</ele>
        <time>2026-08-31T09:25:48Z</time>
      </trkpt>
      <trkpt lat="43.44998" lon="-0.36694">
        <ele>165.2</ele>
        <time>2026-08-31T09:25:48Z</time>
      </trkpt>
      <trkpt lat="43.44998" lon="-0.36694">
        <ele>165.2</ele>
        <time>2026-08-31T09:25:49Z</time>
      </trkpt>
      <trkpt lat="43.44998" lon="-0.36693">
        <ele>165.2</ele>
        <time>2026-08-31T09:25:49Z</time>
      </trkpt>
      <trkpt lat="43.44998" lon="-0.36692">
        <ele>165.2</ele>
        <time>2026-08-31T09:25:50Z</time>
      </trkpt>
      <trkpt lat="43.44998" lon="-0.36691">
        <ele>164.2</ele>
        <time>2026-08-31T09:25:50Z</time>
      </trkpt>
      <trkpt lat="43.44999" lon="-0.3669">
        <ele>164.2</ele>
        <time>2026-08-31T09:25:51Z</time>
      </trkpt>
      <trkpt lat="43.44999" lon="-0.36689">
        <ele>164.2</ele>
        <time>2026-08-31T09:25:51Z</time>
      </trkpt>
      <trkpt lat="43.44999" lon="-0.36688">
        <ele>164.2</ele>
        <time>2026-08-31T09:25:52Z</time>
      </trkpt>
      <trkpt lat="43.45" lon="-0.36687">
        <ele>164.2</ele>
        <time>2026-08-31T09:25:52Z</time>
      </trkpt>
      <trkpt lat="43.45" lon="-0.36686">
        <ele>165.2</ele>
        <time>2026-08-31T09:25:53Z</time>
      </trkpt>
      <trkpt lat="43.45001" lon="-0.36686">
        <ele>165.2</ele>
        <time>2026-08-31T09:25:53Z</time>
      </trkpt>
      <trkpt lat="43.45001" lon="-0.36685">
        <ele>165.2</ele>
        <time>2026-08-31T09:25:54Z</time>
      </trkpt>
      <trkpt lat="43.45002" lon="-0.36684">
        <ele>165.2</ele>
        <time>2026-08-31T09:25:55Z</time>
      </trkpt>
      <trkpt lat="43.45002" lon="-0.36683">
        <ele>165.2</ele>
        <time>2026-08-31T09:25:55Z</time>
      </trkpt>
      <trkpt lat="43.45002" lon="-0.36682">
        <ele>165.2</ele>
        <time>2026-08-31T09:25:56Z</time>
      </trkpt>
      <trkpt lat="43.45003" lon="-0.36681">
        <ele>165.2</ele>
        <time>2026-08-31T09:25:56Z</time>
      </trkpt>
      <trkpt lat="43.45003" lon="-0.3668">
        <ele>165.2</ele>
        <time>2026-08-31T09:25:57Z</time>
      </trkpt>
      <trkpt lat="43.45003" lon="-0.36679">
        <ele>165.2</ele>
        <time>2026-08-31T09:25:57Z</time>
      </trkpt>
      <trkpt lat="43.45003" lon="-0.36678">
        <ele>165.2</ele>
        <time>2026-08-31T09:25:58Z</time>
      </trkpt>
      <trkpt lat="43.45003" lon="-0.36677">
        <ele>165.2</ele>
        <time>2026-08-31T09:25:58Z</time>
      </trkpt>
      <trkpt lat="43.45004" lon="-0.36676">
        <ele>165.2</ele>
        <time>2026-08-31T09:25:59Z</time>
      </trkpt>
      <trkpt lat="43.45004" lon="-0.36675">
        <ele>165.2</ele>
        <time>2026-08-31T09:25:59Z</time>
      </trkpt>
      <trkpt lat="43.45004" lon="-0.36674">
        <ele>165.2</ele>
        <time>2026-08-31T09:26:00Z</time>
      </trkpt>
      <trkpt lat="43.45004" lon="-0.36673">
        <ele>165.2</ele>
        <time>2026-08-31T09:26:00Z</time>
      </trkpt>
      <trkpt lat="43.45004" lon="-0.36672">
        <ele>166.2</ele>
        <time>2026-08-31T09:26:01Z</time>
      </trkpt>
      <trkpt lat="43.45005" lon="-0.36671">
        <ele>166.2</ele>
        <time>2026-08-31T09:26:01Z</time>
      </trkpt>
      <trkpt lat="43.45005" lon="-0.3667">
        <ele>166.2</ele>
        <time>2026-08-31T09:26:02Z</time>
      </trkpt>
      <trkpt lat="43.45005" lon="-0.36669">
        <ele>166.2</ele>
        <time>2026-08-31T09:26:03Z</time>
      </trkpt>
      <trkpt lat="43.45005" lon="-0.36668">
        <ele>167.2</ele>
        <time>2026-08-31T09:26:03Z</time>
      </trkpt>
      <trkpt lat="43.45005" lon="-0.36667">
        <ele>167.2</ele>
        <time>2026-08-31T09:26:04Z</time>
      </trkpt>
      <trkpt lat="43.45006" lon="-0.36666">
        <ele>167.2</ele>
        <time>2026-08-31T09:26:04Z</time>
      </trkpt>
      <trkpt lat="43.45006" lon="-0.36665">
        <ele>166.2</ele>
        <time>2026-08-31T09:26:05Z</time>
      </trkpt>
      <trkpt lat="43.45006" lon="-0.36664">
        <ele>166.2</ele>
        <time>2026-08-31T09:26:05Z</time>
      </trkpt>
      <trkpt lat="43.45007" lon="-0.36663">
        <ele>166.2</ele>
        <time>2026-08-31T09:26:06Z</time>
      </trkpt>
      <trkpt lat="43.45007" lon="-0.36662">
        <ele>166.2</ele>
        <time>2026-08-31T09:26:06Z</time>
      </trkpt>
      <trkpt lat="43.45007" lon="-0.36661">
        <ele>166.2</ele>
        <time>2026-08-31T09:26:07Z</time>
      </trkpt>
      <trkpt lat="43.45008" lon="-0.3666">
        <ele>166.2</ele>
        <time>2026-08-31T09:26:07Z</time>
      </trkpt>
      <trkpt lat="43.45008" lon="-0.3666">
        <ele>166.2</ele>
        <time>2026-08-31T09:26:08Z</time>
      </trkpt>
      <trkpt lat="43.45008" lon="-0.36659">
        <ele>166.2</ele>
        <time>2026-08-31T09:26:08Z</time>
      </trkpt>
      <trkpt lat="43.45009" lon="-0.36658">
        <ele>166.2</ele>
        <time>2026-08-31T09:26:09Z</time>
      </trkpt>
      <trkpt lat="43.45009" lon="-0.36657">
        <ele>166.2</ele>
        <time>2026-08-31T09:26:10Z</time>
      </trkpt>
      <trkpt lat="43.45009" lon="-0.36656">
        <ele>167.2</ele>
        <time>2026-08-31T09:26:10Z</time>
      </trkpt>
      <trkpt lat="43.45009" lon="-0.36655">
        <ele>167.2</ele>
        <time>2026-08-31T09:26:11Z</time>
      </trkpt>
      <trkpt lat="43.4501" lon="-0.36654">
        <ele>167.2</ele>
        <time>2026-08-31T09:26:11Z</time>
      </trkpt>
      <trkpt lat="43.4501" lon="-0.36653">
        <ele>167.2</ele>
        <time>2026-08-31T09:26:12Z</time>
      </trkpt>
      <trkpt lat="43.4501" lon="-0.36652">
        <ele>167.2</ele>
        <time>2026-08-31T09:26:12Z</time>
      </trkpt>
      <trkpt lat="43.45011" lon="-0.36651">
        <ele>168.2</ele>
        <time>2026-08-31T09:26:13Z</time>
      </trkpt>
      <trkpt lat="43.45011" lon="-0.3665">
        <ele>168.2</ele>
        <time>2026-08-31T09:26:13Z</time>
      </trkpt>
      <trkpt lat="43.45012" lon="-0.36649">
        <ele>168.2</ele>
        <time>2026-08-31T09:26:14Z</time>
      </trkpt>
      <trkpt lat="43.45012" lon="-0.36648">
        <ele>168.2</ele>
        <time>2026-08-31T09:26:14Z</time>
      </trkpt>
      <trkpt lat="43.45012" lon="-0.36648">
        <ele>168.2</ele>
        <time>2026-08-31T09:26:15Z</time>
      </trkpt>
      <trkpt lat="43.45013" lon="-0.36647">
        <ele>168.2</ele>
        <time>2026-08-31T09:26:15Z</time>
      </trkpt>
      <trkpt lat="43.45013" lon="-0.36646">
        <ele>169.2</ele>
        <time>2026-08-31T09:26:16Z</time>
      </trkpt>
      <trkpt lat="43.45013" lon="-0.36645">
        <ele>169.2</ele>
        <time>2026-08-31T09:26:17Z</time>
      </trkpt>
      <trkpt lat="43.45014" lon="-0.36644">
        <ele>169.2</ele>
        <time>2026-08-31T09:26:17Z</time>
      </trkpt>
      <trkpt lat="43.45014" lon="-0.36643">
        <ele>169.2</ele>
        <time>2026-08-31T09:26:18Z</time>
      </trkpt>
      <trkpt lat="43.45014" lon="-0.36643">
        <ele>169.2</ele>
        <time>2026-08-31T09:26:18Z</time>
      </trkpt>
      <trkpt lat="43.45015" lon="-0.36642">
        <ele>169.2</ele>
        <time>2026-08-31T09:26:19Z</time>
      </trkpt>
      <trkpt lat="43.45015" lon="-0.36641">
        <ele>169.2</ele>
        <time>2026-08-31T09:26:19Z</time>
      </trkpt>
      <trkpt lat="43.45015" lon="-0.3664">
        <ele>169.2</ele>
        <time>2026-08-31T09:26:20Z</time>
      </trkpt>
      <trkpt lat="43.45016" lon="-0.36639">
        <ele>169.2</ele>
        <time>2026-08-31T09:26:20Z</time>
      </trkpt>
      <trkpt lat="43.45016" lon="-0.36638">
        <ele>169.2</ele>
        <time>2026-08-31T09:26:21Z</time>
      </trkpt>
      <trkpt lat="43.45016" lon="-0.36638">
        <ele>169.2</ele>
        <time>2026-08-31T09:26:21Z</time>
      </trkpt>
      <trkpt lat="43.45017" lon="-0.36637">
        <ele>169.2</ele>
        <time>2026-08-31T09:26:22Z</time>
      </trkpt>
      <trkpt lat="43.45017" lon="-0.36636">
        <ele>169.2</ele>
        <time>2026-08-31T09:26:23Z</time>
      </trkpt>
      <trkpt lat="43.45018" lon="-0.36636">
        <ele>169.2</ele>
        <time>2026-08-31T09:26:23Z</time>
      </trkpt>
      <trkpt lat="43.45018" lon="-0.36635">
        <ele>169.2</ele>
        <time>2026-08-31T09:26:24Z</time>
      </trkpt>
      <trkpt lat="43.45018" lon="-0.36634">
        <ele>169.2</ele>
        <time>2026-08-31T09:26:24Z</time>
      </trkpt>
      <trkpt lat="43.45019" lon="-0.36634">
        <ele>169.2</ele>
        <time>2026-08-31T09:26:25Z</time>
      </trkpt>
      <trkpt lat="43.45019" lon="-0.36633">
        <ele>168.2</ele>
        <time>2026-08-31T09:26:25Z</time>
      </trkpt>
      <trkpt lat="43.4502" lon="-0.36633">
        <ele>169.2</ele>
        <time>2026-08-31T09:26:26Z</time>
      </trkpt>
      <trkpt lat="43.4502" lon="-0.36632">
        <ele>169.2</ele>
        <time>2026-08-31T09:26:26Z</time>
      </trkpt>
      <trkpt lat="43.4502" lon="-0.36631">
        <ele>169.2</ele>
        <time>2026-08-31T09:26:27Z</time>
      </trkpt>
      <trkpt lat="43.45021" lon="-0.3663">
        <ele>169.2</ele>
        <time>2026-08-31T09:26:27Z</time>
      </trkpt>
      <trkpt lat="43.45021" lon="-0.3663">
        <ele>170.2</ele>
        <time>2026-08-31T09:26:28Z</time>
      </trkpt>
      <trkpt lat="43.45021" lon="-0.36629">
        <ele>170.2</ele>
        <time>2026-08-31T09:26:28Z</time>
      </trkpt>
      <trkpt lat="43.45022" lon="-0.36628">
        <ele>169.2</ele>
        <time>2026-08-31T09:26:29Z</time>
      </trkpt>
      <trkpt lat="43.45022" lon="-0.36628">
        <ele>169.2</ele>
        <time>2026-08-31T09:26:29Z</time>
      </trkpt>
      <trkpt lat="43.45023" lon="-0.36627">
        <ele>170.2</ele>
        <time>2026-08-31T09:26:30Z</time>
      </trkpt>
      <trkpt lat="43.45023" lon="-0.36626">
        <ele>170.2</ele>
        <time>2026-08-31T09:26:31Z</time>
      </trkpt>
      <trkpt lat="43.45023" lon="-0.36626">
        <ele>169.2</ele>
        <time>2026-08-31T09:26:31Z</time>
      </trkpt>
      <trkpt lat="43.45024" lon="-0.36625">
        <ele>169.2</ele>
        <time>2026-08-31T09:26:32Z</time>
      </trkpt>
      <trkpt lat="43.45024" lon="-0.36624">
        <ele>169.2</ele>
        <time>2026-08-31T09:26:32Z</time>
      </trkpt>
      <trkpt lat="43.45024" lon="-0.36624">
        <ele>169.2</ele>
        <time>2026-08-31T09:26:33Z</time>
      </trkpt>
      <trkpt lat="43.45025" lon="-0.36623">
        <ele>169.2</ele>
        <time>2026-08-31T09:26:33Z</time>
      </trkpt>
      <trkpt lat="43.45025" lon="-0.36622">
        <ele>169.2</ele>
        <time>2026-08-31T09:26:34Z</time>
      </trkpt>
      <trkpt lat="43.45025" lon="-0.36621">
        <ele>169.2</ele>
        <time>2026-08-31T09:26:34Z</time>
      </trkpt>
      <trkpt lat="43.45026" lon="-0.36621">
        <ele>168.2</ele>
        <time>2026-08-31T09:26:35Z</time>
      </trkpt>
      <trkpt lat="43.45026" lon="-0.3662">
        <ele>168.2</ele>
        <time>2026-08-31T09:26:35Z</time>
      </trkpt>
      <trkpt lat="43.45026" lon="-0.3662">
        <ele>168.2</ele>
        <time>2026-08-31T09:26:36Z</time>
      </trkpt>
      <trkpt lat="43.45027" lon="-0.36619">
        <ele>168.2</ele>
        <time>2026-08-31T09:26:36Z</time>
      </trkpt>
      <trkpt lat="43.45027" lon="-0.36619">
        <ele>168.2</ele>
        <time>2026-08-31T09:26:37Z</time>
      </trkpt>
      <trkpt lat="43.45027" lon="-0.36618">
        <ele>168.2</ele>
        <time>2026-08-31T09:26:37Z</time>
      </trkpt>
      <trkpt lat="43.45028" lon="-0.36617">
        <ele>168.2</ele>
        <time>2026-08-31T09:26:38Z</time>
      </trkpt>
      <trkpt lat="43.45028" lon="-0.36616">
        <ele>168.2</ele>
        <time>2026-08-31T09:26:39Z</time>
      </trkpt>
      <trkpt lat="43.45028" lon="-0.36615">
        <ele>168.2</ele>
        <time>2026-08-31T09:26:39Z</time>
      </trkpt>
      <trkpt lat="43.45028" lon="-0.36615">
        <ele>168.2</ele>
        <time>2026-08-31T09:26:40Z</time>
      </trkpt>
      <trkpt lat="43.45028" lon="-0.36614">
        <ele>168.2</ele>
        <time>2026-08-31T09:26:40Z</time>
      </trkpt>
      <trkpt lat="43.45028" lon="-0.36613">
        <ele>168.2</ele>
        <time>2026-08-31T09:26:41Z</time>
      </trkpt>
      <trkpt lat="43.45028" lon="-0.36612">
        <ele>168.2</ele>
        <time>2026-08-31T09:26:41Z</time>
      </trkpt>
      <trkpt lat="43.45028" lon="-0.36611">
        <ele>168.2</ele>
        <time>2026-08-31T09:26:42Z</time>
      </trkpt>
      <trkpt lat="43.45028" lon="-0.3661">
        <ele>168.2</ele>
        <time>2026-08-31T09:26:42Z</time>
      </trkpt>
      <trkpt lat="43.45028" lon="-0.36609">
        <ele>167.2</ele>
        <time>2026-08-31T09:26:43Z</time>
      </trkpt>
      <trkpt lat="43.45028" lon="-0.36608">
        <ele>167.2</ele>
        <time>2026-08-31T09:26:43Z</time>
      </trkpt>
      <trkpt lat="43.45029" lon="-0.36607">
        <ele>167.2</ele>
        <time>2026-08-31T09:26:44Z</time>
      </trkpt>
      <trkpt lat="43.45029" lon="-0.36606">
        <ele>167.2</ele>
        <time>2026-08-31T09:26:45Z</time>
      </trkpt>
      <trkpt lat="43.45028" lon="-0.36605">
        <ele>167.2</ele>
        <time>2026-08-31T09:26:46Z</time>
      </trkpt>
      <trkpt lat="43.45028" lon="-0.36605">
        <ele>167.2</ele>
        <time>2026-08-31T09:26:47Z</time>
      </trkpt>
      <trkpt lat="43.45028" lon="-0.36604">
        <ele>167.2</ele>
        <time>2026-08-31T09:26:48Z</time>
      </trkpt>
      <trkpt lat="43.45028" lon="-0.36604">
        <ele>167.2</ele>
        <time>2026-08-31T09:26:48Z</time>
      </trkpt>
      <trkpt lat="43.45028" lon="-0.36604">
        <ele>167.2</ele>
        <time>2026-08-31T09:26:49Z</time>
      </trkpt>
      <trkpt lat="43.45028" lon="-0.36605">
        <ele>167.2</ele>
        <time>2026-08-31T09:26:50Z</time>
      </trkpt>
      <trkpt lat="43.45028" lon="-0.36605">
        <ele>167.2</ele>
        <time>2026-08-31T09:26:51Z</time>
      </trkpt>
      <trkpt lat="43.45028" lon="-0.36605">
        <ele>167.2</ele>
        <time>2026-08-31T09:26:52Z</time>
      </trkpt>
      <trkpt lat="43.45028" lon="-0.36605">
        <ele>166.2</ele>
        <time>2026-08-31T09:26:53Z</time>
      </trkpt>
      <trkpt lat="43.45028" lon="-0.36605">
        <ele>166.2</ele>
        <time>2026-08-31T09:26:54Z</time>
      </trkpt>
      <trkpt lat="43.45028" lon="-0.36605">
        <ele>166.2</ele>
        <time>2026-08-31T09:26:55Z</time>
      </trkpt>
      <trkpt lat="43.45028" lon="-0.36605">
        <ele>166.2</ele>
        <time>2026-08-31T09:26:56Z</time>
      </trkpt>
      <trkpt lat="43.45028" lon="-0.36605">
        <ele>166.2</ele>
        <time>2026-08-31T09:26:57Z</time>
      </trkpt>
      <trkpt lat="43.45028" lon="-0.36605">
        <ele>166.2</ele>
        <time>2026-08-31T09:26:58Z</time>
      </trkpt>
      <trkpt lat="43.45028" lon="-0.36605">
        <ele>166.2</ele>
        <time>2026-08-31T09:26:59Z</time>
      </trkpt>
      <trkpt lat="43.45028" lon="-0.36605">
        <ele>166.2</ele>
        <time>2026-08-31T09:27:00Z</time>
      </trkpt>
      <trkpt lat="43.45028" lon="-0.36605">
        <ele>166.2</ele>
        <time>2026-08-31T09:27:01Z</time>
      </trkpt>
      <trkpt lat="43.45028" lon="-0.36605">
        <ele>166.2</ele>
        <time>2026-08-31T09:27:02Z</time>
      </trkpt>
      <trkpt lat="43.45028" lon="-0.36605">
        <ele>166.2</ele>
        <time>2026-08-31T09:27:03Z</time>
      </trkpt>
      <trkpt lat="43.45028" lon="-0.36605">
        <ele>166.2</ele>
        <time>2026-08-31T09:27:04Z</time>
      </trkpt>
      <trkpt lat="43.45028" lon="-0.36605">
        <ele>166.2</ele>
        <time>2026-08-31T09:27:05Z</time>
      </trkpt>
      <trkpt lat="43.45028" lon="-0.36605">
        <ele>166.2</ele>
        <time>2026-08-31T09:27:06Z</time>
      </trkpt>
      <trkpt lat="43.45028" lon="-0.36605">
        <ele>166.2</ele>
        <time>2026-08-31T09:27:07Z</time>
      </trkpt>
      <trkpt lat="43.45028" lon="-0.36605">
        <ele>166.2</ele>
        <time>2026-08-31T09:27:08Z</time>
      </trkpt>
      <trkpt lat="43.45028" lon="-0.36605">
        <ele>166.2</ele>
        <time>2026-08-31T09:27:09Z</time>
      </trkpt>
      <trkpt lat="43.45028" lon="-0.36605">
        <ele>166.2</ele>
        <time>2026-08-31T09:27:10Z</time>
      </trkpt>
      <trkpt lat="43.45028" lon="-0.36605">
        <ele>166.2</ele>
        <time>2026-08-31T09:27:11Z</time>
      </trkpt>
      <trkpt lat="43.45028" lon="-0.36605">
        <ele>166.2</ele>
        <time>2026-08-31T09:27:12Z</time>
      </trkpt>
      <trkpt lat="43.45028" lon="-0.36605">
        <ele>166.2</ele>
        <time>2026-08-31T09:27:13Z</time>
      </trkpt>
      <trkpt lat="43.45028" lon="-0.36605">
        <ele>166.2</ele>
        <time>2026-08-31T09:27:14Z</time>
      </trkpt>
      <trkpt lat="43.45028" lon="-0.36605">
        <ele>166.2</ele>
        <time>2026-08-31T09:27:15Z</time>
      </trkpt>
      <trkpt lat="43.45028" lon="-0.36605">
        <ele>166.2</ele>
        <time>2026-08-31T09:27:16Z</time>
      </trkpt>
      <trkpt lat="43.45028" lon="-0.36605">
        <ele>166.2</ele>
        <time>2026-08-31T09:27:17Z</time>
      </trkpt>
      <trkpt lat="43.45028" lon="-0.36605">
        <ele>166.2</ele>
        <time>2026-08-31T09:27:18Z</time>
      </trkpt>
      <trkpt lat="43.45028" lon="-0.36605">
        <ele>166.2</ele>
        <time>2026-08-31T09:27:19Z</time>
      </trkpt>
      <trkpt lat="43.45028" lon="-0.36605">
        <ele>166.2</ele>
        <time>2026-08-31T09:27:20Z</time>
      </trkpt>
      <trkpt lat="43.45028" lon="-0.36605">
        <ele>166.2</ele>
        <time>2026-08-31T09:27:21Z</time>
      </trkpt>
      <trkpt lat="43.45028" lon="-0.36605">
        <ele>166.2</ele>
        <time>2026-08-31T09:27:22Z</time>
      </trkpt>
      <trkpt lat="43.45028" lon="-0.36605">
        <ele>166.2</ele>
        <time>2026-08-31T09:27:23Z</time>
      </trkpt>
      <trkpt lat="43.45028" lon="-0.36605">
        <ele>166.2</ele>
        <time>2026-08-31T09:27:24Z</time>
      </trkpt>
      <trkpt lat="43.45028" lon="-0.36605">
        <ele>166.2</ele>
        <time>2026-08-31T09:27:25Z</time>
      </trkpt>
      <trkpt lat="43.45028" lon="-0.36605">
        <ele>166.2</ele>
        <time>2026-08-31T09:27:26Z</time>
      </trkpt>
      <trkpt lat="43.45028" lon="-0.36605">
        <ele>166.2</ele>
        <time>2026-08-31T09:27:27Z</time>
      </trkpt>
      <trkpt lat="43.45028" lon="-0.36605">
        <ele>166.2</ele>
        <time>2026-08-31T09:27:28Z</time>
      </trkpt>
      <trkpt lat="43.45028" lon="-0.36605">
        <ele>166.2</ele>
        <time>2026-08-31T09:27:29Z</time>
      </trkpt>
      <trkpt lat="43.45028" lon="-0.36605">
        <ele>166.2</ele>
        <time>2026-08-31T09:27:30Z</time>
      </trkpt>
      <trkpt lat="43.45028" lon="-0.36605">
        <ele>166.2</ele>
        <time>2026-08-31T09:27:31Z</time>
      </trkpt>
      <trkpt lat="43.45028" lon="-0.36605">
        <ele>166.2</ele>
        <time>2026-08-31T09:27:32Z</time>
      </trkpt>
      <trkpt lat="43.45028" lon="-0.36605">
        <ele>166.2</ele>
        <time>2026-08-31T09:27:33Z</time>
      </trkpt>
      <trkpt lat="43.45028" lon="-0.36605">
        <ele>166.2</ele>
        <time>2026-08-31T09:27:34Z</time>
      </trkpt>
      <trkpt lat="43.45028" lon="-0.36605">
        <ele>166.2</ele>
        <time>2026-08-31T09:27:35Z</time>
      </trkpt>
      <trkpt lat="43.45028" lon="-0.36605">
        <ele>166.2</ele>
        <time>2026-08-31T09:27:36Z</time>
      </trkpt>
      <trkpt lat="43.45028" lon="-0.36605">
        <ele>166.2</ele>
        <time>2026-08-31T09:27:37Z</time>
      </trkpt>
      <trkpt lat="43.45028" lon="-0.36605">
        <ele>166.2</ele>
        <time>2026-08-31T09:27:38Z</time>
      </trkpt>
      <trkpt lat="43.45028" lon="-0.36605">
        <ele>166.2</ele>
        <time>2026-08-31T09:27:39Z</time>
      </trkpt>
      <trkpt lat="43.45028" lon="-0.36605">
        <ele>166.2</ele>
        <time>2026-08-31T09:27:40Z</time>
      </trkpt>
      <trkpt lat="43.45028" lon="-0.36605">
        <ele>166.2</ele>
        <time>2026-08-31T09:27:41Z</time>
      </trkpt>
      <trkpt lat="43.45028" lon="-0.36605">
        <ele>166.2</ele>
        <time>2026-08-31T09:27:42Z</time>
      </trkpt>
      <trkpt lat="43.45028" lon="-0.36605">
        <ele>166.2</ele>
        <time>2026-08-31T09:27:43Z</time>
      </trkpt>
      <trkpt lat="43.45028" lon="-0.36605">
        <ele>166.2</ele>
        <time>2026-08-31T09:27:44Z</time>
      </trkpt>
      <trkpt lat="43.45028" lon="-0.36605">
        <ele>166.2</ele>
        <time>2026-08-31T09:27:45Z</time>
      </trkpt>
      <trkpt lat="43.45028" lon="-0.36605">
        <ele>166.2</ele>
        <time>2026-08-31T09:27:46Z</time>
      </trkpt>
      <trkpt lat="43.45028" lon="-0.36605">
        <ele>166.2</ele>
        <time>2026-08-31T09:27:47Z</time>
      </trkpt>
      <trkpt lat="43.45028" lon="-0.36605">
        <ele>166.2</ele>
        <time>2026-08-31T09:27:48Z</time>
      </trkpt>
      <trkpt lat="43.45028" lon="-0.36605">
        <ele>166.2</ele>
        <time>2026-08-31T09:27:49Z</time>
      </trkpt>
      <trkpt lat="43.45028" lon="-0.36605">
        <ele>166.2</ele>
        <time>2026-08-31T09:27:50Z</time>
      </trkpt>
      <trkpt lat="43.45028" lon="-0.36605">
        <ele>166.2</ele>
        <time>2026-08-31T09:27:51Z</time>
      </trkpt>
      <trkpt lat="43.45028" lon="-0.36605">
        <ele>166.2</ele>
        <time>2026-08-31T09:27:52Z</time>
      </trkpt>
      <trkpt lat="43.45028" lon="-0.36605">
        <ele>166.2</ele>
        <time>2026-08-31T09:27:53Z</time>
      </trkpt>
      <trkpt lat="43.45028" lon="-0.36605">
        <ele>166.2</ele>
        <time>2026-08-31T09:27:54Z</time>
      </trkpt>
      <trkpt lat="43.45028" lon="-0.36605">
        <ele>166.2</ele>
        <time>2026-08-31T09:27:55Z</time>
      </trkpt>
      <trkpt lat="43.45028" lon="-0.36605">
        <ele>166.2</ele>
        <time>2026-08-31T09:27:56Z</time>
      </trkpt>
      <trkpt lat="43.45028" lon="-0.36605">
        <ele>166.2</ele>
        <time>2026-08-31T09:27:57Z</time>
      </trkpt>
      <trkpt lat="43.45028" lon="-0.36605">
        <ele>166.2</ele>
        <time>2026-08-31T09:27:58Z</time>
      </trkpt>
      <trkpt lat="43.45028" lon="-0.36605">
        <ele>166.2</ele>
        <time>2026-08-31T09:27:59Z</time>
      </trkpt>
      <trkpt lat="43.45028" lon="-0.36605">
        <ele>166.2</ele>
        <time>2026-08-31T09:28:00Z</time>
      </trkpt>
      <trkpt lat="43.45028" lon="-0.36605">
        <ele>166.2</ele>
        <time>2026-08-31T09:28:01Z</time>
      </trkpt>
      <trkpt lat="43.45028" lon="-0.36605">
        <ele>166.2</ele>
        <time>2026-08-31T09:28:02Z</time>
      </trkpt>
      <trkpt lat="43.45028" lon="-0.36605">
        <ele>166.2</ele>
        <time>2026-08-31T09:28:03Z</time>
      </trkpt>
      <trkpt lat="43.45028" lon="-0.36605">
        <ele>166.2</ele>
        <time>2026-08-31T09:28:04Z</time>
      </trkpt>
      <trkpt lat="43.45028" lon="-0.36605">
        <ele>166.2</ele>
        <time>2026-08-31T09:28:05Z</time>
      </trkpt>
      <trkpt lat="43.45028" lon="-0.36605">
        <ele>166.2</ele>
        <time>2026-08-31T09:28:06Z</time>
      </trkpt>
      <trkpt lat="43.45028" lon="-0.36605">
        <ele>166.2</ele>
        <time>2026-08-31T09:28:07Z</time>
      </trkpt>
      <trkpt lat="43.45028" lon="-0.36605">
        <ele>166.2</ele>
        <time>2026-08-31T09:28:08Z</time>
      </trkpt>
      <trkpt lat="43.45028" lon="-0.36605">
        <ele>166.2</ele>
        <time>2026-08-31T09:28:09Z</time>
      </trkpt>
      <trkpt lat="43.45028" lon="-0.36605">
        <ele>166.2</ele>
        <time>2026-08-31T09:28:10Z</time>
      </trkpt>
      <trkpt lat="43.45028" lon="-0.36605">
        <ele>166.2</ele>
        <time>2026-08-31T09:28:11Z</time>
      </trkpt>
      <trkpt lat="43.45028" lon="-0.36605">
        <ele>166.2</ele>
        <time>2026-08-31T09:28:12Z</time>
      </trkpt>
      <trkpt lat="43.45028" lon="-0.36605">
        <ele>166.2</ele>
        <time>2026-08-31T09:28:13Z</time>
      </trkpt>
      <trkpt lat="43.45028" lon="-0.36605">
        <ele>166.2</ele>
        <time>2026-08-31T09:28:14Z</time>
      </trkpt>
      <trkpt lat="43.45028" lon="-0.36605">
        <ele>166.2</ele>
        <time>2026-08-31T09:28:15Z</time>
      </trkpt>
      <trkpt lat="43.45028" lon="-0.36605">
        <ele>166.2</ele>
        <time>2026-08-31T09:28:16Z</time>
      </trkpt>
      <trkpt lat="43.45028" lon="-0.36605">
        <ele>166.2</ele>
        <time>2026-08-31T09:28:17Z</time>
      </trkpt>
      <trkpt lat="43.45028" lon="-0.36605">
        <ele>166.2</ele>
        <time>2026-08-31T09:28:18Z</time>
      </trkpt>
      <trkpt lat="43.45028" lon="-0.36605">
        <ele>166.2</ele>
        <time>2026-08-31T09:28:19Z</time>
      </trkpt>
      <trkpt lat="43.45028" lon="-0.36605">
        <ele>166.2</ele>
        <time>2026-08-31T09:28:20Z</time>
      </trkpt>
      <trkpt lat="43.45028" lon="-0.36605">
        <ele>166.2</ele>
        <time>2026-08-31T09:28:21Z</time>
      </trkpt>
      <trkpt lat="43.45028" lon="-0.36605">
        <ele>166.2</ele>
        <time>2026-08-31T09:28:22Z</time>
      </trkpt>
      <trkpt lat="43.45028" lon="-0.36605">
        <ele>166.2</ele>
        <time>2026-08-31T09:28:23Z</time>
      </trkpt>
      <trkpt lat="43.45028" lon="-0.36605">
        <ele>166.2</ele>
        <time>2026-08-31T09:28:24Z</time>
      </trkpt>
      <trkpt lat="43.45028" lon="-0.36605">
        <ele>166.2</ele>
        <time>2026-08-31T09:28:25Z</time>
      </trkpt>
      <trkpt lat="43.45028" lon="-0.36605">
        <ele>166.2</ele>
        <time>2026-08-31T09:28:26Z</time>
      </trkpt>
      <trkpt lat="43.45028" lon="-0.36605">
        <ele>166.2</ele>
        <time>2026-08-31T09:28:27Z</time>
      </trkpt>
      <trkpt lat="43.45028" lon="-0.36605">
        <ele>166.2</ele>
        <time>2026-08-31T09:28:28Z</time>
      </trkpt>
      <trkpt lat="43.45028" lon="-0.36605">
        <ele>166.2</ele>
        <time>2026-08-31T09:28:29Z</time>
      </trkpt>
      <trkpt lat="43.45028" lon="-0.36605">
        <ele>166.2</ele>
        <time>2026-08-31T09:28:30Z</time>
      </trkpt>
      <trkpt lat="43.45028" lon="-0.36605">
        <ele>166.2</ele>
        <time>2026-08-31T09:28:31Z</time>
      </trkpt>
      <trkpt lat="43.45028" lon="-0.36605">
        <ele>166.2</ele>
        <time>2026-08-31T09:28:32Z</time>
      </trkpt>
      <trkpt lat="43.45028" lon="-0.36605">
        <ele>166.2</ele>
        <time>2026-08-31T09:28:33Z</time>
      </trkpt>
      <trkpt lat="43.45028" lon="-0.36605">
        <ele>166.2</ele>
        <time>2026-08-31T09:28:34Z</time>
      </trkpt>
      <trkpt lat="43.45028" lon="-0.36605">
        <ele>166.2</ele>
        <time>2026-08-31T09:28:35Z</time>
      </trkpt>
      <trkpt lat="43.45028" lon="-0.36605">
        <ele>166.2</ele>
        <time>2026-08-31T09:28:36Z</time>
      </trkpt>
      <trkpt lat="43.45028" lon="-0.36605">
        <ele>166.2</ele>
        <time>2026-08-31T09:28:37Z</time>
      </trkpt>
      <trkpt lat="43.45028" lon="-0.36605">
        <ele>166.2</ele>
        <time>2026-08-31T09:28:38Z</time>
      </trkpt>
      <trkpt lat="43.45028" lon="-0.36605">
        <ele>166.2</ele>
        <time>2026-08-31T09:28:39Z</time>
      </trkpt>
      <trkpt lat="43.45028" lon="-0.36605">
        <ele>166.2</ele>
        <time>2026-08-31T09:28:40Z</time>
      </trkpt>
      <trkpt lat="43.45028" lon="-0.36605">
        <ele>166.2</ele>
        <time>2026-08-31T09:28:41Z</time>
      </trkpt>
      <trkpt lat="43.45028" lon="-0.36605">
        <ele>166.2</ele>
        <time>2026-08-31T09:28:42Z</time>
      </trkpt>
      <trkpt lat="43.45028" lon="-0.36605">
        <ele>166.2</ele>
        <time>2026-08-31T09:28:43Z</time>
      </trkpt>
      <trkpt lat="43.45028" lon="-0.36605">
        <ele>166.2</ele>
        <time>2026-08-31T09:28:44Z</time>
      </trkpt>
      <trkpt lat="43.45028" lon="-0.36605">
        <ele>166.2</ele>
        <time>2026-08-31T09:28:45Z</time>
      </trkpt>
      <trkpt lat="43.45028" lon="-0.36605">
        <ele>166.2</ele>
        <time>2026-08-31T09:28:46Z</time>
      </trkpt>
      <trkpt lat="43.45028" lon="-0.36605">
        <ele>166.2</ele>
        <time>2026-08-31T09:28:47Z</time>
      </trkpt>
      <trkpt lat="43.45028" lon="-0.36605">
        <ele>166.2</ele>
        <time>2026-08-31T09:28:48Z</time>
      </trkpt>
      <trkpt lat="43.45028" lon="-0.36605">
        <ele>166.2</ele>
        <time>2026-08-31T09:28:49Z</time>
      </trkpt>
      <trkpt lat="43.45028" lon="-0.36605">
        <ele>166.2</ele>
        <time>2026-08-31T09:28:50Z</time>
      </trkpt>
      <trkpt lat="43.45028" lon="-0.36605">
        <ele>166.2</ele>
        <time>2026-08-31T09:28:51Z</time>
      </trkpt>
      <trkpt lat="43.45028" lon="-0.36605">
        <ele>166.2</ele>
        <time>2026-08-31T09:28:52Z</time>
      </trkpt>
      <trkpt lat="43.45028" lon="-0.36605">
        <ele>166.2</ele>
        <time>2026-08-31T09:28:53Z</time>
      </trkpt>
      <trkpt lat="43.45028" lon="-0.36605">
        <ele>166.2</ele>
        <time>2026-08-31T09:28:54Z</time>
      </trkpt>
      <trkpt lat="43.45028" lon="-0.36605">
        <ele>166.2</ele>
        <time>2026-08-31T09:28:55Z</time>
      </trkpt>
      <trkpt lat="43.45028" lon="-0.36605">
        <ele>166.2</ele>
        <time>2026-08-31T09:28:56Z</time>
      </trkpt>
      <trkpt lat="43.45028" lon="-0.36605">
        <ele>166.2</ele>
        <time>2026-08-31T09:28:57Z</time>
      </trkpt>
      <trkpt lat="43.45028" lon="-0.36605">
        <ele>166.2</ele>
        <time>2026-08-31T09:28:58Z</time>
      </trkpt>
      <trkpt lat="43.45028" lon="-0.36605">
        <ele>166.2</ele>
        <time>2026-08-31T09:28:59Z</time>
      </trkpt>
      <trkpt lat="43.45028" lon="-0.36605">
        <ele>166.2</ele>
        <time>2026-08-31T09:29:00Z</time>
      </trkpt>
      <trkpt lat="43.45028" lon="-0.36605">
        <ele>166.2</ele>
        <time>2026-08-31T09:29:01Z</time>
      </trkpt>
      <trkpt lat="43.45028" lon="-0.36605">
        <ele>166.2</ele>
        <time>2026-08-31T09:29:02Z</time>
      </trkpt>
      <trkpt lat="43.45028" lon="-0.36605">
        <ele>166.2</ele>
        <time>2026-08-31T09:29:03Z</time>
      </trkpt>
      <trkpt lat="43.45028" lon="-0.36605">
        <ele>166.2</ele>
        <time>2026-08-31T09:29:04Z</time>
      </trkpt>
      <trkpt lat="43.45028" lon="-0.36605">
        <ele>166.2</ele>
        <time>2026-08-31T09:29:05Z</time>
      </trkpt>
      <trkpt lat="43.45028" lon="-0.36605">
        <ele>166.2</ele>
        <time>2026-08-31T09:29:06Z</time>
      </trkpt>
      <trkpt lat="43.45028" lon="-0.36605">
        <ele>166.2</ele>
        <time>2026-08-31T09:29:07Z</time>
      </trkpt>
      <trkpt lat="43.45028" lon="-0.36605">
        <ele>166.2</ele>
        <time>2026-08-31T09:29:08Z</time>
      </trkpt>
      <trkpt lat="43.45028" lon="-0.36605">
        <ele>166.2</ele>
        <time>2026-08-31T09:29:09Z</time>
      </trkpt>
      <trkpt lat="43.45028" lon="-0.36605">
        <ele>166.2</ele>
        <time>2026-08-31T09:29:10Z</time>
      </trkpt>
      <trkpt lat="43.45028" lon="-0.36605">
        <ele>166.2</ele>
        <time>2026-08-31T09:29:11Z</time>
      </trkpt>
      <trkpt lat="43.45028" lon="-0.36605">
        <ele>166.2</ele>
        <time>2026-08-31T09:29:12Z</time>
      </trkpt>
      <trkpt lat="43.45028" lon="-0.36605">
        <ele>166.2</ele>
        <time>2026-08-31T09:29:13Z</time>
      </trkpt>
      <trkpt lat="43.45028" lon="-0.36605">
        <ele>166.2</ele>
        <time>2026-08-31T09:29:14Z</time>
      </trkpt>
      <trkpt lat="43.45028" lon="-0.36605">
        <ele>166.2</ele>
        <time>2026-08-31T09:29:15Z</time>
      </trkpt>
      <trkpt lat="43.45028" lon="-0.36605">
        <ele>166.2</ele>
        <time>2026-08-31T09:29:16Z</time>
      </trkpt>
      <trkpt lat="43.45028" lon="-0.36605">
        <ele>166.2</ele>
        <time>2026-08-31T09:29:17Z</time>
      </trkpt>
      <trkpt lat="43.45028" lon="-0.36605">
        <ele>166.2</ele>
        <time>2026-08-31T09:29:18Z</time>
      </trkpt>
      <trkpt lat="43.45028" lon="-0.36605">
        <ele>166.2</ele>
        <time>2026-08-31T09:29:19Z</time>
      </trkpt>
      <trkpt lat="43.45028" lon="-0.36605">
        <ele>166.2</ele>
        <time>2026-08-31T09:29:20Z</time>
      </trkpt>
      <trkpt lat="43.45028" lon="-0.36605">
        <ele>166.2</ele>
        <time>2026-08-31T09:29:21Z</time>
      </trkpt>
      <trkpt lat="43.45028" lon="-0.36605">
        <ele>166.2</ele>
        <time>2026-08-31T09:29:22Z</time>
      </trkpt>
      <trkpt lat="43.45028" lon="-0.36605">
        <ele>166.2</ele>
        <time>2026-08-31T09:29:23Z</time>
      </trkpt>
      <trkpt lat="43.45028" lon="-0.36605">
        <ele>166.2</ele>
        <time>2026-08-31T09:29:24Z</time>
      </trkpt>
      <trkpt lat="43.45028" lon="-0.36605">
        <ele>166.2</ele>
        <time>2026-08-31T09:29:25Z</time>
      </trkpt>
      <trkpt lat="43.45028" lon="-0.36605">
        <ele>166.2</ele>
        <time>2026-08-31T09:29:26Z</time>
      </trkpt>
      <trkpt lat="43.45028" lon="-0.36605">
        <ele>166.2</ele>
        <time>2026-08-31T09:29:27Z</time>
      </trkpt>
      <trkpt lat="43.45028" lon="-0.36605">
        <ele>166.2</ele>
        <time>2026-08-31T09:29:28Z</time>
      </trkpt>
      <trkpt lat="43.45028" lon="-0.36605">
        <ele>166.2</ele>
        <time>2026-08-31T09:29:29Z</time>
      </trkpt>
      <trkpt lat="43.45028" lon="-0.36605">
        <ele>166.2</ele>
        <time>2026-08-31T09:29:30Z</time>
      </trkpt>
      <trkpt lat="43.45028" lon="-0.36605">
        <ele>166.2</ele>
        <time>2026-08-31T09:29:31Z</time>
      </trkpt>
      <trkpt lat="43.45028" lon="-0.36605">
        <ele>166.2</ele>
        <time>2026-08-31T09:29:32Z</time>
      </trkpt>
      <trkpt lat="43.45028" lon="-0.36605">
        <ele>166.2</ele>
        <time>2026-08-31T09:29:33Z</time>
      </trkpt>
      <trkpt lat="43.45028" lon="-0.36605">
        <ele>166.2</ele>
        <time>2026-08-31T09:29:34Z</time>
      </trkpt>
      <trkpt lat="43.45028" lon="-0.36605">
        <ele>166.2</ele>
        <time>2026-08-31T09:29:35Z</time>
      </trkpt>
      <trkpt lat="43.45028" lon="-0.36605">
        <ele>166.2</ele>
        <time>2026-08-31T09:29:36Z</time>
      </trkpt>
      <trkpt lat="43.45028" lon="-0.36605">
        <ele>166.2</ele>
        <time>2026-08-31T09:29:37Z</time>
      </trkpt>
      <trkpt lat="43.45028" lon="-0.36605">
        <ele>166.2</ele>
        <time>2026-08-31T09:29:38Z</time>
      </trkpt>
      <trkpt lat="43.45028" lon="-0.36605">
        <ele>166.2</ele>
        <time>2026-08-31T09:29:39Z</time>
      </trkpt>
      <trkpt lat="43.45028" lon="-0.36605">
        <ele>166.2</ele>
        <time>2026-08-31T09:29:40Z</time>
      </trkpt>
      <trkpt lat="43.45028" lon="-0.36605">
        <ele>166.2</ele>
        <time>2026-08-31T09:29:41Z</time>
      </trkpt>
      <trkpt lat="43.45028" lon="-0.36605">
        <ele>166.2</ele>
        <time>2026-08-31T09:29:42Z</time>
      </trkpt>
      <trkpt lat="43.45028" lon="-0.36605">
        <ele>166.2</ele>
        <time>2026-08-31T09:29:43Z</time>
      </trkpt>
      <trkpt lat="43.45028" lon="-0.36605">
        <ele>166.2</ele>
        <time>2026-08-31T09:29:44Z</time>
      </trkpt>
      <trkpt lat="43.45028" lon="-0.36605">
        <ele>166.2</ele>
        <time>2026-08-31T09:29:45Z</time>
      </trkpt>
      <trkpt lat="43.45028" lon="-0.36605">
        <ele>166.2</ele>
        <time>2026-08-31T09:29:46Z</time>
      </trkpt>
      <trkpt lat="43.45028" lon="-0.36605">
        <ele>166.2</ele>
        <time>2026-08-31T09:29:47Z</time>
      </trkpt>
      <trkpt lat="43.45028" lon="-0.36605">
        <ele>166.2</ele>
        <time>2026-08-31T09:29:48Z</time>
      </trkpt>
      <trkpt lat="43.45028" lon="-0.36605">
        <ele>166.2</ele>
        <time>2026-08-31T09:29:49Z</time>
      </trkpt>
      <trkpt lat="43.45028" lon="-0.36605">
        <ele>166.2</ele>
        <time>2026-08-31T09:29:50Z</time>
      </trkpt>
      <trkpt lat="43.45028" lon="-0.36605">
        <ele>166.2</ele>
        <time>2026-08-31T09:29:51Z</time>
      </trkpt>
      <trkpt lat="43.45028" lon="-0.36605">
        <ele>166.2</ele>
        <time>2026-08-31T09:29:52Z</time>
      </trkpt>
      <trkpt lat="43.45028" lon="-0.36605">
        <ele>166.2</ele>
        <time>2026-08-31T09:29:53Z</time>
      </trkpt>
      <trkpt lat="43.45028" lon="-0.36605">
        <ele>166.2</ele>
        <time>2026-08-31T09:29:54Z</time>
      </trkpt>
      <trkpt lat="43.45028" lon="-0.36605">
        <ele>166.2</ele>
        <time>2026-08-31T09:29:55Z</time>
      </trkpt>
      <trkpt lat="43.45028" lon="-0.36605">
        <ele>166.2</ele>
        <time>2026-08-31T09:29:56Z</time>
      </trkpt>
      <trkpt lat="43.45028" lon="-0.36605">
        <ele>166.2</ele>
        <time>2026-08-31T09:29:57Z</time>
      </trkpt>
      <trkpt lat="43.45028" lon="-0.36605">
        <ele>166.2</ele>
        <time>2026-08-31T09:29:58Z</time>
      </trkpt>
      <trkpt lat="43.45028" lon="-0.36605">
        <ele>166.2</ele>
        <time>2026-08-31T09:29:59Z</time>
      </trkpt>
      <trkpt lat="43.45028" lon="-0.36605">
        <ele>166.2</ele>
        <time>2026-08-31T09:30:00Z</time>
      </trkpt>
      <trkpt lat="43.45028" lon="-0.36605">
        <ele>166.2</ele>
        <time>2026-08-31T09:30:01Z</time>
      </trkpt>
      <trkpt lat="43.45028" lon="-0.36605">
        <ele>166.2</ele>
        <time>2026-08-31T09:30:02Z</time>
      </trkpt>
      <trkpt lat="43.45028" lon="-0.36605">
        <ele>166.2</ele>
        <time>2026-08-31T09:30:03Z</time>
      </trkpt>
      <trkpt lat="43.45028" lon="-0.36605">
        <ele>166.2</ele>
        <time>2026-08-31T09:30:04Z</time>
      </trkpt>
      <trkpt lat="43.45028" lon="-0.36605">
        <ele>166.2</ele>
        <time>2026-08-31T09:30:05Z</time>
      </trkpt>
      <trkpt lat="43.45028" lon="-0.36605">
        <ele>166.2</ele>
        <time>2026-08-31T09:30:06Z</time>
      </trkpt>
      <trkpt lat="43.45028" lon="-0.36605">
        <ele>166.2</ele>
        <time>2026-08-31T09:30:07Z</time>
      </trkpt>
      <trkpt lat="43.45028" lon="-0.36605">
        <ele>166.2</ele>
        <time>2026-08-31T09:30:08Z</time>
      </trkpt>
      <trkpt lat="43.45028" lon="-0.36605">
        <ele>166.2</ele>
        <time>2026-08-31T09:30:09Z</time>
      </trkpt>
      <trkpt lat="43.45028" lon="-0.36605">
        <ele>166.2</ele>
        <time>2026-08-31T09:30:10Z</time>
      </trkpt>
      <trkpt lat="43.45028" lon="-0.36605">
        <ele>166.2</ele>
        <time>2026-08-31T09:30:11Z</time>
      </trkpt>
      <trkpt lat="43.45028" lon="-0.36605">
        <ele>166.2</ele>
        <time>2026-08-31T09:30:12Z</time>
      </trkpt>
      <trkpt lat="43.45028" lon="-0.36605">
        <ele>166.2</ele>
        <time>2026-08-31T09:30:13Z</time>
      </trkpt>
      <trkpt lat="43.45028" lon="-0.36605">
        <ele>166.2</ele>
        <time>2026-08-31T09:30:14Z</time>
      </trkpt>
      <trkpt lat="43.45028" lon="-0.36605">
        <ele>166.2</ele>
        <time>2026-08-31T09:30:15Z</time>
      </trkpt>
      <trkpt lat="43.45028" lon="-0.36605">
        <ele>166.2</ele>
        <time>2026-08-31T09:30:16Z</time>
      </trkpt>
      <trkpt lat="43.45028" lon="-0.36605">
        <ele>166.2</ele>
        <time>2026-08-31T09:30:17Z</time>
      </trkpt>
      <trkpt lat="43.45028" lon="-0.36605">
        <ele>166.2</ele>
        <time>2026-08-31T09:30:18Z</time>
      </trkpt>
      <trkpt lat="43.45028" lon="-0.36605">
        <ele>166.2</ele>
        <time>2026-08-31T09:30:19Z</time>
      </trkpt>
      <trkpt lat="43.45028" lon="-0.36605">
        <ele>166.2</ele>
        <time>2026-08-31T09:30:20Z</time>
      </trkpt>
      <trkpt lat="43.45028" lon="-0.36605">
        <ele>166.2</ele>
        <time>2026-08-31T09:30:21Z</time>
      </trkpt>
      <trkpt lat="43.45028" lon="-0.36605">
        <ele>166.2</ele>
        <time>2026-08-31T09:30:22Z</time>
      </trkpt>
      <trkpt lat="43.45028" lon="-0.36605">
        <ele>166.2</ele>
        <time>2026-08-31T09:30:23Z</time>
      </trkpt>
      <trkpt lat="43.45028" lon="-0.36605">
        <ele>166.2</ele>
        <time>2026-08-31T09:30:24Z</time>
      </trkpt>
      <trkpt lat="43.45028" lon="-0.36605">
        <ele>166.2</ele>
        <time>2026-08-31T09:30:25Z</time>
      </trkpt>
      <trkpt lat="43.45028" lon="-0.36605">
        <ele>166.2</ele>
        <time>2026-08-31T09:30:26Z</time>
      </trkpt>
      <trkpt lat="43.45028" lon="-0.36605">
        <ele>166.2</ele>
        <time>2026-08-31T09:30:27Z</time>
      </trkpt>
      <trkpt lat="43.45028" lon="-0.36605">
        <ele>166.2</ele>
        <time>2026-08-31T09:30:28Z</time>
      </trkpt>
      <trkpt lat="43.45028" lon="-0.36605">
        <ele>166.2</ele>
        <time>2026-08-31T09:30:29Z</time>
      </trkpt>
      <trkpt lat="43.45028" lon="-0.36605">
        <ele>166.2</ele>
        <time>2026-08-31T09:30:30Z</time>
      </trkpt>
      <trkpt lat="43.45028" lon="-0.36605">
        <ele>166.2</ele>
        <time>2026-08-31T09:30:31Z</time>
      </trkpt>
      <trkpt lat="43.45028" lon="-0.36605">
        <ele>166.2</ele>
        <time>2026-08-31T09:30:32Z</time>
      </trkpt>
      <trkpt lat="43.45028" lon="-0.36605">
        <ele>166.2</ele>
        <time>2026-08-31T09:30:33Z</time>
      </trkpt>
      <trkpt lat="43.45028" lon="-0.36605">
        <ele>166.2</ele>
        <time>2026-08-31T09:30:34Z</time>
      </trkpt>
      <trkpt lat="43.45028" lon="-0.36605">
        <ele>166.2</ele>
        <time>2026-08-31T09:30:35Z</time>
      </trkpt>
      <trkpt lat="43.45028" lon="-0.36605">
        <ele>166.2</ele>
        <time>2026-08-31T09:30:36Z</time>
      </trkpt>
      <trkpt lat="43.45028" lon="-0.36605">
        <ele>166.2</ele>
        <time>2026-08-31T09:30:37Z</time>
      </trkpt>
      <trkpt lat="43.45028" lon="-0.36605">
        <ele>166.2</ele>
        <time>2026-08-31T09:30:37Z</time>
      </trkpt>
      <trkpt lat="43.45028" lon="-0.36605">
        <ele>166.2</ele>
        <time>2026-08-31T09:30:39Z</time>
      </trkpt>
      <trkpt lat="43.45028" lon="-0.36605">
        <ele>166.2</ele>
        <time>2026-08-31T09:30:40Z</time>
      </trkpt>
      <trkpt lat="43.45028" lon="-0.36604">
        <ele>165.2</ele>
        <time>2026-08-31T09:30:41Z</time>
      </trkpt>
      <trkpt lat="43.45029" lon="-0.36603">
        <ele>165.2</ele>
        <time>2026-08-31T09:30:41Z</time>
      </trkpt>
      <trkpt lat="43.45029" lon="-0.36602">
        <ele>165.2</ele>
        <time>2026-08-31T09:30:42Z</time>
      </trkpt>
      <trkpt lat="43.45029" lon="-0.36601">
        <ele>165.2</ele>
        <time>2026-08-31T09:30:42Z</time>
      </trkpt>
      <trkpt lat="43.4503" lon="-0.36599">
        <ele>165.2</ele>
        <time>2026-08-31T09:30:43Z</time>
      </trkpt>
      <trkpt lat="43.45031" lon="-0.36598">
        <ele>165.2</ele>
        <time>2026-08-31T09:30:44Z</time>
      </trkpt>
      <trkpt lat="43.45032" lon="-0.36597">
        <ele>166.2</ele>
        <time>2026-08-31T09:30:45Z</time>
      </trkpt>
      <trkpt lat="43.45033" lon="-0.36596">
        <ele>166.2</ele>
        <time>2026-08-31T09:30:46Z</time>
      </trkpt>
      <trkpt lat="43.45033" lon="-0.36595">
        <ele>166.2</ele>
        <time>2026-08-31T09:30:46Z</time>
      </trkpt>
      <trkpt lat="43.45034" lon="-0.36595">
        <ele>166.2</ele>
        <time>2026-08-31T09:30:47Z</time>
      </trkpt>
      <trkpt lat="43.45034" lon="-0.36594">
        <ele>165.2</ele>
        <time>2026-08-31T09:30:47Z</time>
      </trkpt>
      <trkpt lat="43.45035" lon="-0.36594">
        <ele>165.2</ele>
        <time>2026-08-31T09:30:48Z</time>
      </trkpt>
      <trkpt lat="43.45035" lon="-0.36594">
        <ele>165.2</ele>
        <time>2026-08-31T09:30:48Z</time>
      </trkpt>
      <trkpt lat="43.45036" lon="-0.36593">
        <ele>165.2</ele>
        <time>2026-08-31T09:30:49Z</time>
      </trkpt>
      <trkpt lat="43.45037" lon="-0.36593">
        <ele>165.2</ele>
        <time>2026-08-31T09:30:49Z</time>
      </trkpt>
      <trkpt lat="43.45038" lon="-0.36592">
        <ele>165.2</ele>
        <time>2026-08-31T09:30:50Z</time>
      </trkpt>
      <trkpt lat="43.45038" lon="-0.36592">
        <ele>165.2</ele>
        <time>2026-08-31T09:30:50Z</time>
      </trkpt>
      <trkpt lat="43.45039" lon="-0.36592">
        <ele>165.2</ele>
        <time>2026-08-31T09:30:51Z</time>
      </trkpt>
      <trkpt lat="43.4504" lon="-0.36592">
        <ele>165.2</ele>
        <time>2026-08-31T09:30:52Z</time>
      </trkpt>
      <trkpt lat="43.45041" lon="-0.36592">
        <ele>165.2</ele>
        <time>2026-08-31T09:30:52Z</time>
      </trkpt>
      <trkpt lat="43.45042" lon="-0.36591">
        <ele>165.2</ele>
        <time>2026-08-31T09:30:53Z</time>
      </trkpt>
      <trkpt lat="43.45042" lon="-0.36591">
        <ele>165.2</ele>
        <time>2026-08-31T09:30:53Z</time>
      </trkpt>
      <trkpt lat="43.45043" lon="-0.36591">
        <ele>165.2</ele>
        <time>2026-08-31T09:30:54Z</time>
      </trkpt>
      <trkpt lat="43.45044" lon="-0.36591">
        <ele>165.2</ele>
        <time>2026-08-31T09:30:54Z</time>
      </trkpt>
      <trkpt lat="43.45045" lon="-0.36591">
        <ele>165.2</ele>
        <time>2026-08-31T09:30:55Z</time>
      </trkpt>
      <trkpt lat="43.45045" lon="-0.36591">
        <ele>165.2</ele>
        <time>2026-08-31T09:30:55Z</time>
      </trkpt>
      <trkpt lat="43.45046" lon="-0.36591">
        <ele>165.2</ele>
        <time>2026-08-31T09:30:56Z</time>
      </trkpt>
      <trkpt lat="43.45047" lon="-0.36591">
        <ele>165.2</ele>
        <time>2026-08-31T09:30:56Z</time>
      </trkpt>
      <trkpt lat="43.45048" lon="-0.36592">
        <ele>166.2</ele>
        <time>2026-08-31T09:30:57Z</time>
      </trkpt>
      <trkpt lat="43.45048" lon="-0.36591">
        <ele>166.2</ele>
        <time>2026-08-31T09:30:57Z</time>
      </trkpt>
      <trkpt lat="43.45049" lon="-0.36592">
        <ele>166.2</ele>
        <time>2026-08-31T09:30:58Z</time>
      </trkpt>
      <trkpt lat="43.4505" lon="-0.36592">
        <ele>166.2</ele>
        <time>2026-08-31T09:30:58Z</time>
      </trkpt>
      <trkpt lat="43.4505" lon="-0.36592">
        <ele>166.2</ele>
        <time>2026-08-31T09:30:59Z</time>
      </trkpt>
      <trkpt lat="43.45051" lon="-0.36592">
        <ele>166.2</ele>
        <time>2026-08-31T09:31:00Z</time>
      </trkpt>
      <trkpt lat="43.45052" lon="-0.36592">
        <ele>166.2</ele>
        <time>2026-08-31T09:31:00Z</time>
      </trkpt>
      <trkpt lat="43.45052" lon="-0.36592">
        <ele>166.2</ele>
        <time>2026-08-31T09:31:01Z</time>
      </trkpt>
      <trkpt lat="43.45053" lon="-0.36592">
        <ele>166.2</ele>
        <time>2026-08-31T09:31:01Z</time>
      </trkpt>
      <trkpt lat="43.45054" lon="-0.36592">
        <ele>166.2</ele>
        <time>2026-08-31T09:31:02Z</time>
      </trkpt>
      <trkpt lat="43.45054" lon="-0.36593">
        <ele>165.2</ele>
        <time>2026-08-31T09:31:02Z</time>
      </trkpt>
      <trkpt lat="43.45055" lon="-0.36593">
        <ele>166.2</ele>
        <time>2026-08-31T09:31:03Z</time>
      </trkpt>
      <trkpt lat="43.45056" lon="-0.36593">
        <ele>166.2</ele>
        <time>2026-08-31T09:31:03Z</time>
      </trkpt>
      <trkpt lat="43.45056" lon="-0.36593">
        <ele>166.2</ele>
        <time>2026-08-31T09:31:04Z</time>
      </trkpt>
      <trkpt lat="43.45057" lon="-0.36594">
        <ele>166.2</ele>
        <time>2026-08-31T09:31:04Z</time>
      </trkpt>
      <trkpt lat="43.45058" lon="-0.36594">
        <ele>166.2</ele>
        <time>2026-08-31T09:31:05Z</time>
      </trkpt>
      <trkpt lat="43.45058" lon="-0.36594">
        <ele>166.2</ele>
        <time>2026-08-31T09:31:05Z</time>
      </trkpt>
      <trkpt lat="43.45059" lon="-0.36595">
        <ele>166.2</ele>
        <time>2026-08-31T09:31:06Z</time>
      </trkpt>
      <trkpt lat="43.45059" lon="-0.36595">
        <ele>166.2</ele>
        <time>2026-08-31T09:31:06Z</time>
      </trkpt>
      <trkpt lat="43.4506" lon="-0.36596">
        <ele>166.2</ele>
        <time>2026-08-31T09:31:07Z</time>
      </trkpt>
      <trkpt lat="43.45061" lon="-0.36596">
        <ele>166.2</ele>
        <time>2026-08-31T09:31:07Z</time>
      </trkpt>
      <trkpt lat="43.45061" lon="-0.36596">
        <ele>166.2</ele>
        <time>2026-08-31T09:31:08Z</time>
      </trkpt>
      <trkpt lat="43.45062" lon="-0.36597">
        <ele>166.2</ele>
        <time>2026-08-31T09:31:08Z</time>
      </trkpt>
      <trkpt lat="43.45063" lon="-0.36597">
        <ele>166.2</ele>
        <time>2026-08-31T09:31:09Z</time>
      </trkpt>
      <trkpt lat="43.45063" lon="-0.36598">
        <ele>166.2</ele>
        <time>2026-08-31T09:31:10Z</time>
      </trkpt>
      <trkpt lat="43.45064" lon="-0.36598">
        <ele>166.2</ele>
        <time>2026-08-31T09:31:10Z</time>
      </trkpt>
      <trkpt lat="43.45065" lon="-0.36599">
        <ele>166.2</ele>
        <time>2026-08-31T09:31:11Z</time>
      </trkpt>
      <trkpt lat="43.45065" lon="-0.36599">
        <ele>166.2</ele>
        <time>2026-08-31T09:31:11Z</time>
      </trkpt>
      <trkpt lat="43.45066" lon="-0.366">
        <ele>166.2</ele>
        <time>2026-08-31T09:31:12Z</time>
      </trkpt>
      <trkpt lat="43.45066" lon="-0.366">
        <ele>166.2</ele>
        <time>2026-08-31T09:31:12Z</time>
      </trkpt>
      <trkpt lat="43.45067" lon="-0.366">
        <ele>165.2</ele>
        <time>2026-08-31T09:31:13Z</time>
      </trkpt>
      <trkpt lat="43.45067" lon="-0.36601">
        <ele>165.2</ele>
        <time>2026-08-31T09:31:13Z</time>
      </trkpt>
      <trkpt lat="43.45068" lon="-0.36601">
        <ele>165.2</ele>
        <time>2026-08-31T09:31:14Z</time>
      </trkpt>
      <trkpt lat="43.45068" lon="-0.36602">
        <ele>165.2</ele>
        <time>2026-08-31T09:31:14Z</time>
      </trkpt>
      <trkpt lat="43.45069" lon="-0.36602">
        <ele>165.2</ele>
        <time>2026-08-31T09:31:15Z</time>
      </trkpt>
      <trkpt lat="43.4507" lon="-0.36603">
        <ele>165.2</ele>
        <time>2026-08-31T09:31:15Z</time>
      </trkpt>
      <trkpt lat="43.4507" lon="-0.36603">
        <ele>165.2</ele>
        <time>2026-08-31T09:31:16Z</time>
      </trkpt>
      <trkpt lat="43.45071" lon="-0.36604">
        <ele>165.2</ele>
        <time>2026-08-31T09:31:16Z</time>
      </trkpt>
      <trkpt lat="43.45071" lon="-0.36604">
        <ele>166.2</ele>
        <time>2026-08-31T09:31:17Z</time>
      </trkpt>
      <trkpt lat="43.45072" lon="-0.36605">
        <ele>166.2</ele>
        <time>2026-08-31T09:31:17Z</time>
      </trkpt>
      <trkpt lat="43.45072" lon="-0.36605">
        <ele>166.2</ele>
        <time>2026-08-31T09:31:18Z</time>
      </trkpt>
      <trkpt lat="43.45073" lon="-0.36605">
        <ele>166.2</ele>
        <time>2026-08-31T09:31:18Z</time>
      </trkpt>
      <trkpt lat="43.45074" lon="-0.36606">
        <ele>166.2</ele>
        <time>2026-08-31T09:31:19Z</time>
      </trkpt>
      <trkpt lat="43.45074" lon="-0.36606">
        <ele>166.2</ele>
        <time>2026-08-31T09:31:19Z</time>
      </trkpt>
      <trkpt lat="43.45075" lon="-0.36606">
        <ele>166.2</ele>
        <time>2026-08-31T09:31:20Z</time>
      </trkpt>
      <trkpt lat="43.45075" lon="-0.36607">
        <ele>166.2</ele>
        <time>2026-08-31T09:31:21Z</time>
      </trkpt>
      <trkpt lat="43.45076" lon="-0.36607">
        <ele>166.2</ele>
        <time>2026-08-31T09:31:21Z</time>
      </trkpt>
      <trkpt lat="43.45076" lon="-0.36607">
        <ele>166.2</ele>
        <time>2026-08-31T09:31:22Z</time>
      </trkpt>
      <trkpt lat="43.45077" lon="-0.36608">
        <ele>166.2</ele>
        <time>2026-08-31T09:31:22Z</time>
      </trkpt>
      <trkpt lat="43.45077" lon="-0.36608">
        <ele>166.2</ele>
        <time>2026-08-31T09:31:23Z</time>
      </trkpt>
      <trkpt lat="43.45078" lon="-0.36608">
        <ele>166.2</ele>
        <time>2026-08-31T09:31:23Z</time>
      </trkpt>
      <trkpt lat="43.45079" lon="-0.36608">
        <ele>166.2</ele>
        <time>2026-08-31T09:31:24Z</time>
      </trkpt>
      <trkpt lat="43.45079" lon="-0.36609">
        <ele>166.2</ele>
        <time>2026-08-31T09:31:24Z</time>
      </trkpt>
      <trkpt lat="43.4508" lon="-0.36609">
        <ele>166.2</ele>
        <time>2026-08-31T09:31:25Z</time>
      </trkpt>
      <trkpt lat="43.4508" lon="-0.36609">
        <ele>166.2</ele>
        <time>2026-08-31T09:31:25Z</time>
      </trkpt>
      <trkpt lat="43.45081" lon="-0.36609">
        <ele>166.2</ele>
        <time>2026-08-31T09:31:26Z</time>
      </trkpt>
      <trkpt lat="43.45081" lon="-0.3661">
        <ele>166.2</ele>
        <time>2026-08-31T09:31:26Z</time>
      </trkpt>
      <trkpt lat="43.45082" lon="-0.3661">
        <ele>166.2</ele>
        <time>2026-08-31T09:31:27Z</time>
      </trkpt>
      <trkpt lat="43.45083" lon="-0.3661">
        <ele>166.2</ele>
        <time>2026-08-31T09:31:27Z</time>
      </trkpt>
      <trkpt lat="43.45083" lon="-0.36611">
        <ele>166.2</ele>
        <time>2026-08-31T09:31:28Z</time>
      </trkpt>
      <trkpt lat="43.45084" lon="-0.36611">
        <ele>166.2</ele>
        <time>2026-08-31T09:31:28Z</time>
      </trkpt>
      <trkpt lat="43.45084" lon="-0.36611">
        <ele>166.2</ele>
        <time>2026-08-31T09:31:29Z</time>
      </trkpt>
      <trkpt lat="43.45085" lon="-0.36611">
        <ele>166.2</ele>
        <time>2026-08-31T09:31:29Z</time>
      </trkpt>
      <trkpt lat="43.45085" lon="-0.36612">
        <ele>166.2</ele>
        <time>2026-08-31T09:31:30Z</time>
      </trkpt>
      <trkpt lat="43.45086" lon="-0.36612">
        <ele>166.2</ele>
        <time>2026-08-31T09:31:30Z</time>
      </trkpt>
      <trkpt lat="43.45086" lon="-0.36613">
        <ele>166.2</ele>
        <time>2026-08-31T09:31:31Z</time>
      </trkpt>
      <trkpt lat="43.45087" lon="-0.36613">
        <ele>166.2</ele>
        <time>2026-08-31T09:31:31Z</time>
      </trkpt>
      <trkpt lat="43.45088" lon="-0.36614">
        <ele>166.2</ele>
        <time>2026-08-31T09:31:32Z</time>
      </trkpt>
      <trkpt lat="43.45088" lon="-0.36614">
        <ele>166.2</ele>
        <time>2026-08-31T09:31:33Z</time>
      </trkpt>
      <trkpt lat="43.45089" lon="-0.36615">
        <ele>166.2</ele>
        <time>2026-08-31T09:31:33Z</time>
      </trkpt>
      <trkpt lat="43.45089" lon="-0.36615">
        <ele>166.2</ele>
        <time>2026-08-31T09:31:34Z</time>
      </trkpt>
      <trkpt lat="43.4509" lon="-0.36615">
        <ele>166.2</ele>
        <time>2026-08-31T09:31:34Z</time>
      </trkpt>
      <trkpt lat="43.4509" lon="-0.36616">
        <ele>166.2</ele>
        <time>2026-08-31T09:31:35Z</time>
      </trkpt>
      <trkpt lat="43.45091" lon="-0.36616">
        <ele>166.2</ele>
        <time>2026-08-31T09:31:35Z</time>
      </trkpt>
      <trkpt lat="43.45092" lon="-0.36617">
        <ele>166.2</ele>
        <time>2026-08-31T09:31:36Z</time>
      </trkpt>
      <trkpt lat="43.45092" lon="-0.36617">
        <ele>165.2</ele>
        <time>2026-08-31T09:31:36Z</time>
      </trkpt>
      <trkpt lat="43.45093" lon="-0.36618">
        <ele>165.2</ele>
        <time>2026-08-31T09:31:37Z</time>
      </trkpt>
      <trkpt lat="43.45093" lon="-0.36618">
        <ele>165.2</ele>
        <time>2026-08-31T09:31:37Z</time>
      </trkpt>
      <trkpt lat="43.45094" lon="-0.36619">
        <ele>165.2</ele>
        <time>2026-08-31T09:31:38Z</time>
      </trkpt>
      <trkpt lat="43.45095" lon="-0.36619">
        <ele>165.2</ele>
        <time>2026-08-31T09:31:38Z</time>
      </trkpt>
      <trkpt lat="43.45095" lon="-0.36619">
        <ele>166.2</ele>
        <time>2026-08-31T09:31:39Z</time>
      </trkpt>
      <trkpt lat="43.45096" lon="-0.3662">
        <ele>166.2</ele>
        <time>2026-08-31T09:31:39Z</time>
      </trkpt>
      <trkpt lat="43.45097" lon="-0.3662">
        <ele>165.2</ele>
        <time>2026-08-31T09:31:40Z</time>
      </trkpt>
      <trkpt lat="43.45097" lon="-0.3662">
        <ele>165.2</ele>
        <time>2026-08-31T09:31:40Z</time>
      </trkpt>
      <trkpt lat="43.45098" lon="-0.36621">
        <ele>165.2</ele>
        <time>2026-08-31T09:31:41Z</time>
      </trkpt>
      <trkpt lat="43.45098" lon="-0.36621">
        <ele>165.2</ele>
        <time>2026-08-31T09:31:41Z</time>
      </trkpt>
      <trkpt lat="43.45099" lon="-0.36622">
        <ele>165.2</ele>
        <time>2026-08-31T09:31:42Z</time>
      </trkpt>
      <trkpt lat="43.451" lon="-0.36622">
        <ele>165.2</ele>
        <time>2026-08-31T09:31:42Z</time>
      </trkpt>
      <trkpt lat="43.451" lon="-0.36622">
        <ele>165.2</ele>
        <time>2026-08-31T09:31:43Z</time>
      </trkpt>
      <trkpt lat="43.45101" lon="-0.36623">
        <ele>165.2</ele>
        <time>2026-08-31T09:31:44Z</time>
      </trkpt>
      <trkpt lat="43.45102" lon="-0.36623">
        <ele>165.2</ele>
        <time>2026-08-31T09:31:44Z</time>
      </trkpt>
      <trkpt lat="43.45102" lon="-0.36624">
        <ele>165.2</ele>
        <time>2026-08-31T09:31:45Z</time>
      </trkpt>
      <trkpt lat="43.45103" lon="-0.36625">
        <ele>165.2</ele>
        <time>2026-08-31T09:31:45Z</time>
      </trkpt>
      <trkpt lat="43.45103" lon="-0.36625">
        <ele>165.2</ele>
        <time>2026-08-31T09:31:46Z</time>
      </trkpt>
      <trkpt lat="43.45104" lon="-0.36625">
        <ele>165.2</ele>
        <time>2026-08-31T09:31:46Z</time>
      </trkpt>
      <trkpt lat="43.45105" lon="-0.36626">
        <ele>165.2</ele>
        <time>2026-08-31T09:31:47Z</time>
      </trkpt>
      <trkpt lat="43.45105" lon="-0.36626">
        <ele>166.2</ele>
        <time>2026-08-31T09:31:47Z</time>
      </trkpt>
      <trkpt lat="43.45106" lon="-0.36626">
        <ele>165.2</ele>
        <time>2026-08-31T09:31:48Z</time>
      </trkpt>
      <trkpt lat="43.45107" lon="-0.36627">
        <ele>165.2</ele>
        <time>2026-08-31T09:31:48Z</time>
      </trkpt>
      <trkpt lat="43.45107" lon="-0.36627">
        <ele>165.2</ele>
        <time>2026-08-31T09:31:49Z</time>
      </trkpt>
      <trkpt lat="43.45108" lon="-0.36628">
        <ele>165.2</ele>
        <time>2026-08-31T09:31:49Z</time>
      </trkpt>
      <trkpt lat="43.45109" lon="-0.36628">
        <ele>165.2</ele>
        <time>2026-08-31T09:31:50Z</time>
      </trkpt>
      <trkpt lat="43.45109" lon="-0.36628">
        <ele>165.2</ele>
        <time>2026-08-31T09:31:50Z</time>
      </trkpt>
      <trkpt lat="43.4511" lon="-0.36629">
        <ele>165.2</ele>
        <time>2026-08-31T09:31:51Z</time>
      </trkpt>
      <trkpt lat="43.45111" lon="-0.36629">
        <ele>165.2</ele>
        <time>2026-08-31T09:31:51Z</time>
      </trkpt>
      <trkpt lat="43.45111" lon="-0.36629">
        <ele>165.2</ele>
        <time>2026-08-31T09:31:52Z</time>
      </trkpt>
      <trkpt lat="43.45112" lon="-0.3663">
        <ele>165.2</ele>
        <time>2026-08-31T09:31:52Z</time>
      </trkpt>
      <trkpt lat="43.45113" lon="-0.3663">
        <ele>164.2</ele>
        <time>2026-08-31T09:31:53Z</time>
      </trkpt>
      <trkpt lat="43.45113" lon="-0.36631">
        <ele>164.2</ele>
        <time>2026-08-31T09:31:53Z</time>
      </trkpt>
      <trkpt lat="43.45114" lon="-0.36631">
        <ele>164.2</ele>
        <time>2026-08-31T09:31:54Z</time>
      </trkpt>
      <trkpt lat="43.45115" lon="-0.36631">
        <ele>164.2</ele>
        <time>2026-08-31T09:31:55Z</time>
      </trkpt>
      <trkpt lat="43.45115" lon="-0.36632">
        <ele>164.2</ele>
        <time>2026-08-31T09:31:55Z</time>
      </trkpt>
      <trkpt lat="43.45116" lon="-0.36632">
        <ele>164.2</ele>
        <time>2026-08-31T09:31:56Z</time>
      </trkpt>
      <trkpt lat="43.45117" lon="-0.36632">
        <ele>164.2</ele>
        <time>2026-08-31T09:31:56Z</time>
      </trkpt>
      <trkpt lat="43.45117" lon="-0.36632">
        <ele>164.2</ele>
        <time>2026-08-31T09:31:57Z</time>
      </trkpt>
      <trkpt lat="43.45118" lon="-0.36633">
        <ele>164.2</ele>
        <time>2026-08-31T09:31:57Z</time>
      </trkpt>
      <trkpt lat="43.45119" lon="-0.36633">
        <ele>164.2</ele>
        <time>2026-08-31T09:31:58Z</time>
      </trkpt>
      <trkpt lat="43.45119" lon="-0.36633">
        <ele>164.2</ele>
        <time>2026-08-31T09:31:58Z</time>
      </trkpt>
      <trkpt lat="43.4512" lon="-0.36634">
        <ele>164.2</ele>
        <time>2026-08-31T09:31:59Z</time>
      </trkpt>
      <trkpt lat="43.45121" lon="-0.36634">
        <ele>164.2</ele>
        <time>2026-08-31T09:31:59Z</time>
      </trkpt>
      <trkpt lat="43.45121" lon="-0.36634">
        <ele>164.2</ele>
        <time>2026-08-31T09:32:00Z</time>
      </trkpt>
      <trkpt lat="43.45122" lon="-0.36634">
        <ele>164.2</ele>
        <time>2026-08-31T09:32:00Z</time>
      </trkpt>
      <trkpt lat="43.45122" lon="-0.36634">
        <ele>164.2</ele>
        <time>2026-08-31T09:32:01Z</time>
      </trkpt>
      <trkpt lat="43.45123" lon="-0.36635">
        <ele>164.2</ele>
        <time>2026-08-31T09:32:01Z</time>
      </trkpt>
      <trkpt lat="43.45124" lon="-0.36635">
        <ele>164.2</ele>
        <time>2026-08-31T09:32:02Z</time>
      </trkpt>
      <trkpt lat="43.45125" lon="-0.36635">
        <ele>164.2</ele>
        <time>2026-08-31T09:32:02Z</time>
      </trkpt>
      <trkpt lat="43.45125" lon="-0.36635">
        <ele>164.2</ele>
        <time>2026-08-31T09:32:03Z</time>
      </trkpt>
      <trkpt lat="43.45126" lon="-0.36635">
        <ele>164.2</ele>
        <time>2026-08-31T09:32:03Z</time>
      </trkpt>
      <trkpt lat="43.45126" lon="-0.36635">
        <ele>165.2</ele>
        <time>2026-08-31T09:32:04Z</time>
      </trkpt>
      <trkpt lat="43.45127" lon="-0.36635">
        <ele>165.2</ele>
        <time>2026-08-31T09:32:05Z</time>
      </trkpt>
      <trkpt lat="43.45128" lon="-0.36635">
        <ele>165.2</ele>
        <time>2026-08-31T09:32:05Z</time>
      </trkpt>
      <trkpt lat="43.45128" lon="-0.36635">
        <ele>165.2</ele>
        <time>2026-08-31T09:32:06Z</time>
      </trkpt>
      <trkpt lat="43.45129" lon="-0.36636">
        <ele>165.2</ele>
        <time>2026-08-31T09:32:06Z</time>
      </trkpt>
      <trkpt lat="43.45129" lon="-0.36636">
        <ele>165.2</ele>
        <time>2026-08-31T09:32:07Z</time>
      </trkpt>
      <trkpt lat="43.4513" lon="-0.36636">
        <ele>165.2</ele>
        <time>2026-08-31T09:32:07Z</time>
      </trkpt>
      <trkpt lat="43.4513" lon="-0.36637">
        <ele>164.2</ele>
        <time>2026-08-31T09:32:08Z</time>
      </trkpt>
      <trkpt lat="43.45131" lon="-0.36637">
        <ele>164.2</ele>
        <time>2026-08-31T09:32:08Z</time>
      </trkpt>
      <trkpt lat="43.45132" lon="-0.36637">
        <ele>164.2</ele>
        <time>2026-08-31T09:32:09Z</time>
      </trkpt>
      <trkpt lat="43.45132" lon="-0.36638">
        <ele>164.2</ele>
        <time>2026-08-31T09:32:09Z</time>
      </trkpt>
      <trkpt lat="43.45133" lon="-0.36638">
        <ele>164.2</ele>
        <time>2026-08-31T09:32:10Z</time>
      </trkpt>
      <trkpt lat="43.45133" lon="-0.36638">
        <ele>164.2</ele>
        <time>2026-08-31T09:32:10Z</time>
      </trkpt>
      <trkpt lat="43.45134" lon="-0.36638">
        <ele>165.2</ele>
        <time>2026-08-31T09:32:11Z</time>
      </trkpt>
      <trkpt lat="43.45135" lon="-0.36639">
        <ele>165.2</ele>
        <time>2026-08-31T09:32:11Z</time>
      </trkpt>
      <trkpt lat="43.45135" lon="-0.36639">
        <ele>164.2</ele>
        <time>2026-08-31T09:32:12Z</time>
      </trkpt>
      <trkpt lat="43.45136" lon="-0.36639">
        <ele>164.2</ele>
        <time>2026-08-31T09:32:13Z</time>
      </trkpt>
      <trkpt lat="43.45137" lon="-0.3664">
        <ele>164.2</ele>
        <time>2026-08-31T09:32:13Z</time>
      </trkpt>
      <trkpt lat="43.45137" lon="-0.3664">
        <ele>164.2</ele>
        <time>2026-08-31T09:32:14Z</time>
      </trkpt>
      <trkpt lat="43.45138" lon="-0.36641">
        <ele>164.2</ele>
        <time>2026-08-31T09:32:14Z</time>
      </trkpt>
      <trkpt lat="43.45139" lon="-0.36641">
        <ele>164.2</ele>
        <time>2026-08-31T09:32:15Z</time>
      </trkpt>
      <trkpt lat="43.45139" lon="-0.36641">
        <ele>163.2</ele>
        <time>2026-08-31T09:32:15Z</time>
      </trkpt>
      <trkpt lat="43.4514" lon="-0.36642">
        <ele>163.2</ele>
        <time>2026-08-31T09:32:16Z</time>
      </trkpt>
      <trkpt lat="43.45141" lon="-0.36642">
        <ele>163.2</ele>
        <time>2026-08-31T09:32:16Z</time>
      </trkpt>
      <trkpt lat="43.45141" lon="-0.36642">
        <ele>163.2</ele>
        <time>2026-08-31T09:32:17Z</time>
      </trkpt>
      <trkpt lat="43.45142" lon="-0.36643">
        <ele>163.2</ele>
        <time>2026-08-31T09:32:17Z</time>
      </trkpt>
      <trkpt lat="43.45143" lon="-0.36643">
        <ele>163.2</ele>
        <time>2026-08-31T09:32:18Z</time>
      </trkpt>
      <trkpt lat="43.45144" lon="-0.36643">
        <ele>163.2</ele>
        <time>2026-08-31T09:32:18Z</time>
      </trkpt>
      <trkpt lat="43.45144" lon="-0.36644">
        <ele>163.2</ele>
        <time>2026-08-31T09:32:19Z</time>
      </trkpt>
      <trkpt lat="43.45145" lon="-0.36644">
        <ele>163.2</ele>
        <time>2026-08-31T09:32:19Z</time>
      </trkpt>
      <trkpt lat="43.45146" lon="-0.36644">
        <ele>163.2</ele>
        <time>2026-08-31T09:32:20Z</time>
      </trkpt>
      <trkpt lat="43.45146" lon="-0.36644">
        <ele>163.2</ele>
        <time>2026-08-31T09:32:20Z</time>
      </trkpt>
      <trkpt lat="43.45147" lon="-0.36645">
        <ele>163.2</ele>
        <time>2026-08-31T09:32:21Z</time>
      </trkpt>
      <trkpt lat="43.45148" lon="-0.36645">
        <ele>163.2</ele>
        <time>2026-08-31T09:32:22Z</time>
      </trkpt>
      <trkpt lat="43.45149" lon="-0.36645">
        <ele>163.2</ele>
        <time>2026-08-31T09:32:22Z</time>
      </trkpt>
      <trkpt lat="43.45149" lon="-0.36645">
        <ele>163.2</ele>
        <time>2026-08-31T09:32:23Z</time>
      </trkpt>
      <trkpt lat="43.4515" lon="-0.36645">
        <ele>163.2</ele>
        <time>2026-08-31T09:32:23Z</time>
      </trkpt>
      <trkpt lat="43.45151" lon="-0.36645">
        <ele>163.2</ele>
        <time>2026-08-31T09:32:24Z</time>
      </trkpt>
      <trkpt lat="43.45152" lon="-0.36645">
        <ele>163.2</ele>
        <time>2026-08-31T09:32:24Z</time>
      </trkpt>
      <trkpt lat="43.45153" lon="-0.36645">
        <ele>163.2</ele>
        <time>2026-08-31T09:32:25Z</time>
      </trkpt>
      <trkpt lat="43.45153" lon="-0.36645">
        <ele>163.2</ele>
        <time>2026-08-31T09:32:25Z</time>
      </trkpt>
      <trkpt lat="43.45154" lon="-0.36645">
        <ele>162.2</ele>
        <time>2026-08-31T09:32:26Z</time>
      </trkpt>
      <trkpt lat="43.45155" lon="-0.36646">
        <ele>162.2</ele>
        <time>2026-08-31T09:32:26Z</time>
      </trkpt>
      <trkpt lat="43.45156" lon="-0.36646">
        <ele>162.2</ele>
        <time>2026-08-31T09:32:27Z</time>
      </trkpt>
      <trkpt lat="43.45156" lon="-0.36646">
        <ele>162.2</ele>
        <time>2026-08-31T09:32:27Z</time>
      </trkpt>
      <trkpt lat="43.45157" lon="-0.36646">
        <ele>162.2</ele>
        <time>2026-08-31T09:32:28Z</time>
      </trkpt>
      <trkpt lat="43.45158" lon="-0.36647">
        <ele>162.2</ele>
        <time>2026-08-31T09:32:28Z</time>
      </trkpt>
      <trkpt lat="43.45158" lon="-0.36647">
        <ele>162.2</ele>
        <time>2026-08-31T09:32:29Z</time>
      </trkpt>
      <trkpt lat="43.45159" lon="-0.36647">
        <ele>162.2</ele>
        <time>2026-08-31T09:32:30Z</time>
      </trkpt>
      <trkpt lat="43.4516" lon="-0.36648">
        <ele>161.2</ele>
        <time>2026-08-31T09:32:30Z</time>
      </trkpt>
      <trkpt lat="43.4516" lon="-0.36648">
        <ele>161.2</ele>
        <time>2026-08-31T09:32:31Z</time>
      </trkpt>
      <trkpt lat="43.45161" lon="-0.36648">
        <ele>161.2</ele>
        <time>2026-08-31T09:32:31Z</time>
      </trkpt>
      <trkpt lat="43.45162" lon="-0.36648">
        <ele>161.2</ele>
        <time>2026-08-31T09:32:32Z</time>
      </trkpt>
      <trkpt lat="43.45163" lon="-0.36649">
        <ele>162.2</ele>
        <time>2026-08-31T09:32:32Z</time>
      </trkpt>
      <trkpt lat="43.45163" lon="-0.36649">
        <ele>162.2</ele>
        <time>2026-08-31T09:32:33Z</time>
      </trkpt>
      <trkpt lat="43.45164" lon="-0.36649">
        <ele>162.2</ele>
        <time>2026-08-31T09:32:33Z</time>
      </trkpt>
      <trkpt lat="43.45165" lon="-0.3665">
        <ele>163.2</ele>
        <time>2026-08-31T09:32:34Z</time>
      </trkpt>
      <trkpt lat="43.45165" lon="-0.3665">
        <ele>163.2</ele>
        <time>2026-08-31T09:32:34Z</time>
      </trkpt>
      <trkpt lat="43.45166" lon="-0.3665">
        <ele>163.2</ele>
        <time>2026-08-31T09:32:35Z</time>
      </trkpt>
      <trkpt lat="43.45167" lon="-0.3665">
        <ele>163.2</ele>
        <time>2026-08-31T09:32:35Z</time>
      </trkpt>
      <trkpt lat="43.45167" lon="-0.36651">
        <ele>163.2</ele>
        <time>2026-08-31T09:32:36Z</time>
      </trkpt>
      <trkpt lat="43.45168" lon="-0.36651">
        <ele>163.2</ele>
        <time>2026-08-31T09:32:36Z</time>
      </trkpt>
      <trkpt lat="43.45169" lon="-0.36651">
        <ele>162.2</ele>
        <time>2026-08-31T09:32:37Z</time>
      </trkpt>
      <trkpt lat="43.45169" lon="-0.36651">
        <ele>162.2</ele>
        <time>2026-08-31T09:32:38Z</time>
      </trkpt>
      <trkpt lat="43.4517" lon="-0.36651">
        <ele>162.2</ele>
        <time>2026-08-31T09:32:38Z</time>
      </trkpt>
      <trkpt lat="43.45171" lon="-0.36652">
        <ele>162.2</ele>
        <time>2026-08-31T09:32:39Z</time>
      </trkpt>
      <trkpt lat="43.45171" lon="-0.36652">
        <ele>161.2</ele>
        <time>2026-08-31T09:32:39Z</time>
      </trkpt>
      <trkpt lat="43.45172" lon="-0.36652">
        <ele>161.2</ele>
        <time>2026-08-31T09:32:40Z</time>
      </trkpt>
      <trkpt lat="43.45172" lon="-0.36652">
        <ele>162.2</ele>
        <time>2026-08-31T09:32:40Z</time>
      </trkpt>
      <trkpt lat="43.45173" lon="-0.36653">
        <ele>162.2</ele>
        <time>2026-08-31T09:32:41Z</time>
      </trkpt>
      <trkpt lat="43.45174" lon="-0.36653">
        <ele>162.2</ele>
        <time>2026-08-31T09:32:41Z</time>
      </trkpt>
      <trkpt lat="43.45174" lon="-0.36653">
        <ele>161.2</ele>
        <time>2026-08-31T09:32:42Z</time>
      </trkpt>
      <trkpt lat="43.45175" lon="-0.36653">
        <ele>161.2</ele>
        <time>2026-08-31T09:32:42Z</time>
      </trkpt>
      <trkpt lat="43.45175" lon="-0.36654">
        <ele>161.2</ele>
        <time>2026-08-31T09:32:43Z</time>
      </trkpt>
      <trkpt lat="43.45176" lon="-0.36654">
        <ele>161.2</ele>
        <time>2026-08-31T09:32:43Z</time>
      </trkpt>
      <trkpt lat="43.45177" lon="-0.36654">
        <ele>161.2</ele>
        <time>2026-08-31T09:32:44Z</time>
      </trkpt>
      <trkpt lat="43.45177" lon="-0.36654">
        <ele>161.2</ele>
        <time>2026-08-31T09:32:44Z</time>
      </trkpt>
      <trkpt lat="43.45178" lon="-0.36655">
        <ele>161.2</ele>
        <time>2026-08-31T09:32:45Z</time>
      </trkpt>
      <trkpt lat="43.45179" lon="-0.36655">
        <ele>161.2</ele>
        <time>2026-08-31T09:32:45Z</time>
      </trkpt>
      <trkpt lat="43.45179" lon="-0.36655">
        <ele>161.2</ele>
        <time>2026-08-31T09:32:46Z</time>
      </trkpt>
      <trkpt lat="43.4518" lon="-0.36655">
        <ele>161.2</ele>
        <time>2026-08-31T09:32:46Z</time>
      </trkpt>
      <trkpt lat="43.45181" lon="-0.36656">
        <ele>161.2</ele>
        <time>2026-08-31T09:32:47Z</time>
      </trkpt>
      <trkpt lat="43.45181" lon="-0.36656">
        <ele>161.2</ele>
        <time>2026-08-31T09:32:47Z</time>
      </trkpt>
      <trkpt lat="43.45182" lon="-0.36656">
        <ele>161.2</ele>
        <time>2026-08-31T09:32:48Z</time>
      </trkpt>
      <trkpt lat="43.45182" lon="-0.36657">
        <ele>161.2</ele>
        <time>2026-08-31T09:32:49Z</time>
      </trkpt>
      <trkpt lat="43.45183" lon="-0.36657">
        <ele>161.2</ele>
        <time>2026-08-31T09:32:49Z</time>
      </trkpt>
      <trkpt lat="43.45184" lon="-0.36658">
        <ele>161.2</ele>
        <time>2026-08-31T09:32:50Z</time>
      </trkpt>
      <trkpt lat="43.45184" lon="-0.36658">
        <ele>160.2</ele>
        <time>2026-08-31T09:32:50Z</time>
      </trkpt>
      <trkpt lat="43.45185" lon="-0.36658">
        <ele>160.2</ele>
        <time>2026-08-31T09:32:51Z</time>
      </trkpt>
      <trkpt lat="43.45185" lon="-0.36658">
        <ele>160.3</ele>
        <time>2026-08-31T09:32:51Z</time>
      </trkpt>
      <trkpt lat="43.45186" lon="-0.36659">
        <ele>160.3</ele>
        <time>2026-08-31T09:32:52Z</time>
      </trkpt>
      <trkpt lat="43.45187" lon="-0.36659">
        <ele>160.3</ele>
        <time>2026-08-31T09:32:52Z</time>
      </trkpt>
      <trkpt lat="43.45187" lon="-0.36659">
        <ele>160.3</ele>
        <time>2026-08-31T09:32:53Z</time>
      </trkpt>
      <trkpt lat="43.45188" lon="-0.36659">
        <ele>160.3</ele>
        <time>2026-08-31T09:32:53Z</time>
      </trkpt>
      <trkpt lat="43.45189" lon="-0.3666">
        <ele>160.3</ele>
        <time>2026-08-31T09:32:54Z</time>
      </trkpt>
      <trkpt lat="43.45189" lon="-0.3666">
        <ele>160.3</ele>
        <time>2026-08-31T09:32:54Z</time>
      </trkpt>
      <trkpt lat="43.4519" lon="-0.3666">
        <ele>160.3</ele>
        <time>2026-08-31T09:32:55Z</time>
      </trkpt>
      <trkpt lat="43.45191" lon="-0.36661">
        <ele>160.3</ele>
        <time>2026-08-31T09:32:55Z</time>
      </trkpt>
      <trkpt lat="43.45191" lon="-0.36661">
        <ele>160.3</ele>
        <time>2026-08-31T09:32:56Z</time>
      </trkpt>
      <trkpt lat="43.45192" lon="-0.36661">
        <ele>160.3</ele>
        <time>2026-08-31T09:32:57Z</time>
      </trkpt>
      <trkpt lat="43.45193" lon="-0.36662">
        <ele>160.3</ele>
        <time>2026-08-31T09:32:57Z</time>
      </trkpt>
      <trkpt lat="43.45193" lon="-0.36662">
        <ele>160.3</ele>
        <time>2026-08-31T09:32:58Z</time>
      </trkpt>
      <trkpt lat="43.45194" lon="-0.36662">
        <ele>160.3</ele>
        <time>2026-08-31T09:32:58Z</time>
      </trkpt>
      <trkpt lat="43.45195" lon="-0.36662">
        <ele>160.3</ele>
        <time>2026-08-31T09:32:59Z</time>
      </trkpt>
      <trkpt lat="43.45195" lon="-0.36663">
        <ele>160.3</ele>
        <time>2026-08-31T09:32:59Z</time>
      </trkpt>
      <trkpt lat="43.45196" lon="-0.36663">
        <ele>160.3</ele>
        <time>2026-08-31T09:33:00Z</time>
      </trkpt>
      <trkpt lat="43.45197" lon="-0.36663">
        <ele>160.3</ele>
        <time>2026-08-31T09:33:00Z</time>
      </trkpt>
      <trkpt lat="43.45198" lon="-0.36664">
        <ele>160.3</ele>
        <time>2026-08-31T09:33:01Z</time>
      </trkpt>
      <trkpt lat="43.45198" lon="-0.36664">
        <ele>160.3</ele>
        <time>2026-08-31T09:33:01Z</time>
      </trkpt>
      <trkpt lat="43.45199" lon="-0.36664">
        <ele>160.3</ele>
        <time>2026-08-31T09:33:02Z</time>
      </trkpt>
      <trkpt lat="43.452" lon="-0.36664">
        <ele>160.3</ele>
        <time>2026-08-31T09:33:02Z</time>
      </trkpt>
      <trkpt lat="43.452" lon="-0.36665">
        <ele>161.3</ele>
        <time>2026-08-31T09:33:03Z</time>
      </trkpt>
      <trkpt lat="43.45201" lon="-0.36665">
        <ele>161.3</ele>
        <time>2026-08-31T09:33:04Z</time>
      </trkpt>
      <trkpt lat="43.45202" lon="-0.36665">
        <ele>161.3</ele>
        <time>2026-08-31T09:33:04Z</time>
      </trkpt>
      <trkpt lat="43.45203" lon="-0.36665">
        <ele>161.3</ele>
        <time>2026-08-31T09:33:05Z</time>
      </trkpt>
      <trkpt lat="43.45203" lon="-0.36665">
        <ele>160.3</ele>
        <time>2026-08-31T09:33:05Z</time>
      </trkpt>
      <trkpt lat="43.45204" lon="-0.36666">
        <ele>160.3</ele>
        <time>2026-08-31T09:33:06Z</time>
      </trkpt>
      <trkpt lat="43.45205" lon="-0.36666">
        <ele>160.3</ele>
        <time>2026-08-31T09:33:06Z</time>
      </trkpt>
      <trkpt lat="43.45206" lon="-0.36666">
        <ele>160.3</ele>
        <time>2026-08-31T09:33:07Z</time>
      </trkpt>
      <trkpt lat="43.45207" lon="-0.36667">
        <ele>160.3</ele>
        <time>2026-08-31T09:33:07Z</time>
      </trkpt>
      <trkpt lat="43.45207" lon="-0.36667">
        <ele>161.3</ele>
        <time>2026-08-31T09:33:08Z</time>
      </trkpt>
      <trkpt lat="43.45208" lon="-0.36667">
        <ele>161.3</ele>
        <time>2026-08-31T09:33:08Z</time>
      </trkpt>
      <trkpt lat="43.45209" lon="-0.36667">
        <ele>161.3</ele>
        <time>2026-08-31T09:33:09Z</time>
      </trkpt>
      <trkpt lat="43.4521" lon="-0.36668">
        <ele>161.3</ele>
        <time>2026-08-31T09:33:09Z</time>
      </trkpt>
      <trkpt lat="43.4521" lon="-0.36668">
        <ele>161.3</ele>
        <time>2026-08-31T09:33:10Z</time>
      </trkpt>
      <trkpt lat="43.45211" lon="-0.36668">
        <ele>161.3</ele>
        <time>2026-08-31T09:33:10Z</time>
      </trkpt>
      <trkpt lat="43.45212" lon="-0.36668">
        <ele>160.3</ele>
        <time>2026-08-31T09:33:11Z</time>
      </trkpt>
      <trkpt lat="43.45213" lon="-0.36669">
        <ele>160.3</ele>
        <time>2026-08-31T09:33:12Z</time>
      </trkpt>
      <trkpt lat="43.45213" lon="-0.36669">
        <ele>160.3</ele>
        <time>2026-08-31T09:33:12Z</time>
      </trkpt>
      <trkpt lat="43.45214" lon="-0.36669">
        <ele>160.3</ele>
        <time>2026-08-31T09:33:13Z</time>
      </trkpt>
      <trkpt lat="43.45215" lon="-0.36669">
        <ele>160.3</ele>
        <time>2026-08-31T09:33:13Z</time>
      </trkpt>
      <trkpt lat="43.45215" lon="-0.36669">
        <ele>160.3</ele>
        <time>2026-08-31T09:33:14Z</time>
      </trkpt>
      <trkpt lat="43.45216" lon="-0.3667">
        <ele>160.3</ele>
        <time>2026-08-31T09:33:14Z</time>
      </trkpt>
      <trkpt lat="43.45217" lon="-0.3667">
        <ele>161.3</ele>
        <time>2026-08-31T09:33:15Z</time>
      </trkpt>
      <trkpt lat="43.45217" lon="-0.3667">
        <ele>161.3</ele>
        <time>2026-08-31T09:33:15Z</time>
      </trkpt>
      <trkpt lat="43.45218" lon="-0.3667">
        <ele>161.3</ele>
        <time>2026-08-31T09:33:16Z</time>
      </trkpt>
      <trkpt lat="43.45219" lon="-0.36671">
        <ele>161.3</ele>
        <time>2026-08-31T09:33:16Z</time>
      </trkpt>
      <trkpt lat="43.45219" lon="-0.36671">
        <ele>161.3</ele>
        <time>2026-08-31T09:33:17Z</time>
      </trkpt>
      <trkpt lat="43.4522" lon="-0.36671">
        <ele>161.3</ele>
        <time>2026-08-31T09:33:17Z</time>
      </trkpt>
      <trkpt lat="43.45221" lon="-0.36671">
        <ele>161.3</ele>
        <time>2026-08-31T09:33:18Z</time>
      </trkpt>
      <trkpt lat="43.45221" lon="-0.36672">
        <ele>161.3</ele>
        <time>2026-08-31T09:33:18Z</time>
      </trkpt>
      <trkpt lat="43.45222" lon="-0.36672">
        <ele>161.3</ele>
        <time>2026-08-31T09:33:19Z</time>
      </trkpt>
      <trkpt lat="43.45223" lon="-0.36672">
        <ele>161.3</ele>
        <time>2026-08-31T09:33:20Z</time>
      </trkpt>
      <trkpt lat="43.45223" lon="-0.36672">
        <ele>162.3</ele>
        <time>2026-08-31T09:33:20Z</time>
      </trkpt>
      <trkpt lat="43.45224" lon="-0.36673">
        <ele>162.3</ele>
        <time>2026-08-31T09:33:21Z</time>
      </trkpt>
      <trkpt lat="43.45225" lon="-0.36673">
        <ele>161.3</ele>
        <time>2026-08-31T09:33:21Z</time>
      </trkpt>
      <trkpt lat="43.45226" lon="-0.36673">
        <ele>161.3</ele>
        <time>2026-08-31T09:33:22Z</time>
      </trkpt>
      <trkpt lat="43.45226" lon="-0.36673">
        <ele>161.3</ele>
        <time>2026-08-31T09:33:22Z</time>
      </trkpt>
      <trkpt lat="43.45227" lon="-0.36673">
        <ele>161.3</ele>
        <time>2026-08-31T09:33:23Z</time>
      </trkpt>
      <trkpt lat="43.45228" lon="-0.36673">
        <ele>161.3</ele>
        <time>2026-08-31T09:33:23Z</time>
      </trkpt>
      <trkpt lat="43.45228" lon="-0.36673">
        <ele>161.3</ele>
        <time>2026-08-31T09:33:24Z</time>
      </trkpt>
      <trkpt lat="43.45229" lon="-0.36673">
        <ele>161.3</ele>
        <time>2026-08-31T09:33:24Z</time>
      </trkpt>
      <trkpt lat="43.4523" lon="-0.36674">
        <ele>161.3</ele>
        <time>2026-08-31T09:33:25Z</time>
      </trkpt>
      <trkpt lat="43.45231" lon="-0.36674">
        <ele>161.3</ele>
        <time>2026-08-31T09:33:25Z</time>
      </trkpt>
      <trkpt lat="43.45231" lon="-0.36674">
        <ele>161.3</ele>
        <time>2026-08-31T09:33:26Z</time>
      </trkpt>
      <trkpt lat="43.45232" lon="-0.36674">
        <ele>161.3</ele>
        <time>2026-08-31T09:33:26Z</time>
      </trkpt>
      <trkpt lat="43.45233" lon="-0.36675">
        <ele>160.3</ele>
        <time>2026-08-31T09:33:27Z</time>
      </trkpt>
      <trkpt lat="43.45234" lon="-0.36675">
        <ele>160.3</ele>
        <time>2026-08-31T09:33:27Z</time>
      </trkpt>
      <trkpt lat="43.45234" lon="-0.36675">
        <ele>160.3</ele>
        <time>2026-08-31T09:33:28Z</time>
      </trkpt>
      <trkpt lat="43.45235" lon="-0.36676">
        <ele>160.3</ele>
        <time>2026-08-31T09:33:29Z</time>
      </trkpt>
      <trkpt lat="43.45235" lon="-0.36676">
        <ele>161.3</ele>
        <time>2026-08-31T09:33:29Z</time>
      </trkpt>
      <trkpt lat="43.45236" lon="-0.36676">
        <ele>161.3</ele>
        <time>2026-08-31T09:33:30Z</time>
      </trkpt>
      <trkpt lat="43.45236" lon="-0.36677">
        <ele>161.3</ele>
        <time>2026-08-31T09:33:30Z</time>
      </trkpt>
      <trkpt lat="43.45237" lon="-0.36677">
        <ele>161.3</ele>
        <time>2026-08-31T09:33:31Z</time>
      </trkpt>
      <trkpt lat="43.45238" lon="-0.36677">
        <ele>161.3</ele>
        <time>2026-08-31T09:33:31Z</time>
      </trkpt>
      <trkpt lat="43.45238" lon="-0.36677">
        <ele>161.3</ele>
        <time>2026-08-31T09:33:32Z</time>
      </trkpt>
      <trkpt lat="43.45239" lon="-0.36678">
        <ele>161.3</ele>
        <time>2026-08-31T09:33:32Z</time>
      </trkpt>
      <trkpt lat="43.45239" lon="-0.36678">
        <ele>162.3</ele>
        <time>2026-08-31T09:33:33Z</time>
      </trkpt>
      <trkpt lat="43.4524" lon="-0.36678">
        <ele>162.3</ele>
        <time>2026-08-31T09:33:33Z</time>
      </trkpt>
      <trkpt lat="43.45241" lon="-0.36679">
        <ele>162.3</ele>
        <time>2026-08-31T09:33:34Z</time>
      </trkpt>
      <trkpt lat="43.45241" lon="-0.36679">
        <ele>162.3</ele>
        <time>2026-08-31T09:33:34Z</time>
      </trkpt>
      <trkpt lat="43.45242" lon="-0.36679">
        <ele>162.3</ele>
        <time>2026-08-31T09:33:35Z</time>
      </trkpt>
      <trkpt lat="43.45243" lon="-0.36679">
        <ele>162.3</ele>
        <time>2026-08-31T09:33:35Z</time>
      </trkpt>
      <trkpt lat="43.45243" lon="-0.36679">
        <ele>162.3</ele>
        <time>2026-08-31T09:33:36Z</time>
      </trkpt>
      <trkpt lat="43.45244" lon="-0.3668">
        <ele>162.3</ele>
        <time>2026-08-31T09:33:37Z</time>
      </trkpt>
      <trkpt lat="43.45245" lon="-0.3668">
        <ele>162.3</ele>
        <time>2026-08-31T09:33:37Z</time>
      </trkpt>
      <trkpt lat="43.45245" lon="-0.3668">
        <ele>162.3</ele>
        <time>2026-08-31T09:33:38Z</time>
      </trkpt>
      <trkpt lat="43.45246" lon="-0.3668">
        <ele>162.3</ele>
        <time>2026-08-31T09:33:38Z</time>
      </trkpt>
      <trkpt lat="43.45247" lon="-0.3668">
        <ele>162.3</ele>
        <time>2026-08-31T09:33:39Z</time>
      </trkpt>
      <trkpt lat="43.45247" lon="-0.36681">
        <ele>161.3</ele>
        <time>2026-08-31T09:33:39Z</time>
      </trkpt>
      <trkpt lat="43.45248" lon="-0.36681">
        <ele>161.3</ele>
        <time>2026-08-31T09:33:40Z</time>
      </trkpt>
      <trkpt lat="43.45248" lon="-0.36681">
        <ele>161.3</ele>
        <time>2026-08-31T09:33:40Z</time>
      </trkpt>
      <trkpt lat="43.45249" lon="-0.36681">
        <ele>161.3</ele>
        <time>2026-08-31T09:33:41Z</time>
      </trkpt>
      <trkpt lat="43.45249" lon="-0.36681">
        <ele>161.3</ele>
        <time>2026-08-31T09:33:41Z</time>
      </trkpt>
      <trkpt lat="43.4525" lon="-0.36681">
        <ele>161.3</ele>
        <time>2026-08-31T09:33:42Z</time>
      </trkpt>
      <trkpt lat="43.45251" lon="-0.36682">
        <ele>161.3</ele>
        <time>2026-08-31T09:33:42Z</time>
      </trkpt>
      <trkpt lat="43.45251" lon="-0.36682">
        <ele>160.3</ele>
        <time>2026-08-31T09:33:43Z</time>
      </trkpt>
      <trkpt lat="43.45252" lon="-0.36682">
        <ele>160.3</ele>
        <time>2026-08-31T09:33:43Z</time>
      </trkpt>
      <trkpt lat="43.45253" lon="-0.36682">
        <ele>160.3</ele>
        <time>2026-08-31T09:33:44Z</time>
      </trkpt>
      <trkpt lat="43.45253" lon="-0.36683">
        <ele>160.3</ele>
        <time>2026-08-31T09:33:45Z</time>
      </trkpt>
      <trkpt lat="43.45254" lon="-0.36683">
        <ele>160.3</ele>
        <time>2026-08-31T09:33:45Z</time>
      </trkpt>
      <trkpt lat="43.45254" lon="-0.36683">
        <ele>160.3</ele>
        <time>2026-08-31T09:33:46Z</time>
      </trkpt>
      <trkpt lat="43.45255" lon="-0.36684">
        <ele>160.3</ele>
        <time>2026-08-31T09:33:46Z</time>
      </trkpt>
      <trkpt lat="43.45256" lon="-0.36684">
        <ele>160.3</ele>
        <time>2026-08-31T09:33:47Z</time>
      </trkpt>
      <trkpt lat="43.45257" lon="-0.36684">
        <ele>160.3</ele>
        <time>2026-08-31T09:33:47Z</time>
      </trkpt>
      <trkpt lat="43.45257" lon="-0.36684">
        <ele>160.3</ele>
        <time>2026-08-31T09:33:48Z</time>
      </trkpt>
      <trkpt lat="43.45258" lon="-0.36684">
        <ele>160.3</ele>
        <time>2026-08-31T09:33:48Z</time>
      </trkpt>
      <trkpt lat="43.45258" lon="-0.36685">
        <ele>160.3</ele>
        <time>2026-08-31T09:33:49Z</time>
      </trkpt>
      <trkpt lat="43.45259" lon="-0.36685">
        <ele>160.3</ele>
        <time>2026-08-31T09:33:49Z</time>
      </trkpt>
      <trkpt lat="43.45259" lon="-0.36685">
        <ele>160.3</ele>
        <time>2026-08-31T09:33:50Z</time>
      </trkpt>
      <trkpt lat="43.4526" lon="-0.36685">
        <ele>160.3</ele>
        <time>2026-08-31T09:33:50Z</time>
      </trkpt>
      <trkpt lat="43.45261" lon="-0.36685">
        <ele>160.3</ele>
        <time>2026-08-31T09:33:51Z</time>
      </trkpt>
      <trkpt lat="43.45261" lon="-0.36686">
        <ele>160.3</ele>
        <time>2026-08-31T09:33:51Z</time>
      </trkpt>
      <trkpt lat="43.45262" lon="-0.36686">
        <ele>160.3</ele>
        <time>2026-08-31T09:33:52Z</time>
      </trkpt>
      <trkpt lat="43.45263" lon="-0.36686">
        <ele>160.3</ele>
        <time>2026-08-31T09:33:53Z</time>
      </trkpt>
      <trkpt lat="43.45263" lon="-0.36686">
        <ele>160.3</ele>
        <time>2026-08-31T09:33:53Z</time>
      </trkpt>
      <trkpt lat="43.45264" lon="-0.36686">
        <ele>160.3</ele>
        <time>2026-08-31T09:33:54Z</time>
      </trkpt>
      <trkpt lat="43.45265" lon="-0.36686">
        <ele>160.3</ele>
        <time>2026-08-31T09:33:54Z</time>
      </trkpt>
      <trkpt lat="43.45265" lon="-0.36687">
        <ele>160.3</ele>
        <time>2026-08-31T09:33:55Z</time>
      </trkpt>
      <trkpt lat="43.45266" lon="-0.36687">
        <ele>159.3</ele>
        <time>2026-08-31T09:33:55Z</time>
      </trkpt>
      <trkpt lat="43.45266" lon="-0.36687">
        <ele>160.3</ele>
        <time>2026-08-31T09:33:56Z</time>
      </trkpt>
      <trkpt lat="43.45267" lon="-0.36687">
        <ele>160.3</ele>
        <time>2026-08-31T09:33:56Z</time>
      </trkpt>
      <trkpt lat="43.45268" lon="-0.36688">
        <ele>160.3</ele>
        <time>2026-08-31T09:33:57Z</time>
      </trkpt>
      <trkpt lat="43.45269" lon="-0.36688">
        <ele>160.3</ele>
        <time>2026-08-31T09:33:57Z</time>
      </trkpt>
      <trkpt lat="43.45269" lon="-0.36688">
        <ele>160.3</ele>
        <time>2026-08-31T09:33:58Z</time>
      </trkpt>
      <trkpt lat="43.4527" lon="-0.36688">
        <ele>160.3</ele>
        <time>2026-08-31T09:33:58Z</time>
      </trkpt>
      <trkpt lat="43.4527" lon="-0.36689">
        <ele>160.3</ele>
        <time>2026-08-31T09:33:59Z</time>
      </trkpt>
      <trkpt lat="43.45271" lon="-0.36689">
        <ele>160.3</ele>
        <time>2026-08-31T09:33:59Z</time>
      </trkpt>
      <trkpt lat="43.45272" lon="-0.36689">
        <ele>159.3</ele>
        <time>2026-08-31T09:34:00Z</time>
      </trkpt>
      <trkpt lat="43.45273" lon="-0.36689">
        <ele>159.3</ele>
        <time>2026-08-31T09:34:00Z</time>
      </trkpt>
      <trkpt lat="43.45273" lon="-0.3669">
        <ele>160.3</ele>
        <time>2026-08-31T09:34:01Z</time>
      </trkpt>
      <trkpt lat="43.45274" lon="-0.3669">
        <ele>160.3</ele>
        <time>2026-08-31T09:34:02Z</time>
      </trkpt>
      <trkpt lat="43.45275" lon="-0.3669">
        <ele>160.3</ele>
        <time>2026-08-31T09:34:02Z</time>
      </trkpt>
      <trkpt lat="43.45275" lon="-0.36691">
        <ele>160.3</ele>
        <time>2026-08-31T09:34:03Z</time>
      </trkpt>
      <trkpt lat="43.45276" lon="-0.36691">
        <ele>160.3</ele>
        <time>2026-08-31T09:34:03Z</time>
      </trkpt>
      <trkpt lat="43.45277" lon="-0.36691">
        <ele>160.3</ele>
        <time>2026-08-31T09:34:04Z</time>
      </trkpt>
      <trkpt lat="43.45277" lon="-0.36692">
        <ele>159.3</ele>
        <time>2026-08-31T09:34:04Z</time>
      </trkpt>
      <trkpt lat="43.45278" lon="-0.36692">
        <ele>159.3</ele>
        <time>2026-08-31T09:34:05Z</time>
      </trkpt>
      <trkpt lat="43.45279" lon="-0.36692">
        <ele>159.3</ele>
        <time>2026-08-31T09:34:05Z</time>
      </trkpt>
      <trkpt lat="43.45279" lon="-0.36693">
        <ele>160.3</ele>
        <time>2026-08-31T09:34:06Z</time>
      </trkpt>
      <trkpt lat="43.4528" lon="-0.36693">
        <ele>160.3</ele>
        <time>2026-08-31T09:34:06Z</time>
      </trkpt>
      <trkpt lat="43.45281" lon="-0.36693">
        <ele>160.3</ele>
        <time>2026-08-31T09:34:07Z</time>
      </trkpt>
      <trkpt lat="43.45282" lon="-0.36694">
        <ele>160.3</ele>
        <time>2026-08-31T09:34:07Z</time>
      </trkpt>
      <trkpt lat="43.45282" lon="-0.36694">
        <ele>160.3</ele>
        <time>2026-08-31T09:34:08Z</time>
      </trkpt>
      <trkpt lat="43.45283" lon="-0.36694">
        <ele>160.3</ele>
        <time>2026-08-31T09:34:08Z</time>
      </trkpt>
      <trkpt lat="43.45284" lon="-0.36694">
        <ele>160.3</ele>
        <time>2026-08-31T09:34:09Z</time>
      </trkpt>
      <trkpt lat="43.45284" lon="-0.36695">
        <ele>160.3</ele>
        <time>2026-08-31T09:34:10Z</time>
      </trkpt>
      <trkpt lat="43.45285" lon="-0.36695">
        <ele>160.3</ele>
        <time>2026-08-31T09:34:10Z</time>
      </trkpt>
      <trkpt lat="43.45286" lon="-0.36695">
        <ele>160.3</ele>
        <time>2026-08-31T09:34:11Z</time>
      </trkpt>
      <trkpt lat="43.45286" lon="-0.36696">
        <ele>159.3</ele>
        <time>2026-08-31T09:34:11Z</time>
      </trkpt>
      <trkpt lat="43.45287" lon="-0.36696">
        <ele>159.3</ele>
        <time>2026-08-31T09:34:12Z</time>
      </trkpt>
      <trkpt lat="43.45287" lon="-0.36696">
        <ele>159.3</ele>
        <time>2026-08-31T09:34:12Z</time>
      </trkpt>
      <trkpt lat="43.45288" lon="-0.36697">
        <ele>159.3</ele>
        <time>2026-08-31T09:34:13Z</time>
      </trkpt>
      <trkpt lat="43.45289" lon="-0.36697">
        <ele>159.3</ele>
        <time>2026-08-31T09:34:13Z</time>
      </trkpt>
      <trkpt lat="43.4529" lon="-0.36697">
        <ele>159.3</ele>
        <time>2026-08-31T09:34:14Z</time>
      </trkpt>
      <trkpt lat="43.4529" lon="-0.36698">
        <ele>159.3</ele>
        <time>2026-08-31T09:34:14Z</time>
      </trkpt>
      <trkpt lat="43.45291" lon="-0.36698">
        <ele>159.3</ele>
        <time>2026-08-31T09:34:15Z</time>
      </trkpt>
      <trkpt lat="43.45291" lon="-0.36698">
        <ele>159.3</ele>
        <time>2026-08-31T09:34:15Z</time>
      </trkpt>
      <trkpt lat="43.45292" lon="-0.36698">
        <ele>159.3</ele>
        <time>2026-08-31T09:34:16Z</time>
      </trkpt>
      <trkpt lat="43.45293" lon="-0.36698">
        <ele>159.3</ele>
        <time>2026-08-31T09:34:16Z</time>
      </trkpt>
      <trkpt lat="43.45294" lon="-0.36698">
        <ele>159.3</ele>
        <time>2026-08-31T09:34:17Z</time>
      </trkpt>
      <trkpt lat="43.45294" lon="-0.36699">
        <ele>159.3</ele>
        <time>2026-08-31T09:34:18Z</time>
      </trkpt>
      <trkpt lat="43.45295" lon="-0.36699">
        <ele>159.3</ele>
        <time>2026-08-31T09:34:18Z</time>
      </trkpt>
      <trkpt lat="43.45295" lon="-0.36699">
        <ele>159.3</ele>
        <time>2026-08-31T09:34:19Z</time>
      </trkpt>
      <trkpt lat="43.45296" lon="-0.36699">
        <ele>159.3</ele>
        <time>2026-08-31T09:34:19Z</time>
      </trkpt>
      <trkpt lat="43.45297" lon="-0.36699">
        <ele>159.3</ele>
        <time>2026-08-31T09:34:20Z</time>
      </trkpt>
      <trkpt lat="43.45297" lon="-0.36699">
        <ele>159.3</ele>
        <time>2026-08-31T09:34:20Z</time>
      </trkpt>
      <trkpt lat="43.45298" lon="-0.36699">
        <ele>159.3</ele>
        <time>2026-08-31T09:34:21Z</time>
      </trkpt>
      <trkpt lat="43.45299" lon="-0.36699">
        <ele>159.3</ele>
        <time>2026-08-31T09:34:21Z</time>
      </trkpt>
      <trkpt lat="43.45299" lon="-0.36699">
        <ele>159.3</ele>
        <time>2026-08-31T09:34:22Z</time>
      </trkpt>
      <trkpt lat="43.453" lon="-0.36699">
        <ele>159.3</ele>
        <time>2026-08-31T09:34:22Z</time>
      </trkpt>
      <trkpt lat="43.45301" lon="-0.36699">
        <ele>159.3</ele>
        <time>2026-08-31T09:34:23Z</time>
      </trkpt>
      <trkpt lat="43.45302" lon="-0.36699">
        <ele>159.3</ele>
        <time>2026-08-31T09:34:23Z</time>
      </trkpt>
      <trkpt lat="43.45302" lon="-0.367">
        <ele>159.3</ele>
        <time>2026-08-31T09:34:24Z</time>
      </trkpt>
      <trkpt lat="43.45303" lon="-0.367">
        <ele>159.3</ele>
        <time>2026-08-31T09:34:24Z</time>
      </trkpt>
      <trkpt lat="43.45304" lon="-0.367">
        <ele>159.3</ele>
        <time>2026-08-31T09:34:25Z</time>
      </trkpt>
      <trkpt lat="43.45304" lon="-0.36701">
        <ele>159.3</ele>
        <time>2026-08-31T09:34:26Z</time>
      </trkpt>
      <trkpt lat="43.45305" lon="-0.36701">
        <ele>159.3</ele>
        <time>2026-08-31T09:34:26Z</time>
      </trkpt>
      <trkpt lat="43.45306" lon="-0.36701">
        <ele>159.3</ele>
        <time>2026-08-31T09:34:27Z</time>
      </trkpt>
      <trkpt lat="43.45306" lon="-0.36701">
        <ele>158.3</ele>
        <time>2026-08-31T09:34:27Z</time>
      </trkpt>
      <trkpt lat="43.45307" lon="-0.36702">
        <ele>158.3</ele>
        <time>2026-08-31T09:34:28Z</time>
      </trkpt>
      <trkpt lat="43.45308" lon="-0.36702">
        <ele>159.3</ele>
        <time>2026-08-31T09:34:28Z</time>
      </trkpt>
      <trkpt lat="43.45308" lon="-0.36702">
        <ele>159.3</ele>
        <time>2026-08-31T09:34:29Z</time>
      </trkpt>
      <trkpt lat="43.45309" lon="-0.36702">
        <ele>159.3</ele>
        <time>2026-08-31T09:34:29Z</time>
      </trkpt>
      <trkpt lat="43.4531" lon="-0.36703">
        <ele>159.3</ele>
        <time>2026-08-31T09:34:30Z</time>
      </trkpt>
      <trkpt lat="43.45311" lon="-0.36703">
        <ele>159.3</ele>
        <time>2026-08-31T09:34:30Z</time>
      </trkpt>
      <trkpt lat="43.45311" lon="-0.36703">
        <ele>159.3</ele>
        <time>2026-08-31T09:34:31Z</time>
      </trkpt>
      <trkpt lat="43.45312" lon="-0.36704">
        <ele>159.3</ele>
        <time>2026-08-31T09:34:31Z</time>
      </trkpt>
      <trkpt lat="43.45313" lon="-0.36704">
        <ele>159.3</ele>
        <time>2026-08-31T09:34:32Z</time>
      </trkpt>
      <trkpt lat="43.45314" lon="-0.36704">
        <ele>159.3</ele>
        <time>2026-08-31T09:34:32Z</time>
      </trkpt>
      <trkpt lat="43.45314" lon="-0.36705">
        <ele>159.3</ele>
        <time>2026-08-31T09:34:33Z</time>
      </trkpt>
      <trkpt lat="43.45315" lon="-0.36705">
        <ele>159.3</ele>
        <time>2026-08-31T09:34:34Z</time>
      </trkpt>
      <trkpt lat="43.45315" lon="-0.36705">
        <ele>160.3</ele>
        <time>2026-08-31T09:34:34Z</time>
      </trkpt>
      <trkpt lat="43.45316" lon="-0.36705">
        <ele>160.3</ele>
        <time>2026-08-31T09:34:35Z</time>
      </trkpt>
      <trkpt lat="43.45317" lon="-0.36706">
        <ele>159.3</ele>
        <time>2026-08-31T09:34:35Z</time>
      </trkpt>
      <trkpt lat="43.45317" lon="-0.36706">
        <ele>159.3</ele>
        <time>2026-08-31T09:34:36Z</time>
      </trkpt>
      <trkpt lat="43.45318" lon="-0.36706">
        <ele>160.3</ele>
        <time>2026-08-31T09:34:36Z</time>
      </trkpt>
      <trkpt lat="43.45319" lon="-0.36706">
        <ele>159.3</ele>
        <time>2026-08-31T09:34:37Z</time>
      </trkpt>
      <trkpt lat="43.4532" lon="-0.36706">
        <ele>159.3</ele>
        <time>2026-08-31T09:34:37Z</time>
      </trkpt>
      <trkpt lat="43.4532" lon="-0.36707">
        <ele>159.3</ele>
        <time>2026-08-31T09:34:38Z</time>
      </trkpt>
      <trkpt lat="43.45321" lon="-0.36707">
        <ele>159.3</ele>
        <time>2026-08-31T09:34:38Z</time>
      </trkpt>
      <trkpt lat="43.45322" lon="-0.36707">
        <ele>159.3</ele>
        <time>2026-08-31T09:34:39Z</time>
      </trkpt>
      <trkpt lat="43.45322" lon="-0.36707">
        <ele>159.3</ele>
        <time>2026-08-31T09:34:39Z</time>
      </trkpt>
      <trkpt lat="43.45323" lon="-0.36707">
        <ele>159.3</ele>
        <time>2026-08-31T09:34:40Z</time>
      </trkpt>
      <trkpt lat="43.45324" lon="-0.36708">
        <ele>159.3</ele>
        <time>2026-08-31T09:34:40Z</time>
      </trkpt>
      <trkpt lat="43.45325" lon="-0.36708">
        <ele>159.3</ele>
        <time>2026-08-31T09:34:41Z</time>
      </trkpt>
      <trkpt lat="43.45325" lon="-0.36708">
        <ele>159.3</ele>
        <time>2026-08-31T09:34:42Z</time>
      </trkpt>
      <trkpt lat="43.45326" lon="-0.36709">
        <ele>159.3</ele>
        <time>2026-08-31T09:34:42Z</time>
      </trkpt>
      <trkpt lat="43.45326" lon="-0.36709">
        <ele>159.3</ele>
        <time>2026-08-31T09:34:43Z</time>
      </trkpt>
      <trkpt lat="43.45327" lon="-0.36709">
        <ele>159.3</ele>
        <time>2026-08-31T09:34:43Z</time>
      </trkpt>
      <trkpt lat="43.45328" lon="-0.36709">
        <ele>159.3</ele>
        <time>2026-08-31T09:34:44Z</time>
      </trkpt>
      <trkpt lat="43.45328" lon="-0.3671">
        <ele>159.3</ele>
        <time>2026-08-31T09:34:44Z</time>
      </trkpt>
      <trkpt lat="43.45329" lon="-0.3671">
        <ele>159.3</ele>
        <time>2026-08-31T09:34:45Z</time>
      </trkpt>
      <trkpt lat="43.4533" lon="-0.3671">
        <ele>159.3</ele>
        <time>2026-08-31T09:34:45Z</time>
      </trkpt>
      <trkpt lat="43.4533" lon="-0.3671">
        <ele>159.3</ele>
        <time>2026-08-31T09:34:46Z</time>
      </trkpt>
      <trkpt lat="43.45331" lon="-0.36711">
        <ele>159.3</ele>
        <time>2026-08-31T09:34:46Z</time>
      </trkpt>
      <trkpt lat="43.45332" lon="-0.36711">
        <ele>159.3</ele>
        <time>2026-08-31T09:34:47Z</time>
      </trkpt>
      <trkpt lat="43.45332" lon="-0.36711">
        <ele>159.3</ele>
        <time>2026-08-31T09:34:47Z</time>
      </trkpt>
      <trkpt lat="43.45333" lon="-0.36711">
        <ele>159.3</ele>
        <time>2026-08-31T09:34:48Z</time>
      </trkpt>
      <trkpt lat="43.45334" lon="-0.36712">
        <ele>159.3</ele>
        <time>2026-08-31T09:34:48Z</time>
      </trkpt>
      <trkpt lat="43.45334" lon="-0.36712">
        <ele>159.3</ele>
        <time>2026-08-31T09:34:49Z</time>
      </trkpt>
      <trkpt lat="43.45335" lon="-0.36712">
        <ele>159.3</ele>
        <time>2026-08-31T09:34:50Z</time>
      </trkpt>
      <trkpt lat="43.45336" lon="-0.36712">
        <ele>159.3</ele>
        <time>2026-08-31T09:34:50Z</time>
      </trkpt>
      <trkpt lat="43.45336" lon="-0.36713">
        <ele>159.3</ele>
        <time>2026-08-31T09:34:51Z</time>
      </trkpt>
      <trkpt lat="43.45337" lon="-0.36713">
        <ele>159.3</ele>
        <time>2026-08-31T09:34:51Z</time>
      </trkpt>
      <trkpt lat="43.45337" lon="-0.36713">
        <ele>159.3</ele>
        <time>2026-08-31T09:34:52Z</time>
      </trkpt>
      <trkpt lat="43.45338" lon="-0.36713">
        <ele>159.3</ele>
        <time>2026-08-31T09:34:52Z</time>
      </trkpt>
      <trkpt lat="43.45339" lon="-0.36713">
        <ele>159.3</ele>
        <time>2026-08-31T09:34:53Z</time>
      </trkpt>
      <trkpt lat="43.4534" lon="-0.36713">
        <ele>159.3</ele>
        <time>2026-08-31T09:34:53Z</time>
      </trkpt>
      <trkpt lat="43.4534" lon="-0.36714">
        <ele>159.3</ele>
        <time>2026-08-31T09:34:54Z</time>
      </trkpt>
      <trkpt lat="43.45341" lon="-0.36714">
        <ele>159.3</ele>
        <time>2026-08-31T09:34:54Z</time>
      </trkpt>
      <trkpt lat="43.45342" lon="-0.36714">
        <ele>158.3</ele>
        <time>2026-08-31T09:34:55Z</time>
      </trkpt>
      <trkpt lat="43.45342" lon="-0.36714">
        <ele>158.3</ele>
        <time>2026-08-31T09:34:55Z</time>
      </trkpt>
      <trkpt lat="43.45343" lon="-0.36714">
        <ele>158.3</ele>
        <time>2026-08-31T09:34:56Z</time>
      </trkpt>
      <trkpt lat="43.45344" lon="-0.36715">
        <ele>158.3</ele>
        <time>2026-08-31T09:34:57Z</time>
      </trkpt>
      <trkpt lat="43.45345" lon="-0.36715">
        <ele>158.3</ele>
        <time>2026-08-31T09:34:57Z</time>
      </trkpt>
      <trkpt lat="43.45345" lon="-0.36715">
        <ele>158.3</ele>
        <time>2026-08-31T09:34:58Z</time>
      </trkpt>
      <trkpt lat="43.45346" lon="-0.36715">
        <ele>158.3</ele>
        <time>2026-08-31T09:34:58Z</time>
      </trkpt>
      <trkpt lat="43.45347" lon="-0.36716">
        <ele>158.3</ele>
        <time>2026-08-31T09:34:59Z</time>
      </trkpt>
      <trkpt lat="43.45347" lon="-0.36716">
        <ele>158.3</ele>
        <time>2026-08-31T09:34:59Z</time>
      </trkpt>
      <trkpt lat="43.45348" lon="-0.36716">
        <ele>158.3</ele>
        <time>2026-08-31T09:35:00Z</time>
      </trkpt>
      <trkpt lat="43.45349" lon="-0.36717">
        <ele>158.3</ele>
        <time>2026-08-31T09:35:00Z</time>
      </trkpt>
      <trkpt lat="43.45349" lon="-0.36717">
        <ele>158.3</ele>
        <time>2026-08-31T09:35:01Z</time>
      </trkpt>
      <trkpt lat="43.4535" lon="-0.36717">
        <ele>158.3</ele>
        <time>2026-08-31T09:35:01Z</time>
      </trkpt>
      <trkpt lat="43.45351" lon="-0.36718">
        <ele>158.3</ele>
        <time>2026-08-31T09:35:02Z</time>
      </trkpt>
      <trkpt lat="43.45351" lon="-0.36718">
        <ele>158.3</ele>
        <time>2026-08-31T09:35:02Z</time>
      </trkpt>
      <trkpt lat="43.45352" lon="-0.36719">
        <ele>158.3</ele>
        <time>2026-08-31T09:35:03Z</time>
      </trkpt>
      <trkpt lat="43.45353" lon="-0.36719">
        <ele>158.3</ele>
        <time>2026-08-31T09:35:04Z</time>
      </trkpt>
      <trkpt lat="43.45353" lon="-0.3672">
        <ele>158.3</ele>
        <time>2026-08-31T09:35:04Z</time>
      </trkpt>
      <trkpt lat="43.45354" lon="-0.3672">
        <ele>158.3</ele>
        <time>2026-08-31T09:35:05Z</time>
      </trkpt>
      <trkpt lat="43.45355" lon="-0.36721">
        <ele>158.3</ele>
        <time>2026-08-31T09:35:05Z</time>
      </trkpt>
      <trkpt lat="43.45355" lon="-0.36721">
        <ele>158.3</ele>
        <time>2026-08-31T09:35:06Z</time>
      </trkpt>
      <trkpt lat="43.45356" lon="-0.36721">
        <ele>158.3</ele>
        <time>2026-08-31T09:35:06Z</time>
      </trkpt>
      <trkpt lat="43.45357" lon="-0.36722">
        <ele>158.3</ele>
        <time>2026-08-31T09:35:07Z</time>
      </trkpt>
      <trkpt lat="43.45357" lon="-0.36722">
        <ele>158.3</ele>
        <time>2026-08-31T09:35:07Z</time>
      </trkpt>
      <trkpt lat="43.45358" lon="-0.36722">
        <ele>158.3</ele>
        <time>2026-08-31T09:35:08Z</time>
      </trkpt>
      <trkpt lat="43.45359" lon="-0.36723">
        <ele>158.3</ele>
        <time>2026-08-31T09:35:08Z</time>
      </trkpt>
      <trkpt lat="43.45359" lon="-0.36723">
        <ele>158.3</ele>
        <time>2026-08-31T09:35:09Z</time>
      </trkpt>
      <trkpt lat="43.4536" lon="-0.36723">
        <ele>158.3</ele>
        <time>2026-08-31T09:35:09Z</time>
      </trkpt>
      <trkpt lat="43.45361" lon="-0.36724">
        <ele>158.3</ele>
        <time>2026-08-31T09:35:10Z</time>
      </trkpt>
      <trkpt lat="43.45361" lon="-0.36724">
        <ele>158.3</ele>
        <time>2026-08-31T09:35:10Z</time>
      </trkpt>
      <trkpt lat="43.45362" lon="-0.36724">
        <ele>157.3</ele>
        <time>2026-08-31T09:35:11Z</time>
      </trkpt>
      <trkpt lat="43.45363" lon="-0.36725">
        <ele>157.3</ele>
        <time>2026-08-31T09:35:12Z</time>
      </trkpt>
      <trkpt lat="43.45363" lon="-0.36725">
        <ele>157.3</ele>
        <time>2026-08-31T09:35:12Z</time>
      </trkpt>
      <trkpt lat="43.45364" lon="-0.36725">
        <ele>157.3</ele>
        <time>2026-08-31T09:35:13Z</time>
      </trkpt>
      <trkpt lat="43.45365" lon="-0.36725">
        <ele>158.3</ele>
        <time>2026-08-31T09:35:13Z</time>
      </trkpt>
      <trkpt lat="43.45366" lon="-0.36726">
        <ele>158.3</ele>
        <time>2026-08-31T09:35:14Z</time>
      </trkpt>
      <trkpt lat="43.45366" lon="-0.36726">
        <ele>157.3</ele>
        <time>2026-08-31T09:35:14Z</time>
      </trkpt>
      <trkpt lat="43.45367" lon="-0.36726">
        <ele>157.3</ele>
        <time>2026-08-31T09:35:15Z</time>
      </trkpt>
      <trkpt lat="43.45368" lon="-0.36726">
        <ele>157.3</ele>
        <time>2026-08-31T09:35:15Z</time>
      </trkpt>
      <trkpt lat="43.45368" lon="-0.36727">
        <ele>158.3</ele>
        <time>2026-08-31T09:35:16Z</time>
      </trkpt>
      <trkpt lat="43.45369" lon="-0.36727">
        <ele>158.3</ele>
        <time>2026-08-31T09:35:16Z</time>
      </trkpt>
      <trkpt lat="43.4537" lon="-0.36727">
        <ele>158.3</ele>
        <time>2026-08-31T09:35:17Z</time>
      </trkpt>
      <trkpt lat="43.4537" lon="-0.36727">
        <ele>158.3</ele>
        <time>2026-08-31T09:35:17Z</time>
      </trkpt>
      <trkpt lat="43.45371" lon="-0.36727">
        <ele>158.3</ele>
        <time>2026-08-31T09:35:18Z</time>
      </trkpt>
      <trkpt lat="43.45372" lon="-0.36727">
        <ele>158.3</ele>
        <time>2026-08-31T09:35:19Z</time>
      </trkpt>
      <trkpt lat="43.45372" lon="-0.36728">
        <ele>158.3</ele>
        <time>2026-08-31T09:35:19Z</time>
      </trkpt>
      <trkpt lat="43.45373" lon="-0.36728">
        <ele>158.3</ele>
        <time>2026-08-31T09:35:20Z</time>
      </trkpt>
      <trkpt lat="43.45373" lon="-0.36729">
        <ele>158.3</ele>
        <time>2026-08-31T09:35:20Z</time>
      </trkpt>
      <trkpt lat="43.45374" lon="-0.36729">
        <ele>158.3</ele>
        <time>2026-08-31T09:35:21Z</time>
      </trkpt>
      <trkpt lat="43.45375" lon="-0.36729">
        <ele>158.3</ele>
        <time>2026-08-31T09:35:21Z</time>
      </trkpt>
      <trkpt lat="43.45375" lon="-0.3673">
        <ele>158.3</ele>
        <time>2026-08-31T09:35:22Z</time>
      </trkpt>
      <trkpt lat="43.45376" lon="-0.3673">
        <ele>158.3</ele>
        <time>2026-08-31T09:35:22Z</time>
      </trkpt>
      <trkpt lat="43.45376" lon="-0.3673">
        <ele>159.3</ele>
        <time>2026-08-31T09:35:23Z</time>
      </trkpt>
      <trkpt lat="43.45377" lon="-0.36731">
        <ele>159.3</ele>
        <time>2026-08-31T09:35:23Z</time>
      </trkpt>
      <trkpt lat="43.45378" lon="-0.36731">
        <ele>159.3</ele>
        <time>2026-08-31T09:35:24Z</time>
      </trkpt>
      <trkpt lat="43.45378" lon="-0.36731">
        <ele>159.3</ele>
        <time>2026-08-31T09:35:24Z</time>
      </trkpt>
      <trkpt lat="43.45379" lon="-0.36731">
        <ele>159.3</ele>
        <time>2026-08-31T09:35:25Z</time>
      </trkpt>
      <trkpt lat="43.4538" lon="-0.36732">
        <ele>159.3</ele>
        <time>2026-08-31T09:35:26Z</time>
      </trkpt>
      <trkpt lat="43.45381" lon="-0.36732">
        <ele>158.3</ele>
        <time>2026-08-31T09:35:26Z</time>
      </trkpt>
      <trkpt lat="43.45381" lon="-0.36732">
        <ele>158.3</ele>
        <time>2026-08-31T09:35:27Z</time>
      </trkpt>
      <trkpt lat="43.45382" lon="-0.36732">
        <ele>159.3</ele>
        <time>2026-08-31T09:35:27Z</time>
      </trkpt>
      <trkpt lat="43.45382" lon="-0.36733">
        <ele>159.3</ele>
        <time>2026-08-31T09:35:28Z</time>
      </trkpt>
      <trkpt lat="43.45383" lon="-0.36733">
        <ele>159.3</ele>
        <time>2026-08-31T09:35:28Z</time>
      </trkpt>
      <trkpt lat="43.45384" lon="-0.36733">
        <ele>159.3</ele>
        <time>2026-08-31T09:35:29Z</time>
      </trkpt>
      <trkpt lat="43.45384" lon="-0.36734">
        <ele>159.3</ele>
        <time>2026-08-31T09:35:29Z</time>
      </trkpt>
      <trkpt lat="43.45385" lon="-0.36734">
        <ele>159.3</ele>
        <time>2026-08-31T09:35:30Z</time>
      </trkpt>
      <trkpt lat="43.45386" lon="-0.36734">
        <ele>159.3</ele>
        <time>2026-08-31T09:35:30Z</time>
      </trkpt>
      <trkpt lat="43.45386" lon="-0.36734">
        <ele>159.3</ele>
        <time>2026-08-31T09:35:31Z</time>
      </trkpt>
      <trkpt lat="43.45387" lon="-0.36735">
        <ele>159.3</ele>
        <time>2026-08-31T09:35:31Z</time>
      </trkpt>
      <trkpt lat="43.45387" lon="-0.36735">
        <ele>159.3</ele>
        <time>2026-08-31T09:35:32Z</time>
      </trkpt>
      <trkpt lat="43.45388" lon="-0.36735">
        <ele>159.3</ele>
        <time>2026-08-31T09:35:33Z</time>
      </trkpt>
      <trkpt lat="43.45389" lon="-0.36735">
        <ele>159.3</ele>
        <time>2026-08-31T09:35:33Z</time>
      </trkpt>
      <trkpt lat="43.4539" lon="-0.36736">
        <ele>159.3</ele>
        <time>2026-08-31T09:35:34Z</time>
      </trkpt>
      <trkpt lat="43.4539" lon="-0.36736">
        <ele>160.3</ele>
        <time>2026-08-31T09:35:34Z</time>
      </trkpt>
      <trkpt lat="43.45391" lon="-0.36736">
        <ele>160.3</ele>
        <time>2026-08-31T09:35:35Z</time>
      </trkpt>
      <trkpt lat="43.45391" lon="-0.36737">
        <ele>160.3</ele>
        <time>2026-08-31T09:35:35Z</time>
      </trkpt>
      <trkpt lat="43.45392" lon="-0.36737">
        <ele>159.3</ele>
        <time>2026-08-31T09:35:36Z</time>
      </trkpt>
      <trkpt lat="43.45393" lon="-0.36737">
        <ele>159.3</ele>
        <time>2026-08-31T09:35:36Z</time>
      </trkpt>
      <trkpt lat="43.45393" lon="-0.36738">
        <ele>159.3</ele>
        <time>2026-08-31T09:35:37Z</time>
      </trkpt>
      <trkpt lat="43.45394" lon="-0.36738">
        <ele>160.3</ele>
        <time>2026-08-31T09:35:37Z</time>
      </trkpt>
      <trkpt lat="43.45395" lon="-0.36738">
        <ele>160.3</ele>
        <time>2026-08-31T09:35:38Z</time>
      </trkpt>
      <trkpt lat="43.45395" lon="-0.36738">
        <ele>160.3</ele>
        <time>2026-08-31T09:35:38Z</time>
      </trkpt>
      <trkpt lat="43.45396" lon="-0.36738">
        <ele>159.3</ele>
        <time>2026-08-31T09:35:39Z</time>
      </trkpt>
      <trkpt lat="43.45397" lon="-0.36739">
        <ele>159.3</ele>
        <time>2026-08-31T09:35:39Z</time>
      </trkpt>
      <trkpt lat="43.45397" lon="-0.36738">
        <ele>159.3</ele>
        <time>2026-08-31T09:35:40Z</time>
      </trkpt>
      <trkpt lat="43.45398" lon="-0.36739">
        <ele>159.3</ele>
        <time>2026-08-31T09:35:40Z</time>
      </trkpt>
      <trkpt lat="43.45399" lon="-0.36739">
        <ele>160.3</ele>
        <time>2026-08-31T09:35:41Z</time>
      </trkpt>
      <trkpt lat="43.454" lon="-0.36739">
        <ele>160.3</ele>
        <time>2026-08-31T09:35:42Z</time>
      </trkpt>
      <trkpt lat="43.45401" lon="-0.36739">
        <ele>159.3</ele>
        <time>2026-08-31T09:35:42Z</time>
      </trkpt>
      <trkpt lat="43.45401" lon="-0.36739">
        <ele>159.3</ele>
        <time>2026-08-31T09:35:43Z</time>
      </trkpt>
      <trkpt lat="43.45402" lon="-0.36739">
        <ele>159.3</ele>
        <time>2026-08-31T09:35:43Z</time>
      </trkpt>
      <trkpt lat="43.45403" lon="-0.3674">
        <ele>159.3</ele>
        <time>2026-08-31T09:35:44Z</time>
      </trkpt>
      <trkpt lat="43.45403" lon="-0.3674">
        <ele>159.3</ele>
        <time>2026-08-31T09:35:44Z</time>
      </trkpt>
      <trkpt lat="43.45404" lon="-0.3674">
        <ele>159.3</ele>
        <time>2026-08-31T09:35:45Z</time>
      </trkpt>
      <trkpt lat="43.45405" lon="-0.3674">
        <ele>159.3</ele>
        <time>2026-08-31T09:35:45Z</time>
      </trkpt>
      <trkpt lat="43.45405" lon="-0.3674">
        <ele>160.3</ele>
        <time>2026-08-31T09:35:46Z</time>
      </trkpt>
      <trkpt lat="43.45406" lon="-0.36741">
        <ele>160.3</ele>
        <time>2026-08-31T09:35:46Z</time>
      </trkpt>
      <trkpt lat="43.45407" lon="-0.36741">
        <ele>160.3</ele>
        <time>2026-08-31T09:35:47Z</time>
      </trkpt>
      <trkpt lat="43.45407" lon="-0.36741">
        <ele>160.3</ele>
        <time>2026-08-31T09:35:47Z</time>
      </trkpt>
      <trkpt lat="43.45408" lon="-0.36741">
        <ele>160.3</ele>
        <time>2026-08-31T09:35:48Z</time>
      </trkpt>
      <trkpt lat="43.45409" lon="-0.36742">
        <ele>160.3</ele>
        <time>2026-08-31T09:35:48Z</time>
      </trkpt>
      <trkpt lat="43.4541" lon="-0.36742">
        <ele>160.3</ele>
        <time>2026-08-31T09:35:49Z</time>
      </trkpt>
      <trkpt lat="43.4541" lon="-0.36742">
        <ele>160.3</ele>
        <time>2026-08-31T09:35:49Z</time>
      </trkpt>
      <trkpt lat="43.45411" lon="-0.36742">
        <ele>160.3</ele>
        <time>2026-08-31T09:35:50Z</time>
      </trkpt>
      <trkpt lat="43.45412" lon="-0.36743">
        <ele>160.3</ele>
        <time>2026-08-31T09:35:51Z</time>
      </trkpt>
      <trkpt lat="43.45413" lon="-0.36743">
        <ele>160.3</ele>
        <time>2026-08-31T09:35:51Z</time>
      </trkpt>
      <trkpt lat="43.45413" lon="-0.36743">
        <ele>160.3</ele>
        <time>2026-08-31T09:35:52Z</time>
      </trkpt>
      <trkpt lat="43.45414" lon="-0.36744">
        <ele>160.3</ele>
        <time>2026-08-31T09:35:52Z</time>
      </trkpt>
      <trkpt lat="43.45415" lon="-0.36744">
        <ele>160.3</ele>
        <time>2026-08-31T09:35:53Z</time>
      </trkpt>
      <trkpt lat="43.45416" lon="-0.36744">
        <ele>160.3</ele>
        <time>2026-08-31T09:35:53Z</time>
      </trkpt>
      <trkpt lat="43.45416" lon="-0.36745">
        <ele>159.3</ele>
        <time>2026-08-31T09:35:54Z</time>
      </trkpt>
      <trkpt lat="43.45417" lon="-0.36745">
        <ele>159.3</ele>
        <time>2026-08-31T09:35:54Z</time>
      </trkpt>
      <trkpt lat="43.45418" lon="-0.36745">
        <ele>159.3</ele>
        <time>2026-08-31T09:35:55Z</time>
      </trkpt>
      <trkpt lat="43.45418" lon="-0.36746">
        <ele>159.3</ele>
        <time>2026-08-31T09:35:56Z</time>
      </trkpt>
      <trkpt lat="43.45419" lon="-0.36746">
        <ele>159.3</ele>
        <time>2026-08-31T09:35:56Z</time>
      </trkpt>
      <trkpt lat="43.4542" lon="-0.36746">
        <ele>159.3</ele>
        <time>2026-08-31T09:35:57Z</time>
      </trkpt>
      <trkpt lat="43.4542" lon="-0.36747">
        <ele>159.3</ele>
        <time>2026-08-31T09:35:57Z</time>
      </trkpt>
      <trkpt lat="43.45421" lon="-0.36747">
        <ele>159.3</ele>
        <time>2026-08-31T09:35:58Z</time>
      </trkpt>
      <trkpt lat="43.45422" lon="-0.36747">
        <ele>159.3</ele>
        <time>2026-08-31T09:35:58Z</time>
      </trkpt>
      <trkpt lat="43.45422" lon="-0.36747">
        <ele>160.3</ele>
        <time>2026-08-31T09:35:59Z</time>
      </trkpt>
      <trkpt lat="43.45423" lon="-0.36748">
        <ele>160.3</ele>
        <time>2026-08-31T09:35:59Z</time>
      </trkpt>
      <trkpt lat="43.45424" lon="-0.36748">
        <ele>159.3</ele>
        <time>2026-08-31T09:36:00Z</time>
      </trkpt>
      <trkpt lat="43.45425" lon="-0.36748">
        <ele>159.3</ele>
        <time>2026-08-31T09:36:00Z</time>
      </trkpt>
      <trkpt lat="43.45425" lon="-0.36748">
        <ele>160.3</ele>
        <time>2026-08-31T09:36:01Z</time>
      </trkpt>
      <trkpt lat="43.45426" lon="-0.36748">
        <ele>160.3</ele>
        <time>2026-08-31T09:36:01Z</time>
      </trkpt>
      <trkpt lat="43.45427" lon="-0.36748">
        <ele>160.3</ele>
        <time>2026-08-31T09:36:02Z</time>
      </trkpt>
      <trkpt lat="43.45427" lon="-0.36748">
        <ele>160.3</ele>
        <time>2026-08-31T09:36:03Z</time>
      </trkpt>
      <trkpt lat="43.45428" lon="-0.36748">
        <ele>160.3</ele>
        <time>2026-08-31T09:36:03Z</time>
      </trkpt>
      <trkpt lat="43.45429" lon="-0.36748">
        <ele>160.3</ele>
        <time>2026-08-31T09:36:04Z</time>
      </trkpt>
      <trkpt lat="43.45429" lon="-0.36748">
        <ele>160.3</ele>
        <time>2026-08-31T09:36:04Z</time>
      </trkpt>
      <trkpt lat="43.4543" lon="-0.36748">
        <ele>160.3</ele>
        <time>2026-08-31T09:36:05Z</time>
      </trkpt>
      <trkpt lat="43.4543" lon="-0.36749">
        <ele>160.3</ele>
        <time>2026-08-31T09:36:05Z</time>
      </trkpt>
      <trkpt lat="43.45431" lon="-0.36749">
        <ele>159.3</ele>
        <time>2026-08-31T09:36:06Z</time>
      </trkpt>
      <trkpt lat="43.45431" lon="-0.36749">
        <ele>159.3</ele>
        <time>2026-08-31T09:36:06Z</time>
      </trkpt>
      <trkpt lat="43.45432" lon="-0.36749">
        <ele>159.3</ele>
        <time>2026-08-31T09:36:07Z</time>
      </trkpt>
      <trkpt lat="43.45432" lon="-0.36749">
        <ele>159.3</ele>
        <time>2026-08-31T09:36:07Z</time>
      </trkpt>
      <trkpt lat="43.45433" lon="-0.3675">
        <ele>160.3</ele>
        <time>2026-08-31T09:36:08Z</time>
      </trkpt>
      <trkpt lat="43.45433" lon="-0.3675">
        <ele>160.3</ele>
        <time>2026-08-31T09:36:08Z</time>
      </trkpt>
      <trkpt lat="43.45434" lon="-0.3675">
        <ele>159.3</ele>
        <time>2026-08-31T09:36:09Z</time>
      </trkpt>
      <trkpt lat="43.45435" lon="-0.3675">
        <ele>159.3</ele>
        <time>2026-08-31T09:36:10Z</time>
      </trkpt>
      <trkpt lat="43.45435" lon="-0.36751">
        <ele>159.3</ele>
        <time>2026-08-31T09:36:10Z</time>
      </trkpt>
      <trkpt lat="43.45436" lon="-0.36751">
        <ele>159.3</ele>
        <time>2026-08-31T09:36:11Z</time>
      </trkpt>
      <trkpt lat="43.45436" lon="-0.36751">
        <ele>159.3</ele>
        <time>2026-08-31T09:36:11Z</time>
      </trkpt>
      <trkpt lat="43.45437" lon="-0.36752">
        <ele>159.3</ele>
        <time>2026-08-31T09:36:12Z</time>
      </trkpt>
      <trkpt lat="43.45438" lon="-0.36752">
        <ele>158.3</ele>
        <time>2026-08-31T09:36:12Z</time>
      </trkpt>
      <trkpt lat="43.45438" lon="-0.36753">
        <ele>159.3</ele>
        <time>2026-08-31T09:36:13Z</time>
      </trkpt>
      <trkpt lat="43.45439" lon="-0.36753">
        <ele>159.3</ele>
        <time>2026-08-31T09:36:13Z</time>
      </trkpt>
      <trkpt lat="43.45439" lon="-0.36753">
        <ele>159.3</ele>
        <time>2026-08-31T09:36:14Z</time>
      </trkpt>
      <trkpt lat="43.4544" lon="-0.36754">
        <ele>159.3</ele>
        <time>2026-08-31T09:36:14Z</time>
      </trkpt>
      <trkpt lat="43.45441" lon="-0.36754">
        <ele>159.3</ele>
        <time>2026-08-31T09:36:15Z</time>
      </trkpt>
      <trkpt lat="43.45441" lon="-0.36755">
        <ele>159.3</ele>
        <time>2026-08-31T09:36:15Z</time>
      </trkpt>
      <trkpt lat="43.45442" lon="-0.36755">
        <ele>158.3</ele>
        <time>2026-08-31T09:36:16Z</time>
      </trkpt>
      <trkpt lat="43.45442" lon="-0.36755">
        <ele>158.3</ele>
        <time>2026-08-31T09:36:17Z</time>
      </trkpt>
      <trkpt lat="43.45443" lon="-0.36756">
        <ele>158.3</ele>
        <time>2026-08-31T09:36:17Z</time>
      </trkpt>
      <trkpt lat="43.45444" lon="-0.36756">
        <ele>158.3</ele>
        <time>2026-08-31T09:36:18Z</time>
      </trkpt>
      <trkpt lat="43.45444" lon="-0.36756">
        <ele>159.3</ele>
        <time>2026-08-31T09:36:18Z</time>
      </trkpt>
      <trkpt lat="43.45445" lon="-0.36756">
        <ele>159.3</ele>
        <time>2026-08-31T09:36:19Z</time>
      </trkpt>
      <trkpt lat="43.45446" lon="-0.36757">
        <ele>159.3</ele>
        <time>2026-08-31T09:36:19Z</time>
      </trkpt>
      <trkpt lat="43.45446" lon="-0.36757">
        <ele>159.3</ele>
        <time>2026-08-31T09:36:20Z</time>
      </trkpt>
      <trkpt lat="43.45447" lon="-0.36757">
        <ele>159.3</ele>
        <time>2026-08-31T09:36:20Z</time>
      </trkpt>
      <trkpt lat="43.45447" lon="-0.36757">
        <ele>158.3</ele>
        <time>2026-08-31T09:36:21Z</time>
      </trkpt>
      <trkpt lat="43.45448" lon="-0.36758">
        <ele>158.3</ele>
        <time>2026-08-31T09:36:21Z</time>
      </trkpt>
      <trkpt lat="43.45449" lon="-0.36758">
        <ele>158.3</ele>
        <time>2026-08-31T09:36:22Z</time>
      </trkpt>
      <trkpt lat="43.45449" lon="-0.36758">
        <ele>158.3</ele>
        <time>2026-08-31T09:36:22Z</time>
      </trkpt>
      <trkpt lat="43.4545" lon="-0.36759">
        <ele>158.3</ele>
        <time>2026-08-31T09:36:23Z</time>
      </trkpt>
      <trkpt lat="43.45451" lon="-0.36759">
        <ele>158.3</ele>
        <time>2026-08-31T09:36:23Z</time>
      </trkpt>
      <trkpt lat="43.45451" lon="-0.3676">
        <ele>158.3</ele>
        <time>2026-08-31T09:36:24Z</time>
      </trkpt>
      <trkpt lat="43.45452" lon="-0.3676">
        <ele>158.3</ele>
        <time>2026-08-31T09:36:25Z</time>
      </trkpt>
      <trkpt lat="43.45452" lon="-0.36761">
        <ele>158.3</ele>
        <time>2026-08-31T09:36:25Z</time>
      </trkpt>
      <trkpt lat="43.45453" lon="-0.36762">
        <ele>158.3</ele>
        <time>2026-08-31T09:36:26Z</time>
      </trkpt>
      <trkpt lat="43.45454" lon="-0.36762">
        <ele>158.3</ele>
        <time>2026-08-31T09:36:26Z</time>
      </trkpt>
      <trkpt lat="43.45454" lon="-0.36763">
        <ele>158.3</ele>
        <time>2026-08-31T09:36:27Z</time>
      </trkpt>
      <trkpt lat="43.45455" lon="-0.36763">
        <ele>158.3</ele>
        <time>2026-08-31T09:36:27Z</time>
      </trkpt>
      <trkpt lat="43.45455" lon="-0.36763">
        <ele>158.3</ele>
        <time>2026-08-31T09:36:28Z</time>
      </trkpt>
      <trkpt lat="43.45456" lon="-0.36764">
        <ele>158.3</ele>
        <time>2026-08-31T09:36:28Z</time>
      </trkpt>
      <trkpt lat="43.45457" lon="-0.36764">
        <ele>158.3</ele>
        <time>2026-08-31T09:36:29Z</time>
      </trkpt>
      <trkpt lat="43.45457" lon="-0.36764">
        <ele>158.3</ele>
        <time>2026-08-31T09:36:29Z</time>
      </trkpt>
      <trkpt lat="43.45458" lon="-0.36765">
        <ele>158.3</ele>
        <time>2026-08-31T09:36:30Z</time>
      </trkpt>
      <trkpt lat="43.45459" lon="-0.36765">
        <ele>158.3</ele>
        <time>2026-08-31T09:36:30Z</time>
      </trkpt>
      <trkpt lat="43.45459" lon="-0.36765">
        <ele>158.3</ele>
        <time>2026-08-31T09:36:31Z</time>
      </trkpt>
      <trkpt lat="43.4546" lon="-0.36766">
        <ele>158.3</ele>
        <time>2026-08-31T09:36:32Z</time>
      </trkpt>
      <trkpt lat="43.4546" lon="-0.36766">
        <ele>158.3</ele>
        <time>2026-08-31T09:36:32Z</time>
      </trkpt>
      <trkpt lat="43.45461" lon="-0.36766">
        <ele>158.3</ele>
        <time>2026-08-31T09:36:33Z</time>
      </trkpt>
      <trkpt lat="43.45461" lon="-0.36767">
        <ele>158.3</ele>
        <time>2026-08-31T09:36:33Z</time>
      </trkpt>
      <trkpt lat="43.45462" lon="-0.36767">
        <ele>159.3</ele>
        <time>2026-08-31T09:36:34Z</time>
      </trkpt>
      <trkpt lat="43.45463" lon="-0.36767">
        <ele>159.3</ele>
        <time>2026-08-31T09:36:34Z</time>
      </trkpt>
      <trkpt lat="43.45463" lon="-0.36767">
        <ele>158.3</ele>
        <time>2026-08-31T09:36:35Z</time>
      </trkpt>
      <trkpt lat="43.45464" lon="-0.36767">
        <ele>158.3</ele>
        <time>2026-08-31T09:36:35Z</time>
      </trkpt>
      <trkpt lat="43.45465" lon="-0.36767">
        <ele>159.3</ele>
        <time>2026-08-31T09:36:36Z</time>
      </trkpt>
      <trkpt lat="43.45465" lon="-0.36767">
        <ele>159.3</ele>
        <time>2026-08-31T09:36:36Z</time>
      </trkpt>
      <trkpt lat="43.45466" lon="-0.36767">
        <ele>159.3</ele>
        <time>2026-08-31T09:36:37Z</time>
      </trkpt>
      <trkpt lat="43.45467" lon="-0.36767">
        <ele>159.3</ele>
        <time>2026-08-31T09:36:38Z</time>
      </trkpt>
      <trkpt lat="43.45467" lon="-0.36767">
        <ele>159.3</ele>
        <time>2026-08-31T09:36:38Z</time>
      </trkpt>
      <trkpt lat="43.45468" lon="-0.36767">
        <ele>159.3</ele>
        <time>2026-08-31T09:36:39Z</time>
      </trkpt>
      <trkpt lat="43.45469" lon="-0.36766">
        <ele>159.3</ele>
        <time>2026-08-31T09:36:39Z</time>
      </trkpt>
      <trkpt lat="43.45469" lon="-0.36766">
        <ele>159.3</ele>
        <time>2026-08-31T09:36:40Z</time>
      </trkpt>
      <trkpt lat="43.4547" lon="-0.36766">
        <ele>159.3</ele>
        <time>2026-08-31T09:36:40Z</time>
      </trkpt>
      <trkpt lat="43.45471" lon="-0.36766">
        <ele>159.3</ele>
        <time>2026-08-31T09:36:41Z</time>
      </trkpt>
      <trkpt lat="43.45472" lon="-0.36766">
        <ele>159.3</ele>
        <time>2026-08-31T09:36:41Z</time>
      </trkpt>
      <trkpt lat="43.45472" lon="-0.36766">
        <ele>159.3</ele>
        <time>2026-08-31T09:36:42Z</time>
      </trkpt>
      <trkpt lat="43.45473" lon="-0.36766">
        <ele>159.3</ele>
        <time>2026-08-31T09:36:42Z</time>
      </trkpt>
      <trkpt lat="43.45474" lon="-0.36766">
        <ele>159.3</ele>
        <time>2026-08-31T09:36:43Z</time>
      </trkpt>
      <trkpt lat="43.45474" lon="-0.36766">
        <ele>159.3</ele>
        <time>2026-08-31T09:36:43Z</time>
      </trkpt>
      <trkpt lat="43.45475" lon="-0.36767">
        <ele>159.3</ele>
        <time>2026-08-31T09:36:44Z</time>
      </trkpt>
      <trkpt lat="43.45476" lon="-0.36767">
        <ele>159.3</ele>
        <time>2026-08-31T09:36:44Z</time>
      </trkpt>
      <trkpt lat="43.45476" lon="-0.36767">
        <ele>159.3</ele>
        <time>2026-08-31T09:36:45Z</time>
      </trkpt>
      <trkpt lat="43.45477" lon="-0.36767">
        <ele>159.3</ele>
        <time>2026-08-31T09:36:46Z</time>
      </trkpt>
      <trkpt lat="43.45478" lon="-0.36767">
        <ele>158.3</ele>
        <time>2026-08-31T09:36:46Z</time>
      </trkpt>
      <trkpt lat="43.45479" lon="-0.36767">
        <ele>158.3</ele>
        <time>2026-08-31T09:36:47Z</time>
      </trkpt>
      <trkpt lat="43.45479" lon="-0.36768">
        <ele>159.3</ele>
        <time>2026-08-31T09:36:47Z</time>
      </trkpt>
      <trkpt lat="43.4548" lon="-0.36768">
        <ele>159.3</ele>
        <time>2026-08-31T09:36:48Z</time>
      </trkpt>
      <trkpt lat="43.45481" lon="-0.36768">
        <ele>158.3</ele>
        <time>2026-08-31T09:36:48Z</time>
      </trkpt>
      <trkpt lat="43.45481" lon="-0.36769">
        <ele>158.3</ele>
        <time>2026-08-31T09:36:49Z</time>
      </trkpt>
      <trkpt lat="43.45482" lon="-0.36769">
        <ele>158.3</ele>
        <time>2026-08-31T09:36:49Z</time>
      </trkpt>
      <trkpt lat="43.45483" lon="-0.36769">
        <ele>158.3</ele>
        <time>2026-08-31T09:36:50Z</time>
      </trkpt>
      <trkpt lat="43.45484" lon="-0.36769">
        <ele>158.3</ele>
        <time>2026-08-31T09:36:50Z</time>
      </trkpt>
      <trkpt lat="43.45484" lon="-0.36769">
        <ele>158.3</ele>
        <time>2026-08-31T09:36:51Z</time>
      </trkpt>
      <trkpt lat="43.45485" lon="-0.3677">
        <ele>158.3</ele>
        <time>2026-08-31T09:36:51Z</time>
      </trkpt>
      <trkpt lat="43.45486" lon="-0.3677">
        <ele>158.3</ele>
        <time>2026-08-31T09:36:52Z</time>
      </trkpt>
      <trkpt lat="43.45486" lon="-0.3677">
        <ele>158.3</ele>
        <time>2026-08-31T09:36:52Z</time>
      </trkpt>
      <trkpt lat="43.45487" lon="-0.3677">
        <ele>158.3</ele>
        <time>2026-08-31T09:36:53Z</time>
      </trkpt>
      <trkpt lat="43.45488" lon="-0.36771">
        <ele>158.3</ele>
        <time>2026-08-31T09:36:53Z</time>
      </trkpt>
      <trkpt lat="43.45489" lon="-0.36771">
        <ele>158.3</ele>
        <time>2026-08-31T09:36:54Z</time>
      </trkpt>
      <trkpt lat="43.45489" lon="-0.36771">
        <ele>158.3</ele>
        <time>2026-08-31T09:36:55Z</time>
      </trkpt>
      <trkpt lat="43.4549" lon="-0.36772">
        <ele>158.3</ele>
        <time>2026-08-31T09:36:55Z</time>
      </trkpt>
      <trkpt lat="43.45491" lon="-0.36772">
        <ele>158.3</ele>
        <time>2026-08-31T09:36:56Z</time>
      </trkpt>
      <trkpt lat="43.45491" lon="-0.36772">
        <ele>158.3</ele>
        <time>2026-08-31T09:36:56Z</time>
      </trkpt>
      <trkpt lat="43.45492" lon="-0.36772">
        <ele>158.3</ele>
        <time>2026-08-31T09:36:57Z</time>
      </trkpt>
      <trkpt lat="43.45493" lon="-0.36772">
        <ele>157.3</ele>
        <time>2026-08-31T09:36:57Z</time>
      </trkpt>
      <trkpt lat="43.45494" lon="-0.36773">
        <ele>157.3</ele>
        <time>2026-08-31T09:36:58Z</time>
      </trkpt>
      <trkpt lat="43.45494" lon="-0.36773">
        <ele>157.3</ele>
        <time>2026-08-31T09:36:58Z</time>
      </trkpt>
      <trkpt lat="43.45495" lon="-0.36773">
        <ele>157.3</ele>
        <time>2026-08-31T09:36:59Z</time>
      </trkpt>
      <trkpt lat="43.45496" lon="-0.36774">
        <ele>157.3</ele>
        <time>2026-08-31T09:36:59Z</time>
      </trkpt>
      <trkpt lat="43.45496" lon="-0.36774">
        <ele>157.3</ele>
        <time>2026-08-31T09:37:00Z</time>
      </trkpt>
      <trkpt lat="43.45497" lon="-0.36774">
        <ele>157.3</ele>
        <time>2026-08-31T09:37:00Z</time>
      </trkpt>
      <trkpt lat="43.45498" lon="-0.36775">
        <ele>157.3</ele>
        <time>2026-08-31T09:37:01Z</time>
      </trkpt>
      <trkpt lat="43.45498" lon="-0.36775">
        <ele>157.3</ele>
        <time>2026-08-31T09:37:01Z</time>
      </trkpt>
      <trkpt lat="43.45499" lon="-0.36776">
        <ele>157.3</ele>
        <time>2026-08-31T09:37:02Z</time>
      </trkpt>
      <trkpt lat="43.455" lon="-0.36776">
        <ele>157.3</ele>
        <time>2026-08-31T09:37:03Z</time>
      </trkpt>
      <trkpt lat="43.45501" lon="-0.36776">
        <ele>157.3</ele>
        <time>2026-08-31T09:37:03Z</time>
      </trkpt>
      <trkpt lat="43.45501" lon="-0.36777">
        <ele>157.3</ele>
        <time>2026-08-31T09:37:04Z</time>
      </trkpt>
      <trkpt lat="43.45502" lon="-0.36777">
        <ele>157.3</ele>
        <time>2026-08-31T09:37:04Z</time>
      </trkpt>
      <trkpt lat="43.45502" lon="-0.36777">
        <ele>157.3</ele>
        <time>2026-08-31T09:37:05Z</time>
      </trkpt>
      <trkpt lat="43.45503" lon="-0.36778">
        <ele>156.3</ele>
        <time>2026-08-31T09:37:05Z</time>
      </trkpt>
      <trkpt lat="43.45504" lon="-0.36778">
        <ele>157.3</ele>
        <time>2026-08-31T09:37:06Z</time>
      </trkpt>
      <trkpt lat="43.45504" lon="-0.36778">
        <ele>157.3</ele>
        <time>2026-08-31T09:37:06Z</time>
      </trkpt>
      <trkpt lat="43.45505" lon="-0.36779">
        <ele>157.3</ele>
        <time>2026-08-31T09:37:07Z</time>
      </trkpt>
      <trkpt lat="43.45506" lon="-0.36779">
        <ele>157.3</ele>
        <time>2026-08-31T09:37:07Z</time>
      </trkpt>
      <trkpt lat="43.45506" lon="-0.36779">
        <ele>156.3</ele>
        <time>2026-08-31T09:37:08Z</time>
      </trkpt>
      <trkpt lat="43.45507" lon="-0.36779">
        <ele>156.3</ele>
        <time>2026-08-31T09:37:08Z</time>
      </trkpt>
      <trkpt lat="43.45508" lon="-0.3678">
        <ele>156.3</ele>
        <time>2026-08-31T09:37:09Z</time>
      </trkpt>
      <trkpt lat="43.45508" lon="-0.3678">
        <ele>156.3</ele>
        <time>2026-08-31T09:37:09Z</time>
      </trkpt>
      <trkpt lat="43.45509" lon="-0.36781">
        <ele>156.3</ele>
        <time>2026-08-31T09:37:10Z</time>
      </trkpt>
      <trkpt lat="43.4551" lon="-0.36781">
        <ele>156.3</ele>
        <time>2026-08-31T09:37:11Z</time>
      </trkpt>
      <trkpt lat="43.45511" lon="-0.36781">
        <ele>157.3</ele>
        <time>2026-08-31T09:37:11Z</time>
      </trkpt>
      <trkpt lat="43.45511" lon="-0.36782">
        <ele>157.3</ele>
        <time>2026-08-31T09:37:12Z</time>
      </trkpt>
      <trkpt lat="43.45512" lon="-0.36782">
        <ele>157.3</ele>
        <time>2026-08-31T09:37:12Z</time>
      </trkpt>
      <trkpt lat="43.45513" lon="-0.36782">
        <ele>157.3</ele>
        <time>2026-08-31T09:37:13Z</time>
      </trkpt>
      <trkpt lat="43.45514" lon="-0.36783">
        <ele>157.3</ele>
        <time>2026-08-31T09:37:13Z</time>
      </trkpt>
      <trkpt lat="43.45514" lon="-0.36784">
        <ele>157.3</ele>
        <time>2026-08-31T09:37:14Z</time>
      </trkpt>
      <trkpt lat="43.45515" lon="-0.36784">
        <ele>157.3</ele>
        <time>2026-08-31T09:37:14Z</time>
      </trkpt>
      <trkpt lat="43.45516" lon="-0.36785">
        <ele>158.3</ele>
        <time>2026-08-31T09:37:15Z</time>
      </trkpt>
      <trkpt lat="43.45517" lon="-0.36785">
        <ele>158.3</ele>
        <time>2026-08-31T09:37:15Z</time>
      </trkpt>
      <trkpt lat="43.45517" lon="-0.36786">
        <ele>158.3</ele>
        <time>2026-08-31T09:37:16Z</time>
      </trkpt>
      <trkpt lat="43.45518" lon="-0.36786">
        <ele>158.3</ele>
        <time>2026-08-31T09:37:16Z</time>
      </trkpt>
      <trkpt lat="43.45519" lon="-0.36787">
        <ele>158.3</ele>
        <time>2026-08-31T09:37:17Z</time>
      </trkpt>
      <trkpt lat="43.4552" lon="-0.36787">
        <ele>158.3</ele>
        <time>2026-08-31T09:37:17Z</time>
      </trkpt>
      <trkpt lat="43.4552" lon="-0.36787">
        <ele>158.3</ele>
        <time>2026-08-31T09:37:18Z</time>
      </trkpt>
      <trkpt lat="43.45521" lon="-0.36788">
        <ele>158.3</ele>
        <time>2026-08-31T09:37:19Z</time>
      </trkpt>
      <trkpt lat="43.45522" lon="-0.36788">
        <ele>158.3</ele>
        <time>2026-08-31T09:37:19Z</time>
      </trkpt>
      <trkpt lat="43.45523" lon="-0.36789">
        <ele>158.3</ele>
        <time>2026-08-31T09:37:20Z</time>
      </trkpt>
      <trkpt lat="43.45523" lon="-0.36789">
        <ele>158.3</ele>
        <time>2026-08-31T09:37:20Z</time>
      </trkpt>
      <trkpt lat="43.45524" lon="-0.3679">
        <ele>158.3</ele>
        <time>2026-08-31T09:37:21Z</time>
      </trkpt>
      <trkpt lat="43.45525" lon="-0.3679">
        <ele>158.3</ele>
        <time>2026-08-31T09:37:21Z</time>
      </trkpt>
      <trkpt lat="43.45525" lon="-0.36791">
        <ele>158.3</ele>
        <time>2026-08-31T09:37:22Z</time>
      </trkpt>
      <trkpt lat="43.45526" lon="-0.36791">
        <ele>158.3</ele>
        <time>2026-08-31T09:37:22Z</time>
      </trkpt>
      <trkpt lat="43.45527" lon="-0.36791">
        <ele>158.3</ele>
        <time>2026-08-31T09:37:23Z</time>
      </trkpt>
      <trkpt lat="43.45527" lon="-0.36792">
        <ele>158.3</ele>
        <time>2026-08-31T09:37:23Z</time>
      </trkpt>
      <trkpt lat="43.45528" lon="-0.36792">
        <ele>158.3</ele>
        <time>2026-08-31T09:37:24Z</time>
      </trkpt>
      <trkpt lat="43.45529" lon="-0.36793">
        <ele>158.3</ele>
        <time>2026-08-31T09:37:24Z</time>
      </trkpt>
      <trkpt lat="43.45529" lon="-0.36793">
        <ele>158.3</ele>
        <time>2026-08-31T09:37:25Z</time>
      </trkpt>
      <trkpt lat="43.4553" lon="-0.36794">
        <ele>158.3</ele>
        <time>2026-08-31T09:37:26Z</time>
      </trkpt>
      <trkpt lat="43.45531" lon="-0.36794">
        <ele>158.3</ele>
        <time>2026-08-31T09:37:26Z</time>
      </trkpt>
      <trkpt lat="43.45531" lon="-0.36795">
        <ele>158.3</ele>
        <time>2026-08-31T09:37:27Z</time>
      </trkpt>
      <trkpt lat="43.45532" lon="-0.36795">
        <ele>158.3</ele>
        <time>2026-08-31T09:37:27Z</time>
      </trkpt>
      <trkpt lat="43.45533" lon="-0.36795">
        <ele>158.3</ele>
        <time>2026-08-31T09:37:28Z</time>
      </trkpt>
      <trkpt lat="43.45533" lon="-0.36796">
        <ele>158.3</ele>
        <time>2026-08-31T09:37:28Z</time>
      </trkpt>
      <trkpt lat="43.45534" lon="-0.36796">
        <ele>159.3</ele>
        <time>2026-08-31T09:37:29Z</time>
      </trkpt>
      <trkpt lat="43.45535" lon="-0.36796">
        <ele>159.3</ele>
        <time>2026-08-31T09:37:29Z</time>
      </trkpt>
      <trkpt lat="43.45535" lon="-0.36797">
        <ele>159.3</ele>
        <time>2026-08-31T09:37:30Z</time>
      </trkpt>
      <trkpt lat="43.45536" lon="-0.36797">
        <ele>159.3</ele>
        <time>2026-08-31T09:37:30Z</time>
      </trkpt>
      <trkpt lat="43.45537" lon="-0.36798">
        <ele>159.3</ele>
        <time>2026-08-31T09:37:31Z</time>
      </trkpt>
      <trkpt lat="43.45537" lon="-0.36798">
        <ele>159.3</ele>
        <time>2026-08-31T09:37:31Z</time>
      </trkpt>
      <trkpt lat="43.45538" lon="-0.36799">
        <ele>159.3</ele>
        <time>2026-08-31T09:37:32Z</time>
      </trkpt>
      <trkpt lat="43.45539" lon="-0.36799">
        <ele>159.3</ele>
        <time>2026-08-31T09:37:33Z</time>
      </trkpt>
      <trkpt lat="43.45539" lon="-0.368">
        <ele>159.3</ele>
        <time>2026-08-31T09:37:33Z</time>
      </trkpt>
      <trkpt lat="43.4554" lon="-0.368">
        <ele>159.3</ele>
        <time>2026-08-31T09:37:34Z</time>
      </trkpt>
      <trkpt lat="43.45541" lon="-0.36801">
        <ele>159.3</ele>
        <time>2026-08-31T09:37:34Z</time>
      </trkpt>
      <trkpt lat="43.45541" lon="-0.36801">
        <ele>159.3</ele>
        <time>2026-08-31T09:37:35Z</time>
      </trkpt>
      <trkpt lat="43.45542" lon="-0.36802">
        <ele>159.3</ele>
        <time>2026-08-31T09:37:35Z</time>
      </trkpt>
      <trkpt lat="43.45542" lon="-0.36802">
        <ele>159.3</ele>
        <time>2026-08-31T09:37:36Z</time>
      </trkpt>
      <trkpt lat="43.45543" lon="-0.36802">
        <ele>159.3</ele>
        <time>2026-08-31T09:37:36Z</time>
      </trkpt>
      <trkpt lat="43.45544" lon="-0.36803">
        <ele>159.3</ele>
        <time>2026-08-31T09:37:37Z</time>
      </trkpt>
      <trkpt lat="43.45544" lon="-0.36803">
        <ele>159.3</ele>
        <time>2026-08-31T09:37:37Z</time>
      </trkpt>
      <trkpt lat="43.45545" lon="-0.36804">
        <ele>160.3</ele>
        <time>2026-08-31T09:37:38Z</time>
      </trkpt>
      <trkpt lat="43.45546" lon="-0.36804">
        <ele>160.3</ele>
        <time>2026-08-31T09:37:38Z</time>
      </trkpt>
      <trkpt lat="43.45547" lon="-0.36804">
        <ele>160.3</ele>
        <time>2026-08-31T09:37:39Z</time>
      </trkpt>
      <trkpt lat="43.45547" lon="-0.36805">
        <ele>160.3</ele>
        <time>2026-08-31T09:37:39Z</time>
      </trkpt>
      <trkpt lat="43.45548" lon="-0.36805">
        <ele>160.3</ele>
        <time>2026-08-31T09:37:40Z</time>
      </trkpt>
      <trkpt lat="43.45549" lon="-0.36806">
        <ele>160.3</ele>
        <time>2026-08-31T09:37:41Z</time>
      </trkpt>
      <trkpt lat="43.45549" lon="-0.36806">
        <ele>159.3</ele>
        <time>2026-08-31T09:37:41Z</time>
      </trkpt>
      <trkpt lat="43.4555" lon="-0.36807">
        <ele>159.3</ele>
        <time>2026-08-31T09:37:42Z</time>
      </trkpt>
      <trkpt lat="43.45551" lon="-0.36807">
        <ele>159.3</ele>
        <time>2026-08-31T09:37:42Z</time>
      </trkpt>
      <trkpt lat="43.45551" lon="-0.36808">
        <ele>159.3</ele>
        <time>2026-08-31T09:37:43Z</time>
      </trkpt>
      <trkpt lat="43.45552" lon="-0.36808">
        <ele>159.3</ele>
        <time>2026-08-31T09:37:43Z</time>
      </trkpt>
      <trkpt lat="43.45553" lon="-0.36809">
        <ele>159.3</ele>
        <time>2026-08-31T09:37:44Z</time>
      </trkpt>
      <trkpt lat="43.45553" lon="-0.36809">
        <ele>159.3</ele>
        <time>2026-08-31T09:37:44Z</time>
      </trkpt>
      <trkpt lat="43.45554" lon="-0.3681">
        <ele>159.3</ele>
        <time>2026-08-31T09:37:45Z</time>
      </trkpt>
      <trkpt lat="43.45555" lon="-0.3681">
        <ele>159.3</ele>
        <time>2026-08-31T09:37:45Z</time>
      </trkpt>
      <trkpt lat="43.45555" lon="-0.3681">
        <ele>159.3</ele>
        <time>2026-08-31T09:37:46Z</time>
      </trkpt>
      <trkpt lat="43.45556" lon="-0.36811">
        <ele>159.3</ele>
        <time>2026-08-31T09:37:47Z</time>
      </trkpt>
      <trkpt lat="43.45556" lon="-0.36811">
        <ele>160.3</ele>
        <time>2026-08-31T09:37:47Z</time>
      </trkpt>
      <trkpt lat="43.45557" lon="-0.36812">
        <ele>160.3</ele>
        <time>2026-08-31T09:37:48Z</time>
      </trkpt>
      <trkpt lat="43.45558" lon="-0.36813">
        <ele>160.3</ele>
        <time>2026-08-31T09:37:48Z</time>
      </trkpt>
      <trkpt lat="43.45558" lon="-0.36813">
        <ele>160.3</ele>
        <time>2026-08-31T09:37:49Z</time>
      </trkpt>
      <trkpt lat="43.45559" lon="-0.36814">
        <ele>159.3</ele>
        <time>2026-08-31T09:37:49Z</time>
      </trkpt>
      <trkpt lat="43.4556" lon="-0.36814">
        <ele>159.3</ele>
        <time>2026-08-31T09:37:50Z</time>
      </trkpt>
      <trkpt lat="43.4556" lon="-0.36815">
        <ele>159.3</ele>
        <time>2026-08-31T09:37:50Z</time>
      </trkpt>
      <trkpt lat="43.45561" lon="-0.36815">
        <ele>159.3</ele>
        <time>2026-08-31T09:37:51Z</time>
      </trkpt>
      <trkpt lat="43.45562" lon="-0.36815">
        <ele>159.3</ele>
        <time>2026-08-31T09:37:51Z</time>
      </trkpt>
      <trkpt lat="43.45562" lon="-0.36816">
        <ele>159.3</ele>
        <time>2026-08-31T09:37:52Z</time>
      </trkpt>
      <trkpt lat="43.45563" lon="-0.36816">
        <ele>159.3</ele>
        <time>2026-08-31T09:37:52Z</time>
      </trkpt>
      <trkpt lat="43.45563" lon="-0.36817">
        <ele>159.3</ele>
        <time>2026-08-31T09:37:53Z</time>
      </trkpt>
      <trkpt lat="43.45564" lon="-0.36817">
        <ele>159.3</ele>
        <time>2026-08-31T09:37:53Z</time>
      </trkpt>
      <trkpt lat="43.45564" lon="-0.36818">
        <ele>160.3</ele>
        <time>2026-08-31T09:37:54Z</time>
      </trkpt>
      <trkpt lat="43.45565" lon="-0.36818">
        <ele>160.3</ele>
        <time>2026-08-31T09:37:55Z</time>
      </trkpt>
      <trkpt lat="43.45566" lon="-0.36819">
        <ele>160.3</ele>
        <time>2026-08-31T09:37:55Z</time>
      </trkpt>
      <trkpt lat="43.45566" lon="-0.36819">
        <ele>160.3</ele>
        <time>2026-08-31T09:37:56Z</time>
      </trkpt>
      <trkpt lat="43.45567" lon="-0.3682">
        <ele>160.3</ele>
        <time>2026-08-31T09:37:56Z</time>
      </trkpt>
      <trkpt lat="43.45567" lon="-0.3682">
        <ele>160.3</ele>
        <time>2026-08-31T09:37:57Z</time>
      </trkpt>
      <trkpt lat="43.45568" lon="-0.36821">
        <ele>160.3</ele>
        <time>2026-08-31T09:37:57Z</time>
      </trkpt>
      <trkpt lat="43.45568" lon="-0.36822">
        <ele>160.3</ele>
        <time>2026-08-31T09:37:58Z</time>
      </trkpt>
      <trkpt lat="43.45569" lon="-0.36822">
        <ele>160.3</ele>
        <time>2026-08-31T09:37:58Z</time>
      </trkpt>
      <trkpt lat="43.45569" lon="-0.36822">
        <ele>160.3</ele>
        <time>2026-08-31T09:37:59Z</time>
      </trkpt>
      <trkpt lat="43.4557" lon="-0.36823">
        <ele>160.3</ele>
        <time>2026-08-31T09:37:59Z</time>
      </trkpt>
      <trkpt lat="43.4557" lon="-0.36823">
        <ele>161.3</ele>
        <time>2026-08-31T09:38:00Z</time>
      </trkpt>
      <trkpt lat="43.45571" lon="-0.36824">
        <ele>161.3</ele>
        <time>2026-08-31T09:38:01Z</time>
      </trkpt>
      <trkpt lat="43.45572" lon="-0.36824">
        <ele>161.3</ele>
        <time>2026-08-31T09:38:01Z</time>
      </trkpt>
      <trkpt lat="43.45572" lon="-0.36824">
        <ele>161.3</ele>
        <time>2026-08-31T09:38:02Z</time>
      </trkpt>
      <trkpt lat="43.45573" lon="-0.36825">
        <ele>161.3</ele>
        <time>2026-08-31T09:38:02Z</time>
      </trkpt>
      <trkpt lat="43.45573" lon="-0.36825">
        <ele>161.3</ele>
        <time>2026-08-31T09:38:03Z</time>
      </trkpt>
      <trkpt lat="43.45574" lon="-0.36826">
        <ele>160.3</ele>
        <time>2026-08-31T09:38:03Z</time>
      </trkpt>
      <trkpt lat="43.45574" lon="-0.36827">
        <ele>160.3</ele>
        <time>2026-08-31T09:38:04Z</time>
      </trkpt>
      <trkpt lat="43.45575" lon="-0.36827">
        <ele>160.3</ele>
        <time>2026-08-31T09:38:04Z</time>
      </trkpt>
      <trkpt lat="43.45576" lon="-0.36828">
        <ele>160.3</ele>
        <time>2026-08-31T09:38:05Z</time>
      </trkpt>
      <trkpt lat="43.45576" lon="-0.36829">
        <ele>160.3</ele>
        <time>2026-08-31T09:38:05Z</time>
      </trkpt>
      <trkpt lat="43.45577" lon="-0.36829">
        <ele>161.3</ele>
        <time>2026-08-31T09:38:06Z</time>
      </trkpt>
      <trkpt lat="43.45577" lon="-0.3683">
        <ele>161.3</ele>
        <time>2026-08-31T09:38:06Z</time>
      </trkpt>
      <trkpt lat="43.45578" lon="-0.3683">
        <ele>161.3</ele>
        <time>2026-08-31T09:38:07Z</time>
      </trkpt>
      <trkpt lat="43.45579" lon="-0.36831">
        <ele>161.3</ele>
        <time>2026-08-31T09:38:08Z</time>
      </trkpt>
      <trkpt lat="43.45579" lon="-0.36831">
        <ele>161.3</ele>
        <time>2026-08-31T09:38:08Z</time>
      </trkpt>
      <trkpt lat="43.4558" lon="-0.36832">
        <ele>161.3</ele>
        <time>2026-08-31T09:38:09Z</time>
      </trkpt>
      <trkpt lat="43.4558" lon="-0.36832">
        <ele>161.3</ele>
        <time>2026-08-31T09:38:09Z</time>
      </trkpt>
      <trkpt lat="43.45581" lon="-0.36833">
        <ele>161.3</ele>
        <time>2026-08-31T09:38:10Z</time>
      </trkpt>
      <trkpt lat="43.45581" lon="-0.36833">
        <ele>161.3</ele>
        <time>2026-08-31T09:38:10Z</time>
      </trkpt>
      <trkpt lat="43.45582" lon="-0.36833">
        <ele>160.3</ele>
        <time>2026-08-31T09:38:11Z</time>
      </trkpt>
      <trkpt lat="43.45583" lon="-0.36834">
        <ele>160.3</ele>
        <time>2026-08-31T09:38:11Z</time>
      </trkpt>
      <trkpt lat="43.45583" lon="-0.36834">
        <ele>161.3</ele>
        <time>2026-08-31T09:38:12Z</time>
      </trkpt>
      <trkpt lat="43.45584" lon="-0.36834">
        <ele>161.3</ele>
        <time>2026-08-31T09:38:12Z</time>
      </trkpt>
      <trkpt lat="43.45585" lon="-0.36835">
        <ele>161.3</ele>
        <time>2026-08-31T09:38:13Z</time>
      </trkpt>
      <trkpt lat="43.45585" lon="-0.36835">
        <ele>161.3</ele>
        <time>2026-08-31T09:38:13Z</time>
      </trkpt>
      <trkpt lat="43.45586" lon="-0.36836">
        <ele>161.3</ele>
        <time>2026-08-31T09:38:14Z</time>
      </trkpt>
      <trkpt lat="43.45586" lon="-0.36836">
        <ele>161.3</ele>
        <time>2026-08-31T09:38:14Z</time>
      </trkpt>
      <trkpt lat="43.45587" lon="-0.36837">
        <ele>161.3</ele>
        <time>2026-08-31T09:38:15Z</time>
      </trkpt>
      <trkpt lat="43.45588" lon="-0.36837">
        <ele>161.3</ele>
        <time>2026-08-31T09:38:16Z</time>
      </trkpt>
      <trkpt lat="43.45588" lon="-0.36838">
        <ele>161.3</ele>
        <time>2026-08-31T09:38:16Z</time>
      </trkpt>
      <trkpt lat="43.45589" lon="-0.36839">
        <ele>161.3</ele>
        <time>2026-08-31T09:38:17Z</time>
      </trkpt>
      <trkpt lat="43.45589" lon="-0.36839">
        <ele>161.3</ele>
        <time>2026-08-31T09:38:17Z</time>
      </trkpt>
      <trkpt lat="43.4559" lon="-0.3684">
        <ele>161.3</ele>
        <time>2026-08-31T09:38:18Z</time>
      </trkpt>
      <trkpt lat="43.4559" lon="-0.3684">
        <ele>160.3</ele>
        <time>2026-08-31T09:38:18Z</time>
      </trkpt>
      <trkpt lat="43.45591" lon="-0.36841">
        <ele>160.3</ele>
        <time>2026-08-31T09:38:19Z</time>
      </trkpt>
      <trkpt lat="43.45592" lon="-0.36841">
        <ele>160.3</ele>
        <time>2026-08-31T09:38:19Z</time>
      </trkpt>
      <trkpt lat="43.45592" lon="-0.36842">
        <ele>160.3</ele>
        <time>2026-08-31T09:38:20Z</time>
      </trkpt>
      <trkpt lat="43.45593" lon="-0.36842">
        <ele>160.3</ele>
        <time>2026-08-31T09:38:20Z</time>
      </trkpt>
      <trkpt lat="43.45594" lon="-0.36843">
        <ele>160.3</ele>
        <time>2026-08-31T09:38:21Z</time>
      </trkpt>
      <trkpt lat="43.45594" lon="-0.36843">
        <ele>160.3</ele>
        <time>2026-08-31T09:38:21Z</time>
      </trkpt>
      <trkpt lat="43.45595" lon="-0.36843">
        <ele>160.3</ele>
        <time>2026-08-31T09:38:22Z</time>
      </trkpt>
      <trkpt lat="43.45595" lon="-0.36843">
        <ele>160.3</ele>
        <time>2026-08-31T09:38:22Z</time>
      </trkpt>
      <trkpt lat="43.45596" lon="-0.36844">
        <ele>160.3</ele>
        <time>2026-08-31T09:38:23Z</time>
      </trkpt>
      <trkpt lat="43.45597" lon="-0.36844">
        <ele>160.3</ele>
        <time>2026-08-31T09:38:24Z</time>
      </trkpt>
      <trkpt lat="43.45597" lon="-0.36844">
        <ele>159.3</ele>
        <time>2026-08-31T09:38:24Z</time>
      </trkpt>
      <trkpt lat="43.45598" lon="-0.36845">
        <ele>159.3</ele>
        <time>2026-08-31T09:38:25Z</time>
      </trkpt>
      <trkpt lat="43.45599" lon="-0.36845">
        <ele>159.3</ele>
        <time>2026-08-31T09:38:25Z</time>
      </trkpt>
      <trkpt lat="43.45599" lon="-0.36845">
        <ele>159.3</ele>
        <time>2026-08-31T09:38:26Z</time>
      </trkpt>
      <trkpt lat="43.456" lon="-0.36846">
        <ele>159.3</ele>
        <time>2026-08-31T09:38:26Z</time>
      </trkpt>
      <trkpt lat="43.45601" lon="-0.36846">
        <ele>159.3</ele>
        <time>2026-08-31T09:38:27Z</time>
      </trkpt>
      <trkpt lat="43.45601" lon="-0.36846">
        <ele>159.3</ele>
        <time>2026-08-31T09:38:27Z</time>
      </trkpt>
      <trkpt lat="43.45602" lon="-0.36847">
        <ele>159.3</ele>
        <time>2026-08-31T09:38:28Z</time>
      </trkpt>
      <trkpt lat="43.45603" lon="-0.36847">
        <ele>159.3</ele>
        <time>2026-08-31T09:38:28Z</time>
      </trkpt>
      <trkpt lat="43.45603" lon="-0.36847">
        <ele>159.3</ele>
        <time>2026-08-31T09:38:29Z</time>
      </trkpt>
      <trkpt lat="43.45604" lon="-0.36847">
        <ele>159.3</ele>
        <time>2026-08-31T09:38:29Z</time>
      </trkpt>
      <trkpt lat="43.45605" lon="-0.36847">
        <ele>159.3</ele>
        <time>2026-08-31T09:38:30Z</time>
      </trkpt>
      <trkpt lat="43.45606" lon="-0.36847">
        <ele>159.3</ele>
        <time>2026-08-31T09:38:31Z</time>
      </trkpt>
      <trkpt lat="43.45606" lon="-0.36847">
        <ele>159.3</ele>
        <time>2026-08-31T09:38:31Z</time>
      </trkpt>
      <trkpt lat="43.45607" lon="-0.36847">
        <ele>159.3</ele>
        <time>2026-08-31T09:38:32Z</time>
      </trkpt>
      <trkpt lat="43.45608" lon="-0.36847">
        <ele>159.3</ele>
        <time>2026-08-31T09:38:32Z</time>
      </trkpt>
      <trkpt lat="43.45608" lon="-0.36848">
        <ele>159.3</ele>
        <time>2026-08-31T09:38:33Z</time>
      </trkpt>
      <trkpt lat="43.45609" lon="-0.36848">
        <ele>159.3</ele>
        <time>2026-08-31T09:38:33Z</time>
      </trkpt>
      <trkpt lat="43.45609" lon="-0.36848">
        <ele>159.3</ele>
        <time>2026-08-31T09:38:34Z</time>
      </trkpt>
      <trkpt lat="43.4561" lon="-0.36848">
        <ele>159.3</ele>
        <time>2026-08-31T09:38:34Z</time>
      </trkpt>
      <trkpt lat="43.45611" lon="-0.36849">
        <ele>158.3</ele>
        <time>2026-08-31T09:38:35Z</time>
      </trkpt>
      <trkpt lat="43.45611" lon="-0.36849">
        <ele>158.3</ele>
        <time>2026-08-31T09:38:35Z</time>
      </trkpt>
      <trkpt lat="43.45612" lon="-0.36849">
        <ele>158.3</ele>
        <time>2026-08-31T09:38:36Z</time>
      </trkpt>
      <trkpt lat="43.45613" lon="-0.36849">
        <ele>158.3</ele>
        <time>2026-08-31T09:38:36Z</time>
      </trkpt>
      <trkpt lat="43.45613" lon="-0.3685">
        <ele>158.3</ele>
        <time>2026-08-31T09:38:37Z</time>
      </trkpt>
      <trkpt lat="43.45614" lon="-0.3685">
        <ele>158.3</ele>
        <time>2026-08-31T09:38:38Z</time>
      </trkpt>
      <trkpt lat="43.45614" lon="-0.3685">
        <ele>158.3</ele>
        <time>2026-08-31T09:38:38Z</time>
      </trkpt>
      <trkpt lat="43.45615" lon="-0.3685">
        <ele>158.3</ele>
        <time>2026-08-31T09:38:39Z</time>
      </trkpt>
      <trkpt lat="43.45616" lon="-0.3685">
        <ele>158.3</ele>
        <time>2026-08-31T09:38:39Z</time>
      </trkpt>
      <trkpt lat="43.45616" lon="-0.3685">
        <ele>158.3</ele>
        <time>2026-08-31T09:38:40Z</time>
      </trkpt>
      <trkpt lat="43.45617" lon="-0.36851">
        <ele>157.3</ele>
        <time>2026-08-31T09:38:41Z</time>
      </trkpt>
      <trkpt lat="43.45618" lon="-0.36851">
        <ele>158.3</ele>
        <time>2026-08-31T09:38:42Z</time>
      </trkpt>
      <trkpt lat="43.45619" lon="-0.36852">
        <ele>158.3</ele>
        <time>2026-08-31T09:38:43Z</time>
      </trkpt>
      <trkpt lat="43.4562" lon="-0.36852">
        <ele>158.3</ele>
        <time>2026-08-31T09:38:43Z</time>
      </trkpt>
      <trkpt lat="43.4562" lon="-0.36853">
        <ele>158.3</ele>
        <time>2026-08-31T09:38:44Z</time>
      </trkpt>
      <trkpt lat="43.45621" lon="-0.36853">
        <ele>159.3</ele>
        <time>2026-08-31T09:38:44Z</time>
      </trkpt>
      <trkpt lat="43.45623" lon="-0.36853">
        <ele>160.3</ele>
        <time>2026-08-31T09:38:45Z</time>
      </trkpt>
      <trkpt lat="43.45624" lon="-0.36854">
        <ele>160.3</ele>
        <time>2026-08-31T09:38:46Z</time>
      </trkpt>
      <trkpt lat="43.45625" lon="-0.36854">
        <ele>160.3</ele>
        <time>2026-08-31T09:38:46Z</time>
      </trkpt>
      <trkpt lat="43.45626" lon="-0.36854">
        <ele>160.3</ele>
        <time>2026-08-31T09:38:47Z</time>
      </trkpt>
      <trkpt lat="43.45628" lon="-0.36854">
        <ele>160.3</ele>
        <time>2026-08-31T09:38:48Z</time>
      </trkpt>
      <trkpt lat="43.45629" lon="-0.36854">
        <ele>160.3</ele>
        <time>2026-08-31T09:38:49Z</time>
      </trkpt>
      <trkpt lat="43.4563" lon="-0.36854">
        <ele>161.3</ele>
        <time>2026-08-31T09:38:49Z</time>
      </trkpt>
      <trkpt lat="43.45631" lon="-0.36854">
        <ele>161.3</ele>
        <time>2026-08-31T09:38:50Z</time>
      </trkpt>
      <trkpt lat="43.45632" lon="-0.36854">
        <ele>161.3</ele>
        <time>2026-08-31T09:38:50Z</time>
      </trkpt>
      <trkpt lat="43.45633" lon="-0.36854">
        <ele>160.3</ele>
        <time>2026-08-31T09:38:51Z</time>
      </trkpt>
      <trkpt lat="43.45635" lon="-0.36853">
        <ele>160.3</ele>
        <time>2026-08-31T09:38:52Z</time>
      </trkpt>
      <trkpt lat="43.45636" lon="-0.36853">
        <ele>160.3</ele>
        <time>2026-08-31T09:38:53Z</time>
      </trkpt>
      <trkpt lat="43.45637" lon="-0.36852">
        <ele>160.3</ele>
        <time>2026-08-31T09:38:53Z</time>
      </trkpt>
      <trkpt lat="43.45638" lon="-0.36852">
        <ele>160.3</ele>
        <time>2026-08-31T09:38:54Z</time>
      </trkpt>
      <trkpt lat="43.45638" lon="-0.36852">
        <ele>160.3</ele>
        <time>2026-08-31T09:38:55Z</time>
      </trkpt>
      <trkpt lat="43.45639" lon="-0.36852">
        <ele>160.3</ele>
        <time>2026-08-31T09:38:55Z</time>
      </trkpt>
      <trkpt lat="43.4564" lon="-0.36852">
        <ele>160.3</ele>
        <time>2026-08-31T09:38:56Z</time>
      </trkpt>
      <trkpt lat="43.45641" lon="-0.36851">
        <ele>160.3</ele>
        <time>2026-08-31T09:38:56Z</time>
      </trkpt>
      <trkpt lat="43.45642" lon="-0.36851">
        <ele>160.3</ele>
        <time>2026-08-31T09:38:57Z</time>
      </trkpt>
      <trkpt lat="43.45643" lon="-0.36851">
        <ele>160.3</ele>
        <time>2026-08-31T09:38:57Z</time>
      </trkpt>
      <trkpt lat="43.45644" lon="-0.36851">
        <ele>161.3</ele>
        <time>2026-08-31T09:38:58Z</time>
      </trkpt>
      <trkpt lat="43.45644" lon="-0.3685">
        <ele>161.3</ele>
        <time>2026-08-31T09:38:58Z</time>
      </trkpt>
      <trkpt lat="43.45645" lon="-0.3685">
        <ele>161.3</ele>
        <time>2026-08-31T09:38:59Z</time>
      </trkpt>
      <trkpt lat="43.45646" lon="-0.3685">
        <ele>161.3</ele>
        <time>2026-08-31T09:39:00Z</time>
      </trkpt>
      <trkpt lat="43.45647" lon="-0.3685">
        <ele>161.3</ele>
        <time>2026-08-31T09:39:00Z</time>
      </trkpt>
      <trkpt lat="43.45648" lon="-0.36849">
        <ele>161.3</ele>
        <time>2026-08-31T09:39:01Z</time>
      </trkpt>
      <trkpt lat="43.45648" lon="-0.36849">
        <ele>161.3</ele>
        <time>2026-08-31T09:39:01Z</time>
      </trkpt>
      <trkpt lat="43.45649" lon="-0.36849">
        <ele>161.3</ele>
        <time>2026-08-31T09:39:02Z</time>
      </trkpt>
      <trkpt lat="43.4565" lon="-0.36849">
        <ele>161.3</ele>
        <time>2026-08-31T09:39:02Z</time>
      </trkpt>
      <trkpt lat="43.45651" lon="-0.36848">
        <ele>161.3</ele>
        <time>2026-08-31T09:39:03Z</time>
      </trkpt>
      <trkpt lat="43.45651" lon="-0.36848">
        <ele>161.3</ele>
        <time>2026-08-31T09:39:03Z</time>
      </trkpt>
      <trkpt lat="43.45652" lon="-0.36848">
        <ele>162.3</ele>
        <time>2026-08-31T09:39:04Z</time>
      </trkpt>
      <trkpt lat="43.45653" lon="-0.36847">
        <ele>162.3</ele>
        <time>2026-08-31T09:39:05Z</time>
      </trkpt>
      <trkpt lat="43.45654" lon="-0.36847">
        <ele>162.3</ele>
        <time>2026-08-31T09:39:06Z</time>
      </trkpt>
      <trkpt lat="43.45655" lon="-0.36847">
        <ele>162.3</ele>
        <time>2026-08-31T09:39:06Z</time>
      </trkpt>
      <trkpt lat="43.45656" lon="-0.36846">
        <ele>162.3</ele>
        <time>2026-08-31T09:39:07Z</time>
      </trkpt>
      <trkpt lat="43.45657" lon="-0.36846">
        <ele>161.3</ele>
        <time>2026-08-31T09:39:07Z</time>
      </trkpt>
      <trkpt lat="43.45657" lon="-0.36846">
        <ele>161.3</ele>
        <time>2026-08-31T09:39:08Z</time>
      </trkpt>
      <trkpt lat="43.45658" lon="-0.36846">
        <ele>161.3</ele>
        <time>2026-08-31T09:39:08Z</time>
      </trkpt>
      <trkpt lat="43.45659" lon="-0.36845">
        <ele>161.3</ele>
        <time>2026-08-31T09:39:09Z</time>
      </trkpt>
      <trkpt lat="43.4566" lon="-0.36845">
        <ele>161.3</ele>
        <time>2026-08-31T09:39:10Z</time>
      </trkpt>
      <trkpt lat="43.4566" lon="-0.36845">
        <ele>161.3</ele>
        <time>2026-08-31T09:39:10Z</time>
      </trkpt>
      <trkpt lat="43.45661" lon="-0.36845">
        <ele>162.3</ele>
        <time>2026-08-31T09:39:11Z</time>
      </trkpt>
      <trkpt lat="43.45662" lon="-0.36844">
        <ele>162.3</ele>
        <time>2026-08-31T09:39:12Z</time>
      </trkpt>
      <trkpt lat="43.45662" lon="-0.36844">
        <ele>162.3</ele>
        <time>2026-08-31T09:39:12Z</time>
      </trkpt>
      <trkpt lat="43.45663" lon="-0.36844">
        <ele>162.3</ele>
        <time>2026-08-31T09:39:13Z</time>
      </trkpt>
      <trkpt lat="43.45664" lon="-0.36844">
        <ele>162.3</ele>
        <time>2026-08-31T09:39:13Z</time>
      </trkpt>
      <trkpt lat="43.45664" lon="-0.36844">
        <ele>162.3</ele>
        <time>2026-08-31T09:39:14Z</time>
      </trkpt>
      <trkpt lat="43.45665" lon="-0.36844">
        <ele>162.3</ele>
        <time>2026-08-31T09:39:14Z</time>
      </trkpt>
      <trkpt lat="43.45666" lon="-0.36844">
        <ele>162.3</ele>
        <time>2026-08-31T09:39:15Z</time>
      </trkpt>
      <trkpt lat="43.45666" lon="-0.36844">
        <ele>162.3</ele>
        <time>2026-08-31T09:39:15Z</time>
      </trkpt>
      <trkpt lat="43.45667" lon="-0.36843">
        <ele>162.3</ele>
        <time>2026-08-31T09:39:16Z</time>
      </trkpt>
      <trkpt lat="43.45668" lon="-0.36843">
        <ele>162.3</ele>
        <time>2026-08-31T09:39:16Z</time>
      </trkpt>
      <trkpt lat="43.45668" lon="-0.36842">
        <ele>162.3</ele>
        <time>2026-08-31T09:39:17Z</time>
      </trkpt>
      <trkpt lat="43.45669" lon="-0.36842">
        <ele>162.3</ele>
        <time>2026-08-31T09:39:17Z</time>
      </trkpt>
      <trkpt lat="43.45669" lon="-0.36841">
        <ele>162.3</ele>
        <time>2026-08-31T09:39:18Z</time>
      </trkpt>
      <trkpt lat="43.45669" lon="-0.3684">
        <ele>162.3</ele>
        <time>2026-08-31T09:39:19Z</time>
      </trkpt>
      <trkpt lat="43.4567" lon="-0.3684">
        <ele>162.3</ele>
        <time>2026-08-31T09:39:19Z</time>
      </trkpt>
      <trkpt lat="43.4567" lon="-0.36839">
        <ele>162.3</ele>
        <time>2026-08-31T09:39:20Z</time>
      </trkpt>
      <trkpt lat="43.45671" lon="-0.36838">
        <ele>162.3</ele>
        <time>2026-08-31T09:39:20Z</time>
      </trkpt>
      <trkpt lat="43.45671" lon="-0.36838">
        <ele>162.3</ele>
        <time>2026-08-31T09:39:21Z</time>
      </trkpt>
      <trkpt lat="43.45672" lon="-0.36837">
        <ele>162.3</ele>
        <time>2026-08-31T09:39:21Z</time>
      </trkpt>
      <trkpt lat="43.45673" lon="-0.36837">
        <ele>162.3</ele>
        <time>2026-08-31T09:39:22Z</time>
      </trkpt>
      <trkpt lat="43.45674" lon="-0.36837">
        <ele>162.3</ele>
        <time>2026-08-31T09:39:22Z</time>
      </trkpt>
      <trkpt lat="43.45675" lon="-0.36838">
        <ele>162.3</ele>
        <time>2026-08-31T09:39:23Z</time>
      </trkpt>
      <trkpt lat="43.45676" lon="-0.36837">
        <ele>162.3</ele>
        <time>2026-08-31T09:39:23Z</time>
      </trkpt>
      <trkpt lat="43.45677" lon="-0.36838">
        <ele>162.3</ele>
        <time>2026-08-31T09:39:24Z</time>
      </trkpt>
      <trkpt lat="43.45677" lon="-0.36837">
        <ele>162.3</ele>
        <time>2026-08-31T09:39:24Z</time>
      </trkpt>
      <trkpt lat="43.45678" lon="-0.36838">
        <ele>162.3</ele>
        <time>2026-08-31T09:39:25Z</time>
      </trkpt>
      <trkpt lat="43.45679" lon="-0.36837">
        <ele>162.3</ele>
        <time>2026-08-31T09:39:26Z</time>
      </trkpt>
      <trkpt lat="43.4568" lon="-0.36838">
        <ele>162.3</ele>
        <time>2026-08-31T09:39:26Z</time>
      </trkpt>
      <trkpt lat="43.4568" lon="-0.36837">
        <ele>162.3</ele>
        <time>2026-08-31T09:39:27Z</time>
      </trkpt>
      <trkpt lat="43.45681" lon="-0.36838">
        <ele>161.3</ele>
        <time>2026-08-31T09:39:27Z</time>
      </trkpt>
      <trkpt lat="43.45682" lon="-0.36838">
        <ele>161.3</ele>
        <time>2026-08-31T09:39:28Z</time>
      </trkpt>
      <trkpt lat="43.45683" lon="-0.36838">
        <ele>162.3</ele>
        <time>2026-08-31T09:39:28Z</time>
      </trkpt>
      <trkpt lat="43.45683" lon="-0.36838">
        <ele>162.3</ele>
        <time>2026-08-31T09:39:29Z</time>
      </trkpt>
      <trkpt lat="43.45684" lon="-0.36838">
        <ele>162.3</ele>
        <time>2026-08-31T09:39:29Z</time>
      </trkpt>
      <trkpt lat="43.45684" lon="-0.36838">
        <ele>161.3</ele>
        <time>2026-08-31T09:39:30Z</time>
      </trkpt>
      <trkpt lat="43.45685" lon="-0.36838">
        <ele>161.3</ele>
        <time>2026-08-31T09:39:30Z</time>
      </trkpt>
      <trkpt lat="43.45686" lon="-0.36838">
        <ele>162.3</ele>
        <time>2026-08-31T09:39:31Z</time>
      </trkpt>
      <trkpt lat="43.45687" lon="-0.36838">
        <ele>162.3</ele>
        <time>2026-08-31T09:39:32Z</time>
      </trkpt>
      <trkpt lat="43.45687" lon="-0.36839">
        <ele>162.3</ele>
        <time>2026-08-31T09:39:32Z</time>
      </trkpt>
      <trkpt lat="43.45688" lon="-0.36839">
        <ele>162.3</ele>
        <time>2026-08-31T09:39:33Z</time>
      </trkpt>
      <trkpt lat="43.45689" lon="-0.36839">
        <ele>162.3</ele>
        <time>2026-08-31T09:39:33Z</time>
      </trkpt>
      <trkpt lat="43.45689" lon="-0.36839">
        <ele>162.3</ele>
        <time>2026-08-31T09:39:34Z</time>
      </trkpt>
      <trkpt lat="43.4569" lon="-0.3684">
        <ele>162.3</ele>
        <time>2026-08-31T09:39:34Z</time>
      </trkpt>
      <trkpt lat="43.45691" lon="-0.3684">
        <ele>162.3</ele>
        <time>2026-08-31T09:39:35Z</time>
      </trkpt>
      <trkpt lat="43.45692" lon="-0.3684">
        <ele>162.3</ele>
        <time>2026-08-31T09:39:35Z</time>
      </trkpt>
      <trkpt lat="43.45692" lon="-0.36841">
        <ele>162.3</ele>
        <time>2026-08-31T09:39:36Z</time>
      </trkpt>
      <trkpt lat="43.45693" lon="-0.36841">
        <ele>162.3</ele>
        <time>2026-08-31T09:39:36Z</time>
      </trkpt>
      <trkpt lat="43.45694" lon="-0.36841">
        <ele>162.3</ele>
        <time>2026-08-31T09:39:37Z</time>
      </trkpt>
      <trkpt lat="43.45694" lon="-0.36841">
        <ele>162.3</ele>
        <time>2026-08-31T09:39:37Z</time>
      </trkpt>
      <trkpt lat="43.45695" lon="-0.36842">
        <ele>162.3</ele>
        <time>2026-08-31T09:39:38Z</time>
      </trkpt>
      <trkpt lat="43.45695" lon="-0.36842">
        <ele>162.3</ele>
        <time>2026-08-31T09:39:39Z</time>
      </trkpt>
      <trkpt lat="43.45696" lon="-0.36843">
        <ele>162.3</ele>
        <time>2026-08-31T09:39:39Z</time>
      </trkpt>
      <trkpt lat="43.45697" lon="-0.36843">
        <ele>162.3</ele>
        <time>2026-08-31T09:39:40Z</time>
      </trkpt>
      <trkpt lat="43.45697" lon="-0.36843">
        <ele>162.3</ele>
        <time>2026-08-31T09:39:40Z</time>
      </trkpt>
      <trkpt lat="43.45698" lon="-0.36844">
        <ele>162.3</ele>
        <time>2026-08-31T09:39:41Z</time>
      </trkpt>
      <trkpt lat="43.45698" lon="-0.36844">
        <ele>162.3</ele>
        <time>2026-08-31T09:39:41Z</time>
      </trkpt>
      <trkpt lat="43.45699" lon="-0.36845">
        <ele>162.3</ele>
        <time>2026-08-31T09:39:42Z</time>
      </trkpt>
      <trkpt lat="43.45699" lon="-0.36845">
        <ele>162.3</ele>
        <time>2026-08-31T09:39:42Z</time>
      </trkpt>
      <trkpt lat="43.457" lon="-0.36846">
        <ele>162.3</ele>
        <time>2026-08-31T09:39:43Z</time>
      </trkpt>
      <trkpt lat="43.45701" lon="-0.36846">
        <ele>162.3</ele>
        <time>2026-08-31T09:39:44Z</time>
      </trkpt>
      <trkpt lat="43.45701" lon="-0.36846">
        <ele>162.3</ele>
        <time>2026-08-31T09:39:44Z</time>
      </trkpt>
      <trkpt lat="43.45702" lon="-0.36847">
        <ele>162.3</ele>
        <time>2026-08-31T09:39:45Z</time>
      </trkpt>
      <trkpt lat="43.45702" lon="-0.36848">
        <ele>162.3</ele>
        <time>2026-08-31T09:39:45Z</time>
      </trkpt>
      <trkpt lat="43.45703" lon="-0.36848">
        <ele>163.3</ele>
        <time>2026-08-31T09:39:46Z</time>
      </trkpt>
      <trkpt lat="43.45704" lon="-0.36849">
        <ele>163.3</ele>
        <time>2026-08-31T09:39:46Z</time>
      </trkpt>
      <trkpt lat="43.45704" lon="-0.36849">
        <ele>163.3</ele>
        <time>2026-08-31T09:39:47Z</time>
      </trkpt>
      <trkpt lat="43.45705" lon="-0.3685">
        <ele>163.3</ele>
        <time>2026-08-31T09:39:47Z</time>
      </trkpt>
      <trkpt lat="43.45705" lon="-0.36851">
        <ele>163.3</ele>
        <time>2026-08-31T09:39:48Z</time>
      </trkpt>
      <trkpt lat="43.45706" lon="-0.36851">
        <ele>163.3</ele>
        <time>2026-08-31T09:39:48Z</time>
      </trkpt>
      <trkpt lat="43.45706" lon="-0.36852">
        <ele>163.3</ele>
        <time>2026-08-31T09:39:49Z</time>
      </trkpt>
      <trkpt lat="43.45707" lon="-0.36852">
        <ele>163.3</ele>
        <time>2026-08-31T09:39:50Z</time>
      </trkpt>
      <trkpt lat="43.45707" lon="-0.36853">
        <ele>163.3</ele>
        <time>2026-08-31T09:39:50Z</time>
      </trkpt>
      <trkpt lat="43.45708" lon="-0.36854">
        <ele>163.3</ele>
        <time>2026-08-31T09:39:51Z</time>
      </trkpt>
      <trkpt lat="43.45708" lon="-0.36854">
        <ele>163.3</ele>
        <time>2026-08-31T09:39:51Z</time>
      </trkpt>
      <trkpt lat="43.45709" lon="-0.36855">
        <ele>163.3</ele>
        <time>2026-08-31T09:39:52Z</time>
      </trkpt>
      <trkpt lat="43.45709" lon="-0.36855">
        <ele>163.3</ele>
        <time>2026-08-31T09:39:52Z</time>
      </trkpt>
      <trkpt lat="43.4571" lon="-0.36856">
        <ele>163.3</ele>
        <time>2026-08-31T09:39:53Z</time>
      </trkpt>
      <trkpt lat="43.4571" lon="-0.36857">
        <ele>163.3</ele>
        <time>2026-08-31T09:39:53Z</time>
      </trkpt>
      <trkpt lat="43.45711" lon="-0.36857">
        <ele>163.3</ele>
        <time>2026-08-31T09:39:54Z</time>
      </trkpt>
      <trkpt lat="43.45711" lon="-0.36858">
        <ele>163.3</ele>
        <time>2026-08-31T09:39:54Z</time>
      </trkpt>
      <trkpt lat="43.45712" lon="-0.36858">
        <ele>164.3</ele>
        <time>2026-08-31T09:39:55Z</time>
      </trkpt>
      <trkpt lat="43.45712" lon="-0.36859">
        <ele>164.3</ele>
        <time>2026-08-31T09:39:56Z</time>
      </trkpt>
      <trkpt lat="43.45713" lon="-0.3686">
        <ele>163.3</ele>
        <time>2026-08-31T09:39:56Z</time>
      </trkpt>
      <trkpt lat="43.45713" lon="-0.3686">
        <ele>163.3</ele>
        <time>2026-08-31T09:39:57Z</time>
      </trkpt>
      <trkpt lat="43.45714" lon="-0.36861">
        <ele>163.3</ele>
        <time>2026-08-31T09:39:57Z</time>
      </trkpt>
      <trkpt lat="43.45715" lon="-0.36862">
        <ele>164.3</ele>
        <time>2026-08-31T09:39:58Z</time>
      </trkpt>
      <trkpt lat="43.45715" lon="-0.36862">
        <ele>164.3</ele>
        <time>2026-08-31T09:39:58Z</time>
      </trkpt>
      <trkpt lat="43.45716" lon="-0.36863">
        <ele>164.3</ele>
        <time>2026-08-31T09:39:59Z</time>
      </trkpt>
      <trkpt lat="43.45716" lon="-0.36863">
        <ele>164.3</ele>
        <time>2026-08-31T09:39:59Z</time>
      </trkpt>
      <trkpt lat="43.45717" lon="-0.36864">
        <ele>164.3</ele>
        <time>2026-08-31T09:40:00Z</time>
      </trkpt>
      <trkpt lat="43.45717" lon="-0.36865">
        <ele>164.3</ele>
        <time>2026-08-31T09:40:01Z</time>
      </trkpt>
      <trkpt lat="43.45718" lon="-0.36865">
        <ele>164.3</ele>
        <time>2026-08-31T09:40:01Z</time>
      </trkpt>
      <trkpt lat="43.45719" lon="-0.36866">
        <ele>164.3</ele>
        <time>2026-08-31T09:40:02Z</time>
      </trkpt>
      <trkpt lat="43.45719" lon="-0.36867">
        <ele>165.3</ele>
        <time>2026-08-31T09:40:02Z</time>
      </trkpt>
      <trkpt lat="43.4572" lon="-0.36867">
        <ele>164.3</ele>
        <time>2026-08-31T09:40:03Z</time>
      </trkpt>
      <trkpt lat="43.45721" lon="-0.36868">
        <ele>164.3</ele>
        <time>2026-08-31T09:40:03Z</time>
      </trkpt>
      <trkpt lat="43.45721" lon="-0.36868">
        <ele>165.3</ele>
        <time>2026-08-31T09:40:04Z</time>
      </trkpt>
      <trkpt lat="43.45722" lon="-0.36869">
        <ele>165.3</ele>
        <time>2026-08-31T09:40:04Z</time>
      </trkpt>
      <trkpt lat="43.45723" lon="-0.3687">
        <ele>165.3</ele>
        <time>2026-08-31T09:40:05Z</time>
      </trkpt>
      <trkpt lat="43.45723" lon="-0.3687">
        <ele>165.3</ele>
        <time>2026-08-31T09:40:05Z</time>
      </trkpt>
      <trkpt lat="43.45724" lon="-0.36871">
        <ele>165.3</ele>
        <time>2026-08-31T09:40:06Z</time>
      </trkpt>
      <trkpt lat="43.45724" lon="-0.36872">
        <ele>165.3</ele>
        <time>2026-08-31T09:40:07Z</time>
      </trkpt>
      <trkpt lat="43.45725" lon="-0.36872">
        <ele>165.3</ele>
        <time>2026-08-31T09:40:07Z</time>
      </trkpt>
      <trkpt lat="43.45725" lon="-0.36873">
        <ele>165.3</ele>
        <time>2026-08-31T09:40:08Z</time>
      </trkpt>
      <trkpt lat="43.45726" lon="-0.36874">
        <ele>166.3</ele>
        <time>2026-08-31T09:40:08Z</time>
      </trkpt>
      <trkpt lat="43.45726" lon="-0.36874">
        <ele>166.3</ele>
        <time>2026-08-31T09:40:09Z</time>
      </trkpt>
      <trkpt lat="43.45727" lon="-0.36875">
        <ele>166.3</ele>
        <time>2026-08-31T09:40:09Z</time>
      </trkpt>
      <trkpt lat="43.45727" lon="-0.36876">
        <ele>166.3</ele>
        <time>2026-08-31T09:40:10Z</time>
      </trkpt>
      <trkpt lat="43.45728" lon="-0.36877">
        <ele>166.3</ele>
        <time>2026-08-31T09:40:10Z</time>
      </trkpt>
      <trkpt lat="43.45728" lon="-0.36877">
        <ele>166.3</ele>
        <time>2026-08-31T09:40:11Z</time>
      </trkpt>
      <trkpt lat="43.45729" lon="-0.36878">
        <ele>166.3</ele>
        <time>2026-08-31T09:40:11Z</time>
      </trkpt>
      <trkpt lat="43.45729" lon="-0.36879">
        <ele>166.3</ele>
        <time>2026-08-31T09:40:12Z</time>
      </trkpt>
      <trkpt lat="43.4573" lon="-0.3688">
        <ele>166.3</ele>
        <time>2026-08-31T09:40:13Z</time>
      </trkpt>
      <trkpt lat="43.4573" lon="-0.3688">
        <ele>167.3</ele>
        <time>2026-08-31T09:40:13Z</time>
      </trkpt>
      <trkpt lat="43.45731" lon="-0.36881">
        <ele>167.3</ele>
        <time>2026-08-31T09:40:14Z</time>
      </trkpt>
      <trkpt lat="43.45731" lon="-0.36882">
        <ele>166.3</ele>
        <time>2026-08-31T09:40:14Z</time>
      </trkpt>
      <trkpt lat="43.45732" lon="-0.36882">
        <ele>166.3</ele>
        <time>2026-08-31T09:40:15Z</time>
      </trkpt>
      <trkpt lat="43.45732" lon="-0.36883">
        <ele>166.3</ele>
        <time>2026-08-31T09:40:15Z</time>
      </trkpt>
      <trkpt lat="43.45733" lon="-0.36884">
        <ele>166.3</ele>
        <time>2026-08-31T09:40:16Z</time>
      </trkpt>
      <trkpt lat="43.45733" lon="-0.36884">
        <ele>166.3</ele>
        <time>2026-08-31T09:40:16Z</time>
      </trkpt>
      <trkpt lat="43.45734" lon="-0.36885">
        <ele>166.3</ele>
        <time>2026-08-31T09:40:17Z</time>
      </trkpt>
      <trkpt lat="43.45734" lon="-0.36886">
        <ele>166.3</ele>
        <time>2026-08-31T09:40:17Z</time>
      </trkpt>
      <trkpt lat="43.45735" lon="-0.36886">
        <ele>166.3</ele>
        <time>2026-08-31T09:40:18Z</time>
      </trkpt>
      <trkpt lat="43.45736" lon="-0.36887">
        <ele>166.3</ele>
        <time>2026-08-31T09:40:18Z</time>
      </trkpt>
      <trkpt lat="43.45736" lon="-0.36887">
        <ele>166.3</ele>
        <time>2026-08-31T09:40:19Z</time>
      </trkpt>
      <trkpt lat="43.45737" lon="-0.36888">
        <ele>166.3</ele>
        <time>2026-08-31T09:40:20Z</time>
      </trkpt>
      <trkpt lat="43.45737" lon="-0.36888">
        <ele>166.3</ele>
        <time>2026-08-31T09:40:20Z</time>
      </trkpt>
      <trkpt lat="43.45738" lon="-0.36889">
        <ele>166.3</ele>
        <time>2026-08-31T09:40:21Z</time>
      </trkpt>
      <trkpt lat="43.45738" lon="-0.36889">
        <ele>166.3</ele>
        <time>2026-08-31T09:40:21Z</time>
      </trkpt>
      <trkpt lat="43.45739" lon="-0.3689">
        <ele>166.3</ele>
        <time>2026-08-31T09:40:22Z</time>
      </trkpt>
      <trkpt lat="43.4574" lon="-0.3689">
        <ele>166.3</ele>
        <time>2026-08-31T09:40:22Z</time>
      </trkpt>
      <trkpt lat="43.4574" lon="-0.36891">
        <ele>166.3</ele>
        <time>2026-08-31T09:40:23Z</time>
      </trkpt>
      <trkpt lat="43.45741" lon="-0.36891">
        <ele>166.3</ele>
        <time>2026-08-31T09:40:23Z</time>
      </trkpt>
      <trkpt lat="43.45742" lon="-0.36891">
        <ele>167.3</ele>
        <time>2026-08-31T09:40:24Z</time>
      </trkpt>
      <trkpt lat="43.45742" lon="-0.36892">
        <ele>167.3</ele>
        <time>2026-08-31T09:40:24Z</time>
      </trkpt>
      <trkpt lat="43.45743" lon="-0.36892">
        <ele>167.3</ele>
        <time>2026-08-31T09:40:25Z</time>
      </trkpt>
      <trkpt lat="43.45743" lon="-0.36893">
        <ele>167.3</ele>
        <time>2026-08-31T09:40:25Z</time>
      </trkpt>
      <trkpt lat="43.45744" lon="-0.36894">
        <ele>167.3</ele>
        <time>2026-08-31T09:40:26Z</time>
      </trkpt>
      <trkpt lat="43.45745" lon="-0.36894">
        <ele>167.3</ele>
        <time>2026-08-31T09:40:26Z</time>
      </trkpt>
      <trkpt lat="43.45745" lon="-0.36895">
        <ele>167.3</ele>
        <time>2026-08-31T09:40:27Z</time>
      </trkpt>
      <trkpt lat="43.45746" lon="-0.36895">
        <ele>167.3</ele>
        <time>2026-08-31T09:40:27Z</time>
      </trkpt>
      <trkpt lat="43.45746" lon="-0.36896">
        <ele>167.3</ele>
        <time>2026-08-31T09:40:28Z</time>
      </trkpt>
      <trkpt lat="43.45747" lon="-0.36897">
        <ele>167.3</ele>
        <time>2026-08-31T09:40:29Z</time>
      </trkpt>
      <trkpt lat="43.45747" lon="-0.36898">
        <ele>167.3</ele>
        <time>2026-08-31T09:40:29Z</time>
      </trkpt>
      <trkpt lat="43.45748" lon="-0.36898">
        <ele>167.3</ele>
        <time>2026-08-31T09:40:30Z</time>
      </trkpt>
      <trkpt lat="43.45748" lon="-0.36899">
        <ele>167.3</ele>
        <time>2026-08-31T09:40:30Z</time>
      </trkpt>
      <trkpt lat="43.45748" lon="-0.369">
        <ele>167.3</ele>
        <time>2026-08-31T09:40:31Z</time>
      </trkpt>
      <trkpt lat="43.45749" lon="-0.36901">
        <ele>167.3</ele>
        <time>2026-08-31T09:40:31Z</time>
      </trkpt>
      <trkpt lat="43.45749" lon="-0.36902">
        <ele>167.3</ele>
        <time>2026-08-31T09:40:32Z</time>
      </trkpt>
      <trkpt lat="43.4575" lon="-0.36902">
        <ele>167.3</ele>
        <time>2026-08-31T09:40:32Z</time>
      </trkpt>
      <trkpt lat="43.4575" lon="-0.36903">
        <ele>166.3</ele>
        <time>2026-08-31T09:40:33Z</time>
      </trkpt>
      <trkpt lat="43.4575" lon="-0.36904">
        <ele>166.3</ele>
        <time>2026-08-31T09:40:33Z</time>
      </trkpt>
      <trkpt lat="43.45751" lon="-0.36905">
        <ele>166.3</ele>
        <time>2026-08-31T09:40:34Z</time>
      </trkpt>
      <trkpt lat="43.45751" lon="-0.36906">
        <ele>166.3</ele>
        <time>2026-08-31T09:40:34Z</time>
      </trkpt>
      <trkpt lat="43.45751" lon="-0.36907">
        <ele>166.3</ele>
        <time>2026-08-31T09:40:35Z</time>
      </trkpt>
      <trkpt lat="43.45752" lon="-0.36907">
        <ele>166.3</ele>
        <time>2026-08-31T09:40:36Z</time>
      </trkpt>
      <trkpt lat="43.45752" lon="-0.36908">
        <ele>166.3</ele>
        <time>2026-08-31T09:40:36Z</time>
      </trkpt>
      <trkpt lat="43.45753" lon="-0.36909">
        <ele>166.3</ele>
        <time>2026-08-31T09:40:37Z</time>
      </trkpt>
      <trkpt lat="43.45753" lon="-0.36909">
        <ele>166.3</ele>
        <time>2026-08-31T09:40:37Z</time>
      </trkpt>
      <trkpt lat="43.45754" lon="-0.3691">
        <ele>166.3</ele>
        <time>2026-08-31T09:40:38Z</time>
      </trkpt>
      <trkpt lat="43.45754" lon="-0.36911">
        <ele>166.3</ele>
        <time>2026-08-31T09:40:38Z</time>
      </trkpt>
      <trkpt lat="43.45755" lon="-0.36911">
        <ele>166.3</ele>
        <time>2026-08-31T09:40:39Z</time>
      </trkpt>
      <trkpt lat="43.45755" lon="-0.36912">
        <ele>166.3</ele>
        <time>2026-08-31T09:40:39Z</time>
      </trkpt>
      <trkpt lat="43.45755" lon="-0.36913">
        <ele>166.3</ele>
        <time>2026-08-31T09:40:40Z</time>
      </trkpt>
      <trkpt lat="43.45756" lon="-0.36914">
        <ele>166.3</ele>
        <time>2026-08-31T09:40:40Z</time>
      </trkpt>
      <trkpt lat="43.45756" lon="-0.36914">
        <ele>166.3</ele>
        <time>2026-08-31T09:40:41Z</time>
      </trkpt>
      <trkpt lat="43.45757" lon="-0.36915">
        <ele>166.3</ele>
        <time>2026-08-31T09:40:41Z</time>
      </trkpt>
      <trkpt lat="43.45757" lon="-0.36916">
        <ele>166.3</ele>
        <time>2026-08-31T09:40:42Z</time>
      </trkpt>
      <trkpt lat="43.45758" lon="-0.36917">
        <ele>166.3</ele>
        <time>2026-08-31T09:40:42Z</time>
      </trkpt>
      <trkpt lat="43.45758" lon="-0.36917">
        <ele>166.3</ele>
        <time>2026-08-31T09:40:43Z</time>
      </trkpt>
      <trkpt lat="43.45758" lon="-0.36918">
        <ele>166.3</ele>
        <time>2026-08-31T09:40:43Z</time>
      </trkpt>
      <trkpt lat="43.45759" lon="-0.36919">
        <ele>166.3</ele>
        <time>2026-08-31T09:40:44Z</time>
      </trkpt>
      <trkpt lat="43.45759" lon="-0.3692">
        <ele>166.3</ele>
        <time>2026-08-31T09:40:44Z</time>
      </trkpt>
      <trkpt lat="43.4576" lon="-0.3692">
        <ele>167.3</ele>
        <time>2026-08-31T09:40:45Z</time>
      </trkpt>
      <trkpt lat="43.4576" lon="-0.36921">
        <ele>167.3</ele>
        <time>2026-08-31T09:40:46Z</time>
      </trkpt>
      <trkpt lat="43.45761" lon="-0.36922">
        <ele>167.3</ele>
        <time>2026-08-31T09:40:46Z</time>
      </trkpt>
      <trkpt lat="43.45761" lon="-0.36922">
        <ele>167.3</ele>
        <time>2026-08-31T09:40:47Z</time>
      </trkpt>
      <trkpt lat="43.45762" lon="-0.36923">
        <ele>167.3</ele>
        <time>2026-08-31T09:40:47Z</time>
      </trkpt>
      <trkpt lat="43.45762" lon="-0.36924">
        <ele>167.3</ele>
        <time>2026-08-31T09:40:48Z</time>
      </trkpt>
      <trkpt lat="43.45762" lon="-0.36924">
        <ele>167.3</ele>
        <time>2026-08-31T09:40:48Z</time>
      </trkpt>
      <trkpt lat="43.45763" lon="-0.36925">
        <ele>167.3</ele>
        <time>2026-08-31T09:40:49Z</time>
      </trkpt>
      <trkpt lat="43.45763" lon="-0.36926">
        <ele>167.3</ele>
        <time>2026-08-31T09:40:49Z</time>
      </trkpt>
      <trkpt lat="43.45764" lon="-0.36927">
        <ele>167.3</ele>
        <time>2026-08-31T09:40:50Z</time>
      </trkpt>
      <trkpt lat="43.45764" lon="-0.36928">
        <ele>167.3</ele>
        <time>2026-08-31T09:40:50Z</time>
      </trkpt>
      <trkpt lat="43.45765" lon="-0.36928">
        <ele>167.3</ele>
        <time>2026-08-31T09:40:51Z</time>
      </trkpt>
      <trkpt lat="43.45765" lon="-0.36929">
        <ele>167.3</ele>
        <time>2026-08-31T09:40:51Z</time>
      </trkpt>
      <trkpt lat="43.45765" lon="-0.3693">
        <ele>168.3</ele>
        <time>2026-08-31T09:40:52Z</time>
      </trkpt>
      <trkpt lat="43.45766" lon="-0.36931">
        <ele>168.3</ele>
        <time>2026-08-31T09:40:52Z</time>
      </trkpt>
      <trkpt lat="43.45766" lon="-0.36932">
        <ele>167.3</ele>
        <time>2026-08-31T09:40:53Z</time>
      </trkpt>
      <trkpt lat="43.45767" lon="-0.36933">
        <ele>167.3</ele>
        <time>2026-08-31T09:40:54Z</time>
      </trkpt>
      <trkpt lat="43.45767" lon="-0.36933">
        <ele>167.3</ele>
        <time>2026-08-31T09:40:54Z</time>
      </trkpt>
      <trkpt lat="43.45768" lon="-0.36934">
        <ele>167.3</ele>
        <time>2026-08-31T09:40:55Z</time>
      </trkpt>
      <trkpt lat="43.45768" lon="-0.36935">
        <ele>167.3</ele>
        <time>2026-08-31T09:40:55Z</time>
      </trkpt>
      <trkpt lat="43.45769" lon="-0.36936">
        <ele>167.3</ele>
        <time>2026-08-31T09:40:56Z</time>
      </trkpt>
      <trkpt lat="43.45769" lon="-0.36936">
        <ele>167.3</ele>
        <time>2026-08-31T09:40:56Z</time>
      </trkpt>
      <trkpt lat="43.4577" lon="-0.36937">
        <ele>167.3</ele>
        <time>2026-08-31T09:40:57Z</time>
      </trkpt>
      <trkpt lat="43.4577" lon="-0.36938">
        <ele>167.3</ele>
        <time>2026-08-31T09:40:57Z</time>
      </trkpt>
      <trkpt lat="43.45771" lon="-0.36939">
        <ele>167.3</ele>
        <time>2026-08-31T09:40:58Z</time>
      </trkpt>
      <trkpt lat="43.45771" lon="-0.36939">
        <ele>167.3</ele>
        <time>2026-08-31T09:40:58Z</time>
      </trkpt>
      <trkpt lat="43.45772" lon="-0.3694">
        <ele>167.3</ele>
        <time>2026-08-31T09:40:59Z</time>
      </trkpt>
      <trkpt lat="43.45772" lon="-0.36941">
        <ele>167.3</ele>
        <time>2026-08-31T09:40:59Z</time>
      </trkpt>
      <trkpt lat="43.45773" lon="-0.36941">
        <ele>167.3</ele>
        <time>2026-08-31T09:41:00Z</time>
      </trkpt>
      <trkpt lat="43.45774" lon="-0.36942">
        <ele>167.3</ele>
        <time>2026-08-31T09:41:00Z</time>
      </trkpt>
      <trkpt lat="43.45774" lon="-0.36943">
        <ele>167.3</ele>
        <time>2026-08-31T09:41:01Z</time>
      </trkpt>
      <trkpt lat="43.45775" lon="-0.36944">
        <ele>167.3</ele>
        <time>2026-08-31T09:41:02Z</time>
      </trkpt>
      <trkpt lat="43.45775" lon="-0.36944">
        <ele>168.3</ele>
        <time>2026-08-31T09:41:02Z</time>
      </trkpt>
      <trkpt lat="43.45776" lon="-0.36945">
        <ele>168.3</ele>
        <time>2026-08-31T09:41:03Z</time>
      </trkpt>
      <trkpt lat="43.45776" lon="-0.36946">
        <ele>168.3</ele>
        <time>2026-08-31T09:41:03Z</time>
      </trkpt>
      <trkpt lat="43.45776" lon="-0.36946">
        <ele>168.3</ele>
        <time>2026-08-31T09:41:04Z</time>
      </trkpt>
      <trkpt lat="43.45777" lon="-0.36947">
        <ele>168.3</ele>
        <time>2026-08-31T09:41:04Z</time>
      </trkpt>
      <trkpt lat="43.45778" lon="-0.36947">
        <ele>167.3</ele>
        <time>2026-08-31T09:41:05Z</time>
      </trkpt>
      <trkpt lat="43.45778" lon="-0.36948">
        <ele>167.3</ele>
        <time>2026-08-31T09:41:05Z</time>
      </trkpt>
      <trkpt lat="43.45779" lon="-0.36949">
        <ele>167.3</ele>
        <time>2026-08-31T09:41:06Z</time>
      </trkpt>
      <trkpt lat="43.45779" lon="-0.36949">
        <ele>167.3</ele>
        <time>2026-08-31T09:41:06Z</time>
      </trkpt>
      <trkpt lat="43.4578" lon="-0.3695">
        <ele>167.3</ele>
        <time>2026-08-31T09:41:07Z</time>
      </trkpt>
      <trkpt lat="43.45781" lon="-0.36951">
        <ele>167.3</ele>
        <time>2026-08-31T09:41:07Z</time>
      </trkpt>
      <trkpt lat="43.45781" lon="-0.36952">
        <ele>168.3</ele>
        <time>2026-08-31T09:41:08Z</time>
      </trkpt>
      <trkpt lat="43.45782" lon="-0.36952">
        <ele>168.3</ele>
        <time>2026-08-31T09:41:08Z</time>
      </trkpt>
      <trkpt lat="43.45782" lon="-0.36953">
        <ele>167.3</ele>
        <time>2026-08-31T09:41:09Z</time>
      </trkpt>
      <trkpt lat="43.45783" lon="-0.36954">
        <ele>167.3</ele>
        <time>2026-08-31T09:41:10Z</time>
      </trkpt>
      <trkpt lat="43.45783" lon="-0.36955">
        <ele>167.3</ele>
        <time>2026-08-31T09:41:10Z</time>
      </trkpt>
      <trkpt lat="43.45784" lon="-0.36955">
        <ele>167.3</ele>
        <time>2026-08-31T09:41:11Z</time>
      </trkpt>
      <trkpt lat="43.45784" lon="-0.36956">
        <ele>167.3</ele>
        <time>2026-08-31T09:41:11Z</time>
      </trkpt>
      <trkpt lat="43.45784" lon="-0.36957">
        <ele>167.3</ele>
        <time>2026-08-31T09:41:12Z</time>
      </trkpt>
      <trkpt lat="43.45785" lon="-0.36958">
        <ele>167.3</ele>
        <time>2026-08-31T09:41:12Z</time>
      </trkpt>
      <trkpt lat="43.45785" lon="-0.36959">
        <ele>167.3</ele>
        <time>2026-08-31T09:41:13Z</time>
      </trkpt>
      <trkpt lat="43.45786" lon="-0.36959">
        <ele>167.3</ele>
        <time>2026-08-31T09:41:13Z</time>
      </trkpt>
      <trkpt lat="43.45786" lon="-0.3696">
        <ele>167.3</ele>
        <time>2026-08-31T09:41:14Z</time>
      </trkpt>
      <trkpt lat="43.45787" lon="-0.36961">
        <ele>167.3</ele>
        <time>2026-08-31T09:41:14Z</time>
      </trkpt>
      <trkpt lat="43.45787" lon="-0.36962">
        <ele>167.3</ele>
        <time>2026-08-31T09:41:15Z</time>
      </trkpt>
      <trkpt lat="43.45788" lon="-0.36963">
        <ele>167.3</ele>
        <time>2026-08-31T09:41:15Z</time>
      </trkpt>
      <trkpt lat="43.45788" lon="-0.36964">
        <ele>166.3</ele>
        <time>2026-08-31T09:41:16Z</time>
      </trkpt>
      <trkpt lat="43.45789" lon="-0.36964">
        <ele>166.3</ele>
        <time>2026-08-31T09:41:16Z</time>
      </trkpt>
      <trkpt lat="43.45789" lon="-0.36965">
        <ele>167.3</ele>
        <time>2026-08-31T09:41:17Z</time>
      </trkpt>
      <trkpt lat="43.4579" lon="-0.36966">
        <ele>167.3</ele>
        <time>2026-08-31T09:41:18Z</time>
      </trkpt>
      <trkpt lat="43.4579" lon="-0.36967">
        <ele>167.3</ele>
        <time>2026-08-31T09:41:18Z</time>
      </trkpt>
      <trkpt lat="43.4579" lon="-0.36968">
        <ele>167.3</ele>
        <time>2026-08-31T09:41:19Z</time>
      </trkpt>
      <trkpt lat="43.45791" lon="-0.36968">
        <ele>167.3</ele>
        <time>2026-08-31T09:41:19Z</time>
      </trkpt>
      <trkpt lat="43.45791" lon="-0.36969">
        <ele>167.3</ele>
        <time>2026-08-31T09:41:20Z</time>
      </trkpt>
      <trkpt lat="43.45792" lon="-0.3697">
        <ele>167.3</ele>
        <time>2026-08-31T09:41:20Z</time>
      </trkpt>
      <trkpt lat="43.45792" lon="-0.3697">
        <ele>167.3</ele>
        <time>2026-08-31T09:41:21Z</time>
      </trkpt>
      <trkpt lat="43.45793" lon="-0.36971">
        <ele>167.3</ele>
        <time>2026-08-31T09:41:21Z</time>
      </trkpt>
      <trkpt lat="43.45793" lon="-0.36971">
        <ele>167.3</ele>
        <time>2026-08-31T09:41:22Z</time>
      </trkpt>
      <trkpt lat="43.45794" lon="-0.36972">
        <ele>167.3</ele>
        <time>2026-08-31T09:41:22Z</time>
      </trkpt>
      <trkpt lat="43.45794" lon="-0.36972">
        <ele>167.3</ele>
        <time>2026-08-31T09:41:23Z</time>
      </trkpt>
      <trkpt lat="43.45795" lon="-0.36973">
        <ele>167.3</ele>
        <time>2026-08-31T09:41:23Z</time>
      </trkpt>
      <trkpt lat="43.45795" lon="-0.36973">
        <ele>166.3</ele>
        <time>2026-08-31T09:41:24Z</time>
      </trkpt>
      <trkpt lat="43.45796" lon="-0.36974">
        <ele>166.3</ele>
        <time>2026-08-31T09:41:24Z</time>
      </trkpt>
      <trkpt lat="43.45796" lon="-0.36975">
        <ele>166.3</ele>
        <time>2026-08-31T09:41:25Z</time>
      </trkpt>
      <trkpt lat="43.45797" lon="-0.36975">
        <ele>166.3</ele>
        <time>2026-08-31T09:41:25Z</time>
      </trkpt>
      <trkpt lat="43.45797" lon="-0.36976">
        <ele>165.3</ele>
        <time>2026-08-31T09:41:26Z</time>
      </trkpt>
      <trkpt lat="43.45798" lon="-0.36977">
        <ele>165.3</ele>
        <time>2026-08-31T09:41:27Z</time>
      </trkpt>
      <trkpt lat="43.45798" lon="-0.36977">
        <ele>165.3</ele>
        <time>2026-08-31T09:41:27Z</time>
      </trkpt>
      <trkpt lat="43.45799" lon="-0.36978">
        <ele>165.3</ele>
        <time>2026-08-31T09:41:28Z</time>
      </trkpt>
      <trkpt lat="43.45799" lon="-0.36979">
        <ele>165.3</ele>
        <time>2026-08-31T09:41:28Z</time>
      </trkpt>
      <trkpt lat="43.458" lon="-0.36979">
        <ele>165.3</ele>
        <time>2026-08-31T09:41:29Z</time>
      </trkpt>
      <trkpt lat="43.458" lon="-0.3698">
        <ele>165.3</ele>
        <time>2026-08-31T09:41:29Z</time>
      </trkpt>
      <trkpt lat="43.45801" lon="-0.3698">
        <ele>165.3</ele>
        <time>2026-08-31T09:41:30Z</time>
      </trkpt>
      <trkpt lat="43.45801" lon="-0.36981">
        <ele>165.3</ele>
        <time>2026-08-31T09:41:30Z</time>
      </trkpt>
      <trkpt lat="43.45802" lon="-0.36981">
        <ele>164.3</ele>
        <time>2026-08-31T09:41:31Z</time>
      </trkpt>
      <trkpt lat="43.45802" lon="-0.36982">
        <ele>164.3</ele>
        <time>2026-08-31T09:41:31Z</time>
      </trkpt>
      <trkpt lat="43.45803" lon="-0.36982">
        <ele>164.3</ele>
        <time>2026-08-31T09:41:32Z</time>
      </trkpt>
      <trkpt lat="43.45803" lon="-0.36983">
        <ele>164.3</ele>
        <time>2026-08-31T09:41:32Z</time>
      </trkpt>
      <trkpt lat="43.45804" lon="-0.36984">
        <ele>163.3</ele>
        <time>2026-08-31T09:41:33Z</time>
      </trkpt>
      <trkpt lat="43.45805" lon="-0.36984">
        <ele>163.3</ele>
        <time>2026-08-31T09:41:33Z</time>
      </trkpt>
      <trkpt lat="43.45805" lon="-0.36985">
        <ele>163.3</ele>
        <time>2026-08-31T09:41:34Z</time>
      </trkpt>
      <trkpt lat="43.45806" lon="-0.36986">
        <ele>163.3</ele>
        <time>2026-08-31T09:41:34Z</time>
      </trkpt>
      <trkpt lat="43.45807" lon="-0.36986">
        <ele>163.3</ele>
        <time>2026-08-31T09:41:35Z</time>
      </trkpt>
      <trkpt lat="43.45807" lon="-0.36987">
        <ele>163.3</ele>
        <time>2026-08-31T09:41:35Z</time>
      </trkpt>
      <trkpt lat="43.45808" lon="-0.36987">
        <ele>162.3</ele>
        <time>2026-08-31T09:41:36Z</time>
      </trkpt>
      <trkpt lat="43.45808" lon="-0.36987">
        <ele>162.3</ele>
        <time>2026-08-31T09:41:37Z</time>
      </trkpt>
      <trkpt lat="43.45809" lon="-0.36988">
        <ele>162.3</ele>
        <time>2026-08-31T09:41:37Z</time>
      </trkpt>
      <trkpt lat="43.4581" lon="-0.36988">
        <ele>162.3</ele>
        <time>2026-08-31T09:41:38Z</time>
      </trkpt>
      <trkpt lat="43.4581" lon="-0.36989">
        <ele>161.3</ele>
        <time>2026-08-31T09:41:38Z</time>
      </trkpt>
      <trkpt lat="43.45811" lon="-0.36989">
        <ele>161.3</ele>
        <time>2026-08-31T09:41:39Z</time>
      </trkpt>
      <trkpt lat="43.45812" lon="-0.36989">
        <ele>161.3</ele>
        <time>2026-08-31T09:41:39Z</time>
      </trkpt>
      <trkpt lat="43.45812" lon="-0.3699">
        <ele>161.3</ele>
        <time>2026-08-31T09:41:40Z</time>
      </trkpt>
      <trkpt lat="43.45813" lon="-0.3699">
        <ele>161.3</ele>
        <time>2026-08-31T09:41:40Z</time>
      </trkpt>
      <trkpt lat="43.45814" lon="-0.36991">
        <ele>162.3</ele>
        <time>2026-08-31T09:41:41Z</time>
      </trkpt>
      <trkpt lat="43.45814" lon="-0.36991">
        <ele>162.3</ele>
        <time>2026-08-31T09:41:41Z</time>
      </trkpt>
      <trkpt lat="43.45815" lon="-0.36992">
        <ele>161.3</ele>
        <time>2026-08-31T09:41:42Z</time>
      </trkpt>
      <trkpt lat="43.45816" lon="-0.36992">
        <ele>161.3</ele>
        <time>2026-08-31T09:41:42Z</time>
      </trkpt>
      <trkpt lat="43.45816" lon="-0.36993">
        <ele>162.3</ele>
        <time>2026-08-31T09:41:43Z</time>
      </trkpt>
      <trkpt lat="43.45817" lon="-0.36993">
        <ele>162.3</ele>
        <time>2026-08-31T09:41:43Z</time>
      </trkpt>
      <trkpt lat="43.45817" lon="-0.36994">
        <ele>161.3</ele>
        <time>2026-08-31T09:41:44Z</time>
      </trkpt>
      <trkpt lat="43.45818" lon="-0.36994">
        <ele>161.3</ele>
        <time>2026-08-31T09:41:45Z</time>
      </trkpt>
      <trkpt lat="43.45819" lon="-0.36995">
        <ele>162.3</ele>
        <time>2026-08-31T09:41:45Z</time>
      </trkpt>
      <trkpt lat="43.45819" lon="-0.36995">
        <ele>162.3</ele>
        <time>2026-08-31T09:41:46Z</time>
      </trkpt>
      <trkpt lat="43.4582" lon="-0.36996">
        <ele>162.3</ele>
        <time>2026-08-31T09:41:46Z</time>
      </trkpt>
      <trkpt lat="43.45821" lon="-0.36996">
        <ele>162.3</ele>
        <time>2026-08-31T09:41:47Z</time>
      </trkpt>
      <trkpt lat="43.45821" lon="-0.36997">
        <ele>161.3</ele>
        <time>2026-08-31T09:41:47Z</time>
      </trkpt>
      <trkpt lat="43.45822" lon="-0.36997">
        <ele>162.3</ele>
        <time>2026-08-31T09:41:48Z</time>
      </trkpt>
      <trkpt lat="43.45822" lon="-0.36998">
        <ele>162.3</ele>
        <time>2026-08-31T09:41:48Z</time>
      </trkpt>
      <trkpt lat="43.45823" lon="-0.36998">
        <ele>161.3</ele>
        <time>2026-08-31T09:41:49Z</time>
      </trkpt>
      <trkpt lat="43.45824" lon="-0.36998">
        <ele>161.3</ele>
        <time>2026-08-31T09:41:49Z</time>
      </trkpt>
      <trkpt lat="43.45824" lon="-0.36999">
        <ele>161.3</ele>
        <time>2026-08-31T09:41:50Z</time>
      </trkpt>
      <trkpt lat="43.45825" lon="-0.36999">
        <ele>161.3</ele>
        <time>2026-08-31T09:41:50Z</time>
      </trkpt>
      <trkpt lat="43.45826" lon="-0.36999">
        <ele>161.3</ele>
        <time>2026-08-31T09:41:51Z</time>
      </trkpt>
      <trkpt lat="43.45826" lon="-0.37">
        <ele>161.3</ele>
        <time>2026-08-31T09:41:51Z</time>
      </trkpt>
      <trkpt lat="43.45827" lon="-0.37">
        <ele>161.3</ele>
        <time>2026-08-31T09:41:52Z</time>
      </trkpt>
      <trkpt lat="43.45828" lon="-0.37">
        <ele>161.3</ele>
        <time>2026-08-31T09:41:52Z</time>
      </trkpt>
      <trkpt lat="43.45829" lon="-0.37">
        <ele>161.3</ele>
        <time>2026-08-31T09:41:53Z</time>
      </trkpt>
      <trkpt lat="43.45829" lon="-0.37">
        <ele>161.3</ele>
        <time>2026-08-31T09:41:54Z</time>
      </trkpt>
      <trkpt lat="43.4583" lon="-0.37">
        <ele>161.3</ele>
        <time>2026-08-31T09:41:54Z</time>
      </trkpt>
      <trkpt lat="43.45831" lon="-0.37">
        <ele>161.3</ele>
        <time>2026-08-31T09:41:55Z</time>
      </trkpt>
      <trkpt lat="43.45831" lon="-0.37">
        <ele>161.3</ele>
        <time>2026-08-31T09:41:55Z</time>
      </trkpt>
      <trkpt lat="43.45832" lon="-0.37">
        <ele>161.3</ele>
        <time>2026-08-31T09:41:56Z</time>
      </trkpt>
      <trkpt lat="43.45833" lon="-0.37">
        <ele>161.3</ele>
        <time>2026-08-31T09:41:56Z</time>
      </trkpt>
      <trkpt lat="43.45834" lon="-0.37001">
        <ele>161.3</ele>
        <time>2026-08-31T09:41:57Z</time>
      </trkpt>
      <trkpt lat="43.45834" lon="-0.37001">
        <ele>160.3</ele>
        <time>2026-08-31T09:41:57Z</time>
      </trkpt>
      <trkpt lat="43.45835" lon="-0.37">
        <ele>160.3</ele>
        <time>2026-08-31T09:41:58Z</time>
      </trkpt>
      <trkpt lat="43.45836" lon="-0.37">
        <ele>160.3</ele>
        <time>2026-08-31T09:41:58Z</time>
      </trkpt>
      <trkpt lat="43.45836" lon="-0.37">
        <ele>160.3</ele>
        <time>2026-08-31T09:41:59Z</time>
      </trkpt>
      <trkpt lat="43.45837" lon="-0.37">
        <ele>160.3</ele>
        <time>2026-08-31T09:41:59Z</time>
      </trkpt>
      <trkpt lat="43.45838" lon="-0.37">
        <ele>160.3</ele>
        <time>2026-08-31T09:42:00Z</time>
      </trkpt>
      <trkpt lat="43.45839" lon="-0.37">
        <ele>160.3</ele>
        <time>2026-08-31T09:42:00Z</time>
      </trkpt>
      <trkpt lat="43.45839" lon="-0.37">
        <ele>160.3</ele>
        <time>2026-08-31T09:42:01Z</time>
      </trkpt>
      <trkpt lat="43.4584" lon="-0.37">
        <ele>160.3</ele>
        <time>2026-08-31T09:42:01Z</time>
      </trkpt>
      <trkpt lat="43.45841" lon="-0.37">
        <ele>160.3</ele>
        <time>2026-08-31T09:42:02Z</time>
      </trkpt>
      <trkpt lat="43.45842" lon="-0.37">
        <ele>160.3</ele>
        <time>2026-08-31T09:42:03Z</time>
      </trkpt>
      <trkpt lat="43.45842" lon="-0.37">
        <ele>160.3</ele>
        <time>2026-08-31T09:42:03Z</time>
      </trkpt>
      <trkpt lat="43.45843" lon="-0.37">
        <ele>160.3</ele>
        <time>2026-08-31T09:42:04Z</time>
      </trkpt>
      <trkpt lat="43.45844" lon="-0.37001">
        <ele>160.3</ele>
        <time>2026-08-31T09:42:04Z</time>
      </trkpt>
      <trkpt lat="43.45844" lon="-0.37001">
        <ele>160.3</ele>
        <time>2026-08-31T09:42:05Z</time>
      </trkpt>
      <trkpt lat="43.45845" lon="-0.37001">
        <ele>160.3</ele>
        <time>2026-08-31T09:42:05Z</time>
      </trkpt>
      <trkpt lat="43.45846" lon="-0.37001">
        <ele>160.3</ele>
        <time>2026-08-31T09:42:06Z</time>
      </trkpt>
      <trkpt lat="43.45847" lon="-0.37001">
        <ele>160.3</ele>
        <time>2026-08-31T09:42:06Z</time>
      </trkpt>
      <trkpt lat="43.45847" lon="-0.37001">
        <ele>160.3</ele>
        <time>2026-08-31T09:42:07Z</time>
      </trkpt>
      <trkpt lat="43.45848" lon="-0.37001">
        <ele>160.3</ele>
        <time>2026-08-31T09:42:07Z</time>
      </trkpt>
      <trkpt lat="43.45849" lon="-0.37001">
        <ele>160.3</ele>
        <time>2026-08-31T09:42:08Z</time>
      </trkpt>
      <trkpt lat="43.45849" lon="-0.37001">
        <ele>160.3</ele>
        <time>2026-08-31T09:42:08Z</time>
      </trkpt>
      <trkpt lat="43.4585" lon="-0.37002">
        <ele>160.3</ele>
        <time>2026-08-31T09:42:09Z</time>
      </trkpt>
      <trkpt lat="43.45851" lon="-0.37002">
        <ele>160.3</ele>
        <time>2026-08-31T09:42:09Z</time>
      </trkpt>
      <trkpt lat="43.45852" lon="-0.37002">
        <ele>160.3</ele>
        <time>2026-08-31T09:42:10Z</time>
      </trkpt>
      <trkpt lat="43.45852" lon="-0.37002">
        <ele>160.3</ele>
        <time>2026-08-31T09:42:10Z</time>
      </trkpt>
      <trkpt lat="43.45853" lon="-0.37002">
        <ele>160.3</ele>
        <time>2026-08-31T09:42:11Z</time>
      </trkpt>
      <trkpt lat="43.45854" lon="-0.37002">
        <ele>160.3</ele>
        <time>2026-08-31T09:42:12Z</time>
      </trkpt>
      <trkpt lat="43.45854" lon="-0.37001">
        <ele>161.3</ele>
        <time>2026-08-31T09:42:12Z</time>
      </trkpt>
      <trkpt lat="43.45855" lon="-0.37001">
        <ele>161.3</ele>
        <time>2026-08-31T09:42:13Z</time>
      </trkpt>
      <trkpt lat="43.45856" lon="-0.37001">
        <ele>161.3</ele>
        <time>2026-08-31T09:42:13Z</time>
      </trkpt>
      <trkpt lat="43.45857" lon="-0.37001">
        <ele>161.3</ele>
        <time>2026-08-31T09:42:14Z</time>
      </trkpt>
      <trkpt lat="43.45857" lon="-0.37001">
        <ele>161.3</ele>
        <time>2026-08-31T09:42:14Z</time>
      </trkpt>
      <trkpt lat="43.45858" lon="-0.37001">
        <ele>161.3</ele>
        <time>2026-08-31T09:42:15Z</time>
      </trkpt>
      <trkpt lat="43.45859" lon="-0.37001">
        <ele>161.3</ele>
        <time>2026-08-31T09:42:15Z</time>
      </trkpt>
      <trkpt lat="43.45859" lon="-0.37001">
        <ele>161.3</ele>
        <time>2026-08-31T09:42:16Z</time>
      </trkpt>
      <trkpt lat="43.4586" lon="-0.37001">
        <ele>161.3</ele>
        <time>2026-08-31T09:42:16Z</time>
      </trkpt>
      <trkpt lat="43.45861" lon="-0.37001">
        <ele>161.3</ele>
        <time>2026-08-31T09:42:17Z</time>
      </trkpt>
      <trkpt lat="43.45862" lon="-0.37001">
        <ele>161.3</ele>
        <time>2026-08-31T09:42:17Z</time>
      </trkpt>
      <trkpt lat="43.45862" lon="-0.37001">
        <ele>160.3</ele>
        <time>2026-08-31T09:42:18Z</time>
      </trkpt>
      <trkpt lat="43.45863" lon="-0.37001">
        <ele>160.3</ele>
        <time>2026-08-31T09:42:18Z</time>
      </trkpt>
      <trkpt lat="43.45864" lon="-0.37002">
        <ele>160.3</ele>
        <time>2026-08-31T09:42:19Z</time>
      </trkpt>
      <trkpt lat="43.45865" lon="-0.37002">
        <ele>160.3</ele>
        <time>2026-08-31T09:42:20Z</time>
      </trkpt>
      <trkpt lat="43.45865" lon="-0.37002">
        <ele>161.3</ele>
        <time>2026-08-31T09:42:20Z</time>
      </trkpt>
      <trkpt lat="43.45866" lon="-0.37002">
        <ele>161.3</ele>
        <time>2026-08-31T09:42:21Z</time>
      </trkpt>
      <trkpt lat="43.45867" lon="-0.37002">
        <ele>161.3</ele>
        <time>2026-08-31T09:42:21Z</time>
      </trkpt>
      <trkpt lat="43.45867" lon="-0.37002">
        <ele>161.3</ele>
        <time>2026-08-31T09:42:22Z</time>
      </trkpt>
      <trkpt lat="43.45868" lon="-0.37003">
        <ele>161.3</ele>
        <time>2026-08-31T09:42:22Z</time>
      </trkpt>
      <trkpt lat="43.45869" lon="-0.37003">
        <ele>161.3</ele>
        <time>2026-08-31T09:42:23Z</time>
      </trkpt>
      <trkpt lat="43.45869" lon="-0.37003">
        <ele>161.3</ele>
        <time>2026-08-31T09:42:23Z</time>
      </trkpt>
      <trkpt lat="43.4587" lon="-0.37003">
        <ele>162.3</ele>
        <time>2026-08-31T09:42:24Z</time>
      </trkpt>
      <trkpt lat="43.45871" lon="-0.37003">
        <ele>162.3</ele>
        <time>2026-08-31T09:42:24Z</time>
      </trkpt>
      <trkpt lat="43.45872" lon="-0.37003">
        <ele>161.3</ele>
        <time>2026-08-31T09:42:25Z</time>
      </trkpt>
      <trkpt lat="43.45872" lon="-0.37003">
        <ele>161.3</ele>
        <time>2026-08-31T09:42:25Z</time>
      </trkpt>
      <trkpt lat="43.45873" lon="-0.37003">
        <ele>161.3</ele>
        <time>2026-08-31T09:42:26Z</time>
      </trkpt>
      <trkpt lat="43.45874" lon="-0.37003">
        <ele>161.3</ele>
        <time>2026-08-31T09:42:26Z</time>
      </trkpt>
      <trkpt lat="43.45875" lon="-0.37003">
        <ele>161.3</ele>
        <time>2026-08-31T09:42:27Z</time>
      </trkpt>
      <trkpt lat="43.45876" lon="-0.37003">
        <ele>161.3</ele>
        <time>2026-08-31T09:42:28Z</time>
      </trkpt>
      <trkpt lat="43.45876" lon="-0.37003">
        <ele>161.3</ele>
        <time>2026-08-31T09:42:28Z</time>
      </trkpt>
      <trkpt lat="43.45877" lon="-0.37003">
        <ele>161.3</ele>
        <time>2026-08-31T09:42:29Z</time>
      </trkpt>
      <trkpt lat="43.45878" lon="-0.37003">
        <ele>161.3</ele>
        <time>2026-08-31T09:42:29Z</time>
      </trkpt>
      <trkpt lat="43.45878" lon="-0.37003">
        <ele>161.3</ele>
        <time>2026-08-31T09:42:30Z</time>
      </trkpt>
      <trkpt lat="43.45879" lon="-0.37003">
        <ele>161.3</ele>
        <time>2026-08-31T09:42:30Z</time>
      </trkpt>
      <trkpt lat="43.4588" lon="-0.37003">
        <ele>161.3</ele>
        <time>2026-08-31T09:42:31Z</time>
      </trkpt>
      <trkpt lat="43.4588" lon="-0.37003">
        <ele>161.3</ele>
        <time>2026-08-31T09:42:31Z</time>
      </trkpt>
      <trkpt lat="43.45881" lon="-0.37003">
        <ele>161.3</ele>
        <time>2026-08-31T09:42:32Z</time>
      </trkpt>
      <trkpt lat="43.45882" lon="-0.37003">
        <ele>161.3</ele>
        <time>2026-08-31T09:42:32Z</time>
      </trkpt>
      <trkpt lat="43.45883" lon="-0.37003">
        <ele>161.3</ele>
        <time>2026-08-31T09:42:33Z</time>
      </trkpt>
      <trkpt lat="43.45883" lon="-0.37003">
        <ele>161.3</ele>
        <time>2026-08-31T09:42:33Z</time>
      </trkpt>
      <trkpt lat="43.45884" lon="-0.37003">
        <ele>160.3</ele>
        <time>2026-08-31T09:42:34Z</time>
      </trkpt>
      <trkpt lat="43.45885" lon="-0.37003">
        <ele>160.3</ele>
        <time>2026-08-31T09:42:35Z</time>
      </trkpt>
      <trkpt lat="43.45885" lon="-0.37003">
        <ele>160.3</ele>
        <time>2026-08-31T09:42:35Z</time>
      </trkpt>
      <trkpt lat="43.45886" lon="-0.37003">
        <ele>160.3</ele>
        <time>2026-08-31T09:42:36Z</time>
      </trkpt>
      <trkpt lat="43.45887" lon="-0.37003">
        <ele>160.3</ele>
        <time>2026-08-31T09:42:36Z</time>
      </trkpt>
      <trkpt lat="43.45887" lon="-0.37003">
        <ele>160.3</ele>
        <time>2026-08-31T09:42:37Z</time>
      </trkpt>
      <trkpt lat="43.45888" lon="-0.37003">
        <ele>160.3</ele>
        <time>2026-08-31T09:42:37Z</time>
      </trkpt>
      <trkpt lat="43.45889" lon="-0.37003">
        <ele>160.3</ele>
        <time>2026-08-31T09:42:38Z</time>
      </trkpt>
      <trkpt lat="43.45889" lon="-0.37003">
        <ele>160.3</ele>
        <time>2026-08-31T09:42:38Z</time>
      </trkpt>
      <trkpt lat="43.4589" lon="-0.37003">
        <ele>160.3</ele>
        <time>2026-08-31T09:42:39Z</time>
      </trkpt>
      <trkpt lat="43.4589" lon="-0.37003">
        <ele>160.3</ele>
        <time>2026-08-31T09:42:39Z</time>
      </trkpt>
      <trkpt lat="43.45891" lon="-0.37003">
        <ele>160.3</ele>
        <time>2026-08-31T09:42:40Z</time>
      </trkpt>
      <trkpt lat="43.45892" lon="-0.37003">
        <ele>160.3</ele>
        <time>2026-08-31T09:42:40Z</time>
      </trkpt>
      <trkpt lat="43.45892" lon="-0.37003">
        <ele>160.3</ele>
        <time>2026-08-31T09:42:41Z</time>
      </trkpt>
      <trkpt lat="43.45893" lon="-0.37003">
        <ele>160.3</ele>
        <time>2026-08-31T09:42:41Z</time>
      </trkpt>
      <trkpt lat="43.45894" lon="-0.37003">
        <ele>160.3</ele>
        <time>2026-08-31T09:42:42Z</time>
      </trkpt>
      <trkpt lat="43.45894" lon="-0.37003">
        <ele>160.3</ele>
        <time>2026-08-31T09:42:42Z</time>
      </trkpt>
      <trkpt lat="43.45895" lon="-0.37003">
        <ele>161.3</ele>
        <time>2026-08-31T09:42:43Z</time>
      </trkpt>
      <trkpt lat="43.45896" lon="-0.37003">
        <ele>161.3</ele>
        <time>2026-08-31T09:42:43Z</time>
      </trkpt>
      <trkpt lat="43.45896" lon="-0.37003">
        <ele>160.3</ele>
        <time>2026-08-31T09:42:44Z</time>
      </trkpt>
      <trkpt lat="43.45897" lon="-0.37003">
        <ele>160.3</ele>
        <time>2026-08-31T09:42:45Z</time>
      </trkpt>
      <trkpt lat="43.45898" lon="-0.37003">
        <ele>160.3</ele>
        <time>2026-08-31T09:42:45Z</time>
      </trkpt>
      <trkpt lat="43.45898" lon="-0.37003">
        <ele>160.3</ele>
        <time>2026-08-31T09:42:46Z</time>
      </trkpt>
      <trkpt lat="43.45899" lon="-0.37003">
        <ele>160.3</ele>
        <time>2026-08-31T09:42:46Z</time>
      </trkpt>
      <trkpt lat="43.459" lon="-0.37003">
        <ele>160.3</ele>
        <time>2026-08-31T09:42:47Z</time>
      </trkpt>
      <trkpt lat="43.459" lon="-0.37003">
        <ele>161.3</ele>
        <time>2026-08-31T09:42:47Z</time>
      </trkpt>
      <trkpt lat="43.45901" lon="-0.37003">
        <ele>161.3</ele>
        <time>2026-08-31T09:42:48Z</time>
      </trkpt>
      <trkpt lat="43.45901" lon="-0.37003">
        <ele>161.3</ele>
        <time>2026-08-31T09:42:48Z</time>
      </trkpt>
      <trkpt lat="43.45902" lon="-0.37003">
        <ele>161.3</ele>
        <time>2026-08-31T09:42:49Z</time>
      </trkpt>
      <trkpt lat="43.45902" lon="-0.37003">
        <ele>161.3</ele>
        <time>2026-08-31T09:42:49Z</time>
      </trkpt>
      <trkpt lat="43.45903" lon="-0.37004">
        <ele>161.3</ele>
        <time>2026-08-31T09:42:50Z</time>
      </trkpt>
      <trkpt lat="43.45904" lon="-0.37004">
        <ele>161.3</ele>
        <time>2026-08-31T09:42:50Z</time>
      </trkpt>
      <trkpt lat="43.45904" lon="-0.37004">
        <ele>161.3</ele>
        <time>2026-08-31T09:42:51Z</time>
      </trkpt>
      <trkpt lat="43.45905" lon="-0.37004">
        <ele>161.3</ele>
        <time>2026-08-31T09:42:51Z</time>
      </trkpt>
      <trkpt lat="43.45906" lon="-0.37004">
        <ele>161.3</ele>
        <time>2026-08-31T09:42:52Z</time>
      </trkpt>
      <trkpt lat="43.45906" lon="-0.37004">
        <ele>161.3</ele>
        <time>2026-08-31T09:42:52Z</time>
      </trkpt>
      <trkpt lat="43.45907" lon="-0.37004">
        <ele>161.3</ele>
        <time>2026-08-31T09:42:53Z</time>
      </trkpt>
      <trkpt lat="43.45908" lon="-0.37004">
        <ele>161.3</ele>
        <time>2026-08-31T09:42:53Z</time>
      </trkpt>
      <trkpt lat="43.45908" lon="-0.37005">
        <ele>161.3</ele>
        <time>2026-08-31T09:42:54Z</time>
      </trkpt>
      <trkpt lat="43.45909" lon="-0.37005">
        <ele>161.3</ele>
        <time>2026-08-31T09:42:55Z</time>
      </trkpt>
      <trkpt lat="43.4591" lon="-0.37005">
        <ele>161.3</ele>
        <time>2026-08-31T09:42:55Z</time>
      </trkpt>
      <trkpt lat="43.4591" lon="-0.37005">
        <ele>161.3</ele>
        <time>2026-08-31T09:42:56Z</time>
      </trkpt>
      <trkpt lat="43.45911" lon="-0.37005">
        <ele>161.3</ele>
        <time>2026-08-31T09:42:56Z</time>
      </trkpt>
      <trkpt lat="43.45912" lon="-0.37005">
        <ele>161.3</ele>
        <time>2026-08-31T09:42:57Z</time>
      </trkpt>
      <trkpt lat="43.45912" lon="-0.37006">
        <ele>161.3</ele>
        <time>2026-08-31T09:42:57Z</time>
      </trkpt>
      <trkpt lat="43.45913" lon="-0.37006">
        <ele>161.3</ele>
        <time>2026-08-31T09:42:58Z</time>
      </trkpt>
      <trkpt lat="43.45914" lon="-0.37006">
        <ele>161.3</ele>
        <time>2026-08-31T09:42:58Z</time>
      </trkpt>
      <trkpt lat="43.45914" lon="-0.37006">
        <ele>161.3</ele>
        <time>2026-08-31T09:42:59Z</time>
      </trkpt>
      <trkpt lat="43.45915" lon="-0.37006">
        <ele>161.3</ele>
        <time>2026-08-31T09:42:59Z</time>
      </trkpt>
      <trkpt lat="43.45916" lon="-0.37006">
        <ele>161.3</ele>
        <time>2026-08-31T09:43:00Z</time>
      </trkpt>
      <trkpt lat="43.45916" lon="-0.37006">
        <ele>161.3</ele>
        <time>2026-08-31T09:43:00Z</time>
      </trkpt>
      <trkpt lat="43.45917" lon="-0.37006">
        <ele>161.3</ele>
        <time>2026-08-31T09:43:01Z</time>
      </trkpt>
      <trkpt lat="43.45918" lon="-0.37006">
        <ele>161.3</ele>
        <time>2026-08-31T09:43:01Z</time>
      </trkpt>
      <trkpt lat="43.45919" lon="-0.37006">
        <ele>161.3</ele>
        <time>2026-08-31T09:43:02Z</time>
      </trkpt>
      <trkpt lat="43.45919" lon="-0.37007">
        <ele>161.3</ele>
        <time>2026-08-31T09:43:03Z</time>
      </trkpt>
      <trkpt lat="43.4592" lon="-0.37007">
        <ele>161.3</ele>
        <time>2026-08-31T09:43:03Z</time>
      </trkpt>
      <trkpt lat="43.45921" lon="-0.37007">
        <ele>161.3</ele>
        <time>2026-08-31T09:43:04Z</time>
      </trkpt>
      <trkpt lat="43.45921" lon="-0.37007">
        <ele>161.3</ele>
        <time>2026-08-31T09:43:04Z</time>
      </trkpt>
      <trkpt lat="43.45922" lon="-0.37007">
        <ele>161.3</ele>
        <time>2026-08-31T09:43:05Z</time>
      </trkpt>
      <trkpt lat="43.45923" lon="-0.37008">
        <ele>161.3</ele>
        <time>2026-08-31T09:43:05Z</time>
      </trkpt>
      <trkpt lat="43.45923" lon="-0.37008">
        <ele>162.3</ele>
        <time>2026-08-31T09:43:06Z</time>
      </trkpt>
      <trkpt lat="43.45924" lon="-0.37008">
        <ele>162.3</ele>
        <time>2026-08-31T09:43:06Z</time>
      </trkpt>
      <trkpt lat="43.45925" lon="-0.37008">
        <ele>162.3</ele>
        <time>2026-08-31T09:43:07Z</time>
      </trkpt>
      <trkpt lat="43.45925" lon="-0.37008">
        <ele>162.3</ele>
        <time>2026-08-31T09:43:07Z</time>
      </trkpt>
      <trkpt lat="43.45926" lon="-0.37009">
        <ele>162.3</ele>
        <time>2026-08-31T09:43:08Z</time>
      </trkpt>
      <trkpt lat="43.45927" lon="-0.37009">
        <ele>162.3</ele>
        <time>2026-08-31T09:43:08Z</time>
      </trkpt>
      <trkpt lat="43.45927" lon="-0.37009">
        <ele>162.3</ele>
        <time>2026-08-31T09:43:09Z</time>
      </trkpt>
      <trkpt lat="43.45928" lon="-0.37009">
        <ele>162.3</ele>
        <time>2026-08-31T09:43:09Z</time>
      </trkpt>
      <trkpt lat="43.45929" lon="-0.3701">
        <ele>162.3</ele>
        <time>2026-08-31T09:43:10Z</time>
      </trkpt>
      <trkpt lat="43.4593" lon="-0.3701">
        <ele>162.3</ele>
        <time>2026-08-31T09:43:11Z</time>
      </trkpt>
      <trkpt lat="43.4593" lon="-0.3701">
        <ele>162.3</ele>
        <time>2026-08-31T09:43:11Z</time>
      </trkpt>
      <trkpt lat="43.45931" lon="-0.37011">
        <ele>162.3</ele>
        <time>2026-08-31T09:43:12Z</time>
      </trkpt>
      <trkpt lat="43.45932" lon="-0.37011">
        <ele>162.3</ele>
        <time>2026-08-31T09:43:12Z</time>
      </trkpt>
      <trkpt lat="43.45932" lon="-0.37011">
        <ele>162.3</ele>
        <time>2026-08-31T09:43:13Z</time>
      </trkpt>
      <trkpt lat="43.45933" lon="-0.37011">
        <ele>162.3</ele>
        <time>2026-08-31T09:43:13Z</time>
      </trkpt>
      <trkpt lat="43.45934" lon="-0.37012">
        <ele>162.3</ele>
        <time>2026-08-31T09:43:14Z</time>
      </trkpt>
      <trkpt lat="43.45934" lon="-0.37012">
        <ele>162.3</ele>
        <time>2026-08-31T09:43:14Z</time>
      </trkpt>
      <trkpt lat="43.45935" lon="-0.37012">
        <ele>163.3</ele>
        <time>2026-08-31T09:43:15Z</time>
      </trkpt>
      <trkpt lat="43.45936" lon="-0.37012">
        <ele>163.3</ele>
        <time>2026-08-31T09:43:15Z</time>
      </trkpt>
      <trkpt lat="43.45936" lon="-0.37012">
        <ele>162.3</ele>
        <time>2026-08-31T09:43:16Z</time>
      </trkpt>
      <trkpt lat="43.45937" lon="-0.37013">
        <ele>162.3</ele>
        <time>2026-08-31T09:43:16Z</time>
      </trkpt>
      <trkpt lat="43.45938" lon="-0.37013">
        <ele>162.3</ele>
        <time>2026-08-31T09:43:17Z</time>
      </trkpt>
      <trkpt lat="43.45939" lon="-0.37013">
        <ele>162.3</ele>
        <time>2026-08-31T09:43:17Z</time>
      </trkpt>
      <trkpt lat="43.45939" lon="-0.37013">
        <ele>161.3</ele>
        <time>2026-08-31T09:43:18Z</time>
      </trkpt>
      <trkpt lat="43.4594" lon="-0.37013">
        <ele>161.3</ele>
        <time>2026-08-31T09:43:18Z</time>
      </trkpt>
      <trkpt lat="43.45941" lon="-0.37013">
        <ele>161.3</ele>
        <time>2026-08-31T09:43:19Z</time>
      </trkpt>
      <trkpt lat="43.45942" lon="-0.37013">
        <ele>161.3</ele>
        <time>2026-08-31T09:43:20Z</time>
      </trkpt>
      <trkpt lat="43.45943" lon="-0.37013">
        <ele>161.3</ele>
        <time>2026-08-31T09:43:20Z</time>
      </trkpt>
      <trkpt lat="43.45943" lon="-0.37014">
        <ele>161.3</ele>
        <time>2026-08-31T09:43:21Z</time>
      </trkpt>
      <trkpt lat="43.45944" lon="-0.37014">
        <ele>161.3</ele>
        <time>2026-08-31T09:43:21Z</time>
      </trkpt>
      <trkpt lat="43.45945" lon="-0.37014">
        <ele>161.3</ele>
        <time>2026-08-31T09:43:22Z</time>
      </trkpt>
      <trkpt lat="43.45945" lon="-0.37014">
        <ele>161.3</ele>
        <time>2026-08-31T09:43:22Z</time>
      </trkpt>
      <trkpt lat="43.45946" lon="-0.37014">
        <ele>160.3</ele>
        <time>2026-08-31T09:43:23Z</time>
      </trkpt>
      <trkpt lat="43.45947" lon="-0.37014">
        <ele>160.3</ele>
        <time>2026-08-31T09:43:23Z</time>
      </trkpt>
      <trkpt lat="43.45948" lon="-0.37015">
        <ele>160.3</ele>
        <time>2026-08-31T09:43:24Z</time>
      </trkpt>
      <trkpt lat="43.45948" lon="-0.37015">
        <ele>160.3</ele>
        <time>2026-08-31T09:43:24Z</time>
      </trkpt>
      <trkpt lat="43.45949" lon="-0.37015">
        <ele>160.3</ele>
        <time>2026-08-31T09:43:25Z</time>
      </trkpt>
      <trkpt lat="43.4595" lon="-0.37015">
        <ele>160.3</ele>
        <time>2026-08-31T09:43:25Z</time>
      </trkpt>
      <trkpt lat="43.4595" lon="-0.37015">
        <ele>160.3</ele>
        <time>2026-08-31T09:43:26Z</time>
      </trkpt>
      <trkpt lat="43.45951" lon="-0.37016">
        <ele>160.3</ele>
        <time>2026-08-31T09:43:26Z</time>
      </trkpt>
      <trkpt lat="43.45952" lon="-0.37016">
        <ele>160.3</ele>
        <time>2026-08-31T09:43:27Z</time>
      </trkpt>
      <trkpt lat="43.45953" lon="-0.37016">
        <ele>160.3</ele>
        <time>2026-08-31T09:43:27Z</time>
      </trkpt>
      <trkpt lat="43.45953" lon="-0.37016">
        <ele>160.3</ele>
        <time>2026-08-31T09:43:28Z</time>
      </trkpt>
      <trkpt lat="43.45954" lon="-0.37017">
        <ele>160.3</ele>
        <time>2026-08-31T09:43:29Z</time>
      </trkpt>
      <trkpt lat="43.45955" lon="-0.37017">
        <ele>160.3</ele>
        <time>2026-08-31T09:43:29Z</time>
      </trkpt>
      <trkpt lat="43.45955" lon="-0.37017">
        <ele>160.3</ele>
        <time>2026-08-31T09:43:30Z</time>
      </trkpt>
      <trkpt lat="43.45956" lon="-0.37017">
        <ele>160.3</ele>
        <time>2026-08-31T09:43:30Z</time>
      </trkpt>
      <trkpt lat="43.45956" lon="-0.37018">
        <ele>160.3</ele>
        <time>2026-08-31T09:43:31Z</time>
      </trkpt>
      <trkpt lat="43.45957" lon="-0.37018">
        <ele>160.3</ele>
        <time>2026-08-31T09:43:31Z</time>
      </trkpt>
      <trkpt lat="43.45958" lon="-0.37018">
        <ele>160.3</ele>
        <time>2026-08-31T09:43:32Z</time>
      </trkpt>
      <trkpt lat="43.45958" lon="-0.37018">
        <ele>160.3</ele>
        <time>2026-08-31T09:43:32Z</time>
      </trkpt>
      <trkpt lat="43.45959" lon="-0.37019">
        <ele>161.3</ele>
        <time>2026-08-31T09:43:33Z</time>
      </trkpt>
      <trkpt lat="43.4596" lon="-0.37019">
        <ele>161.3</ele>
        <time>2026-08-31T09:43:33Z</time>
      </trkpt>
      <trkpt lat="43.4596" lon="-0.37019">
        <ele>161.3</ele>
        <time>2026-08-31T09:43:34Z</time>
      </trkpt>
      <trkpt lat="43.45961" lon="-0.37019">
        <ele>161.3</ele>
        <time>2026-08-31T09:43:34Z</time>
      </trkpt>
      <trkpt lat="43.45962" lon="-0.3702">
        <ele>161.3</ele>
        <time>2026-08-31T09:43:35Z</time>
      </trkpt>
      <trkpt lat="43.45963" lon="-0.3702">
        <ele>161.3</ele>
        <time>2026-08-31T09:43:35Z</time>
      </trkpt>
      <trkpt lat="43.45963" lon="-0.3702">
        <ele>160.3</ele>
        <time>2026-08-31T09:43:36Z</time>
      </trkpt>
      <trkpt lat="43.45964" lon="-0.37021">
        <ele>160.3</ele>
        <time>2026-08-31T09:43:37Z</time>
      </trkpt>
      <trkpt lat="43.45965" lon="-0.37021">
        <ele>160.3</ele>
        <time>2026-08-31T09:43:37Z</time>
      </trkpt>
      <trkpt lat="43.45965" lon="-0.37021">
        <ele>160.3</ele>
        <time>2026-08-31T09:43:38Z</time>
      </trkpt>
      <trkpt lat="43.45966" lon="-0.37021">
        <ele>160.3</ele>
        <time>2026-08-31T09:43:38Z</time>
      </trkpt>
      <trkpt lat="43.45967" lon="-0.37022">
        <ele>161.3</ele>
        <time>2026-08-31T09:43:39Z</time>
      </trkpt>
      <trkpt lat="43.45967" lon="-0.37022">
        <ele>161.3</ele>
        <time>2026-08-31T09:43:39Z</time>
      </trkpt>
      <trkpt lat="43.45968" lon="-0.37022">
        <ele>160.3</ele>
        <time>2026-08-31T09:43:40Z</time>
      </trkpt>
      <trkpt lat="43.45969" lon="-0.37023">
        <ele>160.3</ele>
        <time>2026-08-31T09:43:40Z</time>
      </trkpt>
      <trkpt lat="43.4597" lon="-0.37023">
        <ele>160.3</ele>
        <time>2026-08-31T09:43:41Z</time>
      </trkpt>
      <trkpt lat="43.4597" lon="-0.37023">
        <ele>160.3</ele>
        <time>2026-08-31T09:43:41Z</time>
      </trkpt>
      <trkpt lat="43.45971" lon="-0.37023">
        <ele>159.3</ele>
        <time>2026-08-31T09:43:42Z</time>
      </trkpt>
      <trkpt lat="43.45972" lon="-0.37024">
        <ele>159.3</ele>
        <time>2026-08-31T09:43:42Z</time>
      </trkpt>
      <trkpt lat="43.45972" lon="-0.37024">
        <ele>159.3</ele>
        <time>2026-08-31T09:43:43Z</time>
      </trkpt>
      <trkpt lat="43.45973" lon="-0.37024">
        <ele>159.3</ele>
        <time>2026-08-31T09:43:44Z</time>
      </trkpt>
      <trkpt lat="43.45974" lon="-0.37024">
        <ele>159.3</ele>
        <time>2026-08-31T09:43:44Z</time>
      </trkpt>
      <trkpt lat="43.45975" lon="-0.37025">
        <ele>159.3</ele>
        <time>2026-08-31T09:43:45Z</time>
      </trkpt>
      <trkpt lat="43.45975" lon="-0.37025">
        <ele>160.3</ele>
        <time>2026-08-31T09:43:45Z</time>
      </trkpt>
      <trkpt lat="43.45976" lon="-0.37025">
        <ele>160.3</ele>
        <time>2026-08-31T09:43:46Z</time>
      </trkpt>
      <trkpt lat="43.45977" lon="-0.37025">
        <ele>160.3</ele>
        <time>2026-08-31T09:43:46Z</time>
      </trkpt>
      <trkpt lat="43.45977" lon="-0.37026">
        <ele>160.3</ele>
        <time>2026-08-31T09:43:47Z</time>
      </trkpt>
      <trkpt lat="43.45978" lon="-0.37026">
        <ele>160.3</ele>
        <time>2026-08-31T09:43:47Z</time>
      </trkpt>
      <trkpt lat="43.45979" lon="-0.37026">
        <ele>160.3</ele>
        <time>2026-08-31T09:43:48Z</time>
      </trkpt>
      <trkpt lat="43.45979" lon="-0.37026">
        <ele>160.3</ele>
        <time>2026-08-31T09:43:48Z</time>
      </trkpt>
      <trkpt lat="43.4598" lon="-0.37026">
        <ele>160.3</ele>
        <time>2026-08-31T09:43:49Z</time>
      </trkpt>
      <trkpt lat="43.45981" lon="-0.37026">
        <ele>160.3</ele>
        <time>2026-08-31T09:43:49Z</time>
      </trkpt>
      <trkpt lat="43.45982" lon="-0.37027">
        <ele>160.3</ele>
        <time>2026-08-31T09:43:50Z</time>
      </trkpt>
      <trkpt lat="43.45982" lon="-0.37027">
        <ele>160.3</ele>
        <time>2026-08-31T09:43:51Z</time>
      </trkpt>
      <trkpt lat="43.45983" lon="-0.37027">
        <ele>160.3</ele>
        <time>2026-08-31T09:43:51Z</time>
      </trkpt>
      <trkpt lat="43.45984" lon="-0.37027">
        <ele>160.3</ele>
        <time>2026-08-31T09:43:52Z</time>
      </trkpt>
      <trkpt lat="43.45984" lon="-0.37027">
        <ele>160.3</ele>
        <time>2026-08-31T09:43:52Z</time>
      </trkpt>
      <trkpt lat="43.45985" lon="-0.37027">
        <ele>160.3</ele>
        <time>2026-08-31T09:43:53Z</time>
      </trkpt>
      <trkpt lat="43.45986" lon="-0.37027">
        <ele>159.3</ele>
        <time>2026-08-31T09:43:53Z</time>
      </trkpt>
      <trkpt lat="43.45986" lon="-0.37028">
        <ele>159.3</ele>
        <time>2026-08-31T09:43:54Z</time>
      </trkpt>
      <trkpt lat="43.45987" lon="-0.37028">
        <ele>159.3</ele>
        <time>2026-08-31T09:43:54Z</time>
      </trkpt>
      <trkpt lat="43.45988" lon="-0.37028">
        <ele>159.3</ele>
        <time>2026-08-31T09:43:55Z</time>
      </trkpt>
      <trkpt lat="43.45988" lon="-0.37028">
        <ele>159.3</ele>
        <time>2026-08-31T09:43:55Z</time>
      </trkpt>
      <trkpt lat="43.45989" lon="-0.37029">
        <ele>159.3</ele>
        <time>2026-08-31T09:43:56Z</time>
      </trkpt>
      <trkpt lat="43.4599" lon="-0.37029">
        <ele>159.3</ele>
        <time>2026-08-31T09:43:56Z</time>
      </trkpt>
      <trkpt lat="43.4599" lon="-0.37029">
        <ele>159.3</ele>
        <time>2026-08-31T09:43:57Z</time>
      </trkpt>
      <trkpt lat="43.45991" lon="-0.3703">
        <ele>159.3</ele>
        <time>2026-08-31T09:43:58Z</time>
      </trkpt>
      <trkpt lat="43.45991" lon="-0.3703">
        <ele>158.3</ele>
        <time>2026-08-31T09:43:58Z</time>
      </trkpt>
      <trkpt lat="43.45992" lon="-0.3703">
        <ele>158.3</ele>
        <time>2026-08-31T09:43:59Z</time>
      </trkpt>
      <trkpt lat="43.45993" lon="-0.37031">
        <ele>158.3</ele>
        <time>2026-08-31T09:43:59Z</time>
      </trkpt>
      <trkpt lat="43.45993" lon="-0.37031">
        <ele>158.3</ele>
        <time>2026-08-31T09:44:00Z</time>
      </trkpt>
      <trkpt lat="43.45994" lon="-0.37031">
        <ele>157.3</ele>
        <time>2026-08-31T09:44:00Z</time>
      </trkpt>
      <trkpt lat="43.45994" lon="-0.37032">
        <ele>158.3</ele>
        <time>2026-08-31T09:44:01Z</time>
      </trkpt>
      <trkpt lat="43.45995" lon="-0.37032">
        <ele>158.3</ele>
        <time>2026-08-31T09:44:01Z</time>
      </trkpt>
      <trkpt lat="43.45996" lon="-0.37033">
        <ele>158.3</ele>
        <time>2026-08-31T09:44:02Z</time>
      </trkpt>
      <trkpt lat="43.45996" lon="-0.37033">
        <ele>158.3</ele>
        <time>2026-08-31T09:44:02Z</time>
      </trkpt>
      <trkpt lat="43.45997" lon="-0.37033">
        <ele>158.3</ele>
        <time>2026-08-31T09:44:03Z</time>
      </trkpt>
      <trkpt lat="43.45998" lon="-0.37033">
        <ele>158.3</ele>
        <time>2026-08-31T09:44:03Z</time>
      </trkpt>
      <trkpt lat="43.45998" lon="-0.37033">
        <ele>158.3</ele>
        <time>2026-08-31T09:44:04Z</time>
      </trkpt>
      <trkpt lat="43.45999" lon="-0.37034">
        <ele>158.3</ele>
        <time>2026-08-31T09:44:04Z</time>
      </trkpt>
      <trkpt lat="43.46" lon="-0.37034">
        <ele>158.3</ele>
        <time>2026-08-31T09:44:05Z</time>
      </trkpt>
      <trkpt lat="43.46" lon="-0.37034">
        <ele>158.3</ele>
        <time>2026-08-31T09:44:06Z</time>
      </trkpt>
      <trkpt lat="43.46001" lon="-0.37035">
        <ele>158.3</ele>
        <time>2026-08-31T09:44:06Z</time>
      </trkpt>
      <trkpt lat="43.46002" lon="-0.37035">
        <ele>158.3</ele>
        <time>2026-08-31T09:44:07Z</time>
      </trkpt>
      <trkpt lat="43.46002" lon="-0.37035">
        <ele>158.3</ele>
        <time>2026-08-31T09:44:07Z</time>
      </trkpt>
      <trkpt lat="43.46003" lon="-0.37035">
        <ele>158.3</ele>
        <time>2026-08-31T09:44:08Z</time>
      </trkpt>
      <trkpt lat="43.46003" lon="-0.37035">
        <ele>158.3</ele>
        <time>2026-08-31T09:44:08Z</time>
      </trkpt>
      <trkpt lat="43.46004" lon="-0.37036">
        <ele>158.3</ele>
        <time>2026-08-31T09:44:09Z</time>
      </trkpt>
      <trkpt lat="43.46005" lon="-0.37036">
        <ele>158.3</ele>
        <time>2026-08-31T09:44:09Z</time>
      </trkpt>
      <trkpt lat="43.46005" lon="-0.37037">
        <ele>158.3</ele>
        <time>2026-08-31T09:44:10Z</time>
      </trkpt>
      <trkpt lat="43.46006" lon="-0.37037">
        <ele>158.3</ele>
        <time>2026-08-31T09:44:10Z</time>
      </trkpt>
      <trkpt lat="43.46006" lon="-0.37037">
        <ele>158.3</ele>
        <time>2026-08-31T09:44:11Z</time>
      </trkpt>
      <trkpt lat="43.46007" lon="-0.37038">
        <ele>158.3</ele>
        <time>2026-08-31T09:44:11Z</time>
      </trkpt>
      <trkpt lat="43.46008" lon="-0.37038">
        <ele>158.3</ele>
        <time>2026-08-31T09:44:12Z</time>
      </trkpt>
      <trkpt lat="43.46009" lon="-0.37038">
        <ele>158.3</ele>
        <time>2026-08-31T09:44:12Z</time>
      </trkpt>
      <trkpt lat="43.46009" lon="-0.37038">
        <ele>158.3</ele>
        <time>2026-08-31T09:44:13Z</time>
      </trkpt>
      <trkpt lat="43.4601" lon="-0.37038">
        <ele>158.3</ele>
        <time>2026-08-31T09:44:13Z</time>
      </trkpt>
      <trkpt lat="43.46011" lon="-0.37039">
        <ele>158.3</ele>
        <time>2026-08-31T09:44:14Z</time>
      </trkpt>
      <trkpt lat="43.46011" lon="-0.37039">
        <ele>158.3</ele>
        <time>2026-08-31T09:44:15Z</time>
      </trkpt>
      <trkpt lat="43.46012" lon="-0.37039">
        <ele>158.3</ele>
        <time>2026-08-31T09:44:15Z</time>
      </trkpt>
      <trkpt lat="43.46013" lon="-0.37039">
        <ele>158.3</ele>
        <time>2026-08-31T09:44:16Z</time>
      </trkpt>
      <trkpt lat="43.46014" lon="-0.37039">
        <ele>158.3</ele>
        <time>2026-08-31T09:44:16Z</time>
      </trkpt>
      <trkpt lat="43.46014" lon="-0.3704">
        <ele>158.3</ele>
        <time>2026-08-31T09:44:17Z</time>
      </trkpt>
      <trkpt lat="43.46015" lon="-0.3704">
        <ele>158.3</ele>
        <time>2026-08-31T09:44:17Z</time>
      </trkpt>
      <trkpt lat="43.46016" lon="-0.3704">
        <ele>158.3</ele>
        <time>2026-08-31T09:44:18Z</time>
      </trkpt>
      <trkpt lat="43.46016" lon="-0.3704">
        <ele>158.3</ele>
        <time>2026-08-31T09:44:18Z</time>
      </trkpt>
      <trkpt lat="43.46017" lon="-0.37041">
        <ele>158.3</ele>
        <time>2026-08-31T09:44:19Z</time>
      </trkpt>
      <trkpt lat="43.46018" lon="-0.37041">
        <ele>158.3</ele>
        <time>2026-08-31T09:44:19Z</time>
      </trkpt>
      <trkpt lat="43.46018" lon="-0.37041">
        <ele>158.3</ele>
        <time>2026-08-31T09:44:20Z</time>
      </trkpt>
      <trkpt lat="43.46019" lon="-0.37041">
        <ele>158.3</ele>
        <time>2026-08-31T09:44:20Z</time>
      </trkpt>
      <trkpt lat="43.4602" lon="-0.37042">
        <ele>158.3</ele>
        <time>2026-08-31T09:44:21Z</time>
      </trkpt>
      <trkpt lat="43.4602" lon="-0.37042">
        <ele>158.3</ele>
        <time>2026-08-31T09:44:21Z</time>
      </trkpt>
      <trkpt lat="43.46021" lon="-0.37042">
        <ele>158.3</ele>
        <time>2026-08-31T09:44:22Z</time>
      </trkpt>
      <trkpt lat="43.46022" lon="-0.37042">
        <ele>158.3</ele>
        <time>2026-08-31T09:44:23Z</time>
      </trkpt>
      <trkpt lat="43.46023" lon="-0.37043">
        <ele>158.3</ele>
        <time>2026-08-31T09:44:23Z</time>
      </trkpt>
      <trkpt lat="43.46023" lon="-0.37043">
        <ele>158.3</ele>
        <time>2026-08-31T09:44:24Z</time>
      </trkpt>
      <trkpt lat="43.46024" lon="-0.37043">
        <ele>158.3</ele>
        <time>2026-08-31T09:44:24Z</time>
      </trkpt>
      <trkpt lat="43.46025" lon="-0.37043">
        <ele>158.3</ele>
        <time>2026-08-31T09:44:25Z</time>
      </trkpt>
      <trkpt lat="43.46025" lon="-0.37044">
        <ele>158.3</ele>
        <time>2026-08-31T09:44:25Z</time>
      </trkpt>
      <trkpt lat="43.46026" lon="-0.37044">
        <ele>159.3</ele>
        <time>2026-08-31T09:44:26Z</time>
      </trkpt>
      <trkpt lat="43.46027" lon="-0.37044">
        <ele>159.3</ele>
        <time>2026-08-31T09:44:26Z</time>
      </trkpt>
      <trkpt lat="43.46027" lon="-0.37045">
        <ele>159.3</ele>
        <time>2026-08-31T09:44:27Z</time>
      </trkpt>
      <trkpt lat="43.46028" lon="-0.37045">
        <ele>159.3</ele>
        <time>2026-08-31T09:44:27Z</time>
      </trkpt>
      <trkpt lat="43.46029" lon="-0.37045">
        <ele>158.3</ele>
        <time>2026-08-31T09:44:28Z</time>
      </trkpt>
      <trkpt lat="43.4603" lon="-0.37045">
        <ele>158.3</ele>
        <time>2026-08-31T09:44:29Z</time>
      </trkpt>
      <trkpt lat="43.4603" lon="-0.37045">
        <ele>158.3</ele>
        <time>2026-08-31T09:44:29Z</time>
      </trkpt>
      <trkpt lat="43.46031" lon="-0.37046">
        <ele>158.3</ele>
        <time>2026-08-31T09:44:30Z</time>
      </trkpt>
      <trkpt lat="43.46032" lon="-0.37046">
        <ele>158.3</ele>
        <time>2026-08-31T09:44:30Z</time>
      </trkpt>
      <trkpt lat="43.46032" lon="-0.37046">
        <ele>158.3</ele>
        <time>2026-08-31T09:44:31Z</time>
      </trkpt>
      <trkpt lat="43.46033" lon="-0.37046">
        <ele>158.3</ele>
        <time>2026-08-31T09:44:31Z</time>
      </trkpt>
      <trkpt lat="43.46034" lon="-0.37046">
        <ele>158.3</ele>
        <time>2026-08-31T09:44:32Z</time>
      </trkpt>
      <trkpt lat="43.46034" lon="-0.37047">
        <ele>158.3</ele>
        <time>2026-08-31T09:44:32Z</time>
      </trkpt>
      <trkpt lat="43.46035" lon="-0.37047">
        <ele>158.3</ele>
        <time>2026-08-31T09:44:33Z</time>
      </trkpt>
      <trkpt lat="43.46036" lon="-0.37047">
        <ele>158.3</ele>
        <time>2026-08-31T09:44:33Z</time>
      </trkpt>
      <trkpt lat="43.46037" lon="-0.37047">
        <ele>159.3</ele>
        <time>2026-08-31T09:44:34Z</time>
      </trkpt>
      <trkpt lat="43.46037" lon="-0.37048">
        <ele>159.3</ele>
        <time>2026-08-31T09:44:34Z</time>
      </trkpt>
      <trkpt lat="43.46038" lon="-0.37048">
        <ele>158.3</ele>
        <time>2026-08-31T09:44:35Z</time>
      </trkpt>
      <trkpt lat="43.46039" lon="-0.37048">
        <ele>158.3</ele>
        <time>2026-08-31T09:44:36Z</time>
      </trkpt>
      <trkpt lat="43.46039" lon="-0.37048">
        <ele>159.3</ele>
        <time>2026-08-31T09:44:36Z</time>
      </trkpt>
      <trkpt lat="43.4604" lon="-0.37048">
        <ele>159.3</ele>
        <time>2026-08-31T09:44:37Z</time>
      </trkpt>
      <trkpt lat="43.46041" lon="-0.37048">
        <ele>159.3</ele>
        <time>2026-08-31T09:44:37Z</time>
      </trkpt>
      <trkpt lat="43.46041" lon="-0.37049">
        <ele>159.3</ele>
        <time>2026-08-31T09:44:38Z</time>
      </trkpt>
      <trkpt lat="43.46042" lon="-0.37049">
        <ele>159.3</ele>
        <time>2026-08-31T09:44:38Z</time>
      </trkpt>
      <trkpt lat="43.46043" lon="-0.37049">
        <ele>159.3</ele>
        <time>2026-08-31T09:44:39Z</time>
      </trkpt>
      <trkpt lat="43.46043" lon="-0.3705">
        <ele>159.3</ele>
        <time>2026-08-31T09:44:39Z</time>
      </trkpt>
      <trkpt lat="43.46044" lon="-0.3705">
        <ele>159.3</ele>
        <time>2026-08-31T09:44:40Z</time>
      </trkpt>
      <trkpt lat="43.46045" lon="-0.3705">
        <ele>159.3</ele>
        <time>2026-08-31T09:44:40Z</time>
      </trkpt>
      <trkpt lat="43.46045" lon="-0.37051">
        <ele>159.3</ele>
        <time>2026-08-31T09:44:41Z</time>
      </trkpt>
      <trkpt lat="43.46046" lon="-0.37051">
        <ele>159.3</ele>
        <time>2026-08-31T09:44:42Z</time>
      </trkpt>
      <trkpt lat="43.46047" lon="-0.37051">
        <ele>159.3</ele>
        <time>2026-08-31T09:44:42Z</time>
      </trkpt>
      <trkpt lat="43.46047" lon="-0.37052">
        <ele>159.3</ele>
        <time>2026-08-31T09:44:43Z</time>
      </trkpt>
      <trkpt lat="43.46048" lon="-0.37052">
        <ele>159.3</ele>
        <time>2026-08-31T09:44:43Z</time>
      </trkpt>
      <trkpt lat="43.46048" lon="-0.37052">
        <ele>159.3</ele>
        <time>2026-08-31T09:44:44Z</time>
      </trkpt>
      <trkpt lat="43.46049" lon="-0.37052">
        <ele>159.3</ele>
        <time>2026-08-31T09:44:44Z</time>
      </trkpt>
      <trkpt lat="43.4605" lon="-0.37052">
        <ele>159.3</ele>
        <time>2026-08-31T09:44:45Z</time>
      </trkpt>
      <trkpt lat="43.4605" lon="-0.37051">
        <ele>159.3</ele>
        <time>2026-08-31T09:44:45Z</time>
      </trkpt>
      <trkpt lat="43.46051" lon="-0.37051">
        <ele>159.3</ele>
        <time>2026-08-31T09:44:46Z</time>
      </trkpt>
      <trkpt lat="43.46052" lon="-0.37051">
        <ele>159.3</ele>
        <time>2026-08-31T09:44:46Z</time>
      </trkpt>
      <trkpt lat="43.46052" lon="-0.37051">
        <ele>158.3</ele>
        <time>2026-08-31T09:44:47Z</time>
      </trkpt>
      <trkpt lat="43.46053" lon="-0.37051">
        <ele>158.3</ele>
        <time>2026-08-31T09:44:47Z</time>
      </trkpt>
      <trkpt lat="43.46054" lon="-0.37051">
        <ele>159.3</ele>
        <time>2026-08-31T09:44:48Z</time>
      </trkpt>
      <trkpt lat="43.46054" lon="-0.37051">
        <ele>159.3</ele>
        <time>2026-08-31T09:44:49Z</time>
      </trkpt>
      <trkpt lat="43.46055" lon="-0.37051">
        <ele>159.3</ele>
        <time>2026-08-31T09:44:49Z</time>
      </trkpt>
      <trkpt lat="43.46056" lon="-0.37051">
        <ele>159.3</ele>
        <time>2026-08-31T09:44:50Z</time>
      </trkpt>
      <trkpt lat="43.46056" lon="-0.37051">
        <ele>159.3</ele>
        <time>2026-08-31T09:44:50Z</time>
      </trkpt>
      <trkpt lat="43.46057" lon="-0.37051">
        <ele>159.3</ele>
        <time>2026-08-31T09:44:51Z</time>
      </trkpt>
      <trkpt lat="43.46058" lon="-0.37052">
        <ele>159.3</ele>
        <time>2026-08-31T09:44:51Z</time>
      </trkpt>
      <trkpt lat="43.46058" lon="-0.37052">
        <ele>159.3</ele>
        <time>2026-08-31T09:44:52Z</time>
      </trkpt>
      <trkpt lat="43.46059" lon="-0.37052">
        <ele>159.3</ele>
        <time>2026-08-31T09:44:52Z</time>
      </trkpt>
      <trkpt lat="43.46059" lon="-0.37052">
        <ele>158.3</ele>
        <time>2026-08-31T09:44:53Z</time>
      </trkpt>
      <trkpt lat="43.4606" lon="-0.37052">
        <ele>158.3</ele>
        <time>2026-08-31T09:44:53Z</time>
      </trkpt>
      <trkpt lat="43.46061" lon="-0.37053">
        <ele>158.3</ele>
        <time>2026-08-31T09:44:54Z</time>
      </trkpt>
      <trkpt lat="43.46061" lon="-0.37053">
        <ele>158.3</ele>
        <time>2026-08-31T09:44:54Z</time>
      </trkpt>
      <trkpt lat="43.46062" lon="-0.37053">
        <ele>158.3</ele>
        <time>2026-08-31T09:44:55Z</time>
      </trkpt>
      <trkpt lat="43.46063" lon="-0.37054">
        <ele>158.3</ele>
        <time>2026-08-31T09:44:55Z</time>
      </trkpt>
      <trkpt lat="43.46063" lon="-0.37054">
        <ele>157.3</ele>
        <time>2026-08-31T09:44:56Z</time>
      </trkpt>
      <trkpt lat="43.46064" lon="-0.37054">
        <ele>157.3</ele>
        <time>2026-08-31T09:44:56Z</time>
      </trkpt>
      <trkpt lat="43.46065" lon="-0.37055">
        <ele>158.3</ele>
        <time>2026-08-31T09:44:57Z</time>
      </trkpt>
      <trkpt lat="43.46065" lon="-0.37055">
        <ele>158.3</ele>
        <time>2026-08-31T09:44:58Z</time>
      </trkpt>
      <trkpt lat="43.46066" lon="-0.37055">
        <ele>157.3</ele>
        <time>2026-08-31T09:44:58Z</time>
      </trkpt>
      <trkpt lat="43.46067" lon="-0.37055">
        <ele>157.3</ele>
        <time>2026-08-31T09:44:59Z</time>
      </trkpt>
      <trkpt lat="43.46067" lon="-0.37055">
        <ele>157.3</ele>
        <time>2026-08-31T09:44:59Z</time>
      </trkpt>
      <trkpt lat="43.46068" lon="-0.37055">
        <ele>157.3</ele>
        <time>2026-08-31T09:45:00Z</time>
      </trkpt>
      <trkpt lat="43.46069" lon="-0.37056">
        <ele>157.3</ele>
        <time>2026-08-31T09:45:00Z</time>
      </trkpt>
      <trkpt lat="43.46069" lon="-0.37056">
        <ele>157.3</ele>
        <time>2026-08-31T09:45:01Z</time>
      </trkpt>
      <trkpt lat="43.4607" lon="-0.37056">
        <ele>157.3</ele>
        <time>2026-08-31T09:45:01Z</time>
      </trkpt>
      <trkpt lat="43.46071" lon="-0.37056">
        <ele>157.3</ele>
        <time>2026-08-31T09:45:02Z</time>
      </trkpt>
      <trkpt lat="43.46071" lon="-0.37056">
        <ele>157.3</ele>
        <time>2026-08-31T09:45:02Z</time>
      </trkpt>
      <trkpt lat="43.46072" lon="-0.37056">
        <ele>157.3</ele>
        <time>2026-08-31T09:45:03Z</time>
      </trkpt>
      <trkpt lat="43.46073" lon="-0.37056">
        <ele>157.3</ele>
        <time>2026-08-31T09:45:03Z</time>
      </trkpt>
      <trkpt lat="43.46074" lon="-0.37056">
        <ele>157.3</ele>
        <time>2026-08-31T09:45:04Z</time>
      </trkpt>
      <trkpt lat="43.46074" lon="-0.37056">
        <ele>157.3</ele>
        <time>2026-08-31T09:45:04Z</time>
      </trkpt>
      <trkpt lat="43.46075" lon="-0.37056">
        <ele>157.3</ele>
        <time>2026-08-31T09:45:05Z</time>
      </trkpt>
      <trkpt lat="43.46076" lon="-0.37057">
        <ele>157.3</ele>
        <time>2026-08-31T09:45:05Z</time>
      </trkpt>
      <trkpt lat="43.46076" lon="-0.37057">
        <ele>157.3</ele>
        <time>2026-08-31T09:45:06Z</time>
      </trkpt>
      <trkpt lat="43.46077" lon="-0.37057">
        <ele>157.3</ele>
        <time>2026-08-31T09:45:06Z</time>
      </trkpt>
      <trkpt lat="43.46078" lon="-0.37057">
        <ele>157.3</ele>
        <time>2026-08-31T09:45:07Z</time>
      </trkpt>
      <trkpt lat="43.46079" lon="-0.37057">
        <ele>157.3</ele>
        <time>2026-08-31T09:45:07Z</time>
      </trkpt>
      <trkpt lat="43.4608" lon="-0.37058">
        <ele>156.3</ele>
        <time>2026-08-31T09:45:08Z</time>
      </trkpt>
      <trkpt lat="43.4608" lon="-0.37058">
        <ele>156.3</ele>
        <time>2026-08-31T09:45:08Z</time>
      </trkpt>
      <trkpt lat="43.46081" lon="-0.37058">
        <ele>156.3</ele>
        <time>2026-08-31T09:45:09Z</time>
      </trkpt>
      <trkpt lat="43.46082" lon="-0.37058">
        <ele>156.3</ele>
        <time>2026-08-31T09:45:10Z</time>
      </trkpt>
      <trkpt lat="43.46083" lon="-0.37058">
        <ele>156.3</ele>
        <time>2026-08-31T09:45:10Z</time>
      </trkpt>
      <trkpt lat="43.46083" lon="-0.37058">
        <ele>156.3</ele>
        <time>2026-08-31T09:45:11Z</time>
      </trkpt>
      <trkpt lat="43.46084" lon="-0.37059">
        <ele>156.3</ele>
        <time>2026-08-31T09:45:11Z</time>
      </trkpt>
      <trkpt lat="43.46085" lon="-0.37059">
        <ele>156.3</ele>
        <time>2026-08-31T09:45:12Z</time>
      </trkpt>
      <trkpt lat="43.46085" lon="-0.37059">
        <ele>156.3</ele>
        <time>2026-08-31T09:45:12Z</time>
      </trkpt>
      <trkpt lat="43.46086" lon="-0.37059">
        <ele>156.3</ele>
        <time>2026-08-31T09:45:13Z</time>
      </trkpt>
      <trkpt lat="43.46087" lon="-0.37059">
        <ele>156.3</ele>
        <time>2026-08-31T09:45:13Z</time>
      </trkpt>
      <trkpt lat="43.46087" lon="-0.37059">
        <ele>156.3</ele>
        <time>2026-08-31T09:45:14Z</time>
      </trkpt>
      <trkpt lat="43.46088" lon="-0.37059">
        <ele>156.3</ele>
        <time>2026-08-31T09:45:14Z</time>
      </trkpt>
      <trkpt lat="43.46088" lon="-0.37059">
        <ele>156.3</ele>
        <time>2026-08-31T09:45:15Z</time>
      </trkpt>
      <trkpt lat="43.46089" lon="-0.37059">
        <ele>156.3</ele>
        <time>2026-08-31T09:45:15Z</time>
      </trkpt>
      <trkpt lat="43.4609" lon="-0.37059">
        <ele>156.3</ele>
        <time>2026-08-31T09:45:16Z</time>
      </trkpt>
      <trkpt lat="43.4609" lon="-0.37059">
        <ele>156.3</ele>
        <time>2026-08-31T09:45:16Z</time>
      </trkpt>
      <trkpt lat="43.46091" lon="-0.37059">
        <ele>156.3</ele>
        <time>2026-08-31T09:45:17Z</time>
      </trkpt>
      <trkpt lat="43.46092" lon="-0.3706">
        <ele>156.3</ele>
        <time>2026-08-31T09:45:17Z</time>
      </trkpt>
      <trkpt lat="43.46092" lon="-0.3706">
        <ele>156.3</ele>
        <time>2026-08-31T09:45:18Z</time>
      </trkpt>
      <trkpt lat="43.46093" lon="-0.3706">
        <ele>156.3</ele>
        <time>2026-08-31T09:45:18Z</time>
      </trkpt>
      <trkpt lat="43.46093" lon="-0.3706">
        <ele>156.3</ele>
        <time>2026-08-31T09:45:19Z</time>
      </trkpt>
      <trkpt lat="43.46094" lon="-0.3706">
        <ele>156.3</ele>
        <time>2026-08-31T09:45:20Z</time>
      </trkpt>
      <trkpt lat="43.46095" lon="-0.37061">
        <ele>156.3</ele>
        <time>2026-08-31T09:45:20Z</time>
      </trkpt>
      <trkpt lat="43.46095" lon="-0.37061">
        <ele>156.3</ele>
        <time>2026-08-31T09:45:21Z</time>
      </trkpt>
      <trkpt lat="43.46096" lon="-0.37061">
        <ele>157.3</ele>
        <time>2026-08-31T09:45:21Z</time>
      </trkpt>
      <trkpt lat="43.46097" lon="-0.37061">
        <ele>157.3</ele>
        <time>2026-08-31T09:45:22Z</time>
      </trkpt>
      <trkpt lat="43.46097" lon="-0.37061">
        <ele>156.3</ele>
        <time>2026-08-31T09:45:22Z</time>
      </trkpt>
      <trkpt lat="43.46098" lon="-0.37062">
        <ele>156.3</ele>
        <time>2026-08-31T09:45:23Z</time>
      </trkpt>
      <trkpt lat="43.46099" lon="-0.37062">
        <ele>156.3</ele>
        <time>2026-08-31T09:45:23Z</time>
      </trkpt>
      <trkpt lat="43.46099" lon="-0.37062">
        <ele>156.3</ele>
        <time>2026-08-31T09:45:24Z</time>
      </trkpt>
      <trkpt lat="43.461" lon="-0.37062">
        <ele>156.3</ele>
        <time>2026-08-31T09:45:24Z</time>
      </trkpt>
      <trkpt lat="43.461" lon="-0.37062">
        <ele>156.3</ele>
        <time>2026-08-31T09:45:25Z</time>
      </trkpt>
      <trkpt lat="43.46101" lon="-0.37062">
        <ele>156.3</ele>
        <time>2026-08-31T09:45:25Z</time>
      </trkpt>
      <trkpt lat="43.46102" lon="-0.37062">
        <ele>156.3</ele>
        <time>2026-08-31T09:45:26Z</time>
      </trkpt>
      <trkpt lat="43.46102" lon="-0.37062">
        <ele>156.3</ele>
        <time>2026-08-31T09:45:26Z</time>
      </trkpt>
      <trkpt lat="43.46103" lon="-0.37062">
        <ele>156.3</ele>
        <time>2026-08-31T09:45:27Z</time>
      </trkpt>
      <trkpt lat="43.46104" lon="-0.37062">
        <ele>156.3</ele>
        <time>2026-08-31T09:45:27Z</time>
      </trkpt>
      <trkpt lat="43.46104" lon="-0.37062">
        <ele>156.3</ele>
        <time>2026-08-31T09:45:28Z</time>
      </trkpt>
      <trkpt lat="43.46105" lon="-0.37062">
        <ele>156.3</ele>
        <time>2026-08-31T09:45:29Z</time>
      </trkpt>
      <trkpt lat="43.46105" lon="-0.37062">
        <ele>155.3</ele>
        <time>2026-08-31T09:45:29Z</time>
      </trkpt>
      <trkpt lat="43.46106" lon="-0.37062">
        <ele>155.3</ele>
        <time>2026-08-31T09:45:30Z</time>
      </trkpt>
      <trkpt lat="43.46106" lon="-0.37062">
        <ele>155.3</ele>
        <time>2026-08-31T09:45:30Z</time>
      </trkpt>
      <trkpt lat="43.46107" lon="-0.37062">
        <ele>155.3</ele>
        <time>2026-08-31T09:45:31Z</time>
      </trkpt>
      <trkpt lat="43.46108" lon="-0.37062">
        <ele>155.3</ele>
        <time>2026-08-31T09:45:31Z</time>
      </trkpt>
      <trkpt lat="43.46108" lon="-0.37062">
        <ele>155.3</ele>
        <time>2026-08-31T09:45:32Z</time>
      </trkpt>
      <trkpt lat="43.46109" lon="-0.37062">
        <ele>155.3</ele>
        <time>2026-08-31T09:45:32Z</time>
      </trkpt>
      <trkpt lat="43.4611" lon="-0.37062">
        <ele>155.3</ele>
        <time>2026-08-31T09:45:33Z</time>
      </trkpt>
      <trkpt lat="43.46111" lon="-0.37063">
        <ele>155.3</ele>
        <time>2026-08-31T09:45:33Z</time>
      </trkpt>
      <trkpt lat="43.46111" lon="-0.37063">
        <ele>155.3</ele>
        <time>2026-08-31T09:45:34Z</time>
      </trkpt>
      <trkpt lat="43.46112" lon="-0.37063">
        <ele>155.3</ele>
        <time>2026-08-31T09:45:34Z</time>
      </trkpt>
      <trkpt lat="43.46113" lon="-0.37063">
        <ele>155.3</ele>
        <time>2026-08-31T09:45:35Z</time>
      </trkpt>
      <trkpt lat="43.46113" lon="-0.37063">
        <ele>155.3</ele>
        <time>2026-08-31T09:45:35Z</time>
      </trkpt>
      <trkpt lat="43.46114" lon="-0.37063">
        <ele>156.3</ele>
        <time>2026-08-31T09:45:36Z</time>
      </trkpt>
      <trkpt lat="43.46115" lon="-0.37063">
        <ele>156.3</ele>
        <time>2026-08-31T09:45:37Z</time>
      </trkpt>
      <trkpt lat="43.46115" lon="-0.37063">
        <ele>155.3</ele>
        <time>2026-08-31T09:45:37Z</time>
      </trkpt>
      <trkpt lat="43.46116" lon="-0.37063">
        <ele>155.3</ele>
        <time>2026-08-31T09:45:38Z</time>
      </trkpt>
      <trkpt lat="43.46117" lon="-0.37063">
        <ele>155.3</ele>
        <time>2026-08-31T09:45:38Z</time>
      </trkpt>
      <trkpt lat="43.46117" lon="-0.37063">
        <ele>155.3</ele>
        <time>2026-08-31T09:45:39Z</time>
      </trkpt>
      <trkpt lat="43.46118" lon="-0.37063">
        <ele>156.3</ele>
        <time>2026-08-31T09:45:39Z</time>
      </trkpt>
      <trkpt lat="43.46119" lon="-0.37063">
        <ele>156.3</ele>
        <time>2026-08-31T09:45:40Z</time>
      </trkpt>
      <trkpt lat="43.46119" lon="-0.37063">
        <ele>155.3</ele>
        <time>2026-08-31T09:45:40Z</time>
      </trkpt>
      <trkpt lat="43.4612" lon="-0.37063">
        <ele>155.3</ele>
        <time>2026-08-31T09:45:41Z</time>
      </trkpt>
      <trkpt lat="43.46121" lon="-0.37063">
        <ele>155.3</ele>
        <time>2026-08-31T09:45:41Z</time>
      </trkpt>
      <trkpt lat="43.46121" lon="-0.37064">
        <ele>155.3</ele>
        <time>2026-08-31T09:45:42Z</time>
      </trkpt>
      <trkpt lat="43.46122" lon="-0.37064">
        <ele>155.3</ele>
        <time>2026-08-31T09:45:42Z</time>
      </trkpt>
      <trkpt lat="43.46123" lon="-0.37064">
        <ele>155.3</ele>
        <time>2026-08-31T09:45:43Z</time>
      </trkpt>
      <trkpt lat="43.46123" lon="-0.37064">
        <ele>155.3</ele>
        <time>2026-08-31T09:45:43Z</time>
      </trkpt>
      <trkpt lat="43.46124" lon="-0.37064">
        <ele>155.3</ele>
        <time>2026-08-31T09:45:44Z</time>
      </trkpt>
      <trkpt lat="43.46125" lon="-0.37064">
        <ele>155.3</ele>
        <time>2026-08-31T09:45:44Z</time>
      </trkpt>
      <trkpt lat="43.46126" lon="-0.37064">
        <ele>156.3</ele>
        <time>2026-08-31T09:45:45Z</time>
      </trkpt>
      <trkpt lat="43.46126" lon="-0.37064">
        <ele>156.3</ele>
        <time>2026-08-31T09:45:46Z</time>
      </trkpt>
      <trkpt lat="43.46127" lon="-0.37064">
        <ele>155.3</ele>
        <time>2026-08-31T09:45:46Z</time>
      </trkpt>
      <trkpt lat="43.46128" lon="-0.37063">
        <ele>155.3</ele>
        <time>2026-08-31T09:45:47Z</time>
      </trkpt>
      <trkpt lat="43.46128" lon="-0.37063">
        <ele>155.3</ele>
        <time>2026-08-31T09:45:47Z</time>
      </trkpt>
      <trkpt lat="43.46129" lon="-0.37063">
        <ele>155.3</ele>
        <time>2026-08-31T09:45:48Z</time>
      </trkpt>
      <trkpt lat="43.4613" lon="-0.37063">
        <ele>155.3</ele>
        <time>2026-08-31T09:45:48Z</time>
      </trkpt>
      <trkpt lat="43.46131" lon="-0.37063">
        <ele>155.3</ele>
        <time>2026-08-31T09:45:49Z</time>
      </trkpt>
      <trkpt lat="43.46131" lon="-0.37064">
        <ele>155.3</ele>
        <time>2026-08-31T09:45:49Z</time>
      </trkpt>
      <trkpt lat="43.46132" lon="-0.37064">
        <ele>155.3</ele>
        <time>2026-08-31T09:45:50Z</time>
      </trkpt>
      <trkpt lat="43.46133" lon="-0.37064">
        <ele>155.3</ele>
        <time>2026-08-31T09:45:50Z</time>
      </trkpt>
      <trkpt lat="43.46134" lon="-0.37064">
        <ele>155.3</ele>
        <time>2026-08-31T09:45:51Z</time>
      </trkpt>
      <trkpt lat="43.46134" lon="-0.37064">
        <ele>155.3</ele>
        <time>2026-08-31T09:45:51Z</time>
      </trkpt>
      <trkpt lat="43.46135" lon="-0.37065">
        <ele>155.3</ele>
        <time>2026-08-31T09:45:52Z</time>
      </trkpt>
      <trkpt lat="43.46136" lon="-0.37065">
        <ele>155.3</ele>
        <time>2026-08-31T09:45:52Z</time>
      </trkpt>
      <trkpt lat="43.46137" lon="-0.37065">
        <ele>155.3</ele>
        <time>2026-08-31T09:45:53Z</time>
      </trkpt>
      <trkpt lat="43.46137" lon="-0.37065">
        <ele>155.3</ele>
        <time>2026-08-31T09:45:53Z</time>
      </trkpt>
      <trkpt lat="43.46138" lon="-0.37065">
        <ele>155.3</ele>
        <time>2026-08-31T09:45:54Z</time>
      </trkpt>
      <trkpt lat="43.46139" lon="-0.37065">
        <ele>155.3</ele>
        <time>2026-08-31T09:45:55Z</time>
      </trkpt>
      <trkpt lat="43.46139" lon="-0.37065">
        <ele>156.3</ele>
        <time>2026-08-31T09:45:55Z</time>
      </trkpt>
      <trkpt lat="43.4614" lon="-0.37065">
        <ele>156.3</ele>
        <time>2026-08-31T09:45:56Z</time>
      </trkpt>
      <trkpt lat="43.46141" lon="-0.37066">
        <ele>155.3</ele>
        <time>2026-08-31T09:45:56Z</time>
      </trkpt>
      <trkpt lat="43.46142" lon="-0.37066">
        <ele>155.3</ele>
        <time>2026-08-31T09:45:57Z</time>
      </trkpt>
      <trkpt lat="43.46142" lon="-0.37066">
        <ele>156.3</ele>
        <time>2026-08-31T09:45:57Z</time>
      </trkpt>
      <trkpt lat="43.46143" lon="-0.37066">
        <ele>156.3</ele>
        <time>2026-08-31T09:45:58Z</time>
      </trkpt>
      <trkpt lat="43.46143" lon="-0.37066">
        <ele>156.3</ele>
        <time>2026-08-31T09:45:58Z</time>
      </trkpt>
      <trkpt lat="43.46144" lon="-0.37066">
        <ele>156.3</ele>
        <time>2026-08-31T09:45:59Z</time>
      </trkpt>
      <trkpt lat="43.46145" lon="-0.37066">
        <ele>156.3</ele>
        <time>2026-08-31T09:45:59Z</time>
      </trkpt>
      <trkpt lat="43.46146" lon="-0.37066">
        <ele>155.3</ele>
        <time>2026-08-31T09:46:00Z</time>
      </trkpt>
      <trkpt lat="43.46146" lon="-0.37066">
        <ele>155.3</ele>
        <time>2026-08-31T09:46:00Z</time>
      </trkpt>
      <trkpt lat="43.46147" lon="-0.37066">
        <ele>155.3</ele>
        <time>2026-08-31T09:46:01Z</time>
      </trkpt>
      <trkpt lat="43.46148" lon="-0.37066">
        <ele>155.3</ele>
        <time>2026-08-31T09:46:01Z</time>
      </trkpt>
      <trkpt lat="43.46148" lon="-0.37066">
        <ele>156.3</ele>
        <time>2026-08-31T09:46:02Z</time>
      </trkpt>
      <trkpt lat="43.46149" lon="-0.37066">
        <ele>156.3</ele>
        <time>2026-08-31T09:46:02Z</time>
      </trkpt>
      <trkpt lat="43.46149" lon="-0.37065">
        <ele>156.3</ele>
        <time>2026-08-31T09:46:03Z</time>
      </trkpt>
      <trkpt lat="43.4615" lon="-0.37065">
        <ele>156.3</ele>
        <time>2026-08-31T09:46:04Z</time>
      </trkpt>
      <trkpt lat="43.46151" lon="-0.37065">
        <ele>155.3</ele>
        <time>2026-08-31T09:46:04Z</time>
      </trkpt>
      <trkpt lat="43.46151" lon="-0.37065">
        <ele>155.3</ele>
        <time>2026-08-31T09:46:05Z</time>
      </trkpt>
      <trkpt lat="43.46152" lon="-0.37065">
        <ele>155.3</ele>
        <time>2026-08-31T09:46:05Z</time>
      </trkpt>
      <trkpt lat="43.46152" lon="-0.37065">
        <ele>155.3</ele>
        <time>2026-08-31T09:46:06Z</time>
      </trkpt>
      <trkpt lat="43.46153" lon="-0.37065">
        <ele>156.3</ele>
        <time>2026-08-31T09:46:06Z</time>
      </trkpt>
      <trkpt lat="43.46153" lon="-0.37065">
        <ele>155.3</ele>
        <time>2026-08-31T09:46:07Z</time>
      </trkpt>
      <trkpt lat="43.46154" lon="-0.37065">
        <ele>155.3</ele>
        <time>2026-08-31T09:46:07Z</time>
      </trkpt>
      <trkpt lat="43.46154" lon="-0.37065">
        <ele>155.3</ele>
        <time>2026-08-31T09:46:08Z</time>
      </trkpt>
      <trkpt lat="43.46155" lon="-0.37065">
        <ele>155.3</ele>
        <time>2026-08-31T09:46:08Z</time>
      </trkpt>
      <trkpt lat="43.46155" lon="-0.37066">
        <ele>155.3</ele>
        <time>2026-08-31T09:46:09Z</time>
      </trkpt>
      <trkpt lat="43.46156" lon="-0.37066">
        <ele>155.3</ele>
        <time>2026-08-31T09:46:09Z</time>
      </trkpt>
      <trkpt lat="43.46157" lon="-0.37066">
        <ele>155.3</ele>
        <time>2026-08-31T09:46:10Z</time>
      </trkpt>
      <trkpt lat="43.46157" lon="-0.37066">
        <ele>155.3</ele>
        <time>2026-08-31T09:46:10Z</time>
      </trkpt>
      <trkpt lat="43.46158" lon="-0.37066">
        <ele>155.3</ele>
        <time>2026-08-31T09:46:11Z</time>
      </trkpt>
      <trkpt lat="43.46159" lon="-0.37066">
        <ele>155.3</ele>
        <time>2026-08-31T09:46:11Z</time>
      </trkpt>
      <trkpt lat="43.46159" lon="-0.37066">
        <ele>155.3</ele>
        <time>2026-08-31T09:46:12Z</time>
      </trkpt>
      <trkpt lat="43.4616" lon="-0.37066">
        <ele>155.3</ele>
        <time>2026-08-31T09:46:13Z</time>
      </trkpt>
      <trkpt lat="43.46161" lon="-0.37066">
        <ele>155.3</ele>
        <time>2026-08-31T09:46:13Z</time>
      </trkpt>
      <trkpt lat="43.46161" lon="-0.37066">
        <ele>155.3</ele>
        <time>2026-08-31T09:46:14Z</time>
      </trkpt>
      <trkpt lat="43.46162" lon="-0.37067">
        <ele>155.3</ele>
        <time>2026-08-31T09:46:14Z</time>
      </trkpt>
      <trkpt lat="43.46162" lon="-0.37067">
        <ele>155.3</ele>
        <time>2026-08-31T09:46:15Z</time>
      </trkpt>
      <trkpt lat="43.46163" lon="-0.37067">
        <ele>155.3</ele>
        <time>2026-08-31T09:46:15Z</time>
      </trkpt>
      <trkpt lat="43.46163" lon="-0.37067">
        <ele>155.3</ele>
        <time>2026-08-31T09:46:16Z</time>
      </trkpt>
      <trkpt lat="43.46164" lon="-0.37067">
        <ele>155.3</ele>
        <time>2026-08-31T09:46:16Z</time>
      </trkpt>
      <trkpt lat="43.46165" lon="-0.37067">
        <ele>154.3</ele>
        <time>2026-08-31T09:46:17Z</time>
      </trkpt>
      <trkpt lat="43.46165" lon="-0.37067">
        <ele>154.3</ele>
        <time>2026-08-31T09:46:17Z</time>
      </trkpt>
      <trkpt lat="43.46166" lon="-0.37068">
        <ele>154.3</ele>
        <time>2026-08-31T09:46:18Z</time>
      </trkpt>
      <trkpt lat="43.46167" lon="-0.37068">
        <ele>154.3</ele>
        <time>2026-08-31T09:46:18Z</time>
      </trkpt>
      <trkpt lat="43.46167" lon="-0.37068">
        <ele>155.3</ele>
        <time>2026-08-31T09:46:19Z</time>
      </trkpt>
      <trkpt lat="43.46168" lon="-0.37068">
        <ele>155.3</ele>
        <time>2026-08-31T09:46:19Z</time>
      </trkpt>
      <trkpt lat="43.46169" lon="-0.37068">
        <ele>155.3</ele>
        <time>2026-08-31T09:46:20Z</time>
      </trkpt>
      <trkpt lat="43.4617" lon="-0.37068">
        <ele>155.3</ele>
        <time>2026-08-31T09:46:20Z</time>
      </trkpt>
      <trkpt lat="43.4617" lon="-0.37068">
        <ele>154.3</ele>
        <time>2026-08-31T09:46:21Z</time>
      </trkpt>
      <trkpt lat="43.46171" lon="-0.37068">
        <ele>154.3</ele>
        <time>2026-08-31T09:46:22Z</time>
      </trkpt>
      <trkpt lat="43.46172" lon="-0.37069">
        <ele>153.3</ele>
        <time>2026-08-31T09:46:22Z</time>
      </trkpt>
      <trkpt lat="43.46172" lon="-0.37069">
        <ele>153.3</ele>
        <time>2026-08-31T09:46:23Z</time>
      </trkpt>
      <trkpt lat="43.46173" lon="-0.37069">
        <ele>154.3</ele>
        <time>2026-08-31T09:46:23Z</time>
      </trkpt>
      <trkpt lat="43.46174" lon="-0.37069">
        <ele>154.3</ele>
        <time>2026-08-31T09:46:24Z</time>
      </trkpt>
      <trkpt lat="43.46175" lon="-0.37069">
        <ele>154.3</ele>
        <time>2026-08-31T09:46:24Z</time>
      </trkpt>
      <trkpt lat="43.46175" lon="-0.37069">
        <ele>154.3</ele>
        <time>2026-08-31T09:46:25Z</time>
      </trkpt>
      <trkpt lat="43.46176" lon="-0.37069">
        <ele>154.3</ele>
        <time>2026-08-31T09:46:25Z</time>
      </trkpt>
      <trkpt lat="43.46177" lon="-0.37069">
        <ele>153.3</ele>
        <time>2026-08-31T09:46:26Z</time>
      </trkpt>
      <trkpt lat="43.46178" lon="-0.3707">
        <ele>153.3</ele>
        <time>2026-08-31T09:46:26Z</time>
      </trkpt>
      <trkpt lat="43.46178" lon="-0.3707">
        <ele>154.3</ele>
        <time>2026-08-31T09:46:27Z</time>
      </trkpt>
      <trkpt lat="43.46179" lon="-0.3707">
        <ele>154.3</ele>
        <time>2026-08-31T09:46:27Z</time>
      </trkpt>
      <trkpt lat="43.4618" lon="-0.3707">
        <ele>153.3</ele>
        <time>2026-08-31T09:46:28Z</time>
      </trkpt>
      <trkpt lat="43.46181" lon="-0.3707">
        <ele>153.3</ele>
        <time>2026-08-31T09:46:28Z</time>
      </trkpt>
      <trkpt lat="43.46182" lon="-0.3707">
        <ele>153.3</ele>
        <time>2026-08-31T09:46:29Z</time>
      </trkpt>
      <trkpt lat="43.46182" lon="-0.3707">
        <ele>153.3</ele>
        <time>2026-08-31T09:46:30Z</time>
      </trkpt>
      <trkpt lat="43.46183" lon="-0.3707">
        <ele>153.3</ele>
        <time>2026-08-31T09:46:30Z</time>
      </trkpt>
      <trkpt lat="43.46184" lon="-0.3707">
        <ele>153.3</ele>
        <time>2026-08-31T09:46:31Z</time>
      </trkpt>
      <trkpt lat="43.46185" lon="-0.3707">
        <ele>153.3</ele>
        <time>2026-08-31T09:46:31Z</time>
      </trkpt>
      <trkpt lat="43.46185" lon="-0.3707">
        <ele>153.3</ele>
        <time>2026-08-31T09:46:32Z</time>
      </trkpt>
      <trkpt lat="43.46186" lon="-0.3707">
        <ele>153.3</ele>
        <time>2026-08-31T09:46:32Z</time>
      </trkpt>
      <trkpt lat="43.46187" lon="-0.3707">
        <ele>153.3</ele>
        <time>2026-08-31T09:46:33Z</time>
      </trkpt>
      <trkpt lat="43.46188" lon="-0.37071">
        <ele>153.3</ele>
        <time>2026-08-31T09:46:33Z</time>
      </trkpt>
      <trkpt lat="43.46188" lon="-0.37071">
        <ele>153.3</ele>
        <time>2026-08-31T09:46:34Z</time>
      </trkpt>
      <trkpt lat="43.46189" lon="-0.37071">
        <ele>153.3</ele>
        <time>2026-08-31T09:46:34Z</time>
      </trkpt>
      <trkpt lat="43.4619" lon="-0.37072">
        <ele>153.3</ele>
        <time>2026-08-31T09:46:35Z</time>
      </trkpt>
      <trkpt lat="43.4619" lon="-0.37072">
        <ele>153.3</ele>
        <time>2026-08-31T09:46:35Z</time>
      </trkpt>
      <trkpt lat="43.46191" lon="-0.37072">
        <ele>153.3</ele>
        <time>2026-08-31T09:46:36Z</time>
      </trkpt>
      <trkpt lat="43.46192" lon="-0.37072">
        <ele>153.3</ele>
        <time>2026-08-31T09:46:36Z</time>
      </trkpt>
      <trkpt lat="43.46193" lon="-0.37072">
        <ele>153.3</ele>
        <time>2026-08-31T09:46:37Z</time>
      </trkpt>
      <trkpt lat="43.46193" lon="-0.37072">
        <ele>153.3</ele>
        <time>2026-08-31T09:46:37Z</time>
      </trkpt>
      <trkpt lat="43.46194" lon="-0.37072">
        <ele>153.3</ele>
        <time>2026-08-31T09:46:38Z</time>
      </trkpt>
      <trkpt lat="43.46195" lon="-0.37072">
        <ele>153.3</ele>
        <time>2026-08-31T09:46:38Z</time>
      </trkpt>
      <trkpt lat="43.46196" lon="-0.37072">
        <ele>153.3</ele>
        <time>2026-08-31T09:46:39Z</time>
      </trkpt>
      <trkpt lat="43.46196" lon="-0.37073">
        <ele>153.3</ele>
        <time>2026-08-31T09:46:40Z</time>
      </trkpt>
      <trkpt lat="43.46197" lon="-0.37073">
        <ele>153.3</ele>
        <time>2026-08-31T09:46:40Z</time>
      </trkpt>
      <trkpt lat="43.46198" lon="-0.37073">
        <ele>153.3</ele>
        <time>2026-08-31T09:46:41Z</time>
      </trkpt>
      <trkpt lat="43.46198" lon="-0.37073">
        <ele>153.3</ele>
        <time>2026-08-31T09:46:41Z</time>
      </trkpt>
      <trkpt lat="43.46199" lon="-0.37073">
        <ele>153.3</ele>
        <time>2026-08-31T09:46:42Z</time>
      </trkpt>
      <trkpt lat="43.462" lon="-0.37073">
        <ele>153.3</ele>
        <time>2026-08-31T09:46:42Z</time>
      </trkpt>
      <trkpt lat="43.46201" lon="-0.37073">
        <ele>153.3</ele>
        <time>2026-08-31T09:46:43Z</time>
      </trkpt>
      <trkpt lat="43.46201" lon="-0.37073">
        <ele>153.3</ele>
        <time>2026-08-31T09:46:43Z</time>
      </trkpt>
      <trkpt lat="43.46202" lon="-0.37073">
        <ele>153.3</ele>
        <time>2026-08-31T09:46:44Z</time>
      </trkpt>
      <trkpt lat="43.46203" lon="-0.37073">
        <ele>153.3</ele>
        <time>2026-08-31T09:46:44Z</time>
      </trkpt>
      <trkpt lat="43.46203" lon="-0.37073">
        <ele>153.3</ele>
        <time>2026-08-31T09:46:45Z</time>
      </trkpt>
      <trkpt lat="43.46204" lon="-0.37074">
        <ele>153.3</ele>
        <time>2026-08-31T09:46:45Z</time>
      </trkpt>
      <trkpt lat="43.46205" lon="-0.37074">
        <ele>153.3</ele>
        <time>2026-08-31T09:46:46Z</time>
      </trkpt>
      <trkpt lat="43.46206" lon="-0.37073">
        <ele>153.3</ele>
        <time>2026-08-31T09:46:46Z</time>
      </trkpt>
      <trkpt lat="43.46206" lon="-0.37073">
        <ele>153.3</ele>
        <time>2026-08-31T09:46:47Z</time>
      </trkpt>
      <trkpt lat="43.46207" lon="-0.37073">
        <ele>153.3</ele>
        <time>2026-08-31T09:46:47Z</time>
      </trkpt>
      <trkpt lat="43.46208" lon="-0.37073">
        <ele>153.3</ele>
        <time>2026-08-31T09:46:48Z</time>
      </trkpt>
      <trkpt lat="43.46208" lon="-0.37073">
        <ele>153.3</ele>
        <time>2026-08-31T09:46:49Z</time>
      </trkpt>
      <trkpt lat="43.46209" lon="-0.37073">
        <ele>153.3</ele>
        <time>2026-08-31T09:46:49Z</time>
      </trkpt>
      <trkpt lat="43.4621" lon="-0.37073">
        <ele>153.3</ele>
        <time>2026-08-31T09:46:50Z</time>
      </trkpt>
      <trkpt lat="43.4621" lon="-0.37073">
        <ele>153.3</ele>
        <time>2026-08-31T09:46:50Z</time>
      </trkpt>
      <trkpt lat="43.46211" lon="-0.37073">
        <ele>153.3</ele>
        <time>2026-08-31T09:46:51Z</time>
      </trkpt>
      <trkpt lat="43.46212" lon="-0.37072">
        <ele>152.3</ele>
        <time>2026-08-31T09:46:51Z</time>
      </trkpt>
      <trkpt lat="43.46212" lon="-0.37072">
        <ele>152.3</ele>
        <time>2026-08-31T09:46:52Z</time>
      </trkpt>
      <trkpt lat="43.46213" lon="-0.37072">
        <ele>152.3</ele>
        <time>2026-08-31T09:46:52Z</time>
      </trkpt>
      <trkpt lat="43.46214" lon="-0.37072">
        <ele>152.3</ele>
        <time>2026-08-31T09:46:53Z</time>
      </trkpt>
      <trkpt lat="43.46215" lon="-0.37072">
        <ele>152.3</ele>
        <time>2026-08-31T09:46:53Z</time>
      </trkpt>
      <trkpt lat="43.46215" lon="-0.37072">
        <ele>152.3</ele>
        <time>2026-08-31T09:46:54Z</time>
      </trkpt>
      <trkpt lat="43.46216" lon="-0.37072">
        <ele>152.3</ele>
        <time>2026-08-31T09:46:54Z</time>
      </trkpt>
      <trkpt lat="43.46217" lon="-0.37072">
        <ele>152.3</ele>
        <time>2026-08-31T09:46:55Z</time>
      </trkpt>
      <trkpt lat="43.46218" lon="-0.37072">
        <ele>152.3</ele>
        <time>2026-08-31T09:46:55Z</time>
      </trkpt>
      <trkpt lat="43.46218" lon="-0.37072">
        <ele>152.3</ele>
        <time>2026-08-31T09:46:56Z</time>
      </trkpt>
      <trkpt lat="43.46219" lon="-0.37072">
        <ele>152.3</ele>
        <time>2026-08-31T09:46:56Z</time>
      </trkpt>
      <trkpt lat="43.4622" lon="-0.37072">
        <ele>152.3</ele>
        <time>2026-08-31T09:46:57Z</time>
      </trkpt>
      <trkpt lat="43.4622" lon="-0.37072">
        <ele>152.3</ele>
        <time>2026-08-31T09:46:57Z</time>
      </trkpt>
      <trkpt lat="43.46221" lon="-0.37072">
        <ele>152.3</ele>
        <time>2026-08-31T09:46:58Z</time>
      </trkpt>
      <trkpt lat="43.46222" lon="-0.37072">
        <ele>152.3</ele>
        <time>2026-08-31T09:46:59Z</time>
      </trkpt>
      <trkpt lat="43.46223" lon="-0.37072">
        <ele>152.3</ele>
        <time>2026-08-31T09:46:59Z</time>
      </trkpt>
      <trkpt lat="43.46223" lon="-0.37072">
        <ele>152.3</ele>
        <time>2026-08-31T09:47:00Z</time>
      </trkpt>
      <trkpt lat="43.46224" lon="-0.37072">
        <ele>152.3</ele>
        <time>2026-08-31T09:47:00Z</time>
      </trkpt>
      <trkpt lat="43.46225" lon="-0.37072">
        <ele>152.3</ele>
        <time>2026-08-31T09:47:01Z</time>
      </trkpt>
      <trkpt lat="43.46225" lon="-0.37072">
        <ele>152.3</ele>
        <time>2026-08-31T09:47:01Z</time>
      </trkpt>
      <trkpt lat="43.46226" lon="-0.37072">
        <ele>152.3</ele>
        <time>2026-08-31T09:47:02Z</time>
      </trkpt>
      <trkpt lat="43.46227" lon="-0.37072">
        <ele>152.3</ele>
        <time>2026-08-31T09:47:02Z</time>
      </trkpt>
      <trkpt lat="43.46227" lon="-0.37072">
        <ele>151.3</ele>
        <time>2026-08-31T09:47:03Z</time>
      </trkpt>
      <trkpt lat="43.46228" lon="-0.37072">
        <ele>151.3</ele>
        <time>2026-08-31T09:47:03Z</time>
      </trkpt>
      <trkpt lat="43.46228" lon="-0.37072">
        <ele>151.3</ele>
        <time>2026-08-31T09:47:04Z</time>
      </trkpt>
      <trkpt lat="43.46229" lon="-0.37072">
        <ele>151.3</ele>
        <time>2026-08-31T09:47:04Z</time>
      </trkpt>
      <trkpt lat="43.4623" lon="-0.37072">
        <ele>152.3</ele>
        <time>2026-08-31T09:47:05Z</time>
      </trkpt>
      <trkpt lat="43.46231" lon="-0.37072">
        <ele>152.3</ele>
        <time>2026-08-31T09:47:05Z</time>
      </trkpt>
      <trkpt lat="43.46231" lon="-0.37072">
        <ele>152.3</ele>
        <time>2026-08-31T09:47:06Z</time>
      </trkpt>
      <trkpt lat="43.46232" lon="-0.37072">
        <ele>152.3</ele>
        <time>2026-08-31T09:47:06Z</time>
      </trkpt>
      <trkpt lat="43.46232" lon="-0.37072">
        <ele>152.3</ele>
        <time>2026-08-31T09:47:07Z</time>
      </trkpt>
      <trkpt lat="43.46233" lon="-0.37072">
        <ele>152.3</ele>
        <time>2026-08-31T09:47:07Z</time>
      </trkpt>
      <trkpt lat="43.46234" lon="-0.37072">
        <ele>152.3</ele>
        <time>2026-08-31T09:47:08Z</time>
      </trkpt>
      <trkpt lat="43.46234" lon="-0.37072">
        <ele>152.3</ele>
        <time>2026-08-31T09:47:08Z</time>
      </trkpt>
      <trkpt lat="43.46235" lon="-0.37072">
        <ele>152.3</ele>
        <time>2026-08-31T09:47:09Z</time>
      </trkpt>
      <trkpt lat="43.46236" lon="-0.37071">
        <ele>152.3</ele>
        <time>2026-08-31T09:47:10Z</time>
      </trkpt>
      <trkpt lat="43.46236" lon="-0.37071">
        <ele>151.3</ele>
        <time>2026-08-31T09:47:10Z</time>
      </trkpt>
      <trkpt lat="43.46237" lon="-0.37071">
        <ele>151.3</ele>
        <time>2026-08-31T09:47:11Z</time>
      </trkpt>
      <trkpt lat="43.46238" lon="-0.37071">
        <ele>151.3</ele>
        <time>2026-08-31T09:47:11Z</time>
      </trkpt>
      <trkpt lat="43.46238" lon="-0.37071">
        <ele>151.3</ele>
        <time>2026-08-31T09:47:12Z</time>
      </trkpt>
      <trkpt lat="43.46239" lon="-0.37071">
        <ele>151.3</ele>
        <time>2026-08-31T09:47:12Z</time>
      </trkpt>
      <trkpt lat="43.4624" lon="-0.37071">
        <ele>151.3</ele>
        <time>2026-08-31T09:47:13Z</time>
      </trkpt>
      <trkpt lat="43.4624" lon="-0.37071">
        <ele>151.3</ele>
        <time>2026-08-31T09:47:13Z</time>
      </trkpt>
      <trkpt lat="43.46241" lon="-0.37071">
        <ele>151.3</ele>
        <time>2026-08-31T09:47:14Z</time>
      </trkpt>
      <trkpt lat="43.46242" lon="-0.37071">
        <ele>151.3</ele>
        <time>2026-08-31T09:47:14Z</time>
      </trkpt>
      <trkpt lat="43.46242" lon="-0.37071">
        <ele>151.3</ele>
        <time>2026-08-31T09:47:15Z</time>
      </trkpt>
      <trkpt lat="43.46243" lon="-0.37071">
        <ele>151.3</ele>
        <time>2026-08-31T09:47:15Z</time>
      </trkpt>
      <trkpt lat="43.46243" lon="-0.37071">
        <ele>151.3</ele>
        <time>2026-08-31T09:47:16Z</time>
      </trkpt>
      <trkpt lat="43.46244" lon="-0.3707">
        <ele>151.3</ele>
        <time>2026-08-31T09:47:16Z</time>
      </trkpt>
      <trkpt lat="43.46244" lon="-0.3707">
        <ele>150.3</ele>
        <time>2026-08-31T09:47:17Z</time>
      </trkpt>
      <trkpt lat="43.46245" lon="-0.3707">
        <ele>150.3</ele>
        <time>2026-08-31T09:47:17Z</time>
      </trkpt>
      <trkpt lat="43.46245" lon="-0.3707">
        <ele>150.3</ele>
        <time>2026-08-31T09:47:18Z</time>
      </trkpt>
      <trkpt lat="43.46246" lon="-0.37069">
        <ele>150.3</ele>
        <time>2026-08-31T09:47:18Z</time>
      </trkpt>
      <trkpt lat="43.46247" lon="-0.37069">
        <ele>150.3</ele>
        <time>2026-08-31T09:47:19Z</time>
      </trkpt>
      <trkpt lat="43.46247" lon="-0.37069">
        <ele>150.3</ele>
        <time>2026-08-31T09:47:20Z</time>
      </trkpt>
      <trkpt lat="43.46248" lon="-0.37069">
        <ele>150.3</ele>
        <time>2026-08-31T09:47:20Z</time>
      </trkpt>
      <trkpt lat="43.46249" lon="-0.37069">
        <ele>150.3</ele>
        <time>2026-08-31T09:47:21Z</time>
      </trkpt>
      <trkpt lat="43.46249" lon="-0.37069">
        <ele>150.3</ele>
        <time>2026-08-31T09:47:21Z</time>
      </trkpt>
      <trkpt lat="43.4625" lon="-0.37068">
        <ele>150.3</ele>
        <time>2026-08-31T09:47:22Z</time>
      </trkpt>
      <trkpt lat="43.4625" lon="-0.37068">
        <ele>151.3</ele>
        <time>2026-08-31T09:47:22Z</time>
      </trkpt>
      <trkpt lat="43.46251" lon="-0.37068">
        <ele>150.3</ele>
        <time>2026-08-31T09:47:23Z</time>
      </trkpt>
      <trkpt lat="43.46251" lon="-0.37068">
        <ele>150.3</ele>
        <time>2026-08-31T09:47:23Z</time>
      </trkpt>
      <trkpt lat="43.46252" lon="-0.37068">
        <ele>150.3</ele>
        <time>2026-08-31T09:47:24Z</time>
      </trkpt>
      <trkpt lat="43.46253" lon="-0.37067">
        <ele>150.3</ele>
        <time>2026-08-31T09:47:24Z</time>
      </trkpt>
      <trkpt lat="43.46253" lon="-0.37067">
        <ele>150.3</ele>
        <time>2026-08-31T09:47:25Z</time>
      </trkpt>
      <trkpt lat="43.46254" lon="-0.37067">
        <ele>150.3</ele>
        <time>2026-08-31T09:47:25Z</time>
      </trkpt>
      <trkpt lat="43.46254" lon="-0.37066">
        <ele>151.3</ele>
        <time>2026-08-31T09:47:26Z</time>
      </trkpt>
      <trkpt lat="43.46255" lon="-0.37066">
        <ele>151.3</ele>
        <time>2026-08-31T09:47:26Z</time>
      </trkpt>
      <trkpt lat="43.46255" lon="-0.37066">
        <ele>151.3</ele>
        <time>2026-08-31T09:47:27Z</time>
      </trkpt>
      <trkpt lat="43.46256" lon="-0.37066">
        <ele>151.3</ele>
        <time>2026-08-31T09:47:27Z</time>
      </trkpt>
      <trkpt lat="43.46257" lon="-0.37065">
        <ele>151.3</ele>
        <time>2026-08-31T09:47:28Z</time>
      </trkpt>
      <trkpt lat="43.46257" lon="-0.37065">
        <ele>151.3</ele>
        <time>2026-08-31T09:47:29Z</time>
      </trkpt>
      <trkpt lat="43.46258" lon="-0.37065">
        <ele>151.3</ele>
        <time>2026-08-31T09:47:29Z</time>
      </trkpt>
      <trkpt lat="43.46259" lon="-0.37064">
        <ele>151.3</ele>
        <time>2026-08-31T09:47:30Z</time>
      </trkpt>
      <trkpt lat="43.46259" lon="-0.37064">
        <ele>151.3</ele>
        <time>2026-08-31T09:47:30Z</time>
      </trkpt>
      <trkpt lat="43.4626" lon="-0.37064">
        <ele>151.3</ele>
        <time>2026-08-31T09:47:31Z</time>
      </trkpt>
      <trkpt lat="43.4626" lon="-0.37064">
        <ele>152.3</ele>
        <time>2026-08-31T09:47:31Z</time>
      </trkpt>
      <trkpt lat="43.46261" lon="-0.37064">
        <ele>152.3</ele>
        <time>2026-08-31T09:47:32Z</time>
      </trkpt>
      <trkpt lat="43.46262" lon="-0.37064">
        <ele>152.3</ele>
        <time>2026-08-31T09:47:32Z</time>
      </trkpt>
      <trkpt lat="43.46262" lon="-0.37064">
        <ele>152.3</ele>
        <time>2026-08-31T09:47:33Z</time>
      </trkpt>
      <trkpt lat="43.46263" lon="-0.37063">
        <ele>152.3</ele>
        <time>2026-08-31T09:47:33Z</time>
      </trkpt>
      <trkpt lat="43.46264" lon="-0.37064">
        <ele>153.3</ele>
        <time>2026-08-31T09:47:34Z</time>
      </trkpt>
      <trkpt lat="43.46265" lon="-0.37063">
        <ele>153.3</ele>
        <time>2026-08-31T09:47:34Z</time>
      </trkpt>
      <trkpt lat="43.46265" lon="-0.37064">
        <ele>152.3</ele>
        <time>2026-08-31T09:47:35Z</time>
      </trkpt>
      <trkpt lat="43.46266" lon="-0.37064">
        <ele>152.3</ele>
        <time>2026-08-31T09:47:35Z</time>
      </trkpt>
      <trkpt lat="43.46267" lon="-0.37064">
        <ele>152.3</ele>
        <time>2026-08-31T09:47:36Z</time>
      </trkpt>
      <trkpt lat="43.46267" lon="-0.37063">
        <ele>152.3</ele>
        <time>2026-08-31T09:47:36Z</time>
      </trkpt>
      <trkpt lat="43.46268" lon="-0.37063">
        <ele>152.3</ele>
        <time>2026-08-31T09:47:37Z</time>
      </trkpt>
      <trkpt lat="43.46269" lon="-0.37063">
        <ele>152.3</ele>
        <time>2026-08-31T09:47:37Z</time>
      </trkpt>
      <trkpt lat="43.46269" lon="-0.37063">
        <ele>151.3</ele>
        <time>2026-08-31T09:47:38Z</time>
      </trkpt>
      <trkpt lat="43.4627" lon="-0.37063">
        <ele>151.3</ele>
        <time>2026-08-31T09:47:39Z</time>
      </trkpt>
      <trkpt lat="43.46271" lon="-0.37063">
        <ele>151.3</ele>
        <time>2026-08-31T09:47:39Z</time>
      </trkpt>
      <trkpt lat="43.46272" lon="-0.37063">
        <ele>151.3</ele>
        <time>2026-08-31T09:47:40Z</time>
      </trkpt>
      <trkpt lat="43.46272" lon="-0.37063">
        <ele>151.3</ele>
        <time>2026-08-31T09:47:40Z</time>
      </trkpt>
      <trkpt lat="43.46273" lon="-0.37063">
        <ele>151.3</ele>
        <time>2026-08-31T09:47:41Z</time>
      </trkpt>
      <trkpt lat="43.46274" lon="-0.37063">
        <ele>151.3</ele>
        <time>2026-08-31T09:47:41Z</time>
      </trkpt>
      <trkpt lat="43.46274" lon="-0.37063">
        <ele>151.3</ele>
        <time>2026-08-31T09:47:42Z</time>
      </trkpt>
      <trkpt lat="43.46275" lon="-0.37063">
        <ele>151.3</ele>
        <time>2026-08-31T09:47:42Z</time>
      </trkpt>
      <trkpt lat="43.46276" lon="-0.37063">
        <ele>151.3</ele>
        <time>2026-08-31T09:47:43Z</time>
      </trkpt>
      <trkpt lat="43.46277" lon="-0.37063">
        <ele>151.3</ele>
        <time>2026-08-31T09:47:43Z</time>
      </trkpt>
      <trkpt lat="43.46277" lon="-0.37063">
        <ele>151.3</ele>
        <time>2026-08-31T09:47:44Z</time>
      </trkpt>
      <trkpt lat="43.46278" lon="-0.37062">
        <ele>151.3</ele>
        <time>2026-08-31T09:47:44Z</time>
      </trkpt>
      <trkpt lat="43.46279" lon="-0.37062">
        <ele>151.3</ele>
        <time>2026-08-31T09:47:45Z</time>
      </trkpt>
      <trkpt lat="43.46279" lon="-0.37062">
        <ele>151.3</ele>
        <time>2026-08-31T09:47:45Z</time>
      </trkpt>
      <trkpt lat="43.4628" lon="-0.37062">
        <ele>151.3</ele>
        <time>2026-08-31T09:47:46Z</time>
      </trkpt>
      <trkpt lat="43.46281" lon="-0.37062">
        <ele>151.3</ele>
        <time>2026-08-31T09:47:47Z</time>
      </trkpt>
      <trkpt lat="43.46281" lon="-0.37062">
        <ele>151.3</ele>
        <time>2026-08-31T09:47:47Z</time>
      </trkpt>
      <trkpt lat="43.46282" lon="-0.37061">
        <ele>151.3</ele>
        <time>2026-08-31T09:47:48Z</time>
      </trkpt>
      <trkpt lat="43.46282" lon="-0.37061">
        <ele>151.3</ele>
        <time>2026-08-31T09:47:48Z</time>
      </trkpt>
      <trkpt lat="43.46283" lon="-0.37061">
        <ele>151.3</ele>
        <time>2026-08-31T09:47:49Z</time>
      </trkpt>
      <trkpt lat="43.46284" lon="-0.37061">
        <ele>151.3</ele>
        <time>2026-08-31T09:47:49Z</time>
      </trkpt>
      <trkpt lat="43.46285" lon="-0.37061">
        <ele>151.3</ele>
        <time>2026-08-31T09:47:50Z</time>
      </trkpt>
      <trkpt lat="43.46286" lon="-0.37061">
        <ele>151.3</ele>
        <time>2026-08-31T09:47:50Z</time>
      </trkpt>
      <trkpt lat="43.46286" lon="-0.37061">
        <ele>151.3</ele>
        <time>2026-08-31T09:47:51Z</time>
      </trkpt>
      <trkpt lat="43.46287" lon="-0.37061">
        <ele>151.3</ele>
        <time>2026-08-31T09:47:51Z</time>
      </trkpt>
      <trkpt lat="43.46288" lon="-0.37061">
        <ele>151.3</ele>
        <time>2026-08-31T09:47:52Z</time>
      </trkpt>
      <trkpt lat="43.46289" lon="-0.3706">
        <ele>151.3</ele>
        <time>2026-08-31T09:47:52Z</time>
      </trkpt>
      <trkpt lat="43.46289" lon="-0.3706">
        <ele>150.3</ele>
        <time>2026-08-31T09:47:53Z</time>
      </trkpt>
      <trkpt lat="43.4629" lon="-0.3706">
        <ele>150.3</ele>
        <time>2026-08-31T09:47:53Z</time>
      </trkpt>
      <trkpt lat="43.46291" lon="-0.3706">
        <ele>150.3</ele>
        <time>2026-08-31T09:47:54Z</time>
      </trkpt>
      <trkpt lat="43.46291" lon="-0.3706">
        <ele>150.3</ele>
        <time>2026-08-31T09:47:54Z</time>
      </trkpt>
      <trkpt lat="43.46292" lon="-0.3706">
        <ele>150.3</ele>
        <time>2026-08-31T09:47:55Z</time>
      </trkpt>
      <trkpt lat="43.46293" lon="-0.37059">
        <ele>150.3</ele>
        <time>2026-08-31T09:47:56Z</time>
      </trkpt>
      <trkpt lat="43.46293" lon="-0.37059">
        <ele>150.3</ele>
        <time>2026-08-31T09:47:56Z</time>
      </trkpt>
      <trkpt lat="43.46294" lon="-0.37059">
        <ele>150.3</ele>
        <time>2026-08-31T09:47:57Z</time>
      </trkpt>
      <trkpt lat="43.46295" lon="-0.37059">
        <ele>149.3</ele>
        <time>2026-08-31T09:47:57Z</time>
      </trkpt>
      <trkpt lat="43.46296" lon="-0.37059">
        <ele>149.3</ele>
        <time>2026-08-31T09:47:58Z</time>
      </trkpt>
      <trkpt lat="43.46296" lon="-0.37059">
        <ele>149.3</ele>
        <time>2026-08-31T09:47:58Z</time>
      </trkpt>
      <trkpt lat="43.46297" lon="-0.37059">
        <ele>149.3</ele>
        <time>2026-08-31T09:47:59Z</time>
      </trkpt>
      <trkpt lat="43.46298" lon="-0.37059">
        <ele>149.3</ele>
        <time>2026-08-31T09:47:59Z</time>
      </trkpt>
      <trkpt lat="43.46299" lon="-0.37059">
        <ele>149.3</ele>
        <time>2026-08-31T09:48:00Z</time>
      </trkpt>
      <trkpt lat="43.46299" lon="-0.37059">
        <ele>149.3</ele>
        <time>2026-08-31T09:48:00Z</time>
      </trkpt>
      <trkpt lat="43.463" lon="-0.37059">
        <ele>149.3</ele>
        <time>2026-08-31T09:48:01Z</time>
      </trkpt>
      <trkpt lat="43.46301" lon="-0.37059">
        <ele>149.3</ele>
        <time>2026-08-31T09:48:01Z</time>
      </trkpt>
      <trkpt lat="43.46301" lon="-0.37059">
        <ele>149.3</ele>
        <time>2026-08-31T09:48:02Z</time>
      </trkpt>
      <trkpt lat="43.46302" lon="-0.37059">
        <ele>149.3</ele>
        <time>2026-08-31T09:48:02Z</time>
      </trkpt>
      <trkpt lat="43.46303" lon="-0.37059">
        <ele>150.3</ele>
        <time>2026-08-31T09:48:03Z</time>
      </trkpt>
      <trkpt lat="43.46304" lon="-0.37059">
        <ele>150.3</ele>
        <time>2026-08-31T09:48:04Z</time>
      </trkpt>
      <trkpt lat="43.46304" lon="-0.37059">
        <ele>150.3</ele>
        <time>2026-08-31T09:48:04Z</time>
      </trkpt>
      <trkpt lat="43.46305" lon="-0.37058">
        <ele>150.3</ele>
        <time>2026-08-31T09:48:05Z</time>
      </trkpt>
      <trkpt lat="43.46306" lon="-0.37058">
        <ele>150.3</ele>
        <time>2026-08-31T09:48:05Z</time>
      </trkpt>
      <trkpt lat="43.46306" lon="-0.37058">
        <ele>150.3</ele>
        <time>2026-08-31T09:48:06Z</time>
      </trkpt>
      <trkpt lat="43.46307" lon="-0.37058">
        <ele>151.3</ele>
        <time>2026-08-31T09:48:06Z</time>
      </trkpt>
      <trkpt lat="43.46308" lon="-0.37058">
        <ele>150.3</ele>
        <time>2026-08-31T09:48:07Z</time>
      </trkpt>
      <trkpt lat="43.46308" lon="-0.37058">
        <ele>150.3</ele>
        <time>2026-08-31T09:48:07Z</time>
      </trkpt>
      <trkpt lat="43.46309" lon="-0.37058">
        <ele>150.3</ele>
        <time>2026-08-31T09:48:08Z</time>
      </trkpt>
      <trkpt lat="43.4631" lon="-0.37058">
        <ele>150.3</ele>
        <time>2026-08-31T09:48:08Z</time>
      </trkpt>
      <trkpt lat="43.46311" lon="-0.37058">
        <ele>150.3</ele>
        <time>2026-08-31T09:48:09Z</time>
      </trkpt>
      <trkpt lat="43.46311" lon="-0.37057">
        <ele>150.3</ele>
        <time>2026-08-31T09:48:09Z</time>
      </trkpt>
      <trkpt lat="43.46312" lon="-0.37057">
        <ele>150.3</ele>
        <time>2026-08-31T09:48:10Z</time>
      </trkpt>
      <trkpt lat="43.46313" lon="-0.37057">
        <ele>150.3</ele>
        <time>2026-08-31T09:48:10Z</time>
      </trkpt>
      <trkpt lat="43.46313" lon="-0.37057">
        <ele>150.3</ele>
        <time>2026-08-31T09:48:11Z</time>
      </trkpt>
      <trkpt lat="43.46314" lon="-0.37057">
        <ele>150.3</ele>
        <time>2026-08-31T09:48:11Z</time>
      </trkpt>
      <trkpt lat="43.46315" lon="-0.37057">
        <ele>150.3</ele>
        <time>2026-08-31T09:48:12Z</time>
      </trkpt>
      <trkpt lat="43.46315" lon="-0.37057">
        <ele>150.3</ele>
        <time>2026-08-31T09:48:13Z</time>
      </trkpt>
      <trkpt lat="43.46316" lon="-0.37057">
        <ele>150.3</ele>
        <time>2026-08-31T09:48:13Z</time>
      </trkpt>
      <trkpt lat="43.46317" lon="-0.37056">
        <ele>150.3</ele>
        <time>2026-08-31T09:48:14Z</time>
      </trkpt>
      <trkpt lat="43.46318" lon="-0.37056">
        <ele>150.3</ele>
        <time>2026-08-31T09:48:14Z</time>
      </trkpt>
      <trkpt lat="43.46318" lon="-0.37056">
        <ele>150.3</ele>
        <time>2026-08-31T09:48:15Z</time>
      </trkpt>
      <trkpt lat="43.46319" lon="-0.37056">
        <ele>150.3</ele>
        <time>2026-08-31T09:48:15Z</time>
      </trkpt>
      <trkpt lat="43.4632" lon="-0.37056">
        <ele>150.3</ele>
        <time>2026-08-31T09:48:16Z</time>
      </trkpt>
      <trkpt lat="43.4632" lon="-0.37056">
        <ele>150.3</ele>
        <time>2026-08-31T09:48:16Z</time>
      </trkpt>
      <trkpt lat="43.46321" lon="-0.37056">
        <ele>150.3</ele>
        <time>2026-08-31T09:48:17Z</time>
      </trkpt>
      <trkpt lat="43.46322" lon="-0.37055">
        <ele>150.3</ele>
        <time>2026-08-31T09:48:17Z</time>
      </trkpt>
      <trkpt lat="43.46323" lon="-0.37055">
        <ele>150.3</ele>
        <time>2026-08-31T09:48:18Z</time>
      </trkpt>
      <trkpt lat="43.46323" lon="-0.37055">
        <ele>150.3</ele>
        <time>2026-08-31T09:48:18Z</time>
      </trkpt>
      <trkpt lat="43.46324" lon="-0.37055">
        <ele>151.3</ele>
        <time>2026-08-31T09:48:19Z</time>
      </trkpt>
      <trkpt lat="43.46325" lon="-0.37055">
        <ele>151.3</ele>
        <time>2026-08-31T09:48:19Z</time>
      </trkpt>
      <trkpt lat="43.46326" lon="-0.37056">
        <ele>151.3</ele>
        <time>2026-08-31T09:48:20Z</time>
      </trkpt>
      <trkpt lat="43.46326" lon="-0.37056">
        <ele>151.3</ele>
        <time>2026-08-31T09:48:20Z</time>
      </trkpt>
      <trkpt lat="43.46327" lon="-0.37056">
        <ele>151.3</ele>
        <time>2026-08-31T09:48:21Z</time>
      </trkpt>
      <trkpt lat="43.46328" lon="-0.37056">
        <ele>151.3</ele>
        <time>2026-08-31T09:48:22Z</time>
      </trkpt>
      <trkpt lat="43.46328" lon="-0.37056">
        <ele>151.3</ele>
        <time>2026-08-31T09:48:22Z</time>
      </trkpt>
      <trkpt lat="43.46329" lon="-0.37056">
        <ele>151.3</ele>
        <time>2026-08-31T09:48:23Z</time>
      </trkpt>
      <trkpt lat="43.4633" lon="-0.37056">
        <ele>151.3</ele>
        <time>2026-08-31T09:48:23Z</time>
      </trkpt>
      <trkpt lat="43.46331" lon="-0.37056">
        <ele>151.3</ele>
        <time>2026-08-31T09:48:24Z</time>
      </trkpt>
      <trkpt lat="43.46331" lon="-0.37056">
        <ele>151.3</ele>
        <time>2026-08-31T09:48:24Z</time>
      </trkpt>
      <trkpt lat="43.46332" lon="-0.37057">
        <ele>151.3</ele>
        <time>2026-08-31T09:48:25Z</time>
      </trkpt>
      <trkpt lat="43.46333" lon="-0.37057">
        <ele>152.3</ele>
        <time>2026-08-31T09:48:25Z</time>
      </trkpt>
      <trkpt lat="43.46333" lon="-0.37057">
        <ele>152.3</ele>
        <time>2026-08-31T09:48:26Z</time>
      </trkpt>
      <trkpt lat="43.46334" lon="-0.37057">
        <ele>152.3</ele>
        <time>2026-08-31T09:48:26Z</time>
      </trkpt>
      <trkpt lat="43.46335" lon="-0.37057">
        <ele>152.3</ele>
        <time>2026-08-31T09:48:27Z</time>
      </trkpt>
      <trkpt lat="43.46335" lon="-0.37057">
        <ele>152.3</ele>
        <time>2026-08-31T09:48:27Z</time>
      </trkpt>
      <trkpt lat="43.46336" lon="-0.37057">
        <ele>152.3</ele>
        <time>2026-08-31T09:48:28Z</time>
      </trkpt>
      <trkpt lat="43.46337" lon="-0.37057">
        <ele>152.3</ele>
        <time>2026-08-31T09:48:28Z</time>
      </trkpt>
      <trkpt lat="43.46338" lon="-0.37057">
        <ele>152.3</ele>
        <time>2026-08-31T09:48:29Z</time>
      </trkpt>
      <trkpt lat="43.46338" lon="-0.37057">
        <ele>152.3</ele>
        <time>2026-08-31T09:48:30Z</time>
      </trkpt>
      <trkpt lat="43.46339" lon="-0.37057">
        <ele>152.3</ele>
        <time>2026-08-31T09:48:30Z</time>
      </trkpt>
      <trkpt lat="43.4634" lon="-0.37057">
        <ele>152.3</ele>
        <time>2026-08-31T09:48:31Z</time>
      </trkpt>
      <trkpt lat="43.4634" lon="-0.37057">
        <ele>152.3</ele>
        <time>2026-08-31T09:48:31Z</time>
      </trkpt>
      <trkpt lat="43.46341" lon="-0.37057">
        <ele>152.3</ele>
        <time>2026-08-31T09:48:32Z</time>
      </trkpt>
      <trkpt lat="43.46342" lon="-0.37057">
        <ele>152.3</ele>
        <time>2026-08-31T09:48:32Z</time>
      </trkpt>
      <trkpt lat="43.46343" lon="-0.37057">
        <ele>152.3</ele>
        <time>2026-08-31T09:48:33Z</time>
      </trkpt>
      <trkpt lat="43.46343" lon="-0.37058">
        <ele>152.3</ele>
        <time>2026-08-31T09:48:33Z</time>
      </trkpt>
      <trkpt lat="43.46344" lon="-0.37058">
        <ele>151.3</ele>
        <time>2026-08-31T09:48:34Z</time>
      </trkpt>
      <trkpt lat="43.46344" lon="-0.37058">
        <ele>151.3</ele>
        <time>2026-08-31T09:48:34Z</time>
      </trkpt>
      <trkpt lat="43.46345" lon="-0.37058">
        <ele>151.3</ele>
        <time>2026-08-31T09:48:35Z</time>
      </trkpt>
      <trkpt lat="43.46346" lon="-0.37058">
        <ele>151.3</ele>
        <time>2026-08-31T09:48:35Z</time>
      </trkpt>
      <trkpt lat="43.46347" lon="-0.37058">
        <ele>151.3</ele>
        <time>2026-08-31T09:48:36Z</time>
      </trkpt>
      <trkpt lat="43.46347" lon="-0.37059">
        <ele>151.3</ele>
        <time>2026-08-31T09:48:36Z</time>
      </trkpt>
      <trkpt lat="43.46348" lon="-0.37059">
        <ele>151.3</ele>
        <time>2026-08-31T09:48:37Z</time>
      </trkpt>
      <trkpt lat="43.46349" lon="-0.37059">
        <ele>151.3</ele>
        <time>2026-08-31T09:48:37Z</time>
      </trkpt>
      <trkpt lat="43.46349" lon="-0.3706">
        <ele>151.3</ele>
        <time>2026-08-31T09:48:38Z</time>
      </trkpt>
      <trkpt lat="43.4635" lon="-0.3706">
        <ele>151.3</ele>
        <time>2026-08-31T09:48:39Z</time>
      </trkpt>
      <trkpt lat="43.46351" lon="-0.3706">
        <ele>151.3</ele>
        <time>2026-08-31T09:48:39Z</time>
      </trkpt>
      <trkpt lat="43.46351" lon="-0.3706">
        <ele>151.3</ele>
        <time>2026-08-31T09:48:40Z</time>
      </trkpt>
      <trkpt lat="43.46352" lon="-0.37061">
        <ele>151.3</ele>
        <time>2026-08-31T09:48:40Z</time>
      </trkpt>
      <trkpt lat="43.46353" lon="-0.37061">
        <ele>152.3</ele>
        <time>2026-08-31T09:48:41Z</time>
      </trkpt>
      <trkpt lat="43.46353" lon="-0.37061">
        <ele>152.3</ele>
        <time>2026-08-31T09:48:41Z</time>
      </trkpt>
      <trkpt lat="43.46354" lon="-0.37062">
        <ele>152.3</ele>
        <time>2026-08-31T09:48:42Z</time>
      </trkpt>
      <trkpt lat="43.46355" lon="-0.37062">
        <ele>152.3</ele>
        <time>2026-08-31T09:48:42Z</time>
      </trkpt>
      <trkpt lat="43.46355" lon="-0.37062">
        <ele>152.3</ele>
        <time>2026-08-31T09:48:43Z</time>
      </trkpt>
      <trkpt lat="43.46356" lon="-0.37063">
        <ele>152.3</ele>
        <time>2026-08-31T09:48:43Z</time>
      </trkpt>
      <trkpt lat="43.46357" lon="-0.37063">
        <ele>152.3</ele>
        <time>2026-08-31T09:48:44Z</time>
      </trkpt>
      <trkpt lat="43.46357" lon="-0.37064">
        <ele>152.3</ele>
        <time>2026-08-31T09:48:45Z</time>
      </trkpt>
      <trkpt lat="43.46358" lon="-0.37064">
        <ele>151.3</ele>
        <time>2026-08-31T09:48:45Z</time>
      </trkpt>
      <trkpt lat="43.46359" lon="-0.37064">
        <ele>151.3</ele>
        <time>2026-08-31T09:48:46Z</time>
      </trkpt>
      <trkpt lat="43.46359" lon="-0.37065">
        <ele>152.3</ele>
        <time>2026-08-31T09:48:46Z</time>
      </trkpt>
      <trkpt lat="43.4636" lon="-0.37066">
        <ele>152.3</ele>
        <time>2026-08-31T09:48:47Z</time>
      </trkpt>
      <trkpt lat="43.4636" lon="-0.37066">
        <ele>152.3</ele>
        <time>2026-08-31T09:48:47Z</time>
      </trkpt>
      <trkpt lat="43.46361" lon="-0.37067">
        <ele>152.3</ele>
        <time>2026-08-31T09:48:48Z</time>
      </trkpt>
      <trkpt lat="43.46362" lon="-0.37067">
        <ele>152.3</ele>
        <time>2026-08-31T09:48:48Z</time>
      </trkpt>
      <trkpt lat="43.46362" lon="-0.37067">
        <ele>152.3</ele>
        <time>2026-08-31T09:48:49Z</time>
      </trkpt>
      <trkpt lat="43.46363" lon="-0.37068">
        <ele>152.3</ele>
        <time>2026-08-31T09:48:49Z</time>
      </trkpt>
      <trkpt lat="43.46363" lon="-0.37068">
        <ele>152.3</ele>
        <time>2026-08-31T09:48:50Z</time>
      </trkpt>
      <trkpt lat="43.46364" lon="-0.37068">
        <ele>152.3</ele>
        <time>2026-08-31T09:48:50Z</time>
      </trkpt>
      <trkpt lat="43.46365" lon="-0.37068">
        <ele>152.3</ele>
        <time>2026-08-31T09:48:51Z</time>
      </trkpt>
      <trkpt lat="43.46366" lon="-0.37069">
        <ele>152.3</ele>
        <time>2026-08-31T09:48:52Z</time>
      </trkpt>
      <trkpt lat="43.46366" lon="-0.37069">
        <ele>153.3</ele>
        <time>2026-08-31T09:48:52Z</time>
      </trkpt>
      <trkpt lat="43.46367" lon="-0.37069">
        <ele>153.3</ele>
        <time>2026-08-31T09:48:53Z</time>
      </trkpt>
      <trkpt lat="43.46368" lon="-0.3707">
        <ele>153.3</ele>
        <time>2026-08-31T09:48:53Z</time>
      </trkpt>
      <trkpt lat="43.46368" lon="-0.3707">
        <ele>153.3</ele>
        <time>2026-08-31T09:48:54Z</time>
      </trkpt>
      <trkpt lat="43.46369" lon="-0.3707">
        <ele>153.3</ele>
        <time>2026-08-31T09:48:54Z</time>
      </trkpt>
      <trkpt lat="43.46369" lon="-0.3707">
        <ele>153.3</ele>
        <time>2026-08-31T09:48:55Z</time>
      </trkpt>
      <trkpt lat="43.4637" lon="-0.3707">
        <ele>153.3</ele>
        <time>2026-08-31T09:48:55Z</time>
      </trkpt>
      <trkpt lat="43.46371" lon="-0.37071">
        <ele>153.3</ele>
        <time>2026-08-31T09:48:56Z</time>
      </trkpt>
      <trkpt lat="43.46372" lon="-0.37071">
        <ele>153.3</ele>
        <time>2026-08-31T09:48:56Z</time>
      </trkpt>
      <trkpt lat="43.46372" lon="-0.37071">
        <ele>153.3</ele>
        <time>2026-08-31T09:48:57Z</time>
      </trkpt>
      <trkpt lat="43.46373" lon="-0.37072">
        <ele>153.3</ele>
        <time>2026-08-31T09:48:57Z</time>
      </trkpt>
      <trkpt lat="43.46374" lon="-0.37072">
        <ele>153.3</ele>
        <time>2026-08-31T09:48:58Z</time>
      </trkpt>
      <trkpt lat="43.46374" lon="-0.37072">
        <ele>153.3</ele>
        <time>2026-08-31T09:48:58Z</time>
      </trkpt>
      <trkpt lat="43.46375" lon="-0.37072">
        <ele>153.3</ele>
        <time>2026-08-31T09:48:59Z</time>
      </trkpt>
      <trkpt lat="43.46376" lon="-0.37073">
        <ele>153.3</ele>
        <time>2026-08-31T09:49:00Z</time>
      </trkpt>
      <trkpt lat="43.46376" lon="-0.37073">
        <ele>154.3</ele>
        <time>2026-08-31T09:49:00Z</time>
      </trkpt>
      <trkpt lat="43.46377" lon="-0.37073">
        <ele>154.3</ele>
        <time>2026-08-31T09:49:01Z</time>
      </trkpt>
      <trkpt lat="43.46378" lon="-0.37073">
        <ele>154.3</ele>
        <time>2026-08-31T09:49:01Z</time>
      </trkpt>
      <trkpt lat="43.46379" lon="-0.37074">
        <ele>154.3</ele>
        <time>2026-08-31T09:49:02Z</time>
      </trkpt>
      <trkpt lat="43.4638" lon="-0.37074">
        <ele>154.3</ele>
        <time>2026-08-31T09:49:02Z</time>
      </trkpt>
      <trkpt lat="43.4638" lon="-0.37074">
        <ele>154.3</ele>
        <time>2026-08-31T09:49:03Z</time>
      </trkpt>
      <trkpt lat="43.46381" lon="-0.37074">
        <ele>154.3</ele>
        <time>2026-08-31T09:49:03Z</time>
      </trkpt>
      <trkpt lat="43.46382" lon="-0.37074">
        <ele>155.3</ele>
        <time>2026-08-31T09:49:04Z</time>
      </trkpt>
      <trkpt lat="43.46382" lon="-0.37074">
        <ele>155.3</ele>
        <time>2026-08-31T09:49:04Z</time>
      </trkpt>
      <trkpt lat="43.46383" lon="-0.37074">
        <ele>155.3</ele>
        <time>2026-08-31T09:49:05Z</time>
      </trkpt>
      <trkpt lat="43.46384" lon="-0.37074">
        <ele>155.3</ele>
        <time>2026-08-31T09:49:05Z</time>
      </trkpt>
      <trkpt lat="43.46384" lon="-0.37074">
        <ele>155.3</ele>
        <time>2026-08-31T09:49:06Z</time>
      </trkpt>
      <trkpt lat="43.46385" lon="-0.37074">
        <ele>155.3</ele>
        <time>2026-08-31T09:49:06Z</time>
      </trkpt>
      <trkpt lat="43.46386" lon="-0.37074">
        <ele>155.3</ele>
        <time>2026-08-31T09:49:07Z</time>
      </trkpt>
      <trkpt lat="43.46386" lon="-0.37074">
        <ele>155.3</ele>
        <time>2026-08-31T09:49:08Z</time>
      </trkpt>
      <trkpt lat="43.46387" lon="-0.37074">
        <ele>155.3</ele>
        <time>2026-08-31T09:49:08Z</time>
      </trkpt>
      <trkpt lat="43.46388" lon="-0.37074">
        <ele>155.3</ele>
        <time>2026-08-31T09:49:09Z</time>
      </trkpt>
      <trkpt lat="43.46388" lon="-0.37074">
        <ele>155.3</ele>
        <time>2026-08-31T09:49:09Z</time>
      </trkpt>
      <trkpt lat="43.46389" lon="-0.37074">
        <ele>154.3</ele>
        <time>2026-08-31T09:49:10Z</time>
      </trkpt>
      <trkpt lat="43.4639" lon="-0.37074">
        <ele>154.3</ele>
        <time>2026-08-31T09:49:10Z</time>
      </trkpt>
      <trkpt lat="43.4639" lon="-0.37074">
        <ele>154.3</ele>
        <time>2026-08-31T09:49:11Z</time>
      </trkpt>
      <trkpt lat="43.46391" lon="-0.37074">
        <ele>154.3</ele>
        <time>2026-08-31T09:49:11Z</time>
      </trkpt>
      <trkpt lat="43.46392" lon="-0.37074">
        <ele>154.3</ele>
        <time>2026-08-31T09:49:12Z</time>
      </trkpt>
      <trkpt lat="43.46393" lon="-0.37074">
        <ele>154.3</ele>
        <time>2026-08-31T09:49:12Z</time>
      </trkpt>
      <trkpt lat="43.46394" lon="-0.37075">
        <ele>155.3</ele>
        <time>2026-08-31T09:49:14Z</time>
      </trkpt>
      <trkpt lat="43.46394" lon="-0.37075">
        <ele>155.3</ele>
        <time>2026-08-31T09:49:14Z</time>
      </trkpt>
      <trkpt lat="43.46394" lon="-0.37075">
        <ele>155.3</ele>
        <time>2026-08-31T09:49:15Z</time>
      </trkpt>
      <trkpt lat="43.46395" lon="-0.37075">
        <ele>154.3</ele>
        <time>2026-08-31T09:49:16Z</time>
      </trkpt>
      <trkpt lat="43.46396" lon="-0.37075">
        <ele>154.3</ele>
        <time>2026-08-31T09:49:16Z</time>
      </trkpt>
      <trkpt lat="43.46396" lon="-0.37076">
        <ele>154.3</ele>
        <time>2026-08-31T09:49:17Z</time>
      </trkpt>
      <trkpt lat="43.46397" lon="-0.37076">
        <ele>154.3</ele>
        <time>2026-08-31T09:49:18Z</time>
      </trkpt>
      <trkpt lat="43.46397" lon="-0.37077">
        <ele>154.3</ele>
        <time>2026-08-31T09:49:18Z</time>
      </trkpt>
      <trkpt lat="43.46397" lon="-0.37077">
        <ele>154.3</ele>
        <time>2026-08-31T09:49:20Z</time>
      </trkpt>
      <trkpt lat="43.46397" lon="-0.37077">
        <ele>154.3</ele>
        <time>2026-08-31T09:49:21Z</time>
      </trkpt>
      <trkpt lat="43.46397" lon="-0.37077">
        <ele>154.3</ele>
        <time>2026-08-31T09:49:22Z</time>
      </trkpt>
      <trkpt lat="43.46397" lon="-0.37077">
        <ele>154.3</ele>
        <time>2026-08-31T09:49:22Z</time>
      </trkpt>
      <trkpt lat="43.46397" lon="-0.37077">
        <ele>155.3</ele>
        <time>2026-08-31T09:49:23Z</time>
      </trkpt>
      <trkpt lat="43.46397" lon="-0.37076">
        <ele>155.3</ele>
        <time>2026-08-31T09:49:23Z</time>
      </trkpt>
      <trkpt lat="43.46397" lon="-0.37076">
        <ele>155.3</ele>
        <time>2026-08-31T09:49:24Z</time>
      </trkpt>
      <trkpt lat="43.46397" lon="-0.37076">
        <ele>155.3</ele>
        <time>2026-08-31T09:49:25Z</time>
      </trkpt>
      <trkpt lat="43.46397" lon="-0.37076">
        <ele>155.3</ele>
        <time>2026-08-31T09:49:25Z</time>
      </trkpt>
      <trkpt lat="43.46397" lon="-0.37076">
        <ele>155.3</ele>
        <time>2026-08-31T09:49:26Z</time>
      </trkpt>
      <trkpt lat="43.46397" lon="-0.37076">
        <ele>156.3</ele>
        <time>2026-08-31T09:49:26Z</time>
      </trkpt>
      <trkpt lat="43.46398" lon="-0.37075">
        <ele>156.3</ele>
        <time>2026-08-31T09:49:27Z</time>
      </trkpt>
      <trkpt lat="43.46398" lon="-0.37074">
        <ele>156.3</ele>
        <time>2026-08-31T09:49:27Z</time>
      </trkpt>
      <trkpt lat="43.46398" lon="-0.37072">
        <ele>156.3</ele>
        <time>2026-08-31T09:49:28Z</time>
      </trkpt>
      <trkpt lat="43.46399" lon="-0.37071">
        <ele>156.3</ele>
        <time>2026-08-31T09:49:28Z</time>
      </trkpt>
      <trkpt lat="43.46399" lon="-0.37069">
        <ele>156.3</ele>
        <time>2026-08-31T09:49:29Z</time>
      </trkpt>
      <trkpt lat="43.46399" lon="-0.37068">
        <ele>156.3</ele>
        <time>2026-08-31T09:49:29Z</time>
      </trkpt>
      <trkpt lat="43.464" lon="-0.37067">
        <ele>156.3</ele>
        <time>2026-08-31T09:49:30Z</time>
      </trkpt>
      <trkpt lat="43.464" lon="-0.37066">
        <ele>156.3</ele>
        <time>2026-08-31T09:49:30Z</time>
      </trkpt>
      <trkpt lat="43.464" lon="-0.37065">
        <ele>156.3</ele>
        <time>2026-08-31T09:49:31Z</time>
      </trkpt>
      <trkpt lat="43.46401" lon="-0.37064">
        <ele>156.3</ele>
        <time>2026-08-31T09:49:31Z</time>
      </trkpt>
      <trkpt lat="43.46401" lon="-0.37063">
        <ele>156.3</ele>
        <time>2026-08-31T09:49:32Z</time>
      </trkpt>
      <trkpt lat="43.46401" lon="-0.37062">
        <ele>156.3</ele>
        <time>2026-08-31T09:49:32Z</time>
      </trkpt>
      <trkpt lat="43.46402" lon="-0.37061">
        <ele>156.3</ele>
        <time>2026-08-31T09:49:33Z</time>
      </trkpt>
      <trkpt lat="43.46402" lon="-0.3706">
        <ele>156.3</ele>
        <time>2026-08-31T09:49:34Z</time>
      </trkpt>
      <trkpt lat="43.46402" lon="-0.37059">
        <ele>156.3</ele>
        <time>2026-08-31T09:49:34Z</time>
      </trkpt>
      <trkpt lat="43.46402" lon="-0.37058">
        <ele>156.3</ele>
        <time>2026-08-31T09:49:35Z</time>
      </trkpt>
      <trkpt lat="43.46403" lon="-0.37057">
        <ele>156.3</ele>
        <time>2026-08-31T09:49:35Z</time>
      </trkpt>
      <trkpt lat="43.46403" lon="-0.37056">
        <ele>156.3</ele>
        <time>2026-08-31T09:49:36Z</time>
      </trkpt>
      <trkpt lat="43.46403" lon="-0.37055">
        <ele>156.3</ele>
        <time>2026-08-31T09:49:36Z</time>
      </trkpt>
      <trkpt lat="43.46403" lon="-0.37054">
        <ele>156.3</ele>
        <time>2026-08-31T09:49:37Z</time>
      </trkpt>
      <trkpt lat="43.46403" lon="-0.37053">
        <ele>156.3</ele>
        <time>2026-08-31T09:49:37Z</time>
      </trkpt>
      <trkpt lat="43.46403" lon="-0.37053">
        <ele>156.3</ele>
        <time>2026-08-31T09:49:38Z</time>
      </trkpt>
      <trkpt lat="43.46403" lon="-0.37052">
        <ele>156.3</ele>
        <time>2026-08-31T09:49:38Z</time>
      </trkpt>
      <trkpt lat="43.46403" lon="-0.37051">
        <ele>156.3</ele>
        <time>2026-08-31T09:49:39Z</time>
      </trkpt>
      <trkpt lat="43.46403" lon="-0.37051">
        <ele>156.3</ele>
        <time>2026-08-31T09:49:39Z</time>
      </trkpt>
      <trkpt lat="43.46403" lon="-0.3705">
        <ele>157.3</ele>
        <time>2026-08-31T09:49:40Z</time>
      </trkpt>
      <trkpt lat="43.46403" lon="-0.37049">
        <ele>157.3</ele>
        <time>2026-08-31T09:49:40Z</time>
      </trkpt>
      <trkpt lat="43.46403" lon="-0.37048">
        <ele>157.3</ele>
        <time>2026-08-31T09:49:41Z</time>
      </trkpt>
      <trkpt lat="43.46403" lon="-0.37047">
        <ele>157.3</ele>
        <time>2026-08-31T09:49:42Z</time>
      </trkpt>
      <trkpt lat="43.46403" lon="-0.37046">
        <ele>157.3</ele>
        <time>2026-08-31T09:49:42Z</time>
      </trkpt>
      <trkpt lat="43.46403" lon="-0.37045">
        <ele>157.3</ele>
        <time>2026-08-31T09:49:43Z</time>
      </trkpt>
      <trkpt lat="43.46403" lon="-0.37044">
        <ele>157.3</ele>
        <time>2026-08-31T09:49:43Z</time>
      </trkpt>
      <trkpt lat="43.46403" lon="-0.37043">
        <ele>156.3</ele>
        <time>2026-08-31T09:49:44Z</time>
      </trkpt>
      <trkpt lat="43.46403" lon="-0.37042">
        <ele>156.3</ele>
        <time>2026-08-31T09:49:44Z</time>
      </trkpt>
      <trkpt lat="43.46403" lon="-0.37042">
        <ele>156.3</ele>
        <time>2026-08-31T09:49:45Z</time>
      </trkpt>
      <trkpt lat="43.46403" lon="-0.37041">
        <ele>156.3</ele>
        <time>2026-08-31T09:49:46Z</time>
      </trkpt>
      <trkpt lat="43.46404" lon="-0.3704">
        <ele>157.3</ele>
        <time>2026-08-31T09:49:46Z</time>
      </trkpt>
      <trkpt lat="43.46404" lon="-0.3704">
        <ele>157.3</ele>
        <time>2026-08-31T09:49:47Z</time>
      </trkpt>
      <trkpt lat="43.46405" lon="-0.37039">
        <ele>156.3</ele>
        <time>2026-08-31T09:49:47Z</time>
      </trkpt>
      <trkpt lat="43.46405" lon="-0.37038">
        <ele>156.3</ele>
        <time>2026-08-31T09:49:48Z</time>
      </trkpt>
      <trkpt lat="43.46405" lon="-0.37037">
        <ele>156.3</ele>
        <time>2026-08-31T09:49:48Z</time>
      </trkpt>
      <trkpt lat="43.46406" lon="-0.37037">
        <ele>156.3</ele>
        <time>2026-08-31T09:49:49Z</time>
      </trkpt>
      <trkpt lat="43.46406" lon="-0.37036">
        <ele>156.3</ele>
        <time>2026-08-31T09:49:49Z</time>
      </trkpt>
      <trkpt lat="43.46406" lon="-0.37036">
        <ele>156.3</ele>
        <time>2026-08-31T09:49:50Z</time>
      </trkpt>
      <trkpt lat="43.46407" lon="-0.37035">
        <ele>156.3</ele>
        <time>2026-08-31T09:49:50Z</time>
      </trkpt>
      <trkpt lat="43.46407" lon="-0.37034">
        <ele>156.3</ele>
        <time>2026-08-31T09:49:51Z</time>
      </trkpt>
      <trkpt lat="43.46407" lon="-0.37033">
        <ele>156.3</ele>
        <time>2026-08-31T09:49:51Z</time>
      </trkpt>
      <trkpt lat="43.46407" lon="-0.37032">
        <ele>157.3</ele>
        <time>2026-08-31T09:49:52Z</time>
      </trkpt>
      <trkpt lat="43.46408" lon="-0.37032">
        <ele>157.3</ele>
        <time>2026-08-31T09:49:52Z</time>
      </trkpt>
      <trkpt lat="43.46408" lon="-0.37031">
        <ele>157.3</ele>
        <time>2026-08-31T09:49:53Z</time>
      </trkpt>
      <trkpt lat="43.46409" lon="-0.3703">
        <ele>157.3</ele>
        <time>2026-08-31T09:49:53Z</time>
      </trkpt>
      <trkpt lat="43.46409" lon="-0.3703">
        <ele>157.3</ele>
        <time>2026-08-31T09:49:54Z</time>
      </trkpt>
      <trkpt lat="43.46409" lon="-0.37029">
        <ele>157.3</ele>
        <time>2026-08-31T09:49:54Z</time>
      </trkpt>
      <trkpt lat="43.4641" lon="-0.37028">
        <ele>157.3</ele>
        <time>2026-08-31T09:49:55Z</time>
      </trkpt>
      <trkpt lat="43.4641" lon="-0.37027">
        <ele>157.3</ele>
        <time>2026-08-31T09:49:56Z</time>
      </trkpt>
      <trkpt lat="43.4641" lon="-0.37026">
        <ele>156.3</ele>
        <time>2026-08-31T09:49:56Z</time>
      </trkpt>
      <trkpt lat="43.4641" lon="-0.37025">
        <ele>156.3</ele>
        <time>2026-08-31T09:49:57Z</time>
      </trkpt>
      <trkpt lat="43.46411" lon="-0.37024">
        <ele>156.3</ele>
        <time>2026-08-31T09:49:57Z</time>
      </trkpt>
      <trkpt lat="43.46411" lon="-0.37023">
        <ele>156.3</ele>
        <time>2026-08-31T09:49:58Z</time>
      </trkpt>
      <trkpt lat="43.46411" lon="-0.37023">
        <ele>156.3</ele>
        <time>2026-08-31T09:49:58Z</time>
      </trkpt>
      <trkpt lat="43.46411" lon="-0.37022">
        <ele>156.3</ele>
        <time>2026-08-31T09:49:59Z</time>
      </trkpt>
      <trkpt lat="43.46412" lon="-0.37021">
        <ele>156.3</ele>
        <time>2026-08-31T09:49:59Z</time>
      </trkpt>
      <trkpt lat="43.46412" lon="-0.3702">
        <ele>156.3</ele>
        <time>2026-08-31T09:50:00Z</time>
      </trkpt>
      <trkpt lat="43.46412" lon="-0.37019">
        <ele>155.3</ele>
        <time>2026-08-31T09:50:00Z</time>
      </trkpt>
      <trkpt lat="43.46412" lon="-0.37018">
        <ele>155.3</ele>
        <time>2026-08-31T09:50:01Z</time>
      </trkpt>
      <trkpt lat="43.46413" lon="-0.37017">
        <ele>155.3</ele>
        <time>2026-08-31T09:50:01Z</time>
      </trkpt>
      <trkpt lat="43.46413" lon="-0.37017">
        <ele>155.3</ele>
        <time>2026-08-31T09:50:02Z</time>
      </trkpt>
      <trkpt lat="43.46413" lon="-0.37016">
        <ele>155.3</ele>
        <time>2026-08-31T09:50:02Z</time>
      </trkpt>
      <trkpt lat="43.46413" lon="-0.37015">
        <ele>155.3</ele>
        <time>2026-08-31T09:50:03Z</time>
      </trkpt>
      <trkpt lat="43.46414" lon="-0.37014">
        <ele>155.3</ele>
        <time>2026-08-31T09:50:03Z</time>
      </trkpt>
      <trkpt lat="43.46414" lon="-0.37014">
        <ele>154.3</ele>
        <time>2026-08-31T09:50:04Z</time>
      </trkpt>
      <trkpt lat="43.46414" lon="-0.37013">
        <ele>154.3</ele>
        <time>2026-08-31T09:50:04Z</time>
      </trkpt>
      <trkpt lat="43.46414" lon="-0.37012">
        <ele>154.3</ele>
        <time>2026-08-31T09:50:05Z</time>
      </trkpt>
      <trkpt lat="43.46414" lon="-0.37011">
        <ele>154.3</ele>
        <time>2026-08-31T09:50:05Z</time>
      </trkpt>
      <trkpt lat="43.46415" lon="-0.3701">
        <ele>153.3</ele>
        <time>2026-08-31T09:50:06Z</time>
      </trkpt>
      <trkpt lat="43.46415" lon="-0.37009">
        <ele>153.3</ele>
        <time>2026-08-31T09:50:06Z</time>
      </trkpt>
      <trkpt lat="43.46415" lon="-0.37008">
        <ele>153.3</ele>
        <time>2026-08-31T09:50:07Z</time>
      </trkpt>
      <trkpt lat="43.46415" lon="-0.37008">
        <ele>153.3</ele>
        <time>2026-08-31T09:50:07Z</time>
      </trkpt>
      <trkpt lat="43.46415" lon="-0.37007">
        <ele>153.3</ele>
        <time>2026-08-31T09:50:08Z</time>
      </trkpt>
      <trkpt lat="43.46416" lon="-0.37006">
        <ele>153.3</ele>
        <time>2026-08-31T09:50:08Z</time>
      </trkpt>
      <trkpt lat="43.46416" lon="-0.37005">
        <ele>153.3</ele>
        <time>2026-08-31T09:50:09Z</time>
      </trkpt>
      <trkpt lat="43.46416" lon="-0.37004">
        <ele>153.3</ele>
        <time>2026-08-31T09:50:10Z</time>
      </trkpt>
      <trkpt lat="43.46416" lon="-0.37003">
        <ele>153.3</ele>
        <time>2026-08-31T09:50:10Z</time>
      </trkpt>
      <trkpt lat="43.46416" lon="-0.37002">
        <ele>153.3</ele>
        <time>2026-08-31T09:50:11Z</time>
      </trkpt>
      <trkpt lat="43.46416" lon="-0.37002">
        <ele>153.3</ele>
        <time>2026-08-31T09:50:11Z</time>
      </trkpt>
      <trkpt lat="43.46416" lon="-0.37001">
        <ele>153.3</ele>
        <time>2026-08-31T09:50:12Z</time>
      </trkpt>
      <trkpt lat="43.46416" lon="-0.37">
        <ele>153.3</ele>
        <time>2026-08-31T09:50:12Z</time>
      </trkpt>
      <trkpt lat="43.46416" lon="-0.36999">
        <ele>153.3</ele>
        <time>2026-08-31T09:50:13Z</time>
      </trkpt>
      <trkpt lat="43.46416" lon="-0.36998">
        <ele>153.3</ele>
        <time>2026-08-31T09:50:13Z</time>
      </trkpt>
      <trkpt lat="43.46416" lon="-0.36997">
        <ele>153.3</ele>
        <time>2026-08-31T09:50:14Z</time>
      </trkpt>
      <trkpt lat="43.46416" lon="-0.36996">
        <ele>152.3</ele>
        <time>2026-08-31T09:50:14Z</time>
      </trkpt>
      <trkpt lat="43.46416" lon="-0.36995">
        <ele>151.3</ele>
        <time>2026-08-31T09:50:15Z</time>
      </trkpt>
      <trkpt lat="43.46416" lon="-0.36994">
        <ele>151.3</ele>
        <time>2026-08-31T09:50:15Z</time>
      </trkpt>
      <trkpt lat="43.46416" lon="-0.36993">
        <ele>151.3</ele>
        <time>2026-08-31T09:50:16Z</time>
      </trkpt>
      <trkpt lat="43.46416" lon="-0.36992">
        <ele>151.3</ele>
        <time>2026-08-31T09:50:16Z</time>
      </trkpt>
      <trkpt lat="43.46416" lon="-0.36991">
        <ele>151.3</ele>
        <time>2026-08-31T09:50:17Z</time>
      </trkpt>
      <trkpt lat="43.46416" lon="-0.3699">
        <ele>151.3</ele>
        <time>2026-08-31T09:50:17Z</time>
      </trkpt>
      <trkpt lat="43.46417" lon="-0.3699">
        <ele>152.3</ele>
        <time>2026-08-31T09:50:18Z</time>
      </trkpt>
      <trkpt lat="43.46417" lon="-0.36989">
        <ele>152.3</ele>
        <time>2026-08-31T09:50:18Z</time>
      </trkpt>
      <trkpt lat="43.46417" lon="-0.36987">
        <ele>152.3</ele>
        <time>2026-08-31T09:50:19Z</time>
      </trkpt>
      <trkpt lat="43.46417" lon="-0.36986">
        <ele>152.3</ele>
        <time>2026-08-31T09:50:19Z</time>
      </trkpt>
      <trkpt lat="43.46417" lon="-0.36986">
        <ele>152.3</ele>
        <time>2026-08-31T09:50:20Z</time>
      </trkpt>
      <trkpt lat="43.46417" lon="-0.36985">
        <ele>152.3</ele>
        <time>2026-08-31T09:50:20Z</time>
      </trkpt>
      <trkpt lat="43.46417" lon="-0.36983">
        <ele>152.3</ele>
        <time>2026-08-31T09:50:21Z</time>
      </trkpt>
      <trkpt lat="43.46417" lon="-0.36983">
        <ele>152.3</ele>
        <time>2026-08-31T09:50:22Z</time>
      </trkpt>
      <trkpt lat="43.46417" lon="-0.36982">
        <ele>151.3</ele>
        <time>2026-08-31T09:50:22Z</time>
      </trkpt>
      <trkpt lat="43.46417" lon="-0.36981">
        <ele>151.3</ele>
        <time>2026-08-31T09:50:23Z</time>
      </trkpt>
      <trkpt lat="43.46417" lon="-0.3698">
        <ele>151.3</ele>
        <time>2026-08-31T09:50:23Z</time>
      </trkpt>
      <trkpt lat="43.46417" lon="-0.36979">
        <ele>150.3</ele>
        <time>2026-08-31T09:50:24Z</time>
      </trkpt>
      <trkpt lat="43.46417" lon="-0.36978">
        <ele>150.3</ele>
        <time>2026-08-31T09:50:24Z</time>
      </trkpt>
      <trkpt lat="43.46417" lon="-0.36977">
        <ele>150.3</ele>
        <time>2026-08-31T09:50:25Z</time>
      </trkpt>
      <trkpt lat="43.46417" lon="-0.36976">
        <ele>150.3</ele>
        <time>2026-08-31T09:50:25Z</time>
      </trkpt>
      <trkpt lat="43.46417" lon="-0.36975">
        <ele>150.3</ele>
        <time>2026-08-31T09:50:26Z</time>
      </trkpt>
      <trkpt lat="43.46417" lon="-0.36974">
        <ele>150.3</ele>
        <time>2026-08-31T09:50:26Z</time>
      </trkpt>
      <trkpt lat="43.46417" lon="-0.36973">
        <ele>150.3</ele>
        <time>2026-08-31T09:50:27Z</time>
      </trkpt>
      <trkpt lat="43.46417" lon="-0.36972">
        <ele>150.3</ele>
        <time>2026-08-31T09:50:27Z</time>
      </trkpt>
      <trkpt lat="43.46417" lon="-0.36971">
        <ele>150.3</ele>
        <time>2026-08-31T09:50:28Z</time>
      </trkpt>
      <trkpt lat="43.46417" lon="-0.3697">
        <ele>150.3</ele>
        <time>2026-08-31T09:50:28Z</time>
      </trkpt>
      <trkpt lat="43.46417" lon="-0.36969">
        <ele>150.3</ele>
        <time>2026-08-31T09:50:29Z</time>
      </trkpt>
      <trkpt lat="43.46417" lon="-0.36968">
        <ele>150.3</ele>
        <time>2026-08-31T09:50:29Z</time>
      </trkpt>
      <trkpt lat="43.46417" lon="-0.36967">
        <ele>149.3</ele>
        <time>2026-08-31T09:50:30Z</time>
      </trkpt>
      <trkpt lat="43.46417" lon="-0.36966">
        <ele>149.3</ele>
        <time>2026-08-31T09:50:31Z</time>
      </trkpt>
      <trkpt lat="43.46418" lon="-0.36965">
        <ele>149.3</ele>
        <time>2026-08-31T09:50:31Z</time>
      </trkpt>
      <trkpt lat="43.46418" lon="-0.36964">
        <ele>149.3</ele>
        <time>2026-08-31T09:50:32Z</time>
      </trkpt>
      <trkpt lat="43.46418" lon="-0.36963">
        <ele>149.3</ele>
        <time>2026-08-31T09:50:32Z</time>
      </trkpt>
      <trkpt lat="43.46418" lon="-0.36962">
        <ele>149.3</ele>
        <time>2026-08-31T09:50:33Z</time>
      </trkpt>
      <trkpt lat="43.46418" lon="-0.36961">
        <ele>149.3</ele>
        <time>2026-08-31T09:50:33Z</time>
      </trkpt>
      <trkpt lat="43.46418" lon="-0.3696">
        <ele>149.3</ele>
        <time>2026-08-31T09:50:34Z</time>
      </trkpt>
      <trkpt lat="43.46418" lon="-0.36959">
        <ele>149.3</ele>
        <time>2026-08-31T09:50:34Z</time>
      </trkpt>
      <trkpt lat="43.46418" lon="-0.36958">
        <ele>149.3</ele>
        <time>2026-08-31T09:50:35Z</time>
      </trkpt>
      <trkpt lat="43.46418" lon="-0.36957">
        <ele>149.3</ele>
        <time>2026-08-31T09:50:35Z</time>
      </trkpt>
      <trkpt lat="43.46418" lon="-0.36956">
        <ele>149.3</ele>
        <time>2026-08-31T09:50:36Z</time>
      </trkpt>
      <trkpt lat="43.46418" lon="-0.36955">
        <ele>149.3</ele>
        <time>2026-08-31T09:50:36Z</time>
      </trkpt>
      <trkpt lat="43.46418" lon="-0.36955">
        <ele>149.3</ele>
        <time>2026-08-31T09:50:37Z</time>
      </trkpt>
      <trkpt lat="43.46418" lon="-0.36953">
        <ele>149.3</ele>
        <time>2026-08-31T09:50:37Z</time>
      </trkpt>
      <trkpt lat="43.46418" lon="-0.36953">
        <ele>149.3</ele>
        <time>2026-08-31T09:50:38Z</time>
      </trkpt>
      <trkpt lat="43.46418" lon="-0.36952">
        <ele>149.3</ele>
        <time>2026-08-31T09:50:38Z</time>
      </trkpt>
      <trkpt lat="43.46418" lon="-0.36951">
        <ele>148.3</ele>
        <time>2026-08-31T09:50:39Z</time>
      </trkpt>
      <trkpt lat="43.46418" lon="-0.3695">
        <ele>148.3</ele>
        <time>2026-08-31T09:50:40Z</time>
      </trkpt>
      <trkpt lat="43.46418" lon="-0.36949">
        <ele>148.3</ele>
        <time>2026-08-31T09:50:40Z</time>
      </trkpt>
      <trkpt lat="43.46418" lon="-0.36948">
        <ele>148.3</ele>
        <time>2026-08-31T09:50:41Z</time>
      </trkpt>
      <trkpt lat="43.46418" lon="-0.36947">
        <ele>148.3</ele>
        <time>2026-08-31T09:50:41Z</time>
      </trkpt>
      <trkpt lat="43.46418" lon="-0.36946">
        <ele>148.3</ele>
        <time>2026-08-31T09:50:42Z</time>
      </trkpt>
      <trkpt lat="43.46418" lon="-0.36945">
        <ele>148.3</ele>
        <time>2026-08-31T09:50:42Z</time>
      </trkpt>
      <trkpt lat="43.46418" lon="-0.36944">
        <ele>148.3</ele>
        <time>2026-08-31T09:50:43Z</time>
      </trkpt>
      <trkpt lat="43.46418" lon="-0.36943">
        <ele>148.3</ele>
        <time>2026-08-31T09:50:43Z</time>
      </trkpt>
      <trkpt lat="43.46418" lon="-0.36942">
        <ele>148.3</ele>
        <time>2026-08-31T09:50:44Z</time>
      </trkpt>
      <trkpt lat="43.46418" lon="-0.36941">
        <ele>148.3</ele>
        <time>2026-08-31T09:50:44Z</time>
      </trkpt>
      <trkpt lat="43.46419" lon="-0.3694">
        <ele>148.3</ele>
        <time>2026-08-31T09:50:45Z</time>
      </trkpt>
      <trkpt lat="43.46419" lon="-0.36939">
        <ele>148.3</ele>
        <time>2026-08-31T09:50:45Z</time>
      </trkpt>
      <trkpt lat="43.46419" lon="-0.36939">
        <ele>148.3</ele>
        <time>2026-08-31T09:50:46Z</time>
      </trkpt>
      <trkpt lat="43.46419" lon="-0.36938">
        <ele>148.3</ele>
        <time>2026-08-31T09:50:46Z</time>
      </trkpt>
      <trkpt lat="43.46419" lon="-0.36937">
        <ele>148.3</ele>
        <time>2026-08-31T09:50:47Z</time>
      </trkpt>
      <trkpt lat="43.46419" lon="-0.36936">
        <ele>148.3</ele>
        <time>2026-08-31T09:50:47Z</time>
      </trkpt>
      <trkpt lat="43.46419" lon="-0.36935">
        <ele>148.3</ele>
        <time>2026-08-31T09:50:48Z</time>
      </trkpt>
      <trkpt lat="43.46419" lon="-0.36934">
        <ele>148.3</ele>
        <time>2026-08-31T09:50:48Z</time>
      </trkpt>
      <trkpt lat="43.46419" lon="-0.36933">
        <ele>148.3</ele>
        <time>2026-08-31T09:50:49Z</time>
      </trkpt>
      <trkpt lat="43.46419" lon="-0.36932">
        <ele>148.3</ele>
        <time>2026-08-31T09:50:49Z</time>
      </trkpt>
      <trkpt lat="43.46419" lon="-0.36931">
        <ele>147.3</ele>
        <time>2026-08-31T09:50:50Z</time>
      </trkpt>
      <trkpt lat="43.46419" lon="-0.36931">
        <ele>147.3</ele>
        <time>2026-08-31T09:50:51Z</time>
      </trkpt>
      <trkpt lat="43.46419" lon="-0.3693">
        <ele>148.3</ele>
        <time>2026-08-31T09:50:51Z</time>
      </trkpt>
      <trkpt lat="43.46419" lon="-0.36929">
        <ele>148.3</ele>
        <time>2026-08-31T09:50:52Z</time>
      </trkpt>
      <trkpt lat="43.46419" lon="-0.36928">
        <ele>148.3</ele>
        <time>2026-08-31T09:50:52Z</time>
      </trkpt>
      <trkpt lat="43.46419" lon="-0.36927">
        <ele>148.3</ele>
        <time>2026-08-31T09:50:53Z</time>
      </trkpt>
      <trkpt lat="43.46419" lon="-0.36926">
        <ele>148.3</ele>
        <time>2026-08-31T09:50:53Z</time>
      </trkpt>
      <trkpt lat="43.46419" lon="-0.36926">
        <ele>148.3</ele>
        <time>2026-08-31T09:50:54Z</time>
      </trkpt>
      <trkpt lat="43.46419" lon="-0.36925">
        <ele>148.3</ele>
        <time>2026-08-31T09:50:54Z</time>
      </trkpt>
      <trkpt lat="43.46419" lon="-0.36924">
        <ele>148.3</ele>
        <time>2026-08-31T09:50:55Z</time>
      </trkpt>
      <trkpt lat="43.46419" lon="-0.36923">
        <ele>148.3</ele>
        <time>2026-08-31T09:50:55Z</time>
      </trkpt>
      <trkpt lat="43.46419" lon="-0.36922">
        <ele>149.3</ele>
        <time>2026-08-31T09:50:56Z</time>
      </trkpt>
      <trkpt lat="43.46419" lon="-0.36921">
        <ele>149.3</ele>
        <time>2026-08-31T09:50:56Z</time>
      </trkpt>
      <trkpt lat="43.46419" lon="-0.3692">
        <ele>148.3</ele>
        <time>2026-08-31T09:50:57Z</time>
      </trkpt>
      <trkpt lat="43.46419" lon="-0.36919">
        <ele>148.3</ele>
        <time>2026-08-31T09:50:57Z</time>
      </trkpt>
      <trkpt lat="43.46419" lon="-0.36918">
        <ele>148.3</ele>
        <time>2026-08-31T09:50:58Z</time>
      </trkpt>
      <trkpt lat="43.46419" lon="-0.36917">
        <ele>148.3</ele>
        <time>2026-08-31T09:50:58Z</time>
      </trkpt>
      <trkpt lat="43.46419" lon="-0.36916">
        <ele>148.3</ele>
        <time>2026-08-31T09:50:59Z</time>
      </trkpt>
      <trkpt lat="43.46419" lon="-0.36915">
        <ele>148.3</ele>
        <time>2026-08-31T09:51:00Z</time>
      </trkpt>
      <trkpt lat="43.46419" lon="-0.36914">
        <ele>149.3</ele>
        <time>2026-08-31T09:51:00Z</time>
      </trkpt>
      <trkpt lat="43.46419" lon="-0.36913">
        <ele>149.3</ele>
        <time>2026-08-31T09:51:01Z</time>
      </trkpt>
      <trkpt lat="43.46419" lon="-0.36913">
        <ele>149.3</ele>
        <time>2026-08-31T09:51:01Z</time>
      </trkpt>
      <trkpt lat="43.46419" lon="-0.36911">
        <ele>149.3</ele>
        <time>2026-08-31T09:51:02Z</time>
      </trkpt>
      <trkpt lat="43.4642" lon="-0.36911">
        <ele>149.3</ele>
        <time>2026-08-31T09:51:02Z</time>
      </trkpt>
      <trkpt lat="43.4642" lon="-0.3691">
        <ele>149.3</ele>
        <time>2026-08-31T09:51:03Z</time>
      </trkpt>
      <trkpt lat="43.4642" lon="-0.36909">
        <ele>148.3</ele>
        <time>2026-08-31T09:51:03Z</time>
      </trkpt>
      <trkpt lat="43.4642" lon="-0.36908">
        <ele>148.3</ele>
        <time>2026-08-31T09:51:04Z</time>
      </trkpt>
      <trkpt lat="43.4642" lon="-0.36907">
        <ele>148.3</ele>
        <time>2026-08-31T09:51:04Z</time>
      </trkpt>
      <trkpt lat="43.4642" lon="-0.36906">
        <ele>148.3</ele>
        <time>2026-08-31T09:51:05Z</time>
      </trkpt>
      <trkpt lat="43.4642" lon="-0.36905">
        <ele>148.3</ele>
        <time>2026-08-31T09:51:05Z</time>
      </trkpt>
      <trkpt lat="43.4642" lon="-0.36904">
        <ele>147.3</ele>
        <time>2026-08-31T09:51:06Z</time>
      </trkpt>
      <trkpt lat="43.4642" lon="-0.36903">
        <ele>147.3</ele>
        <time>2026-08-31T09:51:06Z</time>
      </trkpt>
      <trkpt lat="43.4642" lon="-0.36901">
        <ele>147.3</ele>
        <time>2026-08-31T09:51:07Z</time>
      </trkpt>
      <trkpt lat="43.4642" lon="-0.369">
        <ele>147.3</ele>
        <time>2026-08-31T09:51:07Z</time>
      </trkpt>
      <trkpt lat="43.4642" lon="-0.36899">
        <ele>147.3</ele>
        <time>2026-08-31T09:51:08Z</time>
      </trkpt>
      <trkpt lat="43.4642" lon="-0.36898">
        <ele>147.3</ele>
        <time>2026-08-31T09:51:08Z</time>
      </trkpt>
      <trkpt lat="43.46421" lon="-0.36897">
        <ele>147.3</ele>
        <time>2026-08-31T09:51:09Z</time>
      </trkpt>
      <trkpt lat="43.46421" lon="-0.36896">
        <ele>147.3</ele>
        <time>2026-08-31T09:51:10Z</time>
      </trkpt>
      <trkpt lat="43.46421" lon="-0.36895">
        <ele>147.3</ele>
        <time>2026-08-31T09:51:10Z</time>
      </trkpt>
      <trkpt lat="43.46421" lon="-0.36894">
        <ele>147.3</ele>
        <time>2026-08-31T09:51:11Z</time>
      </trkpt>
      <trkpt lat="43.46421" lon="-0.36893">
        <ele>146.3</ele>
        <time>2026-08-31T09:51:11Z</time>
      </trkpt>
      <trkpt lat="43.46421" lon="-0.36892">
        <ele>146.3</ele>
        <time>2026-08-31T09:51:12Z</time>
      </trkpt>
      <trkpt lat="43.46421" lon="-0.36891">
        <ele>146.3</ele>
        <time>2026-08-31T09:51:12Z</time>
      </trkpt>
      <trkpt lat="43.46421" lon="-0.3689">
        <ele>146.3</ele>
        <time>2026-08-31T09:51:13Z</time>
      </trkpt>
      <trkpt lat="43.46422" lon="-0.36889">
        <ele>146.3</ele>
        <time>2026-08-31T09:51:13Z</time>
      </trkpt>
      <trkpt lat="43.46422" lon="-0.36888">
        <ele>146.3</ele>
        <time>2026-08-31T09:51:14Z</time>
      </trkpt>
      <trkpt lat="43.46422" lon="-0.36887">
        <ele>146.3</ele>
        <time>2026-08-31T09:51:14Z</time>
      </trkpt>
      <trkpt lat="43.46422" lon="-0.36886">
        <ele>146.3</ele>
        <time>2026-08-31T09:51:15Z</time>
      </trkpt>
      <trkpt lat="43.46422" lon="-0.36885">
        <ele>146.3</ele>
        <time>2026-08-31T09:51:15Z</time>
      </trkpt>
      <trkpt lat="43.46422" lon="-0.36884">
        <ele>146.3</ele>
        <time>2026-08-31T09:51:16Z</time>
      </trkpt>
      <trkpt lat="43.46423" lon="-0.36883">
        <ele>146.3</ele>
        <time>2026-08-31T09:51:16Z</time>
      </trkpt>
      <trkpt lat="43.46423" lon="-0.36882">
        <ele>146.3</ele>
        <time>2026-08-31T09:51:17Z</time>
      </trkpt>
      <trkpt lat="43.46423" lon="-0.36881">
        <ele>146.3</ele>
        <time>2026-08-31T09:51:17Z</time>
      </trkpt>
      <trkpt lat="43.46423" lon="-0.36881">
        <ele>146.3</ele>
        <time>2026-08-31T09:51:18Z</time>
      </trkpt>
      <trkpt lat="43.46423" lon="-0.3688">
        <ele>146.3</ele>
        <time>2026-08-31T09:51:19Z</time>
      </trkpt>
      <trkpt lat="43.46424" lon="-0.36879">
        <ele>146.3</ele>
        <time>2026-08-31T09:51:19Z</time>
      </trkpt>
      <trkpt lat="43.46424" lon="-0.36878">
        <ele>146.3</ele>
        <time>2026-08-31T09:51:20Z</time>
      </trkpt>
      <trkpt lat="43.46424" lon="-0.36877">
        <ele>146.3</ele>
        <time>2026-08-31T09:51:20Z</time>
      </trkpt>
      <trkpt lat="43.46425" lon="-0.36876">
        <ele>146.3</ele>
        <time>2026-08-31T09:51:21Z</time>
      </trkpt>
      <trkpt lat="43.46425" lon="-0.36875">
        <ele>145.3</ele>
        <time>2026-08-31T09:51:21Z</time>
      </trkpt>
      <trkpt lat="43.46425" lon="-0.36874">
        <ele>145.3</ele>
        <time>2026-08-31T09:51:22Z</time>
      </trkpt>
      <trkpt lat="43.46426" lon="-0.36873">
        <ele>145.3</ele>
        <time>2026-08-31T09:51:22Z</time>
      </trkpt>
      <trkpt lat="43.46426" lon="-0.36872">
        <ele>145.3</ele>
        <time>2026-08-31T09:51:23Z</time>
      </trkpt>
      <trkpt lat="43.46426" lon="-0.36871">
        <ele>145.3</ele>
        <time>2026-08-31T09:51:23Z</time>
      </trkpt>
      <trkpt lat="43.46427" lon="-0.3687">
        <ele>145.3</ele>
        <time>2026-08-31T09:51:24Z</time>
      </trkpt>
      <trkpt lat="43.46427" lon="-0.3687">
        <ele>145.3</ele>
        <time>2026-08-31T09:51:24Z</time>
      </trkpt>
      <trkpt lat="43.46427" lon="-0.36869">
        <ele>145.3</ele>
        <time>2026-08-31T09:51:25Z</time>
      </trkpt>
      <trkpt lat="43.46427" lon="-0.36868">
        <ele>145.3</ele>
        <time>2026-08-31T09:51:25Z</time>
      </trkpt>
      <trkpt lat="43.46427" lon="-0.36867">
        <ele>146.3</ele>
        <time>2026-08-31T09:51:26Z</time>
      </trkpt>
      <trkpt lat="43.46428" lon="-0.36866">
        <ele>146.3</ele>
        <time>2026-08-31T09:51:26Z</time>
      </trkpt>
      <trkpt lat="43.46428" lon="-0.36865">
        <ele>145.3</ele>
        <time>2026-08-31T09:51:27Z</time>
      </trkpt>
      <trkpt lat="43.46428" lon="-0.36864">
        <ele>145.3</ele>
        <time>2026-08-31T09:51:28Z</time>
      </trkpt>
      <trkpt lat="43.46428" lon="-0.36863">
        <ele>145.3</ele>
        <time>2026-08-31T09:51:28Z</time>
      </trkpt>
      <trkpt lat="43.46429" lon="-0.36862">
        <ele>145.3</ele>
        <time>2026-08-31T09:51:29Z</time>
      </trkpt>
      <trkpt lat="43.46429" lon="-0.36861">
        <ele>145.3</ele>
        <time>2026-08-31T09:51:29Z</time>
      </trkpt>
      <trkpt lat="43.46429" lon="-0.3686">
        <ele>145.3</ele>
        <time>2026-08-31T09:51:30Z</time>
      </trkpt>
      <trkpt lat="43.4643" lon="-0.3686">
        <ele>145.3</ele>
        <time>2026-08-31T09:51:30Z</time>
      </trkpt>
      <trkpt lat="43.4643" lon="-0.36859">
        <ele>145.3</ele>
        <time>2026-08-31T09:51:31Z</time>
      </trkpt>
      <trkpt lat="43.46431" lon="-0.36858">
        <ele>145.3</ele>
        <time>2026-08-31T09:51:31Z</time>
      </trkpt>
      <trkpt lat="43.46431" lon="-0.36858">
        <ele>144.3</ele>
        <time>2026-08-31T09:51:32Z</time>
      </trkpt>
      <trkpt lat="43.46432" lon="-0.36857">
        <ele>144.3</ele>
        <time>2026-08-31T09:51:32Z</time>
      </trkpt>
      <trkpt lat="43.46432" lon="-0.36857">
        <ele>144.3</ele>
        <time>2026-08-31T09:51:33Z</time>
      </trkpt>
      <trkpt lat="43.46433" lon="-0.36856">
        <ele>144.3</ele>
        <time>2026-08-31T09:51:33Z</time>
      </trkpt>
      <trkpt lat="43.46433" lon="-0.36855">
        <ele>144.3</ele>
        <time>2026-08-31T09:51:34Z</time>
      </trkpt>
      <trkpt lat="43.46434" lon="-0.36855">
        <ele>144.3</ele>
        <time>2026-08-31T09:51:34Z</time>
      </trkpt>
      <trkpt lat="43.46434" lon="-0.36854">
        <ele>144.3</ele>
        <time>2026-08-31T09:51:35Z</time>
      </trkpt>
      <trkpt lat="43.46435" lon="-0.36853">
        <ele>144.3</ele>
        <time>2026-08-31T09:51:35Z</time>
      </trkpt>
      <trkpt lat="43.46435" lon="-0.36853">
        <ele>144.3</ele>
        <time>2026-08-31T09:51:36Z</time>
      </trkpt>
      <trkpt lat="43.46436" lon="-0.36852">
        <ele>144.3</ele>
        <time>2026-08-31T09:51:37Z</time>
      </trkpt>
      <trkpt lat="43.46436" lon="-0.36851">
        <ele>144.3</ele>
        <time>2026-08-31T09:51:37Z</time>
      </trkpt>
      <trkpt lat="43.46437" lon="-0.3685">
        <ele>144.3</ele>
        <time>2026-08-31T09:51:38Z</time>
      </trkpt>
      <trkpt lat="43.46437" lon="-0.3685">
        <ele>145.3</ele>
        <time>2026-08-31T09:51:38Z</time>
      </trkpt>
      <trkpt lat="43.46438" lon="-0.36849">
        <ele>145.3</ele>
        <time>2026-08-31T09:51:39Z</time>
      </trkpt>
      <trkpt lat="43.46439" lon="-0.36848">
        <ele>145.3</ele>
        <time>2026-08-31T09:51:39Z</time>
      </trkpt>
      <trkpt lat="43.46439" lon="-0.36848">
        <ele>145.3</ele>
        <time>2026-08-31T09:51:40Z</time>
      </trkpt>
      <trkpt lat="43.4644" lon="-0.36847">
        <ele>145.3</ele>
        <time>2026-08-31T09:51:40Z</time>
      </trkpt>
      <trkpt lat="43.4644" lon="-0.36846">
        <ele>146.3</ele>
        <time>2026-08-31T09:51:41Z</time>
      </trkpt>
      <trkpt lat="43.46441" lon="-0.36845">
        <ele>146.3</ele>
        <time>2026-08-31T09:51:41Z</time>
      </trkpt>
      <trkpt lat="43.46441" lon="-0.36845">
        <ele>146.3</ele>
        <time>2026-08-31T09:51:42Z</time>
      </trkpt>
      <trkpt lat="43.46442" lon="-0.36844">
        <ele>146.3</ele>
        <time>2026-08-31T09:51:42Z</time>
      </trkpt>
      <trkpt lat="43.46443" lon="-0.36843">
        <ele>146.3</ele>
        <time>2026-08-31T09:51:43Z</time>
      </trkpt>
      <trkpt lat="43.46443" lon="-0.36842">
        <ele>146.3</ele>
        <time>2026-08-31T09:51:43Z</time>
      </trkpt>
      <trkpt lat="43.46444" lon="-0.36841">
        <ele>147.3</ele>
        <time>2026-08-31T09:51:44Z</time>
      </trkpt>
      <trkpt lat="43.46444" lon="-0.36841">
        <ele>147.3</ele>
        <time>2026-08-31T09:51:44Z</time>
      </trkpt>
      <trkpt lat="43.46445" lon="-0.3684">
        <ele>147.3</ele>
        <time>2026-08-31T09:51:45Z</time>
      </trkpt>
      <trkpt lat="43.46445" lon="-0.36839">
        <ele>147.3</ele>
        <time>2026-08-31T09:51:46Z</time>
      </trkpt>
      <trkpt lat="43.46446" lon="-0.36839">
        <ele>147.3</ele>
        <time>2026-08-31T09:51:46Z</time>
      </trkpt>
      <trkpt lat="43.46446" lon="-0.36838">
        <ele>147.3</ele>
        <time>2026-08-31T09:51:47Z</time>
      </trkpt>
      <trkpt lat="43.46447" lon="-0.36838">
        <ele>147.3</ele>
        <time>2026-08-31T09:51:47Z</time>
      </trkpt>
      <trkpt lat="43.46447" lon="-0.36837">
        <ele>147.3</ele>
        <time>2026-08-31T09:51:48Z</time>
      </trkpt>
      <trkpt lat="43.46448" lon="-0.36836">
        <ele>147.3</ele>
        <time>2026-08-31T09:51:48Z</time>
      </trkpt>
      <trkpt lat="43.46448" lon="-0.36836">
        <ele>147.3</ele>
        <time>2026-08-31T09:51:49Z</time>
      </trkpt>
      <trkpt lat="43.46449" lon="-0.36835">
        <ele>147.3</ele>
        <time>2026-08-31T09:51:49Z</time>
      </trkpt>
      <trkpt lat="43.46449" lon="-0.36834">
        <ele>147.3</ele>
        <time>2026-08-31T09:51:50Z</time>
      </trkpt>
      <trkpt lat="43.4645" lon="-0.36834">
        <ele>147.3</ele>
        <time>2026-08-31T09:51:50Z</time>
      </trkpt>
      <trkpt lat="43.4645" lon="-0.36833">
        <ele>147.3</ele>
        <time>2026-08-31T09:51:51Z</time>
      </trkpt>
      <trkpt lat="43.46451" lon="-0.36832">
        <ele>147.3</ele>
        <time>2026-08-31T09:51:51Z</time>
      </trkpt>
      <trkpt lat="43.46451" lon="-0.36832">
        <ele>147.3</ele>
        <time>2026-08-31T09:51:52Z</time>
      </trkpt>
      <trkpt lat="43.46452" lon="-0.36831">
        <ele>147.3</ele>
        <time>2026-08-31T09:51:52Z</time>
      </trkpt>
      <trkpt lat="43.46452" lon="-0.36831">
        <ele>147.3</ele>
        <time>2026-08-31T09:51:53Z</time>
      </trkpt>
      <trkpt lat="43.46453" lon="-0.3683">
        <ele>147.3</ele>
        <time>2026-08-31T09:51:54Z</time>
      </trkpt>
      <trkpt lat="43.46453" lon="-0.36829">
        <ele>147.3</ele>
        <time>2026-08-31T09:51:54Z</time>
      </trkpt>
      <trkpt lat="43.46454" lon="-0.36829">
        <ele>147.3</ele>
        <time>2026-08-31T09:51:55Z</time>
      </trkpt>
      <trkpt lat="43.46454" lon="-0.36828">
        <ele>147.3</ele>
        <time>2026-08-31T09:51:55Z</time>
      </trkpt>
      <trkpt lat="43.46455" lon="-0.36827">
        <ele>147.3</ele>
        <time>2026-08-31T09:51:56Z</time>
      </trkpt>
      <trkpt lat="43.46455" lon="-0.36826">
        <ele>147.3</ele>
        <time>2026-08-31T09:51:56Z</time>
      </trkpt>
      <trkpt lat="43.46456" lon="-0.36826">
        <ele>147.3</ele>
        <time>2026-08-31T09:51:57Z</time>
      </trkpt>
      <trkpt lat="43.46456" lon="-0.36825">
        <ele>147.3</ele>
        <time>2026-08-31T09:51:57Z</time>
      </trkpt>
      <trkpt lat="43.46457" lon="-0.36825">
        <ele>147.3</ele>
        <time>2026-08-31T09:51:58Z</time>
      </trkpt>
      <trkpt lat="43.46458" lon="-0.36824">
        <ele>147.3</ele>
        <time>2026-08-31T09:51:58Z</time>
      </trkpt>
      <trkpt lat="43.46458" lon="-0.36823">
        <ele>147.3</ele>
        <time>2026-08-31T09:51:59Z</time>
      </trkpt>
      <trkpt lat="43.46459" lon="-0.36823">
        <ele>147.3</ele>
        <time>2026-08-31T09:51:59Z</time>
      </trkpt>
      <trkpt lat="43.4646" lon="-0.36822">
        <ele>147.3</ele>
        <time>2026-08-31T09:52:00Z</time>
      </trkpt>
      <trkpt lat="43.4646" lon="-0.36822">
        <ele>147.3</ele>
        <time>2026-08-31T09:52:00Z</time>
      </trkpt>
      <trkpt lat="43.46461" lon="-0.36821">
        <ele>147.3</ele>
        <time>2026-08-31T09:52:01Z</time>
      </trkpt>
      <trkpt lat="43.46462" lon="-0.36821">
        <ele>147.3</ele>
        <time>2026-08-31T09:52:02Z</time>
      </trkpt>
      <trkpt lat="43.46462" lon="-0.3682">
        <ele>147.3</ele>
        <time>2026-08-31T09:52:02Z</time>
      </trkpt>
      <trkpt lat="43.46463" lon="-0.36819">
        <ele>147.3</ele>
        <time>2026-08-31T09:52:03Z</time>
      </trkpt>
      <trkpt lat="43.46463" lon="-0.36819">
        <ele>146.3</ele>
        <time>2026-08-31T09:52:03Z</time>
      </trkpt>
      <trkpt lat="43.46464" lon="-0.36818">
        <ele>146.3</ele>
        <time>2026-08-31T09:52:04Z</time>
      </trkpt>
      <trkpt lat="43.46464" lon="-0.36817">
        <ele>145.3</ele>
        <time>2026-08-31T09:52:04Z</time>
      </trkpt>
      <trkpt lat="43.46465" lon="-0.36817">
        <ele>145.3</ele>
        <time>2026-08-31T09:52:05Z</time>
      </trkpt>
      <trkpt lat="43.46465" lon="-0.36816">
        <ele>145.3</ele>
        <time>2026-08-31T09:52:05Z</time>
      </trkpt>
      <trkpt lat="43.46466" lon="-0.36816">
        <ele>144.3</ele>
        <time>2026-08-31T09:52:06Z</time>
      </trkpt>
      <trkpt lat="43.46466" lon="-0.36815">
        <ele>144.3</ele>
        <time>2026-08-31T09:52:06Z</time>
      </trkpt>
      <trkpt lat="43.46467" lon="-0.36814">
        <ele>144.3</ele>
        <time>2026-08-31T09:52:07Z</time>
      </trkpt>
      <trkpt lat="43.46467" lon="-0.36813">
        <ele>144.3</ele>
        <time>2026-08-31T09:52:07Z</time>
      </trkpt>
      <trkpt lat="43.46467" lon="-0.36812">
        <ele>144.3</ele>
        <time>2026-08-31T09:52:08Z</time>
      </trkpt>
      <trkpt lat="43.46468" lon="-0.36811">
        <ele>144.3</ele>
        <time>2026-08-31T09:52:08Z</time>
      </trkpt>
      <trkpt lat="43.46468" lon="-0.36811">
        <ele>144.3</ele>
        <time>2026-08-31T09:52:09Z</time>
      </trkpt>
      <trkpt lat="43.46469" lon="-0.3681">
        <ele>144.3</ele>
        <time>2026-08-31T09:52:10Z</time>
      </trkpt>
      <trkpt lat="43.46469" lon="-0.36809">
        <ele>144.3</ele>
        <time>2026-08-31T09:52:10Z</time>
      </trkpt>
      <trkpt lat="43.4647" lon="-0.36808">
        <ele>144.3</ele>
        <time>2026-08-31T09:52:11Z</time>
      </trkpt>
      <trkpt lat="43.4647" lon="-0.36808">
        <ele>144.3</ele>
        <time>2026-08-31T09:52:11Z</time>
      </trkpt>
      <trkpt lat="43.46471" lon="-0.36807">
        <ele>144.3</ele>
        <time>2026-08-31T09:52:12Z</time>
      </trkpt>
      <trkpt lat="43.46471" lon="-0.36806">
        <ele>144.3</ele>
        <time>2026-08-31T09:52:12Z</time>
      </trkpt>
      <trkpt lat="43.46471" lon="-0.36805">
        <ele>144.3</ele>
        <time>2026-08-31T09:52:13Z</time>
      </trkpt>
      <trkpt lat="43.46472" lon="-0.36804">
        <ele>144.3</ele>
        <time>2026-08-31T09:52:13Z</time>
      </trkpt>
      <trkpt lat="43.46472" lon="-0.36804">
        <ele>144.3</ele>
        <time>2026-08-31T09:52:14Z</time>
      </trkpt>
      <trkpt lat="43.46472" lon="-0.36803">
        <ele>144.3</ele>
        <time>2026-08-31T09:52:14Z</time>
      </trkpt>
      <trkpt lat="43.46472" lon="-0.36802">
        <ele>144.3</ele>
        <time>2026-08-31T09:52:15Z</time>
      </trkpt>
      <trkpt lat="43.46472" lon="-0.36801">
        <ele>144.3</ele>
        <time>2026-08-31T09:52:16Z</time>
      </trkpt>
      <trkpt lat="43.46473" lon="-0.368">
        <ele>143.3</ele>
        <time>2026-08-31T09:52:16Z</time>
      </trkpt>
      <trkpt lat="43.46473" lon="-0.36799">
        <ele>143.3</ele>
        <time>2026-08-31T09:52:17Z</time>
      </trkpt>
      <trkpt lat="43.46473" lon="-0.36799">
        <ele>143.3</ele>
        <time>2026-08-31T09:52:17Z</time>
      </trkpt>
      <trkpt lat="43.46473" lon="-0.36798">
        <ele>143.3</ele>
        <time>2026-08-31T09:52:18Z</time>
      </trkpt>
      <trkpt lat="43.46473" lon="-0.36797">
        <ele>143.3</ele>
        <time>2026-08-31T09:52:18Z</time>
      </trkpt>
      <trkpt lat="43.46474" lon="-0.36796">
        <ele>143.3</ele>
        <time>2026-08-31T09:52:19Z</time>
      </trkpt>
      <trkpt lat="43.46474" lon="-0.36795">
        <ele>143.3</ele>
        <time>2026-08-31T09:52:19Z</time>
      </trkpt>
      <trkpt lat="43.46473" lon="-0.36794">
        <ele>143.3</ele>
        <time>2026-08-31T09:52:20Z</time>
      </trkpt>
      <trkpt lat="43.46473" lon="-0.36793">
        <ele>143.3</ele>
        <time>2026-08-31T09:52:20Z</time>
      </trkpt>
      <trkpt lat="43.46473" lon="-0.36792">
        <ele>143.3</ele>
        <time>2026-08-31T09:52:21Z</time>
      </trkpt>
      <trkpt lat="43.46473" lon="-0.36791">
        <ele>143.3</ele>
        <time>2026-08-31T09:52:21Z</time>
      </trkpt>
      <trkpt lat="43.46473" lon="-0.36791">
        <ele>143.3</ele>
        <time>2026-08-31T09:52:22Z</time>
      </trkpt>
      <trkpt lat="43.46474" lon="-0.3679">
        <ele>143.3</ele>
        <time>2026-08-31T09:52:23Z</time>
      </trkpt>
      <trkpt lat="43.46474" lon="-0.36789">
        <ele>143.3</ele>
        <time>2026-08-31T09:52:23Z</time>
      </trkpt>
      <trkpt lat="43.46474" lon="-0.36788">
        <ele>143.3</ele>
        <time>2026-08-31T09:52:24Z</time>
      </trkpt>
      <trkpt lat="43.46474" lon="-0.36787">
        <ele>144.3</ele>
        <time>2026-08-31T09:52:24Z</time>
      </trkpt>
      <trkpt lat="43.46474" lon="-0.36786">
        <ele>144.3</ele>
        <time>2026-08-31T09:52:25Z</time>
      </trkpt>
      <trkpt lat="43.46474" lon="-0.36785">
        <ele>144.3</ele>
        <time>2026-08-31T09:52:25Z</time>
      </trkpt>
      <trkpt lat="43.46475" lon="-0.36784">
        <ele>144.3</ele>
        <time>2026-08-31T09:52:26Z</time>
      </trkpt>
      <trkpt lat="43.46475" lon="-0.36783">
        <ele>143.3</ele>
        <time>2026-08-31T09:52:26Z</time>
      </trkpt>
      <trkpt lat="43.46475" lon="-0.36782">
        <ele>144.3</ele>
        <time>2026-08-31T09:52:27Z</time>
      </trkpt>
      <trkpt lat="43.46475" lon="-0.36781">
        <ele>144.3</ele>
        <time>2026-08-31T09:52:27Z</time>
      </trkpt>
      <trkpt lat="43.46475" lon="-0.3678">
        <ele>144.3</ele>
        <time>2026-08-31T09:52:28Z</time>
      </trkpt>
      <trkpt lat="43.46475" lon="-0.36779">
        <ele>144.3</ele>
        <time>2026-08-31T09:52:28Z</time>
      </trkpt>
      <trkpt lat="43.46476" lon="-0.36778">
        <ele>144.3</ele>
        <time>2026-08-31T09:52:29Z</time>
      </trkpt>
      <trkpt lat="43.46476" lon="-0.36777">
        <ele>144.3</ele>
        <time>2026-08-31T09:52:29Z</time>
      </trkpt>
      <trkpt lat="43.46476" lon="-0.36776">
        <ele>144.3</ele>
        <time>2026-08-31T09:52:30Z</time>
      </trkpt>
      <trkpt lat="43.46476" lon="-0.36775">
        <ele>144.3</ele>
        <time>2026-08-31T09:52:30Z</time>
      </trkpt>
      <trkpt lat="43.46477" lon="-0.36775">
        <ele>144.3</ele>
        <time>2026-08-31T09:52:31Z</time>
      </trkpt>
      <trkpt lat="43.46477" lon="-0.36774">
        <ele>144.3</ele>
        <time>2026-08-31T09:52:32Z</time>
      </trkpt>
      <trkpt lat="43.46477" lon="-0.36773">
        <ele>145.3</ele>
        <time>2026-08-31T09:52:32Z</time>
      </trkpt>
      <trkpt lat="43.46477" lon="-0.36772">
        <ele>145.3</ele>
        <time>2026-08-31T09:52:33Z</time>
      </trkpt>
      <trkpt lat="43.46478" lon="-0.36771">
        <ele>145.3</ele>
        <time>2026-08-31T09:52:33Z</time>
      </trkpt>
      <trkpt lat="43.46478" lon="-0.3677">
        <ele>145.3</ele>
        <time>2026-08-31T09:52:34Z</time>
      </trkpt>
      <trkpt lat="43.46478" lon="-0.3677">
        <ele>145.3</ele>
        <time>2026-08-31T09:52:34Z</time>
      </trkpt>
      <trkpt lat="43.46479" lon="-0.36769">
        <ele>145.3</ele>
        <time>2026-08-31T09:52:35Z</time>
      </trkpt>
      <trkpt lat="43.46479" lon="-0.36768">
        <ele>145.3</ele>
        <time>2026-08-31T09:52:35Z</time>
      </trkpt>
      <trkpt lat="43.46479" lon="-0.36767">
        <ele>145.3</ele>
        <time>2026-08-31T09:52:36Z</time>
      </trkpt>
      <trkpt lat="43.46479" lon="-0.36766">
        <ele>145.3</ele>
        <time>2026-08-31T09:52:36Z</time>
      </trkpt>
      <trkpt lat="43.46479" lon="-0.36766">
        <ele>145.3</ele>
        <time>2026-08-31T09:52:37Z</time>
      </trkpt>
      <trkpt lat="43.46479" lon="-0.36765">
        <ele>145.3</ele>
        <time>2026-08-31T09:52:37Z</time>
      </trkpt>
      <trkpt lat="43.46479" lon="-0.36764">
        <ele>145.3</ele>
        <time>2026-08-31T09:52:38Z</time>
      </trkpt>
      <trkpt lat="43.46479" lon="-0.36763">
        <ele>145.3</ele>
        <time>2026-08-31T09:52:39Z</time>
      </trkpt>
      <trkpt lat="43.46479" lon="-0.36762">
        <ele>146.3</ele>
        <time>2026-08-31T09:52:39Z</time>
      </trkpt>
      <trkpt lat="43.46479" lon="-0.36761">
        <ele>146.3</ele>
        <time>2026-08-31T09:52:40Z</time>
      </trkpt>
      <trkpt lat="43.46479" lon="-0.3676">
        <ele>146.3</ele>
        <time>2026-08-31T09:52:40Z</time>
      </trkpt>
      <trkpt lat="43.46479" lon="-0.36759">
        <ele>146.3</ele>
        <time>2026-08-31T09:52:41Z</time>
      </trkpt>
      <trkpt lat="43.46479" lon="-0.36759">
        <ele>146.3</ele>
        <time>2026-08-31T09:52:41Z</time>
      </trkpt>
      <trkpt lat="43.46479" lon="-0.36758">
        <ele>145.3</ele>
        <time>2026-08-31T09:52:42Z</time>
      </trkpt>
      <trkpt lat="43.4648" lon="-0.36757">
        <ele>145.3</ele>
        <time>2026-08-31T09:52:42Z</time>
      </trkpt>
      <trkpt lat="43.4648" lon="-0.36756">
        <ele>145.3</ele>
        <time>2026-08-31T09:52:43Z</time>
      </trkpt>
      <trkpt lat="43.4648" lon="-0.36755">
        <ele>145.3</ele>
        <time>2026-08-31T09:52:43Z</time>
      </trkpt>
      <trkpt lat="43.4648" lon="-0.36754">
        <ele>145.3</ele>
        <time>2026-08-31T09:52:44Z</time>
      </trkpt>
      <trkpt lat="43.4648" lon="-0.36753">
        <ele>145.3</ele>
        <time>2026-08-31T09:52:44Z</time>
      </trkpt>
      <trkpt lat="43.4648" lon="-0.36752">
        <ele>145.3</ele>
        <time>2026-08-31T09:52:45Z</time>
      </trkpt>
      <trkpt lat="43.4648" lon="-0.36751">
        <ele>145.3</ele>
        <time>2026-08-31T09:52:46Z</time>
      </trkpt>
      <trkpt lat="43.4648" lon="-0.3675">
        <ele>145.3</ele>
        <time>2026-08-31T09:52:46Z</time>
      </trkpt>
      <trkpt lat="43.46479" lon="-0.36749">
        <ele>145.3</ele>
        <time>2026-08-31T09:52:47Z</time>
      </trkpt>
      <trkpt lat="43.46479" lon="-0.36748">
        <ele>145.3</ele>
        <time>2026-08-31T09:52:47Z</time>
      </trkpt>
      <trkpt lat="43.46479" lon="-0.36747">
        <ele>145.3</ele>
        <time>2026-08-31T09:52:48Z</time>
      </trkpt>
      <trkpt lat="43.46479" lon="-0.36747">
        <ele>145.3</ele>
        <time>2026-08-31T09:52:48Z</time>
      </trkpt>
      <trkpt lat="43.46479" lon="-0.36746">
        <ele>144.3</ele>
        <time>2026-08-31T09:52:49Z</time>
      </trkpt>
      <trkpt lat="43.46479" lon="-0.36744">
        <ele>144.3</ele>
        <time>2026-08-31T09:52:49Z</time>
      </trkpt>
      <trkpt lat="43.4648" lon="-0.36743">
        <ele>144.3</ele>
        <time>2026-08-31T09:52:50Z</time>
      </trkpt>
      <trkpt lat="43.4648" lon="-0.36742">
        <ele>144.3</ele>
        <time>2026-08-31T09:52:50Z</time>
      </trkpt>
      <trkpt lat="43.4648" lon="-0.36741">
        <ele>144.3</ele>
        <time>2026-08-31T09:52:51Z</time>
      </trkpt>
      <trkpt lat="43.4648" lon="-0.3674">
        <ele>144.3</ele>
        <time>2026-08-31T09:52:51Z</time>
      </trkpt>
      <trkpt lat="43.4648" lon="-0.36739">
        <ele>144.3</ele>
        <time>2026-08-31T09:52:52Z</time>
      </trkpt>
      <trkpt lat="43.4648" lon="-0.36738">
        <ele>144.3</ele>
        <time>2026-08-31T09:52:53Z</time>
      </trkpt>
      <trkpt lat="43.4648" lon="-0.36737">
        <ele>144.3</ele>
        <time>2026-08-31T09:52:53Z</time>
      </trkpt>
      <trkpt lat="43.4648" lon="-0.36736">
        <ele>144.3</ele>
        <time>2026-08-31T09:52:54Z</time>
      </trkpt>
      <trkpt lat="43.4648" lon="-0.36735">
        <ele>144.3</ele>
        <time>2026-08-31T09:52:54Z</time>
      </trkpt>
      <trkpt lat="43.4648" lon="-0.36734">
        <ele>144.3</ele>
        <time>2026-08-31T09:52:55Z</time>
      </trkpt>
      <trkpt lat="43.4648" lon="-0.36733">
        <ele>144.3</ele>
        <time>2026-08-31T09:52:55Z</time>
      </trkpt>
      <trkpt lat="43.46479" lon="-0.36732">
        <ele>144.3</ele>
        <time>2026-08-31T09:52:56Z</time>
      </trkpt>
      <trkpt lat="43.46479" lon="-0.36731">
        <ele>144.3</ele>
        <time>2026-08-31T09:52:56Z</time>
      </trkpt>
      <trkpt lat="43.46479" lon="-0.3673">
        <ele>144.3</ele>
        <time>2026-08-31T09:52:57Z</time>
      </trkpt>
      <trkpt lat="43.46479" lon="-0.36729">
        <ele>144.3</ele>
        <time>2026-08-31T09:52:57Z</time>
      </trkpt>
      <trkpt lat="43.46479" lon="-0.36728">
        <ele>144.3</ele>
        <time>2026-08-31T09:52:58Z</time>
      </trkpt>
      <trkpt lat="43.46479" lon="-0.36728">
        <ele>144.3</ele>
        <time>2026-08-31T09:52:58Z</time>
      </trkpt>
      <trkpt lat="43.46478" lon="-0.36727">
        <ele>145.3</ele>
        <time>2026-08-31T09:52:59Z</time>
      </trkpt>
      <trkpt lat="43.46478" lon="-0.36726">
        <ele>145.3</ele>
        <time>2026-08-31T09:52:59Z</time>
      </trkpt>
      <trkpt lat="43.46478" lon="-0.36725">
        <ele>145.3</ele>
        <time>2026-08-31T09:53:00Z</time>
      </trkpt>
      <trkpt lat="43.46478" lon="-0.36724">
        <ele>145.3</ele>
        <time>2026-08-31T09:53:01Z</time>
      </trkpt>
      <trkpt lat="43.46478" lon="-0.36723">
        <ele>145.3</ele>
        <time>2026-08-31T09:53:01Z</time>
      </trkpt>
      <trkpt lat="43.46477" lon="-0.36722">
        <ele>145.3</ele>
        <time>2026-08-31T09:53:02Z</time>
      </trkpt>
      <trkpt lat="43.46477" lon="-0.36721">
        <ele>145.3</ele>
        <time>2026-08-31T09:53:02Z</time>
      </trkpt>
      <trkpt lat="43.46477" lon="-0.3672">
        <ele>145.3</ele>
        <time>2026-08-31T09:53:03Z</time>
      </trkpt>
      <trkpt lat="43.46477" lon="-0.36719">
        <ele>146.3</ele>
        <time>2026-08-31T09:53:03Z</time>
      </trkpt>
      <trkpt lat="43.46477" lon="-0.36719">
        <ele>146.3</ele>
        <time>2026-08-31T09:53:04Z</time>
      </trkpt>
      <trkpt lat="43.46476" lon="-0.36718">
        <ele>146.3</ele>
        <time>2026-08-31T09:53:04Z</time>
      </trkpt>
      <trkpt lat="43.46476" lon="-0.36717">
        <ele>146.3</ele>
        <time>2026-08-31T09:53:05Z</time>
      </trkpt>
      <trkpt lat="43.46476" lon="-0.36716">
        <ele>146.3</ele>
        <time>2026-08-31T09:53:05Z</time>
      </trkpt>
      <trkpt lat="43.46476" lon="-0.36715">
        <ele>145.3</ele>
        <time>2026-08-31T09:53:06Z</time>
      </trkpt>
      <trkpt lat="43.46476" lon="-0.36714">
        <ele>145.3</ele>
        <time>2026-08-31T09:53:06Z</time>
      </trkpt>
      <trkpt lat="43.46476" lon="-0.36713">
        <ele>146.3</ele>
        <time>2026-08-31T09:53:07Z</time>
      </trkpt>
      <trkpt lat="43.46475" lon="-0.36712">
        <ele>146.3</ele>
        <time>2026-08-31T09:53:07Z</time>
      </trkpt>
      <trkpt lat="43.46475" lon="-0.36712">
        <ele>146.3</ele>
        <time>2026-08-31T09:53:08Z</time>
      </trkpt>
      <trkpt lat="43.46475" lon="-0.36711">
        <ele>146.3</ele>
        <time>2026-08-31T09:53:08Z</time>
      </trkpt>
      <trkpt lat="43.46475" lon="-0.3671">
        <ele>146.3</ele>
        <time>2026-08-31T09:53:09Z</time>
      </trkpt>
      <trkpt lat="43.46475" lon="-0.36709">
        <ele>146.3</ele>
        <time>2026-08-31T09:53:10Z</time>
      </trkpt>
      <trkpt lat="43.46475" lon="-0.36708">
        <ele>146.3</ele>
        <time>2026-08-31T09:53:10Z</time>
      </trkpt>
      <trkpt lat="43.46475" lon="-0.36708">
        <ele>146.3</ele>
        <time>2026-08-31T09:53:11Z</time>
      </trkpt>
      <trkpt lat="43.46474" lon="-0.36707">
        <ele>146.3</ele>
        <time>2026-08-31T09:53:11Z</time>
      </trkpt>
      <trkpt lat="43.46474" lon="-0.36706">
        <ele>146.3</ele>
        <time>2026-08-31T09:53:12Z</time>
      </trkpt>
      <trkpt lat="43.46474" lon="-0.36705">
        <ele>146.3</ele>
        <time>2026-08-31T09:53:12Z</time>
      </trkpt>
      <trkpt lat="43.46474" lon="-0.36705">
        <ele>145.3</ele>
        <time>2026-08-31T09:53:13Z</time>
      </trkpt>
      <trkpt lat="43.46473" lon="-0.36704">
        <ele>145.3</ele>
        <time>2026-08-31T09:53:13Z</time>
      </trkpt>
      <trkpt lat="43.46473" lon="-0.36704">
        <ele>145.3</ele>
        <time>2026-08-31T09:53:14Z</time>
      </trkpt>
      <trkpt lat="43.46473" lon="-0.36703">
        <ele>145.3</ele>
        <time>2026-08-31T09:53:14Z</time>
      </trkpt>
      <trkpt lat="43.46473" lon="-0.36702">
        <ele>146.3</ele>
        <time>2026-08-31T09:53:15Z</time>
      </trkpt>
      <trkpt lat="43.46472" lon="-0.36701">
        <ele>146.3</ele>
        <time>2026-08-31T09:53:15Z</time>
      </trkpt>
      <trkpt lat="43.46472" lon="-0.36701">
        <ele>145.3</ele>
        <time>2026-08-31T09:53:16Z</time>
      </trkpt>
      <trkpt lat="43.46472" lon="-0.367">
        <ele>145.3</ele>
        <time>2026-08-31T09:53:16Z</time>
      </trkpt>
      <trkpt lat="43.46472" lon="-0.36699">
        <ele>145.3</ele>
        <time>2026-08-31T09:53:17Z</time>
      </trkpt>
      <trkpt lat="43.46472" lon="-0.36698">
        <ele>145.3</ele>
        <time>2026-08-31T09:53:17Z</time>
      </trkpt>
      <trkpt lat="43.46472" lon="-0.36697">
        <ele>146.3</ele>
        <time>2026-08-31T09:53:18Z</time>
      </trkpt>
      <trkpt lat="43.46471" lon="-0.36696">
        <ele>146.3</ele>
        <time>2026-08-31T09:53:19Z</time>
      </trkpt>
      <trkpt lat="43.46471" lon="-0.36695">
        <ele>145.3</ele>
        <time>2026-08-31T09:53:19Z</time>
      </trkpt>
      <trkpt lat="43.46471" lon="-0.36694">
        <ele>145.3</ele>
        <time>2026-08-31T09:53:20Z</time>
      </trkpt>
      <trkpt lat="43.46471" lon="-0.36694">
        <ele>145.3</ele>
        <time>2026-08-31T09:53:20Z</time>
      </trkpt>
      <trkpt lat="43.46471" lon="-0.36693">
        <ele>145.3</ele>
        <time>2026-08-31T09:53:21Z</time>
      </trkpt>
      <trkpt lat="43.46471" lon="-0.36692">
        <ele>145.3</ele>
        <time>2026-08-31T09:53:21Z</time>
      </trkpt>
      <trkpt lat="43.46471" lon="-0.36691">
        <ele>145.3</ele>
        <time>2026-08-31T09:53:22Z</time>
      </trkpt>
      <trkpt lat="43.46471" lon="-0.3669">
        <ele>145.3</ele>
        <time>2026-08-31T09:53:22Z</time>
      </trkpt>
      <trkpt lat="43.46471" lon="-0.36689">
        <ele>144.3</ele>
        <time>2026-08-31T09:53:23Z</time>
      </trkpt>
      <trkpt lat="43.46471" lon="-0.36688">
        <ele>144.3</ele>
        <time>2026-08-31T09:53:23Z</time>
      </trkpt>
      <trkpt lat="43.4647" lon="-0.36687">
        <ele>144.3</ele>
        <time>2026-08-31T09:53:24Z</time>
      </trkpt>
      <trkpt lat="43.4647" lon="-0.36686">
        <ele>144.3</ele>
        <time>2026-08-31T09:53:24Z</time>
      </trkpt>
      <trkpt lat="43.4647" lon="-0.36685">
        <ele>144.3</ele>
        <time>2026-08-31T09:53:25Z</time>
      </trkpt>
      <trkpt lat="43.4647" lon="-0.36684">
        <ele>144.3</ele>
        <time>2026-08-31T09:53:25Z</time>
      </trkpt>
      <trkpt lat="43.4647" lon="-0.36683">
        <ele>144.3</ele>
        <time>2026-08-31T09:53:26Z</time>
      </trkpt>
      <trkpt lat="43.4647" lon="-0.36682">
        <ele>144.3</ele>
        <time>2026-08-31T09:53:26Z</time>
      </trkpt>
      <trkpt lat="43.4647" lon="-0.36681">
        <ele>144.3</ele>
        <time>2026-08-31T09:53:27Z</time>
      </trkpt>
      <trkpt lat="43.4647" lon="-0.3668">
        <ele>144.3</ele>
        <time>2026-08-31T09:53:28Z</time>
      </trkpt>
      <trkpt lat="43.4647" lon="-0.36679">
        <ele>144.3</ele>
        <time>2026-08-31T09:53:28Z</time>
      </trkpt>
      <trkpt lat="43.46469" lon="-0.36678">
        <ele>144.3</ele>
        <time>2026-08-31T09:53:29Z</time>
      </trkpt>
      <trkpt lat="43.46469" lon="-0.36677">
        <ele>144.3</ele>
        <time>2026-08-31T09:53:29Z</time>
      </trkpt>
      <trkpt lat="43.46469" lon="-0.36676">
        <ele>144.3</ele>
        <time>2026-08-31T09:53:30Z</time>
      </trkpt>
      <trkpt lat="43.46469" lon="-0.36675">
        <ele>144.3</ele>
        <time>2026-08-31T09:53:30Z</time>
      </trkpt>
      <trkpt lat="43.46469" lon="-0.36674">
        <ele>143.3</ele>
        <time>2026-08-31T09:53:31Z</time>
      </trkpt>
      <trkpt lat="43.46469" lon="-0.36673">
        <ele>143.3</ele>
        <time>2026-08-31T09:53:31Z</time>
      </trkpt>
      <trkpt lat="43.46469" lon="-0.36672">
        <ele>143.3</ele>
        <time>2026-08-31T09:53:32Z</time>
      </trkpt>
      <trkpt lat="43.46469" lon="-0.36671">
        <ele>143.3</ele>
        <time>2026-08-31T09:53:32Z</time>
      </trkpt>
      <trkpt lat="43.46468" lon="-0.3667">
        <ele>143.3</ele>
        <time>2026-08-31T09:53:33Z</time>
      </trkpt>
      <trkpt lat="43.46468" lon="-0.36669">
        <ele>143.3</ele>
        <time>2026-08-31T09:53:33Z</time>
      </trkpt>
      <trkpt lat="43.46468" lon="-0.36668">
        <ele>143.3</ele>
        <time>2026-08-31T09:53:34Z</time>
      </trkpt>
      <trkpt lat="43.46468" lon="-0.36667">
        <ele>143.3</ele>
        <time>2026-08-31T09:53:34Z</time>
      </trkpt>
      <trkpt lat="43.46468" lon="-0.36666">
        <ele>143.3</ele>
        <time>2026-08-31T09:53:35Z</time>
      </trkpt>
      <trkpt lat="43.46468" lon="-0.36666">
        <ele>143.3</ele>
        <time>2026-08-31T09:53:36Z</time>
      </trkpt>
      <trkpt lat="43.46468" lon="-0.36665">
        <ele>144.3</ele>
        <time>2026-08-31T09:53:36Z</time>
      </trkpt>
      <trkpt lat="43.46468" lon="-0.36664">
        <ele>144.3</ele>
        <time>2026-08-31T09:53:37Z</time>
      </trkpt>
      <trkpt lat="43.46468" lon="-0.36663">
        <ele>144.3</ele>
        <time>2026-08-31T09:53:37Z</time>
      </trkpt>
      <trkpt lat="43.46467" lon="-0.36662">
        <ele>144.3</ele>
        <time>2026-08-31T09:53:38Z</time>
      </trkpt>
      <trkpt lat="43.46467" lon="-0.36661">
        <ele>143.3</ele>
        <time>2026-08-31T09:53:38Z</time>
      </trkpt>
      <trkpt lat="43.46467" lon="-0.3666">
        <ele>143.3</ele>
        <time>2026-08-31T09:53:39Z</time>
      </trkpt>
      <trkpt lat="43.46467" lon="-0.36659">
        <ele>143.3</ele>
        <time>2026-08-31T09:53:39Z</time>
      </trkpt>
      <trkpt lat="43.46467" lon="-0.36658">
        <ele>143.3</ele>
        <time>2026-08-31T09:53:40Z</time>
      </trkpt>
      <trkpt lat="43.46467" lon="-0.36657">
        <ele>143.3</ele>
        <time>2026-08-31T09:53:40Z</time>
      </trkpt>
      <trkpt lat="43.46467" lon="-0.36656">
        <ele>143.3</ele>
        <time>2026-08-31T09:53:41Z</time>
      </trkpt>
      <trkpt lat="43.46467" lon="-0.36655">
        <ele>143.3</ele>
        <time>2026-08-31T09:53:41Z</time>
      </trkpt>
      <trkpt lat="43.46467" lon="-0.36654">
        <ele>143.3</ele>
        <time>2026-08-31T09:53:42Z</time>
      </trkpt>
      <trkpt lat="43.46467" lon="-0.36653">
        <ele>143.3</ele>
        <time>2026-08-31T09:53:42Z</time>
      </trkpt>
      <trkpt lat="43.46467" lon="-0.36652">
        <ele>144.3</ele>
        <time>2026-08-31T09:53:43Z</time>
      </trkpt>
      <trkpt lat="43.46467" lon="-0.36651">
        <ele>144.3</ele>
        <time>2026-08-31T09:53:43Z</time>
      </trkpt>
      <trkpt lat="43.46467" lon="-0.3665">
        <ele>144.3</ele>
        <time>2026-08-31T09:53:44Z</time>
      </trkpt>
      <trkpt lat="43.46466" lon="-0.36649">
        <ele>144.3</ele>
        <time>2026-08-31T09:53:45Z</time>
      </trkpt>
      <trkpt lat="43.46466" lon="-0.36648">
        <ele>143.3</ele>
        <time>2026-08-31T09:53:45Z</time>
      </trkpt>
      <trkpt lat="43.46466" lon="-0.36647">
        <ele>143.3</ele>
        <time>2026-08-31T09:53:46Z</time>
      </trkpt>
      <trkpt lat="43.46466" lon="-0.36646">
        <ele>143.3</ele>
        <time>2026-08-31T09:53:46Z</time>
      </trkpt>
      <trkpt lat="43.46466" lon="-0.36645">
        <ele>143.3</ele>
        <time>2026-08-31T09:53:47Z</time>
      </trkpt>
      <trkpt lat="43.46466" lon="-0.36644">
        <ele>143.3</ele>
        <time>2026-08-31T09:53:47Z</time>
      </trkpt>
      <trkpt lat="43.46466" lon="-0.36643">
        <ele>143.3</ele>
        <time>2026-08-31T09:53:48Z</time>
      </trkpt>
      <trkpt lat="43.46466" lon="-0.36642">
        <ele>143.3</ele>
        <time>2026-08-31T09:53:48Z</time>
      </trkpt>
      <trkpt lat="43.46466" lon="-0.36642">
        <ele>144.3</ele>
        <time>2026-08-31T09:53:49Z</time>
      </trkpt>
      <trkpt lat="43.46466" lon="-0.36641">
        <ele>144.3</ele>
        <time>2026-08-31T09:53:49Z</time>
      </trkpt>
      <trkpt lat="43.46466" lon="-0.3664">
        <ele>144.3</ele>
        <time>2026-08-31T09:53:50Z</time>
      </trkpt>
      <trkpt lat="43.46466" lon="-0.36639">
        <ele>144.3</ele>
        <time>2026-08-31T09:53:50Z</time>
      </trkpt>
      <trkpt lat="43.46466" lon="-0.36638">
        <ele>144.3</ele>
        <time>2026-08-31T09:53:51Z</time>
      </trkpt>
      <trkpt lat="43.46465" lon="-0.36637">
        <ele>144.3</ele>
        <time>2026-08-31T09:53:51Z</time>
      </trkpt>
      <trkpt lat="43.46465" lon="-0.36636">
        <ele>144.3</ele>
        <time>2026-08-31T09:53:52Z</time>
      </trkpt>
      <trkpt lat="43.46465" lon="-0.36635">
        <ele>144.3</ele>
        <time>2026-08-31T09:53:53Z</time>
      </trkpt>
      <trkpt lat="43.46465" lon="-0.36634">
        <ele>145.3</ele>
        <time>2026-08-31T09:53:53Z</time>
      </trkpt>
      <trkpt lat="43.46465" lon="-0.36633">
        <ele>145.3</ele>
        <time>2026-08-31T09:53:54Z</time>
      </trkpt>
      <trkpt lat="43.46465" lon="-0.36632">
        <ele>144.3</ele>
        <time>2026-08-31T09:53:54Z</time>
      </trkpt>
      <trkpt lat="43.46465" lon="-0.36632">
        <ele>144.3</ele>
        <time>2026-08-31T09:53:55Z</time>
      </trkpt>
      <trkpt lat="43.46465" lon="-0.36631">
        <ele>144.3</ele>
        <time>2026-08-31T09:53:55Z</time>
      </trkpt>
      <trkpt lat="43.46465" lon="-0.3663">
        <ele>144.3</ele>
        <time>2026-08-31T09:53:56Z</time>
      </trkpt>
      <trkpt lat="43.46465" lon="-0.36629">
        <ele>144.3</ele>
        <time>2026-08-31T09:53:56Z</time>
      </trkpt>
      <trkpt lat="43.46465" lon="-0.36628">
        <ele>144.3</ele>
        <time>2026-08-31T09:53:57Z</time>
      </trkpt>
      <trkpt lat="43.46465" lon="-0.36627">
        <ele>144.3</ele>
        <time>2026-08-31T09:53:57Z</time>
      </trkpt>
      <trkpt lat="43.46465" lon="-0.36626">
        <ele>144.3</ele>
        <time>2026-08-31T09:53:58Z</time>
      </trkpt>
      <trkpt lat="43.46465" lon="-0.36625">
        <ele>144.3</ele>
        <time>2026-08-31T09:53:58Z</time>
      </trkpt>
      <trkpt lat="43.46465" lon="-0.36624">
        <ele>144.3</ele>
        <time>2026-08-31T09:53:59Z</time>
      </trkpt>
      <trkpt lat="43.46465" lon="-0.36624">
        <ele>144.3</ele>
        <time>2026-08-31T09:53:59Z</time>
      </trkpt>
      <trkpt lat="43.46465" lon="-0.36623">
        <ele>144.3</ele>
        <time>2026-08-31T09:54:00Z</time>
      </trkpt>
      <trkpt lat="43.46465" lon="-0.36622">
        <ele>144.3</ele>
        <time>2026-08-31T09:54:01Z</time>
      </trkpt>
      <trkpt lat="43.46465" lon="-0.36621">
        <ele>144.3</ele>
        <time>2026-08-31T09:54:01Z</time>
      </trkpt>
      <trkpt lat="43.46465" lon="-0.3662">
        <ele>144.3</ele>
        <time>2026-08-31T09:54:02Z</time>
      </trkpt>
      <trkpt lat="43.46465" lon="-0.36619">
        <ele>143.3</ele>
        <time>2026-08-31T09:54:02Z</time>
      </trkpt>
      <trkpt lat="43.46465" lon="-0.36619">
        <ele>143.3</ele>
        <time>2026-08-31T09:54:03Z</time>
      </trkpt>
      <trkpt lat="43.46465" lon="-0.36618">
        <ele>143.3</ele>
        <time>2026-08-31T09:54:03Z</time>
      </trkpt>
      <trkpt lat="43.46465" lon="-0.36617">
        <ele>143.3</ele>
        <time>2026-08-31T09:54:04Z</time>
      </trkpt>
      <trkpt lat="43.46465" lon="-0.36616">
        <ele>143.3</ele>
        <time>2026-08-31T09:54:04Z</time>
      </trkpt>
      <trkpt lat="43.46465" lon="-0.36615">
        <ele>143.3</ele>
        <time>2026-08-31T09:54:05Z</time>
      </trkpt>
      <trkpt lat="43.46465" lon="-0.36614">
        <ele>143.3</ele>
        <time>2026-08-31T09:54:05Z</time>
      </trkpt>
      <trkpt lat="43.46466" lon="-0.36613">
        <ele>143.3</ele>
        <time>2026-08-31T09:54:06Z</time>
      </trkpt>
      <trkpt lat="43.46465" lon="-0.36612">
        <ele>143.3</ele>
        <time>2026-08-31T09:54:06Z</time>
      </trkpt>
      <trkpt lat="43.46466" lon="-0.36611">
        <ele>143.3</ele>
        <time>2026-08-31T09:54:07Z</time>
      </trkpt>
      <trkpt lat="43.46466" lon="-0.3661">
        <ele>143.3</ele>
        <time>2026-08-31T09:54:08Z</time>
      </trkpt>
      <trkpt lat="43.46466" lon="-0.36609">
        <ele>143.3</ele>
        <time>2026-08-31T09:54:08Z</time>
      </trkpt>
      <trkpt lat="43.46466" lon="-0.36608">
        <ele>143.3</ele>
        <time>2026-08-31T09:54:09Z</time>
      </trkpt>
      <trkpt lat="43.46466" lon="-0.36607">
        <ele>143.3</ele>
        <time>2026-08-31T09:54:09Z</time>
      </trkpt>
      <trkpt lat="43.46466" lon="-0.36607">
        <ele>142.3</ele>
        <time>2026-08-31T09:54:10Z</time>
      </trkpt>
      <trkpt lat="43.46466" lon="-0.36606">
        <ele>142.3</ele>
        <time>2026-08-31T09:54:10Z</time>
      </trkpt>
      <trkpt lat="43.46466" lon="-0.36605">
        <ele>142.3</ele>
        <time>2026-08-31T09:54:11Z</time>
      </trkpt>
      <trkpt lat="43.46466" lon="-0.36604">
        <ele>142.3</ele>
        <time>2026-08-31T09:54:11Z</time>
      </trkpt>
      <trkpt lat="43.46466" lon="-0.36603">
        <ele>142.3</ele>
        <time>2026-08-31T09:54:12Z</time>
      </trkpt>
      <trkpt lat="43.46466" lon="-0.36602">
        <ele>142.3</ele>
        <time>2026-08-31T09:54:12Z</time>
      </trkpt>
      <trkpt lat="43.46466" lon="-0.36601">
        <ele>142.3</ele>
        <time>2026-08-31T09:54:13Z</time>
      </trkpt>
      <trkpt lat="43.46467" lon="-0.366">
        <ele>142.3</ele>
        <time>2026-08-31T09:54:14Z</time>
      </trkpt>
      <trkpt lat="43.46467" lon="-0.36599">
        <ele>143.3</ele>
        <time>2026-08-31T09:54:14Z</time>
      </trkpt>
      <trkpt lat="43.46467" lon="-0.36598">
        <ele>143.3</ele>
        <time>2026-08-31T09:54:15Z</time>
      </trkpt>
      <trkpt lat="43.46467" lon="-0.36598">
        <ele>142.3</ele>
        <time>2026-08-31T09:54:15Z</time>
      </trkpt>
      <trkpt lat="43.46467" lon="-0.36597">
        <ele>142.3</ele>
        <time>2026-08-31T09:54:16Z</time>
      </trkpt>
      <trkpt lat="43.46467" lon="-0.36596">
        <ele>142.3</ele>
        <time>2026-08-31T09:54:16Z</time>
      </trkpt>
      <trkpt lat="43.46467" lon="-0.36595">
        <ele>141.3</ele>
        <time>2026-08-31T09:54:17Z</time>
      </trkpt>
      <trkpt lat="43.46467" lon="-0.36594">
        <ele>141.3</ele>
        <time>2026-08-31T09:54:17Z</time>
      </trkpt>
      <trkpt lat="43.46467" lon="-0.36593">
        <ele>142.3</ele>
        <time>2026-08-31T09:54:18Z</time>
      </trkpt>
      <trkpt lat="43.46467" lon="-0.36592">
        <ele>142.3</ele>
        <time>2026-08-31T09:54:18Z</time>
      </trkpt>
      <trkpt lat="43.46467" lon="-0.36591">
        <ele>142.3</ele>
        <time>2026-08-31T09:54:19Z</time>
      </trkpt>
      <trkpt lat="43.46467" lon="-0.3659">
        <ele>142.3</ele>
        <time>2026-08-31T09:54:19Z</time>
      </trkpt>
      <trkpt lat="43.46467" lon="-0.3659">
        <ele>142.3</ele>
        <time>2026-08-31T09:54:20Z</time>
      </trkpt>
      <trkpt lat="43.46466" lon="-0.36589">
        <ele>142.3</ele>
        <time>2026-08-31T09:54:21Z</time>
      </trkpt>
      <trkpt lat="43.46466" lon="-0.36588">
        <ele>142.3</ele>
        <time>2026-08-31T09:54:21Z</time>
      </trkpt>
      <trkpt lat="43.46466" lon="-0.36587">
        <ele>142.3</ele>
        <time>2026-08-31T09:54:22Z</time>
      </trkpt>
      <trkpt lat="43.46466" lon="-0.36586">
        <ele>142.3</ele>
        <time>2026-08-31T09:54:22Z</time>
      </trkpt>
      <trkpt lat="43.46466" lon="-0.36585">
        <ele>141.3</ele>
        <time>2026-08-31T09:54:23Z</time>
      </trkpt>
      <trkpt lat="43.46466" lon="-0.36584">
        <ele>141.3</ele>
        <time>2026-08-31T09:54:23Z</time>
      </trkpt>
      <trkpt lat="43.46466" lon="-0.36583">
        <ele>141.3</ele>
        <time>2026-08-31T09:54:24Z</time>
      </trkpt>
      <trkpt lat="43.46466" lon="-0.36581">
        <ele>141.3</ele>
        <time>2026-08-31T09:54:25Z</time>
      </trkpt>
      <trkpt lat="43.46466" lon="-0.3658">
        <ele>141.3</ele>
        <time>2026-08-31T09:54:25Z</time>
      </trkpt>
      <trkpt lat="43.46467" lon="-0.36579">
        <ele>141.3</ele>
        <time>2026-08-31T09:54:26Z</time>
      </trkpt>
      <trkpt lat="43.46467" lon="-0.36578">
        <ele>141.3</ele>
        <time>2026-08-31T09:54:26Z</time>
      </trkpt>
      <trkpt lat="43.46467" lon="-0.36577">
        <ele>141.3</ele>
        <time>2026-08-31T09:54:27Z</time>
      </trkpt>
      <trkpt lat="43.46467" lon="-0.36576">
        <ele>141.3</ele>
        <time>2026-08-31T09:54:27Z</time>
      </trkpt>
      <trkpt lat="43.46467" lon="-0.36575">
        <ele>141.3</ele>
        <time>2026-08-31T09:54:28Z</time>
      </trkpt>
      <trkpt lat="43.46467" lon="-0.36574">
        <ele>141.3</ele>
        <time>2026-08-31T09:54:28Z</time>
      </trkpt>
      <trkpt lat="43.46467" lon="-0.36573">
        <ele>141.3</ele>
        <time>2026-08-31T09:54:29Z</time>
      </trkpt>
      <trkpt lat="43.46467" lon="-0.36572">
        <ele>141.3</ele>
        <time>2026-08-31T09:54:30Z</time>
      </trkpt>
      <trkpt lat="43.46467" lon="-0.36571">
        <ele>141.3</ele>
        <time>2026-08-31T09:54:30Z</time>
      </trkpt>
      <trkpt lat="43.46468" lon="-0.3657">
        <ele>141.3</ele>
        <time>2026-08-31T09:54:31Z</time>
      </trkpt>
      <trkpt lat="43.46468" lon="-0.36569">
        <ele>141.3</ele>
        <time>2026-08-31T09:54:31Z</time>
      </trkpt>
      <trkpt lat="43.46468" lon="-0.36568">
        <ele>141.3</ele>
        <time>2026-08-31T09:54:32Z</time>
      </trkpt>
      <trkpt lat="43.46468" lon="-0.36567">
        <ele>141.3</ele>
        <time>2026-08-31T09:54:32Z</time>
      </trkpt>
      <trkpt lat="43.46468" lon="-0.36566">
        <ele>141.3</ele>
        <time>2026-08-31T09:54:33Z</time>
      </trkpt>
      <trkpt lat="43.46469" lon="-0.36565">
        <ele>141.3</ele>
        <time>2026-08-31T09:54:33Z</time>
      </trkpt>
      <trkpt lat="43.46469" lon="-0.36564">
        <ele>141.3</ele>
        <time>2026-08-31T09:54:34Z</time>
      </trkpt>
      <trkpt lat="43.46469" lon="-0.36563">
        <ele>141.3</ele>
        <time>2026-08-31T09:54:34Z</time>
      </trkpt>
      <trkpt lat="43.46469" lon="-0.36563">
        <ele>141.3</ele>
        <time>2026-08-31T09:54:35Z</time>
      </trkpt>
      <trkpt lat="43.4647" lon="-0.36562">
        <ele>141.3</ele>
        <time>2026-08-31T09:54:35Z</time>
      </trkpt>
      <trkpt lat="43.4647" lon="-0.36561">
        <ele>141.3</ele>
        <time>2026-08-31T09:54:36Z</time>
      </trkpt>
      <trkpt lat="43.4647" lon="-0.3656">
        <ele>141.3</ele>
        <time>2026-08-31T09:54:36Z</time>
      </trkpt>
      <trkpt lat="43.4647" lon="-0.36559">
        <ele>141.3</ele>
        <time>2026-08-31T09:54:37Z</time>
      </trkpt>
      <trkpt lat="43.4647" lon="-0.36558">
        <ele>141.3</ele>
        <time>2026-08-31T09:54:37Z</time>
      </trkpt>
      <trkpt lat="43.46471" lon="-0.36557">
        <ele>141.3</ele>
        <time>2026-08-31T09:54:38Z</time>
      </trkpt>
      <trkpt lat="43.46471" lon="-0.36556">
        <ele>141.3</ele>
        <time>2026-08-31T09:54:39Z</time>
      </trkpt>
      <trkpt lat="43.46471" lon="-0.36555">
        <ele>142.3</ele>
        <time>2026-08-31T09:54:39Z</time>
      </trkpt>
      <trkpt lat="43.46471" lon="-0.36554">
        <ele>142.3</ele>
        <time>2026-08-31T09:54:40Z</time>
      </trkpt>
      <trkpt lat="43.46471" lon="-0.36552">
        <ele>142.3</ele>
        <time>2026-08-31T09:54:40Z</time>
      </trkpt>
      <trkpt lat="43.46472" lon="-0.36551">
        <ele>142.3</ele>
        <time>2026-08-31T09:54:41Z</time>
      </trkpt>
      <trkpt lat="43.46472" lon="-0.3655">
        <ele>142.3</ele>
        <time>2026-08-31T09:54:41Z</time>
      </trkpt>
      <trkpt lat="43.46472" lon="-0.36549">
        <ele>142.3</ele>
        <time>2026-08-31T09:54:42Z</time>
      </trkpt>
      <trkpt lat="43.46472" lon="-0.36548">
        <ele>142.3</ele>
        <time>2026-08-31T09:54:42Z</time>
      </trkpt>
      <trkpt lat="43.46472" lon="-0.36547">
        <ele>142.3</ele>
        <time>2026-08-31T09:54:43Z</time>
      </trkpt>
      <trkpt lat="43.46473" lon="-0.36546">
        <ele>142.3</ele>
        <time>2026-08-31T09:54:43Z</time>
      </trkpt>
      <trkpt lat="43.46473" lon="-0.36545">
        <ele>142.3</ele>
        <time>2026-08-31T09:54:44Z</time>
      </trkpt>
      <trkpt lat="43.46473" lon="-0.36544">
        <ele>142.3</ele>
        <time>2026-08-31T09:54:44Z</time>
      </trkpt>
      <trkpt lat="43.46473" lon="-0.36543">
        <ele>142.3</ele>
        <time>2026-08-31T09:54:45Z</time>
      </trkpt>
      <trkpt lat="43.46473" lon="-0.36542">
        <ele>142.3</ele>
        <time>2026-08-31T09:54:45Z</time>
      </trkpt>
      <trkpt lat="43.46474" lon="-0.36541">
        <ele>142.3</ele>
        <time>2026-08-31T09:54:46Z</time>
      </trkpt>
      <trkpt lat="43.46474" lon="-0.3654">
        <ele>142.3</ele>
        <time>2026-08-31T09:54:46Z</time>
      </trkpt>
      <trkpt lat="43.46474" lon="-0.36539">
        <ele>143.3</ele>
        <time>2026-08-31T09:54:47Z</time>
      </trkpt>
      <trkpt lat="43.46474" lon="-0.36538">
        <ele>143.3</ele>
        <time>2026-08-31T09:54:48Z</time>
      </trkpt>
      <trkpt lat="43.46475" lon="-0.36537">
        <ele>143.3</ele>
        <time>2026-08-31T09:54:48Z</time>
      </trkpt>
      <trkpt lat="43.46475" lon="-0.36536">
        <ele>143.3</ele>
        <time>2026-08-31T09:54:49Z</time>
      </trkpt>
      <trkpt lat="43.46475" lon="-0.36535">
        <ele>142.3</ele>
        <time>2026-08-31T09:54:49Z</time>
      </trkpt>
      <trkpt lat="43.46475" lon="-0.36534">
        <ele>142.3</ele>
        <time>2026-08-31T09:54:50Z</time>
      </trkpt>
      <trkpt lat="43.46476" lon="-0.36533">
        <ele>142.3</ele>
        <time>2026-08-31T09:54:50Z</time>
      </trkpt>
      <trkpt lat="43.46476" lon="-0.36532">
        <ele>142.3</ele>
        <time>2026-08-31T09:54:51Z</time>
      </trkpt>
      <trkpt lat="43.46476" lon="-0.36531">
        <ele>142.3</ele>
        <time>2026-08-31T09:54:51Z</time>
      </trkpt>
      <trkpt lat="43.46476" lon="-0.3653">
        <ele>142.3</ele>
        <time>2026-08-31T09:54:52Z</time>
      </trkpt>
      <trkpt lat="43.46476" lon="-0.36529">
        <ele>142.3</ele>
        <time>2026-08-31T09:54:52Z</time>
      </trkpt>
      <trkpt lat="43.46477" lon="-0.36528">
        <ele>143.3</ele>
        <time>2026-08-31T09:54:53Z</time>
      </trkpt>
      <trkpt lat="43.46477" lon="-0.36528">
        <ele>143.3</ele>
        <time>2026-08-31T09:54:53Z</time>
      </trkpt>
      <trkpt lat="43.46477" lon="-0.36527">
        <ele>143.3</ele>
        <time>2026-08-31T09:54:54Z</time>
      </trkpt>
      <trkpt lat="43.46477" lon="-0.36526">
        <ele>143.3</ele>
        <time>2026-08-31T09:54:55Z</time>
      </trkpt>
      <trkpt lat="43.46477" lon="-0.36525">
        <ele>143.3</ele>
        <time>2026-08-31T09:54:55Z</time>
      </trkpt>
      <trkpt lat="43.46478" lon="-0.36524">
        <ele>143.3</ele>
        <time>2026-08-31T09:54:56Z</time>
      </trkpt>
      <trkpt lat="43.46478" lon="-0.36523">
        <ele>143.3</ele>
        <time>2026-08-31T09:54:56Z</time>
      </trkpt>
      <trkpt lat="43.46478" lon="-0.36522">
        <ele>143.3</ele>
        <time>2026-08-31T09:54:57Z</time>
      </trkpt>
      <trkpt lat="43.46478" lon="-0.36521">
        <ele>142.3</ele>
        <time>2026-08-31T09:54:57Z</time>
      </trkpt>
      <trkpt lat="43.46479" lon="-0.3652">
        <ele>142.3</ele>
        <time>2026-08-31T09:54:58Z</time>
      </trkpt>
      <trkpt lat="43.46479" lon="-0.36519">
        <ele>142.3</ele>
        <time>2026-08-31T09:54:58Z</time>
      </trkpt>
      <trkpt lat="43.46479" lon="-0.36518">
        <ele>142.3</ele>
        <time>2026-08-31T09:54:59Z</time>
      </trkpt>
      <trkpt lat="43.46479" lon="-0.36517">
        <ele>142.3</ele>
        <time>2026-08-31T09:54:59Z</time>
      </trkpt>
      <trkpt lat="43.4648" lon="-0.36516">
        <ele>142.3</ele>
        <time>2026-08-31T09:55:00Z</time>
      </trkpt>
      <trkpt lat="43.4648" lon="-0.36515">
        <ele>142.3</ele>
        <time>2026-08-31T09:55:00Z</time>
      </trkpt>
      <trkpt lat="43.4648" lon="-0.36514">
        <ele>142.3</ele>
        <time>2026-08-31T09:55:01Z</time>
      </trkpt>
      <trkpt lat="43.4648" lon="-0.36513">
        <ele>142.3</ele>
        <time>2026-08-31T09:55:01Z</time>
      </trkpt>
      <trkpt lat="43.46481" lon="-0.36512">
        <ele>143.3</ele>
        <time>2026-08-31T09:55:02Z</time>
      </trkpt>
      <trkpt lat="43.46481" lon="-0.36511">
        <ele>143.3</ele>
        <time>2026-08-31T09:55:03Z</time>
      </trkpt>
      <trkpt lat="43.46481" lon="-0.36511">
        <ele>144.3</ele>
        <time>2026-08-31T09:55:03Z</time>
      </trkpt>
      <trkpt lat="43.46482" lon="-0.3651">
        <ele>144.3</ele>
        <time>2026-08-31T09:55:04Z</time>
      </trkpt>
      <trkpt lat="43.46482" lon="-0.36509">
        <ele>144.3</ele>
        <time>2026-08-31T09:55:04Z</time>
      </trkpt>
      <trkpt lat="43.46482" lon="-0.36508">
        <ele>144.3</ele>
        <time>2026-08-31T09:55:05Z</time>
      </trkpt>
      <trkpt lat="43.46482" lon="-0.36507">
        <ele>143.3</ele>
        <time>2026-08-31T09:55:05Z</time>
      </trkpt>
      <trkpt lat="43.46483" lon="-0.36506">
        <ele>143.3</ele>
        <time>2026-08-31T09:55:06Z</time>
      </trkpt>
      <trkpt lat="43.46483" lon="-0.36505">
        <ele>143.3</ele>
        <time>2026-08-31T09:55:06Z</time>
      </trkpt>
      <trkpt lat="43.46483" lon="-0.36505">
        <ele>143.3</ele>
        <time>2026-08-31T09:55:07Z</time>
      </trkpt>
      <trkpt lat="43.46483" lon="-0.36504">
        <ele>143.3</ele>
        <time>2026-08-31T09:55:07Z</time>
      </trkpt>
      <trkpt lat="43.46483" lon="-0.36503">
        <ele>143.3</ele>
        <time>2026-08-31T09:55:08Z</time>
      </trkpt>
      <trkpt lat="43.46483" lon="-0.36502">
        <ele>143.3</ele>
        <time>2026-08-31T09:55:08Z</time>
      </trkpt>
      <trkpt lat="43.46484" lon="-0.36501">
        <ele>143.3</ele>
        <time>2026-08-31T09:55:09Z</time>
      </trkpt>
      <trkpt lat="43.46484" lon="-0.365">
        <ele>143.3</ele>
        <time>2026-08-31T09:55:09Z</time>
      </trkpt>
      <trkpt lat="43.46484" lon="-0.36499">
        <ele>142.3</ele>
        <time>2026-08-31T09:55:10Z</time>
      </trkpt>
      <trkpt lat="43.46484" lon="-0.36498">
        <ele>142.3</ele>
        <time>2026-08-31T09:55:10Z</time>
      </trkpt>
      <trkpt lat="43.46484" lon="-0.36497">
        <ele>142.3</ele>
        <time>2026-08-31T09:55:11Z</time>
      </trkpt>
      <trkpt lat="43.46484" lon="-0.36496">
        <ele>142.3</ele>
        <time>2026-08-31T09:55:11Z</time>
      </trkpt>
      <trkpt lat="43.46484" lon="-0.36496">
        <ele>142.3</ele>
        <time>2026-08-31T09:55:12Z</time>
      </trkpt>
      <trkpt lat="43.46485" lon="-0.36495">
        <ele>142.3</ele>
        <time>2026-08-31T09:55:13Z</time>
      </trkpt>
      <trkpt lat="43.46485" lon="-0.36494">
        <ele>142.3</ele>
        <time>2026-08-31T09:55:13Z</time>
      </trkpt>
      <trkpt lat="43.46485" lon="-0.36493">
        <ele>142.3</ele>
        <time>2026-08-31T09:55:14Z</time>
      </trkpt>
      <trkpt lat="43.46486" lon="-0.36492">
        <ele>142.3</ele>
        <time>2026-08-31T09:55:14Z</time>
      </trkpt>
      <trkpt lat="43.46486" lon="-0.36491">
        <ele>142.3</ele>
        <time>2026-08-31T09:55:15Z</time>
      </trkpt>
      <trkpt lat="43.46486" lon="-0.3649">
        <ele>141.3</ele>
        <time>2026-08-31T09:55:15Z</time>
      </trkpt>
      <trkpt lat="43.46487" lon="-0.36489">
        <ele>141.3</ele>
        <time>2026-08-31T09:55:16Z</time>
      </trkpt>
      <trkpt lat="43.46487" lon="-0.36488">
        <ele>141.3</ele>
        <time>2026-08-31T09:55:16Z</time>
      </trkpt>
      <trkpt lat="43.46487" lon="-0.36488">
        <ele>140.3</ele>
        <time>2026-08-31T09:55:17Z</time>
      </trkpt>
      <trkpt lat="43.46488" lon="-0.36487">
        <ele>140.3</ele>
        <time>2026-08-31T09:55:17Z</time>
      </trkpt>
      <trkpt lat="43.46488" lon="-0.36486">
        <ele>140.3</ele>
        <time>2026-08-31T09:55:18Z</time>
      </trkpt>
      <trkpt lat="43.46488" lon="-0.36485">
        <ele>140.3</ele>
        <time>2026-08-31T09:55:18Z</time>
      </trkpt>
      <trkpt lat="43.46489" lon="-0.36484">
        <ele>141.3</ele>
        <time>2026-08-31T09:55:19Z</time>
      </trkpt>
      <trkpt lat="43.46489" lon="-0.36483">
        <ele>141.3</ele>
        <time>2026-08-31T09:55:19Z</time>
      </trkpt>
      <trkpt lat="43.46489" lon="-0.36482">
        <ele>141.3</ele>
        <time>2026-08-31T09:55:20Z</time>
      </trkpt>
      <trkpt lat="43.4649" lon="-0.36481">
        <ele>141.3</ele>
        <time>2026-08-31T09:55:20Z</time>
      </trkpt>
      <trkpt lat="43.4649" lon="-0.36481">
        <ele>141.3</ele>
        <time>2026-08-31T09:55:21Z</time>
      </trkpt>
      <trkpt lat="43.4649" lon="-0.3648">
        <ele>141.3</ele>
        <time>2026-08-31T09:55:21Z</time>
      </trkpt>
      <trkpt lat="43.46491" lon="-0.36479">
        <ele>141.3</ele>
        <time>2026-08-31T09:55:22Z</time>
      </trkpt>
      <trkpt lat="43.46491" lon="-0.36478">
        <ele>141.3</ele>
        <time>2026-08-31T09:55:23Z</time>
      </trkpt>
      <trkpt lat="43.46491" lon="-0.36477">
        <ele>140.3</ele>
        <time>2026-08-31T09:55:23Z</time>
      </trkpt>
      <trkpt lat="43.46492" lon="-0.36476">
        <ele>140.3</ele>
        <time>2026-08-31T09:55:24Z</time>
      </trkpt>
      <trkpt lat="43.46492" lon="-0.36476">
        <ele>140.3</ele>
        <time>2026-08-31T09:55:24Z</time>
      </trkpt>
      <trkpt lat="43.46492" lon="-0.36475">
        <ele>140.3</ele>
        <time>2026-08-31T09:55:25Z</time>
      </trkpt>
      <trkpt lat="43.46493" lon="-0.36474">
        <ele>139.3</ele>
        <time>2026-08-31T09:55:25Z</time>
      </trkpt>
      <trkpt lat="43.46493" lon="-0.36473">
        <ele>139.3</ele>
        <time>2026-08-31T09:55:26Z</time>
      </trkpt>
      <trkpt lat="43.46493" lon="-0.36472">
        <ele>139.3</ele>
        <time>2026-08-31T09:55:26Z</time>
      </trkpt>
      <trkpt lat="43.46493" lon="-0.36472">
        <ele>139.3</ele>
        <time>2026-08-31T09:55:27Z</time>
      </trkpt>
      <trkpt lat="43.46494" lon="-0.36471">
        <ele>139.3</ele>
        <time>2026-08-31T09:55:27Z</time>
      </trkpt>
      <trkpt lat="43.46494" lon="-0.3647">
        <ele>139.3</ele>
        <time>2026-08-31T09:55:28Z</time>
      </trkpt>
      <trkpt lat="43.46494" lon="-0.36469">
        <ele>139.3</ele>
        <time>2026-08-31T09:55:28Z</time>
      </trkpt>
      <trkpt lat="43.46495" lon="-0.36468">
        <ele>139.3</ele>
        <time>2026-08-31T09:55:29Z</time>
      </trkpt>
      <trkpt lat="43.46495" lon="-0.36467">
        <ele>139.3</ele>
        <time>2026-08-31T09:55:29Z</time>
      </trkpt>
      <trkpt lat="43.46495" lon="-0.36467">
        <ele>139.3</ele>
        <time>2026-08-31T09:55:30Z</time>
      </trkpt>
      <trkpt lat="43.46496" lon="-0.36466">
        <ele>139.3</ele>
        <time>2026-08-31T09:55:30Z</time>
      </trkpt>
      <trkpt lat="43.46496" lon="-0.36465">
        <ele>138.3</ele>
        <time>2026-08-31T09:55:31Z</time>
      </trkpt>
      <trkpt lat="43.46497" lon="-0.36464">
        <ele>138.3</ele>
        <time>2026-08-31T09:55:31Z</time>
      </trkpt>
      <trkpt lat="43.46497" lon="-0.36463">
        <ele>139.3</ele>
        <time>2026-08-31T09:55:32Z</time>
      </trkpt>
      <trkpt lat="43.46498" lon="-0.36462">
        <ele>139.3</ele>
        <time>2026-08-31T09:55:32Z</time>
      </trkpt>
      <trkpt lat="43.46498" lon="-0.36462">
        <ele>138.3</ele>
        <time>2026-08-31T09:55:33Z</time>
      </trkpt>
      <trkpt lat="43.46498" lon="-0.36461">
        <ele>138.3</ele>
        <time>2026-08-31T09:55:34Z</time>
      </trkpt>
      <trkpt lat="43.46499" lon="-0.3646">
        <ele>138.3</ele>
        <time>2026-08-31T09:55:34Z</time>
      </trkpt>
      <trkpt lat="43.46499" lon="-0.36459">
        <ele>138.3</ele>
        <time>2026-08-31T09:55:35Z</time>
      </trkpt>
      <trkpt lat="43.465" lon="-0.36458">
        <ele>138.3</ele>
        <time>2026-08-31T09:55:35Z</time>
      </trkpt>
      <trkpt lat="43.465" lon="-0.36457">
        <ele>138.3</ele>
        <time>2026-08-31T09:55:36Z</time>
      </trkpt>
      <trkpt lat="43.46501" lon="-0.36457">
        <ele>138.3</ele>
        <time>2026-08-31T09:55:36Z</time>
      </trkpt>
      <trkpt lat="43.46501" lon="-0.36456">
        <ele>137.3</ele>
        <time>2026-08-31T09:55:37Z</time>
      </trkpt>
      <trkpt lat="43.46502" lon="-0.36455">
        <ele>137.3</ele>
        <time>2026-08-31T09:55:37Z</time>
      </trkpt>
      <trkpt lat="43.46502" lon="-0.36455">
        <ele>137.3</ele>
        <time>2026-08-31T09:55:38Z</time>
      </trkpt>
      <trkpt lat="43.46502" lon="-0.36454">
        <ele>137.3</ele>
        <time>2026-08-31T09:55:38Z</time>
      </trkpt>
      <trkpt lat="43.46503" lon="-0.36453">
        <ele>137.3</ele>
        <time>2026-08-31T09:55:39Z</time>
      </trkpt>
      <trkpt lat="43.46503" lon="-0.36452">
        <ele>137.3</ele>
        <time>2026-08-31T09:55:39Z</time>
      </trkpt>
      <trkpt lat="43.46504" lon="-0.36452">
        <ele>137.3</ele>
        <time>2026-08-31T09:55:40Z</time>
      </trkpt>
      <trkpt lat="43.46504" lon="-0.36451">
        <ele>137.3</ele>
        <time>2026-08-31T09:55:40Z</time>
      </trkpt>
      <trkpt lat="43.46504" lon="-0.36451">
        <ele>136.3</ele>
        <time>2026-08-31T09:55:41Z</time>
      </trkpt>
      <trkpt lat="43.46505" lon="-0.3645">
        <ele>136.3</ele>
        <time>2026-08-31T09:55:41Z</time>
      </trkpt>
      <trkpt lat="43.46505" lon="-0.36449">
        <ele>136.3</ele>
        <time>2026-08-31T09:55:42Z</time>
      </trkpt>
      <trkpt lat="43.46506" lon="-0.36448">
        <ele>136.3</ele>
        <time>2026-08-31T09:55:42Z</time>
      </trkpt>
      <trkpt lat="43.46506" lon="-0.36448">
        <ele>136.3</ele>
        <time>2026-08-31T09:55:43Z</time>
      </trkpt>
      <trkpt lat="43.46507" lon="-0.36447">
        <ele>136.3</ele>
        <time>2026-08-31T09:55:44Z</time>
      </trkpt>
      <trkpt lat="43.46507" lon="-0.36446">
        <ele>136.3</ele>
        <time>2026-08-31T09:55:44Z</time>
      </trkpt>
      <trkpt lat="43.46508" lon="-0.36446">
        <ele>136.3</ele>
        <time>2026-08-31T09:55:45Z</time>
      </trkpt>
      <trkpt lat="43.46508" lon="-0.36445">
        <ele>136.3</ele>
        <time>2026-08-31T09:55:45Z</time>
      </trkpt>
      <trkpt lat="43.46508" lon="-0.36444">
        <ele>136.3</ele>
        <time>2026-08-31T09:55:46Z</time>
      </trkpt>
      <trkpt lat="43.46509" lon="-0.36444">
        <ele>136.3</ele>
        <time>2026-08-31T09:55:46Z</time>
      </trkpt>
      <trkpt lat="43.46509" lon="-0.36443">
        <ele>136.3</ele>
        <time>2026-08-31T09:55:47Z</time>
      </trkpt>
      <trkpt lat="43.46509" lon="-0.36442">
        <ele>136.3</ele>
        <time>2026-08-31T09:55:47Z</time>
      </trkpt>
      <trkpt lat="43.4651" lon="-0.36442">
        <ele>136.3</ele>
        <time>2026-08-31T09:55:48Z</time>
      </trkpt>
      <trkpt lat="43.4651" lon="-0.36441">
        <ele>136.3</ele>
        <time>2026-08-31T09:55:48Z</time>
      </trkpt>
      <trkpt lat="43.4651" lon="-0.3644">
        <ele>136.3</ele>
        <time>2026-08-31T09:55:49Z</time>
      </trkpt>
      <trkpt lat="43.46511" lon="-0.36439">
        <ele>136.3</ele>
        <time>2026-08-31T09:55:49Z</time>
      </trkpt>
      <trkpt lat="43.46511" lon="-0.36438">
        <ele>136.3</ele>
        <time>2026-08-31T09:55:50Z</time>
      </trkpt>
      <trkpt lat="43.46511" lon="-0.36437">
        <ele>136.3</ele>
        <time>2026-08-31T09:55:50Z</time>
      </trkpt>
      <trkpt lat="43.46512" lon="-0.36436">
        <ele>135.3</ele>
        <time>2026-08-31T09:55:51Z</time>
      </trkpt>
      <trkpt lat="43.46512" lon="-0.36436">
        <ele>135.3</ele>
        <time>2026-08-31T09:55:51Z</time>
      </trkpt>
      <trkpt lat="43.46512" lon="-0.36435">
        <ele>135.3</ele>
        <time>2026-08-31T09:55:52Z</time>
      </trkpt>
      <trkpt lat="43.46513" lon="-0.36434">
        <ele>135.3</ele>
        <time>2026-08-31T09:55:52Z</time>
      </trkpt>
      <trkpt lat="43.46513" lon="-0.36433">
        <ele>135.3</ele>
        <time>2026-08-31T09:55:53Z</time>
      </trkpt>
      <trkpt lat="43.46513" lon="-0.36433">
        <ele>135.3</ele>
        <time>2026-08-31T09:55:53Z</time>
      </trkpt>
      <trkpt lat="43.46514" lon="-0.36432">
        <ele>135.3</ele>
        <time>2026-08-31T09:55:54Z</time>
      </trkpt>
      <trkpt lat="43.46514" lon="-0.36432">
        <ele>135.3</ele>
        <time>2026-08-31T09:55:55Z</time>
      </trkpt>
      <trkpt lat="43.46515" lon="-0.36431">
        <ele>135.3</ele>
        <time>2026-08-31T09:55:55Z</time>
      </trkpt>
      <trkpt lat="43.46515" lon="-0.3643">
        <ele>135.3</ele>
        <time>2026-08-31T09:55:56Z</time>
      </trkpt>
      <trkpt lat="43.46516" lon="-0.36429">
        <ele>135.3</ele>
        <time>2026-08-31T09:55:56Z</time>
      </trkpt>
      <trkpt lat="43.46516" lon="-0.36429">
        <ele>135.3</ele>
        <time>2026-08-31T09:55:57Z</time>
      </trkpt>
      <trkpt lat="43.46517" lon="-0.36428">
        <ele>135.3</ele>
        <time>2026-08-31T09:55:57Z</time>
      </trkpt>
      <trkpt lat="43.46517" lon="-0.36427">
        <ele>135.3</ele>
        <time>2026-08-31T09:55:58Z</time>
      </trkpt>
      <trkpt lat="43.46517" lon="-0.36426">
        <ele>135.3</ele>
        <time>2026-08-31T09:55:58Z</time>
      </trkpt>
      <trkpt lat="43.46518" lon="-0.36426">
        <ele>136.3</ele>
        <time>2026-08-31T09:55:59Z</time>
      </trkpt>
      <trkpt lat="43.46518" lon="-0.36425">
        <ele>136.3</ele>
        <time>2026-08-31T09:55:59Z</time>
      </trkpt>
      <trkpt lat="43.46519" lon="-0.36425">
        <ele>136.3</ele>
        <time>2026-08-31T09:56:00Z</time>
      </trkpt>
      <trkpt lat="43.46519" lon="-0.36424">
        <ele>136.3</ele>
        <time>2026-08-31T09:56:00Z</time>
      </trkpt>
      <trkpt lat="43.46519" lon="-0.36423">
        <ele>136.3</ele>
        <time>2026-08-31T09:56:01Z</time>
      </trkpt>
      <trkpt lat="43.4652" lon="-0.36422">
        <ele>136.3</ele>
        <time>2026-08-31T09:56:01Z</time>
      </trkpt>
      <trkpt lat="43.4652" lon="-0.36422">
        <ele>136.3</ele>
        <time>2026-08-31T09:56:02Z</time>
      </trkpt>
      <trkpt lat="43.46521" lon="-0.36421">
        <ele>136.3</ele>
        <time>2026-08-31T09:56:02Z</time>
      </trkpt>
      <trkpt lat="43.46521" lon="-0.3642">
        <ele>136.3</ele>
        <time>2026-08-31T09:56:03Z</time>
      </trkpt>
      <trkpt lat="43.46522" lon="-0.36419">
        <ele>136.3</ele>
        <time>2026-08-31T09:56:03Z</time>
      </trkpt>
      <trkpt lat="43.46522" lon="-0.36418">
        <ele>136.3</ele>
        <time>2026-08-31T09:56:04Z</time>
      </trkpt>
      <trkpt lat="43.46522" lon="-0.36417">
        <ele>136.3</ele>
        <time>2026-08-31T09:56:04Z</time>
      </trkpt>
      <trkpt lat="43.46522" lon="-0.36417">
        <ele>136.3</ele>
        <time>2026-08-31T09:56:05Z</time>
      </trkpt>
      <trkpt lat="43.46523" lon="-0.36416">
        <ele>136.3</ele>
        <time>2026-08-31T09:56:06Z</time>
      </trkpt>
      <trkpt lat="43.46523" lon="-0.36415">
        <ele>136.3</ele>
        <time>2026-08-31T09:56:06Z</time>
      </trkpt>
      <trkpt lat="43.46523" lon="-0.36414">
        <ele>136.3</ele>
        <time>2026-08-31T09:56:07Z</time>
      </trkpt>
      <trkpt lat="43.46524" lon="-0.36414">
        <ele>135.3</ele>
        <time>2026-08-31T09:56:07Z</time>
      </trkpt>
      <trkpt lat="43.46524" lon="-0.36413">
        <ele>135.3</ele>
        <time>2026-08-31T09:56:08Z</time>
      </trkpt>
      <trkpt lat="43.46524" lon="-0.36412">
        <ele>135.3</ele>
        <time>2026-08-31T09:56:08Z</time>
      </trkpt>
      <trkpt lat="43.46525" lon="-0.36412">
        <ele>135.3</ele>
        <time>2026-08-31T09:56:09Z</time>
      </trkpt>
      <trkpt lat="43.46525" lon="-0.36411">
        <ele>135.3</ele>
        <time>2026-08-31T09:56:09Z</time>
      </trkpt>
      <trkpt lat="43.46525" lon="-0.3641">
        <ele>136.3</ele>
        <time>2026-08-31T09:56:10Z</time>
      </trkpt>
      <trkpt lat="43.46526" lon="-0.3641">
        <ele>136.3</ele>
        <time>2026-08-31T09:56:10Z</time>
      </trkpt>
      <trkpt lat="43.46526" lon="-0.36409">
        <ele>136.3</ele>
        <time>2026-08-31T09:56:11Z</time>
      </trkpt>
      <trkpt lat="43.46526" lon="-0.36408">
        <ele>136.3</ele>
        <time>2026-08-31T09:56:11Z</time>
      </trkpt>
      <trkpt lat="43.46527" lon="-0.36407">
        <ele>135.3</ele>
        <time>2026-08-31T09:56:12Z</time>
      </trkpt>
      <trkpt lat="43.46527" lon="-0.36406">
        <ele>135.3</ele>
        <time>2026-08-31T09:56:12Z</time>
      </trkpt>
      <trkpt lat="43.46527" lon="-0.36405">
        <ele>136.3</ele>
        <time>2026-08-31T09:56:13Z</time>
      </trkpt>
      <trkpt lat="43.46528" lon="-0.36404">
        <ele>136.3</ele>
        <time>2026-08-31T09:56:14Z</time>
      </trkpt>
      <trkpt lat="43.46528" lon="-0.36403">
        <ele>136.3</ele>
        <time>2026-08-31T09:56:14Z</time>
      </trkpt>
      <trkpt lat="43.46528" lon="-0.36402">
        <ele>136.3</ele>
        <time>2026-08-31T09:56:15Z</time>
      </trkpt>
      <trkpt lat="43.46528" lon="-0.36401">
        <ele>137.3</ele>
        <time>2026-08-31T09:56:15Z</time>
      </trkpt>
      <trkpt lat="43.46529" lon="-0.364">
        <ele>137.3</ele>
        <time>2026-08-31T09:56:16Z</time>
      </trkpt>
      <trkpt lat="43.46529" lon="-0.36399">
        <ele>137.3</ele>
        <time>2026-08-31T09:56:16Z</time>
      </trkpt>
      <trkpt lat="43.46529" lon="-0.36398">
        <ele>138.3</ele>
        <time>2026-08-31T09:56:17Z</time>
      </trkpt>
      <trkpt lat="43.4653" lon="-0.36397">
        <ele>138.3</ele>
        <time>2026-08-31T09:56:17Z</time>
      </trkpt>
      <trkpt lat="43.4653" lon="-0.36396">
        <ele>138.3</ele>
        <time>2026-08-31T09:56:18Z</time>
      </trkpt>
      <trkpt lat="43.4653" lon="-0.36395">
        <ele>138.3</ele>
        <time>2026-08-31T09:56:18Z</time>
      </trkpt>
      <trkpt lat="43.46531" lon="-0.36394">
        <ele>138.3</ele>
        <time>2026-08-31T09:56:19Z</time>
      </trkpt>
      <trkpt lat="43.46531" lon="-0.36394">
        <ele>138.3</ele>
        <time>2026-08-31T09:56:19Z</time>
      </trkpt>
      <trkpt lat="43.46531" lon="-0.36393">
        <ele>139.3</ele>
        <time>2026-08-31T09:56:20Z</time>
      </trkpt>
      <trkpt lat="43.46532" lon="-0.36392">
        <ele>139.3</ele>
        <time>2026-08-31T09:56:20Z</time>
      </trkpt>
      <trkpt lat="43.46532" lon="-0.36391">
        <ele>139.3</ele>
        <time>2026-08-31T09:56:21Z</time>
      </trkpt>
      <trkpt lat="43.46532" lon="-0.3639">
        <ele>139.3</ele>
        <time>2026-08-31T09:56:22Z</time>
      </trkpt>
      <trkpt lat="43.46532" lon="-0.36389">
        <ele>139.3</ele>
        <time>2026-08-31T09:56:22Z</time>
      </trkpt>
      <trkpt lat="43.46533" lon="-0.36388">
        <ele>139.3</ele>
        <time>2026-08-31T09:56:23Z</time>
      </trkpt>
      <trkpt lat="43.46533" lon="-0.36387">
        <ele>139.3</ele>
        <time>2026-08-31T09:56:23Z</time>
      </trkpt>
      <trkpt lat="43.46533" lon="-0.36387">
        <ele>139.3</ele>
        <time>2026-08-31T09:56:24Z</time>
      </trkpt>
      <trkpt lat="43.46534" lon="-0.36386">
        <ele>139.3</ele>
        <time>2026-08-31T09:56:24Z</time>
      </trkpt>
      <trkpt lat="43.46534" lon="-0.36385">
        <ele>139.3</ele>
        <time>2026-08-31T09:56:25Z</time>
      </trkpt>
      <trkpt lat="43.46535" lon="-0.36384">
        <ele>139.3</ele>
        <time>2026-08-31T09:56:25Z</time>
      </trkpt>
      <trkpt lat="43.46535" lon="-0.36384">
        <ele>138.3</ele>
        <time>2026-08-31T09:56:26Z</time>
      </trkpt>
      <trkpt lat="43.46535" lon="-0.36383">
        <ele>138.3</ele>
        <time>2026-08-31T09:56:26Z</time>
      </trkpt>
      <trkpt lat="43.46536" lon="-0.36382">
        <ele>138.3</ele>
        <time>2026-08-31T09:56:27Z</time>
      </trkpt>
      <trkpt lat="43.46536" lon="-0.36381">
        <ele>138.3</ele>
        <time>2026-08-31T09:56:27Z</time>
      </trkpt>
      <trkpt lat="43.46537" lon="-0.3638">
        <ele>138.3</ele>
        <time>2026-08-31T09:56:28Z</time>
      </trkpt>
      <trkpt lat="43.46537" lon="-0.36379">
        <ele>138.3</ele>
        <time>2026-08-31T09:56:28Z</time>
      </trkpt>
      <trkpt lat="43.46538" lon="-0.36378">
        <ele>137.3</ele>
        <time>2026-08-31T09:56:29Z</time>
      </trkpt>
      <trkpt lat="43.46538" lon="-0.36377">
        <ele>137.3</ele>
        <time>2026-08-31T09:56:30Z</time>
      </trkpt>
      <trkpt lat="43.46538" lon="-0.36377">
        <ele>138.3</ele>
        <time>2026-08-31T09:56:30Z</time>
      </trkpt>
      <trkpt lat="43.46539" lon="-0.36376">
        <ele>138.3</ele>
        <time>2026-08-31T09:56:31Z</time>
      </trkpt>
      <trkpt lat="43.46539" lon="-0.36375">
        <ele>137.3</ele>
        <time>2026-08-31T09:56:31Z</time>
      </trkpt>
      <trkpt lat="43.4654" lon="-0.36374">
        <ele>137.3</ele>
        <time>2026-08-31T09:56:32Z</time>
      </trkpt>
      <trkpt lat="43.4654" lon="-0.36373">
        <ele>137.3</ele>
        <time>2026-08-31T09:56:32Z</time>
      </trkpt>
      <trkpt lat="43.46541" lon="-0.36373">
        <ele>137.3</ele>
        <time>2026-08-31T09:56:33Z</time>
      </trkpt>
      <trkpt lat="43.46541" lon="-0.36372">
        <ele>137.3</ele>
        <time>2026-08-31T09:56:33Z</time>
      </trkpt>
      <trkpt lat="43.46542" lon="-0.36371">
        <ele>136.3</ele>
        <time>2026-08-31T09:56:34Z</time>
      </trkpt>
      <trkpt lat="43.46542" lon="-0.36371">
        <ele>136.3</ele>
        <time>2026-08-31T09:56:34Z</time>
      </trkpt>
      <trkpt lat="43.46543" lon="-0.3637">
        <ele>136.3</ele>
        <time>2026-08-31T09:56:35Z</time>
      </trkpt>
      <trkpt lat="43.46544" lon="-0.36369">
        <ele>136.3</ele>
        <time>2026-08-31T09:56:35Z</time>
      </trkpt>
      <trkpt lat="43.46544" lon="-0.36369">
        <ele>136.3</ele>
        <time>2026-08-31T09:56:36Z</time>
      </trkpt>
      <trkpt lat="43.46545" lon="-0.36368">
        <ele>136.3</ele>
        <time>2026-08-31T09:56:37Z</time>
      </trkpt>
      <trkpt lat="43.46546" lon="-0.36367">
        <ele>136.3</ele>
        <time>2026-08-31T09:56:37Z</time>
      </trkpt>
      <trkpt lat="43.46546" lon="-0.36367">
        <ele>136.3</ele>
        <time>2026-08-31T09:56:38Z</time>
      </trkpt>
      <trkpt lat="43.46547" lon="-0.36366">
        <ele>135.3</ele>
        <time>2026-08-31T09:56:38Z</time>
      </trkpt>
      <trkpt lat="43.46547" lon="-0.36365">
        <ele>135.3</ele>
        <time>2026-08-31T09:56:39Z</time>
      </trkpt>
      <trkpt lat="43.46548" lon="-0.36365">
        <ele>135.3</ele>
        <time>2026-08-31T09:56:39Z</time>
      </trkpt>
      <trkpt lat="43.46548" lon="-0.36364">
        <ele>135.3</ele>
        <time>2026-08-31T09:56:40Z</time>
      </trkpt>
      <trkpt lat="43.46549" lon="-0.36363">
        <ele>135.3</ele>
        <time>2026-08-31T09:56:40Z</time>
      </trkpt>
      <trkpt lat="43.46549" lon="-0.36363">
        <ele>136.3</ele>
        <time>2026-08-31T09:56:41Z</time>
      </trkpt>
      <trkpt lat="43.4655" lon="-0.36362">
        <ele>136.3</ele>
        <time>2026-08-31T09:56:41Z</time>
      </trkpt>
      <trkpt lat="43.4655" lon="-0.36361">
        <ele>136.3</ele>
        <time>2026-08-31T09:56:42Z</time>
      </trkpt>
      <trkpt lat="43.46551" lon="-0.3636">
        <ele>136.3</ele>
        <time>2026-08-31T09:56:42Z</time>
      </trkpt>
      <trkpt lat="43.46551" lon="-0.3636">
        <ele>136.3</ele>
        <time>2026-08-31T09:56:43Z</time>
      </trkpt>
      <trkpt lat="43.46552" lon="-0.36359">
        <ele>136.3</ele>
        <time>2026-08-31T09:56:44Z</time>
      </trkpt>
      <trkpt lat="43.46552" lon="-0.36358">
        <ele>136.3</ele>
        <time>2026-08-31T09:56:44Z</time>
      </trkpt>
      <trkpt lat="43.46553" lon="-0.36357">
        <ele>136.3</ele>
        <time>2026-08-31T09:56:45Z</time>
      </trkpt>
      <trkpt lat="43.46553" lon="-0.36356">
        <ele>137.3</ele>
        <time>2026-08-31T09:56:45Z</time>
      </trkpt>
      <trkpt lat="43.46554" lon="-0.36356">
        <ele>137.3</ele>
        <time>2026-08-31T09:56:46Z</time>
      </trkpt>
      <trkpt lat="43.46554" lon="-0.36355">
        <ele>137.3</ele>
        <time>2026-08-31T09:56:46Z</time>
      </trkpt>
      <trkpt lat="43.46555" lon="-0.36354">
        <ele>137.3</ele>
        <time>2026-08-31T09:56:47Z</time>
      </trkpt>
      <trkpt lat="43.46555" lon="-0.36354">
        <ele>137.3</ele>
        <time>2026-08-31T09:56:47Z</time>
      </trkpt>
      <trkpt lat="43.46556" lon="-0.36353">
        <ele>137.3</ele>
        <time>2026-08-31T09:56:48Z</time>
      </trkpt>
      <trkpt lat="43.46556" lon="-0.36352">
        <ele>137.3</ele>
        <time>2026-08-31T09:56:48Z</time>
      </trkpt>
      <trkpt lat="43.46557" lon="-0.36351">
        <ele>137.3</ele>
        <time>2026-08-31T09:56:49Z</time>
      </trkpt>
      <trkpt lat="43.46557" lon="-0.36351">
        <ele>137.3</ele>
        <time>2026-08-31T09:56:49Z</time>
      </trkpt>
      <trkpt lat="43.46558" lon="-0.3635">
        <ele>137.3</ele>
        <time>2026-08-31T09:56:50Z</time>
      </trkpt>
      <trkpt lat="43.46558" lon="-0.36349">
        <ele>137.3</ele>
        <time>2026-08-31T09:56:51Z</time>
      </trkpt>
      <trkpt lat="43.46559" lon="-0.36349">
        <ele>137.3</ele>
        <time>2026-08-31T09:56:51Z</time>
      </trkpt>
      <trkpt lat="43.46559" lon="-0.36348">
        <ele>137.3</ele>
        <time>2026-08-31T09:56:52Z</time>
      </trkpt>
      <trkpt lat="43.4656" lon="-0.36347">
        <ele>137.3</ele>
        <time>2026-08-31T09:56:52Z</time>
      </trkpt>
      <trkpt lat="43.4656" lon="-0.36346">
        <ele>137.3</ele>
        <time>2026-08-31T09:56:53Z</time>
      </trkpt>
      <trkpt lat="43.46561" lon="-0.36345">
        <ele>137.3</ele>
        <time>2026-08-31T09:56:53Z</time>
      </trkpt>
      <trkpt lat="43.46561" lon="-0.36345">
        <ele>137.3</ele>
        <time>2026-08-31T09:56:54Z</time>
      </trkpt>
      <trkpt lat="43.46562" lon="-0.36344">
        <ele>137.3</ele>
        <time>2026-08-31T09:56:54Z</time>
      </trkpt>
      <trkpt lat="43.46562" lon="-0.36343">
        <ele>136.3</ele>
        <time>2026-08-31T09:56:55Z</time>
      </trkpt>
      <trkpt lat="43.46563" lon="-0.36342">
        <ele>136.3</ele>
        <time>2026-08-31T09:56:55Z</time>
      </trkpt>
      <trkpt lat="43.46563" lon="-0.36342">
        <ele>137.3</ele>
        <time>2026-08-31T09:56:56Z</time>
      </trkpt>
      <trkpt lat="43.46563" lon="-0.36341">
        <ele>137.3</ele>
        <time>2026-08-31T09:56:56Z</time>
      </trkpt>
      <trkpt lat="43.46564" lon="-0.3634">
        <ele>137.3</ele>
        <time>2026-08-31T09:56:57Z</time>
      </trkpt>
      <trkpt lat="43.46564" lon="-0.36339">
        <ele>137.3</ele>
        <time>2026-08-31T09:56:57Z</time>
      </trkpt>
      <trkpt lat="43.46565" lon="-0.36339">
        <ele>137.3</ele>
        <time>2026-08-31T09:56:58Z</time>
      </trkpt>
      <trkpt lat="43.46565" lon="-0.36338">
        <ele>137.3</ele>
        <time>2026-08-31T09:56:59Z</time>
      </trkpt>
      <trkpt lat="43.46566" lon="-0.36337">
        <ele>137.3</ele>
        <time>2026-08-31T09:56:59Z</time>
      </trkpt>
      <trkpt lat="43.46566" lon="-0.36336">
        <ele>137.3</ele>
        <time>2026-08-31T09:57:00Z</time>
      </trkpt>
      <trkpt lat="43.46567" lon="-0.36335">
        <ele>138.3</ele>
        <time>2026-08-31T09:57:00Z</time>
      </trkpt>
      <trkpt lat="43.46567" lon="-0.36335">
        <ele>137.3</ele>
        <time>2026-08-31T09:57:01Z</time>
      </trkpt>
      <trkpt lat="43.46567" lon="-0.36334">
        <ele>137.3</ele>
        <time>2026-08-31T09:57:01Z</time>
      </trkpt>
      <trkpt lat="43.46568" lon="-0.36333">
        <ele>137.3</ele>
        <time>2026-08-31T09:57:02Z</time>
      </trkpt>
      <trkpt lat="43.46568" lon="-0.36332">
        <ele>137.3</ele>
        <time>2026-08-31T09:57:02Z</time>
      </trkpt>
      <trkpt lat="43.46569" lon="-0.36331">
        <ele>137.3</ele>
        <time>2026-08-31T09:57:03Z</time>
      </trkpt>
      <trkpt lat="43.46569" lon="-0.36331">
        <ele>137.3</ele>
        <time>2026-08-31T09:57:03Z</time>
      </trkpt>
      <trkpt lat="43.4657" lon="-0.3633">
        <ele>136.3</ele>
        <time>2026-08-31T09:57:04Z</time>
      </trkpt>
      <trkpt lat="43.4657" lon="-0.36329">
        <ele>136.3</ele>
        <time>2026-08-31T09:57:05Z</time>
      </trkpt>
      <trkpt lat="43.46571" lon="-0.36328">
        <ele>136.3</ele>
        <time>2026-08-31T09:57:05Z</time>
      </trkpt>
      <trkpt lat="43.46571" lon="-0.36328">
        <ele>136.3</ele>
        <time>2026-08-31T09:57:06Z</time>
      </trkpt>
      <trkpt lat="43.46572" lon="-0.36327">
        <ele>136.3</ele>
        <time>2026-08-31T09:57:06Z</time>
      </trkpt>
      <trkpt lat="43.46572" lon="-0.36326">
        <ele>136.3</ele>
        <time>2026-08-31T09:57:07Z</time>
      </trkpt>
      <trkpt lat="43.46573" lon="-0.36326">
        <ele>136.3</ele>
        <time>2026-08-31T09:57:07Z</time>
      </trkpt>
      <trkpt lat="43.46574" lon="-0.36326">
        <ele>137.3</ele>
        <time>2026-08-31T09:57:08Z</time>
      </trkpt>
      <trkpt lat="43.46574" lon="-0.36325">
        <ele>137.3</ele>
        <time>2026-08-31T09:57:08Z</time>
      </trkpt>
      <trkpt lat="43.46575" lon="-0.36324">
        <ele>137.3</ele>
        <time>2026-08-31T09:57:09Z</time>
      </trkpt>
      <trkpt lat="43.46576" lon="-0.36324">
        <ele>137.3</ele>
        <time>2026-08-31T09:57:09Z</time>
      </trkpt>
      <trkpt lat="43.46576" lon="-0.36323">
        <ele>137.3</ele>
        <time>2026-08-31T09:57:10Z</time>
      </trkpt>
      <trkpt lat="43.46577" lon="-0.36322">
        <ele>137.3</ele>
        <time>2026-08-31T09:57:10Z</time>
      </trkpt>
      <trkpt lat="43.46577" lon="-0.36322">
        <ele>137.3</ele>
        <time>2026-08-31T09:57:11Z</time>
      </trkpt>
      <trkpt lat="43.46578" lon="-0.36321">
        <ele>137.3</ele>
        <time>2026-08-31T09:57:11Z</time>
      </trkpt>
      <trkpt lat="43.46578" lon="-0.36321">
        <ele>137.3</ele>
        <time>2026-08-31T09:57:12Z</time>
      </trkpt>
      <trkpt lat="43.46579" lon="-0.3632">
        <ele>137.3</ele>
        <time>2026-08-31T09:57:13Z</time>
      </trkpt>
      <trkpt lat="43.46579" lon="-0.36319">
        <ele>137.3</ele>
        <time>2026-08-31T09:57:13Z</time>
      </trkpt>
      <trkpt lat="43.4658" lon="-0.36319">
        <ele>137.3</ele>
        <time>2026-08-31T09:57:14Z</time>
      </trkpt>
      <trkpt lat="43.4658" lon="-0.36318">
        <ele>137.3</ele>
        <time>2026-08-31T09:57:14Z</time>
      </trkpt>
      <trkpt lat="43.46581" lon="-0.36317">
        <ele>137.3</ele>
        <time>2026-08-31T09:57:15Z</time>
      </trkpt>
      <trkpt lat="43.46581" lon="-0.36317">
        <ele>137.3</ele>
        <time>2026-08-31T09:57:15Z</time>
      </trkpt>
      <trkpt lat="43.46582" lon="-0.36316">
        <ele>138.3</ele>
        <time>2026-08-31T09:57:16Z</time>
      </trkpt>
      <trkpt lat="43.46582" lon="-0.36315">
        <ele>138.3</ele>
        <time>2026-08-31T09:57:16Z</time>
      </trkpt>
      <trkpt lat="43.46583" lon="-0.36314">
        <ele>138.3</ele>
        <time>2026-08-31T09:57:17Z</time>
      </trkpt>
      <trkpt lat="43.46583" lon="-0.36313">
        <ele>138.3</ele>
        <time>2026-08-31T09:57:17Z</time>
      </trkpt>
      <trkpt lat="43.46584" lon="-0.36313">
        <ele>138.3</ele>
        <time>2026-08-31T09:57:18Z</time>
      </trkpt>
      <trkpt lat="43.46584" lon="-0.36312">
        <ele>138.3</ele>
        <time>2026-08-31T09:57:19Z</time>
      </trkpt>
      <trkpt lat="43.46584" lon="-0.36311">
        <ele>138.3</ele>
        <time>2026-08-31T09:57:19Z</time>
      </trkpt>
      <trkpt lat="43.46585" lon="-0.3631">
        <ele>138.3</ele>
        <time>2026-08-31T09:57:20Z</time>
      </trkpt>
      <trkpt lat="43.46585" lon="-0.36309">
        <ele>138.3</ele>
        <time>2026-08-31T09:57:20Z</time>
      </trkpt>
      <trkpt lat="43.46585" lon="-0.36309">
        <ele>138.3</ele>
        <time>2026-08-31T09:57:21Z</time>
      </trkpt>
      <trkpt lat="43.46586" lon="-0.36308">
        <ele>138.3</ele>
        <time>2026-08-31T09:57:21Z</time>
      </trkpt>
      <trkpt lat="43.46586" lon="-0.36307">
        <ele>139.3</ele>
        <time>2026-08-31T09:57:22Z</time>
      </trkpt>
      <trkpt lat="43.46586" lon="-0.36306">
        <ele>139.3</ele>
        <time>2026-08-31T09:57:22Z</time>
      </trkpt>
      <trkpt lat="43.46587" lon="-0.36306">
        <ele>139.3</ele>
        <time>2026-08-31T09:57:23Z</time>
      </trkpt>
      <trkpt lat="43.46587" lon="-0.36305">
        <ele>139.3</ele>
        <time>2026-08-31T09:57:23Z</time>
      </trkpt>
      <trkpt lat="43.46587" lon="-0.36304">
        <ele>139.3</ele>
        <time>2026-08-31T09:57:24Z</time>
      </trkpt>
      <trkpt lat="43.46588" lon="-0.36303">
        <ele>139.3</ele>
        <time>2026-08-31T09:57:24Z</time>
      </trkpt>
      <trkpt lat="43.46588" lon="-0.36303">
        <ele>138.3</ele>
        <time>2026-08-31T09:57:25Z</time>
      </trkpt>
      <trkpt lat="43.46588" lon="-0.36302">
        <ele>138.3</ele>
        <time>2026-08-31T09:57:26Z</time>
      </trkpt>
      <trkpt lat="43.46589" lon="-0.36301">
        <ele>138.3</ele>
        <time>2026-08-31T09:57:26Z</time>
      </trkpt>
      <trkpt lat="43.46589" lon="-0.363">
        <ele>138.3</ele>
        <time>2026-08-31T09:57:27Z</time>
      </trkpt>
      <trkpt lat="43.46589" lon="-0.363">
        <ele>138.3</ele>
        <time>2026-08-31T09:57:27Z</time>
      </trkpt>
      <trkpt lat="43.46589" lon="-0.36299">
        <ele>138.3</ele>
        <time>2026-08-31T09:57:28Z</time>
      </trkpt>
      <trkpt lat="43.4659" lon="-0.36298">
        <ele>138.3</ele>
        <time>2026-08-31T09:57:28Z</time>
      </trkpt>
      <trkpt lat="43.4659" lon="-0.36297">
        <ele>138.3</ele>
        <time>2026-08-31T09:57:29Z</time>
      </trkpt>
      <trkpt lat="43.4659" lon="-0.36297">
        <ele>138.3</ele>
        <time>2026-08-31T09:57:29Z</time>
      </trkpt>
      <trkpt lat="43.4659" lon="-0.36296">
        <ele>138.3</ele>
        <time>2026-08-31T09:57:30Z</time>
      </trkpt>
      <trkpt lat="43.46591" lon="-0.36295">
        <ele>138.3</ele>
        <time>2026-08-31T09:57:30Z</time>
      </trkpt>
      <trkpt lat="43.46591" lon="-0.36294">
        <ele>137.3</ele>
        <time>2026-08-31T09:57:31Z</time>
      </trkpt>
      <trkpt lat="43.46591" lon="-0.36293">
        <ele>137.3</ele>
        <time>2026-08-31T09:57:31Z</time>
      </trkpt>
      <trkpt lat="43.46591" lon="-0.36292">
        <ele>137.3</ele>
        <time>2026-08-31T09:57:32Z</time>
      </trkpt>
      <trkpt lat="43.46592" lon="-0.36291">
        <ele>137.3</ele>
        <time>2026-08-31T09:57:33Z</time>
      </trkpt>
      <trkpt lat="43.46592" lon="-0.36291">
        <ele>137.3</ele>
        <time>2026-08-31T09:57:33Z</time>
      </trkpt>
      <trkpt lat="43.46592" lon="-0.3629">
        <ele>137.3</ele>
        <time>2026-08-31T09:57:34Z</time>
      </trkpt>
      <trkpt lat="43.46592" lon="-0.36289">
        <ele>137.3</ele>
        <time>2026-08-31T09:57:34Z</time>
      </trkpt>
      <trkpt lat="43.46593" lon="-0.36288">
        <ele>136.3</ele>
        <time>2026-08-31T09:57:35Z</time>
      </trkpt>
      <trkpt lat="43.46593" lon="-0.36287">
        <ele>136.3</ele>
        <time>2026-08-31T09:57:35Z</time>
      </trkpt>
      <trkpt lat="43.46593" lon="-0.36286">
        <ele>136.3</ele>
        <time>2026-08-31T09:57:36Z</time>
      </trkpt>
      <trkpt lat="43.46593" lon="-0.36285">
        <ele>136.3</ele>
        <time>2026-08-31T09:57:36Z</time>
      </trkpt>
      <trkpt lat="43.46593" lon="-0.36285">
        <ele>136.3</ele>
        <time>2026-08-31T09:57:37Z</time>
      </trkpt>
      <trkpt lat="43.46594" lon="-0.36284">
        <ele>136.3</ele>
        <time>2026-08-31T09:57:37Z</time>
      </trkpt>
      <trkpt lat="43.46594" lon="-0.36283">
        <ele>136.3</ele>
        <time>2026-08-31T09:57:38Z</time>
      </trkpt>
      <trkpt lat="43.46594" lon="-0.36282">
        <ele>136.3</ele>
        <time>2026-08-31T09:57:38Z</time>
      </trkpt>
      <trkpt lat="43.46595" lon="-0.36282">
        <ele>136.3</ele>
        <time>2026-08-31T09:57:39Z</time>
      </trkpt>
      <trkpt lat="43.46595" lon="-0.36281">
        <ele>136.3</ele>
        <time>2026-08-31T09:57:40Z</time>
      </trkpt>
      <trkpt lat="43.46595" lon="-0.3628">
        <ele>135.3</ele>
        <time>2026-08-31T09:57:40Z</time>
      </trkpt>
      <trkpt lat="43.46596" lon="-0.36279">
        <ele>135.3</ele>
        <time>2026-08-31T09:57:41Z</time>
      </trkpt>
      <trkpt lat="43.46596" lon="-0.36278">
        <ele>135.3</ele>
        <time>2026-08-31T09:57:41Z</time>
      </trkpt>
      <trkpt lat="43.46596" lon="-0.36278">
        <ele>135.3</ele>
        <time>2026-08-31T09:57:42Z</time>
      </trkpt>
      <trkpt lat="43.46597" lon="-0.36277">
        <ele>135.3</ele>
        <time>2026-08-31T09:57:42Z</time>
      </trkpt>
      <trkpt lat="43.46597" lon="-0.36276">
        <ele>135.3</ele>
        <time>2026-08-31T09:57:43Z</time>
      </trkpt>
      <trkpt lat="43.46597" lon="-0.36275">
        <ele>135.3</ele>
        <time>2026-08-31T09:57:43Z</time>
      </trkpt>
      <trkpt lat="43.46598" lon="-0.36275">
        <ele>135.3</ele>
        <time>2026-08-31T09:57:44Z</time>
      </trkpt>
      <trkpt lat="43.46598" lon="-0.36274">
        <ele>135.3</ele>
        <time>2026-08-31T09:57:44Z</time>
      </trkpt>
      <trkpt lat="43.46599" lon="-0.36273">
        <ele>135.3</ele>
        <time>2026-08-31T09:57:45Z</time>
      </trkpt>
      <trkpt lat="43.46599" lon="-0.36272">
        <ele>135.3</ele>
        <time>2026-08-31T09:57:45Z</time>
      </trkpt>
      <trkpt lat="43.46599" lon="-0.36272">
        <ele>134.3</ele>
        <time>2026-08-31T09:57:46Z</time>
      </trkpt>
      <trkpt lat="43.466" lon="-0.36271">
        <ele>134.3</ele>
        <time>2026-08-31T09:57:46Z</time>
      </trkpt>
      <trkpt lat="43.466" lon="-0.3627">
        <ele>134.3</ele>
        <time>2026-08-31T09:57:47Z</time>
      </trkpt>
      <trkpt lat="43.46601" lon="-0.36269">
        <ele>134.3</ele>
        <time>2026-08-31T09:57:48Z</time>
      </trkpt>
      <trkpt lat="43.46601" lon="-0.36269">
        <ele>134.3</ele>
        <time>2026-08-31T09:57:48Z</time>
      </trkpt>
      <trkpt lat="43.46602" lon="-0.36268">
        <ele>134.3</ele>
        <time>2026-08-31T09:57:49Z</time>
      </trkpt>
      <trkpt lat="43.46602" lon="-0.36268">
        <ele>134.3</ele>
        <time>2026-08-31T09:57:49Z</time>
      </trkpt>
      <trkpt lat="43.46603" lon="-0.36267">
        <ele>134.3</ele>
        <time>2026-08-31T09:57:50Z</time>
      </trkpt>
      <trkpt lat="43.46603" lon="-0.36266">
        <ele>134.3</ele>
        <time>2026-08-31T09:57:50Z</time>
      </trkpt>
      <trkpt lat="43.46604" lon="-0.36266">
        <ele>134.3</ele>
        <time>2026-08-31T09:57:51Z</time>
      </trkpt>
      <trkpt lat="43.46604" lon="-0.36265">
        <ele>134.3</ele>
        <time>2026-08-31T09:57:51Z</time>
      </trkpt>
      <trkpt lat="43.46605" lon="-0.36264">
        <ele>134.3</ele>
        <time>2026-08-31T09:57:52Z</time>
      </trkpt>
      <trkpt lat="43.46605" lon="-0.36263">
        <ele>134.3</ele>
        <time>2026-08-31T09:57:52Z</time>
      </trkpt>
      <trkpt lat="43.46605" lon="-0.36262">
        <ele>134.3</ele>
        <time>2026-08-31T09:57:53Z</time>
      </trkpt>
      <trkpt lat="43.46605" lon="-0.36262">
        <ele>134.3</ele>
        <time>2026-08-31T09:57:53Z</time>
      </trkpt>
      <trkpt lat="43.46605" lon="-0.36261">
        <ele>134.3</ele>
        <time>2026-08-31T09:57:54Z</time>
      </trkpt>
      <trkpt lat="43.46606" lon="-0.3626">
        <ele>134.3</ele>
        <time>2026-08-31T09:57:55Z</time>
      </trkpt>
      <trkpt lat="43.46606" lon="-0.36259">
        <ele>134.3</ele>
        <time>2026-08-31T09:57:55Z</time>
      </trkpt>
      <trkpt lat="43.46606" lon="-0.36258">
        <ele>134.3</ele>
        <time>2026-08-31T09:57:56Z</time>
      </trkpt>
      <trkpt lat="43.46606" lon="-0.36257">
        <ele>134.3</ele>
        <time>2026-08-31T09:57:56Z</time>
      </trkpt>
      <trkpt lat="43.46606" lon="-0.36256">
        <ele>134.3</ele>
        <time>2026-08-31T09:57:57Z</time>
      </trkpt>
      <trkpt lat="43.46606" lon="-0.36255">
        <ele>134.3</ele>
        <time>2026-08-31T09:57:57Z</time>
      </trkpt>
      <trkpt lat="43.46607" lon="-0.36255">
        <ele>134.3</ele>
        <time>2026-08-31T09:57:58Z</time>
      </trkpt>
      <trkpt lat="43.46607" lon="-0.36254">
        <ele>134.3</ele>
        <time>2026-08-31T09:57:58Z</time>
      </trkpt>
      <trkpt lat="43.46607" lon="-0.36253">
        <ele>134.3</ele>
        <time>2026-08-31T09:57:59Z</time>
      </trkpt>
      <trkpt lat="43.46607" lon="-0.36252">
        <ele>134.3</ele>
        <time>2026-08-31T09:57:59Z</time>
      </trkpt>
      <trkpt lat="43.46607" lon="-0.36252">
        <ele>134.3</ele>
        <time>2026-08-31T09:58:00Z</time>
      </trkpt>
      <trkpt lat="43.46607" lon="-0.36251">
        <ele>134.3</ele>
        <time>2026-08-31T09:58:00Z</time>
      </trkpt>
      <trkpt lat="43.46607" lon="-0.3625">
        <ele>135.3</ele>
        <time>2026-08-31T09:58:01Z</time>
      </trkpt>
      <trkpt lat="43.46607" lon="-0.36249">
        <ele>135.3</ele>
        <time>2026-08-31T09:58:02Z</time>
      </trkpt>
      <trkpt lat="43.46607" lon="-0.36248">
        <ele>135.3</ele>
        <time>2026-08-31T09:58:02Z</time>
      </trkpt>
      <trkpt lat="43.46607" lon="-0.36247">
        <ele>135.3</ele>
        <time>2026-08-31T09:58:03Z</time>
      </trkpt>
      <trkpt lat="43.46607" lon="-0.36247">
        <ele>135.3</ele>
        <time>2026-08-31T09:58:03Z</time>
      </trkpt>
      <trkpt lat="43.46608" lon="-0.36246">
        <ele>135.3</ele>
        <time>2026-08-31T09:58:04Z</time>
      </trkpt>
      <trkpt lat="43.46608" lon="-0.36245">
        <ele>135.3</ele>
        <time>2026-08-31T09:58:04Z</time>
      </trkpt>
      <trkpt lat="43.46608" lon="-0.36244">
        <ele>135.3</ele>
        <time>2026-08-31T09:58:05Z</time>
      </trkpt>
      <trkpt lat="43.46608" lon="-0.36243">
        <ele>135.3</ele>
        <time>2026-08-31T09:58:05Z</time>
      </trkpt>
      <trkpt lat="43.46608" lon="-0.36242">
        <ele>135.3</ele>
        <time>2026-08-31T09:58:06Z</time>
      </trkpt>
      <trkpt lat="43.46608" lon="-0.36241">
        <ele>135.3</ele>
        <time>2026-08-31T09:58:06Z</time>
      </trkpt>
      <trkpt lat="43.46608" lon="-0.3624">
        <ele>135.3</ele>
        <time>2026-08-31T09:58:07Z</time>
      </trkpt>
      <trkpt lat="43.46608" lon="-0.36239">
        <ele>135.3</ele>
        <time>2026-08-31T09:58:08Z</time>
      </trkpt>
      <trkpt lat="43.46608" lon="-0.36238">
        <ele>135.3</ele>
        <time>2026-08-31T09:58:08Z</time>
      </trkpt>
      <trkpt lat="43.46608" lon="-0.36237">
        <ele>135.3</ele>
        <time>2026-08-31T09:58:09Z</time>
      </trkpt>
      <trkpt lat="43.46608" lon="-0.36236">
        <ele>135.3</ele>
        <time>2026-08-31T09:58:09Z</time>
      </trkpt>
      <trkpt lat="43.46608" lon="-0.36235">
        <ele>134.3</ele>
        <time>2026-08-31T09:58:10Z</time>
      </trkpt>
      <trkpt lat="43.46607" lon="-0.36234">
        <ele>134.3</ele>
        <time>2026-08-31T09:58:10Z</time>
      </trkpt>
      <trkpt lat="43.46607" lon="-0.36234">
        <ele>134.3</ele>
        <time>2026-08-31T09:58:11Z</time>
      </trkpt>
      <trkpt lat="43.46607" lon="-0.36233">
        <ele>134.3</ele>
        <time>2026-08-31T09:58:11Z</time>
      </trkpt>
      <trkpt lat="43.46607" lon="-0.36232">
        <ele>135.3</ele>
        <time>2026-08-31T09:58:12Z</time>
      </trkpt>
      <trkpt lat="43.46607" lon="-0.36231">
        <ele>135.3</ele>
        <time>2026-08-31T09:58:12Z</time>
      </trkpt>
      <trkpt lat="43.46607" lon="-0.36231">
        <ele>135.3</ele>
        <time>2026-08-31T09:58:13Z</time>
      </trkpt>
      <trkpt lat="43.46607" lon="-0.3623">
        <ele>135.3</ele>
        <time>2026-08-31T09:58:14Z</time>
      </trkpt>
      <trkpt lat="43.46607" lon="-0.36229">
        <ele>135.3</ele>
        <time>2026-08-31T09:58:14Z</time>
      </trkpt>
      <trkpt lat="43.46606" lon="-0.36228">
        <ele>135.3</ele>
        <time>2026-08-31T09:58:15Z</time>
      </trkpt>
      <trkpt lat="43.46606" lon="-0.36228">
        <ele>135.3</ele>
        <time>2026-08-31T09:58:15Z</time>
      </trkpt>
      <trkpt lat="43.46606" lon="-0.36227">
        <ele>136.3</ele>
        <time>2026-08-31T09:58:16Z</time>
      </trkpt>
      <trkpt lat="43.46606" lon="-0.36226">
        <ele>136.3</ele>
        <time>2026-08-31T09:58:16Z</time>
      </trkpt>
      <trkpt lat="43.46606" lon="-0.36226">
        <ele>136.3</ele>
        <time>2026-08-31T09:58:17Z</time>
      </trkpt>
      <trkpt lat="43.46606" lon="-0.36225">
        <ele>136.3</ele>
        <time>2026-08-31T09:58:17Z</time>
      </trkpt>
      <trkpt lat="43.46606" lon="-0.36224">
        <ele>136.3</ele>
        <time>2026-08-31T09:58:18Z</time>
      </trkpt>
      <trkpt lat="43.46606" lon="-0.36223">
        <ele>136.3</ele>
        <time>2026-08-31T09:58:18Z</time>
      </trkpt>
      <trkpt lat="43.46605" lon="-0.36222">
        <ele>136.3</ele>
        <time>2026-08-31T09:58:19Z</time>
      </trkpt>
      <trkpt lat="43.46605" lon="-0.36221">
        <ele>136.3</ele>
        <time>2026-08-31T09:58:20Z</time>
      </trkpt>
      <trkpt lat="43.46605" lon="-0.36221">
        <ele>136.3</ele>
        <time>2026-08-31T09:58:20Z</time>
      </trkpt>
      <trkpt lat="43.46605" lon="-0.3622">
        <ele>136.3</ele>
        <time>2026-08-31T09:58:21Z</time>
      </trkpt>
      <trkpt lat="43.46605" lon="-0.36219">
        <ele>136.3</ele>
        <time>2026-08-31T09:58:21Z</time>
      </trkpt>
      <trkpt lat="43.46605" lon="-0.36218">
        <ele>136.3</ele>
        <time>2026-08-31T09:58:22Z</time>
      </trkpt>
      <trkpt lat="43.46606" lon="-0.36218">
        <ele>136.3</ele>
        <time>2026-08-31T09:58:22Z</time>
      </trkpt>
      <trkpt lat="43.46606" lon="-0.36217">
        <ele>136.3</ele>
        <time>2026-08-31T09:58:23Z</time>
      </trkpt>
      <trkpt lat="43.46606" lon="-0.36216">
        <ele>136.3</ele>
        <time>2026-08-31T09:58:23Z</time>
      </trkpt>
      <trkpt lat="43.46606" lon="-0.36215">
        <ele>136.3</ele>
        <time>2026-08-31T09:58:24Z</time>
      </trkpt>
      <trkpt lat="43.46606" lon="-0.36214">
        <ele>136.3</ele>
        <time>2026-08-31T09:58:24Z</time>
      </trkpt>
      <trkpt lat="43.46606" lon="-0.36214">
        <ele>136.3</ele>
        <time>2026-08-31T09:58:25Z</time>
      </trkpt>
      <trkpt lat="43.46606" lon="-0.36213">
        <ele>136.3</ele>
        <time>2026-08-31T09:58:25Z</time>
      </trkpt>
      <trkpt lat="43.46606" lon="-0.36212">
        <ele>135.3</ele>
        <time>2026-08-31T09:58:26Z</time>
      </trkpt>
      <trkpt lat="43.46605" lon="-0.36211">
        <ele>135.3</ele>
        <time>2026-08-31T09:58:27Z</time>
      </trkpt>
      <trkpt lat="43.46605" lon="-0.3621">
        <ele>135.3</ele>
        <time>2026-08-31T09:58:27Z</time>
      </trkpt>
      <trkpt lat="43.46605" lon="-0.3621">
        <ele>135.3</ele>
        <time>2026-08-31T09:58:28Z</time>
      </trkpt>
      <trkpt lat="43.46605" lon="-0.36209">
        <ele>135.3</ele>
        <time>2026-08-31T09:58:28Z</time>
      </trkpt>
      <trkpt lat="43.46605" lon="-0.36208">
        <ele>135.3</ele>
        <time>2026-08-31T09:58:29Z</time>
      </trkpt>
      <trkpt lat="43.46605" lon="-0.36207">
        <ele>135.3</ele>
        <time>2026-08-31T09:58:29Z</time>
      </trkpt>
      <trkpt lat="43.46605" lon="-0.36206">
        <ele>135.3</ele>
        <time>2026-08-31T09:58:30Z</time>
      </trkpt>
      <trkpt lat="43.46605" lon="-0.36206">
        <ele>135.3</ele>
        <time>2026-08-31T09:58:30Z</time>
      </trkpt>
      <trkpt lat="43.46606" lon="-0.36205">
        <ele>135.3</ele>
        <time>2026-08-31T09:58:31Z</time>
      </trkpt>
      <trkpt lat="43.46606" lon="-0.36204">
        <ele>135.3</ele>
        <time>2026-08-31T09:58:31Z</time>
      </trkpt>
      <trkpt lat="43.46606" lon="-0.36204">
        <ele>135.3</ele>
        <time>2026-08-31T09:58:32Z</time>
      </trkpt>
      <trkpt lat="43.46606" lon="-0.36203">
        <ele>135.3</ele>
        <time>2026-08-31T09:58:32Z</time>
      </trkpt>
      <trkpt lat="43.46605" lon="-0.36202">
        <ele>135.3</ele>
        <time>2026-08-31T09:58:33Z</time>
      </trkpt>
      <trkpt lat="43.46605" lon="-0.36201">
        <ele>135.3</ele>
        <time>2026-08-31T09:58:33Z</time>
      </trkpt>
      <trkpt lat="43.46606" lon="-0.36201">
        <ele>135.3</ele>
        <time>2026-08-31T09:58:34Z</time>
      </trkpt>
      <trkpt lat="43.46605" lon="-0.362">
        <ele>135.3</ele>
        <time>2026-08-31T09:58:34Z</time>
      </trkpt>
      <trkpt lat="43.46605" lon="-0.362">
        <ele>135.3</ele>
        <time>2026-08-31T09:58:35Z</time>
      </trkpt>
      <trkpt lat="43.46605" lon="-0.36199">
        <ele>135.3</ele>
        <time>2026-08-31T09:58:36Z</time>
      </trkpt>
      <trkpt lat="43.46605" lon="-0.36199">
        <ele>135.3</ele>
        <time>2026-08-31T09:58:36Z</time>
      </trkpt>
      <trkpt lat="43.46604" lon="-0.36198">
        <ele>135.3</ele>
        <time>2026-08-31T09:58:37Z</time>
      </trkpt>
      <trkpt lat="43.46604" lon="-0.36198">
        <ele>135.3</ele>
        <time>2026-08-31T09:58:37Z</time>
      </trkpt>
      <trkpt lat="43.46604" lon="-0.36198">
        <ele>135.3</ele>
        <time>2026-08-31T09:58:38Z</time>
      </trkpt>
      <trkpt lat="43.46604" lon="-0.36197">
        <ele>135.3</ele>
        <time>2026-08-31T09:58:38Z</time>
      </trkpt>
      <trkpt lat="43.46603" lon="-0.36196">
        <ele>135.3</ele>
        <time>2026-08-31T09:58:39Z</time>
      </trkpt>
      <trkpt lat="43.46603" lon="-0.36195">
        <ele>135.3</ele>
        <time>2026-08-31T09:58:39Z</time>
      </trkpt>
      <trkpt lat="43.46603" lon="-0.36195">
        <ele>134.3</ele>
        <time>2026-08-31T09:58:40Z</time>
      </trkpt>
      <trkpt lat="43.46603" lon="-0.36194">
        <ele>134.3</ele>
        <time>2026-08-31T09:58:40Z</time>
      </trkpt>
      <trkpt lat="43.46603" lon="-0.36193">
        <ele>134.3</ele>
        <time>2026-08-31T09:58:41Z</time>
      </trkpt>
      <trkpt lat="43.46603" lon="-0.36192">
        <ele>134.3</ele>
        <time>2026-08-31T09:58:42Z</time>
      </trkpt>
      <trkpt lat="43.46603" lon="-0.36192">
        <ele>134.3</ele>
        <time>2026-08-31T09:58:42Z</time>
      </trkpt>
      <trkpt lat="43.46602" lon="-0.36191">
        <ele>134.3</ele>
        <time>2026-08-31T09:58:43Z</time>
      </trkpt>
      <trkpt lat="43.46602" lon="-0.3619">
        <ele>134.3</ele>
        <time>2026-08-31T09:58:43Z</time>
      </trkpt>
      <trkpt lat="43.46602" lon="-0.36189">
        <ele>134.3</ele>
        <time>2026-08-31T09:58:44Z</time>
      </trkpt>
      <trkpt lat="43.46602" lon="-0.36188">
        <ele>134.3</ele>
        <time>2026-08-31T09:58:44Z</time>
      </trkpt>
      <trkpt lat="43.46602" lon="-0.36187">
        <ele>134.3</ele>
        <time>2026-08-31T09:58:45Z</time>
      </trkpt>
      <trkpt lat="43.46602" lon="-0.36187">
        <ele>134.3</ele>
        <time>2026-08-31T09:58:45Z</time>
      </trkpt>
      <trkpt lat="43.46601" lon="-0.36186">
        <ele>134.3</ele>
        <time>2026-08-31T09:58:46Z</time>
      </trkpt>
      <trkpt lat="43.46601" lon="-0.36185">
        <ele>134.3</ele>
        <time>2026-08-31T09:58:46Z</time>
      </trkpt>
      <trkpt lat="43.46601" lon="-0.36184">
        <ele>134.3</ele>
        <time>2026-08-31T09:58:47Z</time>
      </trkpt>
      <trkpt lat="43.46601" lon="-0.36183">
        <ele>134.3</ele>
        <time>2026-08-31T09:58:47Z</time>
      </trkpt>
      <trkpt lat="43.46601" lon="-0.36182">
        <ele>134.3</ele>
        <time>2026-08-31T09:58:48Z</time>
      </trkpt>
      <trkpt lat="43.46601" lon="-0.36181">
        <ele>134.3</ele>
        <time>2026-08-31T09:58:49Z</time>
      </trkpt>
      <trkpt lat="43.466" lon="-0.36181">
        <ele>134.3</ele>
        <time>2026-08-31T09:58:49Z</time>
      </trkpt>
      <trkpt lat="43.466" lon="-0.3618">
        <ele>134.3</ele>
        <time>2026-08-31T09:58:50Z</time>
      </trkpt>
      <trkpt lat="43.466" lon="-0.36179">
        <ele>134.3</ele>
        <time>2026-08-31T09:58:50Z</time>
      </trkpt>
      <trkpt lat="43.466" lon="-0.36179">
        <ele>133.3</ele>
        <time>2026-08-31T09:58:51Z</time>
      </trkpt>
      <trkpt lat="43.466" lon="-0.36178">
        <ele>133.3</ele>
        <time>2026-08-31T09:58:51Z</time>
      </trkpt>
      <trkpt lat="43.466" lon="-0.36177">
        <ele>133.3</ele>
        <time>2026-08-31T09:58:52Z</time>
      </trkpt>
      <trkpt lat="43.466" lon="-0.36176">
        <ele>133.3</ele>
        <time>2026-08-31T09:58:52Z</time>
      </trkpt>
      <trkpt lat="43.46599" lon="-0.36175">
        <ele>133.3</ele>
        <time>2026-08-31T09:58:53Z</time>
      </trkpt>
      <trkpt lat="43.46599" lon="-0.36174">
        <ele>133.3</ele>
        <time>2026-08-31T09:58:53Z</time>
      </trkpt>
      <trkpt lat="43.46599" lon="-0.36173">
        <ele>134.3</ele>
        <time>2026-08-31T09:58:54Z</time>
      </trkpt>
      <trkpt lat="43.46599" lon="-0.36172">
        <ele>134.3</ele>
        <time>2026-08-31T09:58:55Z</time>
      </trkpt>
      <trkpt lat="43.46598" lon="-0.36171">
        <ele>134.3</ele>
        <time>2026-08-31T09:58:55Z</time>
      </trkpt>
      <trkpt lat="43.46598" lon="-0.3617">
        <ele>134.3</ele>
        <time>2026-08-31T09:58:56Z</time>
      </trkpt>
      <trkpt lat="43.46598" lon="-0.3617">
        <ele>134.3</ele>
        <time>2026-08-31T09:58:56Z</time>
      </trkpt>
      <trkpt lat="43.46598" lon="-0.36169">
        <ele>134.3</ele>
        <time>2026-08-31T09:58:57Z</time>
      </trkpt>
      <trkpt lat="43.46598" lon="-0.36168">
        <ele>134.3</ele>
        <time>2026-08-31T09:58:57Z</time>
      </trkpt>
      <trkpt lat="43.46597" lon="-0.36167">
        <ele>134.3</ele>
        <time>2026-08-31T09:58:58Z</time>
      </trkpt>
      <trkpt lat="43.46597" lon="-0.36166">
        <ele>134.3</ele>
        <time>2026-08-31T09:58:58Z</time>
      </trkpt>
      <trkpt lat="43.46597" lon="-0.36165">
        <ele>134.3</ele>
        <time>2026-08-31T09:58:59Z</time>
      </trkpt>
      <trkpt lat="43.46596" lon="-0.36164">
        <ele>134.3</ele>
        <time>2026-08-31T09:58:59Z</time>
      </trkpt>
      <trkpt lat="43.46596" lon="-0.36164">
        <ele>133.3</ele>
        <time>2026-08-31T09:59:00Z</time>
      </trkpt>
      <trkpt lat="43.46596" lon="-0.36163">
        <ele>133.3</ele>
        <time>2026-08-31T09:59:01Z</time>
      </trkpt>
      <trkpt lat="43.46596" lon="-0.36162">
        <ele>133.3</ele>
        <time>2026-08-31T09:59:01Z</time>
      </trkpt>
      <trkpt lat="43.46595" lon="-0.36161">
        <ele>133.3</ele>
        <time>2026-08-31T09:59:02Z</time>
      </trkpt>
      <trkpt lat="43.46595" lon="-0.3616">
        <ele>133.3</ele>
        <time>2026-08-31T09:59:02Z</time>
      </trkpt>
      <trkpt lat="43.46595" lon="-0.36159">
        <ele>134.3</ele>
        <time>2026-08-31T09:59:03Z</time>
      </trkpt>
      <trkpt lat="43.46595" lon="-0.36158">
        <ele>134.3</ele>
        <time>2026-08-31T09:59:03Z</time>
      </trkpt>
      <trkpt lat="43.46595" lon="-0.36157">
        <ele>134.3</ele>
        <time>2026-08-31T09:59:04Z</time>
      </trkpt>
      <trkpt lat="43.46595" lon="-0.36156">
        <ele>133.3</ele>
        <time>2026-08-31T09:59:05Z</time>
      </trkpt>
      <trkpt lat="43.46595" lon="-0.36154">
        <ele>133.3</ele>
        <time>2026-08-31T09:59:06Z</time>
      </trkpt>
      <trkpt lat="43.46595" lon="-0.36153">
        <ele>134.3</ele>
        <time>2026-08-31T09:59:06Z</time>
      </trkpt>
      <trkpt lat="43.46595" lon="-0.36152">
        <ele>134.3</ele>
        <time>2026-08-31T09:59:07Z</time>
      </trkpt>
      <trkpt lat="43.46595" lon="-0.36151">
        <ele>134.3</ele>
        <time>2026-08-31T09:59:07Z</time>
      </trkpt>
      <trkpt lat="43.46595" lon="-0.3615">
        <ele>134.3</ele>
        <time>2026-08-31T09:59:08Z</time>
      </trkpt>
      <trkpt lat="43.46595" lon="-0.36149">
        <ele>134.3</ele>
        <time>2026-08-31T09:59:08Z</time>
      </trkpt>
      <trkpt lat="43.46595" lon="-0.36147">
        <ele>134.3</ele>
        <time>2026-08-31T09:59:09Z</time>
      </trkpt>
      <trkpt lat="43.46595" lon="-0.36146">
        <ele>134.3</ele>
        <time>2026-08-31T09:59:09Z</time>
      </trkpt>
      <trkpt lat="43.46595" lon="-0.36144">
        <ele>135.3</ele>
        <time>2026-08-31T09:59:10Z</time>
      </trkpt>
      <trkpt lat="43.46595" lon="-0.36143">
        <ele>135.3</ele>
        <time>2026-08-31T09:59:10Z</time>
      </trkpt>
      <trkpt lat="43.46594" lon="-0.36141">
        <ele>136.3</ele>
        <time>2026-08-31T09:59:11Z</time>
      </trkpt>
      <trkpt lat="43.46595" lon="-0.3614">
        <ele>136.3</ele>
        <time>2026-08-31T09:59:11Z</time>
      </trkpt>
      <trkpt lat="43.46594" lon="-0.36138">
        <ele>137.3</ele>
        <time>2026-08-31T09:59:12Z</time>
      </trkpt>
      <trkpt lat="43.46594" lon="-0.36136">
        <ele>138.3</ele>
        <time>2026-08-31T09:59:13Z</time>
      </trkpt>
      <trkpt lat="43.46593" lon="-0.36135">
        <ele>138.3</ele>
        <time>2026-08-31T09:59:13Z</time>
      </trkpt>
      <trkpt lat="43.46592" lon="-0.36134">
        <ele>138.3</ele>
        <time>2026-08-31T09:59:14Z</time>
      </trkpt>
      <trkpt lat="43.46592" lon="-0.36132">
        <ele>138.3</ele>
        <time>2026-08-31T09:59:15Z</time>
      </trkpt>
      <trkpt lat="43.46591" lon="-0.36131">
        <ele>138.3</ele>
        <time>2026-08-31T09:59:15Z</time>
      </trkpt>
      <trkpt lat="43.46591" lon="-0.3613">
        <ele>138.3</ele>
        <time>2026-08-31T09:59:16Z</time>
      </trkpt>
      <trkpt lat="43.4659" lon="-0.36129">
        <ele>138.3</ele>
        <time>2026-08-31T09:59:16Z</time>
      </trkpt>
      <trkpt lat="43.4659" lon="-0.36129">
        <ele>138.3</ele>
        <time>2026-08-31T09:59:17Z</time>
      </trkpt>
      <trkpt lat="43.4659" lon="-0.36128">
        <ele>138.3</ele>
        <time>2026-08-31T09:59:18Z</time>
      </trkpt>
      <trkpt lat="43.46589" lon="-0.36126">
        <ele>138.3</ele>
        <time>2026-08-31T09:59:19Z</time>
      </trkpt>
      <trkpt lat="43.46589" lon="-0.36126">
        <ele>138.3</ele>
        <time>2026-08-31T09:59:19Z</time>
      </trkpt>
      <trkpt lat="43.46589" lon="-0.36125">
        <ele>138.3</ele>
        <time>2026-08-31T09:59:20Z</time>
      </trkpt>
      <trkpt lat="43.46589" lon="-0.36124">
        <ele>138.3</ele>
        <time>2026-08-31T09:59:20Z</time>
      </trkpt>
      <trkpt lat="43.46588" lon="-0.36123">
        <ele>139.3</ele>
        <time>2026-08-31T09:59:21Z</time>
      </trkpt>
      <trkpt lat="43.46588" lon="-0.36122">
        <ele>139.3</ele>
        <time>2026-08-31T09:59:21Z</time>
      </trkpt>
      <trkpt lat="43.46588" lon="-0.36122">
        <ele>139.3</ele>
        <time>2026-08-31T09:59:22Z</time>
      </trkpt>
      <trkpt lat="43.46587" lon="-0.36121">
        <ele>139.3</ele>
        <time>2026-08-31T09:59:23Z</time>
      </trkpt>
      <trkpt lat="43.46587" lon="-0.36119">
        <ele>139.3</ele>
        <time>2026-08-31T09:59:24Z</time>
      </trkpt>
      <trkpt lat="43.46586" lon="-0.36118">
        <ele>140.3</ele>
        <time>2026-08-31T09:59:25Z</time>
      </trkpt>
      <trkpt lat="43.46586" lon="-0.36117">
        <ele>140.3</ele>
        <time>2026-08-31T09:59:25Z</time>
      </trkpt>
      <trkpt lat="43.46585" lon="-0.36117">
        <ele>140.3</ele>
        <time>2026-08-31T09:59:26Z</time>
      </trkpt>
      <trkpt lat="43.46585" lon="-0.36117">
        <ele>139.3</ele>
        <time>2026-08-31T09:59:26Z</time>
      </trkpt>
      <trkpt lat="43.46585" lon="-0.36116">
        <ele>140.3</ele>
        <time>2026-08-31T09:59:27Z</time>
      </trkpt>
      <trkpt lat="43.46585" lon="-0.36116">
        <ele>140.3</ele>
        <time>2026-08-31T09:59:27Z</time>
      </trkpt>
      <trkpt lat="43.46585" lon="-0.36116">
        <ele>140.3</ele>
        <time>2026-08-31T09:59:28Z</time>
      </trkpt>
      <trkpt lat="43.46585" lon="-0.36115">
        <ele>140.3</ele>
        <time>2026-08-31T09:59:28Z</time>
      </trkpt>
      <trkpt lat="43.46585" lon="-0.36115">
        <ele>140.3</ele>
        <time>2026-08-31T09:59:29Z</time>
      </trkpt>
      <trkpt lat="43.46585" lon="-0.36114">
        <ele>140.3</ele>
        <time>2026-08-31T09:59:29Z</time>
      </trkpt>
      <trkpt lat="43.46585" lon="-0.36113">
        <ele>140.3</ele>
        <time>2026-08-31T09:59:30Z</time>
      </trkpt>
      <trkpt lat="43.46585" lon="-0.36113">
        <ele>140.3</ele>
        <time>2026-08-31T09:59:30Z</time>
      </trkpt>
      <trkpt lat="43.46584" lon="-0.36112">
        <ele>140.3</ele>
        <time>2026-08-31T09:59:31Z</time>
      </trkpt>
      <trkpt lat="43.46584" lon="-0.36111">
        <ele>140.3</ele>
        <time>2026-08-31T09:59:31Z</time>
      </trkpt>
      <trkpt lat="43.46584" lon="-0.3611">
        <ele>139.3</ele>
        <time>2026-08-31T09:59:32Z</time>
      </trkpt>
      <trkpt lat="43.46583" lon="-0.36109">
        <ele>139.3</ele>
        <time>2026-08-31T09:59:33Z</time>
      </trkpt>
      <trkpt lat="43.46582" lon="-0.36108">
        <ele>139.3</ele>
        <time>2026-08-31T09:59:33Z</time>
      </trkpt>
      <trkpt lat="43.46582" lon="-0.36107">
        <ele>139.3</ele>
        <time>2026-08-31T09:59:34Z</time>
      </trkpt>
      <trkpt lat="43.46581" lon="-0.36106">
        <ele>139.3</ele>
        <time>2026-08-31T09:59:34Z</time>
      </trkpt>
      <trkpt lat="43.46581" lon="-0.36105">
        <ele>139.3</ele>
        <time>2026-08-31T09:59:35Z</time>
      </trkpt>
      <trkpt lat="43.4658" lon="-0.36104">
        <ele>139.3</ele>
        <time>2026-08-31T09:59:35Z</time>
      </trkpt>
      <trkpt lat="43.46579" lon="-0.36103">
        <ele>139.3</ele>
        <time>2026-08-31T09:59:36Z</time>
      </trkpt>
      <trkpt lat="43.46579" lon="-0.36103">
        <ele>139.3</ele>
        <time>2026-08-31T09:59:36Z</time>
      </trkpt>
      <trkpt lat="43.46578" lon="-0.36102">
        <ele>139.3</ele>
        <time>2026-08-31T09:59:37Z</time>
      </trkpt>
      <trkpt lat="43.46578" lon="-0.36101">
        <ele>139.3</ele>
        <time>2026-08-31T09:59:37Z</time>
      </trkpt>
      <trkpt lat="43.46577" lon="-0.361">
        <ele>139.3</ele>
        <time>2026-08-31T09:59:38Z</time>
      </trkpt>
      <trkpt lat="43.46577" lon="-0.36099">
        <ele>139.3</ele>
        <time>2026-08-31T09:59:39Z</time>
      </trkpt>
      <trkpt lat="43.46576" lon="-0.36099">
        <ele>139.3</ele>
        <time>2026-08-31T09:59:39Z</time>
      </trkpt>
      <trkpt lat="43.46576" lon="-0.36098">
        <ele>139.3</ele>
        <time>2026-08-31T09:59:40Z</time>
      </trkpt>
      <trkpt lat="43.46575" lon="-0.36097">
        <ele>139.3</ele>
        <time>2026-08-31T09:59:40Z</time>
      </trkpt>
      <trkpt lat="43.46575" lon="-0.36096">
        <ele>139.3</ele>
        <time>2026-08-31T09:59:41Z</time>
      </trkpt>
      <trkpt lat="43.46575" lon="-0.36096">
        <ele>138.3</ele>
        <time>2026-08-31T09:59:41Z</time>
      </trkpt>
      <trkpt lat="43.46574" lon="-0.36095">
        <ele>139.3</ele>
        <time>2026-08-31T09:59:42Z</time>
      </trkpt>
      <trkpt lat="43.46574" lon="-0.36094">
        <ele>139.3</ele>
        <time>2026-08-31T09:59:42Z</time>
      </trkpt>
      <trkpt lat="43.46573" lon="-0.36093">
        <ele>139.3</ele>
        <time>2026-08-31T09:59:43Z</time>
      </trkpt>
      <trkpt lat="43.46573" lon="-0.36092">
        <ele>139.3</ele>
        <time>2026-08-31T09:59:43Z</time>
      </trkpt>
      <trkpt lat="43.46572" lon="-0.36092">
        <ele>139.3</ele>
        <time>2026-08-31T09:59:44Z</time>
      </trkpt>
      <trkpt lat="43.46572" lon="-0.36091">
        <ele>139.3</ele>
        <time>2026-08-31T09:59:44Z</time>
      </trkpt>
      <trkpt lat="43.46572" lon="-0.3609">
        <ele>139.3</ele>
        <time>2026-08-31T09:59:45Z</time>
      </trkpt>
      <trkpt lat="43.46571" lon="-0.36089">
        <ele>139.3</ele>
        <time>2026-08-31T09:59:45Z</time>
      </trkpt>
      <trkpt lat="43.46571" lon="-0.36088">
        <ele>139.3</ele>
        <time>2026-08-31T09:59:46Z</time>
      </trkpt>
      <trkpt lat="43.4657" lon="-0.36087">
        <ele>139.3</ele>
        <time>2026-08-31T09:59:47Z</time>
      </trkpt>
      <trkpt lat="43.4657" lon="-0.36087">
        <ele>139.3</ele>
        <time>2026-08-31T09:59:47Z</time>
      </trkpt>
      <trkpt lat="43.4657" lon="-0.36086">
        <ele>139.3</ele>
        <time>2026-08-31T09:59:48Z</time>
      </trkpt>
      <trkpt lat="43.46569" lon="-0.36085">
        <ele>139.3</ele>
        <time>2026-08-31T09:59:48Z</time>
      </trkpt>
      <trkpt lat="43.46569" lon="-0.36084">
        <ele>139.3</ele>
        <time>2026-08-31T09:59:49Z</time>
      </trkpt>
      <trkpt lat="43.46568" lon="-0.36084">
        <ele>139.3</ele>
        <time>2026-08-31T09:59:49Z</time>
      </trkpt>
      <trkpt lat="43.46568" lon="-0.36083">
        <ele>139.3</ele>
        <time>2026-08-31T09:59:50Z</time>
      </trkpt>
      <trkpt lat="43.46567" lon="-0.36083">
        <ele>139.3</ele>
        <time>2026-08-31T09:59:50Z</time>
      </trkpt>
      <trkpt lat="43.46567" lon="-0.36082">
        <ele>139.3</ele>
        <time>2026-08-31T09:59:51Z</time>
      </trkpt>
      <trkpt lat="43.46566" lon="-0.36081">
        <ele>139.3</ele>
        <time>2026-08-31T09:59:51Z</time>
      </trkpt>
      <trkpt lat="43.46566" lon="-0.3608">
        <ele>139.3</ele>
        <time>2026-08-31T09:59:52Z</time>
      </trkpt>
      <trkpt lat="43.46566" lon="-0.3608">
        <ele>139.3</ele>
        <time>2026-08-31T09:59:52Z</time>
      </trkpt>
      <trkpt lat="43.46565" lon="-0.36079">
        <ele>139.3</ele>
        <time>2026-08-31T09:59:53Z</time>
      </trkpt>
      <trkpt lat="43.46565" lon="-0.36078">
        <ele>139.3</ele>
        <time>2026-08-31T09:59:54Z</time>
      </trkpt>
      <trkpt lat="43.46564" lon="-0.36077">
        <ele>139.3</ele>
        <time>2026-08-31T09:59:54Z</time>
      </trkpt>
      <trkpt lat="43.46564" lon="-0.36077">
        <ele>139.3</ele>
        <time>2026-08-31T09:59:55Z</time>
      </trkpt>
      <trkpt lat="43.46563" lon="-0.36076">
        <ele>139.3</ele>
        <time>2026-08-31T09:59:55Z</time>
      </trkpt>
      <trkpt lat="43.46563" lon="-0.36075">
        <ele>139.3</ele>
        <time>2026-08-31T09:59:56Z</time>
      </trkpt>
      <trkpt lat="43.46562" lon="-0.36074">
        <ele>139.3</ele>
        <time>2026-08-31T09:59:56Z</time>
      </trkpt>
      <trkpt lat="43.46562" lon="-0.36074">
        <ele>139.3</ele>
        <time>2026-08-31T09:59:57Z</time>
      </trkpt>
      <trkpt lat="43.46561" lon="-0.36073">
        <ele>139.3</ele>
        <time>2026-08-31T09:59:57Z</time>
      </trkpt>
      <trkpt lat="43.46561" lon="-0.36072">
        <ele>139.3</ele>
        <time>2026-08-31T09:59:58Z</time>
      </trkpt>
      <trkpt lat="43.46561" lon="-0.36072">
        <ele>139.3</ele>
        <time>2026-08-31T09:59:58Z</time>
      </trkpt>
      <trkpt lat="43.4656" lon="-0.36071">
        <ele>139.3</ele>
        <time>2026-08-31T09:59:59Z</time>
      </trkpt>
      <trkpt lat="43.4656" lon="-0.3607">
        <ele>139.3</ele>
        <time>2026-08-31T10:00:00Z</time>
      </trkpt>
      <trkpt lat="43.46559" lon="-0.3607">
        <ele>139.3</ele>
        <time>2026-08-31T10:00:00Z</time>
      </trkpt>
      <trkpt lat="43.46559" lon="-0.36069">
        <ele>139.3</ele>
        <time>2026-08-31T10:00:01Z</time>
      </trkpt>
      <trkpt lat="43.46558" lon="-0.36068">
        <ele>139.3</ele>
        <time>2026-08-31T10:00:01Z</time>
      </trkpt>
      <trkpt lat="43.46558" lon="-0.36067">
        <ele>139.3</ele>
        <time>2026-08-31T10:00:02Z</time>
      </trkpt>
      <trkpt lat="43.46557" lon="-0.36067">
        <ele>139.3</ele>
        <time>2026-08-31T10:00:02Z</time>
      </trkpt>
      <trkpt lat="43.46557" lon="-0.36066">
        <ele>139.3</ele>
        <time>2026-08-31T10:00:03Z</time>
      </trkpt>
      <trkpt lat="43.46556" lon="-0.36065">
        <ele>139.3</ele>
        <time>2026-08-31T10:00:03Z</time>
      </trkpt>
      <trkpt lat="43.46556" lon="-0.36065">
        <ele>139.3</ele>
        <time>2026-08-31T10:00:04Z</time>
      </trkpt>
      <trkpt lat="43.46555" lon="-0.36064">
        <ele>139.3</ele>
        <time>2026-08-31T10:00:04Z</time>
      </trkpt>
      <trkpt lat="43.46555" lon="-0.36064">
        <ele>139.3</ele>
        <time>2026-08-31T10:00:05Z</time>
      </trkpt>
      <trkpt lat="43.46554" lon="-0.36063">
        <ele>139.3</ele>
        <time>2026-08-31T10:00:05Z</time>
      </trkpt>
      <trkpt lat="43.46554" lon="-0.36062">
        <ele>139.3</ele>
        <time>2026-08-31T10:00:06Z</time>
      </trkpt>
      <trkpt lat="43.46553" lon="-0.36061">
        <ele>139.3</ele>
        <time>2026-08-31T10:00:07Z</time>
      </trkpt>
      <trkpt lat="43.46553" lon="-0.36061">
        <ele>139.3</ele>
        <time>2026-08-31T10:00:07Z</time>
      </trkpt>
      <trkpt lat="43.46552" lon="-0.3606">
        <ele>139.3</ele>
        <time>2026-08-31T10:00:08Z</time>
      </trkpt>
      <trkpt lat="43.46552" lon="-0.36059">
        <ele>139.3</ele>
        <time>2026-08-31T10:00:08Z</time>
      </trkpt>
      <trkpt lat="43.46552" lon="-0.36059">
        <ele>139.3</ele>
        <time>2026-08-31T10:00:09Z</time>
      </trkpt>
      <trkpt lat="43.46551" lon="-0.36059">
        <ele>139.3</ele>
        <time>2026-08-31T10:00:09Z</time>
      </trkpt>
      <trkpt lat="43.46551" lon="-0.36058">
        <ele>139.3</ele>
        <time>2026-08-31T10:00:10Z</time>
      </trkpt>
      <trkpt lat="43.46551" lon="-0.36057">
        <ele>139.3</ele>
        <time>2026-08-31T10:00:10Z</time>
      </trkpt>
      <trkpt lat="43.4655" lon="-0.36056">
        <ele>139.3</ele>
        <time>2026-08-31T10:00:11Z</time>
      </trkpt>
      <trkpt lat="43.4655" lon="-0.36056">
        <ele>139.3</ele>
        <time>2026-08-31T10:00:11Z</time>
      </trkpt>
      <trkpt lat="43.46549" lon="-0.36055">
        <ele>139.3</ele>
        <time>2026-08-31T10:00:12Z</time>
      </trkpt>
      <trkpt lat="43.46549" lon="-0.36054">
        <ele>139.3</ele>
        <time>2026-08-31T10:00:12Z</time>
      </trkpt>
      <trkpt lat="43.46549" lon="-0.36054">
        <ele>139.3</ele>
        <time>2026-08-31T10:00:13Z</time>
      </trkpt>
      <trkpt lat="43.46549" lon="-0.36053">
        <ele>139.3</ele>
        <time>2026-08-31T10:00:14Z</time>
      </trkpt>
      <trkpt lat="43.46549" lon="-0.36052">
        <ele>140.3</ele>
        <time>2026-08-31T10:00:14Z</time>
      </trkpt>
      <trkpt lat="43.46548" lon="-0.36051">
        <ele>140.3</ele>
        <time>2026-08-31T10:00:15Z</time>
      </trkpt>
      <trkpt lat="43.46548" lon="-0.3605">
        <ele>140.3</ele>
        <time>2026-08-31T10:00:15Z</time>
      </trkpt>
      <trkpt lat="43.46548" lon="-0.3605">
        <ele>139.3</ele>
        <time>2026-08-31T10:00:16Z</time>
      </trkpt>
      <trkpt lat="43.46547" lon="-0.36049">
        <ele>139.3</ele>
        <time>2026-08-31T10:00:16Z</time>
      </trkpt>
      <trkpt lat="43.46547" lon="-0.36048">
        <ele>139.3</ele>
        <time>2026-08-31T10:00:17Z</time>
      </trkpt>
      <trkpt lat="43.46547" lon="-0.36047">
        <ele>139.3</ele>
        <time>2026-08-31T10:00:17Z</time>
      </trkpt>
      <trkpt lat="43.46547" lon="-0.36046">
        <ele>140.3</ele>
        <time>2026-08-31T10:00:18Z</time>
      </trkpt>
      <trkpt lat="43.46547" lon="-0.36045">
        <ele>140.3</ele>
        <time>2026-08-31T10:00:18Z</time>
      </trkpt>
      <trkpt lat="43.46546" lon="-0.36045">
        <ele>140.3</ele>
        <time>2026-08-31T10:00:19Z</time>
      </trkpt>
      <trkpt lat="43.46546" lon="-0.36044">
        <ele>140.3</ele>
        <time>2026-08-31T10:00:19Z</time>
      </trkpt>
      <trkpt lat="43.46546" lon="-0.36043">
        <ele>139.3</ele>
        <time>2026-08-31T10:00:20Z</time>
      </trkpt>
      <trkpt lat="43.46546" lon="-0.36042">
        <ele>139.3</ele>
        <time>2026-08-31T10:00:21Z</time>
      </trkpt>
      <trkpt lat="43.46546" lon="-0.36041">
        <ele>140.3</ele>
        <time>2026-08-31T10:00:21Z</time>
      </trkpt>
      <trkpt lat="43.46545" lon="-0.36041">
        <ele>140.3</ele>
        <time>2026-08-31T10:00:22Z</time>
      </trkpt>
      <trkpt lat="43.46545" lon="-0.3604">
        <ele>140.3</ele>
        <time>2026-08-31T10:00:22Z</time>
      </trkpt>
      <trkpt lat="43.46545" lon="-0.36039">
        <ele>139.3</ele>
        <time>2026-08-31T10:00:23Z</time>
      </trkpt>
      <trkpt lat="43.46545" lon="-0.36038">
        <ele>139.3</ele>
        <time>2026-08-31T10:00:23Z</time>
      </trkpt>
      <trkpt lat="43.46544" lon="-0.36037">
        <ele>139.3</ele>
        <time>2026-08-31T10:00:24Z</time>
      </trkpt>
      <trkpt lat="43.46544" lon="-0.36036">
        <ele>139.3</ele>
        <time>2026-08-31T10:00:24Z</time>
      </trkpt>
      <trkpt lat="43.46544" lon="-0.36035">
        <ele>139.3</ele>
        <time>2026-08-31T10:00:25Z</time>
      </trkpt>
      <trkpt lat="43.46543" lon="-0.36034">
        <ele>139.3</ele>
        <time>2026-08-31T10:00:25Z</time>
      </trkpt>
      <trkpt lat="43.46543" lon="-0.36034">
        <ele>139.3</ele>
        <time>2026-08-31T10:00:26Z</time>
      </trkpt>
      <trkpt lat="43.46543" lon="-0.36033">
        <ele>139.3</ele>
        <time>2026-08-31T10:00:26Z</time>
      </trkpt>
      <trkpt lat="43.46543" lon="-0.36032">
        <ele>139.3</ele>
        <time>2026-08-31T10:00:27Z</time>
      </trkpt>
      <trkpt lat="43.46542" lon="-0.36031">
        <ele>139.3</ele>
        <time>2026-08-31T10:00:28Z</time>
      </trkpt>
      <trkpt lat="43.46542" lon="-0.3603">
        <ele>139.3</ele>
        <time>2026-08-31T10:00:28Z</time>
      </trkpt>
      <trkpt lat="43.46542" lon="-0.36029">
        <ele>139.3</ele>
        <time>2026-08-31T10:00:29Z</time>
      </trkpt>
      <trkpt lat="43.46542" lon="-0.36028">
        <ele>139.3</ele>
        <time>2026-08-31T10:00:29Z</time>
      </trkpt>
      <trkpt lat="43.46542" lon="-0.36028">
        <ele>139.3</ele>
        <time>2026-08-31T10:00:30Z</time>
      </trkpt>
      <trkpt lat="43.46542" lon="-0.36027">
        <ele>139.3</ele>
        <time>2026-08-31T10:00:30Z</time>
      </trkpt>
      <trkpt lat="43.46541" lon="-0.36026">
        <ele>139.3</ele>
        <time>2026-08-31T10:00:31Z</time>
      </trkpt>
      <trkpt lat="43.46541" lon="-0.36025">
        <ele>139.3</ele>
        <time>2026-08-31T10:00:31Z</time>
      </trkpt>
      <trkpt lat="43.46541" lon="-0.36024">
        <ele>139.3</ele>
        <time>2026-08-31T10:00:32Z</time>
      </trkpt>
      <trkpt lat="43.46541" lon="-0.36023">
        <ele>139.3</ele>
        <time>2026-08-31T10:00:32Z</time>
      </trkpt>
      <trkpt lat="43.4654" lon="-0.36023">
        <ele>139.3</ele>
        <time>2026-08-31T10:00:33Z</time>
      </trkpt>
      <trkpt lat="43.4654" lon="-0.36022">
        <ele>139.3</ele>
        <time>2026-08-31T10:00:33Z</time>
      </trkpt>
      <trkpt lat="43.4654" lon="-0.36021">
        <ele>138.3</ele>
        <time>2026-08-31T10:00:34Z</time>
      </trkpt>
      <trkpt lat="43.46539" lon="-0.3602">
        <ele>138.3</ele>
        <time>2026-08-31T10:00:35Z</time>
      </trkpt>
      <trkpt lat="43.46539" lon="-0.3602">
        <ele>138.3</ele>
        <time>2026-08-31T10:00:35Z</time>
      </trkpt>
      <trkpt lat="43.46539" lon="-0.36019">
        <ele>138.3</ele>
        <time>2026-08-31T10:00:36Z</time>
      </trkpt>
      <trkpt lat="43.46538" lon="-0.36018">
        <ele>138.3</ele>
        <time>2026-08-31T10:00:36Z</time>
      </trkpt>
      <trkpt lat="43.46538" lon="-0.36018">
        <ele>138.3</ele>
        <time>2026-08-31T10:00:37Z</time>
      </trkpt>
      <trkpt lat="43.46538" lon="-0.36017">
        <ele>138.3</ele>
        <time>2026-08-31T10:00:37Z</time>
      </trkpt>
      <trkpt lat="43.46538" lon="-0.36016">
        <ele>138.3</ele>
        <time>2026-08-31T10:00:38Z</time>
      </trkpt>
      <trkpt lat="43.46537" lon="-0.36015">
        <ele>138.3</ele>
        <time>2026-08-31T10:00:38Z</time>
      </trkpt>
      <trkpt lat="43.46537" lon="-0.36015">
        <ele>138.3</ele>
        <time>2026-08-31T10:00:39Z</time>
      </trkpt>
      <trkpt lat="43.46537" lon="-0.36014">
        <ele>138.3</ele>
        <time>2026-08-31T10:00:39Z</time>
      </trkpt>
      <trkpt lat="43.46536" lon="-0.36013">
        <ele>138.3</ele>
        <time>2026-08-31T10:00:40Z</time>
      </trkpt>
      <trkpt lat="43.46536" lon="-0.36012">
        <ele>138.3</ele>
        <time>2026-08-31T10:00:41Z</time>
      </trkpt>
      <trkpt lat="43.46536" lon="-0.36012">
        <ele>138.3</ele>
        <time>2026-08-31T10:00:41Z</time>
      </trkpt>
      <trkpt lat="43.46535" lon="-0.36011">
        <ele>138.3</ele>
        <time>2026-08-31T10:00:42Z</time>
      </trkpt>
      <trkpt lat="43.46535" lon="-0.3601">
        <ele>137.3</ele>
        <time>2026-08-31T10:00:42Z</time>
      </trkpt>
      <trkpt lat="43.46534" lon="-0.36009">
        <ele>137.3</ele>
        <time>2026-08-31T10:00:43Z</time>
      </trkpt>
      <trkpt lat="43.46534" lon="-0.36009">
        <ele>137.3</ele>
        <time>2026-08-31T10:00:43Z</time>
      </trkpt>
      <trkpt lat="43.46534" lon="-0.36008">
        <ele>136.3</ele>
        <time>2026-08-31T10:00:44Z</time>
      </trkpt>
      <trkpt lat="43.46533" lon="-0.36007">
        <ele>136.3</ele>
        <time>2026-08-31T10:00:44Z</time>
      </trkpt>
      <trkpt lat="43.46533" lon="-0.36006">
        <ele>136.3</ele>
        <time>2026-08-31T10:00:45Z</time>
      </trkpt>
      <trkpt lat="43.46533" lon="-0.36006">
        <ele>136.3</ele>
        <time>2026-08-31T10:00:45Z</time>
      </trkpt>
      <trkpt lat="43.46532" lon="-0.36005">
        <ele>136.3</ele>
        <time>2026-08-31T10:00:46Z</time>
      </trkpt>
      <trkpt lat="43.46532" lon="-0.36004">
        <ele>136.3</ele>
        <time>2026-08-31T10:00:46Z</time>
      </trkpt>
      <trkpt lat="43.46532" lon="-0.36004">
        <ele>136.3</ele>
        <time>2026-08-31T10:00:47Z</time>
      </trkpt>
      <trkpt lat="43.46531" lon="-0.36003">
        <ele>136.3</ele>
        <time>2026-08-31T10:00:48Z</time>
      </trkpt>
      <trkpt lat="43.4653" lon="-0.36002">
        <ele>135.3</ele>
        <time>2026-08-31T10:00:48Z</time>
      </trkpt>
      <trkpt lat="43.4653" lon="-0.36002">
        <ele>135.3</ele>
        <time>2026-08-31T10:00:49Z</time>
      </trkpt>
      <trkpt lat="43.46529" lon="-0.36001">
        <ele>136.3</ele>
        <time>2026-08-31T10:00:49Z</time>
      </trkpt>
      <trkpt lat="43.46529" lon="-0.36001">
        <ele>136.3</ele>
        <time>2026-08-31T10:00:50Z</time>
      </trkpt>
      <trkpt lat="43.46528" lon="-0.36">
        <ele>135.3</ele>
        <time>2026-08-31T10:00:50Z</time>
      </trkpt>
      <trkpt lat="43.46528" lon="-0.36">
        <ele>135.3</ele>
        <time>2026-08-31T10:00:51Z</time>
      </trkpt>
      <trkpt lat="43.46527" lon="-0.36">
        <ele>135.3</ele>
        <time>2026-08-31T10:00:51Z</time>
      </trkpt>
      <trkpt lat="43.46527" lon="-0.35999">
        <ele>135.3</ele>
        <time>2026-08-31T10:00:52Z</time>
      </trkpt>
      <trkpt lat="43.46526" lon="-0.35998">
        <ele>135.3</ele>
        <time>2026-08-31T10:00:52Z</time>
      </trkpt>
      <trkpt lat="43.46526" lon="-0.35998">
        <ele>135.3</ele>
        <time>2026-08-31T10:00:53Z</time>
      </trkpt>
      <trkpt lat="43.46525" lon="-0.35997">
        <ele>135.3</ele>
        <time>2026-08-31T10:00:53Z</time>
      </trkpt>
      <trkpt lat="43.46524" lon="-0.35997">
        <ele>135.3</ele>
        <time>2026-08-31T10:00:54Z</time>
      </trkpt>
      <trkpt lat="43.46524" lon="-0.35996">
        <ele>135.3</ele>
        <time>2026-08-31T10:00:55Z</time>
      </trkpt>
      <trkpt lat="43.46523" lon="-0.35996">
        <ele>135.3</ele>
        <time>2026-08-31T10:00:55Z</time>
      </trkpt>
      <trkpt lat="43.46523" lon="-0.35995">
        <ele>135.3</ele>
        <time>2026-08-31T10:00:56Z</time>
      </trkpt>
      <trkpt lat="43.46522" lon="-0.35995">
        <ele>135.3</ele>
        <time>2026-08-31T10:00:56Z</time>
      </trkpt>
      <trkpt lat="43.46522" lon="-0.35994">
        <ele>135.3</ele>
        <time>2026-08-31T10:00:57Z</time>
      </trkpt>
      <trkpt lat="43.46521" lon="-0.35994">
        <ele>136.3</ele>
        <time>2026-08-31T10:00:57Z</time>
      </trkpt>
      <trkpt lat="43.4652" lon="-0.35994">
        <ele>136.3</ele>
        <time>2026-08-31T10:00:58Z</time>
      </trkpt>
      <trkpt lat="43.4652" lon="-0.35993">
        <ele>136.3</ele>
        <time>2026-08-31T10:00:58Z</time>
      </trkpt>
      <trkpt lat="43.46519" lon="-0.35993">
        <ele>136.3</ele>
        <time>2026-08-31T10:00:59Z</time>
      </trkpt>
      <trkpt lat="43.46519" lon="-0.35992">
        <ele>136.3</ele>
        <time>2026-08-31T10:00:59Z</time>
      </trkpt>
      <trkpt lat="43.46518" lon="-0.35992">
        <ele>136.3</ele>
        <time>2026-08-31T10:01:00Z</time>
      </trkpt>
      <trkpt lat="43.46517" lon="-0.35991">
        <ele>136.3</ele>
        <time>2026-08-31T10:01:00Z</time>
      </trkpt>
      <trkpt lat="43.46517" lon="-0.35991">
        <ele>136.3</ele>
        <time>2026-08-31T10:01:01Z</time>
      </trkpt>
      <trkpt lat="43.46516" lon="-0.3599">
        <ele>136.3</ele>
        <time>2026-08-31T10:01:01Z</time>
      </trkpt>
      <trkpt lat="43.46516" lon="-0.3599">
        <ele>136.3</ele>
        <time>2026-08-31T10:01:02Z</time>
      </trkpt>
      <trkpt lat="43.46515" lon="-0.35989">
        <ele>136.3</ele>
        <time>2026-08-31T10:01:02Z</time>
      </trkpt>
      <trkpt lat="43.46514" lon="-0.35989">
        <ele>136.3</ele>
        <time>2026-08-31T10:01:03Z</time>
      </trkpt>
      <trkpt lat="43.46514" lon="-0.35989">
        <ele>136.3</ele>
        <time>2026-08-31T10:01:04Z</time>
      </trkpt>
      <trkpt lat="43.46513" lon="-0.35989">
        <ele>136.3</ele>
        <time>2026-08-31T10:01:04Z</time>
      </trkpt>
      <trkpt lat="43.46512" lon="-0.35988">
        <ele>136.3</ele>
        <time>2026-08-31T10:01:05Z</time>
      </trkpt>
      <trkpt lat="43.46512" lon="-0.35988">
        <ele>135.3</ele>
        <time>2026-08-31T10:01:05Z</time>
      </trkpt>
      <trkpt lat="43.46511" lon="-0.35988">
        <ele>135.3</ele>
        <time>2026-08-31T10:01:06Z</time>
      </trkpt>
      <trkpt lat="43.46511" lon="-0.35988">
        <ele>135.3</ele>
        <time>2026-08-31T10:01:06Z</time>
      </trkpt>
      <trkpt lat="43.4651" lon="-0.35987">
        <ele>134.3</ele>
        <time>2026-08-31T10:01:07Z</time>
      </trkpt>
      <trkpt lat="43.46509" lon="-0.35987">
        <ele>134.3</ele>
        <time>2026-08-31T10:01:07Z</time>
      </trkpt>
      <trkpt lat="43.46509" lon="-0.35987">
        <ele>135.3</ele>
        <time>2026-08-31T10:01:08Z</time>
      </trkpt>
      <trkpt lat="43.46508" lon="-0.35986">
        <ele>135.3</ele>
        <time>2026-08-31T10:01:08Z</time>
      </trkpt>
      <trkpt lat="43.46507" lon="-0.35986">
        <ele>134.3</ele>
        <time>2026-08-31T10:01:09Z</time>
      </trkpt>
      <trkpt lat="43.46507" lon="-0.35986">
        <ele>134.3</ele>
        <time>2026-08-31T10:01:09Z</time>
      </trkpt>
      <trkpt lat="43.46506" lon="-0.35986">
        <ele>135.3</ele>
        <time>2026-08-31T10:01:10Z</time>
      </trkpt>
      <trkpt lat="43.46505" lon="-0.35985">
        <ele>135.3</ele>
        <time>2026-08-31T10:01:10Z</time>
      </trkpt>
      <trkpt lat="43.46505" lon="-0.35985">
        <ele>135.3</ele>
        <time>2026-08-31T10:01:11Z</time>
      </trkpt>
      <trkpt lat="43.46504" lon="-0.35985">
        <ele>135.3</ele>
        <time>2026-08-31T10:01:12Z</time>
      </trkpt>
      <trkpt lat="43.46503" lon="-0.35985">
        <ele>135.3</ele>
        <time>2026-08-31T10:01:12Z</time>
      </trkpt>
      <trkpt lat="43.46503" lon="-0.35985">
        <ele>135.3</ele>
        <time>2026-08-31T10:01:13Z</time>
      </trkpt>
      <trkpt lat="43.46502" lon="-0.35985">
        <ele>135.3</ele>
        <time>2026-08-31T10:01:13Z</time>
      </trkpt>
      <trkpt lat="43.46501" lon="-0.35985">
        <ele>136.3</ele>
        <time>2026-08-31T10:01:14Z</time>
      </trkpt>
      <trkpt lat="43.46501" lon="-0.35985">
        <ele>136.3</ele>
        <time>2026-08-31T10:01:14Z</time>
      </trkpt>
      <trkpt lat="43.465" lon="-0.35986">
        <ele>136.3</ele>
        <time>2026-08-31T10:01:15Z</time>
      </trkpt>
      <trkpt lat="43.46499" lon="-0.35986">
        <ele>136.3</ele>
        <time>2026-08-31T10:01:15Z</time>
      </trkpt>
      <trkpt lat="43.46499" lon="-0.35986">
        <ele>136.3</ele>
        <time>2026-08-31T10:01:16Z</time>
      </trkpt>
      <trkpt lat="43.46498" lon="-0.35986">
        <ele>136.3</ele>
        <time>2026-08-31T10:01:16Z</time>
      </trkpt>
      <trkpt lat="43.46497" lon="-0.35986">
        <ele>135.3</ele>
        <time>2026-08-31T10:01:17Z</time>
      </trkpt>
      <trkpt lat="43.46496" lon="-0.35986">
        <ele>135.3</ele>
        <time>2026-08-31T10:01:17Z</time>
      </trkpt>
      <trkpt lat="43.46496" lon="-0.35986">
        <ele>136.3</ele>
        <time>2026-08-31T10:01:18Z</time>
      </trkpt>
      <trkpt lat="43.46495" lon="-0.35986">
        <ele>136.3</ele>
        <time>2026-08-31T10:01:19Z</time>
      </trkpt>
      <trkpt lat="43.46494" lon="-0.35986">
        <ele>136.3</ele>
        <time>2026-08-31T10:01:19Z</time>
      </trkpt>
      <trkpt lat="43.46494" lon="-0.35986">
        <ele>136.3</ele>
        <time>2026-08-31T10:01:20Z</time>
      </trkpt>
      <trkpt lat="43.46493" lon="-0.35986">
        <ele>136.3</ele>
        <time>2026-08-31T10:01:20Z</time>
      </trkpt>
      <trkpt lat="43.46492" lon="-0.35986">
        <ele>136.3</ele>
        <time>2026-08-31T10:01:21Z</time>
      </trkpt>
      <trkpt lat="43.46492" lon="-0.35986">
        <ele>136.3</ele>
        <time>2026-08-31T10:01:21Z</time>
      </trkpt>
      <trkpt lat="43.46491" lon="-0.35986">
        <ele>137.3</ele>
        <time>2026-08-31T10:01:22Z</time>
      </trkpt>
      <trkpt lat="43.4649" lon="-0.35987">
        <ele>137.3</ele>
        <time>2026-08-31T10:01:22Z</time>
      </trkpt>
      <trkpt lat="43.4649" lon="-0.35987">
        <ele>137.3</ele>
        <time>2026-08-31T10:01:23Z</time>
      </trkpt>
      <trkpt lat="43.46489" lon="-0.35987">
        <ele>137.3</ele>
        <time>2026-08-31T10:01:23Z</time>
      </trkpt>
      <trkpt lat="43.46488" lon="-0.35987">
        <ele>137.3</ele>
        <time>2026-08-31T10:01:24Z</time>
      </trkpt>
      <trkpt lat="43.46488" lon="-0.35987">
        <ele>137.3</ele>
        <time>2026-08-31T10:01:24Z</time>
      </trkpt>
      <trkpt lat="43.46487" lon="-0.35987">
        <ele>137.3</ele>
        <time>2026-08-31T10:01:25Z</time>
      </trkpt>
      <trkpt lat="43.46486" lon="-0.35987">
        <ele>137.3</ele>
        <time>2026-08-31T10:01:26Z</time>
      </trkpt>
      <trkpt lat="43.46486" lon="-0.35988">
        <ele>137.3</ele>
        <time>2026-08-31T10:01:26Z</time>
      </trkpt>
      <trkpt lat="43.46485" lon="-0.35988">
        <ele>137.3</ele>
        <time>2026-08-31T10:01:27Z</time>
      </trkpt>
      <trkpt lat="43.46484" lon="-0.35988">
        <ele>138.3</ele>
        <time>2026-08-31T10:01:27Z</time>
      </trkpt>
      <trkpt lat="43.46484" lon="-0.35989">
        <ele>138.3</ele>
        <time>2026-08-31T10:01:28Z</time>
      </trkpt>
      <trkpt lat="43.46483" lon="-0.35989">
        <ele>137.3</ele>
        <time>2026-08-31T10:01:28Z</time>
      </trkpt>
      <trkpt lat="43.46482" lon="-0.35989">
        <ele>138.3</ele>
        <time>2026-08-31T10:01:29Z</time>
      </trkpt>
      <trkpt lat="43.46482" lon="-0.3599">
        <ele>138.3</ele>
        <time>2026-08-31T10:01:29Z</time>
      </trkpt>
      <trkpt lat="43.46481" lon="-0.3599">
        <ele>138.3</ele>
        <time>2026-08-31T10:01:30Z</time>
      </trkpt>
      <trkpt lat="43.4648" lon="-0.3599">
        <ele>138.3</ele>
        <time>2026-08-31T10:01:30Z</time>
      </trkpt>
      <trkpt lat="43.4648" lon="-0.35991">
        <ele>138.3</ele>
        <time>2026-08-31T10:01:31Z</time>
      </trkpt>
      <trkpt lat="43.46479" lon="-0.35991">
        <ele>138.3</ele>
        <time>2026-08-31T10:01:32Z</time>
      </trkpt>
      <trkpt lat="43.46478" lon="-0.35991">
        <ele>138.3</ele>
        <time>2026-08-31T10:01:32Z</time>
      </trkpt>
      <trkpt lat="43.46478" lon="-0.35992">
        <ele>138.3</ele>
        <time>2026-08-31T10:01:33Z</time>
      </trkpt>
      <trkpt lat="43.46477" lon="-0.35992">
        <ele>138.3</ele>
        <time>2026-08-31T10:01:33Z</time>
      </trkpt>
      <trkpt lat="43.46476" lon="-0.35992">
        <ele>138.3</ele>
        <time>2026-08-31T10:01:34Z</time>
      </trkpt>
      <trkpt lat="43.46476" lon="-0.35993">
        <ele>138.3</ele>
        <time>2026-08-31T10:01:34Z</time>
      </trkpt>
      <trkpt lat="43.46475" lon="-0.35993">
        <ele>139.3</ele>
        <time>2026-08-31T10:01:35Z</time>
      </trkpt>
      <trkpt lat="43.46475" lon="-0.35993">
        <ele>139.3</ele>
        <time>2026-08-31T10:01:35Z</time>
      </trkpt>
      <trkpt lat="43.46474" lon="-0.35994">
        <ele>139.3</ele>
        <time>2026-08-31T10:01:36Z</time>
      </trkpt>
      <trkpt lat="43.46473" lon="-0.35994">
        <ele>139.3</ele>
        <time>2026-08-31T10:01:36Z</time>
      </trkpt>
      <trkpt lat="43.46472" lon="-0.35995">
        <ele>139.3</ele>
        <time>2026-08-31T10:01:37Z</time>
      </trkpt>
      <trkpt lat="43.46472" lon="-0.35995">
        <ele>139.3</ele>
        <time>2026-08-31T10:01:38Z</time>
      </trkpt>
      <trkpt lat="43.46471" lon="-0.35996">
        <ele>139.3</ele>
        <time>2026-08-31T10:01:38Z</time>
      </trkpt>
      <trkpt lat="43.46471" lon="-0.35996">
        <ele>139.3</ele>
        <time>2026-08-31T10:01:39Z</time>
      </trkpt>
      <trkpt lat="43.4647" lon="-0.35996">
        <ele>140.3</ele>
        <time>2026-08-31T10:01:39Z</time>
      </trkpt>
      <trkpt lat="43.46469" lon="-0.35997">
        <ele>140.3</ele>
        <time>2026-08-31T10:01:40Z</time>
      </trkpt>
      <trkpt lat="43.46468" lon="-0.35997">
        <ele>140.3</ele>
        <time>2026-08-31T10:01:40Z</time>
      </trkpt>
      <trkpt lat="43.46468" lon="-0.35998">
        <ele>140.3</ele>
        <time>2026-08-31T10:01:41Z</time>
      </trkpt>
      <trkpt lat="43.46467" lon="-0.35998">
        <ele>140.3</ele>
        <time>2026-08-31T10:01:41Z</time>
      </trkpt>
      <trkpt lat="43.46466" lon="-0.35999">
        <ele>140.3</ele>
        <time>2026-08-31T10:01:42Z</time>
      </trkpt>
      <trkpt lat="43.46466" lon="-0.35999">
        <ele>140.3</ele>
        <time>2026-08-31T10:01:43Z</time>
      </trkpt>
      <trkpt lat="43.46465" lon="-0.35999">
        <ele>140.3</ele>
        <time>2026-08-31T10:01:43Z</time>
      </trkpt>
      <trkpt lat="43.46464" lon="-0.35999">
        <ele>140.3</ele>
        <time>2026-08-31T10:01:44Z</time>
      </trkpt>
      <trkpt lat="43.46463" lon="-0.36">
        <ele>141.3</ele>
        <time>2026-08-31T10:01:44Z</time>
      </trkpt>
      <trkpt lat="43.46463" lon="-0.36">
        <ele>141.3</ele>
        <time>2026-08-31T10:01:45Z</time>
      </trkpt>
      <trkpt lat="43.46462" lon="-0.36">
        <ele>141.3</ele>
        <time>2026-08-31T10:01:45Z</time>
      </trkpt>
      <trkpt lat="43.46461" lon="-0.36">
        <ele>141.3</ele>
        <time>2026-08-31T10:01:46Z</time>
      </trkpt>
      <trkpt lat="43.46461" lon="-0.36">
        <ele>141.3</ele>
        <time>2026-08-31T10:01:47Z</time>
      </trkpt>
      <trkpt lat="43.4646" lon="-0.36">
        <ele>140.3</ele>
        <time>2026-08-31T10:01:47Z</time>
      </trkpt>
      <trkpt lat="43.46459" lon="-0.36001">
        <ele>140.3</ele>
        <time>2026-08-31T10:01:48Z</time>
      </trkpt>
      <trkpt lat="43.46459" lon="-0.36001">
        <ele>140.3</ele>
        <time>2026-08-31T10:01:48Z</time>
      </trkpt>
      <trkpt lat="43.46458" lon="-0.36001">
        <ele>140.3</ele>
        <time>2026-08-31T10:01:49Z</time>
      </trkpt>
      <trkpt lat="43.46457" lon="-0.36002">
        <ele>140.3</ele>
        <time>2026-08-31T10:01:49Z</time>
      </trkpt>
      <trkpt lat="43.46457" lon="-0.36002">
        <ele>140.3</ele>
        <time>2026-08-31T10:01:50Z</time>
      </trkpt>
      <trkpt lat="43.46456" lon="-0.36002">
        <ele>140.3</ele>
        <time>2026-08-31T10:01:50Z</time>
      </trkpt>
      <trkpt lat="43.46455" lon="-0.36003">
        <ele>140.3</ele>
        <time>2026-08-31T10:01:51Z</time>
      </trkpt>
      <trkpt lat="43.46455" lon="-0.36003">
        <ele>140.3</ele>
        <time>2026-08-31T10:01:51Z</time>
      </trkpt>
      <trkpt lat="43.46454" lon="-0.36003">
        <ele>141.3</ele>
        <time>2026-08-31T10:01:52Z</time>
      </trkpt>
      <trkpt lat="43.46453" lon="-0.36004">
        <ele>141.3</ele>
        <time>2026-08-31T10:01:53Z</time>
      </trkpt>
      <trkpt lat="43.46453" lon="-0.36004">
        <ele>141.3</ele>
        <time>2026-08-31T10:01:53Z</time>
      </trkpt>
      <trkpt lat="43.46452" lon="-0.36004">
        <ele>141.3</ele>
        <time>2026-08-31T10:01:54Z</time>
      </trkpt>
      <trkpt lat="43.46451" lon="-0.36005">
        <ele>141.3</ele>
        <time>2026-08-31T10:01:54Z</time>
      </trkpt>
      <trkpt lat="43.46451" lon="-0.36005">
        <ele>141.3</ele>
        <time>2026-08-31T10:01:55Z</time>
      </trkpt>
      <trkpt lat="43.4645" lon="-0.36005">
        <ele>141.3</ele>
        <time>2026-08-31T10:01:55Z</time>
      </trkpt>
      <trkpt lat="43.46449" lon="-0.36006">
        <ele>141.3</ele>
        <time>2026-08-31T10:01:56Z</time>
      </trkpt>
      <trkpt lat="43.46449" lon="-0.36006">
        <ele>141.3</ele>
        <time>2026-08-31T10:01:56Z</time>
      </trkpt>
      <trkpt lat="43.46448" lon="-0.36006">
        <ele>141.3</ele>
        <time>2026-08-31T10:01:57Z</time>
      </trkpt>
      <trkpt lat="43.46447" lon="-0.36006">
        <ele>141.3</ele>
        <time>2026-08-31T10:01:57Z</time>
      </trkpt>
      <trkpt lat="43.46447" lon="-0.36007">
        <ele>141.3</ele>
        <time>2026-08-31T10:01:58Z</time>
      </trkpt>
      <trkpt lat="43.46446" lon="-0.36007">
        <ele>141.3</ele>
        <time>2026-08-31T10:01:59Z</time>
      </trkpt>
      <trkpt lat="43.46445" lon="-0.36008">
        <ele>141.3</ele>
        <time>2026-08-31T10:01:59Z</time>
      </trkpt>
      <trkpt lat="43.46445" lon="-0.36008">
        <ele>142.3</ele>
        <time>2026-08-31T10:02:00Z</time>
      </trkpt>
      <trkpt lat="43.46444" lon="-0.36008">
        <ele>142.3</ele>
        <time>2026-08-31T10:02:00Z</time>
      </trkpt>
      <trkpt lat="43.46444" lon="-0.36009">
        <ele>142.3</ele>
        <time>2026-08-31T10:02:01Z</time>
      </trkpt>
      <trkpt lat="43.46443" lon="-0.36009">
        <ele>142.3</ele>
        <time>2026-08-31T10:02:01Z</time>
      </trkpt>
      <trkpt lat="43.46442" lon="-0.36009">
        <ele>142.3</ele>
        <time>2026-08-31T10:02:02Z</time>
      </trkpt>
      <trkpt lat="43.46442" lon="-0.36009">
        <ele>142.3</ele>
        <time>2026-08-31T10:02:02Z</time>
      </trkpt>
      <trkpt lat="43.46441" lon="-0.3601">
        <ele>142.3</ele>
        <time>2026-08-31T10:02:03Z</time>
      </trkpt>
      <trkpt lat="43.4644" lon="-0.3601">
        <ele>142.3</ele>
        <time>2026-08-31T10:02:04Z</time>
      </trkpt>
      <trkpt lat="43.4644" lon="-0.36011">
        <ele>142.3</ele>
        <time>2026-08-31T10:02:04Z</time>
      </trkpt>
      <trkpt lat="43.46439" lon="-0.36011">
        <ele>143.3</ele>
        <time>2026-08-31T10:02:05Z</time>
      </trkpt>
      <trkpt lat="43.46439" lon="-0.36011">
        <ele>143.3</ele>
        <time>2026-08-31T10:02:05Z</time>
      </trkpt>
      <trkpt lat="43.46438" lon="-0.36011">
        <ele>143.3</ele>
        <time>2026-08-31T10:02:06Z</time>
      </trkpt>
      <trkpt lat="43.46437" lon="-0.36012">
        <ele>143.3</ele>
        <time>2026-08-31T10:02:06Z</time>
      </trkpt>
      <trkpt lat="43.46437" lon="-0.36012">
        <ele>143.3</ele>
        <time>2026-08-31T10:02:07Z</time>
      </trkpt>
      <trkpt lat="43.46436" lon="-0.36012">
        <ele>143.3</ele>
        <time>2026-08-31T10:02:08Z</time>
      </trkpt>
      <trkpt lat="43.46434" lon="-0.36012">
        <ele>143.3</ele>
        <time>2026-08-31T10:02:09Z</time>
      </trkpt>
      <trkpt lat="43.46434" lon="-0.36012">
        <ele>143.3</ele>
        <time>2026-08-31T10:02:09Z</time>
      </trkpt>
      <trkpt lat="43.46433" lon="-0.36012">
        <ele>144.3</ele>
        <time>2026-08-31T10:02:10Z</time>
      </trkpt>
      <trkpt lat="43.46432" lon="-0.36013">
        <ele>144.3</ele>
        <time>2026-08-31T10:02:10Z</time>
      </trkpt>
      <trkpt lat="43.46432" lon="-0.36013">
        <ele>144.3</ele>
        <time>2026-08-31T10:02:11Z</time>
      </trkpt>
      <trkpt lat="43.46431" lon="-0.36013">
        <ele>144.3</ele>
        <time>2026-08-31T10:02:12Z</time>
      </trkpt>
      <trkpt lat="43.4643" lon="-0.36012">
        <ele>143.3</ele>
        <time>2026-08-31T10:02:12Z</time>
      </trkpt>
      <trkpt lat="43.4643" lon="-0.36012">
        <ele>143.3</ele>
        <time>2026-08-31T10:02:13Z</time>
      </trkpt>
      <trkpt lat="43.46429" lon="-0.36012">
        <ele>143.3</ele>
        <time>2026-08-31T10:02:13Z</time>
      </trkpt>
      <trkpt lat="43.46428" lon="-0.36012">
        <ele>143.3</ele>
        <time>2026-08-31T10:02:14Z</time>
      </trkpt>
      <trkpt lat="43.46428" lon="-0.36012">
        <ele>143.3</ele>
        <time>2026-08-31T10:02:14Z</time>
      </trkpt>
      <trkpt lat="43.46427" lon="-0.36012">
        <ele>144.3</ele>
        <time>2026-08-31T10:02:15Z</time>
      </trkpt>
      <trkpt lat="43.46426" lon="-0.36012">
        <ele>144.3</ele>
        <time>2026-08-31T10:02:16Z</time>
      </trkpt>
      <trkpt lat="43.46426" lon="-0.36012">
        <ele>144.3</ele>
        <time>2026-08-31T10:02:16Z</time>
      </trkpt>
      <trkpt lat="43.46425" lon="-0.36012">
        <ele>144.3</ele>
        <time>2026-08-31T10:02:17Z</time>
      </trkpt>
      <trkpt lat="43.46424" lon="-0.36012">
        <ele>144.3</ele>
        <time>2026-08-31T10:02:17Z</time>
      </trkpt>
      <trkpt lat="43.46424" lon="-0.36012">
        <ele>145.3</ele>
        <time>2026-08-31T10:02:18Z</time>
      </trkpt>
      <trkpt lat="43.46423" lon="-0.36012">
        <ele>145.3</ele>
        <time>2026-08-31T10:02:18Z</time>
      </trkpt>
      <trkpt lat="43.46422" lon="-0.36012">
        <ele>145.3</ele>
        <time>2026-08-31T10:02:19Z</time>
      </trkpt>
      <trkpt lat="43.46421" lon="-0.36012">
        <ele>145.3</ele>
        <time>2026-08-31T10:02:20Z</time>
      </trkpt>
      <trkpt lat="43.46421" lon="-0.36012">
        <ele>145.3</ele>
        <time>2026-08-31T10:02:20Z</time>
      </trkpt>
      <trkpt lat="43.4642" lon="-0.36012">
        <ele>145.3</ele>
        <time>2026-08-31T10:02:21Z</time>
      </trkpt>
      <trkpt lat="43.46419" lon="-0.36012">
        <ele>145.3</ele>
        <time>2026-08-31T10:02:21Z</time>
      </trkpt>
      <trkpt lat="43.46419" lon="-0.36012">
        <ele>145.3</ele>
        <time>2026-08-31T10:02:22Z</time>
      </trkpt>
      <trkpt lat="43.46418" lon="-0.36012">
        <ele>145.3</ele>
        <time>2026-08-31T10:02:22Z</time>
      </trkpt>
      <trkpt lat="43.46417" lon="-0.36012">
        <ele>145.3</ele>
        <time>2026-08-31T10:02:23Z</time>
      </trkpt>
      <trkpt lat="43.46416" lon="-0.36012">
        <ele>145.3</ele>
        <time>2026-08-31T10:02:24Z</time>
      </trkpt>
      <trkpt lat="43.46416" lon="-0.36012">
        <ele>146.3</ele>
        <time>2026-08-31T10:02:24Z</time>
      </trkpt>
      <trkpt lat="43.46416" lon="-0.36012">
        <ele>146.3</ele>
        <time>2026-08-31T10:02:25Z</time>
      </trkpt>
      <trkpt lat="43.46415" lon="-0.36012">
        <ele>146.3</ele>
        <time>2026-08-31T10:02:25Z</time>
      </trkpt>
      <trkpt lat="43.46414" lon="-0.36012">
        <ele>146.3</ele>
        <time>2026-08-31T10:02:26Z</time>
      </trkpt>
      <trkpt lat="43.46414" lon="-0.36012">
        <ele>146.3</ele>
        <time>2026-08-31T10:02:26Z</time>
      </trkpt>
      <trkpt lat="43.46413" lon="-0.36012">
        <ele>146.3</ele>
        <time>2026-08-31T10:02:27Z</time>
      </trkpt>
      <trkpt lat="43.46412" lon="-0.36011">
        <ele>146.3</ele>
        <time>2026-08-31T10:02:28Z</time>
      </trkpt>
      <trkpt lat="43.46412" lon="-0.36011">
        <ele>146.3</ele>
        <time>2026-08-31T10:02:28Z</time>
      </trkpt>
      <trkpt lat="43.46411" lon="-0.36011">
        <ele>146.3</ele>
        <time>2026-08-31T10:02:29Z</time>
      </trkpt>
      <trkpt lat="43.4641" lon="-0.36011">
        <ele>146.3</ele>
        <time>2026-08-31T10:02:29Z</time>
      </trkpt>
      <trkpt lat="43.46409" lon="-0.36011">
        <ele>147.3</ele>
        <time>2026-08-31T10:02:30Z</time>
      </trkpt>
      <trkpt lat="43.46409" lon="-0.3601">
        <ele>147.3</ele>
        <time>2026-08-31T10:02:30Z</time>
      </trkpt>
      <trkpt lat="43.46408" lon="-0.3601">
        <ele>147.3</ele>
        <time>2026-08-31T10:02:31Z</time>
      </trkpt>
      <trkpt lat="43.46407" lon="-0.3601">
        <ele>147.3</ele>
        <time>2026-08-31T10:02:32Z</time>
      </trkpt>
      <trkpt lat="43.46407" lon="-0.3601">
        <ele>147.3</ele>
        <time>2026-08-31T10:02:32Z</time>
      </trkpt>
      <trkpt lat="43.46406" lon="-0.36009">
        <ele>147.3</ele>
        <time>2026-08-31T10:02:33Z</time>
      </trkpt>
      <trkpt lat="43.46405" lon="-0.36009">
        <ele>147.3</ele>
        <time>2026-08-31T10:02:33Z</time>
      </trkpt>
      <trkpt lat="43.46404" lon="-0.36009">
        <ele>148.3</ele>
        <time>2026-08-31T10:02:34Z</time>
      </trkpt>
      <trkpt lat="43.46404" lon="-0.36009">
        <ele>148.3</ele>
        <time>2026-08-31T10:02:34Z</time>
      </trkpt>
      <trkpt lat="43.46403" lon="-0.36009">
        <ele>148.3</ele>
        <time>2026-08-31T10:02:35Z</time>
      </trkpt>
      <trkpt lat="43.46402" lon="-0.36008">
        <ele>148.3</ele>
        <time>2026-08-31T10:02:36Z</time>
      </trkpt>
      <trkpt lat="43.46401" lon="-0.36008">
        <ele>148.3</ele>
        <time>2026-08-31T10:02:36Z</time>
      </trkpt>
      <trkpt lat="43.46401" lon="-0.36008">
        <ele>148.3</ele>
        <time>2026-08-31T10:02:37Z</time>
      </trkpt>
      <trkpt lat="43.464" lon="-0.36008">
        <ele>148.3</ele>
        <time>2026-08-31T10:02:37Z</time>
      </trkpt>
      <trkpt lat="43.464" lon="-0.36008">
        <ele>149.3</ele>
        <time>2026-08-31T10:02:38Z</time>
      </trkpt>
      <trkpt lat="43.46399" lon="-0.36007">
        <ele>149.3</ele>
        <time>2026-08-31T10:02:39Z</time>
      </trkpt>
      <trkpt lat="43.46398" lon="-0.36007">
        <ele>149.3</ele>
        <time>2026-08-31T10:02:39Z</time>
      </trkpt>
      <trkpt lat="43.46397" lon="-0.36007">
        <ele>149.3</ele>
        <time>2026-08-31T10:02:40Z</time>
      </trkpt>
      <trkpt lat="43.46397" lon="-0.36007">
        <ele>149.3</ele>
        <time>2026-08-31T10:02:40Z</time>
      </trkpt>
      <trkpt lat="43.46396" lon="-0.36007">
        <ele>149.3</ele>
        <time>2026-08-31T10:02:41Z</time>
      </trkpt>
      <trkpt lat="43.46395" lon="-0.36007">
        <ele>149.3</ele>
        <time>2026-08-31T10:02:41Z</time>
      </trkpt>
      <trkpt lat="43.46395" lon="-0.36007">
        <ele>149.3</ele>
        <time>2026-08-31T10:02:42Z</time>
      </trkpt>
      <trkpt lat="43.46394" lon="-0.36007">
        <ele>149.3</ele>
        <time>2026-08-31T10:02:42Z</time>
      </trkpt>
      <trkpt lat="43.46393" lon="-0.36007">
        <ele>149.3</ele>
        <time>2026-08-31T10:02:43Z</time>
      </trkpt>
      <trkpt lat="43.46393" lon="-0.36007">
        <ele>149.3</ele>
        <time>2026-08-31T10:02:44Z</time>
      </trkpt>
      <trkpt lat="43.46392" lon="-0.36007">
        <ele>150.3</ele>
        <time>2026-08-31T10:02:44Z</time>
      </trkpt>
      <trkpt lat="43.46391" lon="-0.36007">
        <ele>150.3</ele>
        <time>2026-08-31T10:02:45Z</time>
      </trkpt>
      <trkpt lat="43.4639" lon="-0.36007">
        <ele>150.3</ele>
        <time>2026-08-31T10:02:45Z</time>
      </trkpt>
      <trkpt lat="43.4639" lon="-0.36007">
        <ele>150.3</ele>
        <time>2026-08-31T10:02:46Z</time>
      </trkpt>
      <trkpt lat="43.46389" lon="-0.36006">
        <ele>150.3</ele>
        <time>2026-08-31T10:02:46Z</time>
      </trkpt>
      <trkpt lat="43.46388" lon="-0.36006">
        <ele>150.3</ele>
        <time>2026-08-31T10:02:47Z</time>
      </trkpt>
      <trkpt lat="43.46388" lon="-0.36006">
        <ele>150.3</ele>
        <time>2026-08-31T10:02:48Z</time>
      </trkpt>
      <trkpt lat="43.46387" lon="-0.36006">
        <ele>150.3</ele>
        <time>2026-08-31T10:02:48Z</time>
      </trkpt>
      <trkpt lat="43.46386" lon="-0.36006">
        <ele>150.3</ele>
        <time>2026-08-31T10:02:49Z</time>
      </trkpt>
      <trkpt lat="43.46385" lon="-0.36005">
        <ele>150.3</ele>
        <time>2026-08-31T10:02:49Z</time>
      </trkpt>
      <trkpt lat="43.46385" lon="-0.36005">
        <ele>150.3</ele>
        <time>2026-08-31T10:02:50Z</time>
      </trkpt>
      <trkpt lat="43.46384" lon="-0.36005">
        <ele>150.3</ele>
        <time>2026-08-31T10:02:50Z</time>
      </trkpt>
      <trkpt lat="43.46383" lon="-0.36005">
        <ele>150.3</ele>
        <time>2026-08-31T10:02:51Z</time>
      </trkpt>
      <trkpt lat="43.46382" lon="-0.36004">
        <ele>150.3</ele>
        <time>2026-08-31T10:02:52Z</time>
      </trkpt>
      <trkpt lat="43.46382" lon="-0.36004">
        <ele>150.3</ele>
        <time>2026-08-31T10:02:52Z</time>
      </trkpt>
      <trkpt lat="43.46381" lon="-0.36004">
        <ele>150.3</ele>
        <time>2026-08-31T10:02:53Z</time>
      </trkpt>
      <trkpt lat="43.4638" lon="-0.36004">
        <ele>150.3</ele>
        <time>2026-08-31T10:02:53Z</time>
      </trkpt>
      <trkpt lat="43.4638" lon="-0.36003">
        <ele>150.3</ele>
        <time>2026-08-31T10:02:54Z</time>
      </trkpt>
      <trkpt lat="43.46379" lon="-0.36003">
        <ele>150.3</ele>
        <time>2026-08-31T10:02:54Z</time>
      </trkpt>
      <trkpt lat="43.46378" lon="-0.36003">
        <ele>150.3</ele>
        <time>2026-08-31T10:02:55Z</time>
      </trkpt>
      <trkpt lat="43.46377" lon="-0.36003">
        <ele>150.3</ele>
        <time>2026-08-31T10:02:56Z</time>
      </trkpt>
      <trkpt lat="43.46377" lon="-0.36003">
        <ele>150.3</ele>
        <time>2026-08-31T10:02:56Z</time>
      </trkpt>
      <trkpt lat="43.46376" lon="-0.36002">
        <ele>150.3</ele>
        <time>2026-08-31T10:02:57Z</time>
      </trkpt>
      <trkpt lat="43.46375" lon="-0.36002">
        <ele>150.3</ele>
        <time>2026-08-31T10:02:57Z</time>
      </trkpt>
      <trkpt lat="43.46375" lon="-0.36002">
        <ele>150.3</ele>
        <time>2026-08-31T10:02:58Z</time>
      </trkpt>
      <trkpt lat="43.46374" lon="-0.36002">
        <ele>150.3</ele>
        <time>2026-08-31T10:02:58Z</time>
      </trkpt>
      <trkpt lat="43.46373" lon="-0.36001">
        <ele>151.3</ele>
        <time>2026-08-31T10:02:59Z</time>
      </trkpt>
      <trkpt lat="43.46373" lon="-0.36001">
        <ele>151.3</ele>
        <time>2026-08-31T10:03:00Z</time>
      </trkpt>
      <trkpt lat="43.46372" lon="-0.36001">
        <ele>150.3</ele>
        <time>2026-08-31T10:03:00Z</time>
      </trkpt>
      <trkpt lat="43.46371" lon="-0.36001">
        <ele>150.3</ele>
        <time>2026-08-31T10:03:01Z</time>
      </trkpt>
      <trkpt lat="43.46371" lon="-0.36">
        <ele>151.3</ele>
        <time>2026-08-31T10:03:01Z</time>
      </trkpt>
      <trkpt lat="43.4637" lon="-0.36">
        <ele>151.3</ele>
        <time>2026-08-31T10:03:02Z</time>
      </trkpt>
      <trkpt lat="43.46369" lon="-0.36">
        <ele>151.3</ele>
        <time>2026-08-31T10:03:02Z</time>
      </trkpt>
      <trkpt lat="43.46368" lon="-0.35999">
        <ele>151.3</ele>
        <time>2026-08-31T10:03:03Z</time>
      </trkpt>
      <trkpt lat="43.46368" lon="-0.35999">
        <ele>151.3</ele>
        <time>2026-08-31T10:03:04Z</time>
      </trkpt>
      <trkpt lat="43.46367" lon="-0.35999">
        <ele>151.3</ele>
        <time>2026-08-31T10:03:04Z</time>
      </trkpt>
      <trkpt lat="43.46366" lon="-0.35999">
        <ele>151.3</ele>
        <time>2026-08-31T10:03:05Z</time>
      </trkpt>
      <trkpt lat="43.46366" lon="-0.35998">
        <ele>152.3</ele>
        <time>2026-08-31T10:03:05Z</time>
      </trkpt>
      <trkpt lat="43.46365" lon="-0.35998">
        <ele>152.3</ele>
        <time>2026-08-31T10:03:06Z</time>
      </trkpt>
      <trkpt lat="43.46365" lon="-0.35998">
        <ele>152.3</ele>
        <time>2026-08-31T10:03:06Z</time>
      </trkpt>
      <trkpt lat="43.46364" lon="-0.35997">
        <ele>152.3</ele>
        <time>2026-08-31T10:03:07Z</time>
      </trkpt>
      <trkpt lat="43.46363" lon="-0.35997">
        <ele>152.3</ele>
        <time>2026-08-31T10:03:07Z</time>
      </trkpt>
      <trkpt lat="43.46363" lon="-0.35997">
        <ele>152.3</ele>
        <time>2026-08-31T10:03:08Z</time>
      </trkpt>
      <trkpt lat="43.46362" lon="-0.35996">
        <ele>152.3</ele>
        <time>2026-08-31T10:03:09Z</time>
      </trkpt>
      <trkpt lat="43.46361" lon="-0.35996">
        <ele>152.3</ele>
        <time>2026-08-31T10:03:09Z</time>
      </trkpt>
      <trkpt lat="43.46361" lon="-0.35996">
        <ele>152.3</ele>
        <time>2026-08-31T10:03:10Z</time>
      </trkpt>
      <trkpt lat="43.4636" lon="-0.35995">
        <ele>152.3</ele>
        <time>2026-08-31T10:03:10Z</time>
      </trkpt>
      <trkpt lat="43.46359" lon="-0.35995">
        <ele>152.3</ele>
        <time>2026-08-31T10:03:11Z</time>
      </trkpt>
      <trkpt lat="43.46359" lon="-0.35995">
        <ele>152.3</ele>
        <time>2026-08-31T10:03:11Z</time>
      </trkpt>
      <trkpt lat="43.46358" lon="-0.35995">
        <ele>152.3</ele>
        <time>2026-08-31T10:03:12Z</time>
      </trkpt>
      <trkpt lat="43.46357" lon="-0.35994">
        <ele>152.3</ele>
        <time>2026-08-31T10:03:13Z</time>
      </trkpt>
      <trkpt lat="43.46357" lon="-0.35994">
        <ele>152.3</ele>
        <time>2026-08-31T10:03:13Z</time>
      </trkpt>
      <trkpt lat="43.46356" lon="-0.35994">
        <ele>152.3</ele>
        <time>2026-08-31T10:03:14Z</time>
      </trkpt>
      <trkpt lat="43.46355" lon="-0.35994">
        <ele>152.3</ele>
        <time>2026-08-31T10:03:14Z</time>
      </trkpt>
      <trkpt lat="43.46354" lon="-0.35993">
        <ele>152.3</ele>
        <time>2026-08-31T10:03:15Z</time>
      </trkpt>
      <trkpt lat="43.46354" lon="-0.35993">
        <ele>152.3</ele>
        <time>2026-08-31T10:03:15Z</time>
      </trkpt>
      <trkpt lat="43.46353" lon="-0.35993">
        <ele>152.3</ele>
        <time>2026-08-31T10:03:16Z</time>
      </trkpt>
      <trkpt lat="43.46352" lon="-0.35992">
        <ele>152.3</ele>
        <time>2026-08-31T10:03:17Z</time>
      </trkpt>
      <trkpt lat="43.46352" lon="-0.35992">
        <ele>152.3</ele>
        <time>2026-08-31T10:03:17Z</time>
      </trkpt>
      <trkpt lat="43.46351" lon="-0.35992">
        <ele>152.3</ele>
        <time>2026-08-31T10:03:18Z</time>
      </trkpt>
      <trkpt lat="43.4635" lon="-0.35992">
        <ele>152.3</ele>
        <time>2026-08-31T10:03:18Z</time>
      </trkpt>
      <trkpt lat="43.46349" lon="-0.35992">
        <ele>152.3</ele>
        <time>2026-08-31T10:03:19Z</time>
      </trkpt>
      <trkpt lat="43.46349" lon="-0.35991">
        <ele>152.3</ele>
        <time>2026-08-31T10:03:19Z</time>
      </trkpt>
      <trkpt lat="43.46348" lon="-0.35991">
        <ele>153.3</ele>
        <time>2026-08-31T10:03:20Z</time>
      </trkpt>
      <trkpt lat="43.46347" lon="-0.35991">
        <ele>153.3</ele>
        <time>2026-08-31T10:03:21Z</time>
      </trkpt>
      <trkpt lat="43.46346" lon="-0.35991">
        <ele>153.3</ele>
        <time>2026-08-31T10:03:21Z</time>
      </trkpt>
      <trkpt lat="43.46345" lon="-0.3599">
        <ele>153.3</ele>
        <time>2026-08-31T10:03:22Z</time>
      </trkpt>
      <trkpt lat="43.46345" lon="-0.3599">
        <ele>153.3</ele>
        <time>2026-08-31T10:03:22Z</time>
      </trkpt>
      <trkpt lat="43.46344" lon="-0.3599">
        <ele>152.3</ele>
        <time>2026-08-31T10:03:23Z</time>
      </trkpt>
      <trkpt lat="43.46343" lon="-0.3599">
        <ele>152.3</ele>
        <time>2026-08-31T10:03:23Z</time>
      </trkpt>
      <trkpt lat="43.46343" lon="-0.35989">
        <ele>152.3</ele>
        <time>2026-08-31T10:03:24Z</time>
      </trkpt>
      <trkpt lat="43.46342" lon="-0.35989">
        <ele>152.3</ele>
        <time>2026-08-31T10:03:25Z</time>
      </trkpt>
      <trkpt lat="43.46341" lon="-0.35989">
        <ele>153.3</ele>
        <time>2026-08-31T10:03:25Z</time>
      </trkpt>
      <trkpt lat="43.46341" lon="-0.35988">
        <ele>153.3</ele>
        <time>2026-08-31T10:03:26Z</time>
      </trkpt>
      <trkpt lat="43.4634" lon="-0.35988">
        <ele>154.3</ele>
        <time>2026-08-31T10:03:26Z</time>
      </trkpt>
      <trkpt lat="43.46339" lon="-0.35988">
        <ele>154.3</ele>
        <time>2026-08-31T10:03:27Z</time>
      </trkpt>
      <trkpt lat="43.46339" lon="-0.35988">
        <ele>154.3</ele>
        <time>2026-08-31T10:03:27Z</time>
      </trkpt>
      <trkpt lat="43.46338" lon="-0.35988">
        <ele>154.3</ele>
        <time>2026-08-31T10:03:28Z</time>
      </trkpt>
      <trkpt lat="43.46337" lon="-0.35987">
        <ele>154.3</ele>
        <time>2026-08-31T10:03:29Z</time>
      </trkpt>
      <trkpt lat="43.46336" lon="-0.35988">
        <ele>154.3</ele>
        <time>2026-08-31T10:03:29Z</time>
      </trkpt>
      <trkpt lat="43.46336" lon="-0.35987">
        <ele>154.3</ele>
        <time>2026-08-31T10:03:30Z</time>
      </trkpt>
      <trkpt lat="43.46335" lon="-0.35987">
        <ele>154.3</ele>
        <time>2026-08-31T10:03:30Z</time>
      </trkpt>
      <trkpt lat="43.46334" lon="-0.35987">
        <ele>154.3</ele>
        <time>2026-08-31T10:03:31Z</time>
      </trkpt>
      <trkpt lat="43.46334" lon="-0.35987">
        <ele>154.3</ele>
        <time>2026-08-31T10:03:31Z</time>
      </trkpt>
      <trkpt lat="43.46333" lon="-0.35987">
        <ele>154.3</ele>
        <time>2026-08-31T10:03:32Z</time>
      </trkpt>
      <trkpt lat="43.46332" lon="-0.35987">
        <ele>154.3</ele>
        <time>2026-08-31T10:03:33Z</time>
      </trkpt>
      <trkpt lat="43.46332" lon="-0.35987">
        <ele>154.3</ele>
        <time>2026-08-31T10:03:33Z</time>
      </trkpt>
      <trkpt lat="43.46331" lon="-0.35987">
        <ele>154.3</ele>
        <time>2026-08-31T10:03:34Z</time>
      </trkpt>
      <trkpt lat="43.4633" lon="-0.35987">
        <ele>154.3</ele>
        <time>2026-08-31T10:03:34Z</time>
      </trkpt>
      <trkpt lat="43.46329" lon="-0.35987">
        <ele>154.3</ele>
        <time>2026-08-31T10:03:35Z</time>
      </trkpt>
      <trkpt lat="43.46329" lon="-0.35987">
        <ele>154.3</ele>
        <time>2026-08-31T10:03:35Z</time>
      </trkpt>
      <trkpt lat="43.46328" lon="-0.35986">
        <ele>154.3</ele>
        <time>2026-08-31T10:03:36Z</time>
      </trkpt>
      <trkpt lat="43.46327" lon="-0.35986">
        <ele>154.3</ele>
        <time>2026-08-31T10:03:36Z</time>
      </trkpt>
      <trkpt lat="43.46327" lon="-0.35986">
        <ele>154.3</ele>
        <time>2026-08-31T10:03:37Z</time>
      </trkpt>
      <trkpt lat="43.46326" lon="-0.35986">
        <ele>154.3</ele>
        <time>2026-08-31T10:03:38Z</time>
      </trkpt>
      <trkpt lat="43.46325" lon="-0.35985">
        <ele>154.3</ele>
        <time>2026-08-31T10:03:38Z</time>
      </trkpt>
      <trkpt lat="43.46325" lon="-0.35985">
        <ele>155.3</ele>
        <time>2026-08-31T10:03:39Z</time>
      </trkpt>
      <trkpt lat="43.46324" lon="-0.35985">
        <ele>155.3</ele>
        <time>2026-08-31T10:03:39Z</time>
      </trkpt>
      <trkpt lat="43.46323" lon="-0.35985">
        <ele>155.3</ele>
        <time>2026-08-31T10:03:40Z</time>
      </trkpt>
      <trkpt lat="43.46323" lon="-0.35985">
        <ele>155.3</ele>
        <time>2026-08-31T10:03:40Z</time>
      </trkpt>
      <trkpt lat="43.46322" lon="-0.35984">
        <ele>154.3</ele>
        <time>2026-08-31T10:03:41Z</time>
      </trkpt>
      <trkpt lat="43.46321" lon="-0.35984">
        <ele>154.3</ele>
        <time>2026-08-31T10:03:42Z</time>
      </trkpt>
      <trkpt lat="43.46321" lon="-0.35984">
        <ele>154.3</ele>
        <time>2026-08-31T10:03:42Z</time>
      </trkpt>
      <trkpt lat="43.4632" lon="-0.35984">
        <ele>154.3</ele>
        <time>2026-08-31T10:03:43Z</time>
      </trkpt>
      <trkpt lat="43.46319" lon="-0.35984">
        <ele>154.3</ele>
        <time>2026-08-31T10:03:43Z</time>
      </trkpt>
      <trkpt lat="43.46319" lon="-0.35984">
        <ele>154.3</ele>
        <time>2026-08-31T10:03:44Z</time>
      </trkpt>
      <trkpt lat="43.46318" lon="-0.35984">
        <ele>154.3</ele>
        <time>2026-08-31T10:03:44Z</time>
      </trkpt>
      <trkpt lat="43.46317" lon="-0.35984">
        <ele>155.3</ele>
        <time>2026-08-31T10:03:45Z</time>
      </trkpt>
      <trkpt lat="43.46316" lon="-0.35984">
        <ele>155.3</ele>
        <time>2026-08-31T10:03:46Z</time>
      </trkpt>
      <trkpt lat="43.46316" lon="-0.35984">
        <ele>155.3</ele>
        <time>2026-08-31T10:03:46Z</time>
      </trkpt>
      <trkpt lat="43.46315" lon="-0.35984">
        <ele>154.3</ele>
        <time>2026-08-31T10:03:47Z</time>
      </trkpt>
      <trkpt lat="43.46314" lon="-0.35984">
        <ele>154.3</ele>
        <time>2026-08-31T10:03:47Z</time>
      </trkpt>
      <trkpt lat="43.46314" lon="-0.35984">
        <ele>154.3</ele>
        <time>2026-08-31T10:03:48Z</time>
      </trkpt>
      <trkpt lat="43.46313" lon="-0.35984">
        <ele>154.3</ele>
        <time>2026-08-31T10:03:48Z</time>
      </trkpt>
      <trkpt lat="43.46312" lon="-0.35983">
        <ele>154.3</ele>
        <time>2026-08-31T10:03:49Z</time>
      </trkpt>
      <trkpt lat="43.46312" lon="-0.35983">
        <ele>154.3</ele>
        <time>2026-08-31T10:03:50Z</time>
      </trkpt>
      <trkpt lat="43.46311" lon="-0.35983">
        <ele>155.3</ele>
        <time>2026-08-31T10:03:50Z</time>
      </trkpt>
      <trkpt lat="43.4631" lon="-0.35982">
        <ele>154.3</ele>
        <time>2026-08-31T10:03:51Z</time>
      </trkpt>
      <trkpt lat="43.4631" lon="-0.35982">
        <ele>154.3</ele>
        <time>2026-08-31T10:03:51Z</time>
      </trkpt>
      <trkpt lat="43.46309" lon="-0.35982">
        <ele>154.3</ele>
        <time>2026-08-31T10:03:52Z</time>
      </trkpt>
      <trkpt lat="43.46308" lon="-0.35981">
        <ele>154.3</ele>
        <time>2026-08-31T10:03:52Z</time>
      </trkpt>
      <trkpt lat="43.46308" lon="-0.35981">
        <ele>154.3</ele>
        <time>2026-08-31T10:03:53Z</time>
      </trkpt>
      <trkpt lat="43.46307" lon="-0.35981">
        <ele>154.3</ele>
        <time>2026-08-31T10:03:54Z</time>
      </trkpt>
      <trkpt lat="43.46306" lon="-0.3598">
        <ele>155.3</ele>
        <time>2026-08-31T10:03:54Z</time>
      </trkpt>
      <trkpt lat="43.46306" lon="-0.3598">
        <ele>155.3</ele>
        <time>2026-08-31T10:03:55Z</time>
      </trkpt>
      <trkpt lat="43.46305" lon="-0.3598">
        <ele>155.3</ele>
        <time>2026-08-31T10:03:55Z</time>
      </trkpt>
      <trkpt lat="43.46305" lon="-0.35979">
        <ele>155.3</ele>
        <time>2026-08-31T10:03:56Z</time>
      </trkpt>
      <trkpt lat="43.46304" lon="-0.35979">
        <ele>155.3</ele>
        <time>2026-08-31T10:03:56Z</time>
      </trkpt>
      <trkpt lat="43.46303" lon="-0.35979">
        <ele>155.3</ele>
        <time>2026-08-31T10:03:57Z</time>
      </trkpt>
      <trkpt lat="43.46303" lon="-0.35979">
        <ele>155.3</ele>
        <time>2026-08-31T10:03:58Z</time>
      </trkpt>
      <trkpt lat="43.46302" lon="-0.35978">
        <ele>154.3</ele>
        <time>2026-08-31T10:03:58Z</time>
      </trkpt>
      <trkpt lat="43.46301" lon="-0.35978">
        <ele>154.3</ele>
        <time>2026-08-31T10:03:59Z</time>
      </trkpt>
      <trkpt lat="43.463" lon="-0.35978">
        <ele>154.3</ele>
        <time>2026-08-31T10:03:59Z</time>
      </trkpt>
      <trkpt lat="43.463" lon="-0.35978">
        <ele>155.3</ele>
        <time>2026-08-31T10:04:00Z</time>
      </trkpt>
      <trkpt lat="43.46299" lon="-0.35978">
        <ele>155.3</ele>
        <time>2026-08-31T10:04:00Z</time>
      </trkpt>
      <trkpt lat="43.46299" lon="-0.35977">
        <ele>155.3</ele>
        <time>2026-08-31T10:04:01Z</time>
      </trkpt>
      <trkpt lat="43.46298" lon="-0.35977">
        <ele>155.3</ele>
        <time>2026-08-31T10:04:02Z</time>
      </trkpt>
      <trkpt lat="43.46297" lon="-0.35977">
        <ele>155.3</ele>
        <time>2026-08-31T10:04:02Z</time>
      </trkpt>
      <trkpt lat="43.46297" lon="-0.35976">
        <ele>155.3</ele>
        <time>2026-08-31T10:04:03Z</time>
      </trkpt>
      <trkpt lat="43.46296" lon="-0.35976">
        <ele>155.3</ele>
        <time>2026-08-31T10:04:03Z</time>
      </trkpt>
      <trkpt lat="43.46296" lon="-0.35976">
        <ele>155.3</ele>
        <time>2026-08-31T10:04:04Z</time>
      </trkpt>
      <trkpt lat="43.46295" lon="-0.35975">
        <ele>155.3</ele>
        <time>2026-08-31T10:04:04Z</time>
      </trkpt>
      <trkpt lat="43.46294" lon="-0.35975">
        <ele>155.3</ele>
        <time>2026-08-31T10:04:05Z</time>
      </trkpt>
      <trkpt lat="43.46294" lon="-0.35975">
        <ele>155.3</ele>
        <time>2026-08-31T10:04:06Z</time>
      </trkpt>
      <trkpt lat="43.46293" lon="-0.35974">
        <ele>155.3</ele>
        <time>2026-08-31T10:04:06Z</time>
      </trkpt>
      <trkpt lat="43.46292" lon="-0.35974">
        <ele>156.3</ele>
        <time>2026-08-31T10:04:07Z</time>
      </trkpt>
      <trkpt lat="43.46292" lon="-0.35974">
        <ele>156.3</ele>
        <time>2026-08-31T10:04:07Z</time>
      </trkpt>
      <trkpt lat="43.46291" lon="-0.35974">
        <ele>156.3</ele>
        <time>2026-08-31T10:04:08Z</time>
      </trkpt>
      <trkpt lat="43.4629" lon="-0.35973">
        <ele>156.3</ele>
        <time>2026-08-31T10:04:08Z</time>
      </trkpt>
      <trkpt lat="43.4629" lon="-0.35973">
        <ele>156.3</ele>
        <time>2026-08-31T10:04:09Z</time>
      </trkpt>
      <trkpt lat="43.46289" lon="-0.35973">
        <ele>156.3</ele>
        <time>2026-08-31T10:04:10Z</time>
      </trkpt>
      <trkpt lat="43.46288" lon="-0.35973">
        <ele>156.3</ele>
        <time>2026-08-31T10:04:10Z</time>
      </trkpt>
      <trkpt lat="43.46288" lon="-0.35972">
        <ele>156.3</ele>
        <time>2026-08-31T10:04:11Z</time>
      </trkpt>
      <trkpt lat="43.46287" lon="-0.35972">
        <ele>156.3</ele>
        <time>2026-08-31T10:04:11Z</time>
      </trkpt>
      <trkpt lat="43.46286" lon="-0.35972">
        <ele>156.3</ele>
        <time>2026-08-31T10:04:12Z</time>
      </trkpt>
      <trkpt lat="43.46286" lon="-0.35972">
        <ele>156.3</ele>
        <time>2026-08-31T10:04:12Z</time>
      </trkpt>
      <trkpt lat="43.46285" lon="-0.35972">
        <ele>156.3</ele>
        <time>2026-08-31T10:04:13Z</time>
      </trkpt>
      <trkpt lat="43.46284" lon="-0.35971">
        <ele>156.3</ele>
        <time>2026-08-31T10:04:14Z</time>
      </trkpt>
      <trkpt lat="43.46284" lon="-0.35971">
        <ele>156.3</ele>
        <time>2026-08-31T10:04:14Z</time>
      </trkpt>
      <trkpt lat="43.46283" lon="-0.35971">
        <ele>157.3</ele>
        <time>2026-08-31T10:04:15Z</time>
      </trkpt>
      <trkpt lat="43.46282" lon="-0.35971">
        <ele>157.3</ele>
        <time>2026-08-31T10:04:15Z</time>
      </trkpt>
      <trkpt lat="43.46282" lon="-0.3597">
        <ele>157.3</ele>
        <time>2026-08-31T10:04:16Z</time>
      </trkpt>
      <trkpt lat="43.46281" lon="-0.3597">
        <ele>157.3</ele>
        <time>2026-08-31T10:04:17Z</time>
      </trkpt>
      <trkpt lat="43.4628" lon="-0.3597">
        <ele>157.3</ele>
        <time>2026-08-31T10:04:17Z</time>
      </trkpt>
      <trkpt lat="43.4628" lon="-0.3597">
        <ele>157.3</ele>
        <time>2026-08-31T10:04:18Z</time>
      </trkpt>
      <trkpt lat="43.46279" lon="-0.3597">
        <ele>157.3</ele>
        <time>2026-08-31T10:04:18Z</time>
      </trkpt>
      <trkpt lat="43.46278" lon="-0.3597">
        <ele>157.3</ele>
        <time>2026-08-31T10:04:19Z</time>
      </trkpt>
      <trkpt lat="43.46278" lon="-0.3597">
        <ele>157.3</ele>
        <time>2026-08-31T10:04:19Z</time>
      </trkpt>
      <trkpt lat="43.46277" lon="-0.3597">
        <ele>157.3</ele>
        <time>2026-08-31T10:04:20Z</time>
      </trkpt>
      <trkpt lat="43.46276" lon="-0.35971">
        <ele>157.3</ele>
        <time>2026-08-31T10:04:21Z</time>
      </trkpt>
      <trkpt lat="43.46276" lon="-0.35971">
        <ele>158.3</ele>
        <time>2026-08-31T10:04:21Z</time>
      </trkpt>
      <trkpt lat="43.46275" lon="-0.35971">
        <ele>158.3</ele>
        <time>2026-08-31T10:04:22Z</time>
      </trkpt>
      <trkpt lat="43.46275" lon="-0.35971">
        <ele>157.3</ele>
        <time>2026-08-31T10:04:22Z</time>
      </trkpt>
      <trkpt lat="43.46274" lon="-0.35971">
        <ele>157.3</ele>
        <time>2026-08-31T10:04:23Z</time>
      </trkpt>
      <trkpt lat="43.46273" lon="-0.35971">
        <ele>157.3</ele>
        <time>2026-08-31T10:04:23Z</time>
      </trkpt>
      <trkpt lat="43.46273" lon="-0.35971">
        <ele>157.3</ele>
        <time>2026-08-31T10:04:24Z</time>
      </trkpt>
      <trkpt lat="43.46272" lon="-0.35971">
        <ele>157.3</ele>
        <time>2026-08-31T10:04:24Z</time>
      </trkpt>
      <trkpt lat="43.46272" lon="-0.35971">
        <ele>158.3</ele>
        <time>2026-08-31T10:04:25Z</time>
      </trkpt>
      <trkpt lat="43.46271" lon="-0.35971">
        <ele>158.3</ele>
        <time>2026-08-31T10:04:26Z</time>
      </trkpt>
      <trkpt lat="43.4627" lon="-0.35971">
        <ele>158.3</ele>
        <time>2026-08-31T10:04:26Z</time>
      </trkpt>
      <trkpt lat="43.4627" lon="-0.35971">
        <ele>158.3</ele>
        <time>2026-08-31T10:04:27Z</time>
      </trkpt>
      <trkpt lat="43.46269" lon="-0.3597">
        <ele>158.3</ele>
        <time>2026-08-31T10:04:27Z</time>
      </trkpt>
      <trkpt lat="43.46268" lon="-0.3597">
        <ele>158.3</ele>
        <time>2026-08-31T10:04:28Z</time>
      </trkpt>
      <trkpt lat="43.46268" lon="-0.3597">
        <ele>158.3</ele>
        <time>2026-08-31T10:04:29Z</time>
      </trkpt>
      <trkpt lat="43.46267" lon="-0.3597">
        <ele>158.3</ele>
        <time>2026-08-31T10:04:29Z</time>
      </trkpt>
      <trkpt lat="43.46266" lon="-0.3597">
        <ele>158.3</ele>
        <time>2026-08-31T10:04:30Z</time>
      </trkpt>
      <trkpt lat="43.46266" lon="-0.3597">
        <ele>158.3</ele>
        <time>2026-08-31T10:04:30Z</time>
      </trkpt>
      <trkpt lat="43.46265" lon="-0.3597">
        <ele>158.3</ele>
        <time>2026-08-31T10:04:31Z</time>
      </trkpt>
      <trkpt lat="43.46264" lon="-0.3597">
        <ele>158.3</ele>
        <time>2026-08-31T10:04:32Z</time>
      </trkpt>
      <trkpt lat="43.46263" lon="-0.3597">
        <ele>159.3</ele>
        <time>2026-08-31T10:04:32Z</time>
      </trkpt>
      <trkpt lat="43.46263" lon="-0.3597">
        <ele>159.3</ele>
        <time>2026-08-31T10:04:33Z</time>
      </trkpt>
      <trkpt lat="43.46262" lon="-0.3597">
        <ele>159.3</ele>
        <time>2026-08-31T10:04:33Z</time>
      </trkpt>
      <trkpt lat="43.46262" lon="-0.3597">
        <ele>159.3</ele>
        <time>2026-08-31T10:04:34Z</time>
      </trkpt>
      <trkpt lat="43.46261" lon="-0.3597">
        <ele>159.3</ele>
        <time>2026-08-31T10:04:35Z</time>
      </trkpt>
      <trkpt lat="43.46261" lon="-0.3597">
        <ele>159.3</ele>
        <time>2026-08-31T10:04:35Z</time>
      </trkpt>
      <trkpt lat="43.4626" lon="-0.3597">
        <ele>158.3</ele>
        <time>2026-08-31T10:04:36Z</time>
      </trkpt>
      <trkpt lat="43.4626" lon="-0.3597">
        <ele>158.3</ele>
        <time>2026-08-31T10:04:36Z</time>
      </trkpt>
      <trkpt lat="43.46259" lon="-0.3597">
        <ele>158.3</ele>
        <time>2026-08-31T10:04:37Z</time>
      </trkpt>
      <trkpt lat="43.46258" lon="-0.3597">
        <ele>158.3</ele>
        <time>2026-08-31T10:04:37Z</time>
      </trkpt>
      <trkpt lat="43.46258" lon="-0.35969">
        <ele>158.3</ele>
        <time>2026-08-31T10:04:38Z</time>
      </trkpt>
      <trkpt lat="43.46257" lon="-0.35969">
        <ele>158.3</ele>
        <time>2026-08-31T10:04:38Z</time>
      </trkpt>
      <trkpt lat="43.46256" lon="-0.35968">
        <ele>158.3</ele>
        <time>2026-08-31T10:04:39Z</time>
      </trkpt>
      <trkpt lat="43.46256" lon="-0.35967">
        <ele>158.3</ele>
        <time>2026-08-31T10:04:40Z</time>
      </trkpt>
      <trkpt lat="43.46255" lon="-0.35967">
        <ele>158.3</ele>
        <time>2026-08-31T10:04:40Z</time>
      </trkpt>
      <trkpt lat="43.46255" lon="-0.35967">
        <ele>159.3</ele>
        <time>2026-08-31T10:04:41Z</time>
      </trkpt>
      <trkpt lat="43.46254" lon="-0.35966">
        <ele>159.3</ele>
        <time>2026-08-31T10:04:42Z</time>
      </trkpt>
      <trkpt lat="43.46253" lon="-0.35966">
        <ele>159.3</ele>
        <time>2026-08-31T10:04:42Z</time>
      </trkpt>
      <trkpt lat="43.46252" lon="-0.35966">
        <ele>159.3</ele>
        <time>2026-08-31T10:04:43Z</time>
      </trkpt>
      <trkpt lat="43.46251" lon="-0.35966">
        <ele>160.3</ele>
        <time>2026-08-31T10:04:44Z</time>
      </trkpt>
      <trkpt lat="43.4625" lon="-0.35967">
        <ele>160.3</ele>
        <time>2026-08-31T10:04:44Z</time>
      </trkpt>
      <trkpt lat="43.4625" lon="-0.35968">
        <ele>160.3</ele>
        <time>2026-08-31T10:04:45Z</time>
      </trkpt>
      <trkpt lat="43.46249" lon="-0.35969">
        <ele>160.3</ele>
        <time>2026-08-31T10:04:46Z</time>
      </trkpt>
      <trkpt lat="43.46249" lon="-0.3597">
        <ele>161.3</ele>
        <time>2026-08-31T10:04:46Z</time>
      </trkpt>
      <trkpt lat="43.46248" lon="-0.3597">
        <ele>161.3</ele>
        <time>2026-08-31T10:04:47Z</time>
      </trkpt>
      <trkpt lat="43.46248" lon="-0.35972">
        <ele>161.3</ele>
        <time>2026-08-31T10:04:48Z</time>
      </trkpt>
      <trkpt lat="43.46247" lon="-0.35973">
        <ele>161.3</ele>
        <time>2026-08-31T10:04:48Z</time>
      </trkpt>
      <trkpt lat="43.46246" lon="-0.35974">
        <ele>161.3</ele>
        <time>2026-08-31T10:04:50Z</time>
      </trkpt>
      <trkpt lat="43.46245" lon="-0.35974">
        <ele>161.3</ele>
        <time>2026-08-31T10:04:51Z</time>
      </trkpt>
      <trkpt lat="43.46245" lon="-0.35974">
        <ele>162.3</ele>
        <time>2026-08-31T10:04:52Z</time>
      </trkpt>
      <trkpt lat="43.46245" lon="-0.35974">
        <ele>162.3</ele>
        <time>2026-08-31T10:04:53Z</time>
      </trkpt>
      <trkpt lat="43.46244" lon="-0.35974">
        <ele>162.3</ele>
        <time>2026-08-31T10:04:53Z</time>
      </trkpt>
      <trkpt lat="43.46244" lon="-0.35974">
        <ele>162.3</ele>
        <time>2026-08-31T10:04:54Z</time>
      </trkpt>
      <trkpt lat="43.46243" lon="-0.35975">
        <ele>162.3</ele>
        <time>2026-08-31T10:04:54Z</time>
      </trkpt>
      <trkpt lat="43.46242" lon="-0.35975">
        <ele>162.3</ele>
        <time>2026-08-31T10:04:55Z</time>
      </trkpt>
      <trkpt lat="43.46242" lon="-0.35976">
        <ele>162.3</ele>
        <time>2026-08-31T10:04:56Z</time>
      </trkpt>
      <trkpt lat="43.46241" lon="-0.35977">
        <ele>163.3</ele>
        <time>2026-08-31T10:04:57Z</time>
      </trkpt>
      <trkpt lat="43.4624" lon="-0.35977">
        <ele>163.3</ele>
        <time>2026-08-31T10:04:58Z</time>
      </trkpt>
      <trkpt lat="43.4624" lon="-0.35977">
        <ele>163.3</ele>
        <time>2026-08-31T10:04:59Z</time>
      </trkpt>
      <trkpt lat="43.4624" lon="-0.35976">
        <ele>163.3</ele>
        <time>2026-08-31T10:05:00Z</time>
      </trkpt>
      <trkpt lat="43.46241" lon="-0.35975">
        <ele>163.3</ele>
        <time>2026-08-31T10:05:01Z</time>
      </trkpt>
      <trkpt lat="43.46242" lon="-0.35975">
        <ele>163.3</ele>
        <time>2026-08-31T10:05:02Z</time>
      </trkpt>
      <trkpt lat="43.46243" lon="-0.35974">
        <ele>163.3</ele>
        <time>2026-08-31T10:05:02Z</time>
      </trkpt>
      <trkpt lat="43.46244" lon="-0.35974">
        <ele>163.3</ele>
        <time>2026-08-31T10:05:03Z</time>
      </trkpt>
      <trkpt lat="43.46245" lon="-0.35973">
        <ele>163.3</ele>
        <time>2026-08-31T10:05:03Z</time>
      </trkpt>
      <trkpt lat="43.46246" lon="-0.35973">
        <ele>163.3</ele>
        <time>2026-08-31T10:05:04Z</time>
      </trkpt>
      <trkpt lat="43.46246" lon="-0.35972">
        <ele>163.3</ele>
        <time>2026-08-31T10:05:04Z</time>
      </trkpt>
      <trkpt lat="43.46247" lon="-0.35972">
        <ele>163.3</ele>
        <time>2026-08-31T10:05:05Z</time>
      </trkpt>
      <trkpt lat="43.46248" lon="-0.35971">
        <ele>162.3</ele>
        <time>2026-08-31T10:05:06Z</time>
      </trkpt>
      <trkpt lat="43.46249" lon="-0.3597">
        <ele>162.3</ele>
        <time>2026-08-31T10:05:07Z</time>
      </trkpt>
      <trkpt lat="43.46249" lon="-0.35968">
        <ele>162.3</ele>
        <time>2026-08-31T10:05:08Z</time>
      </trkpt>
      <trkpt lat="43.46249" lon="-0.35967">
        <ele>162.3</ele>
        <time>2026-08-31T10:05:08Z</time>
      </trkpt>
      <trkpt lat="43.4625" lon="-0.35966">
        <ele>162.3</ele>
        <time>2026-08-31T10:05:09Z</time>
      </trkpt>
      <trkpt lat="43.4625" lon="-0.35965">
        <ele>162.3</ele>
        <time>2026-08-31T10:05:09Z</time>
      </trkpt>
      <trkpt lat="43.4625" lon="-0.35964">
        <ele>162.3</ele>
        <time>2026-08-31T10:05:10Z</time>
      </trkpt>
      <trkpt lat="43.4625" lon="-0.35963">
        <ele>162.3</ele>
        <time>2026-08-31T10:05:10Z</time>
      </trkpt>
      <trkpt lat="43.46251" lon="-0.35962">
        <ele>162.3</ele>
        <time>2026-08-31T10:05:11Z</time>
      </trkpt>
      <trkpt lat="43.46251" lon="-0.35961">
        <ele>162.3</ele>
        <time>2026-08-31T10:05:12Z</time>
      </trkpt>
      <trkpt lat="43.46251" lon="-0.3596">
        <ele>162.3</ele>
        <time>2026-08-31T10:05:13Z</time>
      </trkpt>
      <trkpt lat="43.46251" lon="-0.35959">
        <ele>161.3</ele>
        <time>2026-08-31T10:05:13Z</time>
      </trkpt>
      <trkpt lat="43.46251" lon="-0.35958">
        <ele>161.3</ele>
        <time>2026-08-31T10:05:14Z</time>
      </trkpt>
      <trkpt lat="43.46251" lon="-0.35957">
        <ele>161.3</ele>
        <time>2026-08-31T10:05:14Z</time>
      </trkpt>
      <trkpt lat="43.46251" lon="-0.35956">
        <ele>161.3</ele>
        <time>2026-08-31T10:05:15Z</time>
      </trkpt>
      <trkpt lat="43.46251" lon="-0.35955">
        <ele>161.3</ele>
        <time>2026-08-31T10:05:15Z</time>
      </trkpt>
      <trkpt lat="43.46251" lon="-0.35955">
        <ele>162.3</ele>
        <time>2026-08-31T10:05:16Z</time>
      </trkpt>
      <trkpt lat="43.46251" lon="-0.35954">
        <ele>162.3</ele>
        <time>2026-08-31T10:05:17Z</time>
      </trkpt>
      <trkpt lat="43.46251" lon="-0.35953">
        <ele>162.3</ele>
        <time>2026-08-31T10:05:17Z</time>
      </trkpt>
      <trkpt lat="43.46251" lon="-0.35952">
        <ele>162.3</ele>
        <time>2026-08-31T10:05:18Z</time>
      </trkpt>
      <trkpt lat="43.46251" lon="-0.35951">
        <ele>161.3</ele>
        <time>2026-08-31T10:05:18Z</time>
      </trkpt>
      <trkpt lat="43.46251" lon="-0.35951">
        <ele>161.3</ele>
        <time>2026-08-31T10:05:19Z</time>
      </trkpt>
      <trkpt lat="43.46251" lon="-0.3595">
        <ele>161.3</ele>
        <time>2026-08-31T10:05:19Z</time>
      </trkpt>
      <trkpt lat="43.46251" lon="-0.35949">
        <ele>161.3</ele>
        <time>2026-08-31T10:05:20Z</time>
      </trkpt>
      <trkpt lat="43.46251" lon="-0.35948">
        <ele>161.3</ele>
        <time>2026-08-31T10:05:20Z</time>
      </trkpt>
      <trkpt lat="43.46252" lon="-0.35947">
        <ele>161.3</ele>
        <time>2026-08-31T10:05:21Z</time>
      </trkpt>
      <trkpt lat="43.46252" lon="-0.35945">
        <ele>160.3</ele>
        <time>2026-08-31T10:05:22Z</time>
      </trkpt>
      <trkpt lat="43.46252" lon="-0.35945">
        <ele>160.3</ele>
        <time>2026-08-31T10:05:23Z</time>
      </trkpt>
      <trkpt lat="43.46252" lon="-0.35944">
        <ele>160.3</ele>
        <time>2026-08-31T10:05:24Z</time>
      </trkpt>
      <trkpt lat="43.46252" lon="-0.35942">
        <ele>160.3</ele>
        <time>2026-08-31T10:05:25Z</time>
      </trkpt>
      <trkpt lat="43.46252" lon="-0.35941">
        <ele>160.3</ele>
        <time>2026-08-31T10:05:25Z</time>
      </trkpt>
      <trkpt lat="43.46252" lon="-0.3594">
        <ele>160.3</ele>
        <time>2026-08-31T10:05:26Z</time>
      </trkpt>
      <trkpt lat="43.46252" lon="-0.35939">
        <ele>160.3</ele>
        <time>2026-08-31T10:05:27Z</time>
      </trkpt>
      <trkpt lat="43.46252" lon="-0.35938">
        <ele>160.3</ele>
        <time>2026-08-31T10:05:27Z</time>
      </trkpt>
      <trkpt lat="43.46251" lon="-0.35936">
        <ele>160.3</ele>
        <time>2026-08-31T10:05:28Z</time>
      </trkpt>
      <trkpt lat="43.46251" lon="-0.35934">
        <ele>161.3</ele>
        <time>2026-08-31T10:05:29Z</time>
      </trkpt>
      <trkpt lat="43.46251" lon="-0.35932">
        <ele>161.3</ele>
        <time>2026-08-31T10:05:30Z</time>
      </trkpt>
      <trkpt lat="43.4625" lon="-0.35932">
        <ele>161.3</ele>
        <time>2026-08-31T10:05:31Z</time>
      </trkpt>
      <trkpt lat="43.4625" lon="-0.35931">
        <ele>161.3</ele>
        <time>2026-08-31T10:05:32Z</time>
      </trkpt>
      <trkpt lat="43.4625" lon="-0.3593">
        <ele>162.3</ele>
        <time>2026-08-31T10:05:32Z</time>
      </trkpt>
      <trkpt lat="43.4625" lon="-0.35929">
        <ele>162.3</ele>
        <time>2026-08-31T10:05:33Z</time>
      </trkpt>
      <trkpt lat="43.46251" lon="-0.35928">
        <ele>162.3</ele>
        <time>2026-08-31T10:05:33Z</time>
      </trkpt>
      <trkpt lat="43.46251" lon="-0.35927">
        <ele>162.3</ele>
        <time>2026-08-31T10:05:34Z</time>
      </trkpt>
      <trkpt lat="43.46251" lon="-0.35926">
        <ele>162.3</ele>
        <time>2026-08-31T10:05:34Z</time>
      </trkpt>
      <trkpt lat="43.46251" lon="-0.35925">
        <ele>162.3</ele>
        <time>2026-08-31T10:05:35Z</time>
      </trkpt>
      <trkpt lat="43.46252" lon="-0.35924">
        <ele>162.3</ele>
        <time>2026-08-31T10:05:35Z</time>
      </trkpt>
      <trkpt lat="43.46252" lon="-0.35923">
        <ele>162.3</ele>
        <time>2026-08-31T10:05:36Z</time>
      </trkpt>
      <trkpt lat="43.46253" lon="-0.35922">
        <ele>162.3</ele>
        <time>2026-08-31T10:05:36Z</time>
      </trkpt>
      <trkpt lat="43.46253" lon="-0.35921">
        <ele>162.3</ele>
        <time>2026-08-31T10:05:37Z</time>
      </trkpt>
      <trkpt lat="43.46254" lon="-0.3592">
        <ele>162.3</ele>
        <time>2026-08-31T10:05:37Z</time>
      </trkpt>
      <trkpt lat="43.46255" lon="-0.35919">
        <ele>161.3</ele>
        <time>2026-08-31T10:05:38Z</time>
      </trkpt>
      <trkpt lat="43.46255" lon="-0.35918">
        <ele>161.3</ele>
        <time>2026-08-31T10:05:38Z</time>
      </trkpt>
      <trkpt lat="43.46256" lon="-0.35917">
        <ele>161.3</ele>
        <time>2026-08-31T10:05:39Z</time>
      </trkpt>
      <trkpt lat="43.46256" lon="-0.35916">
        <ele>161.3</ele>
        <time>2026-08-31T10:05:39Z</time>
      </trkpt>
      <trkpt lat="43.46257" lon="-0.35915">
        <ele>161.3</ele>
        <time>2026-08-31T10:05:40Z</time>
      </trkpt>
      <trkpt lat="43.46257" lon="-0.35914">
        <ele>161.3</ele>
        <time>2026-08-31T10:05:40Z</time>
      </trkpt>
      <trkpt lat="43.46258" lon="-0.35913">
        <ele>161.3</ele>
        <time>2026-08-31T10:05:41Z</time>
      </trkpt>
      <trkpt lat="43.46258" lon="-0.35913">
        <ele>161.3</ele>
        <time>2026-08-31T10:05:41Z</time>
      </trkpt>
      <trkpt lat="43.46259" lon="-0.35912">
        <ele>161.3</ele>
        <time>2026-08-31T10:05:42Z</time>
      </trkpt>
      <trkpt lat="43.46259" lon="-0.35911">
        <ele>161.3</ele>
        <time>2026-08-31T10:05:42Z</time>
      </trkpt>
      <trkpt lat="43.4626" lon="-0.3591">
        <ele>161.3</ele>
        <time>2026-08-31T10:05:43Z</time>
      </trkpt>
      <trkpt lat="43.4626" lon="-0.35909">
        <ele>161.3</ele>
        <time>2026-08-31T10:05:44Z</time>
      </trkpt>
      <trkpt lat="43.4626" lon="-0.35909">
        <ele>160.3</ele>
        <time>2026-08-31T10:05:44Z</time>
      </trkpt>
      <trkpt lat="43.4626" lon="-0.35908">
        <ele>160.3</ele>
        <time>2026-08-31T10:05:45Z</time>
      </trkpt>
      <trkpt lat="43.46261" lon="-0.35907">
        <ele>160.3</ele>
        <time>2026-08-31T10:05:45Z</time>
      </trkpt>
      <trkpt lat="43.46261" lon="-0.35906">
        <ele>160.3</ele>
        <time>2026-08-31T10:05:46Z</time>
      </trkpt>
      <trkpt lat="43.46261" lon="-0.35905">
        <ele>160.3</ele>
        <time>2026-08-31T10:05:46Z</time>
      </trkpt>
      <trkpt lat="43.46262" lon="-0.35904">
        <ele>160.3</ele>
        <time>2026-08-31T10:05:47Z</time>
      </trkpt>
      <trkpt lat="43.46262" lon="-0.35903">
        <ele>160.3</ele>
        <time>2026-08-31T10:05:47Z</time>
      </trkpt>
      <trkpt lat="43.46262" lon="-0.35902">
        <ele>160.3</ele>
        <time>2026-08-31T10:05:48Z</time>
      </trkpt>
      <trkpt lat="43.46263" lon="-0.35902">
        <ele>160.3</ele>
        <time>2026-08-31T10:05:48Z</time>
      </trkpt>
      <trkpt lat="43.46263" lon="-0.35901">
        <ele>160.3</ele>
        <time>2026-08-31T10:05:49Z</time>
      </trkpt>
      <trkpt lat="43.46263" lon="-0.359">
        <ele>160.3</ele>
        <time>2026-08-31T10:05:49Z</time>
      </trkpt>
      <trkpt lat="43.46264" lon="-0.35899">
        <ele>160.3</ele>
        <time>2026-08-31T10:05:50Z</time>
      </trkpt>
      <trkpt lat="43.46264" lon="-0.35898">
        <ele>160.3</ele>
        <time>2026-08-31T10:05:50Z</time>
      </trkpt>
      <trkpt lat="43.46264" lon="-0.35898">
        <ele>160.3</ele>
        <time>2026-08-31T10:05:51Z</time>
      </trkpt>
      <trkpt lat="43.46264" lon="-0.35897">
        <ele>160.3</ele>
        <time>2026-08-31T10:05:51Z</time>
      </trkpt>
      <trkpt lat="43.46265" lon="-0.35896">
        <ele>160.3</ele>
        <time>2026-08-31T10:05:52Z</time>
      </trkpt>
      <trkpt lat="43.46265" lon="-0.35895">
        <ele>160.3</ele>
        <time>2026-08-31T10:05:52Z</time>
      </trkpt>
      <trkpt lat="43.46265" lon="-0.35894">
        <ele>159.3</ele>
        <time>2026-08-31T10:05:53Z</time>
      </trkpt>
      <trkpt lat="43.46265" lon="-0.35893">
        <ele>159.3</ele>
        <time>2026-08-31T10:05:54Z</time>
      </trkpt>
      <trkpt lat="43.46266" lon="-0.35893">
        <ele>159.3</ele>
        <time>2026-08-31T10:05:54Z</time>
      </trkpt>
      <trkpt lat="43.46266" lon="-0.35892">
        <ele>159.3</ele>
        <time>2026-08-31T10:05:55Z</time>
      </trkpt>
      <trkpt lat="43.46266" lon="-0.35891">
        <ele>158.3</ele>
        <time>2026-08-31T10:05:55Z</time>
      </trkpt>
      <trkpt lat="43.46266" lon="-0.3589">
        <ele>158.3</ele>
        <time>2026-08-31T10:05:56Z</time>
      </trkpt>
      <trkpt lat="43.46267" lon="-0.3589">
        <ele>158.3</ele>
        <time>2026-08-31T10:05:56Z</time>
      </trkpt>
      <trkpt lat="43.46267" lon="-0.35889">
        <ele>158.3</ele>
        <time>2026-08-31T10:05:57Z</time>
      </trkpt>
      <trkpt lat="43.46267" lon="-0.35888">
        <ele>158.3</ele>
        <time>2026-08-31T10:05:57Z</time>
      </trkpt>
      <trkpt lat="43.46268" lon="-0.35887">
        <ele>158.3</ele>
        <time>2026-08-31T10:05:58Z</time>
      </trkpt>
      <trkpt lat="43.46268" lon="-0.35887">
        <ele>159.3</ele>
        <time>2026-08-31T10:05:58Z</time>
      </trkpt>
      <trkpt lat="43.46269" lon="-0.35886">
        <ele>159.3</ele>
        <time>2026-08-31T10:05:59Z</time>
      </trkpt>
      <trkpt lat="43.46269" lon="-0.35885">
        <ele>159.3</ele>
        <time>2026-08-31T10:05:59Z</time>
      </trkpt>
      <trkpt lat="43.46269" lon="-0.35885">
        <ele>159.3</ele>
        <time>2026-08-31T10:06:00Z</time>
      </trkpt>
      <trkpt lat="43.4627" lon="-0.35884">
        <ele>159.3</ele>
        <time>2026-08-31T10:06:00Z</time>
      </trkpt>
      <trkpt lat="43.4627" lon="-0.35883">
        <ele>159.3</ele>
        <time>2026-08-31T10:06:01Z</time>
      </trkpt>
      <trkpt lat="43.4627" lon="-0.35882">
        <ele>159.3</ele>
        <time>2026-08-31T10:06:01Z</time>
      </trkpt>
      <trkpt lat="43.46271" lon="-0.35882">
        <ele>159.3</ele>
        <time>2026-08-31T10:06:02Z</time>
      </trkpt>
      <trkpt lat="43.46271" lon="-0.35881">
        <ele>159.3</ele>
        <time>2026-08-31T10:06:02Z</time>
      </trkpt>
      <trkpt lat="43.46271" lon="-0.3588">
        <ele>159.3</ele>
        <time>2026-08-31T10:06:03Z</time>
      </trkpt>
      <trkpt lat="43.46271" lon="-0.35879">
        <ele>159.3</ele>
        <time>2026-08-31T10:06:03Z</time>
      </trkpt>
      <trkpt lat="43.46272" lon="-0.35878">
        <ele>159.3</ele>
        <time>2026-08-31T10:06:04Z</time>
      </trkpt>
      <trkpt lat="43.46272" lon="-0.35877">
        <ele>159.3</ele>
        <time>2026-08-31T10:06:04Z</time>
      </trkpt>
      <trkpt lat="43.46272" lon="-0.35877">
        <ele>159.3</ele>
        <time>2026-08-31T10:06:05Z</time>
      </trkpt>
      <trkpt lat="43.46272" lon="-0.35876">
        <ele>159.3</ele>
        <time>2026-08-31T10:06:06Z</time>
      </trkpt>
      <trkpt lat="43.46273" lon="-0.35875">
        <ele>159.3</ele>
        <time>2026-08-31T10:06:06Z</time>
      </trkpt>
      <trkpt lat="43.46273" lon="-0.35874">
        <ele>159.3</ele>
        <time>2026-08-31T10:06:07Z</time>
      </trkpt>
      <trkpt lat="43.46273" lon="-0.35873">
        <ele>159.3</ele>
        <time>2026-08-31T10:06:07Z</time>
      </trkpt>
      <trkpt lat="43.46274" lon="-0.35872">
        <ele>159.3</ele>
        <time>2026-08-31T10:06:08Z</time>
      </trkpt>
      <trkpt lat="43.46274" lon="-0.35872">
        <ele>159.3</ele>
        <time>2026-08-31T10:06:08Z</time>
      </trkpt>
      <trkpt lat="43.46274" lon="-0.35871">
        <ele>159.3</ele>
        <time>2026-08-31T10:06:09Z</time>
      </trkpt>
      <trkpt lat="43.46275" lon="-0.3587">
        <ele>159.3</ele>
        <time>2026-08-31T10:06:09Z</time>
      </trkpt>
      <trkpt lat="43.46275" lon="-0.3587">
        <ele>159.3</ele>
        <time>2026-08-31T10:06:10Z</time>
      </trkpt>
      <trkpt lat="43.46276" lon="-0.35869">
        <ele>159.3</ele>
        <time>2026-08-31T10:06:10Z</time>
      </trkpt>
      <trkpt lat="43.46276" lon="-0.35868">
        <ele>159.3</ele>
        <time>2026-08-31T10:06:11Z</time>
      </trkpt>
      <trkpt lat="43.46276" lon="-0.35867">
        <ele>159.3</ele>
        <time>2026-08-31T10:06:11Z</time>
      </trkpt>
      <trkpt lat="43.46277" lon="-0.35866">
        <ele>158.3</ele>
        <time>2026-08-31T10:06:12Z</time>
      </trkpt>
      <trkpt lat="43.46277" lon="-0.35865">
        <ele>158.3</ele>
        <time>2026-08-31T10:06:12Z</time>
      </trkpt>
      <trkpt lat="43.46277" lon="-0.35864">
        <ele>158.3</ele>
        <time>2026-08-31T10:06:13Z</time>
      </trkpt>
      <trkpt lat="43.46278" lon="-0.35864">
        <ele>158.3</ele>
        <time>2026-08-31T10:06:13Z</time>
      </trkpt>
      <trkpt lat="43.46278" lon="-0.35863">
        <ele>157.3</ele>
        <time>2026-08-31T10:06:14Z</time>
      </trkpt>
      <trkpt lat="43.46278" lon="-0.35862">
        <ele>157.3</ele>
        <time>2026-08-31T10:06:14Z</time>
      </trkpt>
      <trkpt lat="43.46279" lon="-0.35861">
        <ele>157.3</ele>
        <time>2026-08-31T10:06:15Z</time>
      </trkpt>
      <trkpt lat="43.46279" lon="-0.3586">
        <ele>157.3</ele>
        <time>2026-08-31T10:06:15Z</time>
      </trkpt>
      <trkpt lat="43.46279" lon="-0.35859">
        <ele>157.3</ele>
        <time>2026-08-31T10:06:16Z</time>
      </trkpt>
      <trkpt lat="43.46279" lon="-0.35858">
        <ele>157.3</ele>
        <time>2026-08-31T10:06:16Z</time>
      </trkpt>
      <trkpt lat="43.4628" lon="-0.35858">
        <ele>156.3</ele>
        <time>2026-08-31T10:06:17Z</time>
      </trkpt>
      <trkpt lat="43.4628" lon="-0.35857">
        <ele>156.3</ele>
        <time>2026-08-31T10:06:18Z</time>
      </trkpt>
      <trkpt lat="43.4628" lon="-0.35856">
        <ele>156.3</ele>
        <time>2026-08-31T10:06:18Z</time>
      </trkpt>
      <trkpt lat="43.4628" lon="-0.35855">
        <ele>156.3</ele>
        <time>2026-08-31T10:06:19Z</time>
      </trkpt>
      <trkpt lat="43.4628" lon="-0.35854">
        <ele>156.3</ele>
        <time>2026-08-31T10:06:19Z</time>
      </trkpt>
      <trkpt lat="43.4628" lon="-0.35853">
        <ele>156.3</ele>
        <time>2026-08-31T10:06:20Z</time>
      </trkpt>
      <trkpt lat="43.46281" lon="-0.35853">
        <ele>156.3</ele>
        <time>2026-08-31T10:06:20Z</time>
      </trkpt>
      <trkpt lat="43.46281" lon="-0.35852">
        <ele>156.3</ele>
        <time>2026-08-31T10:06:21Z</time>
      </trkpt>
      <trkpt lat="43.46281" lon="-0.35851">
        <ele>156.3</ele>
        <time>2026-08-31T10:06:21Z</time>
      </trkpt>
      <trkpt lat="43.46281" lon="-0.3585">
        <ele>156.3</ele>
        <time>2026-08-31T10:06:22Z</time>
      </trkpt>
      <trkpt lat="43.46281" lon="-0.35849">
        <ele>156.3</ele>
        <time>2026-08-31T10:06:22Z</time>
      </trkpt>
      <trkpt lat="43.46281" lon="-0.35849">
        <ele>156.3</ele>
        <time>2026-08-31T10:06:23Z</time>
      </trkpt>
      <trkpt lat="43.46282" lon="-0.35848">
        <ele>156.3</ele>
        <time>2026-08-31T10:06:23Z</time>
      </trkpt>
      <trkpt lat="43.46282" lon="-0.35847">
        <ele>156.3</ele>
        <time>2026-08-31T10:06:24Z</time>
      </trkpt>
      <trkpt lat="43.46282" lon="-0.35846">
        <ele>156.3</ele>
        <time>2026-08-31T10:06:24Z</time>
      </trkpt>
      <trkpt lat="43.46282" lon="-0.35845">
        <ele>156.3</ele>
        <time>2026-08-31T10:06:25Z</time>
      </trkpt>
      <trkpt lat="43.46282" lon="-0.35844">
        <ele>156.3</ele>
        <time>2026-08-31T10:06:25Z</time>
      </trkpt>
      <trkpt lat="43.46282" lon="-0.35843">
        <ele>156.3</ele>
        <time>2026-08-31T10:06:26Z</time>
      </trkpt>
      <trkpt lat="43.46282" lon="-0.35842">
        <ele>156.3</ele>
        <time>2026-08-31T10:06:26Z</time>
      </trkpt>
      <trkpt lat="43.46282" lon="-0.35841">
        <ele>155.3</ele>
        <time>2026-08-31T10:06:27Z</time>
      </trkpt>
      <trkpt lat="43.46282" lon="-0.3584">
        <ele>155.3</ele>
        <time>2026-08-31T10:06:27Z</time>
      </trkpt>
      <trkpt lat="43.46282" lon="-0.3584">
        <ele>155.3</ele>
        <time>2026-08-31T10:06:28Z</time>
      </trkpt>
      <trkpt lat="43.46282" lon="-0.35839">
        <ele>155.3</ele>
        <time>2026-08-31T10:06:28Z</time>
      </trkpt>
      <trkpt lat="43.46282" lon="-0.35838">
        <ele>155.3</ele>
        <time>2026-08-31T10:06:29Z</time>
      </trkpt>
      <trkpt lat="43.46282" lon="-0.35837">
        <ele>155.3</ele>
        <time>2026-08-31T10:06:30Z</time>
      </trkpt>
      <trkpt lat="43.46282" lon="-0.35836">
        <ele>155.3</ele>
        <time>2026-08-31T10:06:30Z</time>
      </trkpt>
      <trkpt lat="43.46282" lon="-0.35835">
        <ele>155.3</ele>
        <time>2026-08-31T10:06:31Z</time>
      </trkpt>
      <trkpt lat="43.46282" lon="-0.35835">
        <ele>155.3</ele>
        <time>2026-08-31T10:06:31Z</time>
      </trkpt>
      <trkpt lat="43.46282" lon="-0.35834">
        <ele>155.3</ele>
        <time>2026-08-31T10:06:32Z</time>
      </trkpt>
      <trkpt lat="43.46281" lon="-0.35833">
        <ele>155.3</ele>
        <time>2026-08-31T10:06:32Z</time>
      </trkpt>
      <trkpt lat="43.46281" lon="-0.35832">
        <ele>155.3</ele>
        <time>2026-08-31T10:06:33Z</time>
      </trkpt>
      <trkpt lat="43.46281" lon="-0.35831">
        <ele>154.3</ele>
        <time>2026-08-31T10:06:33Z</time>
      </trkpt>
      <trkpt lat="43.46281" lon="-0.3583">
        <ele>153.3</ele>
        <time>2026-08-31T10:06:34Z</time>
      </trkpt>
      <trkpt lat="43.46281" lon="-0.35829">
        <ele>153.3</ele>
        <time>2026-08-31T10:06:34Z</time>
      </trkpt>
      <trkpt lat="43.46281" lon="-0.35829">
        <ele>152.3</ele>
        <time>2026-08-31T10:06:35Z</time>
      </trkpt>
      <trkpt lat="43.46281" lon="-0.35828">
        <ele>152.3</ele>
        <time>2026-08-31T10:06:35Z</time>
      </trkpt>
      <trkpt lat="43.46281" lon="-0.35827">
        <ele>152.3</ele>
        <time>2026-08-31T10:06:36Z</time>
      </trkpt>
      <trkpt lat="43.4628" lon="-0.35826">
        <ele>152.3</ele>
        <time>2026-08-31T10:06:36Z</time>
      </trkpt>
      <trkpt lat="43.4628" lon="-0.35826">
        <ele>152.3</ele>
        <time>2026-08-31T10:06:37Z</time>
      </trkpt>
      <trkpt lat="43.4628" lon="-0.35825">
        <ele>152.3</ele>
        <time>2026-08-31T10:06:37Z</time>
      </trkpt>
      <trkpt lat="43.4628" lon="-0.35824">
        <ele>152.3</ele>
        <time>2026-08-31T10:06:38Z</time>
      </trkpt>
      <trkpt lat="43.46279" lon="-0.35823">
        <ele>152.3</ele>
        <time>2026-08-31T10:06:38Z</time>
      </trkpt>
      <trkpt lat="43.46279" lon="-0.35823">
        <ele>151.3</ele>
        <time>2026-08-31T10:06:39Z</time>
      </trkpt>
      <trkpt lat="43.46279" lon="-0.35822">
        <ele>151.3</ele>
        <time>2026-08-31T10:06:39Z</time>
      </trkpt>
      <trkpt lat="43.46278" lon="-0.35821">
        <ele>151.3</ele>
        <time>2026-08-31T10:06:40Z</time>
      </trkpt>
      <trkpt lat="43.46278" lon="-0.3582">
        <ele>151.3</ele>
        <time>2026-08-31T10:06:40Z</time>
      </trkpt>
      <trkpt lat="43.46278" lon="-0.3582">
        <ele>151.3</ele>
        <time>2026-08-31T10:06:41Z</time>
      </trkpt>
      <trkpt lat="43.46278" lon="-0.35819">
        <ele>151.3</ele>
        <time>2026-08-31T10:06:42Z</time>
      </trkpt>
      <trkpt lat="43.46277" lon="-0.35818">
        <ele>151.3</ele>
        <time>2026-08-31T10:06:42Z</time>
      </trkpt>
      <trkpt lat="43.46277" lon="-0.35817">
        <ele>151.3</ele>
        <time>2026-08-31T10:06:43Z</time>
      </trkpt>
      <trkpt lat="43.46277" lon="-0.35817">
        <ele>150.3</ele>
        <time>2026-08-31T10:06:43Z</time>
      </trkpt>
      <trkpt lat="43.46276" lon="-0.35816">
        <ele>150.3</ele>
        <time>2026-08-31T10:06:44Z</time>
      </trkpt>
      <trkpt lat="43.46276" lon="-0.35816">
        <ele>150.3</ele>
        <time>2026-08-31T10:06:44Z</time>
      </trkpt>
      <trkpt lat="43.46276" lon="-0.35815">
        <ele>150.3</ele>
        <time>2026-08-31T10:06:45Z</time>
      </trkpt>
      <trkpt lat="43.46275" lon="-0.35814">
        <ele>150.3</ele>
        <time>2026-08-31T10:06:45Z</time>
      </trkpt>
      <trkpt lat="43.46275" lon="-0.35814">
        <ele>150.3</ele>
        <time>2026-08-31T10:06:46Z</time>
      </trkpt>
      <trkpt lat="43.46275" lon="-0.35813">
        <ele>150.3</ele>
        <time>2026-08-31T10:06:46Z</time>
      </trkpt>
      <trkpt lat="43.46274" lon="-0.35813">
        <ele>149.3</ele>
        <time>2026-08-31T10:06:47Z</time>
      </trkpt>
      <trkpt lat="43.46274" lon="-0.35812">
        <ele>149.3</ele>
        <time>2026-08-31T10:06:47Z</time>
      </trkpt>
      <trkpt lat="43.46274" lon="-0.35811">
        <ele>149.3</ele>
        <time>2026-08-31T10:06:48Z</time>
      </trkpt>
      <trkpt lat="43.46273" lon="-0.3581">
        <ele>149.3</ele>
        <time>2026-08-31T10:06:48Z</time>
      </trkpt>
      <trkpt lat="43.46273" lon="-0.3581">
        <ele>149.3</ele>
        <time>2026-08-31T10:06:49Z</time>
      </trkpt>
      <trkpt lat="43.46272" lon="-0.35809">
        <ele>149.3</ele>
        <time>2026-08-31T10:06:49Z</time>
      </trkpt>
      <trkpt lat="43.46272" lon="-0.35808">
        <ele>149.3</ele>
        <time>2026-08-31T10:06:50Z</time>
      </trkpt>
      <trkpt lat="43.46272" lon="-0.35807">
        <ele>149.3</ele>
        <time>2026-08-31T10:06:50Z</time>
      </trkpt>
      <trkpt lat="43.46271" lon="-0.35806">
        <ele>149.3</ele>
        <time>2026-08-31T10:06:51Z</time>
      </trkpt>
      <trkpt lat="43.46271" lon="-0.35806">
        <ele>149.3</ele>
        <time>2026-08-31T10:06:51Z</time>
      </trkpt>
      <trkpt lat="43.4627" lon="-0.35805">
        <ele>149.3</ele>
        <time>2026-08-31T10:06:52Z</time>
      </trkpt>
      <trkpt lat="43.4627" lon="-0.35804">
        <ele>149.3</ele>
        <time>2026-08-31T10:06:53Z</time>
      </trkpt>
      <trkpt lat="43.4627" lon="-0.35804">
        <ele>149.3</ele>
        <time>2026-08-31T10:06:53Z</time>
      </trkpt>
      <trkpt lat="43.46269" lon="-0.35803">
        <ele>149.3</ele>
        <time>2026-08-31T10:06:54Z</time>
      </trkpt>
      <trkpt lat="43.46269" lon="-0.35802">
        <ele>149.3</ele>
        <time>2026-08-31T10:06:54Z</time>
      </trkpt>
      <trkpt lat="43.46268" lon="-0.35802">
        <ele>149.3</ele>
        <time>2026-08-31T10:06:55Z</time>
      </trkpt>
      <trkpt lat="43.46268" lon="-0.35801">
        <ele>149.3</ele>
        <time>2026-08-31T10:06:55Z</time>
      </trkpt>
      <trkpt lat="43.46267" lon="-0.358">
        <ele>150.3</ele>
        <time>2026-08-31T10:06:56Z</time>
      </trkpt>
      <trkpt lat="43.46267" lon="-0.358">
        <ele>150.3</ele>
        <time>2026-08-31T10:06:56Z</time>
      </trkpt>
      <trkpt lat="43.46266" lon="-0.35799">
        <ele>150.3</ele>
        <time>2026-08-31T10:06:57Z</time>
      </trkpt>
      <trkpt lat="43.46266" lon="-0.35798">
        <ele>150.3</ele>
        <time>2026-08-31T10:06:57Z</time>
      </trkpt>
      <trkpt lat="43.46266" lon="-0.35798">
        <ele>150.3</ele>
        <time>2026-08-31T10:06:58Z</time>
      </trkpt>
      <trkpt lat="43.46265" lon="-0.35797">
        <ele>150.3</ele>
        <time>2026-08-31T10:06:58Z</time>
      </trkpt>
      <trkpt lat="43.46265" lon="-0.35796">
        <ele>150.3</ele>
        <time>2026-08-31T10:06:59Z</time>
      </trkpt>
      <trkpt lat="43.46264" lon="-0.35795">
        <ele>150.3</ele>
        <time>2026-08-31T10:06:59Z</time>
      </trkpt>
      <trkpt lat="43.46264" lon="-0.35795">
        <ele>150.3</ele>
        <time>2026-08-31T10:07:00Z</time>
      </trkpt>
      <trkpt lat="43.46264" lon="-0.35794">
        <ele>150.3</ele>
        <time>2026-08-31T10:07:00Z</time>
      </trkpt>
      <trkpt lat="43.46263" lon="-0.35793">
        <ele>150.3</ele>
        <time>2026-08-31T10:07:01Z</time>
      </trkpt>
      <trkpt lat="43.46263" lon="-0.35792">
        <ele>150.3</ele>
        <time>2026-08-31T10:07:01Z</time>
      </trkpt>
      <trkpt lat="43.46262" lon="-0.35792">
        <ele>150.3</ele>
        <time>2026-08-31T10:07:02Z</time>
      </trkpt>
      <trkpt lat="43.46262" lon="-0.35791">
        <ele>150.3</ele>
        <time>2026-08-31T10:07:03Z</time>
      </trkpt>
      <trkpt lat="43.46262" lon="-0.3579">
        <ele>150.3</ele>
        <time>2026-08-31T10:07:03Z</time>
      </trkpt>
      <trkpt lat="43.46261" lon="-0.3579">
        <ele>150.3</ele>
        <time>2026-08-31T10:07:04Z</time>
      </trkpt>
      <trkpt lat="43.46261" lon="-0.35789">
        <ele>150.3</ele>
        <time>2026-08-31T10:07:04Z</time>
      </trkpt>
      <trkpt lat="43.4626" lon="-0.35788">
        <ele>150.3</ele>
        <time>2026-08-31T10:07:05Z</time>
      </trkpt>
      <trkpt lat="43.4626" lon="-0.35787">
        <ele>150.3</ele>
        <time>2026-08-31T10:07:05Z</time>
      </trkpt>
      <trkpt lat="43.46259" lon="-0.35787">
        <ele>150.3</ele>
        <time>2026-08-31T10:07:06Z</time>
      </trkpt>
      <trkpt lat="43.46259" lon="-0.35786">
        <ele>150.3</ele>
        <time>2026-08-31T10:07:06Z</time>
      </trkpt>
      <trkpt lat="43.46259" lon="-0.35785">
        <ele>150.3</ele>
        <time>2026-08-31T10:07:07Z</time>
      </trkpt>
      <trkpt lat="43.46258" lon="-0.35785">
        <ele>150.3</ele>
        <time>2026-08-31T10:07:07Z</time>
      </trkpt>
      <trkpt lat="43.46258" lon="-0.35784">
        <ele>150.3</ele>
        <time>2026-08-31T10:07:08Z</time>
      </trkpt>
      <trkpt lat="43.46257" lon="-0.35783">
        <ele>150.3</ele>
        <time>2026-08-31T10:07:08Z</time>
      </trkpt>
      <trkpt lat="43.46257" lon="-0.35782">
        <ele>150.3</ele>
        <time>2026-08-31T10:07:09Z</time>
      </trkpt>
      <trkpt lat="43.46256" lon="-0.35782">
        <ele>150.3</ele>
        <time>2026-08-31T10:07:10Z</time>
      </trkpt>
      <trkpt lat="43.46256" lon="-0.35781">
        <ele>150.3</ele>
        <time>2026-08-31T10:07:10Z</time>
      </trkpt>
      <trkpt lat="43.46255" lon="-0.3578">
        <ele>150.3</ele>
        <time>2026-08-31T10:07:11Z</time>
      </trkpt>
      <trkpt lat="43.46255" lon="-0.3578">
        <ele>150.3</ele>
        <time>2026-08-31T10:07:11Z</time>
      </trkpt>
      <trkpt lat="43.46254" lon="-0.35779">
        <ele>150.3</ele>
        <time>2026-08-31T10:07:12Z</time>
      </trkpt>
      <trkpt lat="43.46254" lon="-0.35779">
        <ele>150.3</ele>
        <time>2026-08-31T10:07:12Z</time>
      </trkpt>
      <trkpt lat="43.46253" lon="-0.35778">
        <ele>150.3</ele>
        <time>2026-08-31T10:07:13Z</time>
      </trkpt>
      <trkpt lat="43.46253" lon="-0.35777">
        <ele>150.3</ele>
        <time>2026-08-31T10:07:13Z</time>
      </trkpt>
      <trkpt lat="43.46252" lon="-0.35777">
        <ele>150.3</ele>
        <time>2026-08-31T10:07:14Z</time>
      </trkpt>
      <trkpt lat="43.46252" lon="-0.35776">
        <ele>150.3</ele>
        <time>2026-08-31T10:07:14Z</time>
      </trkpt>
      <trkpt lat="43.46251" lon="-0.35775">
        <ele>149.3</ele>
        <time>2026-08-31T10:07:15Z</time>
      </trkpt>
      <trkpt lat="43.46251" lon="-0.35774">
        <ele>149.3</ele>
        <time>2026-08-31T10:07:15Z</time>
      </trkpt>
      <trkpt lat="43.46251" lon="-0.35774">
        <ele>149.3</ele>
        <time>2026-08-31T10:07:16Z</time>
      </trkpt>
      <trkpt lat="43.4625" lon="-0.35773">
        <ele>149.3</ele>
        <time>2026-08-31T10:07:16Z</time>
      </trkpt>
      <trkpt lat="43.4625" lon="-0.35772">
        <ele>149.3</ele>
        <time>2026-08-31T10:07:17Z</time>
      </trkpt>
      <trkpt lat="43.46249" lon="-0.35771">
        <ele>149.3</ele>
        <time>2026-08-31T10:07:18Z</time>
      </trkpt>
      <trkpt lat="43.46249" lon="-0.35771">
        <ele>149.3</ele>
        <time>2026-08-31T10:07:18Z</time>
      </trkpt>
      <trkpt lat="43.46248" lon="-0.3577">
        <ele>149.3</ele>
        <time>2026-08-31T10:07:19Z</time>
      </trkpt>
      <trkpt lat="43.46248" lon="-0.3577">
        <ele>149.3</ele>
        <time>2026-08-31T10:07:19Z</time>
      </trkpt>
      <trkpt lat="43.46247" lon="-0.35769">
        <ele>149.3</ele>
        <time>2026-08-31T10:07:20Z</time>
      </trkpt>
      <trkpt lat="43.46247" lon="-0.35768">
        <ele>149.3</ele>
        <time>2026-08-31T10:07:20Z</time>
      </trkpt>
      <trkpt lat="43.46247" lon="-0.35768">
        <ele>148.3</ele>
        <time>2026-08-31T10:07:21Z</time>
      </trkpt>
      <trkpt lat="43.46246" lon="-0.35767">
        <ele>148.3</ele>
        <time>2026-08-31T10:07:21Z</time>
      </trkpt>
      <trkpt lat="43.46246" lon="-0.35766">
        <ele>148.3</ele>
        <time>2026-08-31T10:07:22Z</time>
      </trkpt>
      <trkpt lat="43.46245" lon="-0.35766">
        <ele>148.3</ele>
        <time>2026-08-31T10:07:22Z</time>
      </trkpt>
      <trkpt lat="43.46245" lon="-0.35765">
        <ele>148.3</ele>
        <time>2026-08-31T10:07:23Z</time>
      </trkpt>
      <trkpt lat="43.46244" lon="-0.35764">
        <ele>148.3</ele>
        <time>2026-08-31T10:07:23Z</time>
      </trkpt>
      <trkpt lat="43.46244" lon="-0.35764">
        <ele>148.3</ele>
        <time>2026-08-31T10:07:24Z</time>
      </trkpt>
      <trkpt lat="43.46243" lon="-0.35763">
        <ele>148.3</ele>
        <time>2026-08-31T10:07:24Z</time>
      </trkpt>
      <trkpt lat="43.46243" lon="-0.35762">
        <ele>148.3</ele>
        <time>2026-08-31T10:07:25Z</time>
      </trkpt>
      <trkpt lat="43.46242" lon="-0.35761">
        <ele>148.3</ele>
        <time>2026-08-31T10:07:25Z</time>
      </trkpt>
      <trkpt lat="43.46242" lon="-0.3576">
        <ele>148.3</ele>
        <time>2026-08-31T10:07:26Z</time>
      </trkpt>
      <trkpt lat="43.46241" lon="-0.35759">
        <ele>148.3</ele>
        <time>2026-08-31T10:07:27Z</time>
      </trkpt>
      <trkpt lat="43.46241" lon="-0.35758">
        <ele>148.3</ele>
        <time>2026-08-31T10:07:27Z</time>
      </trkpt>
      <trkpt lat="43.4624" lon="-0.35758">
        <ele>148.3</ele>
        <time>2026-08-31T10:07:28Z</time>
      </trkpt>
      <trkpt lat="43.4624" lon="-0.35757">
        <ele>147.3</ele>
        <time>2026-08-31T10:07:28Z</time>
      </trkpt>
      <trkpt lat="43.46239" lon="-0.35756">
        <ele>147.3</ele>
        <time>2026-08-31T10:07:29Z</time>
      </trkpt>
      <trkpt lat="43.46239" lon="-0.35755">
        <ele>147.3</ele>
        <time>2026-08-31T10:07:29Z</time>
      </trkpt>
      <trkpt lat="43.46238" lon="-0.35754">
        <ele>148.3</ele>
        <time>2026-08-31T10:07:30Z</time>
      </trkpt>
      <trkpt lat="43.46238" lon="-0.35753">
        <ele>148.3</ele>
        <time>2026-08-31T10:07:30Z</time>
      </trkpt>
      <trkpt lat="43.46237" lon="-0.35752">
        <ele>148.3</ele>
        <time>2026-08-31T10:07:31Z</time>
      </trkpt>
      <trkpt lat="43.46237" lon="-0.35752">
        <ele>148.3</ele>
        <time>2026-08-31T10:07:31Z</time>
      </trkpt>
      <trkpt lat="43.46237" lon="-0.35751">
        <ele>148.3</ele>
        <time>2026-08-31T10:07:32Z</time>
      </trkpt>
      <trkpt lat="43.46236" lon="-0.3575">
        <ele>148.3</ele>
        <time>2026-08-31T10:07:32Z</time>
      </trkpt>
      <trkpt lat="43.46236" lon="-0.35749">
        <ele>148.3</ele>
        <time>2026-08-31T10:07:33Z</time>
      </trkpt>
      <trkpt lat="43.46235" lon="-0.35748">
        <ele>148.3</ele>
        <time>2026-08-31T10:07:33Z</time>
      </trkpt>
      <trkpt lat="43.46235" lon="-0.35747">
        <ele>149.3</ele>
        <time>2026-08-31T10:07:34Z</time>
      </trkpt>
      <trkpt lat="43.46235" lon="-0.35746">
        <ele>149.3</ele>
        <time>2026-08-31T10:07:34Z</time>
      </trkpt>
      <trkpt lat="43.46234" lon="-0.35745">
        <ele>149.3</ele>
        <time>2026-08-31T10:07:35Z</time>
      </trkpt>
      <trkpt lat="43.46234" lon="-0.35744">
        <ele>149.3</ele>
        <time>2026-08-31T10:07:36Z</time>
      </trkpt>
      <trkpt lat="43.46233" lon="-0.35743">
        <ele>149.3</ele>
        <time>2026-08-31T10:07:36Z</time>
      </trkpt>
      <trkpt lat="43.46233" lon="-0.35742">
        <ele>149.3</ele>
        <time>2026-08-31T10:07:37Z</time>
      </trkpt>
      <trkpt lat="43.46232" lon="-0.35742">
        <ele>148.3</ele>
        <time>2026-08-31T10:07:37Z</time>
      </trkpt>
      <trkpt lat="43.46232" lon="-0.35741">
        <ele>148.3</ele>
        <time>2026-08-31T10:07:38Z</time>
      </trkpt>
      <trkpt lat="43.46231" lon="-0.3574">
        <ele>148.3</ele>
        <time>2026-08-31T10:07:38Z</time>
      </trkpt>
      <trkpt lat="43.46231" lon="-0.35739">
        <ele>148.3</ele>
        <time>2026-08-31T10:07:39Z</time>
      </trkpt>
      <trkpt lat="43.4623" lon="-0.35738">
        <ele>148.3</ele>
        <time>2026-08-31T10:07:39Z</time>
      </trkpt>
      <trkpt lat="43.4623" lon="-0.35737">
        <ele>148.3</ele>
        <time>2026-08-31T10:07:40Z</time>
      </trkpt>
      <trkpt lat="43.4623" lon="-0.35737">
        <ele>148.3</ele>
        <time>2026-08-31T10:07:40Z</time>
      </trkpt>
      <trkpt lat="43.46229" lon="-0.35736">
        <ele>148.3</ele>
        <time>2026-08-31T10:07:41Z</time>
      </trkpt>
      <trkpt lat="43.46229" lon="-0.35735">
        <ele>148.3</ele>
        <time>2026-08-31T10:07:41Z</time>
      </trkpt>
      <trkpt lat="43.46228" lon="-0.35734">
        <ele>148.3</ele>
        <time>2026-08-31T10:07:42Z</time>
      </trkpt>
      <trkpt lat="43.46228" lon="-0.35733">
        <ele>148.3</ele>
        <time>2026-08-31T10:07:42Z</time>
      </trkpt>
      <trkpt lat="43.46227" lon="-0.35733">
        <ele>148.3</ele>
        <time>2026-08-31T10:07:43Z</time>
      </trkpt>
      <trkpt lat="43.46227" lon="-0.35732">
        <ele>148.3</ele>
        <time>2026-08-31T10:07:44Z</time>
      </trkpt>
      <trkpt lat="43.46226" lon="-0.35731">
        <ele>148.3</ele>
        <time>2026-08-31T10:07:44Z</time>
      </trkpt>
      <trkpt lat="43.46226" lon="-0.3573">
        <ele>148.3</ele>
        <time>2026-08-31T10:07:45Z</time>
      </trkpt>
      <trkpt lat="43.46225" lon="-0.3573">
        <ele>149.3</ele>
        <time>2026-08-31T10:07:45Z</time>
      </trkpt>
      <trkpt lat="43.46225" lon="-0.35729">
        <ele>149.3</ele>
        <time>2026-08-31T10:07:46Z</time>
      </trkpt>
      <trkpt lat="43.46224" lon="-0.35729">
        <ele>149.3</ele>
        <time>2026-08-31T10:07:46Z</time>
      </trkpt>
      <trkpt lat="43.46224" lon="-0.35728">
        <ele>149.3</ele>
        <time>2026-08-31T10:07:47Z</time>
      </trkpt>
      <trkpt lat="43.46223" lon="-0.35728">
        <ele>149.3</ele>
        <time>2026-08-31T10:07:47Z</time>
      </trkpt>
      <trkpt lat="43.46223" lon="-0.35727">
        <ele>149.3</ele>
        <time>2026-08-31T10:07:48Z</time>
      </trkpt>
      <trkpt lat="43.46222" lon="-0.35726">
        <ele>149.3</ele>
        <time>2026-08-31T10:07:48Z</time>
      </trkpt>
      <trkpt lat="43.46222" lon="-0.35726">
        <ele>149.3</ele>
        <time>2026-08-31T10:07:49Z</time>
      </trkpt>
      <trkpt lat="43.46221" lon="-0.35725">
        <ele>149.3</ele>
        <time>2026-08-31T10:07:49Z</time>
      </trkpt>
      <trkpt lat="43.46221" lon="-0.35725">
        <ele>149.3</ele>
        <time>2026-08-31T10:07:50Z</time>
      </trkpt>
      <trkpt lat="43.4622" lon="-0.35724">
        <ele>149.3</ele>
        <time>2026-08-31T10:07:50Z</time>
      </trkpt>
      <trkpt lat="43.4622" lon="-0.35724">
        <ele>149.3</ele>
        <time>2026-08-31T10:07:51Z</time>
      </trkpt>
      <trkpt lat="43.46219" lon="-0.35723">
        <ele>149.3</ele>
        <time>2026-08-31T10:07:52Z</time>
      </trkpt>
      <trkpt lat="43.46218" lon="-0.35722">
        <ele>148.3</ele>
        <time>2026-08-31T10:07:52Z</time>
      </trkpt>
      <trkpt lat="43.46218" lon="-0.35721">
        <ele>148.3</ele>
        <time>2026-08-31T10:07:53Z</time>
      </trkpt>
      <trkpt lat="43.46218" lon="-0.35721">
        <ele>149.3</ele>
        <time>2026-08-31T10:07:53Z</time>
      </trkpt>
      <trkpt lat="43.46217" lon="-0.3572">
        <ele>148.3</ele>
        <time>2026-08-31T10:07:54Z</time>
      </trkpt>
      <trkpt lat="43.46217" lon="-0.3572">
        <ele>148.3</ele>
        <time>2026-08-31T10:07:54Z</time>
      </trkpt>
      <trkpt lat="43.46216" lon="-0.35719">
        <ele>149.3</ele>
        <time>2026-08-31T10:07:55Z</time>
      </trkpt>
      <trkpt lat="43.46216" lon="-0.35718">
        <ele>149.3</ele>
        <time>2026-08-31T10:07:55Z</time>
      </trkpt>
      <trkpt lat="43.46215" lon="-0.35717">
        <ele>149.3</ele>
        <time>2026-08-31T10:07:56Z</time>
      </trkpt>
      <trkpt lat="43.46215" lon="-0.35717">
        <ele>149.3</ele>
        <time>2026-08-31T10:07:56Z</time>
      </trkpt>
      <trkpt lat="43.46215" lon="-0.35716">
        <ele>149.3</ele>
        <time>2026-08-31T10:07:57Z</time>
      </trkpt>
      <trkpt lat="43.46214" lon="-0.35715">
        <ele>149.3</ele>
        <time>2026-08-31T10:07:57Z</time>
      </trkpt>
      <trkpt lat="43.46214" lon="-0.35715">
        <ele>149.3</ele>
        <time>2026-08-31T10:07:58Z</time>
      </trkpt>
      <trkpt lat="43.46213" lon="-0.35714">
        <ele>149.3</ele>
        <time>2026-08-31T10:07:59Z</time>
      </trkpt>
      <trkpt lat="43.46213" lon="-0.35713">
        <ele>148.3</ele>
        <time>2026-08-31T10:07:59Z</time>
      </trkpt>
      <trkpt lat="43.46212" lon="-0.35712">
        <ele>148.3</ele>
        <time>2026-08-31T10:08:00Z</time>
      </trkpt>
      <trkpt lat="43.46212" lon="-0.35712">
        <ele>149.3</ele>
        <time>2026-08-31T10:08:00Z</time>
      </trkpt>
      <trkpt lat="43.46211" lon="-0.35711">
        <ele>149.3</ele>
        <time>2026-08-31T10:08:01Z</time>
      </trkpt>
      <trkpt lat="43.46211" lon="-0.3571">
        <ele>149.3</ele>
        <time>2026-08-31T10:08:01Z</time>
      </trkpt>
      <trkpt lat="43.46211" lon="-0.3571">
        <ele>149.3</ele>
        <time>2026-08-31T10:08:02Z</time>
      </trkpt>
      <trkpt lat="43.4621" lon="-0.35709">
        <ele>149.3</ele>
        <time>2026-08-31T10:08:02Z</time>
      </trkpt>
      <trkpt lat="43.46209" lon="-0.35708">
        <ele>149.3</ele>
        <time>2026-08-31T10:08:03Z</time>
      </trkpt>
      <trkpt lat="43.46209" lon="-0.35708">
        <ele>149.3</ele>
        <time>2026-08-31T10:08:03Z</time>
      </trkpt>
      <trkpt lat="43.46209" lon="-0.35707">
        <ele>149.3</ele>
        <time>2026-08-31T10:08:04Z</time>
      </trkpt>
      <trkpt lat="43.46208" lon="-0.35706">
        <ele>149.3</ele>
        <time>2026-08-31T10:08:04Z</time>
      </trkpt>
      <trkpt lat="43.46208" lon="-0.35706">
        <ele>149.3</ele>
        <time>2026-08-31T10:08:05Z</time>
      </trkpt>
      <trkpt lat="43.46207" lon="-0.35705">
        <ele>149.3</ele>
        <time>2026-08-31T10:08:05Z</time>
      </trkpt>
      <trkpt lat="43.46207" lon="-0.35704">
        <ele>149.3</ele>
        <time>2026-08-31T10:08:06Z</time>
      </trkpt>
      <trkpt lat="43.46206" lon="-0.35704">
        <ele>149.3</ele>
        <time>2026-08-31T10:08:07Z</time>
      </trkpt>
      <trkpt lat="43.46206" lon="-0.35703">
        <ele>149.3</ele>
        <time>2026-08-31T10:08:07Z</time>
      </trkpt>
      <trkpt lat="43.46205" lon="-0.35702">
        <ele>149.3</ele>
        <time>2026-08-31T10:08:08Z</time>
      </trkpt>
      <trkpt lat="43.46205" lon="-0.35702">
        <ele>148.3</ele>
        <time>2026-08-31T10:08:08Z</time>
      </trkpt>
      <trkpt lat="43.46204" lon="-0.35701">
        <ele>148.3</ele>
        <time>2026-08-31T10:08:09Z</time>
      </trkpt>
      <trkpt lat="43.46204" lon="-0.357">
        <ele>148.3</ele>
        <time>2026-08-31T10:08:09Z</time>
      </trkpt>
      <trkpt lat="43.46203" lon="-0.357">
        <ele>148.3</ele>
        <time>2026-08-31T10:08:10Z</time>
      </trkpt>
      <trkpt lat="43.46203" lon="-0.35699">
        <ele>148.3</ele>
        <time>2026-08-31T10:08:10Z</time>
      </trkpt>
      <trkpt lat="43.46203" lon="-0.35699">
        <ele>147.3</ele>
        <time>2026-08-31T10:08:11Z</time>
      </trkpt>
      <trkpt lat="43.46202" lon="-0.35698">
        <ele>147.3</ele>
        <time>2026-08-31T10:08:11Z</time>
      </trkpt>
      <trkpt lat="43.46202" lon="-0.35697">
        <ele>147.3</ele>
        <time>2026-08-31T10:08:12Z</time>
      </trkpt>
      <trkpt lat="43.46201" lon="-0.35697">
        <ele>147.3</ele>
        <time>2026-08-31T10:08:12Z</time>
      </trkpt>
      <trkpt lat="43.46201" lon="-0.35696">
        <ele>147.3</ele>
        <time>2026-08-31T10:08:13Z</time>
      </trkpt>
      <trkpt lat="43.462" lon="-0.35695">
        <ele>147.3</ele>
        <time>2026-08-31T10:08:13Z</time>
      </trkpt>
      <trkpt lat="43.462" lon="-0.35695">
        <ele>147.3</ele>
        <time>2026-08-31T10:08:14Z</time>
      </trkpt>
      <trkpt lat="43.46199" lon="-0.35694">
        <ele>147.3</ele>
        <time>2026-08-31T10:08:15Z</time>
      </trkpt>
      <trkpt lat="43.46199" lon="-0.35693">
        <ele>147.3</ele>
        <time>2026-08-31T10:08:15Z</time>
      </trkpt>
      <trkpt lat="43.46198" lon="-0.35692">
        <ele>147.3</ele>
        <time>2026-08-31T10:08:16Z</time>
      </trkpt>
      <trkpt lat="43.46198" lon="-0.35692">
        <ele>146.3</ele>
        <time>2026-08-31T10:08:16Z</time>
      </trkpt>
      <trkpt lat="43.46198" lon="-0.35691">
        <ele>146.3</ele>
        <time>2026-08-31T10:08:17Z</time>
      </trkpt>
      <trkpt lat="43.46197" lon="-0.3569">
        <ele>146.3</ele>
        <time>2026-08-31T10:08:17Z</time>
      </trkpt>
      <trkpt lat="43.46197" lon="-0.35689">
        <ele>146.3</ele>
        <time>2026-08-31T10:08:18Z</time>
      </trkpt>
      <trkpt lat="43.46196" lon="-0.35688">
        <ele>146.3</ele>
        <time>2026-08-31T10:08:18Z</time>
      </trkpt>
      <trkpt lat="43.46196" lon="-0.35687">
        <ele>146.3</ele>
        <time>2026-08-31T10:08:19Z</time>
      </trkpt>
      <trkpt lat="43.46196" lon="-0.35687">
        <ele>146.3</ele>
        <time>2026-08-31T10:08:19Z</time>
      </trkpt>
      <trkpt lat="43.46195" lon="-0.35686">
        <ele>147.3</ele>
        <time>2026-08-31T10:08:20Z</time>
      </trkpt>
      <trkpt lat="43.46195" lon="-0.35685">
        <ele>147.3</ele>
        <time>2026-08-31T10:08:21Z</time>
      </trkpt>
      <trkpt lat="43.46194" lon="-0.35685">
        <ele>147.3</ele>
        <time>2026-08-31T10:08:21Z</time>
      </trkpt>
      <trkpt lat="43.46194" lon="-0.35684">
        <ele>147.3</ele>
        <time>2026-08-31T10:08:22Z</time>
      </trkpt>
      <trkpt lat="43.46194" lon="-0.35683">
        <ele>146.3</ele>
        <time>2026-08-31T10:08:22Z</time>
      </trkpt>
      <trkpt lat="43.46193" lon="-0.35683">
        <ele>146.3</ele>
        <time>2026-08-31T10:08:23Z</time>
      </trkpt>
      <trkpt lat="43.46193" lon="-0.35682">
        <ele>146.3</ele>
        <time>2026-08-31T10:08:23Z</time>
      </trkpt>
      <trkpt lat="43.46193" lon="-0.35682">
        <ele>146.3</ele>
        <time>2026-08-31T10:08:24Z</time>
      </trkpt>
      <trkpt lat="43.46192" lon="-0.35681">
        <ele>146.3</ele>
        <time>2026-08-31T10:08:24Z</time>
      </trkpt>
      <trkpt lat="43.46192" lon="-0.3568">
        <ele>147.3</ele>
        <time>2026-08-31T10:08:25Z</time>
      </trkpt>
      <trkpt lat="43.46191" lon="-0.3568">
        <ele>147.3</ele>
        <time>2026-08-31T10:08:25Z</time>
      </trkpt>
      <trkpt lat="43.46191" lon="-0.35679">
        <ele>147.3</ele>
        <time>2026-08-31T10:08:26Z</time>
      </trkpt>
      <trkpt lat="43.4619" lon="-0.35678">
        <ele>147.3</ele>
        <time>2026-08-31T10:08:26Z</time>
      </trkpt>
      <trkpt lat="43.4619" lon="-0.35678">
        <ele>146.3</ele>
        <time>2026-08-31T10:08:27Z</time>
      </trkpt>
      <trkpt lat="43.4619" lon="-0.35677">
        <ele>146.3</ele>
        <time>2026-08-31T10:08:28Z</time>
      </trkpt>
      <trkpt lat="43.46189" lon="-0.35676">
        <ele>146.3</ele>
        <time>2026-08-31T10:08:28Z</time>
      </trkpt>
      <trkpt lat="43.46189" lon="-0.35675">
        <ele>146.3</ele>
        <time>2026-08-31T10:08:29Z</time>
      </trkpt>
      <trkpt lat="43.46189" lon="-0.35675">
        <ele>146.3</ele>
        <time>2026-08-31T10:08:29Z</time>
      </trkpt>
      <trkpt lat="43.46188" lon="-0.35674">
        <ele>146.3</ele>
        <time>2026-08-31T10:08:30Z</time>
      </trkpt>
      <trkpt lat="43.46188" lon="-0.35673">
        <ele>146.3</ele>
        <time>2026-08-31T10:08:30Z</time>
      </trkpt>
      <trkpt lat="43.46188" lon="-0.35672">
        <ele>146.3</ele>
        <time>2026-08-31T10:08:31Z</time>
      </trkpt>
      <trkpt lat="43.46187" lon="-0.35672">
        <ele>146.3</ele>
        <time>2026-08-31T10:08:31Z</time>
      </trkpt>
      <trkpt lat="43.46187" lon="-0.35671">
        <ele>146.3</ele>
        <time>2026-08-31T10:08:32Z</time>
      </trkpt>
      <trkpt lat="43.46186" lon="-0.3567">
        <ele>146.3</ele>
        <time>2026-08-31T10:08:32Z</time>
      </trkpt>
      <trkpt lat="43.46186" lon="-0.3567">
        <ele>146.3</ele>
        <time>2026-08-31T10:08:33Z</time>
      </trkpt>
      <trkpt lat="43.46185" lon="-0.35669">
        <ele>146.3</ele>
        <time>2026-08-31T10:08:34Z</time>
      </trkpt>
      <trkpt lat="43.46185" lon="-0.35668">
        <ele>146.3</ele>
        <time>2026-08-31T10:08:34Z</time>
      </trkpt>
      <trkpt lat="43.46185" lon="-0.35667">
        <ele>146.3</ele>
        <time>2026-08-31T10:08:35Z</time>
      </trkpt>
      <trkpt lat="43.46184" lon="-0.35667">
        <ele>147.3</ele>
        <time>2026-08-31T10:08:35Z</time>
      </trkpt>
      <trkpt lat="43.46184" lon="-0.35666">
        <ele>146.3</ele>
        <time>2026-08-31T10:08:36Z</time>
      </trkpt>
      <trkpt lat="43.46184" lon="-0.35665">
        <ele>146.3</ele>
        <time>2026-08-31T10:08:36Z</time>
      </trkpt>
      <trkpt lat="43.46183" lon="-0.35665">
        <ele>146.3</ele>
        <time>2026-08-31T10:08:37Z</time>
      </trkpt>
      <trkpt lat="43.46183" lon="-0.35664">
        <ele>146.3</ele>
        <time>2026-08-31T10:08:37Z</time>
      </trkpt>
      <trkpt lat="43.46182" lon="-0.35664">
        <ele>146.3</ele>
        <time>2026-08-31T10:08:38Z</time>
      </trkpt>
      <trkpt lat="43.46182" lon="-0.35663">
        <ele>146.3</ele>
        <time>2026-08-31T10:08:38Z</time>
      </trkpt>
      <trkpt lat="43.46181" lon="-0.35662">
        <ele>146.3</ele>
        <time>2026-08-31T10:08:39Z</time>
      </trkpt>
      <trkpt lat="43.46181" lon="-0.35661">
        <ele>146.3</ele>
        <time>2026-08-31T10:08:40Z</time>
      </trkpt>
      <trkpt lat="43.4618" lon="-0.35661">
        <ele>146.3</ele>
        <time>2026-08-31T10:08:40Z</time>
      </trkpt>
      <trkpt lat="43.4618" lon="-0.3566">
        <ele>146.3</ele>
        <time>2026-08-31T10:08:41Z</time>
      </trkpt>
      <trkpt lat="43.4618" lon="-0.35659">
        <ele>145.3</ele>
        <time>2026-08-31T10:08:41Z</time>
      </trkpt>
      <trkpt lat="43.46179" lon="-0.35658">
        <ele>145.3</ele>
        <time>2026-08-31T10:08:42Z</time>
      </trkpt>
      <trkpt lat="43.46179" lon="-0.35658">
        <ele>145.3</ele>
        <time>2026-08-31T10:08:42Z</time>
      </trkpt>
      <trkpt lat="43.46178" lon="-0.35657">
        <ele>145.3</ele>
        <time>2026-08-31T10:08:43Z</time>
      </trkpt>
      <trkpt lat="43.46178" lon="-0.35656">
        <ele>145.3</ele>
        <time>2026-08-31T10:08:43Z</time>
      </trkpt>
      <trkpt lat="43.46178" lon="-0.35655">
        <ele>145.3</ele>
        <time>2026-08-31T10:08:44Z</time>
      </trkpt>
      <trkpt lat="43.46177" lon="-0.35654">
        <ele>145.3</ele>
        <time>2026-08-31T10:08:44Z</time>
      </trkpt>
      <trkpt lat="43.46177" lon="-0.35654">
        <ele>145.3</ele>
        <time>2026-08-31T10:08:45Z</time>
      </trkpt>
      <trkpt lat="43.46176" lon="-0.35653">
        <ele>145.3</ele>
        <time>2026-08-31T10:08:46Z</time>
      </trkpt>
      <trkpt lat="43.46176" lon="-0.35652">
        <ele>145.3</ele>
        <time>2026-08-31T10:08:46Z</time>
      </trkpt>
      <trkpt lat="43.46175" lon="-0.35651">
        <ele>145.3</ele>
        <time>2026-08-31T10:08:47Z</time>
      </trkpt>
      <trkpt lat="43.46175" lon="-0.3565">
        <ele>144.3</ele>
        <time>2026-08-31T10:08:47Z</time>
      </trkpt>
      <trkpt lat="43.46175" lon="-0.3565">
        <ele>144.3</ele>
        <time>2026-08-31T10:08:48Z</time>
      </trkpt>
      <trkpt lat="43.46174" lon="-0.35649">
        <ele>144.3</ele>
        <time>2026-08-31T10:08:48Z</time>
      </trkpt>
      <trkpt lat="43.46174" lon="-0.35648">
        <ele>144.3</ele>
        <time>2026-08-31T10:08:49Z</time>
      </trkpt>
      <trkpt lat="43.46173" lon="-0.35648">
        <ele>144.3</ele>
        <time>2026-08-31T10:08:49Z</time>
      </trkpt>
      <trkpt lat="43.46173" lon="-0.35647">
        <ele>144.3</ele>
        <time>2026-08-31T10:08:50Z</time>
      </trkpt>
      <trkpt lat="43.46172" lon="-0.35646">
        <ele>144.3</ele>
        <time>2026-08-31T10:08:51Z</time>
      </trkpt>
      <trkpt lat="43.46172" lon="-0.35645">
        <ele>143.3</ele>
        <time>2026-08-31T10:08:51Z</time>
      </trkpt>
      <trkpt lat="43.46171" lon="-0.35645">
        <ele>143.3</ele>
        <time>2026-08-31T10:08:52Z</time>
      </trkpt>
      <trkpt lat="43.46171" lon="-0.35644">
        <ele>143.3</ele>
        <time>2026-08-31T10:08:52Z</time>
      </trkpt>
      <trkpt lat="43.46171" lon="-0.35643">
        <ele>143.3</ele>
        <time>2026-08-31T10:08:53Z</time>
      </trkpt>
      <trkpt lat="43.4617" lon="-0.35642">
        <ele>143.3</ele>
        <time>2026-08-31T10:08:53Z</time>
      </trkpt>
      <trkpt lat="43.4617" lon="-0.35642">
        <ele>143.3</ele>
        <time>2026-08-31T10:08:54Z</time>
      </trkpt>
      <trkpt lat="43.4617" lon="-0.35641">
        <ele>143.3</ele>
        <time>2026-08-31T10:08:54Z</time>
      </trkpt>
      <trkpt lat="43.46169" lon="-0.35641">
        <ele>143.3</ele>
        <time>2026-08-31T10:08:55Z</time>
      </trkpt>
      <trkpt lat="43.46169" lon="-0.3564">
        <ele>143.3</ele>
        <time>2026-08-31T10:08:55Z</time>
      </trkpt>
      <trkpt lat="43.46169" lon="-0.35639">
        <ele>143.3</ele>
        <time>2026-08-31T10:08:56Z</time>
      </trkpt>
      <trkpt lat="43.46168" lon="-0.35638">
        <ele>143.3</ele>
        <time>2026-08-31T10:08:56Z</time>
      </trkpt>
      <trkpt lat="43.46168" lon="-0.35638">
        <ele>143.3</ele>
        <time>2026-08-31T10:08:57Z</time>
      </trkpt>
      <trkpt lat="43.46168" lon="-0.35637">
        <ele>143.3</ele>
        <time>2026-08-31T10:08:58Z</time>
      </trkpt>
      <trkpt lat="43.46167" lon="-0.35636">
        <ele>143.3</ele>
        <time>2026-08-31T10:08:58Z</time>
      </trkpt>
      <trkpt lat="43.46167" lon="-0.35636">
        <ele>143.3</ele>
        <time>2026-08-31T10:08:59Z</time>
      </trkpt>
      <trkpt lat="43.46167" lon="-0.35635">
        <ele>142.3</ele>
        <time>2026-08-31T10:08:59Z</time>
      </trkpt>
      <trkpt lat="43.46166" lon="-0.35634">
        <ele>142.3</ele>
        <time>2026-08-31T10:09:00Z</time>
      </trkpt>
      <trkpt lat="43.46166" lon="-0.35634">
        <ele>142.3</ele>
        <time>2026-08-31T10:09:00Z</time>
      </trkpt>
      <trkpt lat="43.46166" lon="-0.35633">
        <ele>142.3</ele>
        <time>2026-08-31T10:09:01Z</time>
      </trkpt>
      <trkpt lat="43.46166" lon="-0.35632">
        <ele>142.3</ele>
        <time>2026-08-31T10:09:01Z</time>
      </trkpt>
      <trkpt lat="43.46165" lon="-0.35631">
        <ele>142.3</ele>
        <time>2026-08-31T10:09:02Z</time>
      </trkpt>
      <trkpt lat="43.46165" lon="-0.3563">
        <ele>142.3</ele>
        <time>2026-08-31T10:09:02Z</time>
      </trkpt>
      <trkpt lat="43.46164" lon="-0.3563">
        <ele>142.3</ele>
        <time>2026-08-31T10:09:03Z</time>
      </trkpt>
      <trkpt lat="43.46164" lon="-0.35629">
        <ele>142.3</ele>
        <time>2026-08-31T10:09:04Z</time>
      </trkpt>
      <trkpt lat="43.46164" lon="-0.35628">
        <ele>142.3</ele>
        <time>2026-08-31T10:09:04Z</time>
      </trkpt>
      <trkpt lat="43.46164" lon="-0.35627">
        <ele>142.3</ele>
        <time>2026-08-31T10:09:05Z</time>
      </trkpt>
      <trkpt lat="43.46163" lon="-0.35626">
        <ele>142.3</ele>
        <time>2026-08-31T10:09:05Z</time>
      </trkpt>
      <trkpt lat="43.46163" lon="-0.35626">
        <ele>141.3</ele>
        <time>2026-08-31T10:09:06Z</time>
      </trkpt>
      <trkpt lat="43.46163" lon="-0.35625">
        <ele>141.3</ele>
        <time>2026-08-31T10:09:06Z</time>
      </trkpt>
      <trkpt lat="43.46163" lon="-0.35624">
        <ele>141.3</ele>
        <time>2026-08-31T10:09:07Z</time>
      </trkpt>
      <trkpt lat="43.46163" lon="-0.35623">
        <ele>141.3</ele>
        <time>2026-08-31T10:09:07Z</time>
      </trkpt>
      <trkpt lat="43.46162" lon="-0.35622">
        <ele>141.3</ele>
        <time>2026-08-31T10:09:08Z</time>
      </trkpt>
      <trkpt lat="43.46162" lon="-0.35621">
        <ele>141.3</ele>
        <time>2026-08-31T10:09:08Z</time>
      </trkpt>
      <trkpt lat="43.46162" lon="-0.3562">
        <ele>140.3</ele>
        <time>2026-08-31T10:09:09Z</time>
      </trkpt>
      <trkpt lat="43.46162" lon="-0.35619">
        <ele>140.3</ele>
        <time>2026-08-31T10:09:09Z</time>
      </trkpt>
      <trkpt lat="43.46162" lon="-0.35618">
        <ele>140.3</ele>
        <time>2026-08-31T10:09:10Z</time>
      </trkpt>
      <trkpt lat="43.46161" lon="-0.35617">
        <ele>140.3</ele>
        <time>2026-08-31T10:09:11Z</time>
      </trkpt>
      <trkpt lat="43.46161" lon="-0.35616">
        <ele>139.3</ele>
        <time>2026-08-31T10:09:11Z</time>
      </trkpt>
      <trkpt lat="43.46161" lon="-0.35616">
        <ele>139.3</ele>
        <time>2026-08-31T10:09:12Z</time>
      </trkpt>
      <trkpt lat="43.46161" lon="-0.35615">
        <ele>139.3</ele>
        <time>2026-08-31T10:09:12Z</time>
      </trkpt>
      <trkpt lat="43.46161" lon="-0.35614">
        <ele>138.3</ele>
        <time>2026-08-31T10:09:13Z</time>
      </trkpt>
      <trkpt lat="43.46161" lon="-0.35613">
        <ele>138.3</ele>
        <time>2026-08-31T10:09:13Z</time>
      </trkpt>
      <trkpt lat="43.46161" lon="-0.35612">
        <ele>139.3</ele>
        <time>2026-08-31T10:09:14Z</time>
      </trkpt>
      <trkpt lat="43.4616" lon="-0.35611">
        <ele>139.3</ele>
        <time>2026-08-31T10:09:14Z</time>
      </trkpt>
      <trkpt lat="43.46161" lon="-0.35611">
        <ele>139.3</ele>
        <time>2026-08-31T10:09:15Z</time>
      </trkpt>
      <trkpt lat="43.4616" lon="-0.3561">
        <ele>139.3</ele>
        <time>2026-08-31T10:09:15Z</time>
      </trkpt>
      <trkpt lat="43.4616" lon="-0.35609">
        <ele>139.3</ele>
        <time>2026-08-31T10:09:16Z</time>
      </trkpt>
      <trkpt lat="43.4616" lon="-0.35608">
        <ele>139.3</ele>
        <time>2026-08-31T10:09:16Z</time>
      </trkpt>
      <trkpt lat="43.4616" lon="-0.35607">
        <ele>139.3</ele>
        <time>2026-08-31T10:09:17Z</time>
      </trkpt>
      <trkpt lat="43.4616" lon="-0.35606">
        <ele>139.3</ele>
        <time>2026-08-31T10:09:18Z</time>
      </trkpt>
      <trkpt lat="43.4616" lon="-0.35605">
        <ele>138.3</ele>
        <time>2026-08-31T10:09:18Z</time>
      </trkpt>
      <trkpt lat="43.4616" lon="-0.35604">
        <ele>138.3</ele>
        <time>2026-08-31T10:09:19Z</time>
      </trkpt>
      <trkpt lat="43.4616" lon="-0.35603">
        <ele>138.3</ele>
        <time>2026-08-31T10:09:19Z</time>
      </trkpt>
      <trkpt lat="43.4616" lon="-0.35602">
        <ele>138.3</ele>
        <time>2026-08-31T10:09:20Z</time>
      </trkpt>
      <trkpt lat="43.4616" lon="-0.35601">
        <ele>138.3</ele>
        <time>2026-08-31T10:09:20Z</time>
      </trkpt>
      <trkpt lat="43.4616" lon="-0.35601">
        <ele>138.3</ele>
        <time>2026-08-31T10:09:21Z</time>
      </trkpt>
      <trkpt lat="43.4616" lon="-0.356">
        <ele>138.3</ele>
        <time>2026-08-31T10:09:21Z</time>
      </trkpt>
      <trkpt lat="43.4616" lon="-0.35599">
        <ele>137.3</ele>
        <time>2026-08-31T10:09:22Z</time>
      </trkpt>
      <trkpt lat="43.4616" lon="-0.35598">
        <ele>137.3</ele>
        <time>2026-08-31T10:09:22Z</time>
      </trkpt>
      <trkpt lat="43.4616" lon="-0.35597">
        <ele>137.3</ele>
        <time>2026-08-31T10:09:23Z</time>
      </trkpt>
      <trkpt lat="43.46161" lon="-0.35596">
        <ele>137.3</ele>
        <time>2026-08-31T10:09:23Z</time>
      </trkpt>
      <trkpt lat="43.46161" lon="-0.35595">
        <ele>137.3</ele>
        <time>2026-08-31T10:09:24Z</time>
      </trkpt>
      <trkpt lat="43.46161" lon="-0.35594">
        <ele>137.3</ele>
        <time>2026-08-31T10:09:24Z</time>
      </trkpt>
      <trkpt lat="43.46161" lon="-0.35593">
        <ele>137.3</ele>
        <time>2026-08-31T10:09:25Z</time>
      </trkpt>
      <trkpt lat="43.46161" lon="-0.35592">
        <ele>136.3</ele>
        <time>2026-08-31T10:09:26Z</time>
      </trkpt>
      <trkpt lat="43.46161" lon="-0.35591">
        <ele>136.3</ele>
        <time>2026-08-31T10:09:27Z</time>
      </trkpt>
      <trkpt lat="43.46161" lon="-0.3559">
        <ele>136.3</ele>
        <time>2026-08-31T10:09:27Z</time>
      </trkpt>
      <trkpt lat="43.46161" lon="-0.35589">
        <ele>136.3</ele>
        <time>2026-08-31T10:09:28Z</time>
      </trkpt>
      <trkpt lat="43.46161" lon="-0.35588">
        <ele>136.3</ele>
        <time>2026-08-31T10:09:28Z</time>
      </trkpt>
      <trkpt lat="43.46161" lon="-0.35587">
        <ele>136.3</ele>
        <time>2026-08-31T10:09:29Z</time>
      </trkpt>
      <trkpt lat="43.46161" lon="-0.35586">
        <ele>136.3</ele>
        <time>2026-08-31T10:09:29Z</time>
      </trkpt>
      <trkpt lat="43.46161" lon="-0.35585">
        <ele>135.3</ele>
        <time>2026-08-31T10:09:30Z</time>
      </trkpt>
      <trkpt lat="43.46161" lon="-0.35584">
        <ele>135.3</ele>
        <time>2026-08-31T10:09:30Z</time>
      </trkpt>
      <trkpt lat="43.46161" lon="-0.35584">
        <ele>135.3</ele>
        <time>2026-08-31T10:09:31Z</time>
      </trkpt>
      <trkpt lat="43.46161" lon="-0.35583">
        <ele>135.3</ele>
        <time>2026-08-31T10:09:31Z</time>
      </trkpt>
      <trkpt lat="43.46161" lon="-0.35582">
        <ele>135.3</ele>
        <time>2026-08-31T10:09:32Z</time>
      </trkpt>
      <trkpt lat="43.46161" lon="-0.35581">
        <ele>135.3</ele>
        <time>2026-08-31T10:09:33Z</time>
      </trkpt>
      <trkpt lat="43.4616" lon="-0.3558">
        <ele>134.3</ele>
        <time>2026-08-31T10:09:33Z</time>
      </trkpt>
      <trkpt lat="43.4616" lon="-0.35579">
        <ele>134.3</ele>
        <time>2026-08-31T10:09:34Z</time>
      </trkpt>
      <trkpt lat="43.4616" lon="-0.35579">
        <ele>134.3</ele>
        <time>2026-08-31T10:09:34Z</time>
      </trkpt>
      <trkpt lat="43.4616" lon="-0.35578">
        <ele>134.3</ele>
        <time>2026-08-31T10:09:35Z</time>
      </trkpt>
      <trkpt lat="43.4616" lon="-0.35577">
        <ele>133.3</ele>
        <time>2026-08-31T10:09:35Z</time>
      </trkpt>
      <trkpt lat="43.4616" lon="-0.35576">
        <ele>133.3</ele>
        <time>2026-08-31T10:09:36Z</time>
      </trkpt>
      <trkpt lat="43.4616" lon="-0.35575">
        <ele>133.3</ele>
        <time>2026-08-31T10:09:36Z</time>
      </trkpt>
      <trkpt lat="43.4616" lon="-0.35574">
        <ele>133.3</ele>
        <time>2026-08-31T10:09:37Z</time>
      </trkpt>
      <trkpt lat="43.4616" lon="-0.35573">
        <ele>133.3</ele>
        <time>2026-08-31T10:09:37Z</time>
      </trkpt>
      <trkpt lat="43.4616" lon="-0.35572">
        <ele>133.3</ele>
        <time>2026-08-31T10:09:38Z</time>
      </trkpt>
      <trkpt lat="43.46159" lon="-0.35571">
        <ele>133.3</ele>
        <time>2026-08-31T10:09:38Z</time>
      </trkpt>
      <trkpt lat="43.46159" lon="-0.35571">
        <ele>132.3</ele>
        <time>2026-08-31T10:09:39Z</time>
      </trkpt>
      <trkpt lat="43.46159" lon="-0.3557">
        <ele>132.3</ele>
        <time>2026-08-31T10:09:39Z</time>
      </trkpt>
      <trkpt lat="43.46159" lon="-0.35569">
        <ele>132.3</ele>
        <time>2026-08-31T10:09:40Z</time>
      </trkpt>
      <trkpt lat="43.46159" lon="-0.35568">
        <ele>132.3</ele>
        <time>2026-08-31T10:09:41Z</time>
      </trkpt>
      <trkpt lat="43.46159" lon="-0.35567">
        <ele>131.3</ele>
        <time>2026-08-31T10:09:41Z</time>
      </trkpt>
      <trkpt lat="43.46159" lon="-0.35566">
        <ele>131.3</ele>
        <time>2026-08-31T10:09:42Z</time>
      </trkpt>
      <trkpt lat="43.46158" lon="-0.35565">
        <ele>131.3</ele>
        <time>2026-08-31T10:09:42Z</time>
      </trkpt>
      <trkpt lat="43.46158" lon="-0.35565">
        <ele>131.3</ele>
        <time>2026-08-31T10:09:43Z</time>
      </trkpt>
      <trkpt lat="43.46158" lon="-0.35564">
        <ele>131.3</ele>
        <time>2026-08-31T10:09:43Z</time>
      </trkpt>
      <trkpt lat="43.46158" lon="-0.35563">
        <ele>131.3</ele>
        <time>2026-08-31T10:09:44Z</time>
      </trkpt>
      <trkpt lat="43.46158" lon="-0.35562">
        <ele>131.3</ele>
        <time>2026-08-31T10:09:44Z</time>
      </trkpt>
      <trkpt lat="43.46158" lon="-0.35561">
        <ele>131.3</ele>
        <time>2026-08-31T10:09:45Z</time>
      </trkpt>
      <trkpt lat="43.46157" lon="-0.3556">
        <ele>131.3</ele>
        <time>2026-08-31T10:09:45Z</time>
      </trkpt>
      <trkpt lat="43.46157" lon="-0.35559">
        <ele>131.3</ele>
        <time>2026-08-31T10:09:46Z</time>
      </trkpt>
      <trkpt lat="43.46157" lon="-0.35558">
        <ele>131.3</ele>
        <time>2026-08-31T10:09:46Z</time>
      </trkpt>
      <trkpt lat="43.46157" lon="-0.35557">
        <ele>130.3</ele>
        <time>2026-08-31T10:09:47Z</time>
      </trkpt>
      <trkpt lat="43.46156" lon="-0.35556">
        <ele>130.3</ele>
        <time>2026-08-31T10:09:48Z</time>
      </trkpt>
      <trkpt lat="43.46156" lon="-0.35556">
        <ele>130.3</ele>
        <time>2026-08-31T10:09:48Z</time>
      </trkpt>
      <trkpt lat="43.46156" lon="-0.35555">
        <ele>130.3</ele>
        <time>2026-08-31T10:09:49Z</time>
      </trkpt>
      <trkpt lat="43.46156" lon="-0.35554">
        <ele>130.3</ele>
        <time>2026-08-31T10:09:49Z</time>
      </trkpt>
      <trkpt lat="43.46156" lon="-0.35553">
        <ele>129.3</ele>
        <time>2026-08-31T10:09:50Z</time>
      </trkpt>
      <trkpt lat="43.46156" lon="-0.35552">
        <ele>129.3</ele>
        <time>2026-08-31T10:09:50Z</time>
      </trkpt>
      <trkpt lat="43.46156" lon="-0.35551">
        <ele>129.3</ele>
        <time>2026-08-31T10:09:51Z</time>
      </trkpt>
      <trkpt lat="43.46155" lon="-0.35551">
        <ele>129.3</ele>
        <time>2026-08-31T10:09:51Z</time>
      </trkpt>
      <trkpt lat="43.46155" lon="-0.3555">
        <ele>129.3</ele>
        <time>2026-08-31T10:09:52Z</time>
      </trkpt>
      <trkpt lat="43.46155" lon="-0.35549">
        <ele>129.3</ele>
        <time>2026-08-31T10:09:52Z</time>
      </trkpt>
      <trkpt lat="43.46155" lon="-0.35548">
        <ele>129.3</ele>
        <time>2026-08-31T10:09:53Z</time>
      </trkpt>
      <trkpt lat="43.46155" lon="-0.35547">
        <ele>129.3</ele>
        <time>2026-08-31T10:09:53Z</time>
      </trkpt>
      <trkpt lat="43.46155" lon="-0.35547">
        <ele>130.3</ele>
        <time>2026-08-31T10:09:54Z</time>
      </trkpt>
      <trkpt lat="43.46155" lon="-0.35546">
        <ele>130.3</ele>
        <time>2026-08-31T10:09:55Z</time>
      </trkpt>
      <trkpt lat="43.46155" lon="-0.35545">
        <ele>130.3</ele>
        <time>2026-08-31T10:09:55Z</time>
      </trkpt>
      <trkpt lat="43.46155" lon="-0.35545">
        <ele>130.3</ele>
        <time>2026-08-31T10:09:56Z</time>
      </trkpt>
      <trkpt lat="43.46155" lon="-0.35544">
        <ele>130.3</ele>
        <time>2026-08-31T10:09:56Z</time>
      </trkpt>
      <trkpt lat="43.46155" lon="-0.35543">
        <ele>130.3</ele>
        <time>2026-08-31T10:09:57Z</time>
      </trkpt>
      <trkpt lat="43.46155" lon="-0.35542">
        <ele>130.3</ele>
        <time>2026-08-31T10:09:57Z</time>
      </trkpt>
      <trkpt lat="43.46155" lon="-0.35542">
        <ele>130.3</ele>
        <time>2026-08-31T10:09:58Z</time>
      </trkpt>
      <trkpt lat="43.46155" lon="-0.35541">
        <ele>130.3</ele>
        <time>2026-08-31T10:09:58Z</time>
      </trkpt>
      <trkpt lat="43.46155" lon="-0.3554">
        <ele>129.3</ele>
        <time>2026-08-31T10:09:59Z</time>
      </trkpt>
      <trkpt lat="43.46155" lon="-0.3554">
        <ele>129.3</ele>
        <time>2026-08-31T10:09:59Z</time>
      </trkpt>
      <trkpt lat="43.46155" lon="-0.35539">
        <ele>130.3</ele>
        <time>2026-08-31T10:10:00Z</time>
      </trkpt>
      <trkpt lat="43.46155" lon="-0.35538">
        <ele>130.3</ele>
        <time>2026-08-31T10:10:01Z</time>
      </trkpt>
      <trkpt lat="43.46155" lon="-0.35537">
        <ele>130.3</ele>
        <time>2026-08-31T10:10:01Z</time>
      </trkpt>
      <trkpt lat="43.46154" lon="-0.35536">
        <ele>130.3</ele>
        <time>2026-08-31T10:10:02Z</time>
      </trkpt>
      <trkpt lat="43.46155" lon="-0.35536">
        <ele>130.3</ele>
        <time>2026-08-31T10:10:02Z</time>
      </trkpt>
      <trkpt lat="43.46155" lon="-0.35535">
        <ele>129.3</ele>
        <time>2026-08-31T10:10:03Z</time>
      </trkpt>
      <trkpt lat="43.46155" lon="-0.35534">
        <ele>129.3</ele>
        <time>2026-08-31T10:10:03Z</time>
      </trkpt>
      <trkpt lat="43.46155" lon="-0.35533">
        <ele>129.3</ele>
        <time>2026-08-31T10:10:04Z</time>
      </trkpt>
      <trkpt lat="43.46155" lon="-0.35532">
        <ele>129.3</ele>
        <time>2026-08-31T10:10:04Z</time>
      </trkpt>
      <trkpt lat="43.46155" lon="-0.35531">
        <ele>128.3</ele>
        <time>2026-08-31T10:10:05Z</time>
      </trkpt>
      <trkpt lat="43.46155" lon="-0.3553">
        <ele>128.3</ele>
        <time>2026-08-31T10:10:05Z</time>
      </trkpt>
      <trkpt lat="43.46155" lon="-0.3553">
        <ele>128.3</ele>
        <time>2026-08-31T10:10:06Z</time>
      </trkpt>
      <trkpt lat="43.46155" lon="-0.35529">
        <ele>128.3</ele>
        <time>2026-08-31T10:10:07Z</time>
      </trkpt>
      <trkpt lat="43.46155" lon="-0.35528">
        <ele>128.3</ele>
        <time>2026-08-31T10:10:07Z</time>
      </trkpt>
      <trkpt lat="43.46155" lon="-0.35527">
        <ele>128.3</ele>
        <time>2026-08-31T10:10:08Z</time>
      </trkpt>
      <trkpt lat="43.46156" lon="-0.35526">
        <ele>128.3</ele>
        <time>2026-08-31T10:10:08Z</time>
      </trkpt>
      <trkpt lat="43.46156" lon="-0.35525">
        <ele>128.3</ele>
        <time>2026-08-31T10:10:09Z</time>
      </trkpt>
      <trkpt lat="43.46156" lon="-0.35524">
        <ele>128.3</ele>
        <time>2026-08-31T10:10:09Z</time>
      </trkpt>
      <trkpt lat="43.46156" lon="-0.35523">
        <ele>128.3</ele>
        <time>2026-08-31T10:10:10Z</time>
      </trkpt>
      <trkpt lat="43.46156" lon="-0.35522">
        <ele>128.3</ele>
        <time>2026-08-31T10:10:10Z</time>
      </trkpt>
      <trkpt lat="43.46156" lon="-0.35522">
        <ele>129.3</ele>
        <time>2026-08-31T10:10:11Z</time>
      </trkpt>
      <trkpt lat="43.46155" lon="-0.35521">
        <ele>129.3</ele>
        <time>2026-08-31T10:10:12Z</time>
      </trkpt>
      <trkpt lat="43.46155" lon="-0.3552">
        <ele>129.3</ele>
        <time>2026-08-31T10:10:12Z</time>
      </trkpt>
      <trkpt lat="43.46155" lon="-0.35519">
        <ele>129.3</ele>
        <time>2026-08-31T10:10:13Z</time>
      </trkpt>
      <trkpt lat="43.46155" lon="-0.35519">
        <ele>129.3</ele>
        <time>2026-08-31T10:10:13Z</time>
      </trkpt>
      <trkpt lat="43.46155" lon="-0.35518">
        <ele>129.3</ele>
        <time>2026-08-31T10:10:14Z</time>
      </trkpt>
      <trkpt lat="43.46155" lon="-0.35517">
        <ele>128.3</ele>
        <time>2026-08-31T10:10:14Z</time>
      </trkpt>
      <trkpt lat="43.46155" lon="-0.35517">
        <ele>128.3</ele>
        <time>2026-08-31T10:10:15Z</time>
      </trkpt>
      <trkpt lat="43.46155" lon="-0.35516">
        <ele>128.3</ele>
        <time>2026-08-31T10:10:15Z</time>
      </trkpt>
      <trkpt lat="43.46155" lon="-0.35515">
        <ele>128.3</ele>
        <time>2026-08-31T10:10:16Z</time>
      </trkpt>
      <trkpt lat="43.46155" lon="-0.35514">
        <ele>128.3</ele>
        <time>2026-08-31T10:10:16Z</time>
      </trkpt>
      <trkpt lat="43.46155" lon="-0.35513">
        <ele>128.3</ele>
        <time>2026-08-31T10:10:17Z</time>
      </trkpt>
      <trkpt lat="43.46155" lon="-0.35512">
        <ele>128.3</ele>
        <time>2026-08-31T10:10:17Z</time>
      </trkpt>
      <trkpt lat="43.46155" lon="-0.35511">
        <ele>128.3</ele>
        <time>2026-08-31T10:10:18Z</time>
      </trkpt>
      <trkpt lat="43.46155" lon="-0.3551">
        <ele>128.3</ele>
        <time>2026-08-31T10:10:19Z</time>
      </trkpt>
      <trkpt lat="43.46154" lon="-0.35509">
        <ele>128.3</ele>
        <time>2026-08-31T10:10:19Z</time>
      </trkpt>
      <trkpt lat="43.46154" lon="-0.35509">
        <ele>128.3</ele>
        <time>2026-08-31T10:10:20Z</time>
      </trkpt>
      <trkpt lat="43.46154" lon="-0.35508">
        <ele>128.3</ele>
        <time>2026-08-31T10:10:20Z</time>
      </trkpt>
      <trkpt lat="43.46154" lon="-0.35507">
        <ele>128.3</ele>
        <time>2026-08-31T10:10:21Z</time>
      </trkpt>
      <trkpt lat="43.46154" lon="-0.35506">
        <ele>128.3</ele>
        <time>2026-08-31T10:10:21Z</time>
      </trkpt>
      <trkpt lat="43.46154" lon="-0.35505">
        <ele>128.3</ele>
        <time>2026-08-31T10:10:22Z</time>
      </trkpt>
      <trkpt lat="43.46153" lon="-0.35504">
        <ele>128.3</ele>
        <time>2026-08-31T10:10:22Z</time>
      </trkpt>
      <trkpt lat="43.46153" lon="-0.35503">
        <ele>128.3</ele>
        <time>2026-08-31T10:10:23Z</time>
      </trkpt>
      <trkpt lat="43.46153" lon="-0.35502">
        <ele>128.3</ele>
        <time>2026-08-31T10:10:23Z</time>
      </trkpt>
      <trkpt lat="43.46153" lon="-0.35502">
        <ele>128.3</ele>
        <time>2026-08-31T10:10:24Z</time>
      </trkpt>
      <trkpt lat="43.46153" lon="-0.35501">
        <ele>128.3</ele>
        <time>2026-08-31T10:10:25Z</time>
      </trkpt>
      <trkpt lat="43.46153" lon="-0.355">
        <ele>127.3</ele>
        <time>2026-08-31T10:10:25Z</time>
      </trkpt>
      <trkpt lat="43.46153" lon="-0.35499">
        <ele>127.3</ele>
        <time>2026-08-31T10:10:26Z</time>
      </trkpt>
      <trkpt lat="43.46153" lon="-0.35498">
        <ele>127.3</ele>
        <time>2026-08-31T10:10:26Z</time>
      </trkpt>
      <trkpt lat="43.46152" lon="-0.35497">
        <ele>127.3</ele>
        <time>2026-08-31T10:10:27Z</time>
      </trkpt>
      <trkpt lat="43.46152" lon="-0.35496">
        <ele>127.3</ele>
        <time>2026-08-31T10:10:27Z</time>
      </trkpt>
      <trkpt lat="43.46152" lon="-0.35496">
        <ele>127.3</ele>
        <time>2026-08-31T10:10:28Z</time>
      </trkpt>
      <trkpt lat="43.46152" lon="-0.35495">
        <ele>127.3</ele>
        <time>2026-08-31T10:10:28Z</time>
      </trkpt>
      <trkpt lat="43.46152" lon="-0.35494">
        <ele>127.3</ele>
        <time>2026-08-31T10:10:29Z</time>
      </trkpt>
      <trkpt lat="43.46152" lon="-0.35493">
        <ele>127.3</ele>
        <time>2026-08-31T10:10:30Z</time>
      </trkpt>
      <trkpt lat="43.46151" lon="-0.35493">
        <ele>127.3</ele>
        <time>2026-08-31T10:10:30Z</time>
      </trkpt>
      <trkpt lat="43.46151" lon="-0.35492">
        <ele>127.3</ele>
        <time>2026-08-31T10:10:31Z</time>
      </trkpt>
      <trkpt lat="43.46151" lon="-0.35491">
        <ele>126.3</ele>
        <time>2026-08-31T10:10:31Z</time>
      </trkpt>
      <trkpt lat="43.46151" lon="-0.3549">
        <ele>126.3</ele>
        <time>2026-08-31T10:10:32Z</time>
      </trkpt>
      <trkpt lat="43.46151" lon="-0.35489">
        <ele>126.3</ele>
        <time>2026-08-31T10:10:32Z</time>
      </trkpt>
      <trkpt lat="43.4615" lon="-0.35489">
        <ele>125.3</ele>
        <time>2026-08-31T10:10:33Z</time>
      </trkpt>
      <trkpt lat="43.4615" lon="-0.35488">
        <ele>125.3</ele>
        <time>2026-08-31T10:10:33Z</time>
      </trkpt>
      <trkpt lat="43.4615" lon="-0.35487">
        <ele>125.3</ele>
        <time>2026-08-31T10:10:34Z</time>
      </trkpt>
      <trkpt lat="43.4615" lon="-0.35486">
        <ele>125.3</ele>
        <time>2026-08-31T10:10:34Z</time>
      </trkpt>
      <trkpt lat="43.46149" lon="-0.35486">
        <ele>125.3</ele>
        <time>2026-08-31T10:10:35Z</time>
      </trkpt>
      <trkpt lat="43.46149" lon="-0.35485">
        <ele>125.3</ele>
        <time>2026-08-31T10:10:36Z</time>
      </trkpt>
      <trkpt lat="43.46149" lon="-0.35485">
        <ele>125.3</ele>
        <time>2026-08-31T10:10:36Z</time>
      </trkpt>
      <trkpt lat="43.46148" lon="-0.35484">
        <ele>125.3</ele>
        <time>2026-08-31T10:10:37Z</time>
      </trkpt>
      <trkpt lat="43.46148" lon="-0.35483">
        <ele>125.3</ele>
        <time>2026-08-31T10:10:37Z</time>
      </trkpt>
      <trkpt lat="43.46148" lon="-0.35482">
        <ele>125.3</ele>
        <time>2026-08-31T10:10:38Z</time>
      </trkpt>
      <trkpt lat="43.46148" lon="-0.35482">
        <ele>125.3</ele>
        <time>2026-08-31T10:10:39Z</time>
      </trkpt>
      <trkpt lat="43.46147" lon="-0.35481">
        <ele>125.3</ele>
        <time>2026-08-31T10:10:39Z</time>
      </trkpt>
      <trkpt lat="43.46147" lon="-0.3548">
        <ele>125.3</ele>
        <time>2026-08-31T10:10:40Z</time>
      </trkpt>
      <trkpt lat="43.46147" lon="-0.35479">
        <ele>125.3</ele>
        <time>2026-08-31T10:10:40Z</time>
      </trkpt>
      <trkpt lat="43.46147" lon="-0.35478">
        <ele>125.3</ele>
        <time>2026-08-31T10:10:41Z</time>
      </trkpt>
      <trkpt lat="43.46146" lon="-0.35477">
        <ele>125.3</ele>
        <time>2026-08-31T10:10:41Z</time>
      </trkpt>
      <trkpt lat="43.46146" lon="-0.35476">
        <ele>125.3</ele>
        <time>2026-08-31T10:10:42Z</time>
      </trkpt>
      <trkpt lat="43.46146" lon="-0.35475">
        <ele>125.3</ele>
        <time>2026-08-31T10:10:43Z</time>
      </trkpt>
      <trkpt lat="43.46145" lon="-0.35475">
        <ele>126.3</ele>
        <time>2026-08-31T10:10:43Z</time>
      </trkpt>
      <trkpt lat="43.46145" lon="-0.35474">
        <ele>126.3</ele>
        <time>2026-08-31T10:10:44Z</time>
      </trkpt>
      <trkpt lat="43.46145" lon="-0.35473">
        <ele>126.3</ele>
        <time>2026-08-31T10:10:44Z</time>
      </trkpt>
      <trkpt lat="43.46145" lon="-0.35472">
        <ele>126.3</ele>
        <time>2026-08-31T10:10:45Z</time>
      </trkpt>
      <trkpt lat="43.46145" lon="-0.35471">
        <ele>126.3</ele>
        <time>2026-08-31T10:10:45Z</time>
      </trkpt>
      <trkpt lat="43.46144" lon="-0.3547">
        <ele>126.3</ele>
        <time>2026-08-31T10:10:46Z</time>
      </trkpt>
      <trkpt lat="43.46144" lon="-0.35469">
        <ele>126.3</ele>
        <time>2026-08-31T10:10:46Z</time>
      </trkpt>
      <trkpt lat="43.46144" lon="-0.35468">
        <ele>126.3</ele>
        <time>2026-08-31T10:10:47Z</time>
      </trkpt>
      <trkpt lat="43.46144" lon="-0.35467">
        <ele>126.3</ele>
        <time>2026-08-31T10:10:47Z</time>
      </trkpt>
      <trkpt lat="43.46143" lon="-0.35467">
        <ele>126.3</ele>
        <time>2026-08-31T10:10:48Z</time>
      </trkpt>
      <trkpt lat="43.46143" lon="-0.35466">
        <ele>126.3</ele>
        <time>2026-08-31T10:10:49Z</time>
      </trkpt>
      <trkpt lat="43.46143" lon="-0.35465">
        <ele>126.3</ele>
        <time>2026-08-31T10:10:49Z</time>
      </trkpt>
      <trkpt lat="43.46142" lon="-0.35464">
        <ele>126.3</ele>
        <time>2026-08-31T10:10:50Z</time>
      </trkpt>
      <trkpt lat="43.46142" lon="-0.35463">
        <ele>126.3</ele>
        <time>2026-08-31T10:10:50Z</time>
      </trkpt>
      <trkpt lat="43.46142" lon="-0.35462">
        <ele>125.3</ele>
        <time>2026-08-31T10:10:51Z</time>
      </trkpt>
      <trkpt lat="43.46142" lon="-0.35461">
        <ele>125.3</ele>
        <time>2026-08-31T10:10:51Z</time>
      </trkpt>
      <trkpt lat="43.46142" lon="-0.3546">
        <ele>125.3</ele>
        <time>2026-08-31T10:10:52Z</time>
      </trkpt>
      <trkpt lat="43.46142" lon="-0.35459">
        <ele>125.3</ele>
        <time>2026-08-31T10:10:52Z</time>
      </trkpt>
      <trkpt lat="43.46142" lon="-0.35458">
        <ele>125.3</ele>
        <time>2026-08-31T10:10:53Z</time>
      </trkpt>
      <trkpt lat="43.46141" lon="-0.35457">
        <ele>125.3</ele>
        <time>2026-08-31T10:10:53Z</time>
      </trkpt>
      <trkpt lat="43.46141" lon="-0.35455">
        <ele>125.3</ele>
        <time>2026-08-31T10:10:54Z</time>
      </trkpt>
      <trkpt lat="43.46141" lon="-0.35455">
        <ele>125.3</ele>
        <time>2026-08-31T10:10:55Z</time>
      </trkpt>
      <trkpt lat="43.46141" lon="-0.35453">
        <ele>126.3</ele>
        <time>2026-08-31T10:10:55Z</time>
      </trkpt>
      <trkpt lat="43.46141" lon="-0.35452">
        <ele>126.3</ele>
        <time>2026-08-31T10:10:56Z</time>
      </trkpt>
      <trkpt lat="43.46141" lon="-0.35451">
        <ele>126.3</ele>
        <time>2026-08-31T10:10:56Z</time>
      </trkpt>
      <trkpt lat="43.46141" lon="-0.3545">
        <ele>126.3</ele>
        <time>2026-08-31T10:10:57Z</time>
      </trkpt>
      <trkpt lat="43.4614" lon="-0.35449">
        <ele>125.3</ele>
        <time>2026-08-31T10:10:57Z</time>
      </trkpt>
      <trkpt lat="43.4614" lon="-0.35448">
        <ele>125.3</ele>
        <time>2026-08-31T10:10:58Z</time>
      </trkpt>
      <trkpt lat="43.4614" lon="-0.35447">
        <ele>125.3</ele>
        <time>2026-08-31T10:10:58Z</time>
      </trkpt>
      <trkpt lat="43.4614" lon="-0.35446">
        <ele>125.3</ele>
        <time>2026-08-31T10:10:59Z</time>
      </trkpt>
      <trkpt lat="43.4614" lon="-0.35445">
        <ele>125.3</ele>
        <time>2026-08-31T10:10:59Z</time>
      </trkpt>
      <trkpt lat="43.4614" lon="-0.35444">
        <ele>125.3</ele>
        <time>2026-08-31T10:11:00Z</time>
      </trkpt>
      <trkpt lat="43.4614" lon="-0.35443">
        <ele>125.3</ele>
        <time>2026-08-31T10:11:00Z</time>
      </trkpt>
      <trkpt lat="43.4614" lon="-0.35443">
        <ele>125.3</ele>
        <time>2026-08-31T10:11:01Z</time>
      </trkpt>
      <trkpt lat="43.4614" lon="-0.35442">
        <ele>125.3</ele>
        <time>2026-08-31T10:11:02Z</time>
      </trkpt>
      <trkpt lat="43.4614" lon="-0.35441">
        <ele>125.3</ele>
        <time>2026-08-31T10:11:02Z</time>
      </trkpt>
      <trkpt lat="43.46139" lon="-0.3544">
        <ele>125.3</ele>
        <time>2026-08-31T10:11:03Z</time>
      </trkpt>
      <trkpt lat="43.46139" lon="-0.35439">
        <ele>125.3</ele>
        <time>2026-08-31T10:11:03Z</time>
      </trkpt>
      <trkpt lat="43.46139" lon="-0.35438">
        <ele>126.3</ele>
        <time>2026-08-31T10:11:04Z</time>
      </trkpt>
      <trkpt lat="43.46139" lon="-0.35437">
        <ele>126.3</ele>
        <time>2026-08-31T10:11:04Z</time>
      </trkpt>
      <trkpt lat="43.46139" lon="-0.35436">
        <ele>126.3</ele>
        <time>2026-08-31T10:11:05Z</time>
      </trkpt>
      <trkpt lat="43.46138" lon="-0.35435">
        <ele>126.3</ele>
        <time>2026-08-31T10:11:05Z</time>
      </trkpt>
      <trkpt lat="43.46138" lon="-0.35434">
        <ele>126.3</ele>
        <time>2026-08-31T10:11:06Z</time>
      </trkpt>
      <trkpt lat="43.46138" lon="-0.35433">
        <ele>126.3</ele>
        <time>2026-08-31T10:11:06Z</time>
      </trkpt>
      <trkpt lat="43.46138" lon="-0.35432">
        <ele>125.3</ele>
        <time>2026-08-31T10:11:07Z</time>
      </trkpt>
      <trkpt lat="43.46138" lon="-0.35431">
        <ele>125.3</ele>
        <time>2026-08-31T10:11:08Z</time>
      </trkpt>
      <trkpt lat="43.46137" lon="-0.3543">
        <ele>125.3</ele>
        <time>2026-08-31T10:11:08Z</time>
      </trkpt>
      <trkpt lat="43.46137" lon="-0.35429">
        <ele>125.3</ele>
        <time>2026-08-31T10:11:09Z</time>
      </trkpt>
      <trkpt lat="43.46137" lon="-0.35428">
        <ele>125.3</ele>
        <time>2026-08-31T10:11:09Z</time>
      </trkpt>
      <trkpt lat="43.46137" lon="-0.35428">
        <ele>125.3</ele>
        <time>2026-08-31T10:11:10Z</time>
      </trkpt>
      <trkpt lat="43.46136" lon="-0.35427">
        <ele>125.3</ele>
        <time>2026-08-31T10:11:10Z</time>
      </trkpt>
      <trkpt lat="43.46136" lon="-0.35426">
        <ele>124.3</ele>
        <time>2026-08-31T10:11:11Z</time>
      </trkpt>
      <trkpt lat="43.46136" lon="-0.35425">
        <ele>124.3</ele>
        <time>2026-08-31T10:11:11Z</time>
      </trkpt>
      <trkpt lat="43.46136" lon="-0.35424">
        <ele>125.3</ele>
        <time>2026-08-31T10:11:12Z</time>
      </trkpt>
      <trkpt lat="43.46135" lon="-0.35423">
        <ele>125.3</ele>
        <time>2026-08-31T10:11:12Z</time>
      </trkpt>
      <trkpt lat="43.46135" lon="-0.35422">
        <ele>124.3</ele>
        <time>2026-08-31T10:11:13Z</time>
      </trkpt>
      <trkpt lat="43.46135" lon="-0.35421">
        <ele>124.3</ele>
        <time>2026-08-31T10:11:13Z</time>
      </trkpt>
      <trkpt lat="43.46135" lon="-0.3542">
        <ele>124.3</ele>
        <time>2026-08-31T10:11:14Z</time>
      </trkpt>
      <trkpt lat="43.46134" lon="-0.35419">
        <ele>124.3</ele>
        <time>2026-08-31T10:11:15Z</time>
      </trkpt>
      <trkpt lat="43.46134" lon="-0.35418">
        <ele>124.3</ele>
        <time>2026-08-31T10:11:15Z</time>
      </trkpt>
      <trkpt lat="43.46134" lon="-0.35417">
        <ele>124.3</ele>
        <time>2026-08-31T10:11:16Z</time>
      </trkpt>
      <trkpt lat="43.46134" lon="-0.35416">
        <ele>124.3</ele>
        <time>2026-08-31T10:11:16Z</time>
      </trkpt>
      <trkpt lat="43.46133" lon="-0.35415">
        <ele>124.3</ele>
        <time>2026-08-31T10:11:17Z</time>
      </trkpt>
      <trkpt lat="43.46133" lon="-0.35414">
        <ele>124.3</ele>
        <time>2026-08-31T10:11:17Z</time>
      </trkpt>
      <trkpt lat="43.46133" lon="-0.35413">
        <ele>124.3</ele>
        <time>2026-08-31T10:11:18Z</time>
      </trkpt>
      <trkpt lat="43.46133" lon="-0.35412">
        <ele>124.3</ele>
        <time>2026-08-31T10:11:18Z</time>
      </trkpt>
      <trkpt lat="43.46132" lon="-0.35411">
        <ele>124.3</ele>
        <time>2026-08-31T10:11:19Z</time>
      </trkpt>
      <trkpt lat="43.46132" lon="-0.3541">
        <ele>124.3</ele>
        <time>2026-08-31T10:11:19Z</time>
      </trkpt>
      <trkpt lat="43.46132" lon="-0.3541">
        <ele>125.3</ele>
        <time>2026-08-31T10:11:20Z</time>
      </trkpt>
      <trkpt lat="43.46131" lon="-0.35409">
        <ele>125.3</ele>
        <time>2026-08-31T10:11:21Z</time>
      </trkpt>
      <trkpt lat="43.46131" lon="-0.35408">
        <ele>125.3</ele>
        <time>2026-08-31T10:11:21Z</time>
      </trkpt>
      <trkpt lat="43.46131" lon="-0.35407">
        <ele>125.3</ele>
        <time>2026-08-31T10:11:22Z</time>
      </trkpt>
      <trkpt lat="43.4613" lon="-0.35406">
        <ele>125.3</ele>
        <time>2026-08-31T10:11:22Z</time>
      </trkpt>
      <trkpt lat="43.4613" lon="-0.35405">
        <ele>125.3</ele>
        <time>2026-08-31T10:11:23Z</time>
      </trkpt>
      <trkpt lat="43.46129" lon="-0.35404">
        <ele>125.3</ele>
        <time>2026-08-31T10:11:23Z</time>
      </trkpt>
      <trkpt lat="43.46129" lon="-0.35404">
        <ele>125.3</ele>
        <time>2026-08-31T10:11:24Z</time>
      </trkpt>
      <trkpt lat="43.46129" lon="-0.35403">
        <ele>125.3</ele>
        <time>2026-08-31T10:11:24Z</time>
      </trkpt>
      <trkpt lat="43.46129" lon="-0.35402">
        <ele>125.3</ele>
        <time>2026-08-31T10:11:25Z</time>
      </trkpt>
      <trkpt lat="43.46128" lon="-0.35401">
        <ele>125.3</ele>
        <time>2026-08-31T10:11:25Z</time>
      </trkpt>
      <trkpt lat="43.46128" lon="-0.35401">
        <ele>126.3</ele>
        <time>2026-08-31T10:11:26Z</time>
      </trkpt>
      <trkpt lat="43.46128" lon="-0.354">
        <ele>126.3</ele>
        <time>2026-08-31T10:11:27Z</time>
      </trkpt>
      <trkpt lat="43.46127" lon="-0.35399">
        <ele>126.3</ele>
        <time>2026-08-31T10:11:27Z</time>
      </trkpt>
      <trkpt lat="43.46127" lon="-0.35398">
        <ele>126.3</ele>
        <time>2026-08-31T10:11:28Z</time>
      </trkpt>
      <trkpt lat="43.46127" lon="-0.35397">
        <ele>126.3</ele>
        <time>2026-08-31T10:11:28Z</time>
      </trkpt>
      <trkpt lat="43.46127" lon="-0.35396">
        <ele>126.3</ele>
        <time>2026-08-31T10:11:29Z</time>
      </trkpt>
      <trkpt lat="43.46126" lon="-0.35395">
        <ele>126.3</ele>
        <time>2026-08-31T10:11:29Z</time>
      </trkpt>
      <trkpt lat="43.46126" lon="-0.35394">
        <ele>126.3</ele>
        <time>2026-08-31T10:11:30Z</time>
      </trkpt>
      <trkpt lat="43.46126" lon="-0.35394">
        <ele>126.3</ele>
        <time>2026-08-31T10:11:30Z</time>
      </trkpt>
      <trkpt lat="43.46125" lon="-0.35393">
        <ele>126.3</ele>
        <time>2026-08-31T10:11:31Z</time>
      </trkpt>
      <trkpt lat="43.46125" lon="-0.35392">
        <ele>126.3</ele>
        <time>2026-08-31T10:11:31Z</time>
      </trkpt>
      <trkpt lat="43.46125" lon="-0.35391">
        <ele>126.3</ele>
        <time>2026-08-31T10:11:32Z</time>
      </trkpt>
      <trkpt lat="43.46124" lon="-0.3539">
        <ele>126.3</ele>
        <time>2026-08-31T10:11:32Z</time>
      </trkpt>
      <trkpt lat="43.46124" lon="-0.35389">
        <ele>126.3</ele>
        <time>2026-08-31T10:11:33Z</time>
      </trkpt>
      <trkpt lat="43.46124" lon="-0.35388">
        <ele>126.3</ele>
        <time>2026-08-31T10:11:34Z</time>
      </trkpt>
      <trkpt lat="43.46123" lon="-0.35387">
        <ele>126.3</ele>
        <time>2026-08-31T10:11:34Z</time>
      </trkpt>
      <trkpt lat="43.46123" lon="-0.35386">
        <ele>126.3</ele>
        <time>2026-08-31T10:11:35Z</time>
      </trkpt>
      <trkpt lat="43.46122" lon="-0.35386">
        <ele>126.3</ele>
        <time>2026-08-31T10:11:35Z</time>
      </trkpt>
      <trkpt lat="43.46122" lon="-0.35385">
        <ele>126.3</ele>
        <time>2026-08-31T10:11:36Z</time>
      </trkpt>
      <trkpt lat="43.46121" lon="-0.35384">
        <ele>126.3</ele>
        <time>2026-08-31T10:11:36Z</time>
      </trkpt>
      <trkpt lat="43.46121" lon="-0.35383">
        <ele>125.3</ele>
        <time>2026-08-31T10:11:37Z</time>
      </trkpt>
      <trkpt lat="43.4612" lon="-0.35382">
        <ele>125.3</ele>
        <time>2026-08-31T10:11:37Z</time>
      </trkpt>
      <trkpt lat="43.4612" lon="-0.35381">
        <ele>125.3</ele>
        <time>2026-08-31T10:11:38Z</time>
      </trkpt>
      <trkpt lat="43.46119" lon="-0.3538">
        <ele>125.3</ele>
        <time>2026-08-31T10:11:38Z</time>
      </trkpt>
      <trkpt lat="43.46119" lon="-0.3538">
        <ele>125.3</ele>
        <time>2026-08-31T10:11:39Z</time>
      </trkpt>
      <trkpt lat="43.46119" lon="-0.35379">
        <ele>125.3</ele>
        <time>2026-08-31T10:11:39Z</time>
      </trkpt>
      <trkpt lat="43.46118" lon="-0.35378">
        <ele>126.3</ele>
        <time>2026-08-31T10:11:40Z</time>
      </trkpt>
      <trkpt lat="43.46118" lon="-0.35377">
        <ele>126.3</ele>
        <time>2026-08-31T10:11:41Z</time>
      </trkpt>
      <trkpt lat="43.46118" lon="-0.35376">
        <ele>125.3</ele>
        <time>2026-08-31T10:11:41Z</time>
      </trkpt>
      <trkpt lat="43.46117" lon="-0.35375">
        <ele>125.3</ele>
        <time>2026-08-31T10:11:42Z</time>
      </trkpt>
      <trkpt lat="43.46117" lon="-0.35374">
        <ele>125.3</ele>
        <time>2026-08-31T10:11:42Z</time>
      </trkpt>
      <trkpt lat="43.46117" lon="-0.35373">
        <ele>125.3</ele>
        <time>2026-08-31T10:11:43Z</time>
      </trkpt>
      <trkpt lat="43.46116" lon="-0.35373">
        <ele>126.3</ele>
        <time>2026-08-31T10:11:43Z</time>
      </trkpt>
      <trkpt lat="43.46116" lon="-0.35372">
        <ele>126.3</ele>
        <time>2026-08-31T10:11:44Z</time>
      </trkpt>
      <trkpt lat="43.46116" lon="-0.35371">
        <ele>126.3</ele>
        <time>2026-08-31T10:11:44Z</time>
      </trkpt>
      <trkpt lat="43.46115" lon="-0.3537">
        <ele>125.3</ele>
        <time>2026-08-31T10:11:45Z</time>
      </trkpt>
      <trkpt lat="43.46115" lon="-0.35369">
        <ele>125.3</ele>
        <time>2026-08-31T10:11:45Z</time>
      </trkpt>
      <trkpt lat="43.46115" lon="-0.35368">
        <ele>126.3</ele>
        <time>2026-08-31T10:11:46Z</time>
      </trkpt>
      <trkpt lat="43.46114" lon="-0.35367">
        <ele>126.3</ele>
        <time>2026-08-31T10:11:46Z</time>
      </trkpt>
      <trkpt lat="43.46114" lon="-0.35366">
        <ele>126.3</ele>
        <time>2026-08-31T10:11:47Z</time>
      </trkpt>
      <trkpt lat="43.46113" lon="-0.35366">
        <ele>126.3</ele>
        <time>2026-08-31T10:11:48Z</time>
      </trkpt>
      <trkpt lat="43.46113" lon="-0.35365">
        <ele>126.3</ele>
        <time>2026-08-31T10:11:48Z</time>
      </trkpt>
      <trkpt lat="43.46113" lon="-0.35364">
        <ele>126.3</ele>
        <time>2026-08-31T10:11:49Z</time>
      </trkpt>
      <trkpt lat="43.46112" lon="-0.35363">
        <ele>126.3</ele>
        <time>2026-08-31T10:11:49Z</time>
      </trkpt>
      <trkpt lat="43.46112" lon="-0.35362">
        <ele>126.3</ele>
        <time>2026-08-31T10:11:50Z</time>
      </trkpt>
      <trkpt lat="43.46112" lon="-0.35361">
        <ele>126.3</ele>
        <time>2026-08-31T10:11:50Z</time>
      </trkpt>
      <trkpt lat="43.46112" lon="-0.3536">
        <ele>126.3</ele>
        <time>2026-08-31T10:11:51Z</time>
      </trkpt>
      <trkpt lat="43.46111" lon="-0.35359">
        <ele>126.3</ele>
        <time>2026-08-31T10:11:51Z</time>
      </trkpt>
      <trkpt lat="43.46111" lon="-0.35358">
        <ele>126.3</ele>
        <time>2026-08-31T10:11:52Z</time>
      </trkpt>
      <trkpt lat="43.4611" lon="-0.35357">
        <ele>126.3</ele>
        <time>2026-08-31T10:11:52Z</time>
      </trkpt>
      <trkpt lat="43.4611" lon="-0.35356">
        <ele>126.3</ele>
        <time>2026-08-31T10:11:53Z</time>
      </trkpt>
      <trkpt lat="43.4611" lon="-0.35356">
        <ele>126.3</ele>
        <time>2026-08-31T10:11:54Z</time>
      </trkpt>
      <trkpt lat="43.46109" lon="-0.35355">
        <ele>127.3</ele>
        <time>2026-08-31T10:11:54Z</time>
      </trkpt>
      <trkpt lat="43.46109" lon="-0.35354">
        <ele>127.3</ele>
        <time>2026-08-31T10:11:55Z</time>
      </trkpt>
      <trkpt lat="43.46108" lon="-0.35353">
        <ele>128.3</ele>
        <time>2026-08-31T10:11:55Z</time>
      </trkpt>
      <trkpt lat="43.46108" lon="-0.35352">
        <ele>128.3</ele>
        <time>2026-08-31T10:11:56Z</time>
      </trkpt>
      <trkpt lat="43.46107" lon="-0.35352">
        <ele>128.3</ele>
        <time>2026-08-31T10:11:56Z</time>
      </trkpt>
      <trkpt lat="43.46106" lon="-0.35351">
        <ele>128.3</ele>
        <time>2026-08-31T10:11:57Z</time>
      </trkpt>
      <trkpt lat="43.46106" lon="-0.3535">
        <ele>128.3</ele>
        <time>2026-08-31T10:11:57Z</time>
      </trkpt>
      <trkpt lat="43.46105" lon="-0.35349">
        <ele>128.3</ele>
        <time>2026-08-31T10:11:58Z</time>
      </trkpt>
      <trkpt lat="43.46105" lon="-0.35349">
        <ele>128.3</ele>
        <time>2026-08-31T10:11:58Z</time>
      </trkpt>
      <trkpt lat="43.46104" lon="-0.35348">
        <ele>128.3</ele>
        <time>2026-08-31T10:11:59Z</time>
      </trkpt>
      <trkpt lat="43.46103" lon="-0.35347">
        <ele>128.3</ele>
        <time>2026-08-31T10:12:00Z</time>
      </trkpt>
      <trkpt lat="43.46103" lon="-0.35347">
        <ele>128.3</ele>
        <time>2026-08-31T10:12:00Z</time>
      </trkpt>
      <trkpt lat="43.46102" lon="-0.35346">
        <ele>128.3</ele>
        <time>2026-08-31T10:12:01Z</time>
      </trkpt>
      <trkpt lat="43.46101" lon="-0.35346">
        <ele>129.3</ele>
        <time>2026-08-31T10:12:01Z</time>
      </trkpt>
      <trkpt lat="43.46101" lon="-0.35345">
        <ele>130.3</ele>
        <time>2026-08-31T10:12:02Z</time>
      </trkpt>
      <trkpt lat="43.461" lon="-0.35345">
        <ele>130.3</ele>
        <time>2026-08-31T10:12:02Z</time>
      </trkpt>
      <trkpt lat="43.46099" lon="-0.35344">
        <ele>131.3</ele>
        <time>2026-08-31T10:12:03Z</time>
      </trkpt>
      <trkpt lat="43.46099" lon="-0.35344">
        <ele>131.3</ele>
        <time>2026-08-31T10:12:03Z</time>
      </trkpt>
      <trkpt lat="43.46098" lon="-0.35343">
        <ele>131.3</ele>
        <time>2026-08-31T10:12:04Z</time>
      </trkpt>
      <trkpt lat="43.46097" lon="-0.35343">
        <ele>131.3</ele>
        <time>2026-08-31T10:12:04Z</time>
      </trkpt>
      <trkpt lat="43.46096" lon="-0.35342">
        <ele>132.3</ele>
        <time>2026-08-31T10:12:05Z</time>
      </trkpt>
      <trkpt lat="43.46096" lon="-0.35342">
        <ele>132.3</ele>
        <time>2026-08-31T10:12:06Z</time>
      </trkpt>
      <trkpt lat="43.46095" lon="-0.35342">
        <ele>132.3</ele>
        <time>2026-08-31T10:12:06Z</time>
      </trkpt>
      <trkpt lat="43.46094" lon="-0.35341">
        <ele>132.3</ele>
        <time>2026-08-31T10:12:07Z</time>
      </trkpt>
      <trkpt lat="43.46094" lon="-0.35341">
        <ele>132.3</ele>
        <time>2026-08-31T10:12:07Z</time>
      </trkpt>
      <trkpt lat="43.46093" lon="-0.35341">
        <ele>132.3</ele>
        <time>2026-08-31T10:12:08Z</time>
      </trkpt>
      <trkpt lat="43.46092" lon="-0.3534">
        <ele>132.3</ele>
        <time>2026-08-31T10:12:08Z</time>
      </trkpt>
      <trkpt lat="43.46092" lon="-0.3534">
        <ele>132.3</ele>
        <time>2026-08-31T10:12:09Z</time>
      </trkpt>
      <trkpt lat="43.46091" lon="-0.35339">
        <ele>132.3</ele>
        <time>2026-08-31T10:12:09Z</time>
      </trkpt>
      <trkpt lat="43.4609" lon="-0.35339">
        <ele>132.3</ele>
        <time>2026-08-31T10:12:10Z</time>
      </trkpt>
      <trkpt lat="43.4609" lon="-0.35339">
        <ele>132.3</ele>
        <time>2026-08-31T10:12:11Z</time>
      </trkpt>
      <trkpt lat="43.46089" lon="-0.35338">
        <ele>132.3</ele>
        <time>2026-08-31T10:12:11Z</time>
      </trkpt>
      <trkpt lat="43.46088" lon="-0.35338">
        <ele>132.3</ele>
        <time>2026-08-31T10:12:12Z</time>
      </trkpt>
      <trkpt lat="43.46088" lon="-0.35337">
        <ele>133.3</ele>
        <time>2026-08-31T10:12:12Z</time>
      </trkpt>
      <trkpt lat="43.46087" lon="-0.35337">
        <ele>133.3</ele>
        <time>2026-08-31T10:12:13Z</time>
      </trkpt>
      <trkpt lat="43.46086" lon="-0.35337">
        <ele>133.3</ele>
        <time>2026-08-31T10:12:13Z</time>
      </trkpt>
      <trkpt lat="43.46086" lon="-0.35336">
        <ele>133.3</ele>
        <time>2026-08-31T10:12:14Z</time>
      </trkpt>
      <trkpt lat="43.46085" lon="-0.35335">
        <ele>133.3</ele>
        <time>2026-08-31T10:12:14Z</time>
      </trkpt>
      <trkpt lat="43.46085" lon="-0.35334">
        <ele>133.3</ele>
        <time>2026-08-31T10:12:15Z</time>
      </trkpt>
      <trkpt lat="43.46084" lon="-0.35334">
        <ele>133.3</ele>
        <time>2026-08-31T10:12:15Z</time>
      </trkpt>
      <trkpt lat="43.46083" lon="-0.35333">
        <ele>133.3</ele>
        <time>2026-08-31T10:12:16Z</time>
      </trkpt>
      <trkpt lat="43.46083" lon="-0.35333">
        <ele>133.3</ele>
        <time>2026-08-31T10:12:17Z</time>
      </trkpt>
      <trkpt lat="43.46082" lon="-0.35332">
        <ele>134.3</ele>
        <time>2026-08-31T10:12:17Z</time>
      </trkpt>
      <trkpt lat="43.46082" lon="-0.35331">
        <ele>135.3</ele>
        <time>2026-08-31T10:12:18Z</time>
      </trkpt>
      <trkpt lat="43.46081" lon="-0.35331">
        <ele>135.3</ele>
        <time>2026-08-31T10:12:18Z</time>
      </trkpt>
      <trkpt lat="43.46081" lon="-0.3533">
        <ele>135.3</ele>
        <time>2026-08-31T10:12:19Z</time>
      </trkpt>
      <trkpt lat="43.4608" lon="-0.35329">
        <ele>135.3</ele>
        <time>2026-08-31T10:12:20Z</time>
      </trkpt>
      <trkpt lat="43.46079" lon="-0.35328">
        <ele>135.3</ele>
        <time>2026-08-31T10:12:21Z</time>
      </trkpt>
      <trkpt lat="43.46079" lon="-0.35328">
        <ele>135.3</ele>
        <time>2026-08-31T10:12:21Z</time>
      </trkpt>
      <trkpt lat="43.46078" lon="-0.35327">
        <ele>135.3</ele>
        <time>2026-08-31T10:12:22Z</time>
      </trkpt>
      <trkpt lat="43.46078" lon="-0.35327">
        <ele>135.3</ele>
        <time>2026-08-31T10:12:22Z</time>
      </trkpt>
      <trkpt lat="43.46077" lon="-0.35326">
        <ele>135.3</ele>
        <time>2026-08-31T10:12:23Z</time>
      </trkpt>
      <trkpt lat="43.46077" lon="-0.35326">
        <ele>135.3</ele>
        <time>2026-08-31T10:12:23Z</time>
      </trkpt>
      <trkpt lat="43.46076" lon="-0.35325">
        <ele>136.3</ele>
        <time>2026-08-31T10:12:24Z</time>
      </trkpt>
      <trkpt lat="43.46076" lon="-0.35324">
        <ele>136.3</ele>
        <time>2026-08-31T10:12:24Z</time>
      </trkpt>
      <trkpt lat="43.46075" lon="-0.35324">
        <ele>136.3</ele>
        <time>2026-08-31T10:12:25Z</time>
      </trkpt>
      <trkpt lat="43.46075" lon="-0.35323">
        <ele>136.3</ele>
        <time>2026-08-31T10:12:26Z</time>
      </trkpt>
      <trkpt lat="43.46074" lon="-0.35323">
        <ele>136.3</ele>
        <time>2026-08-31T10:12:26Z</time>
      </trkpt>
      <trkpt lat="43.46074" lon="-0.35322">
        <ele>136.3</ele>
        <time>2026-08-31T10:12:27Z</time>
      </trkpt>
      <trkpt lat="43.46073" lon="-0.35321">
        <ele>136.3</ele>
        <time>2026-08-31T10:12:27Z</time>
      </trkpt>
      <trkpt lat="43.46073" lon="-0.35321">
        <ele>136.3</ele>
        <time>2026-08-31T10:12:28Z</time>
      </trkpt>
      <trkpt lat="43.46072" lon="-0.3532">
        <ele>136.3</ele>
        <time>2026-08-31T10:12:28Z</time>
      </trkpt>
      <trkpt lat="43.46071" lon="-0.3532">
        <ele>136.3</ele>
        <time>2026-08-31T10:12:29Z</time>
      </trkpt>
      <trkpt lat="43.46071" lon="-0.35319">
        <ele>136.3</ele>
        <time>2026-08-31T10:12:29Z</time>
      </trkpt>
      <trkpt lat="43.4607" lon="-0.35319">
        <ele>137.3</ele>
        <time>2026-08-31T10:12:30Z</time>
      </trkpt>
      <trkpt lat="43.4607" lon="-0.35318">
        <ele>137.3</ele>
        <time>2026-08-31T10:12:31Z</time>
      </trkpt>
      <trkpt lat="43.46069" lon="-0.35318">
        <ele>137.3</ele>
        <time>2026-08-31T10:12:31Z</time>
      </trkpt>
      <trkpt lat="43.46069" lon="-0.35317">
        <ele>137.3</ele>
        <time>2026-08-31T10:12:32Z</time>
      </trkpt>
      <trkpt lat="43.46068" lon="-0.35317">
        <ele>136.3</ele>
        <time>2026-08-31T10:12:32Z</time>
      </trkpt>
      <trkpt lat="43.46068" lon="-0.35317">
        <ele>136.3</ele>
        <time>2026-08-31T10:12:33Z</time>
      </trkpt>
      <trkpt lat="43.46067" lon="-0.35317">
        <ele>136.3</ele>
        <time>2026-08-31T10:12:33Z</time>
      </trkpt>
      <trkpt lat="43.46066" lon="-0.35316">
        <ele>136.3</ele>
        <time>2026-08-31T10:12:34Z</time>
      </trkpt>
      <trkpt lat="43.46066" lon="-0.35315">
        <ele>136.3</ele>
        <time>2026-08-31T10:12:34Z</time>
      </trkpt>
      <trkpt lat="43.46065" lon="-0.35315">
        <ele>136.3</ele>
        <time>2026-08-31T10:12:35Z</time>
      </trkpt>
      <trkpt lat="43.46065" lon="-0.35314">
        <ele>136.3</ele>
        <time>2026-08-31T10:12:36Z</time>
      </trkpt>
      <trkpt lat="43.46064" lon="-0.35314">
        <ele>136.3</ele>
        <time>2026-08-31T10:12:36Z</time>
      </trkpt>
      <trkpt lat="43.46064" lon="-0.35314">
        <ele>136.3</ele>
        <time>2026-08-31T10:12:37Z</time>
      </trkpt>
      <trkpt lat="43.46063" lon="-0.35314">
        <ele>136.3</ele>
        <time>2026-08-31T10:12:37Z</time>
      </trkpt>
      <trkpt lat="43.46063" lon="-0.35314">
        <ele>136.3</ele>
        <time>2026-08-31T10:12:38Z</time>
      </trkpt>
      <trkpt lat="43.46062" lon="-0.35313">
        <ele>136.3</ele>
        <time>2026-08-31T10:12:38Z</time>
      </trkpt>
      <trkpt lat="43.46062" lon="-0.35313">
        <ele>136.3</ele>
        <time>2026-08-31T10:12:39Z</time>
      </trkpt>
      <trkpt lat="43.46061" lon="-0.35312">
        <ele>136.3</ele>
        <time>2026-08-31T10:12:39Z</time>
      </trkpt>
      <trkpt lat="43.46061" lon="-0.35312">
        <ele>136.3</ele>
        <time>2026-08-31T10:12:40Z</time>
      </trkpt>
      <trkpt lat="43.4606" lon="-0.35311">
        <ele>136.3</ele>
        <time>2026-08-31T10:12:41Z</time>
      </trkpt>
      <trkpt lat="43.46059" lon="-0.35311">
        <ele>136.3</ele>
        <time>2026-08-31T10:12:41Z</time>
      </trkpt>
      <trkpt lat="43.46059" lon="-0.35311">
        <ele>136.3</ele>
        <time>2026-08-31T10:12:42Z</time>
      </trkpt>
      <trkpt lat="43.46058" lon="-0.35311">
        <ele>136.3</ele>
        <time>2026-08-31T10:12:42Z</time>
      </trkpt>
      <trkpt lat="43.46058" lon="-0.3531">
        <ele>136.3</ele>
        <time>2026-08-31T10:12:43Z</time>
      </trkpt>
      <trkpt lat="43.46058" lon="-0.3531">
        <ele>136.3</ele>
        <time>2026-08-31T10:12:43Z</time>
      </trkpt>
      <trkpt lat="43.46057" lon="-0.35309">
        <ele>137.3</ele>
        <time>2026-08-31T10:12:44Z</time>
      </trkpt>
      <trkpt lat="43.46057" lon="-0.35309">
        <ele>137.3</ele>
        <time>2026-08-31T10:12:45Z</time>
      </trkpt>
      <trkpt lat="43.46056" lon="-0.35308">
        <ele>137.3</ele>
        <time>2026-08-31T10:12:45Z</time>
      </trkpt>
      <trkpt lat="43.46056" lon="-0.35307">
        <ele>137.3</ele>
        <time>2026-08-31T10:12:46Z</time>
      </trkpt>
      <trkpt lat="43.46055" lon="-0.35307">
        <ele>137.3</ele>
        <time>2026-08-31T10:12:46Z</time>
      </trkpt>
      <trkpt lat="43.46054" lon="-0.35306">
        <ele>137.3</ele>
        <time>2026-08-31T10:12:47Z</time>
      </trkpt>
      <trkpt lat="43.46054" lon="-0.35306">
        <ele>136.3</ele>
        <time>2026-08-31T10:12:47Z</time>
      </trkpt>
      <trkpt lat="43.46053" lon="-0.35306">
        <ele>136.3</ele>
        <time>2026-08-31T10:12:48Z</time>
      </trkpt>
      <trkpt lat="43.46052" lon="-0.35305">
        <ele>136.3</ele>
        <time>2026-08-31T10:12:48Z</time>
      </trkpt>
      <trkpt lat="43.46052" lon="-0.35305">
        <ele>136.3</ele>
        <time>2026-08-31T10:12:49Z</time>
      </trkpt>
      <trkpt lat="43.46051" lon="-0.35304">
        <ele>136.3</ele>
        <time>2026-08-31T10:12:49Z</time>
      </trkpt>
      <trkpt lat="43.4605" lon="-0.35304">
        <ele>136.3</ele>
        <time>2026-08-31T10:12:50Z</time>
      </trkpt>
      <trkpt lat="43.4605" lon="-0.35303">
        <ele>136.3</ele>
        <time>2026-08-31T10:12:51Z</time>
      </trkpt>
      <trkpt lat="43.46049" lon="-0.35303">
        <ele>136.3</ele>
        <time>2026-08-31T10:12:51Z</time>
      </trkpt>
      <trkpt lat="43.46049" lon="-0.35302">
        <ele>136.3</ele>
        <time>2026-08-31T10:12:52Z</time>
      </trkpt>
      <trkpt lat="43.46048" lon="-0.35301">
        <ele>136.3</ele>
        <time>2026-08-31T10:12:52Z</time>
      </trkpt>
      <trkpt lat="43.46047" lon="-0.35301">
        <ele>136.3</ele>
        <time>2026-08-31T10:12:53Z</time>
      </trkpt>
      <trkpt lat="43.46047" lon="-0.353">
        <ele>136.3</ele>
        <time>2026-08-31T10:12:53Z</time>
      </trkpt>
      <trkpt lat="43.46046" lon="-0.353">
        <ele>136.3</ele>
        <time>2026-08-31T10:12:54Z</time>
      </trkpt>
      <trkpt lat="43.46046" lon="-0.35299">
        <ele>136.3</ele>
        <time>2026-08-31T10:12:54Z</time>
      </trkpt>
      <trkpt lat="43.46045" lon="-0.35298">
        <ele>137.3</ele>
        <time>2026-08-31T10:12:55Z</time>
      </trkpt>
      <trkpt lat="43.46044" lon="-0.35298">
        <ele>137.3</ele>
        <time>2026-08-31T10:12:56Z</time>
      </trkpt>
      <trkpt lat="43.46044" lon="-0.35297">
        <ele>137.3</ele>
        <time>2026-08-31T10:12:56Z</time>
      </trkpt>
      <trkpt lat="43.46043" lon="-0.35296">
        <ele>137.3</ele>
        <time>2026-08-31T10:12:57Z</time>
      </trkpt>
      <trkpt lat="43.46043" lon="-0.35295">
        <ele>137.3</ele>
        <time>2026-08-31T10:12:57Z</time>
      </trkpt>
      <trkpt lat="43.46042" lon="-0.35295">
        <ele>137.3</ele>
        <time>2026-08-31T10:12:58Z</time>
      </trkpt>
      <trkpt lat="43.46041" lon="-0.35294">
        <ele>137.3</ele>
        <time>2026-08-31T10:12:58Z</time>
      </trkpt>
      <trkpt lat="43.46041" lon="-0.35293">
        <ele>136.3</ele>
        <time>2026-08-31T10:12:59Z</time>
      </trkpt>
      <trkpt lat="43.4604" lon="-0.35293">
        <ele>136.3</ele>
        <time>2026-08-31T10:13:00Z</time>
      </trkpt>
      <trkpt lat="43.4604" lon="-0.35292">
        <ele>137.3</ele>
        <time>2026-08-31T10:13:00Z</time>
      </trkpt>
      <trkpt lat="43.46039" lon="-0.35291">
        <ele>137.3</ele>
        <time>2026-08-31T10:13:01Z</time>
      </trkpt>
      <trkpt lat="43.46038" lon="-0.35291">
        <ele>137.3</ele>
        <time>2026-08-31T10:13:01Z</time>
      </trkpt>
      <trkpt lat="43.46038" lon="-0.3529">
        <ele>137.3</ele>
        <time>2026-08-31T10:13:02Z</time>
      </trkpt>
      <trkpt lat="43.46037" lon="-0.35289">
        <ele>137.3</ele>
        <time>2026-08-31T10:13:02Z</time>
      </trkpt>
      <trkpt lat="43.46037" lon="-0.35288">
        <ele>137.3</ele>
        <time>2026-08-31T10:13:03Z</time>
      </trkpt>
      <trkpt lat="43.46036" lon="-0.35288">
        <ele>137.3</ele>
        <time>2026-08-31T10:13:04Z</time>
      </trkpt>
      <trkpt lat="43.46036" lon="-0.35287">
        <ele>137.3</ele>
        <time>2026-08-31T10:13:04Z</time>
      </trkpt>
      <trkpt lat="43.46035" lon="-0.35286">
        <ele>137.3</ele>
        <time>2026-08-31T10:13:05Z</time>
      </trkpt>
      <trkpt lat="43.46035" lon="-0.35286">
        <ele>137.3</ele>
        <time>2026-08-31T10:13:05Z</time>
      </trkpt>
      <trkpt lat="43.46034" lon="-0.35285">
        <ele>137.3</ele>
        <time>2026-08-31T10:13:06Z</time>
      </trkpt>
      <trkpt lat="43.46033" lon="-0.35285">
        <ele>137.3</ele>
        <time>2026-08-31T10:13:06Z</time>
      </trkpt>
      <trkpt lat="43.46033" lon="-0.35285">
        <ele>138.3</ele>
        <time>2026-08-31T10:13:07Z</time>
      </trkpt>
      <trkpt lat="43.46032" lon="-0.35285">
        <ele>138.3</ele>
        <time>2026-08-31T10:13:07Z</time>
      </trkpt>
      <trkpt lat="43.46031" lon="-0.35284">
        <ele>137.3</ele>
        <time>2026-08-31T10:13:08Z</time>
      </trkpt>
      <trkpt lat="43.46031" lon="-0.35284">
        <ele>137.3</ele>
        <time>2026-08-31T10:13:09Z</time>
      </trkpt>
      <trkpt lat="43.4603" lon="-0.35284">
        <ele>137.3</ele>
        <time>2026-08-31T10:13:09Z</time>
      </trkpt>
      <trkpt lat="43.46029" lon="-0.35284">
        <ele>138.3</ele>
        <time>2026-08-31T10:13:10Z</time>
      </trkpt>
      <trkpt lat="43.46029" lon="-0.35284">
        <ele>138.3</ele>
        <time>2026-08-31T10:13:10Z</time>
      </trkpt>
      <trkpt lat="43.46028" lon="-0.35284">
        <ele>138.3</ele>
        <time>2026-08-31T10:13:11Z</time>
      </trkpt>
      <trkpt lat="43.46027" lon="-0.35283">
        <ele>138.3</ele>
        <time>2026-08-31T10:13:12Z</time>
      </trkpt>
      <trkpt lat="43.46027" lon="-0.35284">
        <ele>138.3</ele>
        <time>2026-08-31T10:13:12Z</time>
      </trkpt>
      <trkpt lat="43.46026" lon="-0.35284">
        <ele>138.3</ele>
        <time>2026-08-31T10:13:13Z</time>
      </trkpt>
      <trkpt lat="43.46025" lon="-0.35284">
        <ele>139.3</ele>
        <time>2026-08-31T10:13:13Z</time>
      </trkpt>
      <trkpt lat="43.46025" lon="-0.35284">
        <ele>140.3</ele>
        <time>2026-08-31T10:13:14Z</time>
      </trkpt>
      <trkpt lat="43.46024" lon="-0.35284">
        <ele>140.3</ele>
        <time>2026-08-31T10:13:14Z</time>
      </trkpt>
      <trkpt lat="43.46023" lon="-0.35284">
        <ele>139.3</ele>
        <time>2026-08-31T10:13:15Z</time>
      </trkpt>
      <trkpt lat="43.46023" lon="-0.35284">
        <ele>139.3</ele>
        <time>2026-08-31T10:13:15Z</time>
      </trkpt>
      <trkpt lat="43.46022" lon="-0.35284">
        <ele>140.3</ele>
        <time>2026-08-31T10:13:16Z</time>
      </trkpt>
      <trkpt lat="43.46021" lon="-0.35284">
        <ele>140.3</ele>
        <time>2026-08-31T10:13:17Z</time>
      </trkpt>
      <trkpt lat="43.4602" lon="-0.35284">
        <ele>139.3</ele>
        <time>2026-08-31T10:13:17Z</time>
      </trkpt>
      <trkpt lat="43.4602" lon="-0.35284">
        <ele>140.3</ele>
        <time>2026-08-31T10:13:18Z</time>
      </trkpt>
      <trkpt lat="43.46019" lon="-0.35284">
        <ele>140.3</ele>
        <time>2026-08-31T10:13:18Z</time>
      </trkpt>
      <trkpt lat="43.46018" lon="-0.35284">
        <ele>140.3</ele>
        <time>2026-08-31T10:13:19Z</time>
      </trkpt>
      <trkpt lat="43.46018" lon="-0.35284">
        <ele>140.3</ele>
        <time>2026-08-31T10:13:20Z</time>
      </trkpt>
      <trkpt lat="43.46017" lon="-0.35284">
        <ele>140.3</ele>
        <time>2026-08-31T10:13:20Z</time>
      </trkpt>
      <trkpt lat="43.46016" lon="-0.35284">
        <ele>140.3</ele>
        <time>2026-08-31T10:13:21Z</time>
      </trkpt>
      <trkpt lat="43.46016" lon="-0.35284">
        <ele>140.3</ele>
        <time>2026-08-31T10:13:21Z</time>
      </trkpt>
      <trkpt lat="43.46015" lon="-0.35285">
        <ele>140.3</ele>
        <time>2026-08-31T10:13:22Z</time>
      </trkpt>
      <trkpt lat="43.46014" lon="-0.35285">
        <ele>140.3</ele>
        <time>2026-08-31T10:13:22Z</time>
      </trkpt>
      <trkpt lat="43.46014" lon="-0.35285">
        <ele>140.3</ele>
        <time>2026-08-31T10:13:23Z</time>
      </trkpt>
      <trkpt lat="43.46013" lon="-0.35285">
        <ele>140.3</ele>
        <time>2026-08-31T10:13:24Z</time>
      </trkpt>
      <trkpt lat="43.46013" lon="-0.35286">
        <ele>141.3</ele>
        <time>2026-08-31T10:13:24Z</time>
      </trkpt>
      <trkpt lat="43.46012" lon="-0.35286">
        <ele>141.3</ele>
        <time>2026-08-31T10:13:25Z</time>
      </trkpt>
      <trkpt lat="43.46012" lon="-0.35286">
        <ele>141.3</ele>
        <time>2026-08-31T10:13:25Z</time>
      </trkpt>
      <trkpt lat="43.46011" lon="-0.35285">
        <ele>141.3</ele>
        <time>2026-08-31T10:13:26Z</time>
      </trkpt>
      <trkpt lat="43.46011" lon="-0.35285">
        <ele>141.3</ele>
        <time>2026-08-31T10:13:26Z</time>
      </trkpt>
      <trkpt lat="43.4601" lon="-0.35285">
        <ele>141.3</ele>
        <time>2026-08-31T10:13:27Z</time>
      </trkpt>
      <trkpt lat="43.46009" lon="-0.35285">
        <ele>141.3</ele>
        <time>2026-08-31T10:13:28Z</time>
      </trkpt>
      <trkpt lat="43.46009" lon="-0.35285">
        <ele>142.3</ele>
        <time>2026-08-31T10:13:28Z</time>
      </trkpt>
      <trkpt lat="43.46008" lon="-0.35285">
        <ele>142.3</ele>
        <time>2026-08-31T10:13:29Z</time>
      </trkpt>
      <trkpt lat="43.46007" lon="-0.35285">
        <ele>142.3</ele>
        <time>2026-08-31T10:13:29Z</time>
      </trkpt>
      <trkpt lat="43.46007" lon="-0.35285">
        <ele>142.3</ele>
        <time>2026-08-31T10:13:30Z</time>
      </trkpt>
      <trkpt lat="43.46006" lon="-0.35285">
        <ele>142.3</ele>
        <time>2026-08-31T10:13:30Z</time>
      </trkpt>
      <trkpt lat="43.46005" lon="-0.35285">
        <ele>142.3</ele>
        <time>2026-08-31T10:13:31Z</time>
      </trkpt>
      <trkpt lat="43.46005" lon="-0.35285">
        <ele>142.3</ele>
        <time>2026-08-31T10:13:32Z</time>
      </trkpt>
      <trkpt lat="43.46004" lon="-0.35285">
        <ele>142.3</ele>
        <time>2026-08-31T10:13:32Z</time>
      </trkpt>
      <trkpt lat="43.46003" lon="-0.35285">
        <ele>143.3</ele>
        <time>2026-08-31T10:13:33Z</time>
      </trkpt>
      <trkpt lat="43.46003" lon="-0.35285">
        <ele>143.3</ele>
        <time>2026-08-31T10:13:33Z</time>
      </trkpt>
      <trkpt lat="43.46002" lon="-0.35284">
        <ele>143.3</ele>
        <time>2026-08-31T10:13:34Z</time>
      </trkpt>
      <trkpt lat="43.46002" lon="-0.35284">
        <ele>143.3</ele>
        <time>2026-08-31T10:13:35Z</time>
      </trkpt>
      <trkpt lat="43.46001" lon="-0.35284">
        <ele>144.3</ele>
        <time>2026-08-31T10:13:35Z</time>
      </trkpt>
      <trkpt lat="43.46" lon="-0.35284">
        <ele>145.3</ele>
        <time>2026-08-31T10:13:36Z</time>
      </trkpt>
      <trkpt lat="43.46" lon="-0.35284">
        <ele>145.3</ele>
        <time>2026-08-31T10:13:36Z</time>
      </trkpt>
      <trkpt lat="43.45999" lon="-0.35283">
        <ele>145.3</ele>
        <time>2026-08-31T10:13:37Z</time>
      </trkpt>
      <trkpt lat="43.45998" lon="-0.35284">
        <ele>145.3</ele>
        <time>2026-08-31T10:13:37Z</time>
      </trkpt>
      <trkpt lat="43.45997" lon="-0.35283">
        <ele>146.3</ele>
        <time>2026-08-31T10:13:38Z</time>
      </trkpt>
      <trkpt lat="43.45997" lon="-0.35283">
        <ele>146.3</ele>
        <time>2026-08-31T10:13:39Z</time>
      </trkpt>
      <trkpt lat="43.45996" lon="-0.35283">
        <ele>146.3</ele>
        <time>2026-08-31T10:13:39Z</time>
      </trkpt>
      <trkpt lat="43.45995" lon="-0.35283">
        <ele>147.3</ele>
        <time>2026-08-31T10:13:40Z</time>
      </trkpt>
      <trkpt lat="43.45995" lon="-0.35283">
        <ele>147.3</ele>
        <time>2026-08-31T10:13:40Z</time>
      </trkpt>
      <trkpt lat="43.45994" lon="-0.35282">
        <ele>148.3</ele>
        <time>2026-08-31T10:13:41Z</time>
      </trkpt>
      <trkpt lat="43.45993" lon="-0.35282">
        <ele>148.3</ele>
        <time>2026-08-31T10:13:41Z</time>
      </trkpt>
      <trkpt lat="43.45992" lon="-0.35282">
        <ele>148.3</ele>
        <time>2026-08-31T10:13:42Z</time>
      </trkpt>
      <trkpt lat="43.45992" lon="-0.35282">
        <ele>148.3</ele>
        <time>2026-08-31T10:13:43Z</time>
      </trkpt>
      <trkpt lat="43.45991" lon="-0.35282">
        <ele>148.3</ele>
        <time>2026-08-31T10:13:43Z</time>
      </trkpt>
      <trkpt lat="43.4599" lon="-0.35282">
        <ele>148.3</ele>
        <time>2026-08-31T10:13:44Z</time>
      </trkpt>
      <trkpt lat="43.4599" lon="-0.35282">
        <ele>148.3</ele>
        <time>2026-08-31T10:13:44Z</time>
      </trkpt>
      <trkpt lat="43.45989" lon="-0.35282">
        <ele>149.3</ele>
        <time>2026-08-31T10:13:45Z</time>
      </trkpt>
      <trkpt lat="43.45988" lon="-0.35282">
        <ele>149.3</ele>
        <time>2026-08-31T10:13:45Z</time>
      </trkpt>
      <trkpt lat="43.45988" lon="-0.35282">
        <ele>149.3</ele>
        <time>2026-08-31T10:13:46Z</time>
      </trkpt>
      <trkpt lat="43.45987" lon="-0.35282">
        <ele>149.3</ele>
        <time>2026-08-31T10:13:47Z</time>
      </trkpt>
      <trkpt lat="43.45986" lon="-0.35282">
        <ele>149.3</ele>
        <time>2026-08-31T10:13:47Z</time>
      </trkpt>
      <trkpt lat="43.45986" lon="-0.35282">
        <ele>149.3</ele>
        <time>2026-08-31T10:13:48Z</time>
      </trkpt>
      <trkpt lat="43.45985" lon="-0.35282">
        <ele>149.3</ele>
        <time>2026-08-31T10:13:48Z</time>
      </trkpt>
      <trkpt lat="43.45984" lon="-0.35282">
        <ele>150.3</ele>
        <time>2026-08-31T10:13:49Z</time>
      </trkpt>
      <trkpt lat="43.45984" lon="-0.35282">
        <ele>150.3</ele>
        <time>2026-08-31T10:13:49Z</time>
      </trkpt>
      <trkpt lat="43.45983" lon="-0.35282">
        <ele>150.3</ele>
        <time>2026-08-31T10:13:50Z</time>
      </trkpt>
      <trkpt lat="43.45982" lon="-0.35283">
        <ele>150.3</ele>
        <time>2026-08-31T10:13:51Z</time>
      </trkpt>
      <trkpt lat="43.45982" lon="-0.35283">
        <ele>150.3</ele>
        <time>2026-08-31T10:13:51Z</time>
      </trkpt>
      <trkpt lat="43.45981" lon="-0.35283">
        <ele>150.3</ele>
        <time>2026-08-31T10:13:52Z</time>
      </trkpt>
      <trkpt lat="43.4598" lon="-0.35283">
        <ele>150.3</ele>
        <time>2026-08-31T10:13:52Z</time>
      </trkpt>
      <trkpt lat="43.4598" lon="-0.35283">
        <ele>150.3</ele>
        <time>2026-08-31T10:13:53Z</time>
      </trkpt>
      <trkpt lat="43.45979" lon="-0.35283">
        <ele>150.3</ele>
        <time>2026-08-31T10:13:54Z</time>
      </trkpt>
      <trkpt lat="43.45978" lon="-0.35283">
        <ele>150.3</ele>
        <time>2026-08-31T10:13:54Z</time>
      </trkpt>
      <trkpt lat="43.45978" lon="-0.35283">
        <ele>150.3</ele>
        <time>2026-08-31T10:13:55Z</time>
      </trkpt>
      <trkpt lat="43.45977" lon="-0.35284">
        <ele>150.3</ele>
        <time>2026-08-31T10:13:55Z</time>
      </trkpt>
      <trkpt lat="43.45977" lon="-0.35284">
        <ele>150.3</ele>
        <time>2026-08-31T10:13:56Z</time>
      </trkpt>
      <trkpt lat="43.45976" lon="-0.35284">
        <ele>150.3</ele>
        <time>2026-08-31T10:13:56Z</time>
      </trkpt>
      <trkpt lat="43.45975" lon="-0.35284">
        <ele>151.3</ele>
        <time>2026-08-31T10:13:57Z</time>
      </trkpt>
      <trkpt lat="43.45974" lon="-0.35284">
        <ele>151.3</ele>
        <time>2026-08-31T10:13:58Z</time>
      </trkpt>
      <trkpt lat="43.45974" lon="-0.35284">
        <ele>151.3</ele>
        <time>2026-08-31T10:13:58Z</time>
      </trkpt>
      <trkpt lat="43.45973" lon="-0.35285">
        <ele>151.3</ele>
        <time>2026-08-31T10:13:59Z</time>
      </trkpt>
      <trkpt lat="43.45973" lon="-0.35285">
        <ele>151.3</ele>
        <time>2026-08-31T10:13:59Z</time>
      </trkpt>
      <trkpt lat="43.45972" lon="-0.35285">
        <ele>151.3</ele>
        <time>2026-08-31T10:14:00Z</time>
      </trkpt>
      <trkpt lat="43.45971" lon="-0.35285">
        <ele>151.3</ele>
        <time>2026-08-31T10:14:01Z</time>
      </trkpt>
      <trkpt lat="43.45971" lon="-0.35286">
        <ele>151.3</ele>
        <time>2026-08-31T10:14:01Z</time>
      </trkpt>
      <trkpt lat="43.4597" lon="-0.35286">
        <ele>151.3</ele>
        <time>2026-08-31T10:14:02Z</time>
      </trkpt>
      <trkpt lat="43.4597" lon="-0.35286">
        <ele>152.3</ele>
        <time>2026-08-31T10:14:02Z</time>
      </trkpt>
      <trkpt lat="43.45969" lon="-0.35287">
        <ele>152.3</ele>
        <time>2026-08-31T10:14:03Z</time>
      </trkpt>
      <trkpt lat="43.45968" lon="-0.35287">
        <ele>152.3</ele>
        <time>2026-08-31T10:14:03Z</time>
      </trkpt>
      <trkpt lat="43.45968" lon="-0.35287">
        <ele>152.3</ele>
        <time>2026-08-31T10:14:04Z</time>
      </trkpt>
      <trkpt lat="43.45967" lon="-0.35287">
        <ele>152.3</ele>
        <time>2026-08-31T10:14:05Z</time>
      </trkpt>
      <trkpt lat="43.45966" lon="-0.35288">
        <ele>152.3</ele>
        <time>2026-08-31T10:14:05Z</time>
      </trkpt>
      <trkpt lat="43.45966" lon="-0.35288">
        <ele>153.3</ele>
        <time>2026-08-31T10:14:06Z</time>
      </trkpt>
      <trkpt lat="43.45965" lon="-0.35288">
        <ele>153.3</ele>
        <time>2026-08-31T10:14:06Z</time>
      </trkpt>
      <trkpt lat="43.45964" lon="-0.35288">
        <ele>153.3</ele>
        <time>2026-08-31T10:14:07Z</time>
      </trkpt>
      <trkpt lat="43.45963" lon="-0.35288">
        <ele>153.3</ele>
        <time>2026-08-31T10:14:07Z</time>
      </trkpt>
      <trkpt lat="43.45963" lon="-0.35289">
        <ele>153.3</ele>
        <time>2026-08-31T10:14:08Z</time>
      </trkpt>
      <trkpt lat="43.45962" lon="-0.35289">
        <ele>153.3</ele>
        <time>2026-08-31T10:14:09Z</time>
      </trkpt>
      <trkpt lat="43.45962" lon="-0.35289">
        <ele>154.3</ele>
        <time>2026-08-31T10:14:09Z</time>
      </trkpt>
      <trkpt lat="43.45961" lon="-0.35288">
        <ele>154.3</ele>
        <time>2026-08-31T10:14:10Z</time>
      </trkpt>
      <trkpt lat="43.4596" lon="-0.35288">
        <ele>154.3</ele>
        <time>2026-08-31T10:14:10Z</time>
      </trkpt>
      <trkpt lat="43.4596" lon="-0.35288">
        <ele>154.3</ele>
        <time>2026-08-31T10:14:11Z</time>
      </trkpt>
      <trkpt lat="43.45959" lon="-0.35288">
        <ele>154.3</ele>
        <time>2026-08-31T10:14:11Z</time>
      </trkpt>
      <trkpt lat="43.45959" lon="-0.35288">
        <ele>154.3</ele>
        <time>2026-08-31T10:14:12Z</time>
      </trkpt>
      <trkpt lat="43.45958" lon="-0.35288">
        <ele>154.3</ele>
        <time>2026-08-31T10:14:13Z</time>
      </trkpt>
      <trkpt lat="43.45957" lon="-0.35288">
        <ele>154.3</ele>
        <time>2026-08-31T10:14:13Z</time>
      </trkpt>
      <trkpt lat="43.45957" lon="-0.35288">
        <ele>154.3</ele>
        <time>2026-08-31T10:14:14Z</time>
      </trkpt>
      <trkpt lat="43.45956" lon="-0.35288">
        <ele>154.3</ele>
        <time>2026-08-31T10:14:14Z</time>
      </trkpt>
      <trkpt lat="43.45955" lon="-0.35288">
        <ele>155.3</ele>
        <time>2026-08-31T10:14:15Z</time>
      </trkpt>
      <trkpt lat="43.45955" lon="-0.35288">
        <ele>155.3</ele>
        <time>2026-08-31T10:14:16Z</time>
      </trkpt>
      <trkpt lat="43.45954" lon="-0.35288">
        <ele>155.3</ele>
        <time>2026-08-31T10:14:16Z</time>
      </trkpt>
      <trkpt lat="43.45953" lon="-0.35288">
        <ele>155.3</ele>
        <time>2026-08-31T10:14:17Z</time>
      </trkpt>
      <trkpt lat="43.45953" lon="-0.35287">
        <ele>155.3</ele>
        <time>2026-08-31T10:14:17Z</time>
      </trkpt>
      <trkpt lat="43.45952" lon="-0.35287">
        <ele>155.3</ele>
        <time>2026-08-31T10:14:18Z</time>
      </trkpt>
      <trkpt lat="43.45951" lon="-0.35287">
        <ele>155.3</ele>
        <time>2026-08-31T10:14:18Z</time>
      </trkpt>
      <trkpt lat="43.45951" lon="-0.35286">
        <ele>155.3</ele>
        <time>2026-08-31T10:14:19Z</time>
      </trkpt>
      <trkpt lat="43.4595" lon="-0.35286">
        <ele>155.3</ele>
        <time>2026-08-31T10:14:20Z</time>
      </trkpt>
      <trkpt lat="43.45949" lon="-0.35286">
        <ele>155.3</ele>
        <time>2026-08-31T10:14:20Z</time>
      </trkpt>
      <trkpt lat="43.45949" lon="-0.35286">
        <ele>155.3</ele>
        <time>2026-08-31T10:14:21Z</time>
      </trkpt>
      <trkpt lat="43.45948" lon="-0.35286">
        <ele>155.3</ele>
        <time>2026-08-31T10:14:21Z</time>
      </trkpt>
      <trkpt lat="43.45947" lon="-0.35285">
        <ele>154.3</ele>
        <time>2026-08-31T10:14:22Z</time>
      </trkpt>
      <trkpt lat="43.45946" lon="-0.35285">
        <ele>154.3</ele>
        <time>2026-08-31T10:14:22Z</time>
      </trkpt>
      <trkpt lat="43.45946" lon="-0.35285">
        <ele>155.3</ele>
        <time>2026-08-31T10:14:23Z</time>
      </trkpt>
      <trkpt lat="43.45945" lon="-0.35285">
        <ele>155.3</ele>
        <time>2026-08-31T10:14:24Z</time>
      </trkpt>
      <trkpt lat="43.45944" lon="-0.35284">
        <ele>154.3</ele>
        <time>2026-08-31T10:14:24Z</time>
      </trkpt>
      <trkpt lat="43.45943" lon="-0.35284">
        <ele>154.3</ele>
        <time>2026-08-31T10:14:25Z</time>
      </trkpt>
      <trkpt lat="43.45943" lon="-0.35284">
        <ele>154.3</ele>
        <time>2026-08-31T10:14:25Z</time>
      </trkpt>
      <trkpt lat="43.45942" lon="-0.35284">
        <ele>154.3</ele>
        <time>2026-08-31T10:14:26Z</time>
      </trkpt>
      <trkpt lat="43.45941" lon="-0.35283">
        <ele>154.3</ele>
        <time>2026-08-31T10:14:26Z</time>
      </trkpt>
      <trkpt lat="43.4594" lon="-0.35283">
        <ele>154.3</ele>
        <time>2026-08-31T10:14:27Z</time>
      </trkpt>
      <trkpt lat="43.4594" lon="-0.35283">
        <ele>154.3</ele>
        <time>2026-08-31T10:14:28Z</time>
      </trkpt>
      <trkpt lat="43.45939" lon="-0.35283">
        <ele>155.3</ele>
        <time>2026-08-31T10:14:28Z</time>
      </trkpt>
      <trkpt lat="43.45938" lon="-0.35283">
        <ele>155.3</ele>
        <time>2026-08-31T10:14:29Z</time>
      </trkpt>
      <trkpt lat="43.45937" lon="-0.35282">
        <ele>155.3</ele>
        <time>2026-08-31T10:14:29Z</time>
      </trkpt>
      <trkpt lat="43.45937" lon="-0.35282">
        <ele>155.3</ele>
        <time>2026-08-31T10:14:30Z</time>
      </trkpt>
      <trkpt lat="43.45936" lon="-0.35282">
        <ele>155.3</ele>
        <time>2026-08-31T10:14:30Z</time>
      </trkpt>
      <trkpt lat="43.45935" lon="-0.35281">
        <ele>155.3</ele>
        <time>2026-08-31T10:14:31Z</time>
      </trkpt>
      <trkpt lat="43.45934" lon="-0.35281">
        <ele>155.3</ele>
        <time>2026-08-31T10:14:32Z</time>
      </trkpt>
      <trkpt lat="43.45933" lon="-0.35281">
        <ele>155.3</ele>
        <time>2026-08-31T10:14:32Z</time>
      </trkpt>
      <trkpt lat="43.45933" lon="-0.35281">
        <ele>155.3</ele>
        <time>2026-08-31T10:14:33Z</time>
      </trkpt>
      <trkpt lat="43.45932" lon="-0.3528">
        <ele>155.3</ele>
        <time>2026-08-31T10:14:33Z</time>
      </trkpt>
      <trkpt lat="43.45931" lon="-0.3528">
        <ele>155.3</ele>
        <time>2026-08-31T10:14:35Z</time>
      </trkpt>
      <trkpt lat="43.4593" lon="-0.3528">
        <ele>155.3</ele>
        <time>2026-08-31T10:14:35Z</time>
      </trkpt>
      <trkpt lat="43.45929" lon="-0.3528">
        <ele>155.3</ele>
        <time>2026-08-31T10:14:36Z</time>
      </trkpt>
      <trkpt lat="43.45928" lon="-0.3528">
        <ele>155.3</ele>
        <time>2026-08-31T10:14:36Z</time>
      </trkpt>
      <trkpt lat="43.45927" lon="-0.3528">
        <ele>155.3</ele>
        <time>2026-08-31T10:14:37Z</time>
      </trkpt>
      <trkpt lat="43.45927" lon="-0.35279">
        <ele>155.3</ele>
        <time>2026-08-31T10:14:37Z</time>
      </trkpt>
      <trkpt lat="43.45926" lon="-0.35279">
        <ele>155.3</ele>
        <time>2026-08-31T10:14:38Z</time>
      </trkpt>
      <trkpt lat="43.45925" lon="-0.35279">
        <ele>155.3</ele>
        <time>2026-08-31T10:14:39Z</time>
      </trkpt>
      <trkpt lat="43.45925" lon="-0.35279">
        <ele>155.3</ele>
        <time>2026-08-31T10:14:39Z</time>
      </trkpt>
      <trkpt lat="43.45924" lon="-0.35279">
        <ele>154.3</ele>
        <time>2026-08-31T10:14:40Z</time>
      </trkpt>
      <trkpt lat="43.45923" lon="-0.35279">
        <ele>154.3</ele>
        <time>2026-08-31T10:14:40Z</time>
      </trkpt>
      <trkpt lat="43.45922" lon="-0.35279">
        <ele>155.3</ele>
        <time>2026-08-31T10:14:42Z</time>
      </trkpt>
      <trkpt lat="43.45921" lon="-0.35279">
        <ele>155.3</ele>
        <time>2026-08-31T10:14:43Z</time>
      </trkpt>
      <trkpt lat="43.45921" lon="-0.35279">
        <ele>155.3</ele>
        <time>2026-08-31T10:14:44Z</time>
      </trkpt>
      <trkpt lat="43.45921" lon="-0.35279">
        <ele>155.3</ele>
        <time>2026-08-31T10:14:44Z</time>
      </trkpt>
      <trkpt lat="43.45923" lon="-0.35278">
        <ele>155.3</ele>
        <time>2026-08-31T10:14:46Z</time>
      </trkpt>
      <trkpt lat="43.45924" lon="-0.35278">
        <ele>155.3</ele>
        <time>2026-08-31T10:14:47Z</time>
      </trkpt>
      <trkpt lat="43.45924" lon="-0.35278">
        <ele>155.3</ele>
        <time>2026-08-31T10:14:48Z</time>
      </trkpt>
      <trkpt lat="43.45925" lon="-0.35278">
        <ele>155.3</ele>
        <time>2026-08-31T10:14:49Z</time>
      </trkpt>
      <trkpt lat="43.45925" lon="-0.35278">
        <ele>155.3</ele>
        <time>2026-08-31T10:14:50Z</time>
      </trkpt>
      <trkpt lat="43.45925" lon="-0.35278">
        <ele>155.3</ele>
        <time>2026-08-31T10:14:51Z</time>
      </trkpt>
      <trkpt lat="43.45925" lon="-0.35279">
        <ele>155.3</ele>
        <time>2026-08-31T10:14:52Z</time>
      </trkpt>
      <trkpt lat="43.45925" lon="-0.35279">
        <ele>155.3</ele>
        <time>2026-08-31T10:14:53Z</time>
      </trkpt>
      <trkpt lat="43.45925" lon="-0.35279">
        <ele>155.3</ele>
        <time>2026-08-31T10:14:54Z</time>
      </trkpt>
      <trkpt lat="43.45925" lon="-0.35279">
        <ele>155.3</ele>
        <time>2026-08-31T10:14:55Z</time>
      </trkpt>
      <trkpt lat="43.45925" lon="-0.35279">
        <ele>155.3</ele>
        <time>2026-08-31T10:14:56Z</time>
      </trkpt>
      <trkpt lat="43.45925" lon="-0.35279">
        <ele>155.3</ele>
        <time>2026-08-31T10:14:57Z</time>
      </trkpt>
      <trkpt lat="43.45925" lon="-0.35279">
        <ele>155.3</ele>
        <time>2026-08-31T10:14:58Z</time>
      </trkpt>
      <trkpt lat="43.45925" lon="-0.35279">
        <ele>155.3</ele>
        <time>2026-08-31T10:14:59Z</time>
      </trkpt>
      <trkpt lat="43.45925" lon="-0.35279">
        <ele>155.3</ele>
        <time>2026-08-31T10:15:00Z</time>
      </trkpt>
      <trkpt lat="43.45925" lon="-0.35279">
        <ele>155.3</ele>
        <time>2026-08-31T10:15:01Z</time>
      </trkpt>
      <trkpt lat="43.45925" lon="-0.35279">
        <ele>155.3</ele>
        <time>2026-08-31T10:15:02Z</time>
      </trkpt>
      <trkpt lat="43.45925" lon="-0.35279">
        <ele>155.3</ele>
        <time>2026-08-31T10:15:03Z</time>
      </trkpt>
      <trkpt lat="43.45925" lon="-0.35279">
        <ele>155.3</ele>
        <time>2026-08-31T10:15:04Z</time>
      </trkpt>
      <trkpt lat="43.45925" lon="-0.35279">
        <ele>155.3</ele>
        <time>2026-08-31T10:15:05Z</time>
      </trkpt>
      <trkpt lat="43.45925" lon="-0.35279">
        <ele>155.3</ele>
        <time>2026-08-31T10:15:06Z</time>
      </trkpt>
      <trkpt lat="43.45925" lon="-0.35279">
        <ele>155.3</ele>
        <time>2026-08-31T10:15:07Z</time>
      </trkpt>
      <trkpt lat="43.45925" lon="-0.35279">
        <ele>155.3</ele>
        <time>2026-08-31T10:15:08Z</time>
      </trkpt>
      <trkpt lat="43.45925" lon="-0.35279">
        <ele>155.3</ele>
        <time>2026-08-31T10:15:09Z</time>
      </trkpt>
      <trkpt lat="43.45925" lon="-0.35279">
        <ele>155.3</ele>
        <time>2026-08-31T10:15:10Z</time>
      </trkpt>
      <trkpt lat="43.45925" lon="-0.35279">
        <ele>155.3</ele>
        <time>2026-08-31T10:15:11Z</time>
      </trkpt>
      <trkpt lat="43.45924" lon="-0.35279">
        <ele>155.3</ele>
        <time>2026-08-31T10:15:12Z</time>
      </trkpt>
      <trkpt lat="43.45924" lon="-0.35279">
        <ele>155.3</ele>
        <time>2026-08-31T10:15:13Z</time>
      </trkpt>
      <trkpt lat="43.45924" lon="-0.35279">
        <ele>155.3</ele>
        <time>2026-08-31T10:15:14Z</time>
      </trkpt>
      <trkpt lat="43.45924" lon="-0.35279">
        <ele>155.3</ele>
        <time>2026-08-31T10:15:15Z</time>
      </trkpt>
      <trkpt lat="43.45924" lon="-0.35279">
        <ele>155.3</ele>
        <time>2026-08-31T10:15:16Z</time>
      </trkpt>
      <trkpt lat="43.45924" lon="-0.35279">
        <ele>155.3</ele>
        <time>2026-08-31T10:15:17Z</time>
      </trkpt>
      <trkpt lat="43.45924" lon="-0.35279">
        <ele>155.3</ele>
        <time>2026-08-31T10:15:18Z</time>
      </trkpt>
      <trkpt lat="43.45924" lon="-0.35279">
        <ele>154.3</ele>
        <time>2026-08-31T10:15:19Z</time>
      </trkpt>
      <trkpt lat="43.45924" lon="-0.35279">
        <ele>155.3</ele>
        <time>2026-08-31T10:15:20Z</time>
      </trkpt>
      <trkpt lat="43.45923" lon="-0.35279">
        <ele>155.3</ele>
        <time>2026-08-31T10:15:21Z</time>
      </trkpt>
      <trkpt lat="43.45922" lon="-0.35278">
        <ele>155.3</ele>
        <time>2026-08-31T10:15:22Z</time>
      </trkpt>
      <trkpt lat="43.45922" lon="-0.35277">
        <ele>155.3</ele>
        <time>2026-08-31T10:15:22Z</time>
      </trkpt>
      <trkpt lat="43.45921" lon="-0.35276">
        <ele>154.3</ele>
        <time>2026-08-31T10:15:23Z</time>
      </trkpt>
      <trkpt lat="43.4592" lon="-0.35275">
        <ele>154.3</ele>
        <time>2026-08-31T10:15:23Z</time>
      </trkpt>
      <trkpt lat="43.45919" lon="-0.35274">
        <ele>154.3</ele>
        <time>2026-08-31T10:15:24Z</time>
      </trkpt>
      <trkpt lat="43.45919" lon="-0.35273">
        <ele>154.3</ele>
        <time>2026-08-31T10:15:25Z</time>
      </trkpt>
      <trkpt lat="43.45918" lon="-0.35273">
        <ele>154.3</ele>
        <time>2026-08-31T10:15:25Z</time>
      </trkpt>
      <trkpt lat="43.45917" lon="-0.35273">
        <ele>154.3</ele>
        <time>2026-08-31T10:15:26Z</time>
      </trkpt>
      <trkpt lat="43.45916" lon="-0.35273">
        <ele>154.3</ele>
        <time>2026-08-31T10:15:26Z</time>
      </trkpt>
      <trkpt lat="43.45916" lon="-0.35272">
        <ele>154.3</ele>
        <time>2026-08-31T10:15:27Z</time>
      </trkpt>
      <trkpt lat="43.45915" lon="-0.35272">
        <ele>154.3</ele>
        <time>2026-08-31T10:15:27Z</time>
      </trkpt>
      <trkpt lat="43.45914" lon="-0.35271">
        <ele>154.3</ele>
        <time>2026-08-31T10:15:28Z</time>
      </trkpt>
      <trkpt lat="43.45913" lon="-0.35271">
        <ele>154.3</ele>
        <time>2026-08-31T10:15:28Z</time>
      </trkpt>
      <trkpt lat="43.45913" lon="-0.3527">
        <ele>155.3</ele>
        <time>2026-08-31T10:15:29Z</time>
      </trkpt>
      <trkpt lat="43.45912" lon="-0.3527">
        <ele>155.3</ele>
        <time>2026-08-31T10:15:29Z</time>
      </trkpt>
      <trkpt lat="43.45911" lon="-0.35269">
        <ele>155.3</ele>
        <time>2026-08-31T10:15:30Z</time>
      </trkpt>
      <trkpt lat="43.45911" lon="-0.35269">
        <ele>155.3</ele>
        <time>2026-08-31T10:15:30Z</time>
      </trkpt>
      <trkpt lat="43.4591" lon="-0.35268">
        <ele>154.3</ele>
        <time>2026-08-31T10:15:31Z</time>
      </trkpt>
      <trkpt lat="43.45909" lon="-0.35267">
        <ele>154.3</ele>
        <time>2026-08-31T10:15:32Z</time>
      </trkpt>
      <trkpt lat="43.45909" lon="-0.35266">
        <ele>154.3</ele>
        <time>2026-08-31T10:15:32Z</time>
      </trkpt>
      <trkpt lat="43.45908" lon="-0.35266">
        <ele>154.3</ele>
        <time>2026-08-31T10:15:33Z</time>
      </trkpt>
      <trkpt lat="43.45907" lon="-0.35265">
        <ele>154.3</ele>
        <time>2026-08-31T10:15:33Z</time>
      </trkpt>
      <trkpt lat="43.45907" lon="-0.35265">
        <ele>154.3</ele>
        <time>2026-08-31T10:15:34Z</time>
      </trkpt>
      <trkpt lat="43.45906" lon="-0.35264">
        <ele>154.3</ele>
        <time>2026-08-31T10:15:34Z</time>
      </trkpt>
      <trkpt lat="43.45905" lon="-0.35263">
        <ele>154.3</ele>
        <time>2026-08-31T10:15:35Z</time>
      </trkpt>
      <trkpt lat="43.45905" lon="-0.35263">
        <ele>154.3</ele>
        <time>2026-08-31T10:15:35Z</time>
      </trkpt>
      <trkpt lat="43.45904" lon="-0.35262">
        <ele>154.3</ele>
        <time>2026-08-31T10:15:36Z</time>
      </trkpt>
      <trkpt lat="43.45903" lon="-0.35262">
        <ele>154.3</ele>
        <time>2026-08-31T10:15:36Z</time>
      </trkpt>
      <trkpt lat="43.45902" lon="-0.35261">
        <ele>155.3</ele>
        <time>2026-08-31T10:15:37Z</time>
      </trkpt>
      <trkpt lat="43.45902" lon="-0.35261">
        <ele>155.3</ele>
        <time>2026-08-31T10:15:37Z</time>
      </trkpt>
      <trkpt lat="43.45901" lon="-0.3526">
        <ele>155.3</ele>
        <time>2026-08-31T10:15:38Z</time>
      </trkpt>
      <trkpt lat="43.459" lon="-0.3526">
        <ele>155.3</ele>
        <time>2026-08-31T10:15:38Z</time>
      </trkpt>
      <trkpt lat="43.459" lon="-0.3526">
        <ele>154.3</ele>
        <time>2026-08-31T10:15:39Z</time>
      </trkpt>
      <trkpt lat="43.45899" lon="-0.35259">
        <ele>154.3</ele>
        <time>2026-08-31T10:15:39Z</time>
      </trkpt>
      <trkpt lat="43.45898" lon="-0.35259">
        <ele>155.3</ele>
        <time>2026-08-31T10:15:40Z</time>
      </trkpt>
      <trkpt lat="43.45898" lon="-0.35259">
        <ele>155.3</ele>
        <time>2026-08-31T10:15:40Z</time>
      </trkpt>
      <trkpt lat="43.45897" lon="-0.35258">
        <ele>154.3</ele>
        <time>2026-08-31T10:15:41Z</time>
      </trkpt>
      <trkpt lat="43.45896" lon="-0.35258">
        <ele>154.3</ele>
        <time>2026-08-31T10:15:42Z</time>
      </trkpt>
      <trkpt lat="43.45896" lon="-0.35258">
        <ele>154.3</ele>
        <time>2026-08-31T10:15:42Z</time>
      </trkpt>
      <trkpt lat="43.45895" lon="-0.35257">
        <ele>154.3</ele>
        <time>2026-08-31T10:15:43Z</time>
      </trkpt>
      <trkpt lat="43.45894" lon="-0.35257">
        <ele>154.3</ele>
        <time>2026-08-31T10:15:43Z</time>
      </trkpt>
      <trkpt lat="43.45893" lon="-0.35257">
        <ele>154.3</ele>
        <time>2026-08-31T10:15:44Z</time>
      </trkpt>
      <trkpt lat="43.45893" lon="-0.35256">
        <ele>154.3</ele>
        <time>2026-08-31T10:15:44Z</time>
      </trkpt>
      <trkpt lat="43.45892" lon="-0.35256">
        <ele>154.3</ele>
        <time>2026-08-31T10:15:45Z</time>
      </trkpt>
      <trkpt lat="43.45892" lon="-0.35256">
        <ele>154.3</ele>
        <time>2026-08-31T10:15:45Z</time>
      </trkpt>
      <trkpt lat="43.45891" lon="-0.35255">
        <ele>154.3</ele>
        <time>2026-08-31T10:15:46Z</time>
      </trkpt>
      <trkpt lat="43.4589" lon="-0.35255">
        <ele>154.3</ele>
        <time>2026-08-31T10:15:46Z</time>
      </trkpt>
      <trkpt lat="43.4589" lon="-0.35255">
        <ele>154.3</ele>
        <time>2026-08-31T10:15:47Z</time>
      </trkpt>
      <trkpt lat="43.45889" lon="-0.35254">
        <ele>154.3</ele>
        <time>2026-08-31T10:15:47Z</time>
      </trkpt>
      <trkpt lat="43.45888" lon="-0.35254">
        <ele>154.3</ele>
        <time>2026-08-31T10:15:48Z</time>
      </trkpt>
      <trkpt lat="43.45888" lon="-0.35254">
        <ele>154.3</ele>
        <time>2026-08-31T10:15:48Z</time>
      </trkpt>
      <trkpt lat="43.45887" lon="-0.35254">
        <ele>153.3</ele>
        <time>2026-08-31T10:15:49Z</time>
      </trkpt>
      <trkpt lat="43.45886" lon="-0.35253">
        <ele>153.3</ele>
        <time>2026-08-31T10:15:49Z</time>
      </trkpt>
      <trkpt lat="43.45886" lon="-0.35253">
        <ele>153.3</ele>
        <time>2026-08-31T10:15:50Z</time>
      </trkpt>
      <trkpt lat="43.45885" lon="-0.35253">
        <ele>153.3</ele>
        <time>2026-08-31T10:15:51Z</time>
      </trkpt>
      <trkpt lat="43.45885" lon="-0.35253">
        <ele>152.3</ele>
        <time>2026-08-31T10:15:51Z</time>
      </trkpt>
      <trkpt lat="43.45884" lon="-0.35253">
        <ele>152.3</ele>
        <time>2026-08-31T10:15:52Z</time>
      </trkpt>
      <trkpt lat="43.45884" lon="-0.35253">
        <ele>153.3</ele>
        <time>2026-08-31T10:15:52Z</time>
      </trkpt>
      <trkpt lat="43.45883" lon="-0.35252">
        <ele>152.3</ele>
        <time>2026-08-31T10:15:53Z</time>
      </trkpt>
      <trkpt lat="43.45882" lon="-0.35252">
        <ele>152.3</ele>
        <time>2026-08-31T10:15:53Z</time>
      </trkpt>
      <trkpt lat="43.45882" lon="-0.35252">
        <ele>152.3</ele>
        <time>2026-08-31T10:15:54Z</time>
      </trkpt>
      <trkpt lat="43.45881" lon="-0.35251">
        <ele>152.3</ele>
        <time>2026-08-31T10:15:54Z</time>
      </trkpt>
      <trkpt lat="43.45881" lon="-0.35251">
        <ele>152.3</ele>
        <time>2026-08-31T10:15:55Z</time>
      </trkpt>
      <trkpt lat="43.4588" lon="-0.35251">
        <ele>152.3</ele>
        <time>2026-08-31T10:15:55Z</time>
      </trkpt>
      <trkpt lat="43.4588" lon="-0.3525">
        <ele>151.3</ele>
        <time>2026-08-31T10:15:56Z</time>
      </trkpt>
      <trkpt lat="43.45879" lon="-0.3525">
        <ele>151.3</ele>
        <time>2026-08-31T10:15:57Z</time>
      </trkpt>
      <trkpt lat="43.45878" lon="-0.3525">
        <ele>152.3</ele>
        <time>2026-08-31T10:15:57Z</time>
      </trkpt>
      <trkpt lat="43.45878" lon="-0.35249">
        <ele>152.3</ele>
        <time>2026-08-31T10:15:58Z</time>
      </trkpt>
      <trkpt lat="43.45877" lon="-0.35249">
        <ele>152.3</ele>
        <time>2026-08-31T10:15:58Z</time>
      </trkpt>
      <trkpt lat="43.45877" lon="-0.35249">
        <ele>152.3</ele>
        <time>2026-08-31T10:15:59Z</time>
      </trkpt>
      <trkpt lat="43.45877" lon="-0.35249">
        <ele>152.3</ele>
        <time>2026-08-31T10:15:59Z</time>
      </trkpt>
      <trkpt lat="43.45876" lon="-0.35249">
        <ele>152.3</ele>
        <time>2026-08-31T10:16:00Z</time>
      </trkpt>
      <trkpt lat="43.45876" lon="-0.35248">
        <ele>152.3</ele>
        <time>2026-08-31T10:16:00Z</time>
      </trkpt>
      <trkpt lat="43.45875" lon="-0.35248">
        <ele>151.3</ele>
        <time>2026-08-31T10:16:01Z</time>
      </trkpt>
      <trkpt lat="43.45875" lon="-0.35247">
        <ele>151.3</ele>
        <time>2026-08-31T10:16:01Z</time>
      </trkpt>
      <trkpt lat="43.45874" lon="-0.35247">
        <ele>151.3</ele>
        <time>2026-08-31T10:16:02Z</time>
      </trkpt>
      <trkpt lat="43.45874" lon="-0.35246">
        <ele>151.3</ele>
        <time>2026-08-31T10:16:03Z</time>
      </trkpt>
      <trkpt lat="43.45873" lon="-0.35246">
        <ele>151.3</ele>
        <time>2026-08-31T10:16:03Z</time>
      </trkpt>
      <trkpt lat="43.45873" lon="-0.35245">
        <ele>151.3</ele>
        <time>2026-08-31T10:16:04Z</time>
      </trkpt>
      <trkpt lat="43.45872" lon="-0.35245">
        <ele>151.3</ele>
        <time>2026-08-31T10:16:04Z</time>
      </trkpt>
      <trkpt lat="43.45872" lon="-0.35244">
        <ele>151.3</ele>
        <time>2026-08-31T10:16:05Z</time>
      </trkpt>
      <trkpt lat="43.45872" lon="-0.35243">
        <ele>151.3</ele>
        <time>2026-08-31T10:16:05Z</time>
      </trkpt>
      <trkpt lat="43.45871" lon="-0.35243">
        <ele>150.3</ele>
        <time>2026-08-31T10:16:06Z</time>
      </trkpt>
      <trkpt lat="43.45871" lon="-0.35243">
        <ele>150.3</ele>
        <time>2026-08-31T10:16:06Z</time>
      </trkpt>
      <trkpt lat="43.45871" lon="-0.35243">
        <ele>151.3</ele>
        <time>2026-08-31T10:16:07Z</time>
      </trkpt>
      <trkpt lat="43.4587" lon="-0.35242">
        <ele>151.3</ele>
        <time>2026-08-31T10:16:07Z</time>
      </trkpt>
      <trkpt lat="43.4587" lon="-0.35241">
        <ele>151.3</ele>
        <time>2026-08-31T10:16:08Z</time>
      </trkpt>
      <trkpt lat="43.4587" lon="-0.35241">
        <ele>151.3</ele>
        <time>2026-08-31T10:16:09Z</time>
      </trkpt>
      <trkpt lat="43.45869" lon="-0.3524">
        <ele>150.3</ele>
        <time>2026-08-31T10:16:09Z</time>
      </trkpt>
      <trkpt lat="43.45869" lon="-0.35239">
        <ele>150.3</ele>
        <time>2026-08-31T10:16:10Z</time>
      </trkpt>
      <trkpt lat="43.45869" lon="-0.35239">
        <ele>150.3</ele>
        <time>2026-08-31T10:16:10Z</time>
      </trkpt>
      <trkpt lat="43.45869" lon="-0.35238">
        <ele>150.3</ele>
        <time>2026-08-31T10:16:11Z</time>
      </trkpt>
      <trkpt lat="43.45869" lon="-0.35237">
        <ele>150.3</ele>
        <time>2026-08-31T10:16:11Z</time>
      </trkpt>
      <trkpt lat="43.45869" lon="-0.35237">
        <ele>150.3</ele>
        <time>2026-08-31T10:16:12Z</time>
      </trkpt>
      <trkpt lat="43.45868" lon="-0.35236">
        <ele>150.3</ele>
        <time>2026-08-31T10:16:12Z</time>
      </trkpt>
      <trkpt lat="43.45868" lon="-0.35235">
        <ele>149.3</ele>
        <time>2026-08-31T10:16:13Z</time>
      </trkpt>
      <trkpt lat="43.45868" lon="-0.35234">
        <ele>149.3</ele>
        <time>2026-08-31T10:16:14Z</time>
      </trkpt>
      <trkpt lat="43.45868" lon="-0.35233">
        <ele>150.3</ele>
        <time>2026-08-31T10:16:14Z</time>
      </trkpt>
      <trkpt lat="43.45868" lon="-0.35232">
        <ele>150.3</ele>
        <time>2026-08-31T10:16:15Z</time>
      </trkpt>
      <trkpt lat="43.45868" lon="-0.35232">
        <ele>149.3</ele>
        <time>2026-08-31T10:16:15Z</time>
      </trkpt>
      <trkpt lat="43.45868" lon="-0.35231">
        <ele>149.3</ele>
        <time>2026-08-31T10:16:16Z</time>
      </trkpt>
      <trkpt lat="43.45868" lon="-0.3523">
        <ele>149.3</ele>
        <time>2026-08-31T10:16:16Z</time>
      </trkpt>
      <trkpt lat="43.45868" lon="-0.35229">
        <ele>149.3</ele>
        <time>2026-08-31T10:16:17Z</time>
      </trkpt>
      <trkpt lat="43.45868" lon="-0.35229">
        <ele>149.3</ele>
        <time>2026-08-31T10:16:17Z</time>
      </trkpt>
      <trkpt lat="43.45868" lon="-0.35228">
        <ele>149.3</ele>
        <time>2026-08-31T10:16:18Z</time>
      </trkpt>
      <trkpt lat="43.45868" lon="-0.35227">
        <ele>149.3</ele>
        <time>2026-08-31T10:16:18Z</time>
      </trkpt>
      <trkpt lat="43.45867" lon="-0.35226">
        <ele>148.3</ele>
        <time>2026-08-31T10:16:19Z</time>
      </trkpt>
      <trkpt lat="43.45867" lon="-0.35225">
        <ele>148.3</ele>
        <time>2026-08-31T10:16:20Z</time>
      </trkpt>
      <trkpt lat="43.45867" lon="-0.35224">
        <ele>148.3</ele>
        <time>2026-08-31T10:16:20Z</time>
      </trkpt>
      <trkpt lat="43.45867" lon="-0.35224">
        <ele>148.3</ele>
        <time>2026-08-31T10:16:21Z</time>
      </trkpt>
      <trkpt lat="43.45867" lon="-0.35223">
        <ele>148.3</ele>
        <time>2026-08-31T10:16:21Z</time>
      </trkpt>
      <trkpt lat="43.45866" lon="-0.35222">
        <ele>147.3</ele>
        <time>2026-08-31T10:16:22Z</time>
      </trkpt>
      <trkpt lat="43.45866" lon="-0.35221">
        <ele>147.3</ele>
        <time>2026-08-31T10:16:22Z</time>
      </trkpt>
      <trkpt lat="43.45866" lon="-0.35221">
        <ele>147.3</ele>
        <time>2026-08-31T10:16:23Z</time>
      </trkpt>
      <trkpt lat="43.45865" lon="-0.3522">
        <ele>147.3</ele>
        <time>2026-08-31T10:16:23Z</time>
      </trkpt>
      <trkpt lat="43.45865" lon="-0.35219">
        <ele>147.3</ele>
        <time>2026-08-31T10:16:24Z</time>
      </trkpt>
      <trkpt lat="43.45865" lon="-0.35219">
        <ele>147.3</ele>
        <time>2026-08-31T10:16:25Z</time>
      </trkpt>
      <trkpt lat="43.45864" lon="-0.35218">
        <ele>147.3</ele>
        <time>2026-08-31T10:16:25Z</time>
      </trkpt>
      <trkpt lat="43.45864" lon="-0.35217">
        <ele>147.3</ele>
        <time>2026-08-31T10:16:26Z</time>
      </trkpt>
      <trkpt lat="43.45864" lon="-0.35216">
        <ele>147.3</ele>
        <time>2026-08-31T10:16:26Z</time>
      </trkpt>
      <trkpt lat="43.45864" lon="-0.35216">
        <ele>147.3</ele>
        <time>2026-08-31T10:16:27Z</time>
      </trkpt>
      <trkpt lat="43.45864" lon="-0.35215">
        <ele>147.3</ele>
        <time>2026-08-31T10:16:27Z</time>
      </trkpt>
      <trkpt lat="43.45863" lon="-0.35215">
        <ele>147.3</ele>
        <time>2026-08-31T10:16:28Z</time>
      </trkpt>
      <trkpt lat="43.45863" lon="-0.35214">
        <ele>147.3</ele>
        <time>2026-08-31T10:16:28Z</time>
      </trkpt>
      <trkpt lat="43.45863" lon="-0.35214">
        <ele>147.3</ele>
        <time>2026-08-31T10:16:29Z</time>
      </trkpt>
      <trkpt lat="43.45862" lon="-0.35213">
        <ele>147.3</ele>
        <time>2026-08-31T10:16:30Z</time>
      </trkpt>
      <trkpt lat="43.45862" lon="-0.35212">
        <ele>147.3</ele>
        <time>2026-08-31T10:16:30Z</time>
      </trkpt>
      <trkpt lat="43.45861" lon="-0.35212">
        <ele>147.3</ele>
        <time>2026-08-31T10:16:31Z</time>
      </trkpt>
      <trkpt lat="43.45861" lon="-0.35211">
        <ele>147.3</ele>
        <time>2026-08-31T10:16:31Z</time>
      </trkpt>
      <trkpt lat="43.45861" lon="-0.35211">
        <ele>147.3</ele>
        <time>2026-08-31T10:16:32Z</time>
      </trkpt>
      <trkpt lat="43.45861" lon="-0.3521">
        <ele>147.3</ele>
        <time>2026-08-31T10:16:32Z</time>
      </trkpt>
      <trkpt lat="43.4586" lon="-0.35209">
        <ele>146.3</ele>
        <time>2026-08-31T10:16:33Z</time>
      </trkpt>
      <trkpt lat="43.4586" lon="-0.35209">
        <ele>146.3</ele>
        <time>2026-08-31T10:16:33Z</time>
      </trkpt>
      <trkpt lat="43.4586" lon="-0.35208">
        <ele>146.3</ele>
        <time>2026-08-31T10:16:34Z</time>
      </trkpt>
      <trkpt lat="43.45859" lon="-0.35207">
        <ele>146.3</ele>
        <time>2026-08-31T10:16:35Z</time>
      </trkpt>
      <trkpt lat="43.45859" lon="-0.35206">
        <ele>147.3</ele>
        <time>2026-08-31T10:16:35Z</time>
      </trkpt>
      <trkpt lat="43.45859" lon="-0.35206">
        <ele>147.3</ele>
        <time>2026-08-31T10:16:36Z</time>
      </trkpt>
      <trkpt lat="43.45858" lon="-0.35205">
        <ele>146.3</ele>
        <time>2026-08-31T10:16:36Z</time>
      </trkpt>
      <trkpt lat="43.45858" lon="-0.35204">
        <ele>146.3</ele>
        <time>2026-08-31T10:16:37Z</time>
      </trkpt>
      <trkpt lat="43.45858" lon="-0.35204">
        <ele>146.3</ele>
        <time>2026-08-31T10:16:37Z</time>
      </trkpt>
      <trkpt lat="43.45858" lon="-0.35203">
        <ele>146.3</ele>
        <time>2026-08-31T10:16:38Z</time>
      </trkpt>
      <trkpt lat="43.45858" lon="-0.35202">
        <ele>146.3</ele>
        <time>2026-08-31T10:16:38Z</time>
      </trkpt>
      <trkpt lat="43.45858" lon="-0.35201">
        <ele>146.3</ele>
        <time>2026-08-31T10:16:39Z</time>
      </trkpt>
      <trkpt lat="43.45858" lon="-0.35201">
        <ele>146.3</ele>
        <time>2026-08-31T10:16:40Z</time>
      </trkpt>
      <trkpt lat="43.45858" lon="-0.352">
        <ele>146.3</ele>
        <time>2026-08-31T10:16:40Z</time>
      </trkpt>
      <trkpt lat="43.45857" lon="-0.35199">
        <ele>146.3</ele>
        <time>2026-08-31T10:16:41Z</time>
      </trkpt>
      <trkpt lat="43.45857" lon="-0.35198">
        <ele>146.3</ele>
        <time>2026-08-31T10:16:41Z</time>
      </trkpt>
      <trkpt lat="43.45857" lon="-0.35197">
        <ele>146.3</ele>
        <time>2026-08-31T10:16:42Z</time>
      </trkpt>
      <trkpt lat="43.45857" lon="-0.35196">
        <ele>146.3</ele>
        <time>2026-08-31T10:16:42Z</time>
      </trkpt>
      <trkpt lat="43.45857" lon="-0.35196">
        <ele>146.3</ele>
        <time>2026-08-31T10:16:43Z</time>
      </trkpt>
      <trkpt lat="43.45857" lon="-0.35195">
        <ele>146.3</ele>
        <time>2026-08-31T10:16:43Z</time>
      </trkpt>
      <trkpt lat="43.45857" lon="-0.35194">
        <ele>145.3</ele>
        <time>2026-08-31T10:16:44Z</time>
      </trkpt>
      <trkpt lat="43.45857" lon="-0.35193">
        <ele>145.3</ele>
        <time>2026-08-31T10:16:45Z</time>
      </trkpt>
      <trkpt lat="43.45857" lon="-0.35192">
        <ele>146.3</ele>
        <time>2026-08-31T10:16:45Z</time>
      </trkpt>
      <trkpt lat="43.45857" lon="-0.35192">
        <ele>146.3</ele>
        <time>2026-08-31T10:16:46Z</time>
      </trkpt>
      <trkpt lat="43.45856" lon="-0.35191">
        <ele>146.3</ele>
        <time>2026-08-31T10:16:46Z</time>
      </trkpt>
      <trkpt lat="43.45856" lon="-0.3519">
        <ele>146.3</ele>
        <time>2026-08-31T10:16:47Z</time>
      </trkpt>
      <trkpt lat="43.45856" lon="-0.35189">
        <ele>146.3</ele>
        <time>2026-08-31T10:16:47Z</time>
      </trkpt>
      <trkpt lat="43.45856" lon="-0.35188">
        <ele>146.3</ele>
        <time>2026-08-31T10:16:48Z</time>
      </trkpt>
      <trkpt lat="43.45856" lon="-0.35187">
        <ele>146.3</ele>
        <time>2026-08-31T10:16:49Z</time>
      </trkpt>
      <trkpt lat="43.45855" lon="-0.35186">
        <ele>146.3</ele>
        <time>2026-08-31T10:16:49Z</time>
      </trkpt>
      <trkpt lat="43.45855" lon="-0.35185">
        <ele>146.3</ele>
        <time>2026-08-31T10:16:50Z</time>
      </trkpt>
      <trkpt lat="43.45855" lon="-0.35184">
        <ele>146.3</ele>
        <time>2026-08-31T10:16:50Z</time>
      </trkpt>
      <trkpt lat="43.45855" lon="-0.35184">
        <ele>146.3</ele>
        <time>2026-08-31T10:16:51Z</time>
      </trkpt>
      <trkpt lat="43.45855" lon="-0.35183">
        <ele>146.3</ele>
        <time>2026-08-31T10:16:51Z</time>
      </trkpt>
      <trkpt lat="43.45855" lon="-0.35182">
        <ele>146.3</ele>
        <time>2026-08-31T10:16:52Z</time>
      </trkpt>
      <trkpt lat="43.45854" lon="-0.35181">
        <ele>146.3</ele>
        <time>2026-08-31T10:16:52Z</time>
      </trkpt>
      <trkpt lat="43.45854" lon="-0.35179">
        <ele>146.3</ele>
        <time>2026-08-31T10:16:53Z</time>
      </trkpt>
      <trkpt lat="43.45854" lon="-0.35179">
        <ele>146.3</ele>
        <time>2026-08-31T10:16:54Z</time>
      </trkpt>
      <trkpt lat="43.45854" lon="-0.35177">
        <ele>146.3</ele>
        <time>2026-08-31T10:16:54Z</time>
      </trkpt>
      <trkpt lat="43.45854" lon="-0.35177">
        <ele>146.3</ele>
        <time>2026-08-31T10:16:55Z</time>
      </trkpt>
      <trkpt lat="43.45853" lon="-0.35175">
        <ele>146.3</ele>
        <time>2026-08-31T10:16:55Z</time>
      </trkpt>
      <trkpt lat="43.45853" lon="-0.35174">
        <ele>147.3</ele>
        <time>2026-08-31T10:16:56Z</time>
      </trkpt>
      <trkpt lat="43.45853" lon="-0.35173">
        <ele>147.3</ele>
        <time>2026-08-31T10:16:56Z</time>
      </trkpt>
      <trkpt lat="43.45853" lon="-0.35172">
        <ele>147.3</ele>
        <time>2026-08-31T10:16:57Z</time>
      </trkpt>
      <trkpt lat="43.45853" lon="-0.35171">
        <ele>147.3</ele>
        <time>2026-08-31T10:16:57Z</time>
      </trkpt>
      <trkpt lat="43.45852" lon="-0.3517">
        <ele>147.3</ele>
        <time>2026-08-31T10:16:58Z</time>
      </trkpt>
      <trkpt lat="43.45852" lon="-0.35169">
        <ele>147.3</ele>
        <time>2026-08-31T10:16:59Z</time>
      </trkpt>
      <trkpt lat="43.45852" lon="-0.35168">
        <ele>147.3</ele>
        <time>2026-08-31T10:16:59Z</time>
      </trkpt>
      <trkpt lat="43.45851" lon="-0.35167">
        <ele>147.3</ele>
        <time>2026-08-31T10:17:00Z</time>
      </trkpt>
      <trkpt lat="43.45851" lon="-0.35166">
        <ele>147.3</ele>
        <time>2026-08-31T10:17:00Z</time>
      </trkpt>
      <trkpt lat="43.45851" lon="-0.35165">
        <ele>147.3</ele>
        <time>2026-08-31T10:17:01Z</time>
      </trkpt>
      <trkpt lat="43.45851" lon="-0.35164">
        <ele>147.3</ele>
        <time>2026-08-31T10:17:01Z</time>
      </trkpt>
      <trkpt lat="43.4585" lon="-0.35163">
        <ele>147.3</ele>
        <time>2026-08-31T10:17:02Z</time>
      </trkpt>
      <trkpt lat="43.4585" lon="-0.35162">
        <ele>147.3</ele>
        <time>2026-08-31T10:17:03Z</time>
      </trkpt>
      <trkpt lat="43.45849" lon="-0.35161">
        <ele>148.3</ele>
        <time>2026-08-31T10:17:03Z</time>
      </trkpt>
      <trkpt lat="43.45849" lon="-0.3516">
        <ele>148.3</ele>
        <time>2026-08-31T10:17:04Z</time>
      </trkpt>
      <trkpt lat="43.45849" lon="-0.35159">
        <ele>148.3</ele>
        <time>2026-08-31T10:17:04Z</time>
      </trkpt>
      <trkpt lat="43.45848" lon="-0.35158">
        <ele>148.3</ele>
        <time>2026-08-31T10:17:05Z</time>
      </trkpt>
      <trkpt lat="43.45848" lon="-0.35157">
        <ele>148.3</ele>
        <time>2026-08-31T10:17:05Z</time>
      </trkpt>
      <trkpt lat="43.45848" lon="-0.35156">
        <ele>148.3</ele>
        <time>2026-08-31T10:17:06Z</time>
      </trkpt>
      <trkpt lat="43.45847" lon="-0.35155">
        <ele>148.3</ele>
        <time>2026-08-31T10:17:07Z</time>
      </trkpt>
      <trkpt lat="43.45847" lon="-0.35154">
        <ele>148.3</ele>
        <time>2026-08-31T10:17:07Z</time>
      </trkpt>
      <trkpt lat="43.45847" lon="-0.35154">
        <ele>148.3</ele>
        <time>2026-08-31T10:17:08Z</time>
      </trkpt>
      <trkpt lat="43.45847" lon="-0.35153">
        <ele>148.3</ele>
        <time>2026-08-31T10:17:08Z</time>
      </trkpt>
      <trkpt lat="43.45846" lon="-0.35152">
        <ele>149.3</ele>
        <time>2026-08-31T10:17:09Z</time>
      </trkpt>
      <trkpt lat="43.45846" lon="-0.35151">
        <ele>149.3</ele>
        <time>2026-08-31T10:17:09Z</time>
      </trkpt>
      <trkpt lat="43.45845" lon="-0.3515">
        <ele>150.3</ele>
        <time>2026-08-31T10:17:10Z</time>
      </trkpt>
      <trkpt lat="43.45845" lon="-0.35149">
        <ele>150.3</ele>
        <time>2026-08-31T10:17:11Z</time>
      </trkpt>
      <trkpt lat="43.45845" lon="-0.35149">
        <ele>150.3</ele>
        <time>2026-08-31T10:17:11Z</time>
      </trkpt>
      <trkpt lat="43.45844" lon="-0.35148">
        <ele>150.3</ele>
        <time>2026-08-31T10:17:12Z</time>
      </trkpt>
      <trkpt lat="43.45844" lon="-0.35147">
        <ele>150.3</ele>
        <time>2026-08-31T10:17:12Z</time>
      </trkpt>
      <trkpt lat="43.45844" lon="-0.35146">
        <ele>151.3</ele>
        <time>2026-08-31T10:17:13Z</time>
      </trkpt>
      <trkpt lat="43.45843" lon="-0.35145">
        <ele>151.3</ele>
        <time>2026-08-31T10:17:13Z</time>
      </trkpt>
      <trkpt lat="43.45843" lon="-0.35144">
        <ele>151.3</ele>
        <time>2026-08-31T10:17:14Z</time>
      </trkpt>
      <trkpt lat="43.45843" lon="-0.35144">
        <ele>151.3</ele>
        <time>2026-08-31T10:17:14Z</time>
      </trkpt>
      <trkpt lat="43.45842" lon="-0.35143">
        <ele>151.3</ele>
        <time>2026-08-31T10:17:15Z</time>
      </trkpt>
      <trkpt lat="43.45842" lon="-0.35142">
        <ele>151.3</ele>
        <time>2026-08-31T10:17:16Z</time>
      </trkpt>
      <trkpt lat="43.45841" lon="-0.35142">
        <ele>151.3</ele>
        <time>2026-08-31T10:17:16Z</time>
      </trkpt>
      <trkpt lat="43.45841" lon="-0.35141">
        <ele>151.3</ele>
        <time>2026-08-31T10:17:17Z</time>
      </trkpt>
      <trkpt lat="43.45841" lon="-0.3514">
        <ele>151.3</ele>
        <time>2026-08-31T10:17:17Z</time>
      </trkpt>
      <trkpt lat="43.4584" lon="-0.35139">
        <ele>152.3</ele>
        <time>2026-08-31T10:17:18Z</time>
      </trkpt>
      <trkpt lat="43.4584" lon="-0.35139">
        <ele>152.3</ele>
        <time>2026-08-31T10:17:18Z</time>
      </trkpt>
      <trkpt lat="43.4584" lon="-0.35138">
        <ele>152.3</ele>
        <time>2026-08-31T10:17:19Z</time>
      </trkpt>
      <trkpt lat="43.45839" lon="-0.35137">
        <ele>152.3</ele>
        <time>2026-08-31T10:17:20Z</time>
      </trkpt>
      <trkpt lat="43.45839" lon="-0.35136">
        <ele>152.3</ele>
        <time>2026-08-31T10:17:20Z</time>
      </trkpt>
      <trkpt lat="43.45838" lon="-0.35136">
        <ele>152.3</ele>
        <time>2026-08-31T10:17:21Z</time>
      </trkpt>
      <trkpt lat="43.45838" lon="-0.35135">
        <ele>151.3</ele>
        <time>2026-08-31T10:17:21Z</time>
      </trkpt>
      <trkpt lat="43.45838" lon="-0.35134">
        <ele>151.3</ele>
        <time>2026-08-31T10:17:22Z</time>
      </trkpt>
      <trkpt lat="43.45837" lon="-0.35133">
        <ele>151.3</ele>
        <time>2026-08-31T10:17:22Z</time>
      </trkpt>
      <trkpt lat="43.45837" lon="-0.35132">
        <ele>152.3</ele>
        <time>2026-08-31T10:17:24Z</time>
      </trkpt>
      <trkpt lat="43.45836" lon="-0.35131">
        <ele>152.3</ele>
        <time>2026-08-31T10:17:24Z</time>
      </trkpt>
      <trkpt lat="43.45836" lon="-0.3513">
        <ele>152.3</ele>
        <time>2026-08-31T10:17:25Z</time>
      </trkpt>
      <trkpt lat="43.45836" lon="-0.35129">
        <ele>152.3</ele>
        <time>2026-08-31T10:17:25Z</time>
      </trkpt>
      <trkpt lat="43.45836" lon="-0.35128">
        <ele>152.3</ele>
        <time>2026-08-31T10:17:26Z</time>
      </trkpt>
      <trkpt lat="43.45835" lon="-0.35127">
        <ele>152.3</ele>
        <time>2026-08-31T10:17:26Z</time>
      </trkpt>
      <trkpt lat="43.45835" lon="-0.35126">
        <ele>152.3</ele>
        <time>2026-08-31T10:17:27Z</time>
      </trkpt>
      <trkpt lat="43.45834" lon="-0.35126">
        <ele>152.3</ele>
        <time>2026-08-31T10:17:28Z</time>
      </trkpt>
      <trkpt lat="43.45834" lon="-0.35125">
        <ele>152.3</ele>
        <time>2026-08-31T10:17:28Z</time>
      </trkpt>
      <trkpt lat="43.45834" lon="-0.35124">
        <ele>152.3</ele>
        <time>2026-08-31T10:17:29Z</time>
      </trkpt>
      <trkpt lat="43.45833" lon="-0.35123">
        <ele>152.3</ele>
        <time>2026-08-31T10:17:29Z</time>
      </trkpt>
      <trkpt lat="43.45833" lon="-0.35122">
        <ele>152.3</ele>
        <time>2026-08-31T10:17:30Z</time>
      </trkpt>
      <trkpt lat="43.45832" lon="-0.35121">
        <ele>152.3</ele>
        <time>2026-08-31T10:17:30Z</time>
      </trkpt>
      <trkpt lat="43.45832" lon="-0.3512">
        <ele>152.3</ele>
        <time>2026-08-31T10:17:31Z</time>
      </trkpt>
      <trkpt lat="43.45832" lon="-0.35119">
        <ele>152.3</ele>
        <time>2026-08-31T10:17:32Z</time>
      </trkpt>
      <trkpt lat="43.45831" lon="-0.35118">
        <ele>152.3</ele>
        <time>2026-08-31T10:17:32Z</time>
      </trkpt>
      <trkpt lat="43.45831" lon="-0.35117">
        <ele>152.3</ele>
        <time>2026-08-31T10:17:33Z</time>
      </trkpt>
      <trkpt lat="43.45831" lon="-0.35116">
        <ele>152.3</ele>
        <time>2026-08-31T10:17:33Z</time>
      </trkpt>
      <trkpt lat="43.4583" lon="-0.35115">
        <ele>152.3</ele>
        <time>2026-08-31T10:17:34Z</time>
      </trkpt>
      <trkpt lat="43.4583" lon="-0.35114">
        <ele>152.3</ele>
        <time>2026-08-31T10:17:34Z</time>
      </trkpt>
      <trkpt lat="43.45829" lon="-0.35114">
        <ele>152.3</ele>
        <time>2026-08-31T10:17:35Z</time>
      </trkpt>
      <trkpt lat="43.45829" lon="-0.35113">
        <ele>152.3</ele>
        <time>2026-08-31T10:17:36Z</time>
      </trkpt>
      <trkpt lat="43.45829" lon="-0.35112">
        <ele>152.3</ele>
        <time>2026-08-31T10:17:36Z</time>
      </trkpt>
      <trkpt lat="43.45828" lon="-0.35111">
        <ele>152.3</ele>
        <time>2026-08-31T10:17:37Z</time>
      </trkpt>
      <trkpt lat="43.45828" lon="-0.3511">
        <ele>152.3</ele>
        <time>2026-08-31T10:17:37Z</time>
      </trkpt>
      <trkpt lat="43.45827" lon="-0.35109">
        <ele>153.3</ele>
        <time>2026-08-31T10:17:38Z</time>
      </trkpt>
      <trkpt lat="43.45827" lon="-0.35108">
        <ele>153.3</ele>
        <time>2026-08-31T10:17:38Z</time>
      </trkpt>
      <trkpt lat="43.45826" lon="-0.35108">
        <ele>152.3</ele>
        <time>2026-08-31T10:17:39Z</time>
      </trkpt>
      <trkpt lat="43.45826" lon="-0.35107">
        <ele>152.3</ele>
        <time>2026-08-31T10:17:39Z</time>
      </trkpt>
      <trkpt lat="43.45825" lon="-0.35106">
        <ele>152.3</ele>
        <time>2026-08-31T10:17:40Z</time>
      </trkpt>
      <trkpt lat="43.45825" lon="-0.35105">
        <ele>152.3</ele>
        <time>2026-08-31T10:17:41Z</time>
      </trkpt>
      <trkpt lat="43.45824" lon="-0.35104">
        <ele>153.3</ele>
        <time>2026-08-31T10:17:41Z</time>
      </trkpt>
      <trkpt lat="43.45824" lon="-0.35104">
        <ele>153.3</ele>
        <time>2026-08-31T10:17:42Z</time>
      </trkpt>
      <trkpt lat="43.45823" lon="-0.35103">
        <ele>153.3</ele>
        <time>2026-08-31T10:17:42Z</time>
      </trkpt>
      <trkpt lat="43.45823" lon="-0.35102">
        <ele>153.3</ele>
        <time>2026-08-31T10:17:43Z</time>
      </trkpt>
      <trkpt lat="43.45822" lon="-0.35101">
        <ele>153.3</ele>
        <time>2026-08-31T10:17:43Z</time>
      </trkpt>
      <trkpt lat="43.45822" lon="-0.35101">
        <ele>153.3</ele>
        <time>2026-08-31T10:17:44Z</time>
      </trkpt>
      <trkpt lat="43.45821" lon="-0.351">
        <ele>153.3</ele>
        <time>2026-08-31T10:17:45Z</time>
      </trkpt>
      <trkpt lat="43.45821" lon="-0.35099">
        <ele>153.3</ele>
        <time>2026-08-31T10:17:45Z</time>
      </trkpt>
      <trkpt lat="43.4582" lon="-0.35098">
        <ele>154.3</ele>
        <time>2026-08-31T10:17:46Z</time>
      </trkpt>
      <trkpt lat="43.4582" lon="-0.35098">
        <ele>154.3</ele>
        <time>2026-08-31T10:17:46Z</time>
      </trkpt>
      <trkpt lat="43.45819" lon="-0.35097">
        <ele>154.3</ele>
        <time>2026-08-31T10:17:47Z</time>
      </trkpt>
      <trkpt lat="43.45818" lon="-0.35096">
        <ele>154.3</ele>
        <time>2026-08-31T10:17:47Z</time>
      </trkpt>
      <trkpt lat="43.45817" lon="-0.35096">
        <ele>154.3</ele>
        <time>2026-08-31T10:17:48Z</time>
      </trkpt>
      <trkpt lat="43.45817" lon="-0.35095">
        <ele>154.3</ele>
        <time>2026-08-31T10:17:49Z</time>
      </trkpt>
      <trkpt lat="43.45816" lon="-0.35094">
        <ele>154.3</ele>
        <time>2026-08-31T10:17:49Z</time>
      </trkpt>
      <trkpt lat="43.45816" lon="-0.35094">
        <ele>154.3</ele>
        <time>2026-08-31T10:17:50Z</time>
      </trkpt>
      <trkpt lat="43.45815" lon="-0.35093">
        <ele>155.3</ele>
        <time>2026-08-31T10:17:50Z</time>
      </trkpt>
      <trkpt lat="43.45814" lon="-0.35092">
        <ele>154.3</ele>
        <time>2026-08-31T10:17:51Z</time>
      </trkpt>
      <trkpt lat="43.45813" lon="-0.35092">
        <ele>154.3</ele>
        <time>2026-08-31T10:17:51Z</time>
      </trkpt>
      <trkpt lat="43.45813" lon="-0.35091">
        <ele>155.3</ele>
        <time>2026-08-31T10:17:52Z</time>
      </trkpt>
      <trkpt lat="43.45812" lon="-0.3509">
        <ele>155.3</ele>
        <time>2026-08-31T10:17:53Z</time>
      </trkpt>
      <trkpt lat="43.45811" lon="-0.3509">
        <ele>155.3</ele>
        <time>2026-08-31T10:17:53Z</time>
      </trkpt>
      <trkpt lat="43.4581" lon="-0.35089">
        <ele>155.3</ele>
        <time>2026-08-31T10:17:54Z</time>
      </trkpt>
      <trkpt lat="43.4581" lon="-0.35088">
        <ele>156.3</ele>
        <time>2026-08-31T10:17:54Z</time>
      </trkpt>
      <trkpt lat="43.45809" lon="-0.35088">
        <ele>156.3</ele>
        <time>2026-08-31T10:17:55Z</time>
      </trkpt>
      <trkpt lat="43.45808" lon="-0.35087">
        <ele>156.3</ele>
        <time>2026-08-31T10:17:55Z</time>
      </trkpt>
      <trkpt lat="43.45807" lon="-0.35086">
        <ele>156.3</ele>
        <time>2026-08-31T10:17:56Z</time>
      </trkpt>
      <trkpt lat="43.45807" lon="-0.35085">
        <ele>156.3</ele>
        <time>2026-08-31T10:17:57Z</time>
      </trkpt>
      <trkpt lat="43.45806" lon="-0.35085">
        <ele>157.3</ele>
        <time>2026-08-31T10:17:57Z</time>
      </trkpt>
      <trkpt lat="43.45805" lon="-0.35084">
        <ele>158.3</ele>
        <time>2026-08-31T10:17:58Z</time>
      </trkpt>
      <trkpt lat="43.45804" lon="-0.35083">
        <ele>158.3</ele>
        <time>2026-08-31T10:17:58Z</time>
      </trkpt>
      <trkpt lat="43.45803" lon="-0.35082">
        <ele>158.3</ele>
        <time>2026-08-31T10:17:59Z</time>
      </trkpt>
      <trkpt lat="43.45803" lon="-0.35082">
        <ele>158.3</ele>
        <time>2026-08-31T10:17:59Z</time>
      </trkpt>
      <trkpt lat="43.45802" lon="-0.35081">
        <ele>158.3</ele>
        <time>2026-08-31T10:18:00Z</time>
      </trkpt>
      <trkpt lat="43.45801" lon="-0.3508">
        <ele>158.3</ele>
        <time>2026-08-31T10:18:01Z</time>
      </trkpt>
      <trkpt lat="43.45801" lon="-0.35079">
        <ele>159.3</ele>
        <time>2026-08-31T10:18:01Z</time>
      </trkpt>
      <trkpt lat="43.458" lon="-0.35079">
        <ele>159.3</ele>
        <time>2026-08-31T10:18:02Z</time>
      </trkpt>
      <trkpt lat="43.45799" lon="-0.35078">
        <ele>159.3</ele>
        <time>2026-08-31T10:18:02Z</time>
      </trkpt>
      <trkpt lat="43.45799" lon="-0.35077">
        <ele>159.3</ele>
        <time>2026-08-31T10:18:03Z</time>
      </trkpt>
      <trkpt lat="43.45798" lon="-0.35076">
        <ele>159.3</ele>
        <time>2026-08-31T10:18:03Z</time>
      </trkpt>
      <trkpt lat="43.45797" lon="-0.35075">
        <ele>160.3</ele>
        <time>2026-08-31T10:18:04Z</time>
      </trkpt>
      <trkpt lat="43.45797" lon="-0.35075">
        <ele>160.3</ele>
        <time>2026-08-31T10:18:05Z</time>
      </trkpt>
      <trkpt lat="43.45796" lon="-0.35074">
        <ele>160.3</ele>
        <time>2026-08-31T10:18:05Z</time>
      </trkpt>
      <trkpt lat="43.45796" lon="-0.35073">
        <ele>161.3</ele>
        <time>2026-08-31T10:18:06Z</time>
      </trkpt>
      <trkpt lat="43.45795" lon="-0.35073">
        <ele>161.3</ele>
        <time>2026-08-31T10:18:06Z</time>
      </trkpt>
      <trkpt lat="43.45794" lon="-0.35072">
        <ele>161.3</ele>
        <time>2026-08-31T10:18:07Z</time>
      </trkpt>
      <trkpt lat="43.45794" lon="-0.35071">
        <ele>161.3</ele>
        <time>2026-08-31T10:18:07Z</time>
      </trkpt>
      <trkpt lat="43.45793" lon="-0.3507">
        <ele>161.3</ele>
        <time>2026-08-31T10:18:08Z</time>
      </trkpt>
      <trkpt lat="43.45793" lon="-0.3507">
        <ele>161.3</ele>
        <time>2026-08-31T10:18:09Z</time>
      </trkpt>
      <trkpt lat="43.45792" lon="-0.35069">
        <ele>162.3</ele>
        <time>2026-08-31T10:18:09Z</time>
      </trkpt>
      <trkpt lat="43.45792" lon="-0.35068">
        <ele>162.3</ele>
        <time>2026-08-31T10:18:10Z</time>
      </trkpt>
      <trkpt lat="43.45791" lon="-0.35068">
        <ele>162.3</ele>
        <time>2026-08-31T10:18:10Z</time>
      </trkpt>
      <trkpt lat="43.45791" lon="-0.35067">
        <ele>162.3</ele>
        <time>2026-08-31T10:18:11Z</time>
      </trkpt>
      <trkpt lat="43.4579" lon="-0.35066">
        <ele>162.3</ele>
        <time>2026-08-31T10:18:11Z</time>
      </trkpt>
      <trkpt lat="43.45789" lon="-0.35066">
        <ele>162.3</ele>
        <time>2026-08-31T10:18:12Z</time>
      </trkpt>
      <trkpt lat="43.45789" lon="-0.35065">
        <ele>162.3</ele>
        <time>2026-08-31T10:18:13Z</time>
      </trkpt>
      <trkpt lat="43.45788" lon="-0.35065">
        <ele>162.3</ele>
        <time>2026-08-31T10:18:13Z</time>
      </trkpt>
      <trkpt lat="43.45788" lon="-0.35064">
        <ele>162.3</ele>
        <time>2026-08-31T10:18:14Z</time>
      </trkpt>
      <trkpt lat="43.45787" lon="-0.35063">
        <ele>162.3</ele>
        <time>2026-08-31T10:18:14Z</time>
      </trkpt>
      <trkpt lat="43.45787" lon="-0.35063">
        <ele>162.3</ele>
        <time>2026-08-31T10:18:15Z</time>
      </trkpt>
      <trkpt lat="43.45786" lon="-0.35062">
        <ele>162.3</ele>
        <time>2026-08-31T10:18:15Z</time>
      </trkpt>
      <trkpt lat="43.45785" lon="-0.35061">
        <ele>162.3</ele>
        <time>2026-08-31T10:18:16Z</time>
      </trkpt>
      <trkpt lat="43.45785" lon="-0.35061">
        <ele>162.3</ele>
        <time>2026-08-31T10:18:17Z</time>
      </trkpt>
      <trkpt lat="43.45784" lon="-0.3506">
        <ele>163.3</ele>
        <time>2026-08-31T10:18:17Z</time>
      </trkpt>
      <trkpt lat="43.45784" lon="-0.35059">
        <ele>163.3</ele>
        <time>2026-08-31T10:18:18Z</time>
      </trkpt>
      <trkpt lat="43.45783" lon="-0.35059">
        <ele>163.3</ele>
        <time>2026-08-31T10:18:18Z</time>
      </trkpt>
      <trkpt lat="43.45783" lon="-0.35058">
        <ele>162.3</ele>
        <time>2026-08-31T10:18:19Z</time>
      </trkpt>
      <trkpt lat="43.45782" lon="-0.35057">
        <ele>162.3</ele>
        <time>2026-08-31T10:18:19Z</time>
      </trkpt>
      <trkpt lat="43.45782" lon="-0.35056">
        <ele>163.3</ele>
        <time>2026-08-31T10:18:20Z</time>
      </trkpt>
      <trkpt lat="43.45781" lon="-0.35056">
        <ele>163.3</ele>
        <time>2026-08-31T10:18:21Z</time>
      </trkpt>
      <trkpt lat="43.4578" lon="-0.35055">
        <ele>162.3</ele>
        <time>2026-08-31T10:18:21Z</time>
      </trkpt>
      <trkpt lat="43.4578" lon="-0.35054">
        <ele>162.3</ele>
        <time>2026-08-31T10:18:22Z</time>
      </trkpt>
      <trkpt lat="43.45779" lon="-0.35054">
        <ele>162.3</ele>
        <time>2026-08-31T10:18:22Z</time>
      </trkpt>
      <trkpt lat="43.45779" lon="-0.35053">
        <ele>163.3</ele>
        <time>2026-08-31T10:18:23Z</time>
      </trkpt>
      <trkpt lat="43.45778" lon="-0.35052">
        <ele>163.3</ele>
        <time>2026-08-31T10:18:23Z</time>
      </trkpt>
      <trkpt lat="43.45777" lon="-0.35052">
        <ele>163.3</ele>
        <time>2026-08-31T10:18:24Z</time>
      </trkpt>
      <trkpt lat="43.45777" lon="-0.35051">
        <ele>163.3</ele>
        <time>2026-08-31T10:18:25Z</time>
      </trkpt>
      <trkpt lat="43.45776" lon="-0.35051">
        <ele>163.3</ele>
        <time>2026-08-31T10:18:25Z</time>
      </trkpt>
      <trkpt lat="43.45776" lon="-0.3505">
        <ele>163.3</ele>
        <time>2026-08-31T10:18:26Z</time>
      </trkpt>
      <trkpt lat="43.45775" lon="-0.3505">
        <ele>163.3</ele>
        <time>2026-08-31T10:18:26Z</time>
      </trkpt>
      <trkpt lat="43.45775" lon="-0.35049">
        <ele>163.3</ele>
        <time>2026-08-31T10:18:27Z</time>
      </trkpt>
      <trkpt lat="43.45774" lon="-0.35049">
        <ele>163.3</ele>
        <time>2026-08-31T10:18:27Z</time>
      </trkpt>
      <trkpt lat="43.45773" lon="-0.35048">
        <ele>163.3</ele>
        <time>2026-08-31T10:18:28Z</time>
      </trkpt>
      <trkpt lat="43.45773" lon="-0.35048">
        <ele>163.3</ele>
        <time>2026-08-31T10:18:29Z</time>
      </trkpt>
      <trkpt lat="43.45772" lon="-0.35047">
        <ele>164.3</ele>
        <time>2026-08-31T10:18:29Z</time>
      </trkpt>
      <trkpt lat="43.45772" lon="-0.35047">
        <ele>164.3</ele>
        <time>2026-08-31T10:18:30Z</time>
      </trkpt>
      <trkpt lat="43.45771" lon="-0.35047">
        <ele>164.3</ele>
        <time>2026-08-31T10:18:30Z</time>
      </trkpt>
      <trkpt lat="43.4577" lon="-0.35046">
        <ele>164.3</ele>
        <time>2026-08-31T10:18:31Z</time>
      </trkpt>
      <trkpt lat="43.4577" lon="-0.35046">
        <ele>164.3</ele>
        <time>2026-08-31T10:18:31Z</time>
      </trkpt>
      <trkpt lat="43.45769" lon="-0.35045">
        <ele>164.3</ele>
        <time>2026-08-31T10:18:32Z</time>
      </trkpt>
      <trkpt lat="43.45768" lon="-0.35045">
        <ele>164.3</ele>
        <time>2026-08-31T10:18:33Z</time>
      </trkpt>
      <trkpt lat="43.45768" lon="-0.35044">
        <ele>164.3</ele>
        <time>2026-08-31T10:18:33Z</time>
      </trkpt>
      <trkpt lat="43.45767" lon="-0.35044">
        <ele>164.3</ele>
        <time>2026-08-31T10:18:34Z</time>
      </trkpt>
      <trkpt lat="43.45766" lon="-0.35043">
        <ele>164.3</ele>
        <time>2026-08-31T10:18:34Z</time>
      </trkpt>
      <trkpt lat="43.45766" lon="-0.35043">
        <ele>164.3</ele>
        <time>2026-08-31T10:18:35Z</time>
      </trkpt>
      <trkpt lat="43.45765" lon="-0.35042">
        <ele>164.3</ele>
        <time>2026-08-31T10:18:36Z</time>
      </trkpt>
      <trkpt lat="43.45765" lon="-0.35042">
        <ele>165.3</ele>
        <time>2026-08-31T10:18:36Z</time>
      </trkpt>
      <trkpt lat="43.45764" lon="-0.35041">
        <ele>165.3</ele>
        <time>2026-08-31T10:18:37Z</time>
      </trkpt>
      <trkpt lat="43.45763" lon="-0.35041">
        <ele>165.3</ele>
        <time>2026-08-31T10:18:37Z</time>
      </trkpt>
      <trkpt lat="43.45762" lon="-0.3504">
        <ele>165.3</ele>
        <time>2026-08-31T10:18:38Z</time>
      </trkpt>
      <trkpt lat="43.45762" lon="-0.3504">
        <ele>165.3</ele>
        <time>2026-08-31T10:18:39Z</time>
      </trkpt>
      <trkpt lat="43.45761" lon="-0.3504">
        <ele>165.3</ele>
        <time>2026-08-31T10:18:39Z</time>
      </trkpt>
      <trkpt lat="43.45761" lon="-0.35039">
        <ele>165.3</ele>
        <time>2026-08-31T10:18:40Z</time>
      </trkpt>
      <trkpt lat="43.4576" lon="-0.35039">
        <ele>165.3</ele>
        <time>2026-08-31T10:18:40Z</time>
      </trkpt>
      <trkpt lat="43.45759" lon="-0.35038">
        <ele>165.3</ele>
        <time>2026-08-31T10:18:41Z</time>
      </trkpt>
      <trkpt lat="43.45759" lon="-0.35038">
        <ele>165.3</ele>
        <time>2026-08-31T10:18:41Z</time>
      </trkpt>
      <trkpt lat="43.45758" lon="-0.35037">
        <ele>165.3</ele>
        <time>2026-08-31T10:18:42Z</time>
      </trkpt>
      <trkpt lat="43.45757" lon="-0.35037">
        <ele>165.3</ele>
        <time>2026-08-31T10:18:43Z</time>
      </trkpt>
      <trkpt lat="43.45757" lon="-0.35036">
        <ele>165.3</ele>
        <time>2026-08-31T10:18:43Z</time>
      </trkpt>
      <trkpt lat="43.45756" lon="-0.35036">
        <ele>165.3</ele>
        <time>2026-08-31T10:18:44Z</time>
      </trkpt>
      <trkpt lat="43.45755" lon="-0.35036">
        <ele>165.3</ele>
        <time>2026-08-31T10:18:44Z</time>
      </trkpt>
      <trkpt lat="43.45755" lon="-0.35035">
        <ele>165.3</ele>
        <time>2026-08-31T10:18:45Z</time>
      </trkpt>
      <trkpt lat="43.45754" lon="-0.35035">
        <ele>165.3</ele>
        <time>2026-08-31T10:18:46Z</time>
      </trkpt>
      <trkpt lat="43.45753" lon="-0.35034">
        <ele>165.3</ele>
        <time>2026-08-31T10:18:46Z</time>
      </trkpt>
      <trkpt lat="43.45753" lon="-0.35034">
        <ele>165.3</ele>
        <time>2026-08-31T10:18:47Z</time>
      </trkpt>
      <trkpt lat="43.45752" lon="-0.35033">
        <ele>165.3</ele>
        <time>2026-08-31T10:18:47Z</time>
      </trkpt>
      <trkpt lat="43.45751" lon="-0.35033">
        <ele>165.3</ele>
        <time>2026-08-31T10:18:48Z</time>
      </trkpt>
      <trkpt lat="43.45751" lon="-0.35032">
        <ele>165.3</ele>
        <time>2026-08-31T10:18:48Z</time>
      </trkpt>
      <trkpt lat="43.4575" lon="-0.35032">
        <ele>165.3</ele>
        <time>2026-08-31T10:18:49Z</time>
      </trkpt>
      <trkpt lat="43.45749" lon="-0.35031">
        <ele>165.3</ele>
        <time>2026-08-31T10:18:50Z</time>
      </trkpt>
      <trkpt lat="43.45749" lon="-0.3503">
        <ele>165.3</ele>
        <time>2026-08-31T10:18:50Z</time>
      </trkpt>
      <trkpt lat="43.45748" lon="-0.3503">
        <ele>166.3</ele>
        <time>2026-08-31T10:18:51Z</time>
      </trkpt>
      <trkpt lat="43.45747" lon="-0.35029">
        <ele>166.3</ele>
        <time>2026-08-31T10:18:51Z</time>
      </trkpt>
      <trkpt lat="43.45747" lon="-0.35029">
        <ele>166.3</ele>
        <time>2026-08-31T10:18:52Z</time>
      </trkpt>
      <trkpt lat="43.45746" lon="-0.35029">
        <ele>166.3</ele>
        <time>2026-08-31T10:18:52Z</time>
      </trkpt>
      <trkpt lat="43.45746" lon="-0.35028">
        <ele>166.3</ele>
        <time>2026-08-31T10:18:53Z</time>
      </trkpt>
      <trkpt lat="43.45745" lon="-0.35028">
        <ele>166.3</ele>
        <time>2026-08-31T10:18:54Z</time>
      </trkpt>
      <trkpt lat="43.45745" lon="-0.35028">
        <ele>166.3</ele>
        <time>2026-08-31T10:18:54Z</time>
      </trkpt>
      <trkpt lat="43.45744" lon="-0.35027">
        <ele>166.3</ele>
        <time>2026-08-31T10:18:55Z</time>
      </trkpt>
      <trkpt lat="43.45744" lon="-0.35027">
        <ele>166.3</ele>
        <time>2026-08-31T10:18:55Z</time>
      </trkpt>
      <trkpt lat="43.45743" lon="-0.35026">
        <ele>166.3</ele>
        <time>2026-08-31T10:18:56Z</time>
      </trkpt>
      <trkpt lat="43.45743" lon="-0.35025">
        <ele>166.3</ele>
        <time>2026-08-31T10:18:56Z</time>
      </trkpt>
      <trkpt lat="43.45742" lon="-0.35025">
        <ele>167.3</ele>
        <time>2026-08-31T10:18:57Z</time>
      </trkpt>
      <trkpt lat="43.45742" lon="-0.35024">
        <ele>167.3</ele>
        <time>2026-08-31T10:18:58Z</time>
      </trkpt>
      <trkpt lat="43.45741" lon="-0.35023">
        <ele>167.3</ele>
        <time>2026-08-31T10:18:58Z</time>
      </trkpt>
      <trkpt lat="43.45741" lon="-0.35022">
        <ele>167.3</ele>
        <time>2026-08-31T10:18:59Z</time>
      </trkpt>
      <trkpt lat="43.45741" lon="-0.35021">
        <ele>167.3</ele>
        <time>2026-08-31T10:18:59Z</time>
      </trkpt>
      <trkpt lat="43.45741" lon="-0.35021">
        <ele>166.3</ele>
        <time>2026-08-31T10:19:00Z</time>
      </trkpt>
      <trkpt lat="43.4574" lon="-0.3502">
        <ele>166.3</ele>
        <time>2026-08-31T10:19:00Z</time>
      </trkpt>
      <trkpt lat="43.4574" lon="-0.3502">
        <ele>166.3</ele>
        <time>2026-08-31T10:19:01Z</time>
      </trkpt>
      <trkpt lat="43.45739" lon="-0.35019">
        <ele>166.3</ele>
        <time>2026-08-31T10:19:02Z</time>
      </trkpt>
      <trkpt lat="43.45738" lon="-0.35019">
        <ele>166.3</ele>
        <time>2026-08-31T10:19:02Z</time>
      </trkpt>
      <trkpt lat="43.45738" lon="-0.35018">
        <ele>166.3</ele>
        <time>2026-08-31T10:19:03Z</time>
      </trkpt>
      <trkpt lat="43.45737" lon="-0.35018">
        <ele>166.3</ele>
        <time>2026-08-31T10:19:03Z</time>
      </trkpt>
      <trkpt lat="43.45736" lon="-0.35018">
        <ele>167.3</ele>
        <time>2026-08-31T10:19:04Z</time>
      </trkpt>
      <trkpt lat="43.45736" lon="-0.35017">
        <ele>167.3</ele>
        <time>2026-08-31T10:19:04Z</time>
      </trkpt>
      <trkpt lat="43.45735" lon="-0.35017">
        <ele>167.3</ele>
        <time>2026-08-31T10:19:05Z</time>
      </trkpt>
      <trkpt lat="43.45735" lon="-0.35016">
        <ele>167.3</ele>
        <time>2026-08-31T10:19:05Z</time>
      </trkpt>
      <trkpt lat="43.45734" lon="-0.35016">
        <ele>167.3</ele>
        <time>2026-08-31T10:19:06Z</time>
      </trkpt>
      <trkpt lat="43.45733" lon="-0.35016">
        <ele>167.3</ele>
        <time>2026-08-31T10:19:07Z</time>
      </trkpt>
      <trkpt lat="43.45733" lon="-0.35015">
        <ele>167.3</ele>
        <time>2026-08-31T10:19:07Z</time>
      </trkpt>
      <trkpt lat="43.45732" lon="-0.35015">
        <ele>167.3</ele>
        <time>2026-08-31T10:19:08Z</time>
      </trkpt>
      <trkpt lat="43.45731" lon="-0.35015">
        <ele>167.3</ele>
        <time>2026-08-31T10:19:08Z</time>
      </trkpt>
      <trkpt lat="43.45731" lon="-0.35014">
        <ele>167.3</ele>
        <time>2026-08-31T10:19:09Z</time>
      </trkpt>
      <trkpt lat="43.4573" lon="-0.35014">
        <ele>167.3</ele>
        <time>2026-08-31T10:19:09Z</time>
      </trkpt>
      <trkpt lat="43.4573" lon="-0.35013">
        <ele>166.3</ele>
        <time>2026-08-31T10:19:10Z</time>
      </trkpt>
      <trkpt lat="43.45729" lon="-0.35013">
        <ele>166.3</ele>
        <time>2026-08-31T10:19:11Z</time>
      </trkpt>
      <trkpt lat="43.45728" lon="-0.35013">
        <ele>166.3</ele>
        <time>2026-08-31T10:19:11Z</time>
      </trkpt>
      <trkpt lat="43.45728" lon="-0.35012">
        <ele>166.3</ele>
        <time>2026-08-31T10:19:12Z</time>
      </trkpt>
      <trkpt lat="43.45727" lon="-0.35012">
        <ele>166.3</ele>
        <time>2026-08-31T10:19:12Z</time>
      </trkpt>
      <trkpt lat="43.45726" lon="-0.35011">
        <ele>167.3</ele>
        <time>2026-08-31T10:19:13Z</time>
      </trkpt>
      <trkpt lat="43.45726" lon="-0.35011">
        <ele>167.3</ele>
        <time>2026-08-31T10:19:13Z</time>
      </trkpt>
      <trkpt lat="43.45725" lon="-0.35011">
        <ele>167.3</ele>
        <time>2026-08-31T10:19:14Z</time>
      </trkpt>
      <trkpt lat="43.45724" lon="-0.3501">
        <ele>167.3</ele>
        <time>2026-08-31T10:19:15Z</time>
      </trkpt>
      <trkpt lat="43.45723" lon="-0.3501">
        <ele>167.3</ele>
        <time>2026-08-31T10:19:15Z</time>
      </trkpt>
      <trkpt lat="43.45723" lon="-0.35009">
        <ele>167.3</ele>
        <time>2026-08-31T10:19:16Z</time>
      </trkpt>
      <trkpt lat="43.45722" lon="-0.35009">
        <ele>167.3</ele>
        <time>2026-08-31T10:19:16Z</time>
      </trkpt>
      <trkpt lat="43.45721" lon="-0.35009">
        <ele>167.3</ele>
        <time>2026-08-31T10:19:17Z</time>
      </trkpt>
      <trkpt lat="43.45721" lon="-0.35008">
        <ele>167.3</ele>
        <time>2026-08-31T10:19:17Z</time>
      </trkpt>
      <trkpt lat="43.4572" lon="-0.35008">
        <ele>166.3</ele>
        <time>2026-08-31T10:19:18Z</time>
      </trkpt>
      <trkpt lat="43.4572" lon="-0.35007">
        <ele>166.3</ele>
        <time>2026-08-31T10:19:19Z</time>
      </trkpt>
      <trkpt lat="43.45719" lon="-0.35007">
        <ele>167.3</ele>
        <time>2026-08-31T10:19:19Z</time>
      </trkpt>
      <trkpt lat="43.45719" lon="-0.35006">
        <ele>167.3</ele>
        <time>2026-08-31T10:19:20Z</time>
      </trkpt>
      <trkpt lat="43.45718" lon="-0.35006">
        <ele>167.3</ele>
        <time>2026-08-31T10:19:20Z</time>
      </trkpt>
      <trkpt lat="43.45718" lon="-0.35005">
        <ele>167.3</ele>
        <time>2026-08-31T10:19:21Z</time>
      </trkpt>
      <trkpt lat="43.45717" lon="-0.35005">
        <ele>167.3</ele>
        <time>2026-08-31T10:19:21Z</time>
      </trkpt>
      <trkpt lat="43.45716" lon="-0.35004">
        <ele>167.3</ele>
        <time>2026-08-31T10:19:22Z</time>
      </trkpt>
      <trkpt lat="43.45716" lon="-0.35003">
        <ele>167.3</ele>
        <time>2026-08-31T10:19:22Z</time>
      </trkpt>
      <trkpt lat="43.45715" lon="-0.35003">
        <ele>167.3</ele>
        <time>2026-08-31T10:19:23Z</time>
      </trkpt>
      <trkpt lat="43.45715" lon="-0.35002">
        <ele>167.3</ele>
        <time>2026-08-31T10:19:24Z</time>
      </trkpt>
      <trkpt lat="43.45714" lon="-0.35002">
        <ele>167.3</ele>
        <time>2026-08-31T10:19:24Z</time>
      </trkpt>
      <trkpt lat="43.45713" lon="-0.35001">
        <ele>167.3</ele>
        <time>2026-08-31T10:19:25Z</time>
      </trkpt>
      <trkpt lat="43.45713" lon="-0.35">
        <ele>168.3</ele>
        <time>2026-08-31T10:19:25Z</time>
      </trkpt>
      <trkpt lat="43.45712" lon="-0.35">
        <ele>169.3</ele>
        <time>2026-08-31T10:19:26Z</time>
      </trkpt>
      <trkpt lat="43.45712" lon="-0.34999">
        <ele>169.3</ele>
        <time>2026-08-31T10:19:26Z</time>
      </trkpt>
      <trkpt lat="43.45711" lon="-0.34998">
        <ele>169.3</ele>
        <time>2026-08-31T10:19:27Z</time>
      </trkpt>
      <trkpt lat="43.45711" lon="-0.34998">
        <ele>169.3</ele>
        <time>2026-08-31T10:19:27Z</time>
      </trkpt>
      <trkpt lat="43.4571" lon="-0.34997">
        <ele>169.3</ele>
        <time>2026-08-31T10:19:28Z</time>
      </trkpt>
      <trkpt lat="43.4571" lon="-0.34996">
        <ele>169.3</ele>
        <time>2026-08-31T10:19:29Z</time>
      </trkpt>
      <trkpt lat="43.45709" lon="-0.34996">
        <ele>169.3</ele>
        <time>2026-08-31T10:19:29Z</time>
      </trkpt>
      <trkpt lat="43.45709" lon="-0.34995">
        <ele>169.3</ele>
        <time>2026-08-31T10:19:30Z</time>
      </trkpt>
      <trkpt lat="43.45708" lon="-0.34994">
        <ele>169.3</ele>
        <time>2026-08-31T10:19:30Z</time>
      </trkpt>
      <trkpt lat="43.45708" lon="-0.34993">
        <ele>169.3</ele>
        <time>2026-08-31T10:19:31Z</time>
      </trkpt>
      <trkpt lat="43.45707" lon="-0.34993">
        <ele>169.3</ele>
        <time>2026-08-31T10:19:31Z</time>
      </trkpt>
      <trkpt lat="43.45706" lon="-0.34992">
        <ele>169.3</ele>
        <time>2026-08-31T10:19:32Z</time>
      </trkpt>
      <trkpt lat="43.45706" lon="-0.34991">
        <ele>169.3</ele>
        <time>2026-08-31T10:19:33Z</time>
      </trkpt>
      <trkpt lat="43.45705" lon="-0.3499">
        <ele>170.3</ele>
        <time>2026-08-31T10:19:33Z</time>
      </trkpt>
      <trkpt lat="43.45705" lon="-0.3499">
        <ele>170.3</ele>
        <time>2026-08-31T10:19:34Z</time>
      </trkpt>
      <trkpt lat="43.45704" lon="-0.34989">
        <ele>169.3</ele>
        <time>2026-08-31T10:19:34Z</time>
      </trkpt>
      <trkpt lat="43.45704" lon="-0.34988">
        <ele>169.3</ele>
        <time>2026-08-31T10:19:35Z</time>
      </trkpt>
      <trkpt lat="43.45703" lon="-0.34987">
        <ele>169.3</ele>
        <time>2026-08-31T10:19:35Z</time>
      </trkpt>
      <trkpt lat="43.45702" lon="-0.34987">
        <ele>169.3</ele>
        <time>2026-08-31T10:19:36Z</time>
      </trkpt>
      <trkpt lat="43.45702" lon="-0.34986">
        <ele>169.3</ele>
        <time>2026-08-31T10:19:36Z</time>
      </trkpt>
      <trkpt lat="43.45701" lon="-0.34985">
        <ele>169.3</ele>
        <time>2026-08-31T10:19:37Z</time>
      </trkpt>
      <trkpt lat="43.45701" lon="-0.34984">
        <ele>169.3</ele>
        <time>2026-08-31T10:19:38Z</time>
      </trkpt>
      <trkpt lat="43.457" lon="-0.34984">
        <ele>169.3</ele>
        <time>2026-08-31T10:19:38Z</time>
      </trkpt>
      <trkpt lat="43.457" lon="-0.34983">
        <ele>170.3</ele>
        <time>2026-08-31T10:19:39Z</time>
      </trkpt>
      <trkpt lat="43.45699" lon="-0.34982">
        <ele>170.3</ele>
        <time>2026-08-31T10:19:39Z</time>
      </trkpt>
      <trkpt lat="43.45699" lon="-0.34982">
        <ele>171.3</ele>
        <time>2026-08-31T10:19:40Z</time>
      </trkpt>
      <trkpt lat="43.45698" lon="-0.34981">
        <ele>171.3</ele>
        <time>2026-08-31T10:19:40Z</time>
      </trkpt>
      <trkpt lat="43.45698" lon="-0.3498">
        <ele>171.3</ele>
        <time>2026-08-31T10:19:41Z</time>
      </trkpt>
      <trkpt lat="43.45697" lon="-0.3498">
        <ele>171.3</ele>
        <time>2026-08-31T10:19:42Z</time>
      </trkpt>
      <trkpt lat="43.45696" lon="-0.34979">
        <ele>171.3</ele>
        <time>2026-08-31T10:19:42Z</time>
      </trkpt>
      <trkpt lat="43.45696" lon="-0.34978">
        <ele>171.3</ele>
        <time>2026-08-31T10:19:43Z</time>
      </trkpt>
      <trkpt lat="43.45695" lon="-0.34978">
        <ele>171.3</ele>
        <time>2026-08-31T10:19:43Z</time>
      </trkpt>
      <trkpt lat="43.45695" lon="-0.34977">
        <ele>171.3</ele>
        <time>2026-08-31T10:19:44Z</time>
      </trkpt>
      <trkpt lat="43.45694" lon="-0.34977">
        <ele>171.3</ele>
        <time>2026-08-31T10:19:44Z</time>
      </trkpt>
      <trkpt lat="43.45693" lon="-0.34976">
        <ele>171.3</ele>
        <time>2026-08-31T10:19:45Z</time>
      </trkpt>
      <trkpt lat="43.45693" lon="-0.34975">
        <ele>171.3</ele>
        <time>2026-08-31T10:19:45Z</time>
      </trkpt>
      <trkpt lat="43.45692" lon="-0.34975">
        <ele>172.3</ele>
        <time>2026-08-31T10:19:46Z</time>
      </trkpt>
      <trkpt lat="43.45692" lon="-0.34974">
        <ele>172.3</ele>
        <time>2026-08-31T10:19:47Z</time>
      </trkpt>
      <trkpt lat="43.45691" lon="-0.34974">
        <ele>172.3</ele>
        <time>2026-08-31T10:19:47Z</time>
      </trkpt>
      <trkpt lat="43.4569" lon="-0.34973">
        <ele>172.3</ele>
        <time>2026-08-31T10:19:48Z</time>
      </trkpt>
      <trkpt lat="43.4569" lon="-0.34972">
        <ele>173.3</ele>
        <time>2026-08-31T10:19:48Z</time>
      </trkpt>
      <trkpt lat="43.45689" lon="-0.34972">
        <ele>173.3</ele>
        <time>2026-08-31T10:19:49Z</time>
      </trkpt>
      <trkpt lat="43.45689" lon="-0.34971">
        <ele>173.3</ele>
        <time>2026-08-31T10:19:49Z</time>
      </trkpt>
      <trkpt lat="43.45688" lon="-0.3497">
        <ele>173.3</ele>
        <time>2026-08-31T10:19:50Z</time>
      </trkpt>
      <trkpt lat="43.45687" lon="-0.3497">
        <ele>173.3</ele>
        <time>2026-08-31T10:19:50Z</time>
      </trkpt>
      <trkpt lat="43.45687" lon="-0.34969">
        <ele>174.3</ele>
        <time>2026-08-31T10:19:51Z</time>
      </trkpt>
      <trkpt lat="43.45686" lon="-0.34969">
        <ele>174.3</ele>
        <time>2026-08-31T10:19:52Z</time>
      </trkpt>
      <trkpt lat="43.45686" lon="-0.34968">
        <ele>174.3</ele>
        <time>2026-08-31T10:19:52Z</time>
      </trkpt>
      <trkpt lat="43.45685" lon="-0.34967">
        <ele>174.3</ele>
        <time>2026-08-31T10:19:53Z</time>
      </trkpt>
      <trkpt lat="43.45685" lon="-0.34967">
        <ele>174.3</ele>
        <time>2026-08-31T10:19:53Z</time>
      </trkpt>
      <trkpt lat="43.45684" lon="-0.34966">
        <ele>174.3</ele>
        <time>2026-08-31T10:19:54Z</time>
      </trkpt>
      <trkpt lat="43.45684" lon="-0.34966">
        <ele>174.3</ele>
        <time>2026-08-31T10:19:54Z</time>
      </trkpt>
      <trkpt lat="43.45683" lon="-0.34965">
        <ele>174.3</ele>
        <time>2026-08-31T10:19:55Z</time>
      </trkpt>
      <trkpt lat="43.45683" lon="-0.34964">
        <ele>174.3</ele>
        <time>2026-08-31T10:19:55Z</time>
      </trkpt>
      <trkpt lat="43.45682" lon="-0.34964">
        <ele>174.3</ele>
        <time>2026-08-31T10:19:56Z</time>
      </trkpt>
      <trkpt lat="43.45681" lon="-0.34963">
        <ele>174.3</ele>
        <time>2026-08-31T10:19:57Z</time>
      </trkpt>
      <trkpt lat="43.45681" lon="-0.34963">
        <ele>174.3</ele>
        <time>2026-08-31T10:19:57Z</time>
      </trkpt>
      <trkpt lat="43.4568" lon="-0.34963">
        <ele>174.3</ele>
        <time>2026-08-31T10:19:58Z</time>
      </trkpt>
      <trkpt lat="43.45679" lon="-0.34962">
        <ele>174.3</ele>
        <time>2026-08-31T10:19:58Z</time>
      </trkpt>
      <trkpt lat="43.45679" lon="-0.34962">
        <ele>174.3</ele>
        <time>2026-08-31T10:19:59Z</time>
      </trkpt>
      <trkpt lat="43.45678" lon="-0.34962">
        <ele>174.3</ele>
        <time>2026-08-31T10:19:59Z</time>
      </trkpt>
      <trkpt lat="43.45678" lon="-0.34961">
        <ele>173.3</ele>
        <time>2026-08-31T10:20:00Z</time>
      </trkpt>
      <trkpt lat="43.45677" lon="-0.34961">
        <ele>173.3</ele>
        <time>2026-08-31T10:20:00Z</time>
      </trkpt>
      <trkpt lat="43.45676" lon="-0.3496">
        <ele>173.3</ele>
        <time>2026-08-31T10:20:01Z</time>
      </trkpt>
      <trkpt lat="43.45676" lon="-0.3496">
        <ele>173.3</ele>
        <time>2026-08-31T10:20:02Z</time>
      </trkpt>
      <trkpt lat="43.45675" lon="-0.34959">
        <ele>173.3</ele>
        <time>2026-08-31T10:20:02Z</time>
      </trkpt>
      <trkpt lat="43.45675" lon="-0.34959">
        <ele>173.3</ele>
        <time>2026-08-31T10:20:03Z</time>
      </trkpt>
      <trkpt lat="43.45674" lon="-0.34958">
        <ele>173.3</ele>
        <time>2026-08-31T10:20:03Z</time>
      </trkpt>
      <trkpt lat="43.45673" lon="-0.34958">
        <ele>173.3</ele>
        <time>2026-08-31T10:20:04Z</time>
      </trkpt>
      <trkpt lat="43.45673" lon="-0.34957">
        <ele>173.3</ele>
        <time>2026-08-31T10:20:04Z</time>
      </trkpt>
      <trkpt lat="43.45672" lon="-0.34957">
        <ele>173.3</ele>
        <time>2026-08-31T10:20:05Z</time>
      </trkpt>
      <trkpt lat="43.45671" lon="-0.34956">
        <ele>173.3</ele>
        <time>2026-08-31T10:20:05Z</time>
      </trkpt>
      <trkpt lat="43.45671" lon="-0.34956">
        <ele>173.3</ele>
        <time>2026-08-31T10:20:06Z</time>
      </trkpt>
      <trkpt lat="43.4567" lon="-0.34956">
        <ele>173.3</ele>
        <time>2026-08-31T10:20:07Z</time>
      </trkpt>
      <trkpt lat="43.45669" lon="-0.34955">
        <ele>174.3</ele>
        <time>2026-08-31T10:20:07Z</time>
      </trkpt>
      <trkpt lat="43.45669" lon="-0.34955">
        <ele>174.3</ele>
        <time>2026-08-31T10:20:08Z</time>
      </trkpt>
      <trkpt lat="43.45668" lon="-0.34955">
        <ele>174.3</ele>
        <time>2026-08-31T10:20:08Z</time>
      </trkpt>
      <trkpt lat="43.45668" lon="-0.34954">
        <ele>174.3</ele>
        <time>2026-08-31T10:20:09Z</time>
      </trkpt>
      <trkpt lat="43.45667" lon="-0.34954">
        <ele>174.3</ele>
        <time>2026-08-31T10:20:09Z</time>
      </trkpt>
      <trkpt lat="43.45667" lon="-0.34953">
        <ele>174.3</ele>
        <time>2026-08-31T10:20:10Z</time>
      </trkpt>
      <trkpt lat="43.45666" lon="-0.34952">
        <ele>174.3</ele>
        <time>2026-08-31T10:20:11Z</time>
      </trkpt>
      <trkpt lat="43.45665" lon="-0.34952">
        <ele>174.3</ele>
        <time>2026-08-31T10:20:11Z</time>
      </trkpt>
      <trkpt lat="43.45665" lon="-0.34951">
        <ele>174.3</ele>
        <time>2026-08-31T10:20:12Z</time>
      </trkpt>
      <trkpt lat="43.45665" lon="-0.3495">
        <ele>174.3</ele>
        <time>2026-08-31T10:20:12Z</time>
      </trkpt>
      <trkpt lat="43.45664" lon="-0.3495">
        <ele>174.3</ele>
        <time>2026-08-31T10:20:13Z</time>
      </trkpt>
      <trkpt lat="43.45664" lon="-0.34949">
        <ele>174.3</ele>
        <time>2026-08-31T10:20:13Z</time>
      </trkpt>
      <trkpt lat="43.45663" lon="-0.34948">
        <ele>174.3</ele>
        <time>2026-08-31T10:20:14Z</time>
      </trkpt>
      <trkpt lat="43.45663" lon="-0.34948">
        <ele>174.3</ele>
        <time>2026-08-31T10:20:14Z</time>
      </trkpt>
      <trkpt lat="43.45662" lon="-0.34947">
        <ele>173.3</ele>
        <time>2026-08-31T10:20:15Z</time>
      </trkpt>
      <trkpt lat="43.45662" lon="-0.34946">
        <ele>173.3</ele>
        <time>2026-08-31T10:20:16Z</time>
      </trkpt>
      <trkpt lat="43.45662" lon="-0.34945">
        <ele>173.3</ele>
        <time>2026-08-31T10:20:16Z</time>
      </trkpt>
      <trkpt lat="43.45661" lon="-0.34945">
        <ele>173.3</ele>
        <time>2026-08-31T10:20:17Z</time>
      </trkpt>
      <trkpt lat="43.45661" lon="-0.34944">
        <ele>173.3</ele>
        <time>2026-08-31T10:20:17Z</time>
      </trkpt>
      <trkpt lat="43.4566" lon="-0.34944">
        <ele>173.3</ele>
        <time>2026-08-31T10:20:18Z</time>
      </trkpt>
      <trkpt lat="43.4566" lon="-0.34943">
        <ele>173.3</ele>
        <time>2026-08-31T10:20:18Z</time>
      </trkpt>
      <trkpt lat="43.4566" lon="-0.34942">
        <ele>173.3</ele>
        <time>2026-08-31T10:20:19Z</time>
      </trkpt>
      <trkpt lat="43.45659" lon="-0.34942">
        <ele>173.3</ele>
        <time>2026-08-31T10:20:19Z</time>
      </trkpt>
      <trkpt lat="43.45659" lon="-0.34941">
        <ele>172.3</ele>
        <time>2026-08-31T10:20:20Z</time>
      </trkpt>
      <trkpt lat="43.45658" lon="-0.3494">
        <ele>172.3</ele>
        <time>2026-08-31T10:20:21Z</time>
      </trkpt>
      <trkpt lat="43.45658" lon="-0.3494">
        <ele>172.3</ele>
        <time>2026-08-31T10:20:21Z</time>
      </trkpt>
      <trkpt lat="43.45658" lon="-0.34939">
        <ele>173.3</ele>
        <time>2026-08-31T10:20:22Z</time>
      </trkpt>
      <trkpt lat="43.45658" lon="-0.34939">
        <ele>173.3</ele>
        <time>2026-08-31T10:20:22Z</time>
      </trkpt>
      <trkpt lat="43.45657" lon="-0.34938">
        <ele>173.3</ele>
        <time>2026-08-31T10:20:23Z</time>
      </trkpt>
      <trkpt lat="43.45657" lon="-0.34937">
        <ele>173.3</ele>
        <time>2026-08-31T10:20:23Z</time>
      </trkpt>
      <trkpt lat="43.45657" lon="-0.34937">
        <ele>173.3</ele>
        <time>2026-08-31T10:20:24Z</time>
      </trkpt>
      <trkpt lat="43.45656" lon="-0.34936">
        <ele>173.3</ele>
        <time>2026-08-31T10:20:25Z</time>
      </trkpt>
      <trkpt lat="43.45656" lon="-0.34935">
        <ele>172.3</ele>
        <time>2026-08-31T10:20:25Z</time>
      </trkpt>
      <trkpt lat="43.45656" lon="-0.34935">
        <ele>172.3</ele>
        <time>2026-08-31T10:20:26Z</time>
      </trkpt>
      <trkpt lat="43.45656" lon="-0.34934">
        <ele>172.3</ele>
        <time>2026-08-31T10:20:26Z</time>
      </trkpt>
      <trkpt lat="43.45655" lon="-0.34933">
        <ele>172.3</ele>
        <time>2026-08-31T10:20:27Z</time>
      </trkpt>
      <trkpt lat="43.45655" lon="-0.34933">
        <ele>172.3</ele>
        <time>2026-08-31T10:20:27Z</time>
      </trkpt>
      <trkpt lat="43.45655" lon="-0.34932">
        <ele>172.3</ele>
        <time>2026-08-31T10:20:28Z</time>
      </trkpt>
      <trkpt lat="43.45654" lon="-0.34931">
        <ele>172.3</ele>
        <time>2026-08-31T10:20:28Z</time>
      </trkpt>
      <trkpt lat="43.45654" lon="-0.34931">
        <ele>172.3</ele>
        <time>2026-08-31T10:20:29Z</time>
      </trkpt>
      <trkpt lat="43.45653" lon="-0.3493">
        <ele>172.3</ele>
        <time>2026-08-31T10:20:30Z</time>
      </trkpt>
      <trkpt lat="43.45653" lon="-0.34929">
        <ele>172.3</ele>
        <time>2026-08-31T10:20:30Z</time>
      </trkpt>
      <trkpt lat="43.45652" lon="-0.34928">
        <ele>171.3</ele>
        <time>2026-08-31T10:20:31Z</time>
      </trkpt>
      <trkpt lat="43.45652" lon="-0.34928">
        <ele>171.3</ele>
        <time>2026-08-31T10:20:31Z</time>
      </trkpt>
      <trkpt lat="43.45652" lon="-0.34927">
        <ele>171.3</ele>
        <time>2026-08-31T10:20:32Z</time>
      </trkpt>
      <trkpt lat="43.45651" lon="-0.34927">
        <ele>171.3</ele>
        <time>2026-08-31T10:20:32Z</time>
      </trkpt>
      <trkpt lat="43.45651" lon="-0.34926">
        <ele>171.3</ele>
        <time>2026-08-31T10:20:33Z</time>
      </trkpt>
      <trkpt lat="43.45651" lon="-0.34925">
        <ele>171.3</ele>
        <time>2026-08-31T10:20:34Z</time>
      </trkpt>
      <trkpt lat="43.4565" lon="-0.34925">
        <ele>171.3</ele>
        <time>2026-08-31T10:20:34Z</time>
      </trkpt>
      <trkpt lat="43.4565" lon="-0.34924">
        <ele>171.3</ele>
        <time>2026-08-31T10:20:35Z</time>
      </trkpt>
      <trkpt lat="43.4565" lon="-0.34923">
        <ele>171.3</ele>
        <time>2026-08-31T10:20:35Z</time>
      </trkpt>
      <trkpt lat="43.45649" lon="-0.34923">
        <ele>170.3</ele>
        <time>2026-08-31T10:20:36Z</time>
      </trkpt>
      <trkpt lat="43.45649" lon="-0.34922">
        <ele>170.3</ele>
        <time>2026-08-31T10:20:36Z</time>
      </trkpt>
      <trkpt lat="43.45649" lon="-0.34922">
        <ele>170.3</ele>
        <time>2026-08-31T10:20:37Z</time>
      </trkpt>
      <trkpt lat="43.45648" lon="-0.34921">
        <ele>170.3</ele>
        <time>2026-08-31T10:20:38Z</time>
      </trkpt>
      <trkpt lat="43.45648" lon="-0.34921">
        <ele>170.3</ele>
        <time>2026-08-31T10:20:38Z</time>
      </trkpt>
      <trkpt lat="43.45648" lon="-0.3492">
        <ele>170.3</ele>
        <time>2026-08-31T10:20:39Z</time>
      </trkpt>
      <trkpt lat="43.45647" lon="-0.34919">
        <ele>170.3</ele>
        <time>2026-08-31T10:20:39Z</time>
      </trkpt>
      <trkpt lat="43.45647" lon="-0.34919">
        <ele>170.3</ele>
        <time>2026-08-31T10:20:40Z</time>
      </trkpt>
      <trkpt lat="43.45647" lon="-0.34918">
        <ele>170.3</ele>
        <time>2026-08-31T10:20:40Z</time>
      </trkpt>
      <trkpt lat="43.45646" lon="-0.34918">
        <ele>169.3</ele>
        <time>2026-08-31T10:20:41Z</time>
      </trkpt>
      <trkpt lat="43.45646" lon="-0.34917">
        <ele>169.3</ele>
        <time>2026-08-31T10:20:42Z</time>
      </trkpt>
      <trkpt lat="43.45646" lon="-0.34916">
        <ele>169.3</ele>
        <time>2026-08-31T10:20:42Z</time>
      </trkpt>
      <trkpt lat="43.45645" lon="-0.34916">
        <ele>169.3</ele>
        <time>2026-08-31T10:20:43Z</time>
      </trkpt>
      <trkpt lat="43.45645" lon="-0.34915">
        <ele>169.3</ele>
        <time>2026-08-31T10:20:43Z</time>
      </trkpt>
      <trkpt lat="43.45644" lon="-0.34915">
        <ele>169.3</ele>
        <time>2026-08-31T10:20:44Z</time>
      </trkpt>
      <trkpt lat="43.45644" lon="-0.34914">
        <ele>169.3</ele>
        <time>2026-08-31T10:20:44Z</time>
      </trkpt>
      <trkpt lat="43.45644" lon="-0.34914">
        <ele>169.3</ele>
        <time>2026-08-31T10:20:45Z</time>
      </trkpt>
      <trkpt lat="43.45643" lon="-0.34913">
        <ele>169.3</ele>
        <time>2026-08-31T10:20:45Z</time>
      </trkpt>
      <trkpt lat="43.45643" lon="-0.34913">
        <ele>169.3</ele>
        <time>2026-08-31T10:20:46Z</time>
      </trkpt>
      <trkpt lat="43.45642" lon="-0.34912">
        <ele>169.3</ele>
        <time>2026-08-31T10:20:47Z</time>
      </trkpt>
      <trkpt lat="43.45642" lon="-0.34912">
        <ele>169.3</ele>
        <time>2026-08-31T10:20:47Z</time>
      </trkpt>
      <trkpt lat="43.45641" lon="-0.34911">
        <ele>169.3</ele>
        <time>2026-08-31T10:20:48Z</time>
      </trkpt>
      <trkpt lat="43.45641" lon="-0.3491">
        <ele>169.3</ele>
        <time>2026-08-31T10:20:48Z</time>
      </trkpt>
      <trkpt lat="43.45641" lon="-0.3491">
        <ele>169.3</ele>
        <time>2026-08-31T10:20:49Z</time>
      </trkpt>
      <trkpt lat="43.4564" lon="-0.34909">
        <ele>169.3</ele>
        <time>2026-08-31T10:20:49Z</time>
      </trkpt>
      <trkpt lat="43.4564" lon="-0.34909">
        <ele>169.3</ele>
        <time>2026-08-31T10:20:50Z</time>
      </trkpt>
      <trkpt lat="43.45639" lon="-0.34908">
        <ele>169.3</ele>
        <time>2026-08-31T10:20:50Z</time>
      </trkpt>
      <trkpt lat="43.45639" lon="-0.34907">
        <ele>169.3</ele>
        <time>2026-08-31T10:20:51Z</time>
      </trkpt>
      <trkpt lat="43.45639" lon="-0.34907">
        <ele>169.3</ele>
        <time>2026-08-31T10:20:52Z</time>
      </trkpt>
      <trkpt lat="43.45638" lon="-0.34906">
        <ele>169.3</ele>
        <time>2026-08-31T10:20:52Z</time>
      </trkpt>
      <trkpt lat="43.45638" lon="-0.34906">
        <ele>169.3</ele>
        <time>2026-08-31T10:20:53Z</time>
      </trkpt>
      <trkpt lat="43.45637" lon="-0.34905">
        <ele>169.3</ele>
        <time>2026-08-31T10:20:53Z</time>
      </trkpt>
      <trkpt lat="43.45637" lon="-0.34904">
        <ele>169.3</ele>
        <time>2026-08-31T10:20:54Z</time>
      </trkpt>
      <trkpt lat="43.45637" lon="-0.34904">
        <ele>169.3</ele>
        <time>2026-08-31T10:20:54Z</time>
      </trkpt>
      <trkpt lat="43.45636" lon="-0.34903">
        <ele>168.3</ele>
        <time>2026-08-31T10:20:55Z</time>
      </trkpt>
      <trkpt lat="43.45636" lon="-0.34902">
        <ele>168.3</ele>
        <time>2026-08-31T10:20:55Z</time>
      </trkpt>
      <trkpt lat="43.45636" lon="-0.34902">
        <ele>168.3</ele>
        <time>2026-08-31T10:20:56Z</time>
      </trkpt>
      <trkpt lat="43.45635" lon="-0.34901">
        <ele>168.3</ele>
        <time>2026-08-31T10:20:57Z</time>
      </trkpt>
      <trkpt lat="43.45635" lon="-0.349">
        <ele>168.3</ele>
        <time>2026-08-31T10:20:57Z</time>
      </trkpt>
      <trkpt lat="43.45634" lon="-0.34899">
        <ele>168.3</ele>
        <time>2026-08-31T10:20:58Z</time>
      </trkpt>
      <trkpt lat="43.45634" lon="-0.34898">
        <ele>168.3</ele>
        <time>2026-08-31T10:20:58Z</time>
      </trkpt>
      <trkpt lat="43.45634" lon="-0.34898">
        <ele>168.3</ele>
        <time>2026-08-31T10:20:59Z</time>
      </trkpt>
      <trkpt lat="43.45633" lon="-0.34897">
        <ele>168.3</ele>
        <time>2026-08-31T10:20:59Z</time>
      </trkpt>
      <trkpt lat="43.45633" lon="-0.34896">
        <ele>168.3</ele>
        <time>2026-08-31T10:21:00Z</time>
      </trkpt>
      <trkpt lat="43.45632" lon="-0.34895">
        <ele>168.3</ele>
        <time>2026-08-31T10:21:01Z</time>
      </trkpt>
      <trkpt lat="43.45632" lon="-0.34895">
        <ele>168.3</ele>
        <time>2026-08-31T10:21:01Z</time>
      </trkpt>
      <trkpt lat="43.45631" lon="-0.34894">
        <ele>168.3</ele>
        <time>2026-08-31T10:21:02Z</time>
      </trkpt>
      <trkpt lat="43.45631" lon="-0.34893">
        <ele>168.3</ele>
        <time>2026-08-31T10:21:02Z</time>
      </trkpt>
      <trkpt lat="43.4563" lon="-0.34893">
        <ele>168.3</ele>
        <time>2026-08-31T10:21:03Z</time>
      </trkpt>
      <trkpt lat="43.4563" lon="-0.34892">
        <ele>168.3</ele>
        <time>2026-08-31T10:21:03Z</time>
      </trkpt>
      <trkpt lat="43.45629" lon="-0.34891">
        <ele>169.3</ele>
        <time>2026-08-31T10:21:04Z</time>
      </trkpt>
      <trkpt lat="43.45629" lon="-0.3489">
        <ele>169.3</ele>
        <time>2026-08-31T10:21:05Z</time>
      </trkpt>
      <trkpt lat="43.45628" lon="-0.34889">
        <ele>169.3</ele>
        <time>2026-08-31T10:21:05Z</time>
      </trkpt>
      <trkpt lat="43.45628" lon="-0.34889">
        <ele>170.3</ele>
        <time>2026-08-31T10:21:06Z</time>
      </trkpt>
      <trkpt lat="43.45627" lon="-0.34888">
        <ele>170.3</ele>
        <time>2026-08-31T10:21:06Z</time>
      </trkpt>
      <trkpt lat="43.45627" lon="-0.34887">
        <ele>170.3</ele>
        <time>2026-08-31T10:21:07Z</time>
      </trkpt>
      <trkpt lat="43.45627" lon="-0.34886">
        <ele>170.3</ele>
        <time>2026-08-31T10:21:07Z</time>
      </trkpt>
      <trkpt lat="43.45626" lon="-0.34886">
        <ele>170.3</ele>
        <time>2026-08-31T10:21:08Z</time>
      </trkpt>
      <trkpt lat="43.45626" lon="-0.34885">
        <ele>170.3</ele>
        <time>2026-08-31T10:21:09Z</time>
      </trkpt>
      <trkpt lat="43.45625" lon="-0.34884">
        <ele>169.3</ele>
        <time>2026-08-31T10:21:09Z</time>
      </trkpt>
      <trkpt lat="43.45625" lon="-0.34884">
        <ele>169.3</ele>
        <time>2026-08-31T10:21:10Z</time>
      </trkpt>
      <trkpt lat="43.45624" lon="-0.34883">
        <ele>169.3</ele>
        <time>2026-08-31T10:21:10Z</time>
      </trkpt>
      <trkpt lat="43.45624" lon="-0.34882">
        <ele>169.3</ele>
        <time>2026-08-31T10:21:11Z</time>
      </trkpt>
      <trkpt lat="43.45623" lon="-0.34881">
        <ele>169.3</ele>
        <time>2026-08-31T10:21:11Z</time>
      </trkpt>
      <trkpt lat="43.45623" lon="-0.34881">
        <ele>168.3</ele>
        <time>2026-08-31T10:21:12Z</time>
      </trkpt>
      <trkpt lat="43.45622" lon="-0.3488">
        <ele>168.3</ele>
        <time>2026-08-31T10:21:13Z</time>
      </trkpt>
      <trkpt lat="43.45622" lon="-0.34879">
        <ele>168.3</ele>
        <time>2026-08-31T10:21:13Z</time>
      </trkpt>
      <trkpt lat="43.45621" lon="-0.34878">
        <ele>168.3</ele>
        <time>2026-08-31T10:21:14Z</time>
      </trkpt>
      <trkpt lat="43.45621" lon="-0.34877">
        <ele>168.3</ele>
        <time>2026-08-31T10:21:14Z</time>
      </trkpt>
      <trkpt lat="43.4562" lon="-0.34877">
        <ele>168.3</ele>
        <time>2026-08-31T10:21:15Z</time>
      </trkpt>
      <trkpt lat="43.4562" lon="-0.34876">
        <ele>168.3</ele>
        <time>2026-08-31T10:21:15Z</time>
      </trkpt>
      <trkpt lat="43.45619" lon="-0.34875">
        <ele>168.3</ele>
        <time>2026-08-31T10:21:16Z</time>
      </trkpt>
      <trkpt lat="43.45619" lon="-0.34874">
        <ele>168.3</ele>
        <time>2026-08-31T10:21:17Z</time>
      </trkpt>
      <trkpt lat="43.45618" lon="-0.34873">
        <ele>169.3</ele>
        <time>2026-08-31T10:21:17Z</time>
      </trkpt>
      <trkpt lat="43.45618" lon="-0.34873">
        <ele>169.3</ele>
        <time>2026-08-31T10:21:18Z</time>
      </trkpt>
      <trkpt lat="43.45617" lon="-0.34872">
        <ele>169.3</ele>
        <time>2026-08-31T10:21:18Z</time>
      </trkpt>
      <trkpt lat="43.45616" lon="-0.34871">
        <ele>169.3</ele>
        <time>2026-08-31T10:21:19Z</time>
      </trkpt>
      <trkpt lat="43.45616" lon="-0.3487">
        <ele>169.3</ele>
        <time>2026-08-31T10:21:19Z</time>
      </trkpt>
      <trkpt lat="43.45615" lon="-0.34869">
        <ele>170.3</ele>
        <time>2026-08-31T10:21:20Z</time>
      </trkpt>
      <trkpt lat="43.45615" lon="-0.34868">
        <ele>170.3</ele>
        <time>2026-08-31T10:21:21Z</time>
      </trkpt>
      <trkpt lat="43.45614" lon="-0.34868">
        <ele>170.3</ele>
        <time>2026-08-31T10:21:21Z</time>
      </trkpt>
      <trkpt lat="43.45614" lon="-0.34867">
        <ele>170.3</ele>
        <time>2026-08-31T10:21:22Z</time>
      </trkpt>
      <trkpt lat="43.45614" lon="-0.34866">
        <ele>170.3</ele>
        <time>2026-08-31T10:21:22Z</time>
      </trkpt>
      <trkpt lat="43.45613" lon="-0.34865">
        <ele>170.3</ele>
        <time>2026-08-31T10:21:23Z</time>
      </trkpt>
      <trkpt lat="43.45613" lon="-0.34864">
        <ele>170.3</ele>
        <time>2026-08-31T10:21:24Z</time>
      </trkpt>
      <trkpt lat="43.45612" lon="-0.34863">
        <ele>170.3</ele>
        <time>2026-08-31T10:21:24Z</time>
      </trkpt>
      <trkpt lat="43.45612" lon="-0.34862">
        <ele>170.3</ele>
        <time>2026-08-31T10:21:25Z</time>
      </trkpt>
      <trkpt lat="43.45611" lon="-0.34861">
        <ele>171.3</ele>
        <time>2026-08-31T10:21:25Z</time>
      </trkpt>
      <trkpt lat="43.45611" lon="-0.3486">
        <ele>172.3</ele>
        <time>2026-08-31T10:21:26Z</time>
      </trkpt>
      <trkpt lat="43.4561" lon="-0.34859">
        <ele>172.3</ele>
        <time>2026-08-31T10:21:26Z</time>
      </trkpt>
      <trkpt lat="43.4561" lon="-0.34858">
        <ele>172.3</ele>
        <time>2026-08-31T10:21:27Z</time>
      </trkpt>
      <trkpt lat="43.45609" lon="-0.34857">
        <ele>172.3</ele>
        <time>2026-08-31T10:21:28Z</time>
      </trkpt>
      <trkpt lat="43.45609" lon="-0.34857">
        <ele>172.3</ele>
        <time>2026-08-31T10:21:28Z</time>
      </trkpt>
      <trkpt lat="43.45608" lon="-0.34856">
        <ele>172.3</ele>
        <time>2026-08-31T10:21:29Z</time>
      </trkpt>
      <trkpt lat="43.45608" lon="-0.34855">
        <ele>172.3</ele>
        <time>2026-08-31T10:21:29Z</time>
      </trkpt>
      <trkpt lat="43.45607" lon="-0.34854">
        <ele>172.3</ele>
        <time>2026-08-31T10:21:30Z</time>
      </trkpt>
      <trkpt lat="43.45606" lon="-0.34853">
        <ele>172.3</ele>
        <time>2026-08-31T10:21:30Z</time>
      </trkpt>
      <trkpt lat="43.45606" lon="-0.34852">
        <ele>173.3</ele>
        <time>2026-08-31T10:21:31Z</time>
      </trkpt>
      <trkpt lat="43.45605" lon="-0.34851">
        <ele>173.3</ele>
        <time>2026-08-31T10:21:32Z</time>
      </trkpt>
      <trkpt lat="43.45605" lon="-0.3485">
        <ele>174.3</ele>
        <time>2026-08-31T10:21:32Z</time>
      </trkpt>
      <trkpt lat="43.45604" lon="-0.3485">
        <ele>174.3</ele>
        <time>2026-08-31T10:21:33Z</time>
      </trkpt>
      <trkpt lat="43.45604" lon="-0.34849">
        <ele>174.3</ele>
        <time>2026-08-31T10:21:33Z</time>
      </trkpt>
      <trkpt lat="43.45603" lon="-0.34848">
        <ele>174.3</ele>
        <time>2026-08-31T10:21:34Z</time>
      </trkpt>
      <trkpt lat="43.45602" lon="-0.34847">
        <ele>174.3</ele>
        <time>2026-08-31T10:21:34Z</time>
      </trkpt>
      <trkpt lat="43.45602" lon="-0.34846">
        <ele>174.3</ele>
        <time>2026-08-31T10:21:35Z</time>
      </trkpt>
      <trkpt lat="43.45601" lon="-0.34845">
        <ele>174.3</ele>
        <time>2026-08-31T10:21:36Z</time>
      </trkpt>
      <trkpt lat="43.45601" lon="-0.34844">
        <ele>174.3</ele>
        <time>2026-08-31T10:21:36Z</time>
      </trkpt>
      <trkpt lat="43.456" lon="-0.34844">
        <ele>175.3</ele>
        <time>2026-08-31T10:21:37Z</time>
      </trkpt>
      <trkpt lat="43.45599" lon="-0.34843">
        <ele>175.3</ele>
        <time>2026-08-31T10:21:37Z</time>
      </trkpt>
      <trkpt lat="43.45599" lon="-0.34842">
        <ele>176.3</ele>
        <time>2026-08-31T10:21:38Z</time>
      </trkpt>
      <trkpt lat="43.45598" lon="-0.34841">
        <ele>176.3</ele>
        <time>2026-08-31T10:21:38Z</time>
      </trkpt>
      <trkpt lat="43.45598" lon="-0.3484">
        <ele>176.3</ele>
        <time>2026-08-31T10:21:39Z</time>
      </trkpt>
      <trkpt lat="43.45597" lon="-0.34839">
        <ele>176.3</ele>
        <time>2026-08-31T10:21:40Z</time>
      </trkpt>
      <trkpt lat="43.45597" lon="-0.34839">
        <ele>175.3</ele>
        <time>2026-08-31T10:21:40Z</time>
      </trkpt>
      <trkpt lat="43.45597" lon="-0.34838">
        <ele>175.3</ele>
        <time>2026-08-31T10:21:41Z</time>
      </trkpt>
      <trkpt lat="43.45596" lon="-0.34837">
        <ele>175.3</ele>
        <time>2026-08-31T10:21:41Z</time>
      </trkpt>
      <trkpt lat="43.45596" lon="-0.34836">
        <ele>175.3</ele>
        <time>2026-08-31T10:21:42Z</time>
      </trkpt>
      <trkpt lat="43.45595" lon="-0.34835">
        <ele>175.3</ele>
        <time>2026-08-31T10:21:42Z</time>
      </trkpt>
      <trkpt lat="43.45595" lon="-0.34834">
        <ele>174.3</ele>
        <time>2026-08-31T10:21:43Z</time>
      </trkpt>
      <trkpt lat="43.45595" lon="-0.34833">
        <ele>175.3</ele>
        <time>2026-08-31T10:21:44Z</time>
      </trkpt>
      <trkpt lat="43.45594" lon="-0.34833">
        <ele>175.3</ele>
        <time>2026-08-31T10:21:44Z</time>
      </trkpt>
      <trkpt lat="43.45594" lon="-0.34832">
        <ele>175.3</ele>
        <time>2026-08-31T10:21:45Z</time>
      </trkpt>
      <trkpt lat="43.45593" lon="-0.34831">
        <ele>175.3</ele>
        <time>2026-08-31T10:21:45Z</time>
      </trkpt>
      <trkpt lat="43.45593" lon="-0.3483">
        <ele>175.3</ele>
        <time>2026-08-31T10:21:46Z</time>
      </trkpt>
      <trkpt lat="43.45592" lon="-0.34829">
        <ele>175.3</ele>
        <time>2026-08-31T10:21:47Z</time>
      </trkpt>
      <trkpt lat="43.45592" lon="-0.34829">
        <ele>175.3</ele>
        <time>2026-08-31T10:21:47Z</time>
      </trkpt>
      <trkpt lat="43.45591" lon="-0.34828">
        <ele>175.3</ele>
        <time>2026-08-31T10:21:48Z</time>
      </trkpt>
      <trkpt lat="43.45591" lon="-0.34827">
        <ele>175.3</ele>
        <time>2026-08-31T10:21:48Z</time>
      </trkpt>
      <trkpt lat="43.4559" lon="-0.34826">
        <ele>175.3</ele>
        <time>2026-08-31T10:21:49Z</time>
      </trkpt>
      <trkpt lat="43.4559" lon="-0.34825">
        <ele>175.3</ele>
        <time>2026-08-31T10:21:50Z</time>
      </trkpt>
      <trkpt lat="43.45589" lon="-0.34825">
        <ele>175.3</ele>
        <time>2026-08-31T10:21:50Z</time>
      </trkpt>
      <trkpt lat="43.45589" lon="-0.34824">
        <ele>175.3</ele>
        <time>2026-08-31T10:21:51Z</time>
      </trkpt>
      <trkpt lat="43.45588" lon="-0.34823">
        <ele>175.3</ele>
        <time>2026-08-31T10:21:51Z</time>
      </trkpt>
      <trkpt lat="43.45588" lon="-0.34822">
        <ele>175.3</ele>
        <time>2026-08-31T10:21:52Z</time>
      </trkpt>
      <trkpt lat="43.45587" lon="-0.34821">
        <ele>175.3</ele>
        <time>2026-08-31T10:21:52Z</time>
      </trkpt>
      <trkpt lat="43.45587" lon="-0.3482">
        <ele>175.3</ele>
        <time>2026-08-31T10:21:53Z</time>
      </trkpt>
      <trkpt lat="43.45586" lon="-0.3482">
        <ele>175.3</ele>
        <time>2026-08-31T10:21:54Z</time>
      </trkpt>
      <trkpt lat="43.45586" lon="-0.34819">
        <ele>175.3</ele>
        <time>2026-08-31T10:21:54Z</time>
      </trkpt>
      <trkpt lat="43.45585" lon="-0.34818">
        <ele>175.3</ele>
        <time>2026-08-31T10:21:55Z</time>
      </trkpt>
      <trkpt lat="43.45584" lon="-0.34818">
        <ele>175.3</ele>
        <time>2026-08-31T10:21:55Z</time>
      </trkpt>
      <trkpt lat="43.45584" lon="-0.34817">
        <ele>176.3</ele>
        <time>2026-08-31T10:21:56Z</time>
      </trkpt>
      <trkpt lat="43.45583" lon="-0.34816">
        <ele>176.3</ele>
        <time>2026-08-31T10:21:57Z</time>
      </trkpt>
      <trkpt lat="43.45582" lon="-0.34816">
        <ele>176.3</ele>
        <time>2026-08-31T10:21:57Z</time>
      </trkpt>
      <trkpt lat="43.45582" lon="-0.34816">
        <ele>176.3</ele>
        <time>2026-08-31T10:21:58Z</time>
      </trkpt>
      <trkpt lat="43.45581" lon="-0.34815">
        <ele>176.3</ele>
        <time>2026-08-31T10:21:58Z</time>
      </trkpt>
      <trkpt lat="43.4558" lon="-0.34815">
        <ele>176.3</ele>
        <time>2026-08-31T10:21:59Z</time>
      </trkpt>
      <trkpt lat="43.4558" lon="-0.34814">
        <ele>176.3</ele>
        <time>2026-08-31T10:21:59Z</time>
      </trkpt>
      <trkpt lat="43.45579" lon="-0.34814">
        <ele>176.3</ele>
        <time>2026-08-31T10:22:00Z</time>
      </trkpt>
      <trkpt lat="43.45578" lon="-0.34813">
        <ele>176.3</ele>
        <time>2026-08-31T10:22:01Z</time>
      </trkpt>
      <trkpt lat="43.45578" lon="-0.34813">
        <ele>176.3</ele>
        <time>2026-08-31T10:22:01Z</time>
      </trkpt>
      <trkpt lat="43.45577" lon="-0.34813">
        <ele>176.3</ele>
        <time>2026-08-31T10:22:02Z</time>
      </trkpt>
      <trkpt lat="43.45576" lon="-0.34812">
        <ele>176.3</ele>
        <time>2026-08-31T10:22:02Z</time>
      </trkpt>
      <trkpt lat="43.45575" lon="-0.34812">
        <ele>176.3</ele>
        <time>2026-08-31T10:22:03Z</time>
      </trkpt>
      <trkpt lat="43.45575" lon="-0.34812">
        <ele>176.3</ele>
        <time>2026-08-31T10:22:04Z</time>
      </trkpt>
      <trkpt lat="43.45574" lon="-0.34812">
        <ele>176.3</ele>
        <time>2026-08-31T10:22:04Z</time>
      </trkpt>
      <trkpt lat="43.45574" lon="-0.34812">
        <ele>176.3</ele>
        <time>2026-08-31T10:22:05Z</time>
      </trkpt>
      <trkpt lat="43.45573" lon="-0.34812">
        <ele>176.3</ele>
        <time>2026-08-31T10:22:05Z</time>
      </trkpt>
      <trkpt lat="43.45572" lon="-0.34812">
        <ele>177.3</ele>
        <time>2026-08-31T10:22:06Z</time>
      </trkpt>
      <trkpt lat="43.45571" lon="-0.34812">
        <ele>177.3</ele>
        <time>2026-08-31T10:22:07Z</time>
      </trkpt>
      <trkpt lat="43.4557" lon="-0.34812">
        <ele>177.3</ele>
        <time>2026-08-31T10:22:07Z</time>
      </trkpt>
      <trkpt lat="43.4557" lon="-0.34812">
        <ele>177.3</ele>
        <time>2026-08-31T10:22:08Z</time>
      </trkpt>
      <trkpt lat="43.45569" lon="-0.34811">
        <ele>177.3</ele>
        <time>2026-08-31T10:22:08Z</time>
      </trkpt>
      <trkpt lat="43.45568" lon="-0.34811">
        <ele>177.3</ele>
        <time>2026-08-31T10:22:09Z</time>
      </trkpt>
      <trkpt lat="43.45568" lon="-0.3481">
        <ele>177.3</ele>
        <time>2026-08-31T10:22:10Z</time>
      </trkpt>
      <trkpt lat="43.45567" lon="-0.34809">
        <ele>177.3</ele>
        <time>2026-08-31T10:22:10Z</time>
      </trkpt>
      <trkpt lat="43.45567" lon="-0.34808">
        <ele>177.3</ele>
        <time>2026-08-31T10:22:11Z</time>
      </trkpt>
      <trkpt lat="43.45566" lon="-0.34807">
        <ele>177.3</ele>
        <time>2026-08-31T10:22:11Z</time>
      </trkpt>
      <trkpt lat="43.45566" lon="-0.34807">
        <ele>178.3</ele>
        <time>2026-08-31T10:22:12Z</time>
      </trkpt>
      <trkpt lat="43.45565" lon="-0.34806">
        <ele>178.3</ele>
        <time>2026-08-31T10:22:12Z</time>
      </trkpt>
      <trkpt lat="43.45565" lon="-0.34806">
        <ele>178.3</ele>
        <time>2026-08-31T10:22:13Z</time>
      </trkpt>
      <trkpt lat="43.45564" lon="-0.34806">
        <ele>178.3</ele>
        <time>2026-08-31T10:22:14Z</time>
      </trkpt>
      <trkpt lat="43.45563" lon="-0.34805">
        <ele>178.3</ele>
        <time>2026-08-31T10:22:14Z</time>
      </trkpt>
      <trkpt lat="43.45563" lon="-0.34805">
        <ele>179.3</ele>
        <time>2026-08-31T10:22:15Z</time>
      </trkpt>
      <trkpt lat="43.45562" lon="-0.34805">
        <ele>179.3</ele>
        <time>2026-08-31T10:22:15Z</time>
      </trkpt>
      <trkpt lat="43.45562" lon="-0.34804">
        <ele>179.3</ele>
        <time>2026-08-31T10:22:16Z</time>
      </trkpt>
      <trkpt lat="43.45561" lon="-0.34804">
        <ele>179.3</ele>
        <time>2026-08-31T10:22:17Z</time>
      </trkpt>
      <trkpt lat="43.4556" lon="-0.34804">
        <ele>180.3</ele>
        <time>2026-08-31T10:22:17Z</time>
      </trkpt>
      <trkpt lat="43.4556" lon="-0.34803">
        <ele>181.3</ele>
        <time>2026-08-31T10:22:18Z</time>
      </trkpt>
      <trkpt lat="43.45559" lon="-0.34803">
        <ele>181.3</ele>
        <time>2026-08-31T10:22:18Z</time>
      </trkpt>
      <trkpt lat="43.45559" lon="-0.34802">
        <ele>182.3</ele>
        <time>2026-08-31T10:22:19Z</time>
      </trkpt>
      <trkpt lat="43.45558" lon="-0.34802">
        <ele>182.3</ele>
        <time>2026-08-31T10:22:19Z</time>
      </trkpt>
      <trkpt lat="43.45557" lon="-0.34801">
        <ele>182.3</ele>
        <time>2026-08-31T10:22:20Z</time>
      </trkpt>
      <trkpt lat="43.45557" lon="-0.348">
        <ele>182.3</ele>
        <time>2026-08-31T10:22:21Z</time>
      </trkpt>
      <trkpt lat="43.45556" lon="-0.348">
        <ele>182.3</ele>
        <time>2026-08-31T10:22:21Z</time>
      </trkpt>
      <trkpt lat="43.45555" lon="-0.34799">
        <ele>183.3</ele>
        <time>2026-08-31T10:22:22Z</time>
      </trkpt>
      <trkpt lat="43.45554" lon="-0.34799">
        <ele>183.3</ele>
        <time>2026-08-31T10:22:22Z</time>
      </trkpt>
      <trkpt lat="43.45554" lon="-0.34799">
        <ele>183.3</ele>
        <time>2026-08-31T10:22:23Z</time>
      </trkpt>
      <trkpt lat="43.45553" lon="-0.34798">
        <ele>183.3</ele>
        <time>2026-08-31T10:22:24Z</time>
      </trkpt>
      <trkpt lat="43.45552" lon="-0.34798">
        <ele>183.3</ele>
        <time>2026-08-31T10:22:24Z</time>
      </trkpt>
      <trkpt lat="43.45552" lon="-0.34797">
        <ele>183.3</ele>
        <time>2026-08-31T10:22:25Z</time>
      </trkpt>
      <trkpt lat="43.45551" lon="-0.34797">
        <ele>183.3</ele>
        <time>2026-08-31T10:22:25Z</time>
      </trkpt>
      <trkpt lat="43.4555" lon="-0.34796">
        <ele>184.3</ele>
        <time>2026-08-31T10:22:26Z</time>
      </trkpt>
      <trkpt lat="43.4555" lon="-0.34796">
        <ele>184.3</ele>
        <time>2026-08-31T10:22:27Z</time>
      </trkpt>
      <trkpt lat="43.45549" lon="-0.34796">
        <ele>184.3</ele>
        <time>2026-08-31T10:22:27Z</time>
      </trkpt>
      <trkpt lat="43.45548" lon="-0.34796">
        <ele>184.3</ele>
        <time>2026-08-31T10:22:28Z</time>
      </trkpt>
      <trkpt lat="43.45548" lon="-0.34795">
        <ele>184.3</ele>
        <time>2026-08-31T10:22:28Z</time>
      </trkpt>
      <trkpt lat="43.45547" lon="-0.34795">
        <ele>185.3</ele>
        <time>2026-08-31T10:22:29Z</time>
      </trkpt>
      <trkpt lat="43.45546" lon="-0.34795">
        <ele>185.3</ele>
        <time>2026-08-31T10:22:29Z</time>
      </trkpt>
      <trkpt lat="43.45545" lon="-0.34795">
        <ele>186.3</ele>
        <time>2026-08-31T10:22:30Z</time>
      </trkpt>
      <trkpt lat="43.45545" lon="-0.34795">
        <ele>186.3</ele>
        <time>2026-08-31T10:22:31Z</time>
      </trkpt>
      <trkpt lat="43.45544" lon="-0.34795">
        <ele>186.3</ele>
        <time>2026-08-31T10:22:31Z</time>
      </trkpt>
      <trkpt lat="43.45543" lon="-0.34795">
        <ele>186.3</ele>
        <time>2026-08-31T10:22:32Z</time>
      </trkpt>
      <trkpt lat="43.45542" lon="-0.34795">
        <ele>186.3</ele>
        <time>2026-08-31T10:22:32Z</time>
      </trkpt>
      <trkpt lat="43.45542" lon="-0.34795">
        <ele>186.3</ele>
        <time>2026-08-31T10:22:33Z</time>
      </trkpt>
      <trkpt lat="43.45541" lon="-0.34795">
        <ele>186.3</ele>
        <time>2026-08-31T10:22:34Z</time>
      </trkpt>
      <trkpt lat="43.4554" lon="-0.34795">
        <ele>187.3</ele>
        <time>2026-08-31T10:22:34Z</time>
      </trkpt>
      <trkpt lat="43.4554" lon="-0.34795">
        <ele>187.3</ele>
        <time>2026-08-31T10:22:35Z</time>
      </trkpt>
      <trkpt lat="43.45539" lon="-0.34794">
        <ele>187.3</ele>
        <time>2026-08-31T10:22:35Z</time>
      </trkpt>
      <trkpt lat="43.45539" lon="-0.34794">
        <ele>187.3</ele>
        <time>2026-08-31T10:22:36Z</time>
      </trkpt>
      <trkpt lat="43.45538" lon="-0.34794">
        <ele>187.3</ele>
        <time>2026-08-31T10:22:37Z</time>
      </trkpt>
      <trkpt lat="43.45537" lon="-0.34793">
        <ele>187.3</ele>
        <time>2026-08-31T10:22:37Z</time>
      </trkpt>
      <trkpt lat="43.45537" lon="-0.34793">
        <ele>187.3</ele>
        <time>2026-08-31T10:22:38Z</time>
      </trkpt>
      <trkpt lat="43.45536" lon="-0.34793">
        <ele>187.3</ele>
        <time>2026-08-31T10:22:38Z</time>
      </trkpt>
      <trkpt lat="43.45535" lon="-0.34792">
        <ele>187.3</ele>
        <time>2026-08-31T10:22:39Z</time>
      </trkpt>
      <trkpt lat="43.45535" lon="-0.34792">
        <ele>187.3</ele>
        <time>2026-08-31T10:22:40Z</time>
      </trkpt>
      <trkpt lat="43.45534" lon="-0.34791">
        <ele>187.3</ele>
        <time>2026-08-31T10:22:40Z</time>
      </trkpt>
      <trkpt lat="43.45533" lon="-0.34791">
        <ele>187.3</ele>
        <time>2026-08-31T10:22:41Z</time>
      </trkpt>
      <trkpt lat="43.45533" lon="-0.34791">
        <ele>187.3</ele>
        <time>2026-08-31T10:22:41Z</time>
      </trkpt>
      <trkpt lat="43.45532" lon="-0.34791">
        <ele>187.3</ele>
        <time>2026-08-31T10:22:42Z</time>
      </trkpt>
      <trkpt lat="43.45531" lon="-0.34791">
        <ele>187.3</ele>
        <time>2026-08-31T10:22:42Z</time>
      </trkpt>
      <trkpt lat="43.45531" lon="-0.34791">
        <ele>187.3</ele>
        <time>2026-08-31T10:22:43Z</time>
      </trkpt>
      <trkpt lat="43.4553" lon="-0.34791">
        <ele>187.3</ele>
        <time>2026-08-31T10:22:44Z</time>
      </trkpt>
      <trkpt lat="43.45529" lon="-0.34791">
        <ele>188.3</ele>
        <time>2026-08-31T10:22:44Z</time>
      </trkpt>
      <trkpt lat="43.45529" lon="-0.34792">
        <ele>189.3</ele>
        <time>2026-08-31T10:22:45Z</time>
      </trkpt>
      <trkpt lat="43.45528" lon="-0.34791">
        <ele>189.3</ele>
        <time>2026-08-31T10:22:45Z</time>
      </trkpt>
      <trkpt lat="43.45527" lon="-0.34792">
        <ele>189.3</ele>
        <time>2026-08-31T10:22:46Z</time>
      </trkpt>
      <trkpt lat="43.45526" lon="-0.34792">
        <ele>189.3</ele>
        <time>2026-08-31T10:22:46Z</time>
      </trkpt>
      <trkpt lat="43.45526" lon="-0.34792">
        <ele>189.3</ele>
        <time>2026-08-31T10:22:47Z</time>
      </trkpt>
      <trkpt lat="43.45525" lon="-0.34792">
        <ele>190.3</ele>
        <time>2026-08-31T10:22:48Z</time>
      </trkpt>
      <trkpt lat="43.45524" lon="-0.34792">
        <ele>190.3</ele>
        <time>2026-08-31T10:22:48Z</time>
      </trkpt>
      <trkpt lat="43.45523" lon="-0.34792">
        <ele>191.3</ele>
        <time>2026-08-31T10:22:49Z</time>
      </trkpt>
      <trkpt lat="43.45523" lon="-0.34792">
        <ele>191.3</ele>
        <time>2026-08-31T10:22:49Z</time>
      </trkpt>
      <trkpt lat="43.45522" lon="-0.34792">
        <ele>192.3</ele>
        <time>2026-08-31T10:22:50Z</time>
      </trkpt>
      <trkpt lat="43.45521" lon="-0.34792">
        <ele>192.3</ele>
        <time>2026-08-31T10:22:51Z</time>
      </trkpt>
      <trkpt lat="43.4552" lon="-0.34792">
        <ele>192.3</ele>
        <time>2026-08-31T10:22:51Z</time>
      </trkpt>
      <trkpt lat="43.4552" lon="-0.34792">
        <ele>192.3</ele>
        <time>2026-08-31T10:22:52Z</time>
      </trkpt>
      <trkpt lat="43.45519" lon="-0.34792">
        <ele>192.3</ele>
        <time>2026-08-31T10:22:52Z</time>
      </trkpt>
      <trkpt lat="43.45518" lon="-0.34792">
        <ele>192.3</ele>
        <time>2026-08-31T10:22:53Z</time>
      </trkpt>
      <trkpt lat="43.45518" lon="-0.34793">
        <ele>192.3</ele>
        <time>2026-08-31T10:22:54Z</time>
      </trkpt>
      <trkpt lat="43.45517" lon="-0.34793">
        <ele>192.3</ele>
        <time>2026-08-31T10:22:54Z</time>
      </trkpt>
      <trkpt lat="43.45516" lon="-0.34793">
        <ele>192.3</ele>
        <time>2026-08-31T10:22:55Z</time>
      </trkpt>
      <trkpt lat="43.45516" lon="-0.34793">
        <ele>192.3</ele>
        <time>2026-08-31T10:22:55Z</time>
      </trkpt>
      <trkpt lat="43.45515" lon="-0.34793">
        <ele>192.3</ele>
        <time>2026-08-31T10:22:56Z</time>
      </trkpt>
      <trkpt lat="43.45514" lon="-0.34793">
        <ele>192.3</ele>
        <time>2026-08-31T10:22:57Z</time>
      </trkpt>
      <trkpt lat="43.45514" lon="-0.34792">
        <ele>193.3</ele>
        <time>2026-08-31T10:22:57Z</time>
      </trkpt>
      <trkpt lat="43.45513" lon="-0.34792">
        <ele>193.3</ele>
        <time>2026-08-31T10:22:58Z</time>
      </trkpt>
      <trkpt lat="43.45512" lon="-0.34792">
        <ele>193.3</ele>
        <time>2026-08-31T10:22:58Z</time>
      </trkpt>
      <trkpt lat="43.45512" lon="-0.34792">
        <ele>194.3</ele>
        <time>2026-08-31T10:22:59Z</time>
      </trkpt>
      <trkpt lat="43.45511" lon="-0.34792">
        <ele>194.3</ele>
        <time>2026-08-31T10:23:00Z</time>
      </trkpt>
      <trkpt lat="43.4551" lon="-0.34792">
        <ele>193.3</ele>
        <time>2026-08-31T10:23:00Z</time>
      </trkpt>
      <trkpt lat="43.4551" lon="-0.34791">
        <ele>193.3</ele>
        <time>2026-08-31T10:23:01Z</time>
      </trkpt>
      <trkpt lat="43.45509" lon="-0.34791">
        <ele>193.3</ele>
        <time>2026-08-31T10:23:01Z</time>
      </trkpt>
      <trkpt lat="43.45509" lon="-0.34791">
        <ele>193.3</ele>
        <time>2026-08-31T10:23:02Z</time>
      </trkpt>
      <trkpt lat="43.45508" lon="-0.34791">
        <ele>193.3</ele>
        <time>2026-08-31T10:23:03Z</time>
      </trkpt>
      <trkpt lat="43.45507" lon="-0.3479">
        <ele>194.3</ele>
        <time>2026-08-31T10:23:03Z</time>
      </trkpt>
      <trkpt lat="43.45507" lon="-0.3479">
        <ele>194.3</ele>
        <time>2026-08-31T10:23:04Z</time>
      </trkpt>
      <trkpt lat="43.45506" lon="-0.3479">
        <ele>194.3</ele>
        <time>2026-08-31T10:23:04Z</time>
      </trkpt>
      <trkpt lat="43.45505" lon="-0.34789">
        <ele>194.3</ele>
        <time>2026-08-31T10:23:05Z</time>
      </trkpt>
      <trkpt lat="43.45505" lon="-0.34788">
        <ele>194.3</ele>
        <time>2026-08-31T10:23:05Z</time>
      </trkpt>
      <trkpt lat="43.45505" lon="-0.34787">
        <ele>194.3</ele>
        <time>2026-08-31T10:23:06Z</time>
      </trkpt>
      <trkpt lat="43.45504" lon="-0.34787">
        <ele>194.3</ele>
        <time>2026-08-31T10:23:07Z</time>
      </trkpt>
      <trkpt lat="43.45504" lon="-0.34786">
        <ele>193.3</ele>
        <time>2026-08-31T10:23:07Z</time>
      </trkpt>
      <trkpt lat="43.45503" lon="-0.34786">
        <ele>193.3</ele>
        <time>2026-08-31T10:23:08Z</time>
      </trkpt>
      <trkpt lat="43.45502" lon="-0.34786">
        <ele>193.3</ele>
        <time>2026-08-31T10:23:08Z</time>
      </trkpt>
      <trkpt lat="43.45501" lon="-0.34786">
        <ele>194.3</ele>
        <time>2026-08-31T10:23:09Z</time>
      </trkpt>
      <trkpt lat="43.45501" lon="-0.34786">
        <ele>194.3</ele>
        <time>2026-08-31T10:23:10Z</time>
      </trkpt>
      <trkpt lat="43.455" lon="-0.34786">
        <ele>194.3</ele>
        <time>2026-08-31T10:23:10Z</time>
      </trkpt>
      <trkpt lat="43.45499" lon="-0.34787">
        <ele>194.3</ele>
        <time>2026-08-31T10:23:11Z</time>
      </trkpt>
      <trkpt lat="43.45499" lon="-0.34787">
        <ele>194.3</ele>
        <time>2026-08-31T10:23:11Z</time>
      </trkpt>
      <trkpt lat="43.45498" lon="-0.34787">
        <ele>194.3</ele>
        <time>2026-08-31T10:23:12Z</time>
      </trkpt>
      <trkpt lat="43.45497" lon="-0.34787">
        <ele>194.3</ele>
        <time>2026-08-31T10:23:13Z</time>
      </trkpt>
      <trkpt lat="43.45497" lon="-0.34788">
        <ele>194.3</ele>
        <time>2026-08-31T10:23:13Z</time>
      </trkpt>
      <trkpt lat="43.45496" lon="-0.34788">
        <ele>194.3</ele>
        <time>2026-08-31T10:23:14Z</time>
      </trkpt>
      <trkpt lat="43.45495" lon="-0.34788">
        <ele>194.3</ele>
        <time>2026-08-31T10:23:14Z</time>
      </trkpt>
      <trkpt lat="43.45495" lon="-0.34789">
        <ele>195.3</ele>
        <time>2026-08-31T10:23:15Z</time>
      </trkpt>
      <trkpt lat="43.45494" lon="-0.34789">
        <ele>195.3</ele>
        <time>2026-08-31T10:23:15Z</time>
      </trkpt>
      <trkpt lat="43.45493" lon="-0.34789">
        <ele>194.3</ele>
        <time>2026-08-31T10:23:16Z</time>
      </trkpt>
      <trkpt lat="43.45492" lon="-0.34789">
        <ele>194.3</ele>
        <time>2026-08-31T10:23:17Z</time>
      </trkpt>
      <trkpt lat="43.45492" lon="-0.34789">
        <ele>195.3</ele>
        <time>2026-08-31T10:23:17Z</time>
      </trkpt>
      <trkpt lat="43.45491" lon="-0.34789">
        <ele>195.3</ele>
        <time>2026-08-31T10:23:18Z</time>
      </trkpt>
      <trkpt lat="43.4549" lon="-0.34789">
        <ele>195.3</ele>
        <time>2026-08-31T10:23:19Z</time>
      </trkpt>
      <trkpt lat="43.45489" lon="-0.34789">
        <ele>195.3</ele>
        <time>2026-08-31T10:23:20Z</time>
      </trkpt>
      <trkpt lat="43.45488" lon="-0.34789">
        <ele>195.3</ele>
        <time>2026-08-31T10:23:20Z</time>
      </trkpt>
      <trkpt lat="43.45488" lon="-0.34789">
        <ele>195.3</ele>
        <time>2026-08-31T10:23:21Z</time>
      </trkpt>
      <trkpt lat="43.45487" lon="-0.34789">
        <ele>195.3</ele>
        <time>2026-08-31T10:23:21Z</time>
      </trkpt>
      <trkpt lat="43.45486" lon="-0.34789">
        <ele>195.3</ele>
        <time>2026-08-31T10:23:22Z</time>
      </trkpt>
      <trkpt lat="43.45486" lon="-0.34789">
        <ele>195.3</ele>
        <time>2026-08-31T10:23:22Z</time>
      </trkpt>
      <trkpt lat="43.45485" lon="-0.34789">
        <ele>195.3</ele>
        <time>2026-08-31T10:23:23Z</time>
      </trkpt>
      <trkpt lat="43.45484" lon="-0.34789">
        <ele>195.3</ele>
        <time>2026-08-31T10:23:24Z</time>
      </trkpt>
      <trkpt lat="43.45484" lon="-0.34789">
        <ele>195.3</ele>
        <time>2026-08-31T10:23:24Z</time>
      </trkpt>
      <trkpt lat="43.45483" lon="-0.34789">
        <ele>195.3</ele>
        <time>2026-08-31T10:23:25Z</time>
      </trkpt>
      <trkpt lat="43.45482" lon="-0.34789">
        <ele>195.3</ele>
        <time>2026-08-31T10:23:25Z</time>
      </trkpt>
      <trkpt lat="43.45482" lon="-0.34789">
        <ele>195.3</ele>
        <time>2026-08-31T10:23:26Z</time>
      </trkpt>
      <trkpt lat="43.45481" lon="-0.34789">
        <ele>195.3</ele>
        <time>2026-08-31T10:23:26Z</time>
      </trkpt>
      <trkpt lat="43.4548" lon="-0.34789">
        <ele>196.3</ele>
        <time>2026-08-31T10:23:27Z</time>
      </trkpt>
      <trkpt lat="43.4548" lon="-0.34789">
        <ele>196.3</ele>
        <time>2026-08-31T10:23:28Z</time>
      </trkpt>
      <trkpt lat="43.45479" lon="-0.34789">
        <ele>195.3</ele>
        <time>2026-08-31T10:23:28Z</time>
      </trkpt>
      <trkpt lat="43.45479" lon="-0.34789">
        <ele>195.3</ele>
        <time>2026-08-31T10:23:29Z</time>
      </trkpt>
      <trkpt lat="43.45478" lon="-0.34789">
        <ele>195.3</ele>
        <time>2026-08-31T10:23:29Z</time>
      </trkpt>
      <trkpt lat="43.45477" lon="-0.34789">
        <ele>195.3</ele>
        <time>2026-08-31T10:23:30Z</time>
      </trkpt>
      <trkpt lat="43.45477" lon="-0.34789">
        <ele>195.3</ele>
        <time>2026-08-31T10:23:31Z</time>
      </trkpt>
      <trkpt lat="43.45476" lon="-0.34789">
        <ele>195.3</ele>
        <time>2026-08-31T10:23:31Z</time>
      </trkpt>
      <trkpt lat="43.45475" lon="-0.34789">
        <ele>195.3</ele>
        <time>2026-08-31T10:23:32Z</time>
      </trkpt>
      <trkpt lat="43.45475" lon="-0.34789">
        <ele>195.3</ele>
        <time>2026-08-31T10:23:32Z</time>
      </trkpt>
      <trkpt lat="43.45474" lon="-0.34789">
        <ele>194.3</ele>
        <time>2026-08-31T10:23:33Z</time>
      </trkpt>
      <trkpt lat="43.45473" lon="-0.34789">
        <ele>194.3</ele>
        <time>2026-08-31T10:23:33Z</time>
      </trkpt>
      <trkpt lat="43.45473" lon="-0.34789">
        <ele>195.3</ele>
        <time>2026-08-31T10:23:34Z</time>
      </trkpt>
      <trkpt lat="43.45472" lon="-0.34789">
        <ele>195.3</ele>
        <time>2026-08-31T10:23:35Z</time>
      </trkpt>
      <trkpt lat="43.45471" lon="-0.34789">
        <ele>195.3</ele>
        <time>2026-08-31T10:23:35Z</time>
      </trkpt>
      <trkpt lat="43.45471" lon="-0.34789">
        <ele>195.3</ele>
        <time>2026-08-31T10:23:36Z</time>
      </trkpt>
      <trkpt lat="43.4547" lon="-0.34789">
        <ele>195.3</ele>
        <time>2026-08-31T10:23:36Z</time>
      </trkpt>
      <trkpt lat="43.45469" lon="-0.3479">
        <ele>195.3</ele>
        <time>2026-08-31T10:23:37Z</time>
      </trkpt>
      <trkpt lat="43.45469" lon="-0.3479">
        <ele>195.3</ele>
        <time>2026-08-31T10:23:38Z</time>
      </trkpt>
      <trkpt lat="43.45468" lon="-0.3479">
        <ele>195.3</ele>
        <time>2026-08-31T10:23:38Z</time>
      </trkpt>
      <trkpt lat="43.45467" lon="-0.3479">
        <ele>195.3</ele>
        <time>2026-08-31T10:23:39Z</time>
      </trkpt>
      <trkpt lat="43.45467" lon="-0.34791">
        <ele>195.3</ele>
        <time>2026-08-31T10:23:39Z</time>
      </trkpt>
      <trkpt lat="43.45466" lon="-0.34791">
        <ele>195.3</ele>
        <time>2026-08-31T10:23:40Z</time>
      </trkpt>
      <trkpt lat="43.45465" lon="-0.34791">
        <ele>195.3</ele>
        <time>2026-08-31T10:23:40Z</time>
      </trkpt>
      <trkpt lat="43.45464" lon="-0.34792">
        <ele>195.3</ele>
        <time>2026-08-31T10:23:41Z</time>
      </trkpt>
      <trkpt lat="43.45464" lon="-0.34792">
        <ele>195.3</ele>
        <time>2026-08-31T10:23:42Z</time>
      </trkpt>
      <trkpt lat="43.45463" lon="-0.34792">
        <ele>195.3</ele>
        <time>2026-08-31T10:23:42Z</time>
      </trkpt>
      <trkpt lat="43.45462" lon="-0.34792">
        <ele>195.3</ele>
        <time>2026-08-31T10:23:43Z</time>
      </trkpt>
      <trkpt lat="43.45461" lon="-0.34793">
        <ele>195.3</ele>
        <time>2026-08-31T10:23:43Z</time>
      </trkpt>
      <trkpt lat="43.45461" lon="-0.34793">
        <ele>195.3</ele>
        <time>2026-08-31T10:23:44Z</time>
      </trkpt>
      <trkpt lat="43.4546" lon="-0.34794">
        <ele>195.3</ele>
        <time>2026-08-31T10:23:45Z</time>
      </trkpt>
      <trkpt lat="43.45459" lon="-0.34794">
        <ele>196.3</ele>
        <time>2026-08-31T10:23:45Z</time>
      </trkpt>
      <trkpt lat="43.45459" lon="-0.34794">
        <ele>196.3</ele>
        <time>2026-08-31T10:23:46Z</time>
      </trkpt>
      <trkpt lat="43.45458" lon="-0.34795">
        <ele>196.3</ele>
        <time>2026-08-31T10:23:46Z</time>
      </trkpt>
      <trkpt lat="43.45457" lon="-0.34795">
        <ele>196.3</ele>
        <time>2026-08-31T10:23:47Z</time>
      </trkpt>
      <trkpt lat="43.45457" lon="-0.34795">
        <ele>196.3</ele>
        <time>2026-08-31T10:23:48Z</time>
      </trkpt>
      <trkpt lat="43.45456" lon="-0.34795">
        <ele>196.3</ele>
        <time>2026-08-31T10:23:48Z</time>
      </trkpt>
      <trkpt lat="43.45456" lon="-0.34796">
        <ele>196.3</ele>
        <time>2026-08-31T10:23:49Z</time>
      </trkpt>
      <trkpt lat="43.45455" lon="-0.34796">
        <ele>196.3</ele>
        <time>2026-08-31T10:23:49Z</time>
      </trkpt>
      <trkpt lat="43.45454" lon="-0.34797">
        <ele>196.3</ele>
        <time>2026-08-31T10:23:50Z</time>
      </trkpt>
      <trkpt lat="43.45454" lon="-0.34797">
        <ele>196.3</ele>
        <time>2026-08-31T10:23:50Z</time>
      </trkpt>
      <trkpt lat="43.45453" lon="-0.34798">
        <ele>196.3</ele>
        <time>2026-08-31T10:23:51Z</time>
      </trkpt>
      <trkpt lat="43.45452" lon="-0.34798">
        <ele>196.3</ele>
        <time>2026-08-31T10:23:52Z</time>
      </trkpt>
      <trkpt lat="43.45452" lon="-0.34799">
        <ele>197.3</ele>
        <time>2026-08-31T10:23:52Z</time>
      </trkpt>
      <trkpt lat="43.45451" lon="-0.348">
        <ele>197.3</ele>
        <time>2026-08-31T10:23:53Z</time>
      </trkpt>
      <trkpt lat="43.45451" lon="-0.348">
        <ele>197.3</ele>
        <time>2026-08-31T10:23:53Z</time>
      </trkpt>
      <trkpt lat="43.4545" lon="-0.34801">
        <ele>197.3</ele>
        <time>2026-08-31T10:23:54Z</time>
      </trkpt>
      <trkpt lat="43.45449" lon="-0.34801">
        <ele>197.3</ele>
        <time>2026-08-31T10:23:54Z</time>
      </trkpt>
      <trkpt lat="43.45449" lon="-0.34802">
        <ele>197.3</ele>
        <time>2026-08-31T10:23:55Z</time>
      </trkpt>
      <trkpt lat="43.45448" lon="-0.34802">
        <ele>197.3</ele>
        <time>2026-08-31T10:23:56Z</time>
      </trkpt>
      <trkpt lat="43.45448" lon="-0.34803">
        <ele>197.3</ele>
        <time>2026-08-31T10:23:56Z</time>
      </trkpt>
      <trkpt lat="43.45447" lon="-0.34803">
        <ele>197.3</ele>
        <time>2026-08-31T10:23:57Z</time>
      </trkpt>
      <trkpt lat="43.45447" lon="-0.34804">
        <ele>197.3</ele>
        <time>2026-08-31T10:23:57Z</time>
      </trkpt>
      <trkpt lat="43.45446" lon="-0.34805">
        <ele>197.3</ele>
        <time>2026-08-31T10:23:58Z</time>
      </trkpt>
      <trkpt lat="43.45446" lon="-0.34806">
        <ele>197.3</ele>
        <time>2026-08-31T10:23:59Z</time>
      </trkpt>
      <trkpt lat="43.45445" lon="-0.34806">
        <ele>197.3</ele>
        <time>2026-08-31T10:23:59Z</time>
      </trkpt>
      <trkpt lat="43.45444" lon="-0.34807">
        <ele>197.3</ele>
        <time>2026-08-31T10:24:00Z</time>
      </trkpt>
      <trkpt lat="43.45444" lon="-0.34807">
        <ele>197.3</ele>
        <time>2026-08-31T10:24:00Z</time>
      </trkpt>
      <trkpt lat="43.45443" lon="-0.34808">
        <ele>198.3</ele>
        <time>2026-08-31T10:24:01Z</time>
      </trkpt>
      <trkpt lat="43.45443" lon="-0.34808">
        <ele>198.3</ele>
        <time>2026-08-31T10:24:01Z</time>
      </trkpt>
      <trkpt lat="43.45442" lon="-0.34809">
        <ele>198.3</ele>
        <time>2026-08-31T10:24:02Z</time>
      </trkpt>
      <trkpt lat="43.45442" lon="-0.3481">
        <ele>198.3</ele>
        <time>2026-08-31T10:24:03Z</time>
      </trkpt>
      <trkpt lat="43.45441" lon="-0.3481">
        <ele>198.3</ele>
        <time>2026-08-31T10:24:03Z</time>
      </trkpt>
      <trkpt lat="43.45441" lon="-0.34811">
        <ele>198.3</ele>
        <time>2026-08-31T10:24:04Z</time>
      </trkpt>
      <trkpt lat="43.45441" lon="-0.34811">
        <ele>198.3</ele>
        <time>2026-08-31T10:24:04Z</time>
      </trkpt>
      <trkpt lat="43.4544" lon="-0.34812">
        <ele>198.3</ele>
        <time>2026-08-31T10:24:05Z</time>
      </trkpt>
      <trkpt lat="43.4544" lon="-0.34812">
        <ele>198.3</ele>
        <time>2026-08-31T10:24:05Z</time>
      </trkpt>
      <trkpt lat="43.45439" lon="-0.34813">
        <ele>199.3</ele>
        <time>2026-08-31T10:24:06Z</time>
      </trkpt>
      <trkpt lat="43.45439" lon="-0.34814">
        <ele>199.3</ele>
        <time>2026-08-31T10:24:07Z</time>
      </trkpt>
      <trkpt lat="43.45438" lon="-0.34815">
        <ele>199.3</ele>
        <time>2026-08-31T10:24:07Z</time>
      </trkpt>
      <trkpt lat="43.45438" lon="-0.34815">
        <ele>200.3</ele>
        <time>2026-08-31T10:24:08Z</time>
      </trkpt>
      <trkpt lat="43.45437" lon="-0.34816">
        <ele>200.3</ele>
        <time>2026-08-31T10:24:08Z</time>
      </trkpt>
      <trkpt lat="43.45437" lon="-0.34817">
        <ele>200.3</ele>
        <time>2026-08-31T10:24:09Z</time>
      </trkpt>
      <trkpt lat="43.45436" lon="-0.34817">
        <ele>200.3</ele>
        <time>2026-08-31T10:24:10Z</time>
      </trkpt>
      <trkpt lat="43.45436" lon="-0.34818">
        <ele>200.3</ele>
        <time>2026-08-31T10:24:10Z</time>
      </trkpt>
      <trkpt lat="43.45435" lon="-0.34819">
        <ele>200.3</ele>
        <time>2026-08-31T10:24:11Z</time>
      </trkpt>
      <trkpt lat="43.45435" lon="-0.34819">
        <ele>200.3</ele>
        <time>2026-08-31T10:24:11Z</time>
      </trkpt>
      <trkpt lat="43.45434" lon="-0.3482">
        <ele>200.3</ele>
        <time>2026-08-31T10:24:12Z</time>
      </trkpt>
      <trkpt lat="43.45434" lon="-0.3482">
        <ele>200.3</ele>
        <time>2026-08-31T10:24:12Z</time>
      </trkpt>
      <trkpt lat="43.45433" lon="-0.34821">
        <ele>200.3</ele>
        <time>2026-08-31T10:24:13Z</time>
      </trkpt>
      <trkpt lat="43.45433" lon="-0.34822">
        <ele>200.3</ele>
        <time>2026-08-31T10:24:14Z</time>
      </trkpt>
      <trkpt lat="43.45433" lon="-0.34823">
        <ele>200.3</ele>
        <time>2026-08-31T10:24:14Z</time>
      </trkpt>
      <trkpt lat="43.45432" lon="-0.34823">
        <ele>200.3</ele>
        <time>2026-08-31T10:24:15Z</time>
      </trkpt>
      <trkpt lat="43.45432" lon="-0.34824">
        <ele>200.3</ele>
        <time>2026-08-31T10:24:15Z</time>
      </trkpt>
      <trkpt lat="43.45431" lon="-0.34825">
        <ele>201.3</ele>
        <time>2026-08-31T10:24:16Z</time>
      </trkpt>
      <trkpt lat="43.45431" lon="-0.34826">
        <ele>201.3</ele>
        <time>2026-08-31T10:24:16Z</time>
      </trkpt>
      <trkpt lat="43.45431" lon="-0.34827">
        <ele>201.3</ele>
        <time>2026-08-31T10:24:17Z</time>
      </trkpt>
      <trkpt lat="43.4543" lon="-0.34828">
        <ele>201.3</ele>
        <time>2026-08-31T10:24:17Z</time>
      </trkpt>
      <trkpt lat="43.4543" lon="-0.34829">
        <ele>201.3</ele>
        <time>2026-08-31T10:24:18Z</time>
      </trkpt>
      <trkpt lat="43.45429" lon="-0.34829">
        <ele>201.3</ele>
        <time>2026-08-31T10:24:19Z</time>
      </trkpt>
      <trkpt lat="43.45429" lon="-0.3483">
        <ele>201.3</ele>
        <time>2026-08-31T10:24:19Z</time>
      </trkpt>
      <trkpt lat="43.45428" lon="-0.34831">
        <ele>201.3</ele>
        <time>2026-08-31T10:24:20Z</time>
      </trkpt>
      <trkpt lat="43.45428" lon="-0.34832">
        <ele>201.3</ele>
        <time>2026-08-31T10:24:20Z</time>
      </trkpt>
      <trkpt lat="43.45427" lon="-0.34833">
        <ele>201.3</ele>
        <time>2026-08-31T10:24:21Z</time>
      </trkpt>
      <trkpt lat="43.45427" lon="-0.34833">
        <ele>201.3</ele>
        <time>2026-08-31T10:24:22Z</time>
      </trkpt>
      <trkpt lat="43.45426" lon="-0.34834">
        <ele>201.3</ele>
        <time>2026-08-31T10:24:22Z</time>
      </trkpt>
      <trkpt lat="43.45426" lon="-0.34835">
        <ele>201.3</ele>
        <time>2026-08-31T10:24:23Z</time>
      </trkpt>
      <trkpt lat="43.45425" lon="-0.34836">
        <ele>201.3</ele>
        <time>2026-08-31T10:24:23Z</time>
      </trkpt>
      <trkpt lat="43.45425" lon="-0.34836">
        <ele>202.3</ele>
        <time>2026-08-31T10:24:24Z</time>
      </trkpt>
      <trkpt lat="43.45425" lon="-0.34837">
        <ele>202.3</ele>
        <time>2026-08-31T10:24:24Z</time>
      </trkpt>
      <trkpt lat="43.45424" lon="-0.34838">
        <ele>202.3</ele>
        <time>2026-08-31T10:24:25Z</time>
      </trkpt>
      <trkpt lat="43.45424" lon="-0.34839">
        <ele>202.3</ele>
        <time>2026-08-31T10:24:25Z</time>
      </trkpt>
      <trkpt lat="43.45423" lon="-0.3484">
        <ele>202.3</ele>
        <time>2026-08-31T10:24:26Z</time>
      </trkpt>
      <trkpt lat="43.45423" lon="-0.34841">
        <ele>202.3</ele>
        <time>2026-08-31T10:24:27Z</time>
      </trkpt>
      <trkpt lat="43.45422" lon="-0.34842">
        <ele>202.3</ele>
        <time>2026-08-31T10:24:27Z</time>
      </trkpt>
      <trkpt lat="43.45422" lon="-0.34842">
        <ele>202.3</ele>
        <time>2026-08-31T10:24:28Z</time>
      </trkpt>
      <trkpt lat="43.45421" lon="-0.34843">
        <ele>202.3</ele>
        <time>2026-08-31T10:24:28Z</time>
      </trkpt>
      <trkpt lat="43.45421" lon="-0.34844">
        <ele>202.3</ele>
        <time>2026-08-31T10:24:29Z</time>
      </trkpt>
      <trkpt lat="43.4542" lon="-0.34845">
        <ele>202.3</ele>
        <time>2026-08-31T10:24:30Z</time>
      </trkpt>
      <trkpt lat="43.4542" lon="-0.34846">
        <ele>202.3</ele>
        <time>2026-08-31T10:24:30Z</time>
      </trkpt>
      <trkpt lat="43.45419" lon="-0.34847">
        <ele>202.3</ele>
        <time>2026-08-31T10:24:31Z</time>
      </trkpt>
      <trkpt lat="43.45419" lon="-0.34847">
        <ele>202.3</ele>
        <time>2026-08-31T10:24:31Z</time>
      </trkpt>
      <trkpt lat="43.45418" lon="-0.34848">
        <ele>202.3</ele>
        <time>2026-08-31T10:24:32Z</time>
      </trkpt>
      <trkpt lat="43.45418" lon="-0.34849">
        <ele>202.3</ele>
        <time>2026-08-31T10:24:32Z</time>
      </trkpt>
      <trkpt lat="43.45417" lon="-0.3485">
        <ele>203.3</ele>
        <time>2026-08-31T10:24:33Z</time>
      </trkpt>
      <trkpt lat="43.45417" lon="-0.34851">
        <ele>203.3</ele>
        <time>2026-08-31T10:24:33Z</time>
      </trkpt>
      <trkpt lat="43.45416" lon="-0.34852">
        <ele>203.3</ele>
        <time>2026-08-31T10:24:34Z</time>
      </trkpt>
      <trkpt lat="43.45416" lon="-0.34853">
        <ele>203.3</ele>
        <time>2026-08-31T10:24:35Z</time>
      </trkpt>
      <trkpt lat="43.45415" lon="-0.34853">
        <ele>203.3</ele>
        <time>2026-08-31T10:24:35Z</time>
      </trkpt>
      <trkpt lat="43.45415" lon="-0.34854">
        <ele>203.3</ele>
        <time>2026-08-31T10:24:36Z</time>
      </trkpt>
      <trkpt lat="43.45415" lon="-0.34855">
        <ele>203.3</ele>
        <time>2026-08-31T10:24:36Z</time>
      </trkpt>
      <trkpt lat="43.45414" lon="-0.34856">
        <ele>204.3</ele>
        <time>2026-08-31T10:24:37Z</time>
      </trkpt>
      <trkpt lat="43.45414" lon="-0.34857">
        <ele>204.3</ele>
        <time>2026-08-31T10:24:37Z</time>
      </trkpt>
      <trkpt lat="43.45413" lon="-0.34857">
        <ele>203.3</ele>
        <time>2026-08-31T10:24:38Z</time>
      </trkpt>
      <trkpt lat="43.45413" lon="-0.34858">
        <ele>203.3</ele>
        <time>2026-08-31T10:24:39Z</time>
      </trkpt>
      <trkpt lat="43.45412" lon="-0.34859">
        <ele>203.3</ele>
        <time>2026-08-31T10:24:39Z</time>
      </trkpt>
      <trkpt lat="43.45412" lon="-0.3486">
        <ele>203.3</ele>
        <time>2026-08-31T10:24:40Z</time>
      </trkpt>
      <trkpt lat="43.45412" lon="-0.34861">
        <ele>203.3</ele>
        <time>2026-08-31T10:24:40Z</time>
      </trkpt>
      <trkpt lat="43.45411" lon="-0.34862">
        <ele>204.3</ele>
        <time>2026-08-31T10:24:41Z</time>
      </trkpt>
      <trkpt lat="43.45411" lon="-0.34863">
        <ele>204.3</ele>
        <time>2026-08-31T10:24:41Z</time>
      </trkpt>
      <trkpt lat="43.4541" lon="-0.34863">
        <ele>203.3</ele>
        <time>2026-08-31T10:24:42Z</time>
      </trkpt>
      <trkpt lat="43.4541" lon="-0.34864">
        <ele>203.3</ele>
        <time>2026-08-31T10:24:43Z</time>
      </trkpt>
      <trkpt lat="43.4541" lon="-0.34865">
        <ele>203.3</ele>
        <time>2026-08-31T10:24:43Z</time>
      </trkpt>
      <trkpt lat="43.45409" lon="-0.34866">
        <ele>203.3</ele>
        <time>2026-08-31T10:24:44Z</time>
      </trkpt>
      <trkpt lat="43.45409" lon="-0.34867">
        <ele>203.3</ele>
        <time>2026-08-31T10:24:44Z</time>
      </trkpt>
      <trkpt lat="43.45408" lon="-0.34868">
        <ele>203.3</ele>
        <time>2026-08-31T10:24:45Z</time>
      </trkpt>
      <trkpt lat="43.45408" lon="-0.34869">
        <ele>203.3</ele>
        <time>2026-08-31T10:24:45Z</time>
      </trkpt>
      <trkpt lat="43.45408" lon="-0.3487">
        <ele>203.3</ele>
        <time>2026-08-31T10:24:46Z</time>
      </trkpt>
      <trkpt lat="43.45407" lon="-0.3487">
        <ele>203.3</ele>
        <time>2026-08-31T10:24:47Z</time>
      </trkpt>
      <trkpt lat="43.45407" lon="-0.34871">
        <ele>203.3</ele>
        <time>2026-08-31T10:24:47Z</time>
      </trkpt>
      <trkpt lat="43.45406" lon="-0.34872">
        <ele>203.3</ele>
        <time>2026-08-31T10:24:48Z</time>
      </trkpt>
      <trkpt lat="43.45406" lon="-0.34873">
        <ele>203.3</ele>
        <time>2026-08-31T10:24:48Z</time>
      </trkpt>
      <trkpt lat="43.45405" lon="-0.34874">
        <ele>203.3</ele>
        <time>2026-08-31T10:24:49Z</time>
      </trkpt>
      <trkpt lat="43.45405" lon="-0.34875">
        <ele>203.3</ele>
        <time>2026-08-31T10:24:49Z</time>
      </trkpt>
      <trkpt lat="43.45405" lon="-0.34876">
        <ele>204.3</ele>
        <time>2026-08-31T10:24:50Z</time>
      </trkpt>
      <trkpt lat="43.45404" lon="-0.34877">
        <ele>204.3</ele>
        <time>2026-08-31T10:24:50Z</time>
      </trkpt>
      <trkpt lat="43.45404" lon="-0.34877">
        <ele>204.3</ele>
        <time>2026-08-31T10:24:51Z</time>
      </trkpt>
      <trkpt lat="43.45403" lon="-0.34878">
        <ele>204.3</ele>
        <time>2026-08-31T10:24:52Z</time>
      </trkpt>
      <trkpt lat="43.45403" lon="-0.34879">
        <ele>204.3</ele>
        <time>2026-08-31T10:24:52Z</time>
      </trkpt>
      <trkpt lat="43.45402" lon="-0.3488">
        <ele>204.3</ele>
        <time>2026-08-31T10:24:53Z</time>
      </trkpt>
      <trkpt lat="43.45402" lon="-0.3488">
        <ele>204.3</ele>
        <time>2026-08-31T10:24:53Z</time>
      </trkpt>
      <trkpt lat="43.45401" lon="-0.34881">
        <ele>204.3</ele>
        <time>2026-08-31T10:24:54Z</time>
      </trkpt>
      <trkpt lat="43.45401" lon="-0.34882">
        <ele>204.3</ele>
        <time>2026-08-31T10:24:54Z</time>
      </trkpt>
      <trkpt lat="43.454" lon="-0.34883">
        <ele>204.3</ele>
        <time>2026-08-31T10:24:55Z</time>
      </trkpt>
      <trkpt lat="43.454" lon="-0.34884">
        <ele>204.3</ele>
        <time>2026-08-31T10:24:56Z</time>
      </trkpt>
      <trkpt lat="43.454" lon="-0.34885">
        <ele>204.3</ele>
        <time>2026-08-31T10:24:56Z</time>
      </trkpt>
      <trkpt lat="43.45399" lon="-0.34885">
        <ele>203.3</ele>
        <time>2026-08-31T10:24:57Z</time>
      </trkpt>
      <trkpt lat="43.45399" lon="-0.34886">
        <ele>203.3</ele>
        <time>2026-08-31T10:24:57Z</time>
      </trkpt>
      <trkpt lat="43.45398" lon="-0.34887">
        <ele>203.3</ele>
        <time>2026-08-31T10:24:58Z</time>
      </trkpt>
      <trkpt lat="43.45398" lon="-0.34888">
        <ele>203.3</ele>
        <time>2026-08-31T10:24:58Z</time>
      </trkpt>
      <trkpt lat="43.45397" lon="-0.34889">
        <ele>203.3</ele>
        <time>2026-08-31T10:24:59Z</time>
      </trkpt>
      <trkpt lat="43.45397" lon="-0.3489">
        <ele>203.3</ele>
        <time>2026-08-31T10:25:00Z</time>
      </trkpt>
      <trkpt lat="43.45396" lon="-0.3489">
        <ele>203.3</ele>
        <time>2026-08-31T10:25:00Z</time>
      </trkpt>
      <trkpt lat="43.45396" lon="-0.34891">
        <ele>203.3</ele>
        <time>2026-08-31T10:25:01Z</time>
      </trkpt>
      <trkpt lat="43.45395" lon="-0.34892">
        <ele>204.3</ele>
        <time>2026-08-31T10:25:01Z</time>
      </trkpt>
      <trkpt lat="43.45395" lon="-0.34893">
        <ele>204.3</ele>
        <time>2026-08-31T10:25:02Z</time>
      </trkpt>
      <trkpt lat="43.45395" lon="-0.34894">
        <ele>204.3</ele>
        <time>2026-08-31T10:25:02Z</time>
      </trkpt>
      <trkpt lat="43.45394" lon="-0.34894">
        <ele>203.3</ele>
        <time>2026-08-31T10:25:03Z</time>
      </trkpt>
      <trkpt lat="43.45394" lon="-0.34895">
        <ele>203.3</ele>
        <time>2026-08-31T10:25:03Z</time>
      </trkpt>
      <trkpt lat="43.45393" lon="-0.34895">
        <ele>203.3</ele>
        <time>2026-08-31T10:25:04Z</time>
      </trkpt>
      <trkpt lat="43.45393" lon="-0.34896">
        <ele>203.3</ele>
        <time>2026-08-31T10:25:05Z</time>
      </trkpt>
      <trkpt lat="43.45392" lon="-0.34897">
        <ele>203.3</ele>
        <time>2026-08-31T10:25:05Z</time>
      </trkpt>
      <trkpt lat="43.45391" lon="-0.34897">
        <ele>203.3</ele>
        <time>2026-08-31T10:25:06Z</time>
      </trkpt>
      <trkpt lat="43.45391" lon="-0.34898">
        <ele>203.3</ele>
        <time>2026-08-31T10:25:06Z</time>
      </trkpt>
      <trkpt lat="43.4539" lon="-0.34899">
        <ele>203.3</ele>
        <time>2026-08-31T10:25:07Z</time>
      </trkpt>
      <trkpt lat="43.4539" lon="-0.34899">
        <ele>203.3</ele>
        <time>2026-08-31T10:25:07Z</time>
      </trkpt>
      <trkpt lat="43.45389" lon="-0.349">
        <ele>203.3</ele>
        <time>2026-08-31T10:25:08Z</time>
      </trkpt>
      <trkpt lat="43.45389" lon="-0.34901">
        <ele>203.3</ele>
        <time>2026-08-31T10:25:08Z</time>
      </trkpt>
      <trkpt lat="43.45388" lon="-0.34901">
        <ele>203.3</ele>
        <time>2026-08-31T10:25:09Z</time>
      </trkpt>
      <trkpt lat="43.45388" lon="-0.34902">
        <ele>203.3</ele>
        <time>2026-08-31T10:25:10Z</time>
      </trkpt>
      <trkpt lat="43.45387" lon="-0.34902">
        <ele>203.3</ele>
        <time>2026-08-31T10:25:10Z</time>
      </trkpt>
      <trkpt lat="43.45387" lon="-0.34903">
        <ele>203.3</ele>
        <time>2026-08-31T10:25:11Z</time>
      </trkpt>
      <trkpt lat="43.45386" lon="-0.34903">
        <ele>203.3</ele>
        <time>2026-08-31T10:25:11Z</time>
      </trkpt>
      <trkpt lat="43.45386" lon="-0.34903">
        <ele>203.3</ele>
        <time>2026-08-31T10:25:12Z</time>
      </trkpt>
      <trkpt lat="43.45385" lon="-0.34904">
        <ele>203.3</ele>
        <time>2026-08-31T10:25:12Z</time>
      </trkpt>
      <trkpt lat="43.45385" lon="-0.34904">
        <ele>203.3</ele>
        <time>2026-08-31T10:25:13Z</time>
      </trkpt>
      <trkpt lat="43.45384" lon="-0.34905">
        <ele>203.3</ele>
        <time>2026-08-31T10:25:13Z</time>
      </trkpt>
      <trkpt lat="43.45384" lon="-0.34906">
        <ele>203.3</ele>
        <time>2026-08-31T10:25:14Z</time>
      </trkpt>
      <trkpt lat="43.45383" lon="-0.34906">
        <ele>203.3</ele>
        <time>2026-08-31T10:25:15Z</time>
      </trkpt>
      <trkpt lat="43.45383" lon="-0.34907">
        <ele>203.3</ele>
        <time>2026-08-31T10:25:15Z</time>
      </trkpt>
      <trkpt lat="43.45382" lon="-0.34907">
        <ele>204.3</ele>
        <time>2026-08-31T10:25:16Z</time>
      </trkpt>
      <trkpt lat="43.45382" lon="-0.34908">
        <ele>204.3</ele>
        <time>2026-08-31T10:25:16Z</time>
      </trkpt>
      <trkpt lat="43.45381" lon="-0.34908">
        <ele>203.3</ele>
        <time>2026-08-31T10:25:17Z</time>
      </trkpt>
      <trkpt lat="43.45381" lon="-0.34908">
        <ele>203.3</ele>
        <time>2026-08-31T10:25:17Z</time>
      </trkpt>
      <trkpt lat="43.4538" lon="-0.34909">
        <ele>203.3</ele>
        <time>2026-08-31T10:25:18Z</time>
      </trkpt>
      <trkpt lat="43.45379" lon="-0.34909">
        <ele>203.3</ele>
        <time>2026-08-31T10:25:18Z</time>
      </trkpt>
      <trkpt lat="43.45379" lon="-0.34909">
        <ele>203.3</ele>
        <time>2026-08-31T10:25:19Z</time>
      </trkpt>
      <trkpt lat="43.45378" lon="-0.3491">
        <ele>203.3</ele>
        <time>2026-08-31T10:25:20Z</time>
      </trkpt>
      <trkpt lat="43.45378" lon="-0.3491">
        <ele>203.3</ele>
        <time>2026-08-31T10:25:20Z</time>
      </trkpt>
      <trkpt lat="43.45378" lon="-0.34911">
        <ele>203.3</ele>
        <time>2026-08-31T10:25:21Z</time>
      </trkpt>
      <trkpt lat="43.45377" lon="-0.34911">
        <ele>203.3</ele>
        <time>2026-08-31T10:25:21Z</time>
      </trkpt>
      <trkpt lat="43.45377" lon="-0.34912">
        <ele>203.3</ele>
        <time>2026-08-31T10:25:22Z</time>
      </trkpt>
      <trkpt lat="43.45376" lon="-0.34912">
        <ele>203.3</ele>
        <time>2026-08-31T10:25:22Z</time>
      </trkpt>
      <trkpt lat="43.45376" lon="-0.34913">
        <ele>203.3</ele>
        <time>2026-08-31T10:25:23Z</time>
      </trkpt>
      <trkpt lat="43.45375" lon="-0.34913">
        <ele>203.3</ele>
        <time>2026-08-31T10:25:24Z</time>
      </trkpt>
      <trkpt lat="43.45375" lon="-0.34914">
        <ele>203.3</ele>
        <time>2026-08-31T10:25:24Z</time>
      </trkpt>
      <trkpt lat="43.45374" lon="-0.34915">
        <ele>203.3</ele>
        <time>2026-08-31T10:25:25Z</time>
      </trkpt>
      <trkpt lat="43.45374" lon="-0.34916">
        <ele>203.3</ele>
        <time>2026-08-31T10:25:25Z</time>
      </trkpt>
      <trkpt lat="43.45374" lon="-0.34916">
        <ele>203.3</ele>
        <time>2026-08-31T10:25:26Z</time>
      </trkpt>
      <trkpt lat="43.45373" lon="-0.34917">
        <ele>203.3</ele>
        <time>2026-08-31T10:25:26Z</time>
      </trkpt>
      <trkpt lat="43.45373" lon="-0.34918">
        <ele>203.3</ele>
        <time>2026-08-31T10:25:27Z</time>
      </trkpt>
      <trkpt lat="43.45373" lon="-0.34918">
        <ele>203.3</ele>
        <time>2026-08-31T10:25:27Z</time>
      </trkpt>
      <trkpt lat="43.45372" lon="-0.34919">
        <ele>202.3</ele>
        <time>2026-08-31T10:25:28Z</time>
      </trkpt>
      <trkpt lat="43.45372" lon="-0.3492">
        <ele>202.3</ele>
        <time>2026-08-31T10:25:29Z</time>
      </trkpt>
      <trkpt lat="43.45371" lon="-0.3492">
        <ele>202.3</ele>
        <time>2026-08-31T10:25:29Z</time>
      </trkpt>
      <trkpt lat="43.45371" lon="-0.34921">
        <ele>203.3</ele>
        <time>2026-08-31T10:25:30Z</time>
      </trkpt>
      <trkpt lat="43.4537" lon="-0.34921">
        <ele>203.3</ele>
        <time>2026-08-31T10:25:30Z</time>
      </trkpt>
      <trkpt lat="43.4537" lon="-0.34922">
        <ele>202.3</ele>
        <time>2026-08-31T10:25:31Z</time>
      </trkpt>
      <trkpt lat="43.4537" lon="-0.34923">
        <ele>202.3</ele>
        <time>2026-08-31T10:25:31Z</time>
      </trkpt>
      <trkpt lat="43.45369" lon="-0.34923">
        <ele>202.3</ele>
        <time>2026-08-31T10:25:32Z</time>
      </trkpt>
      <trkpt lat="43.45369" lon="-0.34924">
        <ele>202.3</ele>
        <time>2026-08-31T10:25:32Z</time>
      </trkpt>
      <trkpt lat="43.45368" lon="-0.34924">
        <ele>202.3</ele>
        <time>2026-08-31T10:25:33Z</time>
      </trkpt>
      <trkpt lat="43.45368" lon="-0.34925">
        <ele>202.3</ele>
        <time>2026-08-31T10:25:34Z</time>
      </trkpt>
      <trkpt lat="43.45367" lon="-0.34926">
        <ele>202.3</ele>
        <time>2026-08-31T10:25:34Z</time>
      </trkpt>
      <trkpt lat="43.45367" lon="-0.34926">
        <ele>202.3</ele>
        <time>2026-08-31T10:25:35Z</time>
      </trkpt>
      <trkpt lat="43.45366" lon="-0.34927">
        <ele>201.3</ele>
        <time>2026-08-31T10:25:35Z</time>
      </trkpt>
      <trkpt lat="43.45366" lon="-0.34927">
        <ele>201.3</ele>
        <time>2026-08-31T10:25:36Z</time>
      </trkpt>
      <trkpt lat="43.45365" lon="-0.34928">
        <ele>201.3</ele>
        <time>2026-08-31T10:25:36Z</time>
      </trkpt>
      <trkpt lat="43.45365" lon="-0.34929">
        <ele>201.3</ele>
        <time>2026-08-31T10:25:37Z</time>
      </trkpt>
      <trkpt lat="43.45364" lon="-0.34929">
        <ele>201.3</ele>
        <time>2026-08-31T10:25:37Z</time>
      </trkpt>
      <trkpt lat="43.45364" lon="-0.3493">
        <ele>201.3</ele>
        <time>2026-08-31T10:25:38Z</time>
      </trkpt>
      <trkpt lat="43.45363" lon="-0.3493">
        <ele>201.3</ele>
        <time>2026-08-31T10:25:39Z</time>
      </trkpt>
      <trkpt lat="43.45362" lon="-0.34931">
        <ele>200.3</ele>
        <time>2026-08-31T10:25:39Z</time>
      </trkpt>
      <trkpt lat="43.45362" lon="-0.34931">
        <ele>200.3</ele>
        <time>2026-08-31T10:25:40Z</time>
      </trkpt>
      <trkpt lat="43.45361" lon="-0.34932">
        <ele>200.3</ele>
        <time>2026-08-31T10:25:40Z</time>
      </trkpt>
      <trkpt lat="43.45361" lon="-0.34932">
        <ele>200.3</ele>
        <time>2026-08-31T10:25:41Z</time>
      </trkpt>
      <trkpt lat="43.4536" lon="-0.34933">
        <ele>200.3</ele>
        <time>2026-08-31T10:25:41Z</time>
      </trkpt>
      <trkpt lat="43.4536" lon="-0.34934">
        <ele>200.3</ele>
        <time>2026-08-31T10:25:42Z</time>
      </trkpt>
      <trkpt lat="43.45359" lon="-0.34935">
        <ele>200.3</ele>
        <time>2026-08-31T10:25:43Z</time>
      </trkpt>
      <trkpt lat="43.45359" lon="-0.34935">
        <ele>200.3</ele>
        <time>2026-08-31T10:25:43Z</time>
      </trkpt>
      <trkpt lat="43.45358" lon="-0.34936">
        <ele>200.3</ele>
        <time>2026-08-31T10:25:44Z</time>
      </trkpt>
      <trkpt lat="43.45358" lon="-0.34937">
        <ele>200.3</ele>
        <time>2026-08-31T10:25:44Z</time>
      </trkpt>
      <trkpt lat="43.45357" lon="-0.34937">
        <ele>200.3</ele>
        <time>2026-08-31T10:25:45Z</time>
      </trkpt>
      <trkpt lat="43.45357" lon="-0.34938">
        <ele>200.3</ele>
        <time>2026-08-31T10:25:45Z</time>
      </trkpt>
      <trkpt lat="43.45356" lon="-0.34938">
        <ele>199.3</ele>
        <time>2026-08-31T10:25:46Z</time>
      </trkpt>
      <trkpt lat="43.45355" lon="-0.34939">
        <ele>199.3</ele>
        <time>2026-08-31T10:25:46Z</time>
      </trkpt>
      <trkpt lat="43.45355" lon="-0.34939">
        <ele>199.3</ele>
        <time>2026-08-31T10:25:47Z</time>
      </trkpt>
      <trkpt lat="43.45354" lon="-0.3494">
        <ele>199.3</ele>
        <time>2026-08-31T10:25:48Z</time>
      </trkpt>
      <trkpt lat="43.45354" lon="-0.3494">
        <ele>199.3</ele>
        <time>2026-08-31T10:25:48Z</time>
      </trkpt>
      <trkpt lat="43.45353" lon="-0.3494">
        <ele>199.3</ele>
        <time>2026-08-31T10:25:49Z</time>
      </trkpt>
      <trkpt lat="43.45353" lon="-0.3494">
        <ele>199.3</ele>
        <time>2026-08-31T10:25:49Z</time>
      </trkpt>
      <trkpt lat="43.45352" lon="-0.34941">
        <ele>199.3</ele>
        <time>2026-08-31T10:25:50Z</time>
      </trkpt>
      <trkpt lat="43.45351" lon="-0.34941">
        <ele>199.3</ele>
        <time>2026-08-31T10:25:50Z</time>
      </trkpt>
      <trkpt lat="43.4535" lon="-0.34942">
        <ele>199.3</ele>
        <time>2026-08-31T10:25:52Z</time>
      </trkpt>
      <trkpt lat="43.4535" lon="-0.34942">
        <ele>198.3</ele>
        <time>2026-08-31T10:25:52Z</time>
      </trkpt>
      <trkpt lat="43.45349" lon="-0.34943">
        <ele>198.3</ele>
        <time>2026-08-31T10:25:53Z</time>
      </trkpt>
      <trkpt lat="43.45348" lon="-0.34943">
        <ele>198.3</ele>
        <time>2026-08-31T10:25:53Z</time>
      </trkpt>
      <trkpt lat="43.45348" lon="-0.34943">
        <ele>198.3</ele>
        <time>2026-08-31T10:25:54Z</time>
      </trkpt>
      <trkpt lat="43.45347" lon="-0.34944">
        <ele>198.3</ele>
        <time>2026-08-31T10:25:54Z</time>
      </trkpt>
      <trkpt lat="43.45347" lon="-0.34944">
        <ele>198.3</ele>
        <time>2026-08-31T10:25:55Z</time>
      </trkpt>
      <trkpt lat="43.45346" lon="-0.34944">
        <ele>198.3</ele>
        <time>2026-08-31T10:25:56Z</time>
      </trkpt>
      <trkpt lat="43.45345" lon="-0.34945">
        <ele>198.3</ele>
        <time>2026-08-31T10:25:56Z</time>
      </trkpt>
      <trkpt lat="43.45345" lon="-0.34945">
        <ele>198.3</ele>
        <time>2026-08-31T10:25:57Z</time>
      </trkpt>
      <trkpt lat="43.45344" lon="-0.34945">
        <ele>198.3</ele>
        <time>2026-08-31T10:25:57Z</time>
      </trkpt>
      <trkpt lat="43.45344" lon="-0.34946">
        <ele>199.3</ele>
        <time>2026-08-31T10:25:58Z</time>
      </trkpt>
      <trkpt lat="43.45343" lon="-0.34946">
        <ele>199.3</ele>
        <time>2026-08-31T10:25:59Z</time>
      </trkpt>
      <trkpt lat="43.45343" lon="-0.34947">
        <ele>199.3</ele>
        <time>2026-08-31T10:25:59Z</time>
      </trkpt>
      <trkpt lat="43.45342" lon="-0.34947">
        <ele>200.3</ele>
        <time>2026-08-31T10:26:00Z</time>
      </trkpt>
      <trkpt lat="43.45342" lon="-0.34948">
        <ele>200.3</ele>
        <time>2026-08-31T10:26:00Z</time>
      </trkpt>
      <trkpt lat="43.45342" lon="-0.34949">
        <ele>200.3</ele>
        <time>2026-08-31T10:26:01Z</time>
      </trkpt>
      <trkpt lat="43.45342" lon="-0.3495">
        <ele>200.3</ele>
        <time>2026-08-31T10:26:02Z</time>
      </trkpt>
      <trkpt lat="43.45342" lon="-0.34951">
        <ele>200.3</ele>
        <time>2026-08-31T10:26:02Z</time>
      </trkpt>
      <trkpt lat="43.45342" lon="-0.34952">
        <ele>200.3</ele>
        <time>2026-08-31T10:26:03Z</time>
      </trkpt>
      <trkpt lat="43.45342" lon="-0.34953">
        <ele>201.3</ele>
        <time>2026-08-31T10:26:03Z</time>
      </trkpt>
      <trkpt lat="43.45342" lon="-0.34954">
        <ele>201.3</ele>
        <time>2026-08-31T10:26:04Z</time>
      </trkpt>
      <trkpt lat="43.45342" lon="-0.34955">
        <ele>201.3</ele>
        <time>2026-08-31T10:26:05Z</time>
      </trkpt>
      <trkpt lat="43.45342" lon="-0.34956">
        <ele>202.3</ele>
        <time>2026-08-31T10:26:05Z</time>
      </trkpt>
      <trkpt lat="43.45342" lon="-0.34956">
        <ele>203.3</ele>
        <time>2026-08-31T10:26:06Z</time>
      </trkpt>
      <trkpt lat="43.45342" lon="-0.34957">
        <ele>203.3</ele>
        <time>2026-08-31T10:26:06Z</time>
      </trkpt>
      <trkpt lat="43.45341" lon="-0.34959">
        <ele>203.3</ele>
        <time>2026-08-31T10:26:08Z</time>
      </trkpt>
      <trkpt lat="43.45341" lon="-0.3496">
        <ele>203.3</ele>
        <time>2026-08-31T10:26:09Z</time>
      </trkpt>
      <trkpt lat="43.45341" lon="-0.34961">
        <ele>203.3</ele>
        <time>2026-08-31T10:26:10Z</time>
      </trkpt>
      <trkpt lat="43.45342" lon="-0.34961">
        <ele>203.3</ele>
        <time>2026-08-31T10:26:11Z</time>
      </trkpt>
      <trkpt lat="43.45342" lon="-0.34961">
        <ele>203.3</ele>
        <time>2026-08-31T10:26:12Z</time>
      </trkpt>
      <trkpt lat="43.45342" lon="-0.34962">
        <ele>203.3</ele>
        <time>2026-08-31T10:26:13Z</time>
      </trkpt>
      <trkpt lat="43.45342" lon="-0.34962">
        <ele>203.3</ele>
        <time>2026-08-31T10:26:14Z</time>
      </trkpt>
      <trkpt lat="43.45342" lon="-0.34962">
        <ele>203.3</ele>
        <time>2026-08-31T10:26:15Z</time>
      </trkpt>
      <trkpt lat="43.45342" lon="-0.34962">
        <ele>203.3</ele>
        <time>2026-08-31T10:26:16Z</time>
      </trkpt>
      <trkpt lat="43.45341" lon="-0.34963">
        <ele>206.3</ele>
        <time>2026-08-31T10:26:17Z</time>
      </trkpt>
      <trkpt lat="43.45341" lon="-0.34963">
        <ele>206.3</ele>
        <time>2026-08-31T10:26:18Z</time>
      </trkpt>
      <trkpt lat="43.45341" lon="-0.34964">
        <ele>207.3</ele>
        <time>2026-08-31T10:26:18Z</time>
      </trkpt>
      <trkpt lat="43.45341" lon="-0.34966">
        <ele>207.3</ele>
        <time>2026-08-31T10:26:19Z</time>
      </trkpt>
      <trkpt lat="43.45342" lon="-0.34967">
        <ele>207.3</ele>
        <time>2026-08-31T10:26:19Z</time>
      </trkpt>
      <trkpt lat="43.45343" lon="-0.34968">
        <ele>207.3</ele>
        <time>2026-08-31T10:26:20Z</time>
      </trkpt>
      <trkpt lat="43.45344" lon="-0.34969">
        <ele>207.3</ele>
        <time>2026-08-31T10:26:21Z</time>
      </trkpt>
      <trkpt lat="43.45344" lon="-0.3497">
        <ele>207.3</ele>
        <time>2026-08-31T10:26:21Z</time>
      </trkpt>
      <trkpt lat="43.45344" lon="-0.34971">
        <ele>207.3</ele>
        <time>2026-08-31T10:26:22Z</time>
      </trkpt>
      <trkpt lat="43.45344" lon="-0.34972">
        <ele>208.3</ele>
        <time>2026-08-31T10:26:22Z</time>
      </trkpt>
      <trkpt lat="43.45344" lon="-0.34973">
        <ele>208.3</ele>
        <time>2026-08-31T10:26:23Z</time>
      </trkpt>
      <trkpt lat="43.45344" lon="-0.34974">
        <ele>208.3</ele>
        <time>2026-08-31T10:26:23Z</time>
      </trkpt>
      <trkpt lat="43.45344" lon="-0.34975">
        <ele>208.3</ele>
        <time>2026-08-31T10:26:24Z</time>
      </trkpt>
      <trkpt lat="43.45344" lon="-0.34976">
        <ele>208.3</ele>
        <time>2026-08-31T10:26:24Z</time>
      </trkpt>
      <trkpt lat="43.45344" lon="-0.34977">
        <ele>208.3</ele>
        <time>2026-08-31T10:26:25Z</time>
      </trkpt>
      <trkpt lat="43.45345" lon="-0.34978">
        <ele>208.3</ele>
        <time>2026-08-31T10:26:25Z</time>
      </trkpt>
      <trkpt lat="43.45345" lon="-0.3498">
        <ele>208.3</ele>
        <time>2026-08-31T10:26:26Z</time>
      </trkpt>
      <trkpt lat="43.45345" lon="-0.34982">
        <ele>208.3</ele>
        <time>2026-08-31T10:26:27Z</time>
      </trkpt>
      <trkpt lat="43.45345" lon="-0.34984">
        <ele>208.3</ele>
        <time>2026-08-31T10:26:28Z</time>
      </trkpt>
      <trkpt lat="43.45346" lon="-0.34985">
        <ele>208.3</ele>
        <time>2026-08-31T10:26:28Z</time>
      </trkpt>
      <trkpt lat="43.45346" lon="-0.34985">
        <ele>208.3</ele>
        <time>2026-08-31T10:26:29Z</time>
      </trkpt>
      <trkpt lat="43.45347" lon="-0.34986">
        <ele>208.3</ele>
        <time>2026-08-31T10:26:29Z</time>
      </trkpt>
      <trkpt lat="43.45347" lon="-0.34986">
        <ele>208.3</ele>
        <time>2026-08-31T10:26:30Z</time>
      </trkpt>
      <trkpt lat="43.45348" lon="-0.34986">
        <ele>208.3</ele>
        <time>2026-08-31T10:26:30Z</time>
      </trkpt>
      <trkpt lat="43.45348" lon="-0.34987">
        <ele>208.3</ele>
        <time>2026-08-31T10:26:31Z</time>
      </trkpt>
      <trkpt lat="43.45349" lon="-0.34987">
        <ele>208.3</ele>
        <time>2026-08-31T10:26:31Z</time>
      </trkpt>
      <trkpt lat="43.45349" lon="-0.34988">
        <ele>208.3</ele>
        <time>2026-08-31T10:26:32Z</time>
      </trkpt>
      <trkpt lat="43.4535" lon="-0.34989">
        <ele>208.3</ele>
        <time>2026-08-31T10:26:32Z</time>
      </trkpt>
      <trkpt lat="43.4535" lon="-0.3499">
        <ele>208.3</ele>
        <time>2026-08-31T10:26:33Z</time>
      </trkpt>
      <trkpt lat="43.4535" lon="-0.34991">
        <ele>208.3</ele>
        <time>2026-08-31T10:26:33Z</time>
      </trkpt>
      <trkpt lat="43.4535" lon="-0.34993">
        <ele>208.3</ele>
        <time>2026-08-31T10:26:34Z</time>
      </trkpt>
      <trkpt lat="43.4535" lon="-0.34994">
        <ele>208.3</ele>
        <time>2026-08-31T10:26:35Z</time>
      </trkpt>
      <trkpt lat="43.4535" lon="-0.34995">
        <ele>207.3</ele>
        <time>2026-08-31T10:26:35Z</time>
      </trkpt>
      <trkpt lat="43.4535" lon="-0.34996">
        <ele>207.3</ele>
        <time>2026-08-31T10:26:36Z</time>
      </trkpt>
      <trkpt lat="43.4535" lon="-0.34997">
        <ele>207.3</ele>
        <time>2026-08-31T10:26:36Z</time>
      </trkpt>
      <trkpt lat="43.4535" lon="-0.34998">
        <ele>207.3</ele>
        <time>2026-08-31T10:26:37Z</time>
      </trkpt>
      <trkpt lat="43.4535" lon="-0.35">
        <ele>207.3</ele>
        <time>2026-08-31T10:26:37Z</time>
      </trkpt>
      <trkpt lat="43.4535" lon="-0.35001">
        <ele>207.3</ele>
        <time>2026-08-31T10:26:38Z</time>
      </trkpt>
      <trkpt lat="43.4535" lon="-0.35002">
        <ele>207.3</ele>
        <time>2026-08-31T10:26:38Z</time>
      </trkpt>
      <trkpt lat="43.4535" lon="-0.35003">
        <ele>207.3</ele>
        <time>2026-08-31T10:26:39Z</time>
      </trkpt>
      <trkpt lat="43.4535" lon="-0.35004">
        <ele>207.3</ele>
        <time>2026-08-31T10:26:40Z</time>
      </trkpt>
      <trkpt lat="43.45349" lon="-0.35005">
        <ele>207.3</ele>
        <time>2026-08-31T10:26:40Z</time>
      </trkpt>
      <trkpt lat="43.45349" lon="-0.35006">
        <ele>207.3</ele>
        <time>2026-08-31T10:26:41Z</time>
      </trkpt>
      <trkpt lat="43.45349" lon="-0.35007">
        <ele>207.3</ele>
        <time>2026-08-31T10:26:41Z</time>
      </trkpt>
      <trkpt lat="43.45348" lon="-0.35008">
        <ele>206.3</ele>
        <time>2026-08-31T10:26:42Z</time>
      </trkpt>
      <trkpt lat="43.45348" lon="-0.35009">
        <ele>206.3</ele>
        <time>2026-08-31T10:26:42Z</time>
      </trkpt>
      <trkpt lat="43.45348" lon="-0.3501">
        <ele>206.3</ele>
        <time>2026-08-31T10:26:43Z</time>
      </trkpt>
      <trkpt lat="43.45347" lon="-0.35011">
        <ele>206.3</ele>
        <time>2026-08-31T10:26:43Z</time>
      </trkpt>
      <trkpt lat="43.45347" lon="-0.35012">
        <ele>206.3</ele>
        <time>2026-08-31T10:26:44Z</time>
      </trkpt>
      <trkpt lat="43.45346" lon="-0.35013">
        <ele>206.3</ele>
        <time>2026-08-31T10:26:44Z</time>
      </trkpt>
      <trkpt lat="43.45346" lon="-0.35014">
        <ele>206.3</ele>
        <time>2026-08-31T10:26:45Z</time>
      </trkpt>
      <trkpt lat="43.45345" lon="-0.35015">
        <ele>206.3</ele>
        <time>2026-08-31T10:26:46Z</time>
      </trkpt>
      <trkpt lat="43.45345" lon="-0.35016">
        <ele>206.3</ele>
        <time>2026-08-31T10:26:46Z</time>
      </trkpt>
      <trkpt lat="43.45344" lon="-0.35016">
        <ele>206.3</ele>
        <time>2026-08-31T10:26:47Z</time>
      </trkpt>
      <trkpt lat="43.45343" lon="-0.35017">
        <ele>206.3</ele>
        <time>2026-08-31T10:26:47Z</time>
      </trkpt>
      <trkpt lat="43.45342" lon="-0.35017">
        <ele>206.3</ele>
        <time>2026-08-31T10:26:48Z</time>
      </trkpt>
      <trkpt lat="43.45342" lon="-0.35018">
        <ele>206.3</ele>
        <time>2026-08-31T10:26:48Z</time>
      </trkpt>
      <trkpt lat="43.45341" lon="-0.35018">
        <ele>205.3</ele>
        <time>2026-08-31T10:26:49Z</time>
      </trkpt>
      <trkpt lat="43.4534" lon="-0.35019">
        <ele>205.3</ele>
        <time>2026-08-31T10:26:49Z</time>
      </trkpt>
      <trkpt lat="43.45339" lon="-0.35019">
        <ele>205.3</ele>
        <time>2026-08-31T10:26:50Z</time>
      </trkpt>
      <trkpt lat="43.45339" lon="-0.35019">
        <ele>205.3</ele>
        <time>2026-08-31T10:26:50Z</time>
      </trkpt>
      <trkpt lat="43.45338" lon="-0.35019">
        <ele>205.3</ele>
        <time>2026-08-31T10:26:51Z</time>
      </trkpt>
      <trkpt lat="43.45337" lon="-0.3502">
        <ele>205.3</ele>
        <time>2026-08-31T10:26:52Z</time>
      </trkpt>
      <trkpt lat="43.45336" lon="-0.3502">
        <ele>204.3</ele>
        <time>2026-08-31T10:26:52Z</time>
      </trkpt>
      <trkpt lat="43.45335" lon="-0.3502">
        <ele>204.3</ele>
        <time>2026-08-31T10:26:53Z</time>
      </trkpt>
      <trkpt lat="43.45335" lon="-0.3502">
        <ele>204.3</ele>
        <time>2026-08-31T10:26:53Z</time>
      </trkpt>
      <trkpt lat="43.45334" lon="-0.3502">
        <ele>204.3</ele>
        <time>2026-08-31T10:26:54Z</time>
      </trkpt>
      <trkpt lat="43.45333" lon="-0.35021">
        <ele>204.3</ele>
        <time>2026-08-31T10:26:54Z</time>
      </trkpt>
      <trkpt lat="43.45333" lon="-0.35021">
        <ele>204.3</ele>
        <time>2026-08-31T10:26:55Z</time>
      </trkpt>
      <trkpt lat="43.45332" lon="-0.35021">
        <ele>204.3</ele>
        <time>2026-08-31T10:26:55Z</time>
      </trkpt>
      <trkpt lat="43.45332" lon="-0.35021">
        <ele>204.3</ele>
        <time>2026-08-31T10:26:56Z</time>
      </trkpt>
      <trkpt lat="43.45331" lon="-0.35022">
        <ele>204.3</ele>
        <time>2026-08-31T10:26:56Z</time>
      </trkpt>
      <trkpt lat="43.4533" lon="-0.35022">
        <ele>204.3</ele>
        <time>2026-08-31T10:26:57Z</time>
      </trkpt>
      <trkpt lat="43.4533" lon="-0.35023">
        <ele>204.3</ele>
        <time>2026-08-31T10:26:57Z</time>
      </trkpt>
      <trkpt lat="43.45329" lon="-0.35023">
        <ele>204.3</ele>
        <time>2026-08-31T10:26:58Z</time>
      </trkpt>
      <trkpt lat="43.45329" lon="-0.35024">
        <ele>204.3</ele>
        <time>2026-08-31T10:26:59Z</time>
      </trkpt>
      <trkpt lat="43.45328" lon="-0.35024">
        <ele>205.3</ele>
        <time>2026-08-31T10:26:59Z</time>
      </trkpt>
      <trkpt lat="43.45328" lon="-0.35025">
        <ele>205.3</ele>
        <time>2026-08-31T10:27:00Z</time>
      </trkpt>
      <trkpt lat="43.45328" lon="-0.35026">
        <ele>205.3</ele>
        <time>2026-08-31T10:27:00Z</time>
      </trkpt>
      <trkpt lat="43.45327" lon="-0.35026">
        <ele>205.3</ele>
        <time>2026-08-31T10:27:01Z</time>
      </trkpt>
      <trkpt lat="43.45327" lon="-0.35027">
        <ele>205.3</ele>
        <time>2026-08-31T10:27:01Z</time>
      </trkpt>
      <trkpt lat="43.45327" lon="-0.35028">
        <ele>205.3</ele>
        <time>2026-08-31T10:27:02Z</time>
      </trkpt>
      <trkpt lat="43.45326" lon="-0.35029">
        <ele>205.3</ele>
        <time>2026-08-31T10:27:02Z</time>
      </trkpt>
      <trkpt lat="43.45326" lon="-0.3503">
        <ele>205.3</ele>
        <time>2026-08-31T10:27:03Z</time>
      </trkpt>
      <trkpt lat="43.45325" lon="-0.3503">
        <ele>205.3</ele>
        <time>2026-08-31T10:27:03Z</time>
      </trkpt>
      <trkpt lat="43.45325" lon="-0.35031">
        <ele>205.3</ele>
        <time>2026-08-31T10:27:04Z</time>
      </trkpt>
      <trkpt lat="43.45324" lon="-0.35032">
        <ele>205.3</ele>
        <time>2026-08-31T10:27:04Z</time>
      </trkpt>
      <trkpt lat="43.45324" lon="-0.35033">
        <ele>205.3</ele>
        <time>2026-08-31T10:27:05Z</time>
      </trkpt>
      <trkpt lat="43.45324" lon="-0.35034">
        <ele>205.3</ele>
        <time>2026-08-31T10:27:06Z</time>
      </trkpt>
      <trkpt lat="43.45323" lon="-0.35035">
        <ele>206.3</ele>
        <time>2026-08-31T10:27:06Z</time>
      </trkpt>
      <trkpt lat="43.45323" lon="-0.35035">
        <ele>206.3</ele>
        <time>2026-08-31T10:27:07Z</time>
      </trkpt>
      <trkpt lat="43.45322" lon="-0.35036">
        <ele>206.3</ele>
        <time>2026-08-31T10:27:07Z</time>
      </trkpt>
      <trkpt lat="43.45322" lon="-0.35037">
        <ele>206.3</ele>
        <time>2026-08-31T10:27:08Z</time>
      </trkpt>
      <trkpt lat="43.45321" lon="-0.35038">
        <ele>206.3</ele>
        <time>2026-08-31T10:27:08Z</time>
      </trkpt>
      <trkpt lat="43.45321" lon="-0.35038">
        <ele>206.3</ele>
        <time>2026-08-31T10:27:09Z</time>
      </trkpt>
      <trkpt lat="43.4532" lon="-0.35039">
        <ele>206.3</ele>
        <time>2026-08-31T10:27:09Z</time>
      </trkpt>
      <trkpt lat="43.4532" lon="-0.3504">
        <ele>207.3</ele>
        <time>2026-08-31T10:27:10Z</time>
      </trkpt>
      <trkpt lat="43.45319" lon="-0.35041">
        <ele>207.3</ele>
        <time>2026-08-31T10:27:10Z</time>
      </trkpt>
      <trkpt lat="43.45319" lon="-0.35042">
        <ele>207.3</ele>
        <time>2026-08-31T10:27:11Z</time>
      </trkpt>
      <trkpt lat="43.45319" lon="-0.35042">
        <ele>207.3</ele>
        <time>2026-08-31T10:27:12Z</time>
      </trkpt>
      <trkpt lat="43.45318" lon="-0.35043">
        <ele>206.3</ele>
        <time>2026-08-31T10:27:12Z</time>
      </trkpt>
      <trkpt lat="43.45318" lon="-0.35044">
        <ele>206.3</ele>
        <time>2026-08-31T10:27:13Z</time>
      </trkpt>
      <trkpt lat="43.45317" lon="-0.35044">
        <ele>206.3</ele>
        <time>2026-08-31T10:27:13Z</time>
      </trkpt>
      <trkpt lat="43.45317" lon="-0.35045">
        <ele>206.3</ele>
        <time>2026-08-31T10:27:14Z</time>
      </trkpt>
      <trkpt lat="43.45316" lon="-0.35046">
        <ele>206.3</ele>
        <time>2026-08-31T10:27:14Z</time>
      </trkpt>
      <trkpt lat="43.45316" lon="-0.35047">
        <ele>206.3</ele>
        <time>2026-08-31T10:27:15Z</time>
      </trkpt>
      <trkpt lat="43.45315" lon="-0.35048">
        <ele>206.3</ele>
        <time>2026-08-31T10:27:15Z</time>
      </trkpt>
      <trkpt lat="43.45315" lon="-0.35048">
        <ele>207.3</ele>
        <time>2026-08-31T10:27:16Z</time>
      </trkpt>
      <trkpt lat="43.45314" lon="-0.35049">
        <ele>207.3</ele>
        <time>2026-08-31T10:27:16Z</time>
      </trkpt>
      <trkpt lat="43.45314" lon="-0.3505">
        <ele>207.3</ele>
        <time>2026-08-31T10:27:17Z</time>
      </trkpt>
      <trkpt lat="43.45313" lon="-0.35051">
        <ele>207.3</ele>
        <time>2026-08-31T10:27:18Z</time>
      </trkpt>
      <trkpt lat="43.45313" lon="-0.35052">
        <ele>207.3</ele>
        <time>2026-08-31T10:27:18Z</time>
      </trkpt>
      <trkpt lat="43.45313" lon="-0.35053">
        <ele>207.3</ele>
        <time>2026-08-31T10:27:19Z</time>
      </trkpt>
      <trkpt lat="43.45312" lon="-0.35054">
        <ele>207.3</ele>
        <time>2026-08-31T10:27:19Z</time>
      </trkpt>
      <trkpt lat="43.45312" lon="-0.35055">
        <ele>207.3</ele>
        <time>2026-08-31T10:27:20Z</time>
      </trkpt>
      <trkpt lat="43.45311" lon="-0.35055">
        <ele>207.3</ele>
        <time>2026-08-31T10:27:20Z</time>
      </trkpt>
      <trkpt lat="43.45311" lon="-0.35056">
        <ele>207.3</ele>
        <time>2026-08-31T10:27:21Z</time>
      </trkpt>
      <trkpt lat="43.4531" lon="-0.35057">
        <ele>207.3</ele>
        <time>2026-08-31T10:27:21Z</time>
      </trkpt>
      <trkpt lat="43.4531" lon="-0.35058">
        <ele>207.3</ele>
        <time>2026-08-31T10:27:22Z</time>
      </trkpt>
      <trkpt lat="43.4531" lon="-0.35059">
        <ele>207.3</ele>
        <time>2026-08-31T10:27:22Z</time>
      </trkpt>
      <trkpt lat="43.45309" lon="-0.3506">
        <ele>206.3</ele>
        <time>2026-08-31T10:27:23Z</time>
      </trkpt>
      <trkpt lat="43.45309" lon="-0.35061">
        <ele>206.3</ele>
        <time>2026-08-31T10:27:24Z</time>
      </trkpt>
      <trkpt lat="43.45309" lon="-0.35062">
        <ele>207.3</ele>
        <time>2026-08-31T10:27:24Z</time>
      </trkpt>
      <trkpt lat="43.45308" lon="-0.35063">
        <ele>207.3</ele>
        <time>2026-08-31T10:27:25Z</time>
      </trkpt>
      <trkpt lat="43.45308" lon="-0.35063">
        <ele>207.3</ele>
        <time>2026-08-31T10:27:25Z</time>
      </trkpt>
      <trkpt lat="43.45307" lon="-0.35064">
        <ele>206.3</ele>
        <time>2026-08-31T10:27:26Z</time>
      </trkpt>
      <trkpt lat="43.45307" lon="-0.35065">
        <ele>206.3</ele>
        <time>2026-08-31T10:27:26Z</time>
      </trkpt>
      <trkpt lat="43.45307" lon="-0.35066">
        <ele>207.3</ele>
        <time>2026-08-31T10:27:27Z</time>
      </trkpt>
      <trkpt lat="43.45306" lon="-0.35067">
        <ele>207.3</ele>
        <time>2026-08-31T10:27:27Z</time>
      </trkpt>
      <trkpt lat="43.45306" lon="-0.35068">
        <ele>207.3</ele>
        <time>2026-08-31T10:27:28Z</time>
      </trkpt>
      <trkpt lat="43.45306" lon="-0.35069">
        <ele>207.3</ele>
        <time>2026-08-31T10:27:28Z</time>
      </trkpt>
      <trkpt lat="43.45305" lon="-0.35069">
        <ele>207.3</ele>
        <time>2026-08-31T10:27:29Z</time>
      </trkpt>
      <trkpt lat="43.45305" lon="-0.3507">
        <ele>207.3</ele>
        <time>2026-08-31T10:27:30Z</time>
      </trkpt>
      <trkpt lat="43.45304" lon="-0.35071">
        <ele>207.3</ele>
        <time>2026-08-31T10:27:30Z</time>
      </trkpt>
      <trkpt lat="43.45304" lon="-0.35072">
        <ele>207.3</ele>
        <time>2026-08-31T10:27:31Z</time>
      </trkpt>
      <trkpt lat="43.45304" lon="-0.35073">
        <ele>207.3</ele>
        <time>2026-08-31T10:27:31Z</time>
      </trkpt>
      <trkpt lat="43.45303" lon="-0.35074">
        <ele>207.3</ele>
        <time>2026-08-31T10:27:32Z</time>
      </trkpt>
      <trkpt lat="43.45303" lon="-0.35075">
        <ele>207.3</ele>
        <time>2026-08-31T10:27:32Z</time>
      </trkpt>
      <trkpt lat="43.45302" lon="-0.35075">
        <ele>208.3</ele>
        <time>2026-08-31T10:27:33Z</time>
      </trkpt>
      <trkpt lat="43.45302" lon="-0.35076">
        <ele>208.3</ele>
        <time>2026-08-31T10:27:33Z</time>
      </trkpt>
      <trkpt lat="43.45302" lon="-0.35077">
        <ele>207.3</ele>
        <time>2026-08-31T10:27:34Z</time>
      </trkpt>
      <trkpt lat="43.45301" lon="-0.35078">
        <ele>207.3</ele>
        <time>2026-08-31T10:27:34Z</time>
      </trkpt>
      <trkpt lat="43.45301" lon="-0.35079">
        <ele>207.3</ele>
        <time>2026-08-31T10:27:35Z</time>
      </trkpt>
      <trkpt lat="43.453" lon="-0.3508">
        <ele>207.3</ele>
        <time>2026-08-31T10:27:35Z</time>
      </trkpt>
      <trkpt lat="43.453" lon="-0.3508">
        <ele>207.3</ele>
        <time>2026-08-31T10:27:36Z</time>
      </trkpt>
      <trkpt lat="43.45299" lon="-0.35081">
        <ele>207.3</ele>
        <time>2026-08-31T10:27:36Z</time>
      </trkpt>
      <trkpt lat="43.45299" lon="-0.35082">
        <ele>207.3</ele>
        <time>2026-08-31T10:27:37Z</time>
      </trkpt>
      <trkpt lat="43.45298" lon="-0.35083">
        <ele>207.3</ele>
        <time>2026-08-31T10:27:38Z</time>
      </trkpt>
      <trkpt lat="43.45298" lon="-0.35083">
        <ele>207.3</ele>
        <time>2026-08-31T10:27:38Z</time>
      </trkpt>
      <trkpt lat="43.45297" lon="-0.35084">
        <ele>207.3</ele>
        <time>2026-08-31T10:27:39Z</time>
      </trkpt>
      <trkpt lat="43.45297" lon="-0.35085">
        <ele>207.3</ele>
        <time>2026-08-31T10:27:39Z</time>
      </trkpt>
      <trkpt lat="43.45296" lon="-0.35085">
        <ele>207.3</ele>
        <time>2026-08-31T10:27:40Z</time>
      </trkpt>
      <trkpt lat="43.45296" lon="-0.35086">
        <ele>207.3</ele>
        <time>2026-08-31T10:27:40Z</time>
      </trkpt>
      <trkpt lat="43.45295" lon="-0.35087">
        <ele>207.3</ele>
        <time>2026-08-31T10:27:41Z</time>
      </trkpt>
      <trkpt lat="43.45295" lon="-0.35088">
        <ele>207.3</ele>
        <time>2026-08-31T10:27:41Z</time>
      </trkpt>
      <trkpt lat="43.45294" lon="-0.35089">
        <ele>207.3</ele>
        <time>2026-08-31T10:27:42Z</time>
      </trkpt>
      <trkpt lat="43.45294" lon="-0.35089">
        <ele>207.3</ele>
        <time>2026-08-31T10:27:42Z</time>
      </trkpt>
      <trkpt lat="43.45293" lon="-0.3509">
        <ele>207.3</ele>
        <time>2026-08-31T10:27:43Z</time>
      </trkpt>
      <trkpt lat="43.45293" lon="-0.35091">
        <ele>207.3</ele>
        <time>2026-08-31T10:27:44Z</time>
      </trkpt>
      <trkpt lat="43.45292" lon="-0.35091">
        <ele>206.3</ele>
        <time>2026-08-31T10:27:44Z</time>
      </trkpt>
      <trkpt lat="43.45292" lon="-0.35092">
        <ele>206.3</ele>
        <time>2026-08-31T10:27:45Z</time>
      </trkpt>
      <trkpt lat="43.45291" lon="-0.35093">
        <ele>207.3</ele>
        <time>2026-08-31T10:27:45Z</time>
      </trkpt>
      <trkpt lat="43.4529" lon="-0.35093">
        <ele>207.3</ele>
        <time>2026-08-31T10:27:46Z</time>
      </trkpt>
      <trkpt lat="43.4529" lon="-0.35094">
        <ele>207.3</ele>
        <time>2026-08-31T10:27:46Z</time>
      </trkpt>
      <trkpt lat="43.45289" lon="-0.35094">
        <ele>207.3</ele>
        <time>2026-08-31T10:27:47Z</time>
      </trkpt>
      <trkpt lat="43.45288" lon="-0.35095">
        <ele>207.3</ele>
        <time>2026-08-31T10:27:47Z</time>
      </trkpt>
      <trkpt lat="43.45287" lon="-0.35095">
        <ele>207.3</ele>
        <time>2026-08-31T10:27:48Z</time>
      </trkpt>
      <trkpt lat="43.45287" lon="-0.35096">
        <ele>207.3</ele>
        <time>2026-08-31T10:27:48Z</time>
      </trkpt>
      <trkpt lat="43.45286" lon="-0.35096">
        <ele>207.3</ele>
        <time>2026-08-31T10:27:49Z</time>
      </trkpt>
      <trkpt lat="43.45285" lon="-0.35097">
        <ele>207.3</ele>
        <time>2026-08-31T10:27:50Z</time>
      </trkpt>
      <trkpt lat="43.45284" lon="-0.35097">
        <ele>207.3</ele>
        <time>2026-08-31T10:27:50Z</time>
      </trkpt>
      <trkpt lat="43.45284" lon="-0.35098">
        <ele>207.3</ele>
        <time>2026-08-31T10:27:51Z</time>
      </trkpt>
      <trkpt lat="43.45283" lon="-0.35098">
        <ele>207.3</ele>
        <time>2026-08-31T10:27:51Z</time>
      </trkpt>
      <trkpt lat="43.45282" lon="-0.35098">
        <ele>207.3</ele>
        <time>2026-08-31T10:27:52Z</time>
      </trkpt>
      <trkpt lat="43.45282" lon="-0.35098">
        <ele>207.3</ele>
        <time>2026-08-31T10:27:52Z</time>
      </trkpt>
      <trkpt lat="43.45281" lon="-0.35098">
        <ele>207.3</ele>
        <time>2026-08-31T10:27:53Z</time>
      </trkpt>
      <trkpt lat="43.4528" lon="-0.35099">
        <ele>207.3</ele>
        <time>2026-08-31T10:27:53Z</time>
      </trkpt>
      <trkpt lat="43.45279" lon="-0.35099">
        <ele>207.3</ele>
        <time>2026-08-31T10:27:54Z</time>
      </trkpt>
      <trkpt lat="43.45278" lon="-0.35099">
        <ele>207.3</ele>
        <time>2026-08-31T10:27:54Z</time>
      </trkpt>
      <trkpt lat="43.45278" lon="-0.35099">
        <ele>206.3</ele>
        <time>2026-08-31T10:27:55Z</time>
      </trkpt>
      <trkpt lat="43.45277" lon="-0.351">
        <ele>206.3</ele>
        <time>2026-08-31T10:27:55Z</time>
      </trkpt>
      <trkpt lat="43.45276" lon="-0.351">
        <ele>206.3</ele>
        <time>2026-08-31T10:27:56Z</time>
      </trkpt>
      <trkpt lat="43.45275" lon="-0.351">
        <ele>206.3</ele>
        <time>2026-08-31T10:27:56Z</time>
      </trkpt>
      <trkpt lat="43.45275" lon="-0.351">
        <ele>206.3</ele>
        <time>2026-08-31T10:27:57Z</time>
      </trkpt>
      <trkpt lat="43.45274" lon="-0.35101">
        <ele>206.3</ele>
        <time>2026-08-31T10:27:58Z</time>
      </trkpt>
      <trkpt lat="43.45273" lon="-0.35101">
        <ele>206.3</ele>
        <time>2026-08-31T10:27:58Z</time>
      </trkpt>
      <trkpt lat="43.45273" lon="-0.35101">
        <ele>206.3</ele>
        <time>2026-08-31T10:27:59Z</time>
      </trkpt>
      <trkpt lat="43.45272" lon="-0.35102">
        <ele>206.3</ele>
        <time>2026-08-31T10:27:59Z</time>
      </trkpt>
      <trkpt lat="43.45271" lon="-0.35102">
        <ele>206.3</ele>
        <time>2026-08-31T10:28:00Z</time>
      </trkpt>
      <trkpt lat="43.45271" lon="-0.35102">
        <ele>206.3</ele>
        <time>2026-08-31T10:28:00Z</time>
      </trkpt>
      <trkpt lat="43.4527" lon="-0.35103">
        <ele>206.3</ele>
        <time>2026-08-31T10:28:01Z</time>
      </trkpt>
      <trkpt lat="43.45269" lon="-0.35103">
        <ele>206.3</ele>
        <time>2026-08-31T10:28:01Z</time>
      </trkpt>
      <trkpt lat="43.45269" lon="-0.35104">
        <ele>206.3</ele>
        <time>2026-08-31T10:28:02Z</time>
      </trkpt>
      <trkpt lat="43.45268" lon="-0.35104">
        <ele>206.3</ele>
        <time>2026-08-31T10:28:02Z</time>
      </trkpt>
      <trkpt lat="43.45267" lon="-0.35104">
        <ele>206.3</ele>
        <time>2026-08-31T10:28:03Z</time>
      </trkpt>
      <trkpt lat="43.45267" lon="-0.35105">
        <ele>206.3</ele>
        <time>2026-08-31T10:28:03Z</time>
      </trkpt>
      <trkpt lat="43.45266" lon="-0.35105">
        <ele>206.3</ele>
        <time>2026-08-31T10:28:04Z</time>
      </trkpt>
      <trkpt lat="43.45265" lon="-0.35106">
        <ele>206.3</ele>
        <time>2026-08-31T10:28:04Z</time>
      </trkpt>
      <trkpt lat="43.45265" lon="-0.35106">
        <ele>206.3</ele>
        <time>2026-08-31T10:28:05Z</time>
      </trkpt>
      <trkpt lat="43.45264" lon="-0.35106">
        <ele>206.3</ele>
        <time>2026-08-31T10:28:05Z</time>
      </trkpt>
      <trkpt lat="43.45264" lon="-0.35107">
        <ele>206.3</ele>
        <time>2026-08-31T10:28:06Z</time>
      </trkpt>
      <trkpt lat="43.45263" lon="-0.35107">
        <ele>206.3</ele>
        <time>2026-08-31T10:28:07Z</time>
      </trkpt>
      <trkpt lat="43.45262" lon="-0.35108">
        <ele>206.3</ele>
        <time>2026-08-31T10:28:07Z</time>
      </trkpt>
      <trkpt lat="43.45262" lon="-0.35108">
        <ele>206.3</ele>
        <time>2026-08-31T10:28:08Z</time>
      </trkpt>
      <trkpt lat="43.45261" lon="-0.35108">
        <ele>206.3</ele>
        <time>2026-08-31T10:28:08Z</time>
      </trkpt>
      <trkpt lat="43.4526" lon="-0.35109">
        <ele>206.3</ele>
        <time>2026-08-31T10:28:09Z</time>
      </trkpt>
      <trkpt lat="43.4526" lon="-0.35109">
        <ele>205.3</ele>
        <time>2026-08-31T10:28:09Z</time>
      </trkpt>
      <trkpt lat="43.45259" lon="-0.35109">
        <ele>205.3</ele>
        <time>2026-08-31T10:28:10Z</time>
      </trkpt>
      <trkpt lat="43.45258" lon="-0.3511">
        <ele>205.3</ele>
        <time>2026-08-31T10:28:10Z</time>
      </trkpt>
      <trkpt lat="43.45258" lon="-0.3511">
        <ele>206.3</ele>
        <time>2026-08-31T10:28:11Z</time>
      </trkpt>
      <trkpt lat="43.45257" lon="-0.3511">
        <ele>206.3</ele>
        <time>2026-08-31T10:28:11Z</time>
      </trkpt>
      <trkpt lat="43.45257" lon="-0.35111">
        <ele>206.3</ele>
        <time>2026-08-31T10:28:12Z</time>
      </trkpt>
      <trkpt lat="43.45256" lon="-0.35111">
        <ele>206.3</ele>
        <time>2026-08-31T10:28:12Z</time>
      </trkpt>
      <trkpt lat="43.45255" lon="-0.35111">
        <ele>206.3</ele>
        <time>2026-08-31T10:28:13Z</time>
      </trkpt>
      <trkpt lat="43.45255" lon="-0.35112">
        <ele>206.3</ele>
        <time>2026-08-31T10:28:13Z</time>
      </trkpt>
      <trkpt lat="43.45254" lon="-0.35112">
        <ele>206.3</ele>
        <time>2026-08-31T10:28:14Z</time>
      </trkpt>
      <trkpt lat="43.45253" lon="-0.35112">
        <ele>206.3</ele>
        <time>2026-08-31T10:28:15Z</time>
      </trkpt>
      <trkpt lat="43.45253" lon="-0.35113">
        <ele>206.3</ele>
        <time>2026-08-31T10:28:15Z</time>
      </trkpt>
      <trkpt lat="43.45252" lon="-0.35113">
        <ele>206.3</ele>
        <time>2026-08-31T10:28:16Z</time>
      </trkpt>
      <trkpt lat="43.45251" lon="-0.35113">
        <ele>205.3</ele>
        <time>2026-08-31T10:28:16Z</time>
      </trkpt>
      <trkpt lat="43.45251" lon="-0.35113">
        <ele>205.3</ele>
        <time>2026-08-31T10:28:17Z</time>
      </trkpt>
      <trkpt lat="43.4525" lon="-0.35114">
        <ele>205.3</ele>
        <time>2026-08-31T10:28:17Z</time>
      </trkpt>
      <trkpt lat="43.4525" lon="-0.35114">
        <ele>205.3</ele>
        <time>2026-08-31T10:28:18Z</time>
      </trkpt>
      <trkpt lat="43.45249" lon="-0.35114">
        <ele>205.3</ele>
        <time>2026-08-31T10:28:18Z</time>
      </trkpt>
      <trkpt lat="43.45248" lon="-0.35114">
        <ele>205.3</ele>
        <time>2026-08-31T10:28:19Z</time>
      </trkpt>
      <trkpt lat="43.45248" lon="-0.35115">
        <ele>205.3</ele>
        <time>2026-08-31T10:28:19Z</time>
      </trkpt>
      <trkpt lat="43.45248" lon="-0.35115">
        <ele>204.3</ele>
        <time>2026-08-31T10:28:20Z</time>
      </trkpt>
      <trkpt lat="43.45247" lon="-0.35115">
        <ele>204.3</ele>
        <time>2026-08-31T10:28:20Z</time>
      </trkpt>
      <trkpt lat="43.45246" lon="-0.35116">
        <ele>204.3</ele>
        <time>2026-08-31T10:28:21Z</time>
      </trkpt>
      <trkpt lat="43.45246" lon="-0.35116">
        <ele>204.3</ele>
        <time>2026-08-31T10:28:21Z</time>
      </trkpt>
      <trkpt lat="43.45245" lon="-0.35116">
        <ele>204.3</ele>
        <time>2026-08-31T10:28:22Z</time>
      </trkpt>
      <trkpt lat="43.45244" lon="-0.35117">
        <ele>204.3</ele>
        <time>2026-08-31T10:28:23Z</time>
      </trkpt>
      <trkpt lat="43.45244" lon="-0.35117">
        <ele>204.3</ele>
        <time>2026-08-31T10:28:23Z</time>
      </trkpt>
      <trkpt lat="43.45243" lon="-0.35117">
        <ele>204.3</ele>
        <time>2026-08-31T10:28:24Z</time>
      </trkpt>
      <trkpt lat="43.45243" lon="-0.35118">
        <ele>204.3</ele>
        <time>2026-08-31T10:28:24Z</time>
      </trkpt>
      <trkpt lat="43.45242" lon="-0.35118">
        <ele>204.3</ele>
        <time>2026-08-31T10:28:25Z</time>
      </trkpt>
      <trkpt lat="43.45241" lon="-0.35118">
        <ele>204.3</ele>
        <time>2026-08-31T10:28:25Z</time>
      </trkpt>
      <trkpt lat="43.45241" lon="-0.35118">
        <ele>204.3</ele>
        <time>2026-08-31T10:28:26Z</time>
      </trkpt>
      <trkpt lat="43.4524" lon="-0.35119">
        <ele>204.3</ele>
        <time>2026-08-31T10:28:26Z</time>
      </trkpt>
      <trkpt lat="43.45239" lon="-0.35119">
        <ele>203.3</ele>
        <time>2026-08-31T10:28:27Z</time>
      </trkpt>
      <trkpt lat="43.45239" lon="-0.35119">
        <ele>203.3</ele>
        <time>2026-08-31T10:28:27Z</time>
      </trkpt>
      <trkpt lat="43.45238" lon="-0.3512">
        <ele>203.3</ele>
        <time>2026-08-31T10:28:28Z</time>
      </trkpt>
      <trkpt lat="43.45237" lon="-0.3512">
        <ele>203.3</ele>
        <time>2026-08-31T10:28:28Z</time>
      </trkpt>
      <trkpt lat="43.45237" lon="-0.3512">
        <ele>203.3</ele>
        <time>2026-08-31T10:28:29Z</time>
      </trkpt>
      <trkpt lat="43.45236" lon="-0.35121">
        <ele>203.3</ele>
        <time>2026-08-31T10:28:30Z</time>
      </trkpt>
      <trkpt lat="43.45236" lon="-0.35121">
        <ele>203.3</ele>
        <time>2026-08-31T10:28:30Z</time>
      </trkpt>
      <trkpt lat="43.45235" lon="-0.35121">
        <ele>203.3</ele>
        <time>2026-08-31T10:28:31Z</time>
      </trkpt>
      <trkpt lat="43.45234" lon="-0.35121">
        <ele>203.3</ele>
        <time>2026-08-31T10:28:31Z</time>
      </trkpt>
      <trkpt lat="43.45234" lon="-0.35122">
        <ele>203.3</ele>
        <time>2026-08-31T10:28:32Z</time>
      </trkpt>
      <trkpt lat="43.45233" lon="-0.35122">
        <ele>203.3</ele>
        <time>2026-08-31T10:28:32Z</time>
      </trkpt>
      <trkpt lat="43.45232" lon="-0.35122">
        <ele>204.3</ele>
        <time>2026-08-31T10:28:33Z</time>
      </trkpt>
      <trkpt lat="43.45232" lon="-0.35122">
        <ele>204.3</ele>
        <time>2026-08-31T10:28:33Z</time>
      </trkpt>
      <trkpt lat="43.45231" lon="-0.35122">
        <ele>203.3</ele>
        <time>2026-08-31T10:28:34Z</time>
      </trkpt>
      <trkpt lat="43.4523" lon="-0.35122">
        <ele>203.3</ele>
        <time>2026-08-31T10:28:34Z</time>
      </trkpt>
      <trkpt lat="43.45229" lon="-0.35122">
        <ele>203.3</ele>
        <time>2026-08-31T10:28:35Z</time>
      </trkpt>
      <trkpt lat="43.45229" lon="-0.35122">
        <ele>203.3</ele>
        <time>2026-08-31T10:28:35Z</time>
      </trkpt>
      <trkpt lat="43.45228" lon="-0.35123">
        <ele>202.3</ele>
        <time>2026-08-31T10:28:36Z</time>
      </trkpt>
      <trkpt lat="43.45227" lon="-0.35123">
        <ele>202.3</ele>
        <time>2026-08-31T10:28:37Z</time>
      </trkpt>
      <trkpt lat="43.45227" lon="-0.35123">
        <ele>202.3</ele>
        <time>2026-08-31T10:28:37Z</time>
      </trkpt>
      <trkpt lat="43.45226" lon="-0.35123">
        <ele>202.3</ele>
        <time>2026-08-31T10:28:38Z</time>
      </trkpt>
      <trkpt lat="43.45225" lon="-0.35123">
        <ele>202.3</ele>
        <time>2026-08-31T10:28:38Z</time>
      </trkpt>
      <trkpt lat="43.45224" lon="-0.35123">
        <ele>202.3</ele>
        <time>2026-08-31T10:28:39Z</time>
      </trkpt>
      <trkpt lat="43.45224" lon="-0.35124">
        <ele>202.3</ele>
        <time>2026-08-31T10:28:39Z</time>
      </trkpt>
      <trkpt lat="43.45223" lon="-0.35124">
        <ele>202.3</ele>
        <time>2026-08-31T10:28:40Z</time>
      </trkpt>
      <trkpt lat="43.45222" lon="-0.35124">
        <ele>202.3</ele>
        <time>2026-08-31T10:28:40Z</time>
      </trkpt>
      <trkpt lat="43.45222" lon="-0.35124">
        <ele>202.3</ele>
        <time>2026-08-31T10:28:41Z</time>
      </trkpt>
      <trkpt lat="43.45221" lon="-0.35124">
        <ele>202.3</ele>
        <time>2026-08-31T10:28:41Z</time>
      </trkpt>
      <trkpt lat="43.4522" lon="-0.35124">
        <ele>202.3</ele>
        <time>2026-08-31T10:28:42Z</time>
      </trkpt>
      <trkpt lat="43.45219" lon="-0.35124">
        <ele>202.3</ele>
        <time>2026-08-31T10:28:42Z</time>
      </trkpt>
      <trkpt lat="43.45219" lon="-0.35124">
        <ele>202.3</ele>
        <time>2026-08-31T10:28:43Z</time>
      </trkpt>
      <trkpt lat="43.45218" lon="-0.35124">
        <ele>202.3</ele>
        <time>2026-08-31T10:28:44Z</time>
      </trkpt>
      <trkpt lat="43.45217" lon="-0.35125">
        <ele>202.3</ele>
        <time>2026-08-31T10:28:44Z</time>
      </trkpt>
      <trkpt lat="43.45216" lon="-0.35125">
        <ele>202.3</ele>
        <time>2026-08-31T10:28:45Z</time>
      </trkpt>
      <trkpt lat="43.45216" lon="-0.35125">
        <ele>202.3</ele>
        <time>2026-08-31T10:28:45Z</time>
      </trkpt>
      <trkpt lat="43.45215" lon="-0.35125">
        <ele>201.3</ele>
        <time>2026-08-31T10:28:46Z</time>
      </trkpt>
      <trkpt lat="43.45214" lon="-0.35125">
        <ele>201.3</ele>
        <time>2026-08-31T10:28:46Z</time>
      </trkpt>
      <trkpt lat="43.45214" lon="-0.35124">
        <ele>201.3</ele>
        <time>2026-08-31T10:28:47Z</time>
      </trkpt>
      <trkpt lat="43.45213" lon="-0.35124">
        <ele>201.3</ele>
        <time>2026-08-31T10:28:47Z</time>
      </trkpt>
      <trkpt lat="43.45212" lon="-0.35124">
        <ele>201.3</ele>
        <time>2026-08-31T10:28:48Z</time>
      </trkpt>
      <trkpt lat="43.45211" lon="-0.35124">
        <ele>201.3</ele>
        <time>2026-08-31T10:28:48Z</time>
      </trkpt>
      <trkpt lat="43.4521" lon="-0.35124">
        <ele>201.3</ele>
        <time>2026-08-31T10:28:49Z</time>
      </trkpt>
      <trkpt lat="43.4521" lon="-0.35124">
        <ele>201.3</ele>
        <time>2026-08-31T10:28:50Z</time>
      </trkpt>
      <trkpt lat="43.45209" lon="-0.35124">
        <ele>201.3</ele>
        <time>2026-08-31T10:28:50Z</time>
      </trkpt>
      <trkpt lat="43.45208" lon="-0.35124">
        <ele>201.3</ele>
        <time>2026-08-31T10:28:51Z</time>
      </trkpt>
      <trkpt lat="43.45208" lon="-0.35124">
        <ele>201.3</ele>
        <time>2026-08-31T10:28:51Z</time>
      </trkpt>
      <trkpt lat="43.45207" lon="-0.35124">
        <ele>201.3</ele>
        <time>2026-08-31T10:28:52Z</time>
      </trkpt>
      <trkpt lat="43.45206" lon="-0.35124">
        <ele>201.3</ele>
        <time>2026-08-31T10:28:52Z</time>
      </trkpt>
      <trkpt lat="43.45206" lon="-0.35124">
        <ele>201.3</ele>
        <time>2026-08-31T10:28:53Z</time>
      </trkpt>
      <trkpt lat="43.45205" lon="-0.35123">
        <ele>201.3</ele>
        <time>2026-08-31T10:28:53Z</time>
      </trkpt>
      <trkpt lat="43.45204" lon="-0.35124">
        <ele>202.3</ele>
        <time>2026-08-31T10:28:54Z</time>
      </trkpt>
      <trkpt lat="43.45203" lon="-0.35124">
        <ele>202.3</ele>
        <time>2026-08-31T10:28:54Z</time>
      </trkpt>
      <trkpt lat="43.45203" lon="-0.35124">
        <ele>203.3</ele>
        <time>2026-08-31T10:28:55Z</time>
      </trkpt>
      <trkpt lat="43.45202" lon="-0.35124">
        <ele>203.3</ele>
        <time>2026-08-31T10:28:56Z</time>
      </trkpt>
      <trkpt lat="43.45201" lon="-0.35124">
        <ele>203.3</ele>
        <time>2026-08-31T10:28:56Z</time>
      </trkpt>
      <trkpt lat="43.452" lon="-0.35124">
        <ele>203.3</ele>
        <time>2026-08-31T10:28:57Z</time>
      </trkpt>
      <trkpt lat="43.452" lon="-0.35124">
        <ele>203.3</ele>
        <time>2026-08-31T10:28:57Z</time>
      </trkpt>
      <trkpt lat="43.45199" lon="-0.35124">
        <ele>203.3</ele>
        <time>2026-08-31T10:28:58Z</time>
      </trkpt>
      <trkpt lat="43.45198" lon="-0.35124">
        <ele>203.3</ele>
        <time>2026-08-31T10:28:58Z</time>
      </trkpt>
      <trkpt lat="43.45198" lon="-0.35124">
        <ele>203.3</ele>
        <time>2026-08-31T10:28:59Z</time>
      </trkpt>
      <trkpt lat="43.45197" lon="-0.35124">
        <ele>203.3</ele>
        <time>2026-08-31T10:28:59Z</time>
      </trkpt>
      <trkpt lat="43.45196" lon="-0.35124">
        <ele>203.3</ele>
        <time>2026-08-31T10:29:00Z</time>
      </trkpt>
      <trkpt lat="43.45195" lon="-0.35124">
        <ele>203.3</ele>
        <time>2026-08-31T10:29:00Z</time>
      </trkpt>
      <trkpt lat="43.45195" lon="-0.35125">
        <ele>203.3</ele>
        <time>2026-08-31T10:29:01Z</time>
      </trkpt>
      <trkpt lat="43.45194" lon="-0.35125">
        <ele>203.3</ele>
        <time>2026-08-31T10:29:01Z</time>
      </trkpt>
      <trkpt lat="43.45193" lon="-0.35124">
        <ele>203.3</ele>
        <time>2026-08-31T10:29:02Z</time>
      </trkpt>
      <trkpt lat="43.45192" lon="-0.35125">
        <ele>203.3</ele>
        <time>2026-08-31T10:29:03Z</time>
      </trkpt>
      <trkpt lat="43.45192" lon="-0.35125">
        <ele>203.3</ele>
        <time>2026-08-31T10:29:03Z</time>
      </trkpt>
      <trkpt lat="43.45191" lon="-0.35125">
        <ele>203.3</ele>
        <time>2026-08-31T10:29:04Z</time>
      </trkpt>
      <trkpt lat="43.4519" lon="-0.35125">
        <ele>203.3</ele>
        <time>2026-08-31T10:29:04Z</time>
      </trkpt>
      <trkpt lat="43.4519" lon="-0.35125">
        <ele>203.3</ele>
        <time>2026-08-31T10:29:05Z</time>
      </trkpt>
      <trkpt lat="43.45189" lon="-0.35125">
        <ele>203.3</ele>
        <time>2026-08-31T10:29:05Z</time>
      </trkpt>
      <trkpt lat="43.45189" lon="-0.35125">
        <ele>203.3</ele>
        <time>2026-08-31T10:29:06Z</time>
      </trkpt>
      <trkpt lat="43.45188" lon="-0.35125">
        <ele>203.3</ele>
        <time>2026-08-31T10:29:06Z</time>
      </trkpt>
      <trkpt lat="43.45187" lon="-0.35125">
        <ele>203.3</ele>
        <time>2026-08-31T10:29:07Z</time>
      </trkpt>
      <trkpt lat="43.45187" lon="-0.35125">
        <ele>203.3</ele>
        <time>2026-08-31T10:29:08Z</time>
      </trkpt>
      <trkpt lat="43.45186" lon="-0.35125">
        <ele>203.3</ele>
        <time>2026-08-31T10:29:08Z</time>
      </trkpt>
      <trkpt lat="43.45185" lon="-0.35126">
        <ele>203.3</ele>
        <time>2026-08-31T10:29:09Z</time>
      </trkpt>
      <trkpt lat="43.45184" lon="-0.35126">
        <ele>203.3</ele>
        <time>2026-08-31T10:29:09Z</time>
      </trkpt>
      <trkpt lat="43.45184" lon="-0.35126">
        <ele>203.3</ele>
        <time>2026-08-31T10:29:10Z</time>
      </trkpt>
      <trkpt lat="43.45183" lon="-0.35127">
        <ele>203.3</ele>
        <time>2026-08-31T10:29:10Z</time>
      </trkpt>
      <trkpt lat="43.45183" lon="-0.35127">
        <ele>203.3</ele>
        <time>2026-08-31T10:29:11Z</time>
      </trkpt>
      <trkpt lat="43.45182" lon="-0.35127">
        <ele>203.3</ele>
        <time>2026-08-31T10:29:11Z</time>
      </trkpt>
      <trkpt lat="43.45181" lon="-0.35128">
        <ele>204.3</ele>
        <time>2026-08-31T10:29:12Z</time>
      </trkpt>
      <trkpt lat="43.45181" lon="-0.35128">
        <ele>204.3</ele>
        <time>2026-08-31T10:29:13Z</time>
      </trkpt>
      <trkpt lat="43.4518" lon="-0.35129">
        <ele>204.3</ele>
        <time>2026-08-31T10:29:13Z</time>
      </trkpt>
      <trkpt lat="43.45179" lon="-0.35129">
        <ele>204.3</ele>
        <time>2026-08-31T10:29:14Z</time>
      </trkpt>
      <trkpt lat="43.45179" lon="-0.3513">
        <ele>204.3</ele>
        <time>2026-08-31T10:29:14Z</time>
      </trkpt>
      <trkpt lat="43.45178" lon="-0.3513">
        <ele>204.3</ele>
        <time>2026-08-31T10:29:15Z</time>
      </trkpt>
      <trkpt lat="43.45178" lon="-0.35131">
        <ele>204.3</ele>
        <time>2026-08-31T10:29:15Z</time>
      </trkpt>
      <trkpt lat="43.45177" lon="-0.35131">
        <ele>204.3</ele>
        <time>2026-08-31T10:29:16Z</time>
      </trkpt>
      <trkpt lat="43.45176" lon="-0.35132">
        <ele>204.3</ele>
        <time>2026-08-31T10:29:16Z</time>
      </trkpt>
      <trkpt lat="43.45176" lon="-0.35132">
        <ele>203.3</ele>
        <time>2026-08-31T10:29:17Z</time>
      </trkpt>
      <trkpt lat="43.45175" lon="-0.35133">
        <ele>203.3</ele>
        <time>2026-08-31T10:29:17Z</time>
      </trkpt>
      <trkpt lat="43.45175" lon="-0.35133">
        <ele>203.3</ele>
        <time>2026-08-31T10:29:18Z</time>
      </trkpt>
      <trkpt lat="43.45174" lon="-0.35134">
        <ele>203.3</ele>
        <time>2026-08-31T10:29:19Z</time>
      </trkpt>
      <trkpt lat="43.45174" lon="-0.35134">
        <ele>203.3</ele>
        <time>2026-08-31T10:29:19Z</time>
      </trkpt>
      <trkpt lat="43.45173" lon="-0.35135">
        <ele>203.3</ele>
        <time>2026-08-31T10:29:20Z</time>
      </trkpt>
      <trkpt lat="43.45172" lon="-0.35135">
        <ele>203.3</ele>
        <time>2026-08-31T10:29:20Z</time>
      </trkpt>
      <trkpt lat="43.45172" lon="-0.35135">
        <ele>203.3</ele>
        <time>2026-08-31T10:29:21Z</time>
      </trkpt>
      <trkpt lat="43.45171" lon="-0.35136">
        <ele>203.3</ele>
        <time>2026-08-31T10:29:21Z</time>
      </trkpt>
      <trkpt lat="43.45171" lon="-0.35136">
        <ele>203.3</ele>
        <time>2026-08-31T10:29:22Z</time>
      </trkpt>
      <trkpt lat="43.4517" lon="-0.35136">
        <ele>203.3</ele>
        <time>2026-08-31T10:29:22Z</time>
      </trkpt>
      <trkpt lat="43.45169" lon="-0.35137">
        <ele>203.3</ele>
        <time>2026-08-31T10:29:23Z</time>
      </trkpt>
      <trkpt lat="43.45169" lon="-0.35137">
        <ele>203.3</ele>
        <time>2026-08-31T10:29:23Z</time>
      </trkpt>
      <trkpt lat="43.45168" lon="-0.35137">
        <ele>203.3</ele>
        <time>2026-08-31T10:29:24Z</time>
      </trkpt>
      <trkpt lat="43.45168" lon="-0.35138">
        <ele>203.3</ele>
        <time>2026-08-31T10:29:25Z</time>
      </trkpt>
      <trkpt lat="43.45167" lon="-0.35138">
        <ele>202.3</ele>
        <time>2026-08-31T10:29:25Z</time>
      </trkpt>
      <trkpt lat="43.45166" lon="-0.35139">
        <ele>202.3</ele>
        <time>2026-08-31T10:29:26Z</time>
      </trkpt>
      <trkpt lat="43.45166" lon="-0.35139">
        <ele>202.3</ele>
        <time>2026-08-31T10:29:26Z</time>
      </trkpt>
      <trkpt lat="43.45166" lon="-0.35139">
        <ele>202.3</ele>
        <time>2026-08-31T10:29:27Z</time>
      </trkpt>
      <trkpt lat="43.45165" lon="-0.3514">
        <ele>202.3</ele>
        <time>2026-08-31T10:29:27Z</time>
      </trkpt>
      <trkpt lat="43.45165" lon="-0.3514">
        <ele>201.3</ele>
        <time>2026-08-31T10:29:28Z</time>
      </trkpt>
      <trkpt lat="43.45164" lon="-0.3514">
        <ele>201.3</ele>
        <time>2026-08-31T10:29:28Z</time>
      </trkpt>
      <trkpt lat="43.45164" lon="-0.35141">
        <ele>201.3</ele>
        <time>2026-08-31T10:29:29Z</time>
      </trkpt>
      <trkpt lat="43.45163" lon="-0.35141">
        <ele>201.3</ele>
        <time>2026-08-31T10:29:30Z</time>
      </trkpt>
      <trkpt lat="43.45162" lon="-0.35142">
        <ele>201.3</ele>
        <time>2026-08-31T10:29:30Z</time>
      </trkpt>
      <trkpt lat="43.45162" lon="-0.35142">
        <ele>200.3</ele>
        <time>2026-08-31T10:29:31Z</time>
      </trkpt>
      <trkpt lat="43.45161" lon="-0.35142">
        <ele>200.3</ele>
        <time>2026-08-31T10:29:31Z</time>
      </trkpt>
      <trkpt lat="43.45161" lon="-0.35143">
        <ele>201.3</ele>
        <time>2026-08-31T10:29:32Z</time>
      </trkpt>
      <trkpt lat="43.4516" lon="-0.35143">
        <ele>201.3</ele>
        <time>2026-08-31T10:29:32Z</time>
      </trkpt>
      <trkpt lat="43.4516" lon="-0.35144">
        <ele>201.3</ele>
        <time>2026-08-31T10:29:33Z</time>
      </trkpt>
      <trkpt lat="43.45159" lon="-0.35144">
        <ele>201.3</ele>
        <time>2026-08-31T10:29:33Z</time>
      </trkpt>
      <trkpt lat="43.45158" lon="-0.35145">
        <ele>201.2</ele>
        <time>2026-08-31T10:29:34Z</time>
      </trkpt>
      <trkpt lat="43.45158" lon="-0.35145">
        <ele>201.2</ele>
        <time>2026-08-31T10:29:35Z</time>
      </trkpt>
      <trkpt lat="43.45157" lon="-0.35146">
        <ele>201.2</ele>
        <time>2026-08-31T10:29:35Z</time>
      </trkpt>
      <trkpt lat="43.45157" lon="-0.35146">
        <ele>201.2</ele>
        <time>2026-08-31T10:29:36Z</time>
      </trkpt>
      <trkpt lat="43.45156" lon="-0.35146">
        <ele>201.2</ele>
        <time>2026-08-31T10:29:36Z</time>
      </trkpt>
      <trkpt lat="43.45156" lon="-0.35147">
        <ele>200.2</ele>
        <time>2026-08-31T10:29:37Z</time>
      </trkpt>
      <trkpt lat="43.45155" lon="-0.35147">
        <ele>200.2</ele>
        <time>2026-08-31T10:29:37Z</time>
      </trkpt>
      <trkpt lat="43.45155" lon="-0.35148">
        <ele>200.2</ele>
        <time>2026-08-31T10:29:38Z</time>
      </trkpt>
      <trkpt lat="43.45154" lon="-0.35149">
        <ele>200.2</ele>
        <time>2026-08-31T10:29:38Z</time>
      </trkpt>
      <trkpt lat="43.45154" lon="-0.3515">
        <ele>200.2</ele>
        <time>2026-08-31T10:29:39Z</time>
      </trkpt>
      <trkpt lat="43.45153" lon="-0.3515">
        <ele>200.2</ele>
        <time>2026-08-31T10:29:40Z</time>
      </trkpt>
      <trkpt lat="43.45153" lon="-0.35151">
        <ele>200.2</ele>
        <time>2026-08-31T10:29:40Z</time>
      </trkpt>
      <trkpt lat="43.45152" lon="-0.35152">
        <ele>200.2</ele>
        <time>2026-08-31T10:29:41Z</time>
      </trkpt>
      <trkpt lat="43.45152" lon="-0.35153">
        <ele>200.2</ele>
        <time>2026-08-31T10:29:41Z</time>
      </trkpt>
      <trkpt lat="43.45152" lon="-0.35154">
        <ele>200.2</ele>
        <time>2026-08-31T10:29:42Z</time>
      </trkpt>
      <trkpt lat="43.45151" lon="-0.35155">
        <ele>200.2</ele>
        <time>2026-08-31T10:29:42Z</time>
      </trkpt>
      <trkpt lat="43.45151" lon="-0.35156">
        <ele>200.2</ele>
        <time>2026-08-31T10:29:43Z</time>
      </trkpt>
      <trkpt lat="43.45151" lon="-0.35157">
        <ele>200.2</ele>
        <time>2026-08-31T10:29:43Z</time>
      </trkpt>
      <trkpt lat="43.4515" lon="-0.35158">
        <ele>200.2</ele>
        <time>2026-08-31T10:29:44Z</time>
      </trkpt>
      <trkpt lat="43.4515" lon="-0.35159">
        <ele>200.2</ele>
        <time>2026-08-31T10:29:44Z</time>
      </trkpt>
      <trkpt lat="43.4515" lon="-0.3516">
        <ele>200.2</ele>
        <time>2026-08-31T10:29:45Z</time>
      </trkpt>
      <trkpt lat="43.45149" lon="-0.35161">
        <ele>200.2</ele>
        <time>2026-08-31T10:29:45Z</time>
      </trkpt>
      <trkpt lat="43.45149" lon="-0.35162">
        <ele>200.2</ele>
        <time>2026-08-31T10:29:46Z</time>
      </trkpt>
      <trkpt lat="43.45149" lon="-0.35163">
        <ele>200.2</ele>
        <time>2026-08-31T10:29:47Z</time>
      </trkpt>
      <trkpt lat="43.45148" lon="-0.35164">
        <ele>200.2</ele>
        <time>2026-08-31T10:29:47Z</time>
      </trkpt>
      <trkpt lat="43.45148" lon="-0.35164">
        <ele>200.2</ele>
        <time>2026-08-31T10:29:48Z</time>
      </trkpt>
      <trkpt lat="43.45148" lon="-0.35165">
        <ele>200.2</ele>
        <time>2026-08-31T10:29:48Z</time>
      </trkpt>
      <trkpt lat="43.45148" lon="-0.35166">
        <ele>200.2</ele>
        <time>2026-08-31T10:29:49Z</time>
      </trkpt>
      <trkpt lat="43.45148" lon="-0.35167">
        <ele>200.2</ele>
        <time>2026-08-31T10:29:49Z</time>
      </trkpt>
      <trkpt lat="43.45147" lon="-0.35168">
        <ele>200.2</ele>
        <time>2026-08-31T10:29:50Z</time>
      </trkpt>
      <trkpt lat="43.45147" lon="-0.35169">
        <ele>200.2</ele>
        <time>2026-08-31T10:29:50Z</time>
      </trkpt>
      <trkpt lat="43.45147" lon="-0.3517">
        <ele>200.2</ele>
        <time>2026-08-31T10:29:51Z</time>
      </trkpt>
      <trkpt lat="43.45147" lon="-0.35171">
        <ele>200.2</ele>
        <time>2026-08-31T10:29:52Z</time>
      </trkpt>
      <trkpt lat="43.45146" lon="-0.35172">
        <ele>201.2</ele>
        <time>2026-08-31T10:29:52Z</time>
      </trkpt>
      <trkpt lat="43.45146" lon="-0.35173">
        <ele>201.2</ele>
        <time>2026-08-31T10:29:53Z</time>
      </trkpt>
      <trkpt lat="43.45146" lon="-0.35174">
        <ele>201.2</ele>
        <time>2026-08-31T10:29:53Z</time>
      </trkpt>
      <trkpt lat="43.45146" lon="-0.35174">
        <ele>200.2</ele>
        <time>2026-08-31T10:29:54Z</time>
      </trkpt>
      <trkpt lat="43.45145" lon="-0.35175">
        <ele>200.2</ele>
        <time>2026-08-31T10:29:54Z</time>
      </trkpt>
      <trkpt lat="43.45145" lon="-0.35176">
        <ele>201.2</ele>
        <time>2026-08-31T10:29:55Z</time>
      </trkpt>
      <trkpt lat="43.45145" lon="-0.35177">
        <ele>201.2</ele>
        <time>2026-08-31T10:29:55Z</time>
      </trkpt>
      <trkpt lat="43.45145" lon="-0.35178">
        <ele>201.2</ele>
        <time>2026-08-31T10:29:56Z</time>
      </trkpt>
      <trkpt lat="43.45144" lon="-0.35179">
        <ele>201.2</ele>
        <time>2026-08-31T10:29:56Z</time>
      </trkpt>
      <trkpt lat="43.45144" lon="-0.3518">
        <ele>200.2</ele>
        <time>2026-08-31T10:29:57Z</time>
      </trkpt>
      <trkpt lat="43.45144" lon="-0.3518">
        <ele>200.2</ele>
        <time>2026-08-31T10:29:58Z</time>
      </trkpt>
      <trkpt lat="43.45143" lon="-0.35181">
        <ele>201.2</ele>
        <time>2026-08-31T10:29:58Z</time>
      </trkpt>
      <trkpt lat="43.45143" lon="-0.35182">
        <ele>201.2</ele>
        <time>2026-08-31T10:29:59Z</time>
      </trkpt>
      <trkpt lat="43.45142" lon="-0.35182">
        <ele>201.2</ele>
        <time>2026-08-31T10:29:59Z</time>
      </trkpt>
      <trkpt lat="43.45142" lon="-0.35183">
        <ele>201.2</ele>
        <time>2026-08-31T10:30:00Z</time>
      </trkpt>
      <trkpt lat="43.45142" lon="-0.35184">
        <ele>201.2</ele>
        <time>2026-08-31T10:30:00Z</time>
      </trkpt>
      <trkpt lat="43.45141" lon="-0.35185">
        <ele>201.2</ele>
        <time>2026-08-31T10:30:01Z</time>
      </trkpt>
      <trkpt lat="43.45141" lon="-0.35186">
        <ele>201.2</ele>
        <time>2026-08-31T10:30:01Z</time>
      </trkpt>
      <trkpt lat="43.45141" lon="-0.35186">
        <ele>202.2</ele>
        <time>2026-08-31T10:30:02Z</time>
      </trkpt>
      <trkpt lat="43.4514" lon="-0.35187">
        <ele>202.2</ele>
        <time>2026-08-31T10:30:03Z</time>
      </trkpt>
      <trkpt lat="43.4514" lon="-0.35188">
        <ele>202.2</ele>
        <time>2026-08-31T10:30:03Z</time>
      </trkpt>
      <trkpt lat="43.45139" lon="-0.35188">
        <ele>202.2</ele>
        <time>2026-08-31T10:30:04Z</time>
      </trkpt>
      <trkpt lat="43.45139" lon="-0.35189">
        <ele>202.2</ele>
        <time>2026-08-31T10:30:04Z</time>
      </trkpt>
      <trkpt lat="43.45138" lon="-0.35189">
        <ele>202.2</ele>
        <time>2026-08-31T10:30:05Z</time>
      </trkpt>
      <trkpt lat="43.45138" lon="-0.3519">
        <ele>202.2</ele>
        <time>2026-08-31T10:30:05Z</time>
      </trkpt>
      <trkpt lat="43.45137" lon="-0.35191">
        <ele>201.2</ele>
        <time>2026-08-31T10:30:06Z</time>
      </trkpt>
      <trkpt lat="43.45137" lon="-0.35192">
        <ele>201.2</ele>
        <time>2026-08-31T10:30:06Z</time>
      </trkpt>
      <trkpt lat="43.45137" lon="-0.35192">
        <ele>201.2</ele>
        <time>2026-08-31T10:30:07Z</time>
      </trkpt>
      <trkpt lat="43.45136" lon="-0.35193">
        <ele>201.2</ele>
        <time>2026-08-31T10:30:08Z</time>
      </trkpt>
      <trkpt lat="43.45136" lon="-0.35193">
        <ele>201.2</ele>
        <time>2026-08-31T10:30:08Z</time>
      </trkpt>
      <trkpt lat="43.45135" lon="-0.35194">
        <ele>201.2</ele>
        <time>2026-08-31T10:30:09Z</time>
      </trkpt>
      <trkpt lat="43.45135" lon="-0.35195">
        <ele>201.2</ele>
        <time>2026-08-31T10:30:09Z</time>
      </trkpt>
      <trkpt lat="43.45135" lon="-0.35195">
        <ele>201.2</ele>
        <time>2026-08-31T10:30:10Z</time>
      </trkpt>
      <trkpt lat="43.45134" lon="-0.35196">
        <ele>201.2</ele>
        <time>2026-08-31T10:30:10Z</time>
      </trkpt>
      <trkpt lat="43.45134" lon="-0.35196">
        <ele>201.2</ele>
        <time>2026-08-31T10:30:11Z</time>
      </trkpt>
      <trkpt lat="43.45133" lon="-0.35197">
        <ele>201.2</ele>
        <time>2026-08-31T10:30:11Z</time>
      </trkpt>
      <trkpt lat="43.45133" lon="-0.35198">
        <ele>201.2</ele>
        <time>2026-08-31T10:30:12Z</time>
      </trkpt>
      <trkpt lat="43.45132" lon="-0.35199">
        <ele>201.2</ele>
        <time>2026-08-31T10:30:12Z</time>
      </trkpt>
      <trkpt lat="43.45132" lon="-0.352">
        <ele>202.2</ele>
        <time>2026-08-31T10:30:13Z</time>
      </trkpt>
      <trkpt lat="43.45131" lon="-0.352">
        <ele>202.2</ele>
        <time>2026-08-31T10:30:13Z</time>
      </trkpt>
      <trkpt lat="43.45131" lon="-0.35201">
        <ele>202.2</ele>
        <time>2026-08-31T10:30:14Z</time>
      </trkpt>
      <trkpt lat="43.45131" lon="-0.35202">
        <ele>202.2</ele>
        <time>2026-08-31T10:30:14Z</time>
      </trkpt>
      <trkpt lat="43.4513" lon="-0.35203">
        <ele>202.2</ele>
        <time>2026-08-31T10:30:15Z</time>
      </trkpt>
      <trkpt lat="43.4513" lon="-0.35203">
        <ele>202.2</ele>
        <time>2026-08-31T10:30:16Z</time>
      </trkpt>
      <trkpt lat="43.45129" lon="-0.35204">
        <ele>202.2</ele>
        <time>2026-08-31T10:30:16Z</time>
      </trkpt>
      <trkpt lat="43.45129" lon="-0.35205">
        <ele>202.2</ele>
        <time>2026-08-31T10:30:17Z</time>
      </trkpt>
      <trkpt lat="43.45128" lon="-0.35206">
        <ele>202.2</ele>
        <time>2026-08-31T10:30:17Z</time>
      </trkpt>
      <trkpt lat="43.45128" lon="-0.35206">
        <ele>202.2</ele>
        <time>2026-08-31T10:30:18Z</time>
      </trkpt>
      <trkpt lat="43.45127" lon="-0.35207">
        <ele>202.2</ele>
        <time>2026-08-31T10:30:18Z</time>
      </trkpt>
      <trkpt lat="43.45127" lon="-0.35208">
        <ele>202.2</ele>
        <time>2026-08-31T10:30:19Z</time>
      </trkpt>
      <trkpt lat="43.45127" lon="-0.35209">
        <ele>202.2</ele>
        <time>2026-08-31T10:30:19Z</time>
      </trkpt>
      <trkpt lat="43.45126" lon="-0.3521">
        <ele>201.2</ele>
        <time>2026-08-31T10:30:20Z</time>
      </trkpt>
      <trkpt lat="43.45126" lon="-0.3521">
        <ele>201.2</ele>
        <time>2026-08-31T10:30:20Z</time>
      </trkpt>
      <trkpt lat="43.45125" lon="-0.35211">
        <ele>201.2</ele>
        <time>2026-08-31T10:30:21Z</time>
      </trkpt>
      <trkpt lat="43.45125" lon="-0.35212">
        <ele>201.2</ele>
        <time>2026-08-31T10:30:21Z</time>
      </trkpt>
      <trkpt lat="43.45124" lon="-0.35213">
        <ele>202.2</ele>
        <time>2026-08-31T10:30:22Z</time>
      </trkpt>
      <trkpt lat="43.45124" lon="-0.35214">
        <ele>202.2</ele>
        <time>2026-08-31T10:30:23Z</time>
      </trkpt>
      <trkpt lat="43.45123" lon="-0.35214">
        <ele>202.2</ele>
        <time>2026-08-31T10:30:23Z</time>
      </trkpt>
      <trkpt lat="43.45123" lon="-0.35215">
        <ele>202.2</ele>
        <time>2026-08-31T10:30:24Z</time>
      </trkpt>
      <trkpt lat="43.45122" lon="-0.35216">
        <ele>202.2</ele>
        <time>2026-08-31T10:30:24Z</time>
      </trkpt>
      <trkpt lat="43.45122" lon="-0.35216">
        <ele>202.2</ele>
        <time>2026-08-31T10:30:25Z</time>
      </trkpt>
      <trkpt lat="43.45121" lon="-0.35217">
        <ele>202.2</ele>
        <time>2026-08-31T10:30:25Z</time>
      </trkpt>
      <trkpt lat="43.45121" lon="-0.35218">
        <ele>203.2</ele>
        <time>2026-08-31T10:30:26Z</time>
      </trkpt>
      <trkpt lat="43.45121" lon="-0.35219">
        <ele>203.2</ele>
        <time>2026-08-31T10:30:26Z</time>
      </trkpt>
      <trkpt lat="43.45121" lon="-0.3522">
        <ele>202.2</ele>
        <time>2026-08-31T10:30:27Z</time>
      </trkpt>
      <trkpt lat="43.4512" lon="-0.35221">
        <ele>202.2</ele>
        <time>2026-08-31T10:30:27Z</time>
      </trkpt>
      <trkpt lat="43.4512" lon="-0.35222">
        <ele>202.2</ele>
        <time>2026-08-31T10:30:28Z</time>
      </trkpt>
      <trkpt lat="43.45119" lon="-0.35223">
        <ele>202.2</ele>
        <time>2026-08-31T10:30:29Z</time>
      </trkpt>
      <trkpt lat="43.45119" lon="-0.35224">
        <ele>202.2</ele>
        <time>2026-08-31T10:30:29Z</time>
      </trkpt>
      <trkpt lat="43.45119" lon="-0.35225">
        <ele>202.2</ele>
        <time>2026-08-31T10:30:30Z</time>
      </trkpt>
      <trkpt lat="43.45118" lon="-0.35226">
        <ele>202.2</ele>
        <time>2026-08-31T10:30:30Z</time>
      </trkpt>
      <trkpt lat="43.45118" lon="-0.35227">
        <ele>202.2</ele>
        <time>2026-08-31T10:30:31Z</time>
      </trkpt>
      <trkpt lat="43.45117" lon="-0.35227">
        <ele>202.2</ele>
        <time>2026-08-31T10:30:31Z</time>
      </trkpt>
      <trkpt lat="43.45117" lon="-0.35228">
        <ele>202.2</ele>
        <time>2026-08-31T10:30:32Z</time>
      </trkpt>
      <trkpt lat="43.45117" lon="-0.35229">
        <ele>202.2</ele>
        <time>2026-08-31T10:30:32Z</time>
      </trkpt>
      <trkpt lat="43.45116" lon="-0.3523">
        <ele>202.2</ele>
        <time>2026-08-31T10:30:33Z</time>
      </trkpt>
      <trkpt lat="43.45116" lon="-0.35231">
        <ele>202.2</ele>
        <time>2026-08-31T10:30:33Z</time>
      </trkpt>
      <trkpt lat="43.45115" lon="-0.35232">
        <ele>202.2</ele>
        <time>2026-08-31T10:30:34Z</time>
      </trkpt>
      <trkpt lat="43.45115" lon="-0.35233">
        <ele>202.2</ele>
        <time>2026-08-31T10:30:34Z</time>
      </trkpt>
      <trkpt lat="43.45114" lon="-0.35233">
        <ele>202.2</ele>
        <time>2026-08-31T10:30:35Z</time>
      </trkpt>
      <trkpt lat="43.45114" lon="-0.35234">
        <ele>202.2</ele>
        <time>2026-08-31T10:30:36Z</time>
      </trkpt>
      <trkpt lat="43.45113" lon="-0.35235">
        <ele>202.2</ele>
        <time>2026-08-31T10:30:36Z</time>
      </trkpt>
      <trkpt lat="43.45112" lon="-0.35235">
        <ele>202.2</ele>
        <time>2026-08-31T10:30:37Z</time>
      </trkpt>
      <trkpt lat="43.45112" lon="-0.35236">
        <ele>202.2</ele>
        <time>2026-08-31T10:30:37Z</time>
      </trkpt>
      <trkpt lat="43.45111" lon="-0.35236">
        <ele>202.2</ele>
        <time>2026-08-31T10:30:38Z</time>
      </trkpt>
      <trkpt lat="43.45111" lon="-0.35237">
        <ele>202.2</ele>
        <time>2026-08-31T10:30:38Z</time>
      </trkpt>
      <trkpt lat="43.4511" lon="-0.35237">
        <ele>202.2</ele>
        <time>2026-08-31T10:30:39Z</time>
      </trkpt>
      <trkpt lat="43.4511" lon="-0.35238">
        <ele>202.2</ele>
        <time>2026-08-31T10:30:39Z</time>
      </trkpt>
      <trkpt lat="43.45109" lon="-0.35238">
        <ele>201.2</ele>
        <time>2026-08-31T10:30:40Z</time>
      </trkpt>
      <trkpt lat="43.45109" lon="-0.35239">
        <ele>201.2</ele>
        <time>2026-08-31T10:30:40Z</time>
      </trkpt>
      <trkpt lat="43.45108" lon="-0.3524">
        <ele>201.2</ele>
        <time>2026-08-31T10:30:41Z</time>
      </trkpt>
      <trkpt lat="43.45108" lon="-0.3524">
        <ele>201.2</ele>
        <time>2026-08-31T10:30:42Z</time>
      </trkpt>
      <trkpt lat="43.45108" lon="-0.35241">
        <ele>202.2</ele>
        <time>2026-08-31T10:30:42Z</time>
      </trkpt>
      <trkpt lat="43.45107" lon="-0.35242">
        <ele>202.2</ele>
        <time>2026-08-31T10:30:43Z</time>
      </trkpt>
      <trkpt lat="43.45107" lon="-0.35242">
        <ele>203.2</ele>
        <time>2026-08-31T10:30:43Z</time>
      </trkpt>
      <trkpt lat="43.45106" lon="-0.35243">
        <ele>203.2</ele>
        <time>2026-08-31T10:30:44Z</time>
      </trkpt>
      <trkpt lat="43.45106" lon="-0.35244">
        <ele>203.2</ele>
        <time>2026-08-31T10:30:44Z</time>
      </trkpt>
      <trkpt lat="43.45106" lon="-0.35245">
        <ele>203.2</ele>
        <time>2026-08-31T10:30:45Z</time>
      </trkpt>
      <trkpt lat="43.45106" lon="-0.35246">
        <ele>203.2</ele>
        <time>2026-08-31T10:30:45Z</time>
      </trkpt>
      <trkpt lat="43.45106" lon="-0.35247">
        <ele>203.2</ele>
        <time>2026-08-31T10:30:46Z</time>
      </trkpt>
      <trkpt lat="43.45105" lon="-0.35248">
        <ele>203.2</ele>
        <time>2026-08-31T10:30:47Z</time>
      </trkpt>
      <trkpt lat="43.45106" lon="-0.35248">
        <ele>203.2</ele>
        <time>2026-08-31T10:30:47Z</time>
      </trkpt>
      <trkpt lat="43.45105" lon="-0.35249">
        <ele>203.2</ele>
        <time>2026-08-31T10:30:48Z</time>
      </trkpt>
      <trkpt lat="43.45105" lon="-0.3525">
        <ele>203.2</ele>
        <time>2026-08-31T10:30:48Z</time>
      </trkpt>
      <trkpt lat="43.45105" lon="-0.35251">
        <ele>203.2</ele>
        <time>2026-08-31T10:30:49Z</time>
      </trkpt>
      <trkpt lat="43.45105" lon="-0.35252">
        <ele>203.2</ele>
        <time>2026-08-31T10:30:49Z</time>
      </trkpt>
      <trkpt lat="43.45105" lon="-0.35253">
        <ele>203.2</ele>
        <time>2026-08-31T10:30:50Z</time>
      </trkpt>
      <trkpt lat="43.45105" lon="-0.35254">
        <ele>203.2</ele>
        <time>2026-08-31T10:30:50Z</time>
      </trkpt>
      <trkpt lat="43.45105" lon="-0.35255">
        <ele>203.2</ele>
        <time>2026-08-31T10:30:51Z</time>
      </trkpt>
      <trkpt lat="43.45105" lon="-0.35256">
        <ele>203.2</ele>
        <time>2026-08-31T10:30:51Z</time>
      </trkpt>
      <trkpt lat="43.45105" lon="-0.35257">
        <ele>203.2</ele>
        <time>2026-08-31T10:30:52Z</time>
      </trkpt>
      <trkpt lat="43.45105" lon="-0.35258">
        <ele>203.2</ele>
        <time>2026-08-31T10:30:52Z</time>
      </trkpt>
      <trkpt lat="43.45105" lon="-0.35259">
        <ele>203.2</ele>
        <time>2026-08-31T10:30:53Z</time>
      </trkpt>
      <trkpt lat="43.45106" lon="-0.3526">
        <ele>203.2</ele>
        <time>2026-08-31T10:30:53Z</time>
      </trkpt>
      <trkpt lat="43.45106" lon="-0.35261">
        <ele>203.2</ele>
        <time>2026-08-31T10:30:54Z</time>
      </trkpt>
      <trkpt lat="43.45106" lon="-0.35262">
        <ele>203.2</ele>
        <time>2026-08-31T10:30:55Z</time>
      </trkpt>
      <trkpt lat="43.45106" lon="-0.35263">
        <ele>202.2</ele>
        <time>2026-08-31T10:30:55Z</time>
      </trkpt>
      <trkpt lat="43.45106" lon="-0.35264">
        <ele>202.2</ele>
        <time>2026-08-31T10:30:56Z</time>
      </trkpt>
      <trkpt lat="43.45106" lon="-0.35265">
        <ele>202.2</ele>
        <time>2026-08-31T10:30:56Z</time>
      </trkpt>
      <trkpt lat="43.45106" lon="-0.35266">
        <ele>203.2</ele>
        <time>2026-08-31T10:30:57Z</time>
      </trkpt>
      <trkpt lat="43.45106" lon="-0.35267">
        <ele>203.2</ele>
        <time>2026-08-31T10:30:57Z</time>
      </trkpt>
      <trkpt lat="43.45106" lon="-0.35268">
        <ele>203.2</ele>
        <time>2026-08-31T10:30:58Z</time>
      </trkpt>
      <trkpt lat="43.45106" lon="-0.35269">
        <ele>203.2</ele>
        <time>2026-08-31T10:30:58Z</time>
      </trkpt>
      <trkpt lat="43.45106" lon="-0.3527">
        <ele>203.2</ele>
        <time>2026-08-31T10:30:59Z</time>
      </trkpt>
      <trkpt lat="43.45106" lon="-0.35271">
        <ele>203.2</ele>
        <time>2026-08-31T10:30:59Z</time>
      </trkpt>
      <trkpt lat="43.45106" lon="-0.35272">
        <ele>204.2</ele>
        <time>2026-08-31T10:31:00Z</time>
      </trkpt>
      <trkpt lat="43.45106" lon="-0.35273">
        <ele>204.2</ele>
        <time>2026-08-31T10:31:01Z</time>
      </trkpt>
      <trkpt lat="43.45106" lon="-0.35274">
        <ele>204.2</ele>
        <time>2026-08-31T10:31:01Z</time>
      </trkpt>
      <trkpt lat="43.45107" lon="-0.35275">
        <ele>204.2</ele>
        <time>2026-08-31T10:31:02Z</time>
      </trkpt>
      <trkpt lat="43.45107" lon="-0.35276">
        <ele>203.2</ele>
        <time>2026-08-31T10:31:02Z</time>
      </trkpt>
      <trkpt lat="43.45107" lon="-0.35277">
        <ele>202.2</ele>
        <time>2026-08-31T10:31:03Z</time>
      </trkpt>
      <trkpt lat="43.45107" lon="-0.35278">
        <ele>202.2</ele>
        <time>2026-08-31T10:31:03Z</time>
      </trkpt>
      <trkpt lat="43.45107" lon="-0.35279">
        <ele>202.2</ele>
        <time>2026-08-31T10:31:04Z</time>
      </trkpt>
      <trkpt lat="43.45107" lon="-0.3528">
        <ele>202.2</ele>
        <time>2026-08-31T10:31:04Z</time>
      </trkpt>
      <trkpt lat="43.45107" lon="-0.35281">
        <ele>202.2</ele>
        <time>2026-08-31T10:31:05Z</time>
      </trkpt>
      <trkpt lat="43.45107" lon="-0.35282">
        <ele>202.2</ele>
        <time>2026-08-31T10:31:05Z</time>
      </trkpt>
      <trkpt lat="43.45107" lon="-0.35283">
        <ele>203.2</ele>
        <time>2026-08-31T10:31:06Z</time>
      </trkpt>
      <trkpt lat="43.45107" lon="-0.35284">
        <ele>203.2</ele>
        <time>2026-08-31T10:31:06Z</time>
      </trkpt>
      <trkpt lat="43.45107" lon="-0.35285">
        <ele>203.2</ele>
        <time>2026-08-31T10:31:07Z</time>
      </trkpt>
      <trkpt lat="43.45107" lon="-0.35286">
        <ele>203.2</ele>
        <time>2026-08-31T10:31:08Z</time>
      </trkpt>
      <trkpt lat="43.45107" lon="-0.35287">
        <ele>204.2</ele>
        <time>2026-08-31T10:31:08Z</time>
      </trkpt>
      <trkpt lat="43.45107" lon="-0.35288">
        <ele>204.2</ele>
        <time>2026-08-31T10:31:09Z</time>
      </trkpt>
      <trkpt lat="43.45107" lon="-0.35289">
        <ele>204.2</ele>
        <time>2026-08-31T10:31:09Z</time>
      </trkpt>
      <trkpt lat="43.45107" lon="-0.35289">
        <ele>204.2</ele>
        <time>2026-08-31T10:31:10Z</time>
      </trkpt>
      <trkpt lat="43.45107" lon="-0.3529">
        <ele>204.2</ele>
        <time>2026-08-31T10:31:10Z</time>
      </trkpt>
      <trkpt lat="43.45107" lon="-0.35291">
        <ele>203.2</ele>
        <time>2026-08-31T10:31:11Z</time>
      </trkpt>
      <trkpt lat="43.45107" lon="-0.35292">
        <ele>203.2</ele>
        <time>2026-08-31T10:31:11Z</time>
      </trkpt>
      <trkpt lat="43.45107" lon="-0.35293">
        <ele>203.2</ele>
        <time>2026-08-31T10:31:12Z</time>
      </trkpt>
      <trkpt lat="43.45108" lon="-0.35294">
        <ele>203.2</ele>
        <time>2026-08-31T10:31:12Z</time>
      </trkpt>
      <trkpt lat="43.45108" lon="-0.35295">
        <ele>203.2</ele>
        <time>2026-08-31T10:31:13Z</time>
      </trkpt>
      <trkpt lat="43.45108" lon="-0.35296">
        <ele>203.2</ele>
        <time>2026-08-31T10:31:13Z</time>
      </trkpt>
      <trkpt lat="43.45108" lon="-0.35297">
        <ele>203.2</ele>
        <time>2026-08-31T10:31:14Z</time>
      </trkpt>
      <trkpt lat="43.45108" lon="-0.35298">
        <ele>203.2</ele>
        <time>2026-08-31T10:31:15Z</time>
      </trkpt>
      <trkpt lat="43.45109" lon="-0.35298">
        <ele>202.2</ele>
        <time>2026-08-31T10:31:15Z</time>
      </trkpt>
      <trkpt lat="43.45109" lon="-0.35299">
        <ele>202.2</ele>
        <time>2026-08-31T10:31:16Z</time>
      </trkpt>
      <trkpt lat="43.45109" lon="-0.353">
        <ele>202.2</ele>
        <time>2026-08-31T10:31:16Z</time>
      </trkpt>
      <trkpt lat="43.45109" lon="-0.35301">
        <ele>202.2</ele>
        <time>2026-08-31T10:31:17Z</time>
      </trkpt>
      <trkpt lat="43.45109" lon="-0.35302">
        <ele>202.2</ele>
        <time>2026-08-31T10:31:17Z</time>
      </trkpt>
      <trkpt lat="43.4511" lon="-0.35303">
        <ele>201.2</ele>
        <time>2026-08-31T10:31:18Z</time>
      </trkpt>
      <trkpt lat="43.4511" lon="-0.35304">
        <ele>201.2</ele>
        <time>2026-08-31T10:31:18Z</time>
      </trkpt>
      <trkpt lat="43.4511" lon="-0.35304">
        <ele>202.2</ele>
        <time>2026-08-31T10:31:19Z</time>
      </trkpt>
      <trkpt lat="43.4511" lon="-0.35305">
        <ele>202.2</ele>
        <time>2026-08-31T10:31:19Z</time>
      </trkpt>
      <trkpt lat="43.4511" lon="-0.35306">
        <ele>202.2</ele>
        <time>2026-08-31T10:31:20Z</time>
      </trkpt>
      <trkpt lat="43.45111" lon="-0.35307">
        <ele>202.2</ele>
        <time>2026-08-31T10:31:20Z</time>
      </trkpt>
      <trkpt lat="43.45111" lon="-0.35308">
        <ele>202.2</ele>
        <time>2026-08-31T10:31:21Z</time>
      </trkpt>
      <trkpt lat="43.45111" lon="-0.35309">
        <ele>202.2</ele>
        <time>2026-08-31T10:31:22Z</time>
      </trkpt>
      <trkpt lat="43.45111" lon="-0.35309">
        <ele>202.2</ele>
        <time>2026-08-31T10:31:22Z</time>
      </trkpt>
      <trkpt lat="43.45111" lon="-0.3531">
        <ele>202.2</ele>
        <time>2026-08-31T10:31:23Z</time>
      </trkpt>
      <trkpt lat="43.45111" lon="-0.35311">
        <ele>202.2</ele>
        <time>2026-08-31T10:31:23Z</time>
      </trkpt>
      <trkpt lat="43.45111" lon="-0.35312">
        <ele>202.2</ele>
        <time>2026-08-31T10:31:24Z</time>
      </trkpt>
      <trkpt lat="43.45111" lon="-0.35313">
        <ele>202.2</ele>
        <time>2026-08-31T10:31:24Z</time>
      </trkpt>
      <trkpt lat="43.45111" lon="-0.35314">
        <ele>202.2</ele>
        <time>2026-08-31T10:31:25Z</time>
      </trkpt>
      <trkpt lat="43.45111" lon="-0.35315">
        <ele>202.2</ele>
        <time>2026-08-31T10:31:25Z</time>
      </trkpt>
      <trkpt lat="43.45111" lon="-0.35315">
        <ele>202.2</ele>
        <time>2026-08-31T10:31:26Z</time>
      </trkpt>
      <trkpt lat="43.45111" lon="-0.35316">
        <ele>202.2</ele>
        <time>2026-08-31T10:31:26Z</time>
      </trkpt>
      <trkpt lat="43.45111" lon="-0.35317">
        <ele>202.2</ele>
        <time>2026-08-31T10:31:27Z</time>
      </trkpt>
      <trkpt lat="43.45111" lon="-0.35318">
        <ele>202.2</ele>
        <time>2026-08-31T10:31:27Z</time>
      </trkpt>
      <trkpt lat="43.4511" lon="-0.35319">
        <ele>202.2</ele>
        <time>2026-08-31T10:31:28Z</time>
      </trkpt>
      <trkpt lat="43.4511" lon="-0.3532">
        <ele>202.2</ele>
        <time>2026-08-31T10:31:29Z</time>
      </trkpt>
      <trkpt lat="43.4511" lon="-0.35321">
        <ele>202.2</ele>
        <time>2026-08-31T10:31:29Z</time>
      </trkpt>
      <trkpt lat="43.4511" lon="-0.35322">
        <ele>202.2</ele>
        <time>2026-08-31T10:31:30Z</time>
      </trkpt>
      <trkpt lat="43.4511" lon="-0.35323">
        <ele>202.2</ele>
        <time>2026-08-31T10:31:30Z</time>
      </trkpt>
      <trkpt lat="43.45109" lon="-0.35323">
        <ele>202.2</ele>
        <time>2026-08-31T10:31:31Z</time>
      </trkpt>
      <trkpt lat="43.45109" lon="-0.35324">
        <ele>202.2</ele>
        <time>2026-08-31T10:31:31Z</time>
      </trkpt>
      <trkpt lat="43.45109" lon="-0.35325">
        <ele>202.2</ele>
        <time>2026-08-31T10:31:32Z</time>
      </trkpt>
      <trkpt lat="43.45109" lon="-0.35326">
        <ele>202.2</ele>
        <time>2026-08-31T10:31:32Z</time>
      </trkpt>
      <trkpt lat="43.45108" lon="-0.35327">
        <ele>202.2</ele>
        <time>2026-08-31T10:31:33Z</time>
      </trkpt>
      <trkpt lat="43.45108" lon="-0.35327">
        <ele>202.2</ele>
        <time>2026-08-31T10:31:33Z</time>
      </trkpt>
      <trkpt lat="43.45108" lon="-0.35328">
        <ele>202.2</ele>
        <time>2026-08-31T10:31:34Z</time>
      </trkpt>
      <trkpt lat="43.45107" lon="-0.35329">
        <ele>202.2</ele>
        <time>2026-08-31T10:31:35Z</time>
      </trkpt>
      <trkpt lat="43.45107" lon="-0.35329">
        <ele>202.2</ele>
        <time>2026-08-31T10:31:35Z</time>
      </trkpt>
      <trkpt lat="43.45106" lon="-0.3533">
        <ele>202.2</ele>
        <time>2026-08-31T10:31:36Z</time>
      </trkpt>
      <trkpt lat="43.45106" lon="-0.35331">
        <ele>202.2</ele>
        <time>2026-08-31T10:31:36Z</time>
      </trkpt>
      <trkpt lat="43.45106" lon="-0.35331">
        <ele>202.2</ele>
        <time>2026-08-31T10:31:37Z</time>
      </trkpt>
      <trkpt lat="43.45105" lon="-0.35332">
        <ele>203.2</ele>
        <time>2026-08-31T10:31:37Z</time>
      </trkpt>
      <trkpt lat="43.45105" lon="-0.35333">
        <ele>203.2</ele>
        <time>2026-08-31T10:31:38Z</time>
      </trkpt>
      <trkpt lat="43.45105" lon="-0.35334">
        <ele>203.2</ele>
        <time>2026-08-31T10:31:38Z</time>
      </trkpt>
      <trkpt lat="43.45105" lon="-0.35334">
        <ele>203.2</ele>
        <time>2026-08-31T10:31:39Z</time>
      </trkpt>
      <trkpt lat="43.45104" lon="-0.35335">
        <ele>203.2</ele>
        <time>2026-08-31T10:31:39Z</time>
      </trkpt>
      <trkpt lat="43.45104" lon="-0.35336">
        <ele>204.2</ele>
        <time>2026-08-31T10:31:40Z</time>
      </trkpt>
      <trkpt lat="43.45104" lon="-0.35337">
        <ele>204.2</ele>
        <time>2026-08-31T10:31:40Z</time>
      </trkpt>
      <trkpt lat="43.45103" lon="-0.35338">
        <ele>204.2</ele>
        <time>2026-08-31T10:31:41Z</time>
      </trkpt>
      <trkpt lat="43.45103" lon="-0.35338">
        <ele>204.2</ele>
        <time>2026-08-31T10:31:42Z</time>
      </trkpt>
      <trkpt lat="43.45103" lon="-0.35339">
        <ele>203.2</ele>
        <time>2026-08-31T10:31:42Z</time>
      </trkpt>
      <trkpt lat="43.45102" lon="-0.3534">
        <ele>203.2</ele>
        <time>2026-08-31T10:31:43Z</time>
      </trkpt>
      <trkpt lat="43.45102" lon="-0.35341">
        <ele>204.2</ele>
        <time>2026-08-31T10:31:43Z</time>
      </trkpt>
      <trkpt lat="43.45102" lon="-0.35341">
        <ele>204.2</ele>
        <time>2026-08-31T10:31:44Z</time>
      </trkpt>
      <trkpt lat="43.45101" lon="-0.35342">
        <ele>204.2</ele>
        <time>2026-08-31T10:31:44Z</time>
      </trkpt>
      <trkpt lat="43.45101" lon="-0.35343">
        <ele>203.2</ele>
        <time>2026-08-31T10:31:45Z</time>
      </trkpt>
      <trkpt lat="43.45101" lon="-0.35344">
        <ele>203.2</ele>
        <time>2026-08-31T10:31:45Z</time>
      </trkpt>
      <trkpt lat="43.451" lon="-0.35345">
        <ele>203.2</ele>
        <time>2026-08-31T10:31:46Z</time>
      </trkpt>
      <trkpt lat="43.451" lon="-0.35345">
        <ele>203.2</ele>
        <time>2026-08-31T10:31:47Z</time>
      </trkpt>
      <trkpt lat="43.45099" lon="-0.35346">
        <ele>203.2</ele>
        <time>2026-08-31T10:31:47Z</time>
      </trkpt>
      <trkpt lat="43.45099" lon="-0.35347">
        <ele>203.2</ele>
        <time>2026-08-31T10:31:48Z</time>
      </trkpt>
      <trkpt lat="43.45098" lon="-0.35348">
        <ele>203.2</ele>
        <time>2026-08-31T10:31:48Z</time>
      </trkpt>
      <trkpt lat="43.45098" lon="-0.35348">
        <ele>203.2</ele>
        <time>2026-08-31T10:31:49Z</time>
      </trkpt>
      <trkpt lat="43.45097" lon="-0.35349">
        <ele>203.2</ele>
        <time>2026-08-31T10:31:49Z</time>
      </trkpt>
      <trkpt lat="43.45097" lon="-0.3535">
        <ele>203.2</ele>
        <time>2026-08-31T10:31:50Z</time>
      </trkpt>
      <trkpt lat="43.45096" lon="-0.35351">
        <ele>203.2</ele>
        <time>2026-08-31T10:31:50Z</time>
      </trkpt>
      <trkpt lat="43.45096" lon="-0.35352">
        <ele>203.2</ele>
        <time>2026-08-31T10:31:51Z</time>
      </trkpt>
      <trkpt lat="43.45096" lon="-0.35352">
        <ele>203.2</ele>
        <time>2026-08-31T10:31:51Z</time>
      </trkpt>
      <trkpt lat="43.45095" lon="-0.35353">
        <ele>203.2</ele>
        <time>2026-08-31T10:31:52Z</time>
      </trkpt>
      <trkpt lat="43.45095" lon="-0.35354">
        <ele>203.2</ele>
        <time>2026-08-31T10:31:53Z</time>
      </trkpt>
      <trkpt lat="43.45094" lon="-0.35355">
        <ele>203.2</ele>
        <time>2026-08-31T10:31:53Z</time>
      </trkpt>
      <trkpt lat="43.45093" lon="-0.35355">
        <ele>203.2</ele>
        <time>2026-08-31T10:31:54Z</time>
      </trkpt>
      <trkpt lat="43.45093" lon="-0.35356">
        <ele>203.2</ele>
        <time>2026-08-31T10:31:55Z</time>
      </trkpt>
      <trkpt lat="43.45092" lon="-0.35357">
        <ele>203.2</ele>
        <time>2026-08-31T10:31:55Z</time>
      </trkpt>
      <trkpt lat="43.45091" lon="-0.35358">
        <ele>203.2</ele>
        <time>2026-08-31T10:31:56Z</time>
      </trkpt>
      <trkpt lat="43.45091" lon="-0.35358">
        <ele>203.2</ele>
        <time>2026-08-31T10:31:56Z</time>
      </trkpt>
      <trkpt lat="43.4509" lon="-0.35359">
        <ele>203.2</ele>
        <time>2026-08-31T10:31:57Z</time>
      </trkpt>
      <trkpt lat="43.4509" lon="-0.3536">
        <ele>203.2</ele>
        <time>2026-08-31T10:31:58Z</time>
      </trkpt>
      <trkpt lat="43.45089" lon="-0.35361">
        <ele>203.2</ele>
        <time>2026-08-31T10:31:58Z</time>
      </trkpt>
      <trkpt lat="43.45089" lon="-0.35361">
        <ele>203.2</ele>
        <time>2026-08-31T10:31:59Z</time>
      </trkpt>
      <trkpt lat="43.45088" lon="-0.35362">
        <ele>203.2</ele>
        <time>2026-08-31T10:31:59Z</time>
      </trkpt>
      <trkpt lat="43.45088" lon="-0.35363">
        <ele>202.2</ele>
        <time>2026-08-31T10:32:00Z</time>
      </trkpt>
      <trkpt lat="43.45087" lon="-0.35364">
        <ele>202.2</ele>
        <time>2026-08-31T10:32:00Z</time>
      </trkpt>
      <trkpt lat="43.45087" lon="-0.35364">
        <ele>202.2</ele>
        <time>2026-08-31T10:32:01Z</time>
      </trkpt>
      <trkpt lat="43.45087" lon="-0.35365">
        <ele>202.2</ele>
        <time>2026-08-31T10:32:01Z</time>
      </trkpt>
      <trkpt lat="43.45086" lon="-0.35366">
        <ele>202.2</ele>
        <time>2026-08-31T10:32:02Z</time>
      </trkpt>
      <trkpt lat="43.45086" lon="-0.35367">
        <ele>202.2</ele>
        <time>2026-08-31T10:32:02Z</time>
      </trkpt>
      <trkpt lat="43.45085" lon="-0.35368">
        <ele>202.2</ele>
        <time>2026-08-31T10:32:03Z</time>
      </trkpt>
      <trkpt lat="43.45085" lon="-0.35369">
        <ele>202.2</ele>
        <time>2026-08-31T10:32:03Z</time>
      </trkpt>
      <trkpt lat="43.45085" lon="-0.35369">
        <ele>202.2</ele>
        <time>2026-08-31T10:32:04Z</time>
      </trkpt>
      <trkpt lat="43.45084" lon="-0.3537">
        <ele>202.2</ele>
        <time>2026-08-31T10:32:04Z</time>
      </trkpt>
      <trkpt lat="43.45084" lon="-0.35371">
        <ele>202.2</ele>
        <time>2026-08-31T10:32:05Z</time>
      </trkpt>
      <trkpt lat="43.45083" lon="-0.35372">
        <ele>202.2</ele>
        <time>2026-08-31T10:32:06Z</time>
      </trkpt>
      <trkpt lat="43.45083" lon="-0.35372">
        <ele>202.2</ele>
        <time>2026-08-31T10:32:06Z</time>
      </trkpt>
      <trkpt lat="43.45082" lon="-0.35373">
        <ele>202.2</ele>
        <time>2026-08-31T10:32:07Z</time>
      </trkpt>
      <trkpt lat="43.45082" lon="-0.35374">
        <ele>202.2</ele>
        <time>2026-08-31T10:32:07Z</time>
      </trkpt>
      <trkpt lat="43.45082" lon="-0.35374">
        <ele>201.2</ele>
        <time>2026-08-31T10:32:08Z</time>
      </trkpt>
      <trkpt lat="43.45081" lon="-0.35375">
        <ele>201.2</ele>
        <time>2026-08-31T10:32:08Z</time>
      </trkpt>
      <trkpt lat="43.45081" lon="-0.35376">
        <ele>201.2</ele>
        <time>2026-08-31T10:32:09Z</time>
      </trkpt>
      <trkpt lat="43.4508" lon="-0.35376">
        <ele>201.2</ele>
        <time>2026-08-31T10:32:09Z</time>
      </trkpt>
      <trkpt lat="43.4508" lon="-0.35377">
        <ele>201.2</ele>
        <time>2026-08-31T10:32:10Z</time>
      </trkpt>
      <trkpt lat="43.4508" lon="-0.35378">
        <ele>201.2</ele>
        <time>2026-08-31T10:32:10Z</time>
      </trkpt>
      <trkpt lat="43.45079" lon="-0.35379">
        <ele>201.2</ele>
        <time>2026-08-31T10:32:11Z</time>
      </trkpt>
      <trkpt lat="43.45079" lon="-0.3538">
        <ele>201.2</ele>
        <time>2026-08-31T10:32:12Z</time>
      </trkpt>
      <trkpt lat="43.45079" lon="-0.3538">
        <ele>202.2</ele>
        <time>2026-08-31T10:32:12Z</time>
      </trkpt>
      <trkpt lat="43.45078" lon="-0.35381">
        <ele>202.2</ele>
        <time>2026-08-31T10:32:13Z</time>
      </trkpt>
      <trkpt lat="43.45078" lon="-0.35382">
        <ele>202.2</ele>
        <time>2026-08-31T10:32:13Z</time>
      </trkpt>
      <trkpt lat="43.45078" lon="-0.35382">
        <ele>201.2</ele>
        <time>2026-08-31T10:32:14Z</time>
      </trkpt>
      <trkpt lat="43.45077" lon="-0.35383">
        <ele>201.2</ele>
        <time>2026-08-31T10:32:14Z</time>
      </trkpt>
      <trkpt lat="43.45077" lon="-0.35384">
        <ele>201.2</ele>
        <time>2026-08-31T10:32:15Z</time>
      </trkpt>
      <trkpt lat="43.45077" lon="-0.35385">
        <ele>201.2</ele>
        <time>2026-08-31T10:32:16Z</time>
      </trkpt>
      <trkpt lat="43.45076" lon="-0.35386">
        <ele>202.2</ele>
        <time>2026-08-31T10:32:16Z</time>
      </trkpt>
      <trkpt lat="43.45076" lon="-0.35386">
        <ele>202.2</ele>
        <time>2026-08-31T10:32:17Z</time>
      </trkpt>
      <trkpt lat="43.45075" lon="-0.35387">
        <ele>202.2</ele>
        <time>2026-08-31T10:32:17Z</time>
      </trkpt>
      <trkpt lat="43.45075" lon="-0.35387">
        <ele>201.2</ele>
        <time>2026-08-31T10:32:18Z</time>
      </trkpt>
      <trkpt lat="43.45074" lon="-0.35388">
        <ele>201.2</ele>
        <time>2026-08-31T10:32:18Z</time>
      </trkpt>
      <trkpt lat="43.45074" lon="-0.35388">
        <ele>201.2</ele>
        <time>2026-08-31T10:32:19Z</time>
      </trkpt>
      <trkpt lat="43.45073" lon="-0.35389">
        <ele>201.2</ele>
        <time>2026-08-31T10:32:19Z</time>
      </trkpt>
      <trkpt lat="43.45073" lon="-0.35389">
        <ele>200.2</ele>
        <time>2026-08-31T10:32:20Z</time>
      </trkpt>
      <trkpt lat="43.45072" lon="-0.3539">
        <ele>200.2</ele>
        <time>2026-08-31T10:32:21Z</time>
      </trkpt>
      <trkpt lat="43.45072" lon="-0.3539">
        <ele>200.2</ele>
        <time>2026-08-31T10:32:21Z</time>
      </trkpt>
      <trkpt lat="43.45071" lon="-0.35391">
        <ele>200.2</ele>
        <time>2026-08-31T10:32:22Z</time>
      </trkpt>
      <trkpt lat="43.45071" lon="-0.35392">
        <ele>200.2</ele>
        <time>2026-08-31T10:32:22Z</time>
      </trkpt>
      <trkpt lat="43.45071" lon="-0.35392">
        <ele>200.2</ele>
        <time>2026-08-31T10:32:23Z</time>
      </trkpt>
      <trkpt lat="43.4507" lon="-0.35393">
        <ele>200.2</ele>
        <time>2026-08-31T10:32:23Z</time>
      </trkpt>
      <trkpt lat="43.4507" lon="-0.35393">
        <ele>200.2</ele>
        <time>2026-08-31T10:32:24Z</time>
      </trkpt>
      <trkpt lat="43.45069" lon="-0.35394">
        <ele>200.2</ele>
        <time>2026-08-31T10:32:24Z</time>
      </trkpt>
      <trkpt lat="43.45068" lon="-0.35395">
        <ele>200.2</ele>
        <time>2026-08-31T10:32:25Z</time>
      </trkpt>
      <trkpt lat="43.45068" lon="-0.35396">
        <ele>200.2</ele>
        <time>2026-08-31T10:32:26Z</time>
      </trkpt>
      <trkpt lat="43.45067" lon="-0.35396">
        <ele>200.2</ele>
        <time>2026-08-31T10:32:26Z</time>
      </trkpt>
      <trkpt lat="43.45067" lon="-0.35397">
        <ele>200.2</ele>
        <time>2026-08-31T10:32:27Z</time>
      </trkpt>
      <trkpt lat="43.45066" lon="-0.35398">
        <ele>201.2</ele>
        <time>2026-08-31T10:32:27Z</time>
      </trkpt>
      <trkpt lat="43.45066" lon="-0.35398">
        <ele>201.2</ele>
        <time>2026-08-31T10:32:28Z</time>
      </trkpt>
      <trkpt lat="43.45065" lon="-0.35399">
        <ele>201.2</ele>
        <time>2026-08-31T10:32:28Z</time>
      </trkpt>
      <trkpt lat="43.45065" lon="-0.354">
        <ele>201.2</ele>
        <time>2026-08-31T10:32:29Z</time>
      </trkpt>
      <trkpt lat="43.45064" lon="-0.354">
        <ele>201.2</ele>
        <time>2026-08-31T10:32:29Z</time>
      </trkpt>
      <trkpt lat="43.45064" lon="-0.35401">
        <ele>201.2</ele>
        <time>2026-08-31T10:32:30Z</time>
      </trkpt>
      <trkpt lat="43.45063" lon="-0.35402">
        <ele>201.2</ele>
        <time>2026-08-31T10:32:31Z</time>
      </trkpt>
      <trkpt lat="43.45063" lon="-0.35403">
        <ele>201.2</ele>
        <time>2026-08-31T10:32:31Z</time>
      </trkpt>
      <trkpt lat="43.45062" lon="-0.35403">
        <ele>201.2</ele>
        <time>2026-08-31T10:32:32Z</time>
      </trkpt>
      <trkpt lat="43.45062" lon="-0.35404">
        <ele>201.2</ele>
        <time>2026-08-31T10:32:32Z</time>
      </trkpt>
      <trkpt lat="43.45061" lon="-0.35405">
        <ele>201.2</ele>
        <time>2026-08-31T10:32:33Z</time>
      </trkpt>
      <trkpt lat="43.45061" lon="-0.35406">
        <ele>201.2</ele>
        <time>2026-08-31T10:32:33Z</time>
      </trkpt>
      <trkpt lat="43.4506" lon="-0.35406">
        <ele>201.2</ele>
        <time>2026-08-31T10:32:34Z</time>
      </trkpt>
      <trkpt lat="43.4506" lon="-0.35407">
        <ele>201.2</ele>
        <time>2026-08-31T10:32:34Z</time>
      </trkpt>
      <trkpt lat="43.45059" lon="-0.35407">
        <ele>201.2</ele>
        <time>2026-08-31T10:32:35Z</time>
      </trkpt>
      <trkpt lat="43.45059" lon="-0.35408">
        <ele>201.2</ele>
        <time>2026-08-31T10:32:36Z</time>
      </trkpt>
      <trkpt lat="43.45058" lon="-0.35409">
        <ele>201.2</ele>
        <time>2026-08-31T10:32:36Z</time>
      </trkpt>
      <trkpt lat="43.45058" lon="-0.35409">
        <ele>201.2</ele>
        <time>2026-08-31T10:32:37Z</time>
      </trkpt>
      <trkpt lat="43.45057" lon="-0.3541">
        <ele>200.2</ele>
        <time>2026-08-31T10:32:37Z</time>
      </trkpt>
      <trkpt lat="43.45057" lon="-0.35411">
        <ele>200.2</ele>
        <time>2026-08-31T10:32:38Z</time>
      </trkpt>
      <trkpt lat="43.45057" lon="-0.35412">
        <ele>200.2</ele>
        <time>2026-08-31T10:32:38Z</time>
      </trkpt>
      <trkpt lat="43.45056" lon="-0.35413">
        <ele>200.2</ele>
        <time>2026-08-31T10:32:39Z</time>
      </trkpt>
      <trkpt lat="43.45056" lon="-0.35414">
        <ele>200.2</ele>
        <time>2026-08-31T10:32:40Z</time>
      </trkpt>
      <trkpt lat="43.45056" lon="-0.35414">
        <ele>201.2</ele>
        <time>2026-08-31T10:32:40Z</time>
      </trkpt>
      <trkpt lat="43.45055" lon="-0.35415">
        <ele>201.2</ele>
        <time>2026-08-31T10:32:41Z</time>
      </trkpt>
      <trkpt lat="43.45055" lon="-0.35416">
        <ele>201.2</ele>
        <time>2026-08-31T10:32:41Z</time>
      </trkpt>
      <trkpt lat="43.45055" lon="-0.35417">
        <ele>201.2</ele>
        <time>2026-08-31T10:32:42Z</time>
      </trkpt>
      <trkpt lat="43.45054" lon="-0.35418">
        <ele>201.2</ele>
        <time>2026-08-31T10:32:42Z</time>
      </trkpt>
      <trkpt lat="43.45054" lon="-0.35419">
        <ele>201.2</ele>
        <time>2026-08-31T10:32:43Z</time>
      </trkpt>
      <trkpt lat="43.45054" lon="-0.3542">
        <ele>201.2</ele>
        <time>2026-08-31T10:32:44Z</time>
      </trkpt>
      <trkpt lat="43.45053" lon="-0.35421">
        <ele>201.2</ele>
        <time>2026-08-31T10:32:44Z</time>
      </trkpt>
      <trkpt lat="43.45053" lon="-0.35421">
        <ele>201.2</ele>
        <time>2026-08-31T10:32:45Z</time>
      </trkpt>
      <trkpt lat="43.45053" lon="-0.35422">
        <ele>201.2</ele>
        <time>2026-08-31T10:32:45Z</time>
      </trkpt>
      <trkpt lat="43.45052" lon="-0.35423">
        <ele>201.2</ele>
        <time>2026-08-31T10:32:46Z</time>
      </trkpt>
      <trkpt lat="43.45052" lon="-0.35424">
        <ele>201.2</ele>
        <time>2026-08-31T10:32:46Z</time>
      </trkpt>
      <trkpt lat="43.45051" lon="-0.35425">
        <ele>201.2</ele>
        <time>2026-08-31T10:32:47Z</time>
      </trkpt>
      <trkpt lat="43.45051" lon="-0.35426">
        <ele>201.2</ele>
        <time>2026-08-31T10:32:48Z</time>
      </trkpt>
      <trkpt lat="43.4505" lon="-0.35426">
        <ele>201.2</ele>
        <time>2026-08-31T10:32:48Z</time>
      </trkpt>
      <trkpt lat="43.4505" lon="-0.35427">
        <ele>202.2</ele>
        <time>2026-08-31T10:32:49Z</time>
      </trkpt>
      <trkpt lat="43.45049" lon="-0.35428">
        <ele>202.2</ele>
        <time>2026-08-31T10:32:49Z</time>
      </trkpt>
      <trkpt lat="43.45049" lon="-0.35429">
        <ele>202.2</ele>
        <time>2026-08-31T10:32:50Z</time>
      </trkpt>
      <trkpt lat="43.45048" lon="-0.3543">
        <ele>202.2</ele>
        <time>2026-08-31T10:32:50Z</time>
      </trkpt>
      <trkpt lat="43.45048" lon="-0.3543">
        <ele>202.2</ele>
        <time>2026-08-31T10:32:51Z</time>
      </trkpt>
      <trkpt lat="43.45047" lon="-0.35431">
        <ele>202.2</ele>
        <time>2026-08-31T10:32:51Z</time>
      </trkpt>
      <trkpt lat="43.45047" lon="-0.35432">
        <ele>202.2</ele>
        <time>2026-08-31T10:32:52Z</time>
      </trkpt>
      <trkpt lat="43.45047" lon="-0.35433">
        <ele>202.2</ele>
        <time>2026-08-31T10:32:53Z</time>
      </trkpt>
      <trkpt lat="43.45046" lon="-0.35434">
        <ele>202.2</ele>
        <time>2026-08-31T10:32:53Z</time>
      </trkpt>
      <trkpt lat="43.45046" lon="-0.35435">
        <ele>202.2</ele>
        <time>2026-08-31T10:32:54Z</time>
      </trkpt>
      <trkpt lat="43.45045" lon="-0.35436">
        <ele>202.2</ele>
        <time>2026-08-31T10:32:54Z</time>
      </trkpt>
      <trkpt lat="43.45045" lon="-0.35436">
        <ele>203.2</ele>
        <time>2026-08-31T10:32:55Z</time>
      </trkpt>
      <trkpt lat="43.45045" lon="-0.35437">
        <ele>203.2</ele>
        <time>2026-08-31T10:32:55Z</time>
      </trkpt>
      <trkpt lat="43.45044" lon="-0.35438">
        <ele>203.2</ele>
        <time>2026-08-31T10:32:56Z</time>
      </trkpt>
      <trkpt lat="43.45044" lon="-0.35439">
        <ele>203.2</ele>
        <time>2026-08-31T10:32:57Z</time>
      </trkpt>
      <trkpt lat="43.45043" lon="-0.3544">
        <ele>203.2</ele>
        <time>2026-08-31T10:32:57Z</time>
      </trkpt>
      <trkpt lat="43.45043" lon="-0.35441">
        <ele>203.2</ele>
        <time>2026-08-31T10:32:58Z</time>
      </trkpt>
      <trkpt lat="43.45042" lon="-0.35442">
        <ele>203.2</ele>
        <time>2026-08-31T10:32:58Z</time>
      </trkpt>
      <trkpt lat="43.45042" lon="-0.35443">
        <ele>204.2</ele>
        <time>2026-08-31T10:32:59Z</time>
      </trkpt>
      <trkpt lat="43.45042" lon="-0.35443">
        <ele>204.2</ele>
        <time>2026-08-31T10:32:59Z</time>
      </trkpt>
      <trkpt lat="43.45041" lon="-0.35444">
        <ele>204.2</ele>
        <time>2026-08-31T10:33:00Z</time>
      </trkpt>
      <trkpt lat="43.4504" lon="-0.35445">
        <ele>204.2</ele>
        <time>2026-08-31T10:33:01Z</time>
      </trkpt>
      <trkpt lat="43.4504" lon="-0.35446">
        <ele>204.2</ele>
        <time>2026-08-31T10:33:01Z</time>
      </trkpt>
      <trkpt lat="43.4504" lon="-0.35447">
        <ele>204.2</ele>
        <time>2026-08-31T10:33:02Z</time>
      </trkpt>
      <trkpt lat="43.45039" lon="-0.35447">
        <ele>204.2</ele>
        <time>2026-08-31T10:33:02Z</time>
      </trkpt>
      <trkpt lat="43.45039" lon="-0.35448">
        <ele>204.2</ele>
        <time>2026-08-31T10:33:03Z</time>
      </trkpt>
      <trkpt lat="43.45038" lon="-0.35449">
        <ele>204.2</ele>
        <time>2026-08-31T10:33:03Z</time>
      </trkpt>
      <trkpt lat="43.45038" lon="-0.3545">
        <ele>204.2</ele>
        <time>2026-08-31T10:33:04Z</time>
      </trkpt>
      <trkpt lat="43.45037" lon="-0.35451">
        <ele>204.2</ele>
        <time>2026-08-31T10:33:04Z</time>
      </trkpt>
      <trkpt lat="43.45037" lon="-0.35452">
        <ele>204.2</ele>
        <time>2026-08-31T10:33:05Z</time>
      </trkpt>
      <trkpt lat="43.45036" lon="-0.35453">
        <ele>204.2</ele>
        <time>2026-08-31T10:33:06Z</time>
      </trkpt>
      <trkpt lat="43.45036" lon="-0.35454">
        <ele>204.2</ele>
        <time>2026-08-31T10:33:06Z</time>
      </trkpt>
      <trkpt lat="43.45035" lon="-0.35454">
        <ele>205.2</ele>
        <time>2026-08-31T10:33:07Z</time>
      </trkpt>
      <trkpt lat="43.45035" lon="-0.35455">
        <ele>205.2</ele>
        <time>2026-08-31T10:33:07Z</time>
      </trkpt>
      <trkpt lat="43.45035" lon="-0.35456">
        <ele>205.2</ele>
        <time>2026-08-31T10:33:08Z</time>
      </trkpt>
      <trkpt lat="43.45035" lon="-0.35457">
        <ele>205.2</ele>
        <time>2026-08-31T10:33:08Z</time>
      </trkpt>
      <trkpt lat="43.45034" lon="-0.35457">
        <ele>205.2</ele>
        <time>2026-08-31T10:33:09Z</time>
      </trkpt>
      <trkpt lat="43.45034" lon="-0.35458">
        <ele>205.2</ele>
        <time>2026-08-31T10:33:10Z</time>
      </trkpt>
      <trkpt lat="43.45034" lon="-0.35459">
        <ele>205.2</ele>
        <time>2026-08-31T10:33:10Z</time>
      </trkpt>
      <trkpt lat="43.45034" lon="-0.3546">
        <ele>205.2</ele>
        <time>2026-08-31T10:33:11Z</time>
      </trkpt>
      <trkpt lat="43.45033" lon="-0.35461">
        <ele>205.2</ele>
        <time>2026-08-31T10:33:11Z</time>
      </trkpt>
      <trkpt lat="43.45033" lon="-0.35461">
        <ele>205.2</ele>
        <time>2026-08-31T10:33:12Z</time>
      </trkpt>
      <trkpt lat="43.45033" lon="-0.35462">
        <ele>205.2</ele>
        <time>2026-08-31T10:33:12Z</time>
      </trkpt>
      <trkpt lat="43.45033" lon="-0.35463">
        <ele>205.2</ele>
        <time>2026-08-31T10:33:13Z</time>
      </trkpt>
      <trkpt lat="43.45032" lon="-0.35464">
        <ele>205.2</ele>
        <time>2026-08-31T10:33:14Z</time>
      </trkpt>
      <trkpt lat="43.45032" lon="-0.35465">
        <ele>206.2</ele>
        <time>2026-08-31T10:33:14Z</time>
      </trkpt>
      <trkpt lat="43.45032" lon="-0.35466">
        <ele>206.2</ele>
        <time>2026-08-31T10:33:15Z</time>
      </trkpt>
      <trkpt lat="43.45031" lon="-0.35466">
        <ele>205.2</ele>
        <time>2026-08-31T10:33:15Z</time>
      </trkpt>
      <trkpt lat="43.45031" lon="-0.35467">
        <ele>205.2</ele>
        <time>2026-08-31T10:33:16Z</time>
      </trkpt>
      <trkpt lat="43.45031" lon="-0.35468">
        <ele>205.2</ele>
        <time>2026-08-31T10:33:16Z</time>
      </trkpt>
      <trkpt lat="43.4503" lon="-0.35469">
        <ele>206.2</ele>
        <time>2026-08-31T10:33:17Z</time>
      </trkpt>
      <trkpt lat="43.4503" lon="-0.35469">
        <ele>206.2</ele>
        <time>2026-08-31T10:33:18Z</time>
      </trkpt>
      <trkpt lat="43.4503" lon="-0.3547">
        <ele>206.2</ele>
        <time>2026-08-31T10:33:18Z</time>
      </trkpt>
      <trkpt lat="43.4503" lon="-0.35471">
        <ele>206.2</ele>
        <time>2026-08-31T10:33:19Z</time>
      </trkpt>
      <trkpt lat="43.45029" lon="-0.35471">
        <ele>206.2</ele>
        <time>2026-08-31T10:33:19Z</time>
      </trkpt>
      <trkpt lat="43.45029" lon="-0.35472">
        <ele>205.2</ele>
        <time>2026-08-31T10:33:20Z</time>
      </trkpt>
      <trkpt lat="43.45029" lon="-0.35473">
        <ele>205.2</ele>
        <time>2026-08-31T10:33:20Z</time>
      </trkpt>
      <trkpt lat="43.45028" lon="-0.35473">
        <ele>205.2</ele>
        <time>2026-08-31T10:33:21Z</time>
      </trkpt>
      <trkpt lat="43.45028" lon="-0.35474">
        <ele>205.2</ele>
        <time>2026-08-31T10:33:22Z</time>
      </trkpt>
      <trkpt lat="43.45028" lon="-0.35475">
        <ele>205.2</ele>
        <time>2026-08-31T10:33:22Z</time>
      </trkpt>
      <trkpt lat="43.45028" lon="-0.35476">
        <ele>205.2</ele>
        <time>2026-08-31T10:33:23Z</time>
      </trkpt>
      <trkpt lat="43.45027" lon="-0.35477">
        <ele>205.2</ele>
        <time>2026-08-31T10:33:23Z</time>
      </trkpt>
      <trkpt lat="43.45027" lon="-0.35478">
        <ele>205.2</ele>
        <time>2026-08-31T10:33:24Z</time>
      </trkpt>
      <trkpt lat="43.45027" lon="-0.35478">
        <ele>205.2</ele>
        <time>2026-08-31T10:33:24Z</time>
      </trkpt>
      <trkpt lat="43.45027" lon="-0.35479">
        <ele>205.2</ele>
        <time>2026-08-31T10:33:25Z</time>
      </trkpt>
      <trkpt lat="43.45026" lon="-0.3548">
        <ele>205.2</ele>
        <time>2026-08-31T10:33:26Z</time>
      </trkpt>
      <trkpt lat="43.45026" lon="-0.35481">
        <ele>205.2</ele>
        <time>2026-08-31T10:33:26Z</time>
      </trkpt>
      <trkpt lat="43.45026" lon="-0.35482">
        <ele>204.2</ele>
        <time>2026-08-31T10:33:27Z</time>
      </trkpt>
      <trkpt lat="43.45026" lon="-0.35483">
        <ele>204.2</ele>
        <time>2026-08-31T10:33:27Z</time>
      </trkpt>
      <trkpt lat="43.45026" lon="-0.35483">
        <ele>204.2</ele>
        <time>2026-08-31T10:33:28Z</time>
      </trkpt>
      <trkpt lat="43.45026" lon="-0.35484">
        <ele>204.2</ele>
        <time>2026-08-31T10:33:29Z</time>
      </trkpt>
      <trkpt lat="43.45025" lon="-0.35485">
        <ele>204.2</ele>
        <time>2026-08-31T10:33:29Z</time>
      </trkpt>
      <trkpt lat="43.45025" lon="-0.35486">
        <ele>204.2</ele>
        <time>2026-08-31T10:33:30Z</time>
      </trkpt>
      <trkpt lat="43.45024" lon="-0.35486">
        <ele>204.2</ele>
        <time>2026-08-31T10:33:30Z</time>
      </trkpt>
      <trkpt lat="43.45024" lon="-0.35487">
        <ele>204.2</ele>
        <time>2026-08-31T10:33:31Z</time>
      </trkpt>
      <trkpt lat="43.45024" lon="-0.35487">
        <ele>204.2</ele>
        <time>2026-08-31T10:33:32Z</time>
      </trkpt>
      <trkpt lat="43.45023" lon="-0.35488">
        <ele>204.2</ele>
        <time>2026-08-31T10:33:33Z</time>
      </trkpt>
      <trkpt lat="43.45023" lon="-0.35488">
        <ele>204.2</ele>
        <time>2026-08-31T10:33:33Z</time>
      </trkpt>
      <trkpt lat="43.45022" lon="-0.35489">
        <ele>206.2</ele>
        <time>2026-08-31T10:33:35Z</time>
      </trkpt>
      <trkpt lat="43.45022" lon="-0.35489">
        <ele>206.2</ele>
        <time>2026-08-31T10:33:36Z</time>
      </trkpt>
      <trkpt lat="43.45022" lon="-0.3549">
        <ele>205.2</ele>
        <time>2026-08-31T10:33:37Z</time>
      </trkpt>
      <trkpt lat="43.45022" lon="-0.35489">
        <ele>206.2</ele>
        <time>2026-08-31T10:33:38Z</time>
      </trkpt>
      <trkpt lat="43.45022" lon="-0.35489">
        <ele>206.2</ele>
        <time>2026-08-31T10:33:39Z</time>
      </trkpt>
      <trkpt lat="43.45022" lon="-0.35488">
        <ele>206.2</ele>
        <time>2026-08-31T10:33:40Z</time>
      </trkpt>
      <trkpt lat="43.45023" lon="-0.35487">
        <ele>206.2</ele>
        <time>2026-08-31T10:33:41Z</time>
      </trkpt>
      <trkpt lat="43.45023" lon="-0.35487">
        <ele>206.2</ele>
        <time>2026-08-31T10:33:42Z</time>
      </trkpt>
      <trkpt lat="43.45023" lon="-0.35487">
        <ele>206.2</ele>
        <time>2026-08-31T10:33:43Z</time>
      </trkpt>
      <trkpt lat="43.45023" lon="-0.35487">
        <ele>206.2</ele>
        <time>2026-08-31T10:33:44Z</time>
      </trkpt>
      <trkpt lat="43.45023" lon="-0.35487">
        <ele>206.2</ele>
        <time>2026-08-31T10:33:45Z</time>
      </trkpt>
      <trkpt lat="43.45023" lon="-0.35487">
        <ele>206.2</ele>
        <time>2026-08-31T10:33:46Z</time>
      </trkpt>
      <trkpt lat="43.45023" lon="-0.35487">
        <ele>206.2</ele>
        <time>2026-08-31T10:33:47Z</time>
      </trkpt>
      <trkpt lat="43.45023" lon="-0.35487">
        <ele>209.2</ele>
        <time>2026-08-31T10:33:48Z</time>
      </trkpt>
      <trkpt lat="43.45023" lon="-0.35488">
        <ele>210.2</ele>
        <time>2026-08-31T10:33:49Z</time>
      </trkpt>
      <trkpt lat="43.45022" lon="-0.35489">
        <ele>210.2</ele>
        <time>2026-08-31T10:33:50Z</time>
      </trkpt>
      <trkpt lat="43.45022" lon="-0.3549">
        <ele>210.2</ele>
        <time>2026-08-31T10:33:51Z</time>
      </trkpt>
      <trkpt lat="43.45022" lon="-0.35491">
        <ele>211.2</ele>
        <time>2026-08-31T10:33:52Z</time>
      </trkpt>
      <trkpt lat="43.45022" lon="-0.35491">
        <ele>211.2</ele>
        <time>2026-08-31T10:33:53Z</time>
      </trkpt>
      <trkpt lat="43.45022" lon="-0.35491">
        <ele>212.2</ele>
        <time>2026-08-31T10:33:53Z</time>
      </trkpt>
      <trkpt lat="43.45021" lon="-0.35492">
        <ele>213.2</ele>
        <time>2026-08-31T10:33:54Z</time>
      </trkpt>
      <trkpt lat="43.45021" lon="-0.35492">
        <ele>213.2</ele>
        <time>2026-08-31T10:33:55Z</time>
      </trkpt>
      <trkpt lat="43.45021" lon="-0.35493">
        <ele>214.2</ele>
        <time>2026-08-31T10:33:55Z</time>
      </trkpt>
      <trkpt lat="43.4502" lon="-0.35492">
        <ele>214.2</ele>
        <time>2026-08-31T10:33:56Z</time>
      </trkpt>
      <trkpt lat="43.45019" lon="-0.35492">
        <ele>215.2</ele>
        <time>2026-08-31T10:33:57Z</time>
      </trkpt>
      <trkpt lat="43.45018" lon="-0.35492">
        <ele>215.2</ele>
        <time>2026-08-31T10:33:57Z</time>
      </trkpt>
      <trkpt lat="43.45017" lon="-0.35493">
        <ele>216.2</ele>
        <time>2026-08-31T10:33:58Z</time>
      </trkpt>
      <trkpt lat="43.45017" lon="-0.35493">
        <ele>216.2</ele>
        <time>2026-08-31T10:33:58Z</time>
      </trkpt>
      <trkpt lat="43.45016" lon="-0.35493">
        <ele>216.2</ele>
        <time>2026-08-31T10:33:59Z</time>
      </trkpt>
      <trkpt lat="43.45015" lon="-0.35493">
        <ele>216.2</ele>
        <time>2026-08-31T10:34:00Z</time>
      </trkpt>
      <trkpt lat="43.45014" lon="-0.35493">
        <ele>216.2</ele>
        <time>2026-08-31T10:34:00Z</time>
      </trkpt>
      <trkpt lat="43.45013" lon="-0.35493">
        <ele>216.2</ele>
        <time>2026-08-31T10:34:01Z</time>
      </trkpt>
      <trkpt lat="43.45013" lon="-0.35492">
        <ele>216.2</ele>
        <time>2026-08-31T10:34:02Z</time>
      </trkpt>
      <trkpt lat="43.45012" lon="-0.35492">
        <ele>216.2</ele>
        <time>2026-08-31T10:34:02Z</time>
      </trkpt>
      <trkpt lat="43.45011" lon="-0.35492">
        <ele>216.2</ele>
        <time>2026-08-31T10:34:03Z</time>
      </trkpt>
      <trkpt lat="43.45011" lon="-0.35491">
        <ele>216.2</ele>
        <time>2026-08-31T10:34:03Z</time>
      </trkpt>
      <trkpt lat="43.45011" lon="-0.35491">
        <ele>216.2</ele>
        <time>2026-08-31T10:34:04Z</time>
      </trkpt>
      <trkpt lat="43.4501" lon="-0.35491">
        <ele>216.2</ele>
        <time>2026-08-31T10:34:04Z</time>
      </trkpt>
      <trkpt lat="43.45009" lon="-0.35491">
        <ele>215.2</ele>
        <time>2026-08-31T10:34:05Z</time>
      </trkpt>
      <trkpt lat="43.45009" lon="-0.35491">
        <ele>216.2</ele>
        <time>2026-08-31T10:34:06Z</time>
      </trkpt>
      <trkpt lat="43.45008" lon="-0.35491">
        <ele>216.2</ele>
        <time>2026-08-31T10:34:06Z</time>
      </trkpt>
      <trkpt lat="43.45008" lon="-0.35492">
        <ele>215.2</ele>
        <time>2026-08-31T10:34:07Z</time>
      </trkpt>
      <trkpt lat="43.45007" lon="-0.35492">
        <ele>215.2</ele>
        <time>2026-08-31T10:34:08Z</time>
      </trkpt>
      <trkpt lat="43.45006" lon="-0.35492">
        <ele>215.2</ele>
        <time>2026-08-31T10:34:08Z</time>
      </trkpt>
      <trkpt lat="43.45006" lon="-0.35492">
        <ele>215.2</ele>
        <time>2026-08-31T10:34:09Z</time>
      </trkpt>
      <trkpt lat="43.45005" lon="-0.35492">
        <ele>215.2</ele>
        <time>2026-08-31T10:34:09Z</time>
      </trkpt>
      <trkpt lat="43.45004" lon="-0.35492">
        <ele>215.2</ele>
        <time>2026-08-31T10:34:10Z</time>
      </trkpt>
      <trkpt lat="43.45004" lon="-0.35492">
        <ele>215.2</ele>
        <time>2026-08-31T10:34:10Z</time>
      </trkpt>
      <trkpt lat="43.45003" lon="-0.35491">
        <ele>215.2</ele>
        <time>2026-08-31T10:34:11Z</time>
      </trkpt>
      <trkpt lat="43.45002" lon="-0.35491">
        <ele>215.2</ele>
        <time>2026-08-31T10:34:11Z</time>
      </trkpt>
      <trkpt lat="43.45001" lon="-0.35491">
        <ele>215.2</ele>
        <time>2026-08-31T10:34:12Z</time>
      </trkpt>
      <trkpt lat="43.45001" lon="-0.35491">
        <ele>215.2</ele>
        <time>2026-08-31T10:34:12Z</time>
      </trkpt>
      <trkpt lat="43.45" lon="-0.3549">
        <ele>216.2</ele>
        <time>2026-08-31T10:34:13Z</time>
      </trkpt>
      <trkpt lat="43.44999" lon="-0.3549">
        <ele>216.2</ele>
        <time>2026-08-31T10:34:14Z</time>
      </trkpt>
      <trkpt lat="43.44999" lon="-0.3549">
        <ele>216.2</ele>
        <time>2026-08-31T10:34:14Z</time>
      </trkpt>
      <trkpt lat="43.44998" lon="-0.3549">
        <ele>216.2</ele>
        <time>2026-08-31T10:34:15Z</time>
      </trkpt>
      <trkpt lat="43.44997" lon="-0.35489">
        <ele>216.2</ele>
        <time>2026-08-31T10:34:15Z</time>
      </trkpt>
      <trkpt lat="43.44997" lon="-0.35489">
        <ele>216.2</ele>
        <time>2026-08-31T10:34:16Z</time>
      </trkpt>
      <trkpt lat="43.44996" lon="-0.35489">
        <ele>216.2</ele>
        <time>2026-08-31T10:34:16Z</time>
      </trkpt>
      <trkpt lat="43.44996" lon="-0.35489">
        <ele>215.2</ele>
        <time>2026-08-31T10:34:17Z</time>
      </trkpt>
      <trkpt lat="43.44995" lon="-0.35488">
        <ele>215.2</ele>
        <time>2026-08-31T10:34:17Z</time>
      </trkpt>
      <trkpt lat="43.44995" lon="-0.35488">
        <ele>215.2</ele>
        <time>2026-08-31T10:34:18Z</time>
      </trkpt>
      <trkpt lat="43.44994" lon="-0.35488">
        <ele>215.2</ele>
        <time>2026-08-31T10:34:18Z</time>
      </trkpt>
      <trkpt lat="43.44993" lon="-0.35488">
        <ele>215.2</ele>
        <time>2026-08-31T10:34:19Z</time>
      </trkpt>
      <trkpt lat="43.44993" lon="-0.35487">
        <ele>215.2</ele>
        <time>2026-08-31T10:34:20Z</time>
      </trkpt>
      <trkpt lat="43.44992" lon="-0.35486">
        <ele>215.2</ele>
        <time>2026-08-31T10:34:20Z</time>
      </trkpt>
      <trkpt lat="43.44992" lon="-0.35486">
        <ele>215.2</ele>
        <time>2026-08-31T10:34:21Z</time>
      </trkpt>
      <trkpt lat="43.44992" lon="-0.35485">
        <ele>214.2</ele>
        <time>2026-08-31T10:34:21Z</time>
      </trkpt>
      <trkpt lat="43.44991" lon="-0.35484">
        <ele>214.2</ele>
        <time>2026-08-31T10:34:22Z</time>
      </trkpt>
      <trkpt lat="43.44991" lon="-0.35484">
        <ele>214.2</ele>
        <time>2026-08-31T10:34:22Z</time>
      </trkpt>
      <trkpt lat="43.4499" lon="-0.35482">
        <ele>214.2</ele>
        <time>2026-08-31T10:34:23Z</time>
      </trkpt>
      <trkpt lat="43.4499" lon="-0.35482">
        <ele>214.2</ele>
        <time>2026-08-31T10:34:23Z</time>
      </trkpt>
      <trkpt lat="43.44989" lon="-0.35481">
        <ele>213.2</ele>
        <time>2026-08-31T10:34:24Z</time>
      </trkpt>
      <trkpt lat="43.44989" lon="-0.35481">
        <ele>213.2</ele>
        <time>2026-08-31T10:34:24Z</time>
      </trkpt>
      <trkpt lat="43.44989" lon="-0.3548">
        <ele>213.2</ele>
        <time>2026-08-31T10:34:25Z</time>
      </trkpt>
      <trkpt lat="43.44988" lon="-0.35479">
        <ele>213.2</ele>
        <time>2026-08-31T10:34:26Z</time>
      </trkpt>
      <trkpt lat="43.44988" lon="-0.35479">
        <ele>213.2</ele>
        <time>2026-08-31T10:34:26Z</time>
      </trkpt>
      <trkpt lat="43.44987" lon="-0.35478">
        <ele>213.2</ele>
        <time>2026-08-31T10:34:27Z</time>
      </trkpt>
      <trkpt lat="43.44987" lon="-0.35478">
        <ele>212.2</ele>
        <time>2026-08-31T10:34:27Z</time>
      </trkpt>
      <trkpt lat="43.44986" lon="-0.35477">
        <ele>213.2</ele>
        <time>2026-08-31T10:34:28Z</time>
      </trkpt>
      <trkpt lat="43.44986" lon="-0.35477">
        <ele>213.2</ele>
        <time>2026-08-31T10:34:28Z</time>
      </trkpt>
      <trkpt lat="43.44986" lon="-0.35476">
        <ele>212.2</ele>
        <time>2026-08-31T10:34:29Z</time>
      </trkpt>
      <trkpt lat="43.44985" lon="-0.35476">
        <ele>212.2</ele>
        <time>2026-08-31T10:34:29Z</time>
      </trkpt>
      <trkpt lat="43.44985" lon="-0.35475">
        <ele>213.2</ele>
        <time>2026-08-31T10:34:30Z</time>
      </trkpt>
      <trkpt lat="43.44984" lon="-0.35475">
        <ele>213.2</ele>
        <time>2026-08-31T10:34:30Z</time>
      </trkpt>
      <trkpt lat="43.44984" lon="-0.35474">
        <ele>212.2</ele>
        <time>2026-08-31T10:34:31Z</time>
      </trkpt>
      <trkpt lat="43.44983" lon="-0.35474">
        <ele>212.2</ele>
        <time>2026-08-31T10:34:32Z</time>
      </trkpt>
      <trkpt lat="43.44983" lon="-0.35473">
        <ele>212.2</ele>
        <time>2026-08-31T10:34:32Z</time>
      </trkpt>
      <trkpt lat="43.44982" lon="-0.35473">
        <ele>213.2</ele>
        <time>2026-08-31T10:34:33Z</time>
      </trkpt>
      <trkpt lat="43.44982" lon="-0.35472">
        <ele>213.2</ele>
        <time>2026-08-31T10:34:33Z</time>
      </trkpt>
      <trkpt lat="43.44981" lon="-0.35471">
        <ele>213.2</ele>
        <time>2026-08-31T10:34:34Z</time>
      </trkpt>
      <trkpt lat="43.44981" lon="-0.35471">
        <ele>213.2</ele>
        <time>2026-08-31T10:34:34Z</time>
      </trkpt>
      <trkpt lat="43.4498" lon="-0.3547">
        <ele>213.2</ele>
        <time>2026-08-31T10:34:35Z</time>
      </trkpt>
      <trkpt lat="43.44979" lon="-0.35469">
        <ele>213.2</ele>
        <time>2026-08-31T10:34:35Z</time>
      </trkpt>
      <trkpt lat="43.44979" lon="-0.35468">
        <ele>213.2</ele>
        <time>2026-08-31T10:34:36Z</time>
      </trkpt>
      <trkpt lat="43.44978" lon="-0.35468">
        <ele>213.2</ele>
        <time>2026-08-31T10:34:37Z</time>
      </trkpt>
      <trkpt lat="43.44978" lon="-0.35467">
        <ele>213.2</ele>
        <time>2026-08-31T10:34:37Z</time>
      </trkpt>
      <trkpt lat="43.44977" lon="-0.35466">
        <ele>213.2</ele>
        <time>2026-08-31T10:34:38Z</time>
      </trkpt>
      <trkpt lat="43.44977" lon="-0.35465">
        <ele>213.2</ele>
        <time>2026-08-31T10:34:38Z</time>
      </trkpt>
      <trkpt lat="43.44977" lon="-0.35464">
        <ele>213.2</ele>
        <time>2026-08-31T10:34:39Z</time>
      </trkpt>
      <trkpt lat="43.44976" lon="-0.35463">
        <ele>213.2</ele>
        <time>2026-08-31T10:34:39Z</time>
      </trkpt>
      <trkpt lat="43.44976" lon="-0.35462">
        <ele>213.2</ele>
        <time>2026-08-31T10:34:40Z</time>
      </trkpt>
      <trkpt lat="43.44976" lon="-0.35461">
        <ele>213.2</ele>
        <time>2026-08-31T10:34:40Z</time>
      </trkpt>
      <trkpt lat="43.44975" lon="-0.3546">
        <ele>213.2</ele>
        <time>2026-08-31T10:34:41Z</time>
      </trkpt>
      <trkpt lat="43.44975" lon="-0.35459">
        <ele>213.2</ele>
        <time>2026-08-31T10:34:42Z</time>
      </trkpt>
      <trkpt lat="43.44974" lon="-0.35458">
        <ele>214.2</ele>
        <time>2026-08-31T10:34:42Z</time>
      </trkpt>
      <trkpt lat="43.44974" lon="-0.35457">
        <ele>214.2</ele>
        <time>2026-08-31T10:34:43Z</time>
      </trkpt>
      <trkpt lat="43.44974" lon="-0.35457">
        <ele>214.2</ele>
        <time>2026-08-31T10:34:43Z</time>
      </trkpt>
      <trkpt lat="43.44973" lon="-0.35456">
        <ele>214.2</ele>
        <time>2026-08-31T10:34:44Z</time>
      </trkpt>
      <trkpt lat="43.44972" lon="-0.35455">
        <ele>214.2</ele>
        <time>2026-08-31T10:34:44Z</time>
      </trkpt>
      <trkpt lat="43.44972" lon="-0.35454">
        <ele>214.2</ele>
        <time>2026-08-31T10:34:45Z</time>
      </trkpt>
      <trkpt lat="43.44971" lon="-0.35453">
        <ele>214.2</ele>
        <time>2026-08-31T10:34:45Z</time>
      </trkpt>
      <trkpt lat="43.44971" lon="-0.35452">
        <ele>213.2</ele>
        <time>2026-08-31T10:34:46Z</time>
      </trkpt>
      <trkpt lat="43.4497" lon="-0.35451">
        <ele>213.2</ele>
        <time>2026-08-31T10:34:46Z</time>
      </trkpt>
      <trkpt lat="43.4497" lon="-0.35451">
        <ele>213.2</ele>
        <time>2026-08-31T10:34:47Z</time>
      </trkpt>
      <trkpt lat="43.44969" lon="-0.3545">
        <ele>213.2</ele>
        <time>2026-08-31T10:34:48Z</time>
      </trkpt>
      <trkpt lat="43.44969" lon="-0.35449">
        <ele>213.2</ele>
        <time>2026-08-31T10:34:48Z</time>
      </trkpt>
      <trkpt lat="43.44969" lon="-0.35448">
        <ele>213.2</ele>
        <time>2026-08-31T10:34:49Z</time>
      </trkpt>
      <trkpt lat="43.44968" lon="-0.35447">
        <ele>213.2</ele>
        <time>2026-08-31T10:34:49Z</time>
      </trkpt>
      <trkpt lat="43.44968" lon="-0.35446">
        <ele>213.2</ele>
        <time>2026-08-31T10:34:50Z</time>
      </trkpt>
      <trkpt lat="43.44967" lon="-0.35446">
        <ele>213.2</ele>
        <time>2026-08-31T10:34:50Z</time>
      </trkpt>
      <trkpt lat="43.44967" lon="-0.35445">
        <ele>213.2</ele>
        <time>2026-08-31T10:34:51Z</time>
      </trkpt>
      <trkpt lat="43.44966" lon="-0.35444">
        <ele>213.2</ele>
        <time>2026-08-31T10:34:51Z</time>
      </trkpt>
      <trkpt lat="43.44966" lon="-0.35444">
        <ele>213.2</ele>
        <time>2026-08-31T10:34:52Z</time>
      </trkpt>
      <trkpt lat="43.44965" lon="-0.35443">
        <ele>213.2</ele>
        <time>2026-08-31T10:34:52Z</time>
      </trkpt>
      <trkpt lat="43.44965" lon="-0.35442">
        <ele>213.2</ele>
        <time>2026-08-31T10:34:53Z</time>
      </trkpt>
      <trkpt lat="43.44965" lon="-0.35441">
        <ele>213.2</ele>
        <time>2026-08-31T10:34:54Z</time>
      </trkpt>
      <trkpt lat="43.44964" lon="-0.35441">
        <ele>213.2</ele>
        <time>2026-08-31T10:34:54Z</time>
      </trkpt>
      <trkpt lat="43.44964" lon="-0.3544">
        <ele>213.2</ele>
        <time>2026-08-31T10:34:55Z</time>
      </trkpt>
      <trkpt lat="43.44963" lon="-0.3544">
        <ele>213.2</ele>
        <time>2026-08-31T10:34:55Z</time>
      </trkpt>
      <trkpt lat="43.44963" lon="-0.35439">
        <ele>213.2</ele>
        <time>2026-08-31T10:34:56Z</time>
      </trkpt>
      <trkpt lat="43.44962" lon="-0.35438">
        <ele>213.2</ele>
        <time>2026-08-31T10:34:56Z</time>
      </trkpt>
      <trkpt lat="43.44962" lon="-0.35438">
        <ele>213.2</ele>
        <time>2026-08-31T10:34:57Z</time>
      </trkpt>
      <trkpt lat="43.44961" lon="-0.35437">
        <ele>213.2</ele>
        <time>2026-08-31T10:34:57Z</time>
      </trkpt>
      <trkpt lat="43.4496" lon="-0.35436">
        <ele>213.2</ele>
        <time>2026-08-31T10:34:58Z</time>
      </trkpt>
      <trkpt lat="43.4496" lon="-0.35436">
        <ele>213.2</ele>
        <time>2026-08-31T10:34:58Z</time>
      </trkpt>
      <trkpt lat="43.44959" lon="-0.35435">
        <ele>213.2</ele>
        <time>2026-08-31T10:34:59Z</time>
      </trkpt>
      <trkpt lat="43.44959" lon="-0.35435">
        <ele>213.2</ele>
        <time>2026-08-31T10:35:00Z</time>
      </trkpt>
      <trkpt lat="43.44958" lon="-0.35434">
        <ele>213.2</ele>
        <time>2026-08-31T10:35:00Z</time>
      </trkpt>
      <trkpt lat="43.44957" lon="-0.35433">
        <ele>213.2</ele>
        <time>2026-08-31T10:35:01Z</time>
      </trkpt>
      <trkpt lat="43.44957" lon="-0.35433">
        <ele>213.2</ele>
        <time>2026-08-31T10:35:01Z</time>
      </trkpt>
      <trkpt lat="43.44956" lon="-0.35432">
        <ele>213.2</ele>
        <time>2026-08-31T10:35:02Z</time>
      </trkpt>
      <trkpt lat="43.44956" lon="-0.35432">
        <ele>213.2</ele>
        <time>2026-08-31T10:35:02Z</time>
      </trkpt>
      <trkpt lat="43.44955" lon="-0.35431">
        <ele>213.2</ele>
        <time>2026-08-31T10:35:03Z</time>
      </trkpt>
      <trkpt lat="43.44954" lon="-0.3543">
        <ele>213.2</ele>
        <time>2026-08-31T10:35:03Z</time>
      </trkpt>
      <trkpt lat="43.44954" lon="-0.3543">
        <ele>213.2</ele>
        <time>2026-08-31T10:35:04Z</time>
      </trkpt>
      <trkpt lat="43.44953" lon="-0.35429">
        <ele>213.2</ele>
        <time>2026-08-31T10:35:04Z</time>
      </trkpt>
      <trkpt lat="43.44953" lon="-0.35429">
        <ele>213.2</ele>
        <time>2026-08-31T10:35:05Z</time>
      </trkpt>
      <trkpt lat="43.44952" lon="-0.35428">
        <ele>213.2</ele>
        <time>2026-08-31T10:35:06Z</time>
      </trkpt>
      <trkpt lat="43.44952" lon="-0.35427">
        <ele>214.2</ele>
        <time>2026-08-31T10:35:06Z</time>
      </trkpt>
      <trkpt lat="43.44951" lon="-0.35427">
        <ele>214.2</ele>
        <time>2026-08-31T10:35:07Z</time>
      </trkpt>
      <trkpt lat="43.4495" lon="-0.35426">
        <ele>214.2</ele>
        <time>2026-08-31T10:35:07Z</time>
      </trkpt>
      <trkpt lat="43.4495" lon="-0.35426">
        <ele>213.2</ele>
        <time>2026-08-31T10:35:08Z</time>
      </trkpt>
      <trkpt lat="43.44949" lon="-0.35425">
        <ele>213.2</ele>
        <time>2026-08-31T10:35:08Z</time>
      </trkpt>
      <trkpt lat="43.44949" lon="-0.35425">
        <ele>214.2</ele>
        <time>2026-08-31T10:35:09Z</time>
      </trkpt>
      <trkpt lat="43.44948" lon="-0.35424">
        <ele>214.2</ele>
        <time>2026-08-31T10:35:09Z</time>
      </trkpt>
      <trkpt lat="43.44948" lon="-0.35424">
        <ele>214.2</ele>
        <time>2026-08-31T10:35:10Z</time>
      </trkpt>
      <trkpt lat="43.44947" lon="-0.35423">
        <ele>214.2</ele>
        <time>2026-08-31T10:35:10Z</time>
      </trkpt>
      <trkpt lat="43.44946" lon="-0.35422">
        <ele>214.2</ele>
        <time>2026-08-31T10:35:11Z</time>
      </trkpt>
      <trkpt lat="43.44946" lon="-0.35422">
        <ele>214.2</ele>
        <time>2026-08-31T10:35:12Z</time>
      </trkpt>
      <trkpt lat="43.44945" lon="-0.35421">
        <ele>214.2</ele>
        <time>2026-08-31T10:35:12Z</time>
      </trkpt>
      <trkpt lat="43.44945" lon="-0.35421">
        <ele>214.2</ele>
        <time>2026-08-31T10:35:13Z</time>
      </trkpt>
      <trkpt lat="43.44944" lon="-0.3542">
        <ele>214.2</ele>
        <time>2026-08-31T10:35:13Z</time>
      </trkpt>
      <trkpt lat="43.44944" lon="-0.3542">
        <ele>213.2</ele>
        <time>2026-08-31T10:35:14Z</time>
      </trkpt>
      <trkpt lat="43.44943" lon="-0.35419">
        <ele>213.2</ele>
        <time>2026-08-31T10:35:14Z</time>
      </trkpt>
      <trkpt lat="43.44943" lon="-0.35419">
        <ele>213.2</ele>
        <time>2026-08-31T10:35:15Z</time>
      </trkpt>
      <trkpt lat="43.44942" lon="-0.35418">
        <ele>213.2</ele>
        <time>2026-08-31T10:35:15Z</time>
      </trkpt>
      <trkpt lat="43.44942" lon="-0.35418">
        <ele>213.2</ele>
        <time>2026-08-31T10:35:16Z</time>
      </trkpt>
      <trkpt lat="43.44941" lon="-0.35417">
        <ele>213.2</ele>
        <time>2026-08-31T10:35:16Z</time>
      </trkpt>
      <trkpt lat="43.44941" lon="-0.35417">
        <ele>213.2</ele>
        <time>2026-08-31T10:35:17Z</time>
      </trkpt>
      <trkpt lat="43.4494" lon="-0.35416">
        <ele>213.2</ele>
        <time>2026-08-31T10:35:18Z</time>
      </trkpt>
      <trkpt lat="43.44939" lon="-0.35415">
        <ele>213.2</ele>
        <time>2026-08-31T10:35:18Z</time>
      </trkpt>
      <trkpt lat="43.44939" lon="-0.35415">
        <ele>213.2</ele>
        <time>2026-08-31T10:35:19Z</time>
      </trkpt>
      <trkpt lat="43.44938" lon="-0.35414">
        <ele>213.2</ele>
        <time>2026-08-31T10:35:19Z</time>
      </trkpt>
      <trkpt lat="43.44938" lon="-0.35414">
        <ele>213.2</ele>
        <time>2026-08-31T10:35:20Z</time>
      </trkpt>
      <trkpt lat="43.44937" lon="-0.35413">
        <ele>213.2</ele>
        <time>2026-08-31T10:35:20Z</time>
      </trkpt>
      <trkpt lat="43.44936" lon="-0.35412">
        <ele>214.2</ele>
        <time>2026-08-31T10:35:21Z</time>
      </trkpt>
      <trkpt lat="43.44936" lon="-0.35412">
        <ele>214.2</ele>
        <time>2026-08-31T10:35:21Z</time>
      </trkpt>
      <trkpt lat="43.44935" lon="-0.35411">
        <ele>214.2</ele>
        <time>2026-08-31T10:35:22Z</time>
      </trkpt>
      <trkpt lat="43.44935" lon="-0.3541">
        <ele>214.2</ele>
        <time>2026-08-31T10:35:22Z</time>
      </trkpt>
      <trkpt lat="43.44934" lon="-0.3541">
        <ele>214.2</ele>
        <time>2026-08-31T10:35:23Z</time>
      </trkpt>
      <trkpt lat="43.44933" lon="-0.35409">
        <ele>214.2</ele>
        <time>2026-08-31T10:35:24Z</time>
      </trkpt>
      <trkpt lat="43.44933" lon="-0.35409">
        <ele>214.2</ele>
        <time>2026-08-31T10:35:24Z</time>
      </trkpt>
      <trkpt lat="43.44932" lon="-0.35408">
        <ele>214.2</ele>
        <time>2026-08-31T10:35:25Z</time>
      </trkpt>
      <trkpt lat="43.44932" lon="-0.35407">
        <ele>214.2</ele>
        <time>2026-08-31T10:35:25Z</time>
      </trkpt>
      <trkpt lat="43.44931" lon="-0.35407">
        <ele>214.2</ele>
        <time>2026-08-31T10:35:26Z</time>
      </trkpt>
      <trkpt lat="43.44931" lon="-0.35406">
        <ele>214.2</ele>
        <time>2026-08-31T10:35:26Z</time>
      </trkpt>
      <trkpt lat="43.4493" lon="-0.35405">
        <ele>214.2</ele>
        <time>2026-08-31T10:35:27Z</time>
      </trkpt>
      <trkpt lat="43.4493" lon="-0.35405">
        <ele>214.2</ele>
        <time>2026-08-31T10:35:27Z</time>
      </trkpt>
      <trkpt lat="43.44929" lon="-0.35404">
        <ele>215.2</ele>
        <time>2026-08-31T10:35:28Z</time>
      </trkpt>
      <trkpt lat="43.44929" lon="-0.35404">
        <ele>215.2</ele>
        <time>2026-08-31T10:35:28Z</time>
      </trkpt>
      <trkpt lat="43.44928" lon="-0.35403">
        <ele>214.2</ele>
        <time>2026-08-31T10:35:29Z</time>
      </trkpt>
      <trkpt lat="43.44928" lon="-0.35402">
        <ele>214.2</ele>
        <time>2026-08-31T10:35:29Z</time>
      </trkpt>
      <trkpt lat="43.44928" lon="-0.35402">
        <ele>215.2</ele>
        <time>2026-08-31T10:35:30Z</time>
      </trkpt>
      <trkpt lat="43.44927" lon="-0.35401">
        <ele>215.2</ele>
        <time>2026-08-31T10:35:31Z</time>
      </trkpt>
      <trkpt lat="43.44927" lon="-0.354">
        <ele>215.2</ele>
        <time>2026-08-31T10:35:31Z</time>
      </trkpt>
      <trkpt lat="43.44926" lon="-0.354">
        <ele>215.2</ele>
        <time>2026-08-31T10:35:32Z</time>
      </trkpt>
      <trkpt lat="43.44926" lon="-0.35399">
        <ele>215.2</ele>
        <time>2026-08-31T10:35:32Z</time>
      </trkpt>
      <trkpt lat="43.44925" lon="-0.35398">
        <ele>214.2</ele>
        <time>2026-08-31T10:35:33Z</time>
      </trkpt>
      <trkpt lat="43.44925" lon="-0.35398">
        <ele>214.2</ele>
        <time>2026-08-31T10:35:33Z</time>
      </trkpt>
      <trkpt lat="43.44924" lon="-0.35397">
        <ele>215.2</ele>
        <time>2026-08-31T10:35:34Z</time>
      </trkpt>
      <trkpt lat="43.44924" lon="-0.35396">
        <ele>215.2</ele>
        <time>2026-08-31T10:35:34Z</time>
      </trkpt>
      <trkpt lat="43.44923" lon="-0.35396">
        <ele>215.2</ele>
        <time>2026-08-31T10:35:35Z</time>
      </trkpt>
      <trkpt lat="43.44922" lon="-0.35395">
        <ele>215.2</ele>
        <time>2026-08-31T10:35:35Z</time>
      </trkpt>
      <trkpt lat="43.44922" lon="-0.35394">
        <ele>214.2</ele>
        <time>2026-08-31T10:35:36Z</time>
      </trkpt>
      <trkpt lat="43.44921" lon="-0.35394">
        <ele>214.2</ele>
        <time>2026-08-31T10:35:37Z</time>
      </trkpt>
      <trkpt lat="43.44921" lon="-0.35393">
        <ele>214.2</ele>
        <time>2026-08-31T10:35:37Z</time>
      </trkpt>
      <trkpt lat="43.4492" lon="-0.35392">
        <ele>214.2</ele>
        <time>2026-08-31T10:35:38Z</time>
      </trkpt>
      <trkpt lat="43.4492" lon="-0.35391">
        <ele>214.2</ele>
        <time>2026-08-31T10:35:38Z</time>
      </trkpt>
      <trkpt lat="43.44919" lon="-0.35391">
        <ele>215.2</ele>
        <time>2026-08-31T10:35:39Z</time>
      </trkpt>
      <trkpt lat="43.44919" lon="-0.3539">
        <ele>215.2</ele>
        <time>2026-08-31T10:35:39Z</time>
      </trkpt>
      <trkpt lat="43.44918" lon="-0.35389">
        <ele>215.2</ele>
        <time>2026-08-31T10:35:40Z</time>
      </trkpt>
      <trkpt lat="43.44918" lon="-0.35389">
        <ele>215.2</ele>
        <time>2026-08-31T10:35:40Z</time>
      </trkpt>
      <trkpt lat="43.44917" lon="-0.35388">
        <ele>215.2</ele>
        <time>2026-08-31T10:35:41Z</time>
      </trkpt>
      <trkpt lat="43.44916" lon="-0.35387">
        <ele>215.2</ele>
        <time>2026-08-31T10:35:42Z</time>
      </trkpt>
      <trkpt lat="43.44916" lon="-0.35387">
        <ele>215.2</ele>
        <time>2026-08-31T10:35:42Z</time>
      </trkpt>
      <trkpt lat="43.44915" lon="-0.35386">
        <ele>215.2</ele>
        <time>2026-08-31T10:35:43Z</time>
      </trkpt>
      <trkpt lat="43.44915" lon="-0.35386">
        <ele>215.2</ele>
        <time>2026-08-31T10:35:43Z</time>
      </trkpt>
      <trkpt lat="43.44914" lon="-0.35385">
        <ele>216.2</ele>
        <time>2026-08-31T10:35:44Z</time>
      </trkpt>
      <trkpt lat="43.44914" lon="-0.35385">
        <ele>216.2</ele>
        <time>2026-08-31T10:35:44Z</time>
      </trkpt>
      <trkpt lat="43.44913" lon="-0.35384">
        <ele>216.2</ele>
        <time>2026-08-31T10:35:45Z</time>
      </trkpt>
      <trkpt lat="43.44913" lon="-0.35383">
        <ele>216.2</ele>
        <time>2026-08-31T10:35:45Z</time>
      </trkpt>
      <trkpt lat="43.44912" lon="-0.35383">
        <ele>216.2</ele>
        <time>2026-08-31T10:35:46Z</time>
      </trkpt>
      <trkpt lat="43.44911" lon="-0.35382">
        <ele>216.2</ele>
        <time>2026-08-31T10:35:47Z</time>
      </trkpt>
      <trkpt lat="43.44911" lon="-0.35382">
        <ele>216.2</ele>
        <time>2026-08-31T10:35:47Z</time>
      </trkpt>
      <trkpt lat="43.4491" lon="-0.35381">
        <ele>216.2</ele>
        <time>2026-08-31T10:35:48Z</time>
      </trkpt>
      <trkpt lat="43.4491" lon="-0.35381">
        <ele>216.2</ele>
        <time>2026-08-31T10:35:48Z</time>
      </trkpt>
      <trkpt lat="43.44909" lon="-0.3538">
        <ele>217.2</ele>
        <time>2026-08-31T10:35:49Z</time>
      </trkpt>
      <trkpt lat="43.44909" lon="-0.3538">
        <ele>217.2</ele>
        <time>2026-08-31T10:35:49Z</time>
      </trkpt>
      <trkpt lat="43.44908" lon="-0.35379">
        <ele>216.2</ele>
        <time>2026-08-31T10:35:50Z</time>
      </trkpt>
      <trkpt lat="43.44908" lon="-0.35379">
        <ele>216.2</ele>
        <time>2026-08-31T10:35:50Z</time>
      </trkpt>
      <trkpt lat="43.44907" lon="-0.35378">
        <ele>217.2</ele>
        <time>2026-08-31T10:35:51Z</time>
      </trkpt>
      <trkpt lat="43.44906" lon="-0.35377">
        <ele>217.2</ele>
        <time>2026-08-31T10:35:51Z</time>
      </trkpt>
      <trkpt lat="43.44906" lon="-0.35377">
        <ele>217.2</ele>
        <time>2026-08-31T10:35:52Z</time>
      </trkpt>
      <trkpt lat="43.44905" lon="-0.35377">
        <ele>217.2</ele>
        <time>2026-08-31T10:35:53Z</time>
      </trkpt>
      <trkpt lat="43.44905" lon="-0.35376">
        <ele>217.2</ele>
        <time>2026-08-31T10:35:53Z</time>
      </trkpt>
      <trkpt lat="43.44905" lon="-0.35376">
        <ele>217.2</ele>
        <time>2026-08-31T10:35:54Z</time>
      </trkpt>
      <trkpt lat="43.44904" lon="-0.35375">
        <ele>217.2</ele>
        <time>2026-08-31T10:35:54Z</time>
      </trkpt>
      <trkpt lat="43.44904" lon="-0.35375">
        <ele>217.2</ele>
        <time>2026-08-31T10:35:55Z</time>
      </trkpt>
      <trkpt lat="43.44903" lon="-0.35374">
        <ele>217.2</ele>
        <time>2026-08-31T10:35:55Z</time>
      </trkpt>
      <trkpt lat="43.44903" lon="-0.35373">
        <ele>217.2</ele>
        <time>2026-08-31T10:35:56Z</time>
      </trkpt>
      <trkpt lat="43.44902" lon="-0.35373">
        <ele>217.2</ele>
        <time>2026-08-31T10:35:56Z</time>
      </trkpt>
      <trkpt lat="43.44901" lon="-0.35372">
        <ele>217.2</ele>
        <time>2026-08-31T10:35:57Z</time>
      </trkpt>
      <trkpt lat="43.44901" lon="-0.35371">
        <ele>217.2</ele>
        <time>2026-08-31T10:35:57Z</time>
      </trkpt>
      <trkpt lat="43.449" lon="-0.35371">
        <ele>217.2</ele>
        <time>2026-08-31T10:35:58Z</time>
      </trkpt>
      <trkpt lat="43.449" lon="-0.3537">
        <ele>217.2</ele>
        <time>2026-08-31T10:35:59Z</time>
      </trkpt>
      <trkpt lat="43.44899" lon="-0.3537">
        <ele>217.2</ele>
        <time>2026-08-31T10:35:59Z</time>
      </trkpt>
      <trkpt lat="43.44899" lon="-0.35369">
        <ele>217.2</ele>
        <time>2026-08-31T10:36:00Z</time>
      </trkpt>
      <trkpt lat="43.44898" lon="-0.35369">
        <ele>217.2</ele>
        <time>2026-08-31T10:36:00Z</time>
      </trkpt>
      <trkpt lat="43.44898" lon="-0.35368">
        <ele>217.2</ele>
        <time>2026-08-31T10:36:01Z</time>
      </trkpt>
      <trkpt lat="43.44897" lon="-0.35367">
        <ele>217.2</ele>
        <time>2026-08-31T10:36:01Z</time>
      </trkpt>
      <trkpt lat="43.44897" lon="-0.35367">
        <ele>217.2</ele>
        <time>2026-08-31T10:36:02Z</time>
      </trkpt>
      <trkpt lat="43.44896" lon="-0.35366">
        <ele>217.2</ele>
        <time>2026-08-31T10:36:02Z</time>
      </trkpt>
      <trkpt lat="43.44896" lon="-0.35365">
        <ele>217.2</ele>
        <time>2026-08-31T10:36:03Z</time>
      </trkpt>
      <trkpt lat="43.44895" lon="-0.35365">
        <ele>217.2</ele>
        <time>2026-08-31T10:36:04Z</time>
      </trkpt>
      <trkpt lat="43.44895" lon="-0.35364">
        <ele>217.2</ele>
        <time>2026-08-31T10:36:04Z</time>
      </trkpt>
      <trkpt lat="43.44894" lon="-0.35363">
        <ele>217.2</ele>
        <time>2026-08-31T10:36:05Z</time>
      </trkpt>
      <trkpt lat="43.44894" lon="-0.35363">
        <ele>216.2</ele>
        <time>2026-08-31T10:36:05Z</time>
      </trkpt>
      <trkpt lat="43.44893" lon="-0.35362">
        <ele>216.2</ele>
        <time>2026-08-31T10:36:06Z</time>
      </trkpt>
      <trkpt lat="43.44893" lon="-0.35362">
        <ele>216.2</ele>
        <time>2026-08-31T10:36:06Z</time>
      </trkpt>
      <trkpt lat="43.44892" lon="-0.35361">
        <ele>216.2</ele>
        <time>2026-08-31T10:36:07Z</time>
      </trkpt>
      <trkpt lat="43.44892" lon="-0.35361">
        <ele>216.2</ele>
        <time>2026-08-31T10:36:07Z</time>
      </trkpt>
      <trkpt lat="43.44891" lon="-0.3536">
        <ele>216.2</ele>
        <time>2026-08-31T10:36:08Z</time>
      </trkpt>
      <trkpt lat="43.44891" lon="-0.35359">
        <ele>216.2</ele>
        <time>2026-08-31T10:36:09Z</time>
      </trkpt>
      <trkpt lat="43.4489" lon="-0.35358">
        <ele>216.2</ele>
        <time>2026-08-31T10:36:09Z</time>
      </trkpt>
      <trkpt lat="43.4489" lon="-0.35358">
        <ele>216.2</ele>
        <time>2026-08-31T10:36:10Z</time>
      </trkpt>
      <trkpt lat="43.4489" lon="-0.35357">
        <ele>216.2</ele>
        <time>2026-08-31T10:36:10Z</time>
      </trkpt>
      <trkpt lat="43.44889" lon="-0.35357">
        <ele>217.2</ele>
        <time>2026-08-31T10:36:11Z</time>
      </trkpt>
      <trkpt lat="43.44889" lon="-0.35356">
        <ele>217.2</ele>
        <time>2026-08-31T10:36:11Z</time>
      </trkpt>
      <trkpt lat="43.44888" lon="-0.35355">
        <ele>217.2</ele>
        <time>2026-08-31T10:36:12Z</time>
      </trkpt>
      <trkpt lat="43.44888" lon="-0.35354">
        <ele>217.2</ele>
        <time>2026-08-31T10:36:13Z</time>
      </trkpt>
      <trkpt lat="43.44888" lon="-0.35354">
        <ele>217.2</ele>
        <time>2026-08-31T10:36:13Z</time>
      </trkpt>
      <trkpt lat="43.44887" lon="-0.35353">
        <ele>217.2</ele>
        <time>2026-08-31T10:36:14Z</time>
      </trkpt>
      <trkpt lat="43.44887" lon="-0.35352">
        <ele>217.2</ele>
        <time>2026-08-31T10:36:14Z</time>
      </trkpt>
      <trkpt lat="43.44886" lon="-0.35352">
        <ele>216.2</ele>
        <time>2026-08-31T10:36:15Z</time>
      </trkpt>
      <trkpt lat="43.44886" lon="-0.35351">
        <ele>216.2</ele>
        <time>2026-08-31T10:36:15Z</time>
      </trkpt>
      <trkpt lat="43.44885" lon="-0.35351">
        <ele>216.2</ele>
        <time>2026-08-31T10:36:16Z</time>
      </trkpt>
      <trkpt lat="43.44885" lon="-0.3535">
        <ele>216.2</ele>
        <time>2026-08-31T10:36:16Z</time>
      </trkpt>
      <trkpt lat="43.44884" lon="-0.35349">
        <ele>216.2</ele>
        <time>2026-08-31T10:36:17Z</time>
      </trkpt>
      <trkpt lat="43.44884" lon="-0.35348">
        <ele>214.2</ele>
        <time>2026-08-31T10:36:18Z</time>
      </trkpt>
      <trkpt lat="43.44884" lon="-0.35347">
        <ele>214.2</ele>
        <time>2026-08-31T10:36:18Z</time>
      </trkpt>
      <trkpt lat="43.44884" lon="-0.35346">
        <ele>215.2</ele>
        <time>2026-08-31T10:36:19Z</time>
      </trkpt>
      <trkpt lat="43.44884" lon="-0.35346">
        <ele>215.2</ele>
        <time>2026-08-31T10:36:19Z</time>
      </trkpt>
      <trkpt lat="43.44883" lon="-0.35345">
        <ele>215.2</ele>
        <time>2026-08-31T10:36:20Z</time>
      </trkpt>
      <trkpt lat="43.44883" lon="-0.35344">
        <ele>215.2</ele>
        <time>2026-08-31T10:36:21Z</time>
      </trkpt>
      <trkpt lat="43.44882" lon="-0.35344">
        <ele>215.2</ele>
        <time>2026-08-31T10:36:21Z</time>
      </trkpt>
      <trkpt lat="43.44882" lon="-0.35343">
        <ele>215.2</ele>
        <time>2026-08-31T10:36:22Z</time>
      </trkpt>
      <trkpt lat="43.44881" lon="-0.35342">
        <ele>216.2</ele>
        <time>2026-08-31T10:36:23Z</time>
      </trkpt>
      <trkpt lat="43.44881" lon="-0.35341">
        <ele>216.2</ele>
        <time>2026-08-31T10:36:23Z</time>
      </trkpt>
      <trkpt lat="43.4488" lon="-0.3534">
        <ele>216.2</ele>
        <time>2026-08-31T10:36:24Z</time>
      </trkpt>
      <trkpt lat="43.4488" lon="-0.35339">
        <ele>216.2</ele>
        <time>2026-08-31T10:36:24Z</time>
      </trkpt>
      <trkpt lat="43.44878" lon="-0.35338">
        <ele>216.2</ele>
        <time>2026-08-31T10:36:25Z</time>
      </trkpt>
      <trkpt lat="43.44877" lon="-0.35337">
        <ele>216.2</ele>
        <time>2026-08-31T10:36:26Z</time>
      </trkpt>
      <trkpt lat="43.44877" lon="-0.35337">
        <ele>216.2</ele>
        <time>2026-08-31T10:36:27Z</time>
      </trkpt>
      <trkpt lat="43.44876" lon="-0.35337">
        <ele>216.2</ele>
        <time>2026-08-31T10:36:28Z</time>
      </trkpt>
      <trkpt lat="43.44875" lon="-0.35337">
        <ele>216.2</ele>
        <time>2026-08-31T10:36:28Z</time>
      </trkpt>
      <trkpt lat="43.44875" lon="-0.35336">
        <ele>216.2</ele>
        <time>2026-08-31T10:36:29Z</time>
      </trkpt>
      <trkpt lat="43.44874" lon="-0.35335">
        <ele>216.2</ele>
        <time>2026-08-31T10:36:29Z</time>
      </trkpt>
      <trkpt lat="43.44873" lon="-0.35334">
        <ele>216.2</ele>
        <time>2026-08-31T10:36:30Z</time>
      </trkpt>
      <trkpt lat="43.44873" lon="-0.35333">
        <ele>216.2</ele>
        <time>2026-08-31T10:36:30Z</time>
      </trkpt>
      <trkpt lat="43.44872" lon="-0.35332">
        <ele>216.2</ele>
        <time>2026-08-31T10:36:31Z</time>
      </trkpt>
      <trkpt lat="43.44871" lon="-0.35332">
        <ele>216.2</ele>
        <time>2026-08-31T10:36:31Z</time>
      </trkpt>
      <trkpt lat="43.44871" lon="-0.35331">
        <ele>215.2</ele>
        <time>2026-08-31T10:36:32Z</time>
      </trkpt>
      <trkpt lat="43.4487" lon="-0.3533">
        <ele>215.2</ele>
        <time>2026-08-31T10:36:32Z</time>
      </trkpt>
      <trkpt lat="43.4487" lon="-0.35329">
        <ele>215.2</ele>
        <time>2026-08-31T10:36:33Z</time>
      </trkpt>
      <trkpt lat="43.44869" lon="-0.35328">
        <ele>215.2</ele>
        <time>2026-08-31T10:36:33Z</time>
      </trkpt>
      <trkpt lat="43.44868" lon="-0.35328">
        <ele>215.2</ele>
        <time>2026-08-31T10:36:34Z</time>
      </trkpt>
      <trkpt lat="43.44868" lon="-0.35327">
        <ele>215.2</ele>
        <time>2026-08-31T10:36:35Z</time>
      </trkpt>
      <trkpt lat="43.44867" lon="-0.35326">
        <ele>215.2</ele>
        <time>2026-08-31T10:36:35Z</time>
      </trkpt>
      <trkpt lat="43.44867" lon="-0.35325">
        <ele>215.2</ele>
        <time>2026-08-31T10:36:36Z</time>
      </trkpt>
      <trkpt lat="43.44866" lon="-0.35325">
        <ele>215.2</ele>
        <time>2026-08-31T10:36:36Z</time>
      </trkpt>
      <trkpt lat="43.44866" lon="-0.35324">
        <ele>215.2</ele>
        <time>2026-08-31T10:36:37Z</time>
      </trkpt>
      <trkpt lat="43.44865" lon="-0.35323">
        <ele>215.2</ele>
        <time>2026-08-31T10:36:37Z</time>
      </trkpt>
      <trkpt lat="43.44865" lon="-0.35322">
        <ele>215.2</ele>
        <time>2026-08-31T10:36:38Z</time>
      </trkpt>
      <trkpt lat="43.44864" lon="-0.35321">
        <ele>215.2</ele>
        <time>2026-08-31T10:36:38Z</time>
      </trkpt>
      <trkpt lat="43.44864" lon="-0.35321">
        <ele>215.2</ele>
        <time>2026-08-31T10:36:39Z</time>
      </trkpt>
      <trkpt lat="43.44863" lon="-0.3532">
        <ele>215.2</ele>
        <time>2026-08-31T10:36:39Z</time>
      </trkpt>
      <trkpt lat="43.44863" lon="-0.35319">
        <ele>215.2</ele>
        <time>2026-08-31T10:36:40Z</time>
      </trkpt>
      <trkpt lat="43.44862" lon="-0.35319">
        <ele>215.2</ele>
        <time>2026-08-31T10:36:41Z</time>
      </trkpt>
      <trkpt lat="43.44862" lon="-0.35318">
        <ele>215.2</ele>
        <time>2026-08-31T10:36:41Z</time>
      </trkpt>
      <trkpt lat="43.44861" lon="-0.35317">
        <ele>215.2</ele>
        <time>2026-08-31T10:36:42Z</time>
      </trkpt>
      <trkpt lat="43.44861" lon="-0.35317">
        <ele>215.2</ele>
        <time>2026-08-31T10:36:42Z</time>
      </trkpt>
      <trkpt lat="43.4486" lon="-0.35316">
        <ele>216.2</ele>
        <time>2026-08-31T10:36:43Z</time>
      </trkpt>
      <trkpt lat="43.4486" lon="-0.35316">
        <ele>216.2</ele>
        <time>2026-08-31T10:36:43Z</time>
      </trkpt>
      <trkpt lat="43.44859" lon="-0.35315">
        <ele>216.2</ele>
        <time>2026-08-31T10:36:44Z</time>
      </trkpt>
      <trkpt lat="43.44859" lon="-0.35314">
        <ele>216.2</ele>
        <time>2026-08-31T10:36:44Z</time>
      </trkpt>
      <trkpt lat="43.44858" lon="-0.35314">
        <ele>215.2</ele>
        <time>2026-08-31T10:36:45Z</time>
      </trkpt>
      <trkpt lat="43.44858" lon="-0.35313">
        <ele>215.2</ele>
        <time>2026-08-31T10:36:45Z</time>
      </trkpt>
      <trkpt lat="43.44858" lon="-0.35313">
        <ele>215.2</ele>
        <time>2026-08-31T10:36:46Z</time>
      </trkpt>
      <trkpt lat="43.44857" lon="-0.35312">
        <ele>215.2</ele>
        <time>2026-08-31T10:36:47Z</time>
      </trkpt>
      <trkpt lat="43.44857" lon="-0.35312">
        <ele>215.2</ele>
        <time>2026-08-31T10:36:47Z</time>
      </trkpt>
      <trkpt lat="43.44856" lon="-0.35311">
        <ele>215.2</ele>
        <time>2026-08-31T10:36:48Z</time>
      </trkpt>
      <trkpt lat="43.44856" lon="-0.35311">
        <ele>215.2</ele>
        <time>2026-08-31T10:36:48Z</time>
      </trkpt>
      <trkpt lat="43.44856" lon="-0.3531">
        <ele>216.2</ele>
        <time>2026-08-31T10:36:49Z</time>
      </trkpt>
      <trkpt lat="43.44855" lon="-0.3531">
        <ele>216.2</ele>
        <time>2026-08-31T10:36:49Z</time>
      </trkpt>
      <trkpt lat="43.44855" lon="-0.35309">
        <ele>216.2</ele>
        <time>2026-08-31T10:36:50Z</time>
      </trkpt>
      <trkpt lat="43.44854" lon="-0.35309">
        <ele>216.2</ele>
        <time>2026-08-31T10:36:50Z</time>
      </trkpt>
      <trkpt lat="43.44854" lon="-0.35308">
        <ele>216.2</ele>
        <time>2026-08-31T10:36:51Z</time>
      </trkpt>
      <trkpt lat="43.44854" lon="-0.35307">
        <ele>216.2</ele>
        <time>2026-08-31T10:36:51Z</time>
      </trkpt>
      <trkpt lat="43.44853" lon="-0.35307">
        <ele>216.2</ele>
        <time>2026-08-31T10:36:52Z</time>
      </trkpt>
      <trkpt lat="43.44852" lon="-0.35306">
        <ele>216.2</ele>
        <time>2026-08-31T10:36:52Z</time>
      </trkpt>
      <trkpt lat="43.44852" lon="-0.35305">
        <ele>215.2</ele>
        <time>2026-08-31T10:36:53Z</time>
      </trkpt>
      <trkpt lat="43.44851" lon="-0.35305">
        <ele>215.2</ele>
        <time>2026-08-31T10:36:54Z</time>
      </trkpt>
      <trkpt lat="43.44851" lon="-0.35304">
        <ele>215.2</ele>
        <time>2026-08-31T10:36:54Z</time>
      </trkpt>
      <trkpt lat="43.4485" lon="-0.35304">
        <ele>215.2</ele>
        <time>2026-08-31T10:36:55Z</time>
      </trkpt>
      <trkpt lat="43.4485" lon="-0.35303">
        <ele>215.2</ele>
        <time>2026-08-31T10:36:55Z</time>
      </trkpt>
      <trkpt lat="43.44849" lon="-0.35302">
        <ele>215.2</ele>
        <time>2026-08-31T10:36:56Z</time>
      </trkpt>
      <trkpt lat="43.44849" lon="-0.35302">
        <ele>215.2</ele>
        <time>2026-08-31T10:36:56Z</time>
      </trkpt>
      <trkpt lat="43.44848" lon="-0.35301">
        <ele>215.2</ele>
        <time>2026-08-31T10:36:57Z</time>
      </trkpt>
      <trkpt lat="43.44848" lon="-0.353">
        <ele>215.2</ele>
        <time>2026-08-31T10:36:57Z</time>
      </trkpt>
      <trkpt lat="43.44847" lon="-0.353">
        <ele>215.2</ele>
        <time>2026-08-31T10:36:58Z</time>
      </trkpt>
      <trkpt lat="43.44846" lon="-0.35299">
        <ele>215.2</ele>
        <time>2026-08-31T10:36:58Z</time>
      </trkpt>
      <trkpt lat="43.44846" lon="-0.35299">
        <ele>215.2</ele>
        <time>2026-08-31T10:36:59Z</time>
      </trkpt>
      <trkpt lat="43.44845" lon="-0.35298">
        <ele>215.2</ele>
        <time>2026-08-31T10:36:59Z</time>
      </trkpt>
      <trkpt lat="43.44845" lon="-0.35298">
        <ele>215.2</ele>
        <time>2026-08-31T10:37:00Z</time>
      </trkpt>
      <trkpt lat="43.44844" lon="-0.35297">
        <ele>215.2</ele>
        <time>2026-08-31T10:37:00Z</time>
      </trkpt>
      <trkpt lat="43.44844" lon="-0.35297">
        <ele>215.2</ele>
        <time>2026-08-31T10:37:01Z</time>
      </trkpt>
      <trkpt lat="43.44844" lon="-0.35296">
        <ele>215.2</ele>
        <time>2026-08-31T10:37:02Z</time>
      </trkpt>
      <trkpt lat="43.44843" lon="-0.35296">
        <ele>215.2</ele>
        <time>2026-08-31T10:37:02Z</time>
      </trkpt>
      <trkpt lat="43.44843" lon="-0.35295">
        <ele>215.2</ele>
        <time>2026-08-31T10:37:03Z</time>
      </trkpt>
      <trkpt lat="43.44842" lon="-0.35295">
        <ele>215.2</ele>
        <time>2026-08-31T10:37:03Z</time>
      </trkpt>
      <trkpt lat="43.44842" lon="-0.35294">
        <ele>215.2</ele>
        <time>2026-08-31T10:37:04Z</time>
      </trkpt>
      <trkpt lat="43.44841" lon="-0.35294">
        <ele>215.2</ele>
        <time>2026-08-31T10:37:04Z</time>
      </trkpt>
      <trkpt lat="43.44841" lon="-0.35293">
        <ele>215.2</ele>
        <time>2026-08-31T10:37:05Z</time>
      </trkpt>
      <trkpt lat="43.4484" lon="-0.35293">
        <ele>215.2</ele>
        <time>2026-08-31T10:37:05Z</time>
      </trkpt>
      <trkpt lat="43.4484" lon="-0.35292">
        <ele>215.2</ele>
        <time>2026-08-31T10:37:06Z</time>
      </trkpt>
      <trkpt lat="43.44839" lon="-0.35292">
        <ele>215.2</ele>
        <time>2026-08-31T10:37:06Z</time>
      </trkpt>
      <trkpt lat="43.44839" lon="-0.35291">
        <ele>215.2</ele>
        <time>2026-08-31T10:37:07Z</time>
      </trkpt>
      <trkpt lat="43.44838" lon="-0.3529">
        <ele>215.2</ele>
        <time>2026-08-31T10:37:08Z</time>
      </trkpt>
      <trkpt lat="43.44838" lon="-0.3529">
        <ele>215.2</ele>
        <time>2026-08-31T10:37:08Z</time>
      </trkpt>
      <trkpt lat="43.44837" lon="-0.35289">
        <ele>215.2</ele>
        <time>2026-08-31T10:37:09Z</time>
      </trkpt>
      <trkpt lat="43.44837" lon="-0.35288">
        <ele>215.2</ele>
        <time>2026-08-31T10:37:09Z</time>
      </trkpt>
      <trkpt lat="43.44837" lon="-0.35287">
        <ele>215.2</ele>
        <time>2026-08-31T10:37:10Z</time>
      </trkpt>
      <trkpt lat="43.44836" lon="-0.35287">
        <ele>215.2</ele>
        <time>2026-08-31T10:37:10Z</time>
      </trkpt>
      <trkpt lat="43.44836" lon="-0.35286">
        <ele>215.2</ele>
        <time>2026-08-31T10:37:11Z</time>
      </trkpt>
      <trkpt lat="43.44835" lon="-0.35285">
        <ele>215.2</ele>
        <time>2026-08-31T10:37:11Z</time>
      </trkpt>
      <trkpt lat="43.44835" lon="-0.35285">
        <ele>215.2</ele>
        <time>2026-08-31T10:37:12Z</time>
      </trkpt>
      <trkpt lat="43.44834" lon="-0.35284">
        <ele>215.2</ele>
        <time>2026-08-31T10:37:12Z</time>
      </trkpt>
      <trkpt lat="43.44834" lon="-0.35283">
        <ele>214.2</ele>
        <time>2026-08-31T10:37:13Z</time>
      </trkpt>
      <trkpt lat="43.44833" lon="-0.35282">
        <ele>214.2</ele>
        <time>2026-08-31T10:37:14Z</time>
      </trkpt>
      <trkpt lat="43.44833" lon="-0.35282">
        <ele>215.2</ele>
        <time>2026-08-31T10:37:14Z</time>
      </trkpt>
      <trkpt lat="43.44832" lon="-0.35281">
        <ele>215.2</ele>
        <time>2026-08-31T10:37:15Z</time>
      </trkpt>
      <trkpt lat="43.44832" lon="-0.3528">
        <ele>215.2</ele>
        <time>2026-08-31T10:37:15Z</time>
      </trkpt>
      <trkpt lat="43.44831" lon="-0.3528">
        <ele>215.2</ele>
        <time>2026-08-31T10:37:16Z</time>
      </trkpt>
      <trkpt lat="43.44831" lon="-0.35279">
        <ele>215.2</ele>
        <time>2026-08-31T10:37:16Z</time>
      </trkpt>
      <trkpt lat="43.4483" lon="-0.35278">
        <ele>215.2</ele>
        <time>2026-08-31T10:37:17Z</time>
      </trkpt>
      <trkpt lat="43.4483" lon="-0.35277">
        <ele>215.2</ele>
        <time>2026-08-31T10:37:17Z</time>
      </trkpt>
      <trkpt lat="43.44829" lon="-0.35277">
        <ele>215.2</ele>
        <time>2026-08-31T10:37:18Z</time>
      </trkpt>
      <trkpt lat="43.44829" lon="-0.35276">
        <ele>215.2</ele>
        <time>2026-08-31T10:37:19Z</time>
      </trkpt>
      <trkpt lat="43.44828" lon="-0.35275">
        <ele>215.2</ele>
        <time>2026-08-31T10:37:19Z</time>
      </trkpt>
      <trkpt lat="43.44828" lon="-0.35274">
        <ele>215.2</ele>
        <time>2026-08-31T10:37:20Z</time>
      </trkpt>
      <trkpt lat="43.44827" lon="-0.35273">
        <ele>215.2</ele>
        <time>2026-08-31T10:37:20Z</time>
      </trkpt>
      <trkpt lat="43.44827" lon="-0.35272">
        <ele>215.2</ele>
        <time>2026-08-31T10:37:21Z</time>
      </trkpt>
      <trkpt lat="43.44827" lon="-0.35271">
        <ele>215.2</ele>
        <time>2026-08-31T10:37:21Z</time>
      </trkpt>
      <trkpt lat="43.44826" lon="-0.3527">
        <ele>215.2</ele>
        <time>2026-08-31T10:37:22Z</time>
      </trkpt>
      <trkpt lat="43.44826" lon="-0.3527">
        <ele>215.2</ele>
        <time>2026-08-31T10:37:22Z</time>
      </trkpt>
      <trkpt lat="43.44825" lon="-0.35269">
        <ele>215.2</ele>
        <time>2026-08-31T10:37:23Z</time>
      </trkpt>
      <trkpt lat="43.44825" lon="-0.35268">
        <ele>215.2</ele>
        <time>2026-08-31T10:37:24Z</time>
      </trkpt>
      <trkpt lat="43.44824" lon="-0.35267">
        <ele>215.2</ele>
        <time>2026-08-31T10:37:24Z</time>
      </trkpt>
      <trkpt lat="43.44824" lon="-0.35266">
        <ele>215.2</ele>
        <time>2026-08-31T10:37:25Z</time>
      </trkpt>
      <trkpt lat="43.44823" lon="-0.35266">
        <ele>215.2</ele>
        <time>2026-08-31T10:37:25Z</time>
      </trkpt>
      <trkpt lat="43.44823" lon="-0.35265">
        <ele>215.2</ele>
        <time>2026-08-31T10:37:26Z</time>
      </trkpt>
      <trkpt lat="43.44822" lon="-0.35264">
        <ele>215.2</ele>
        <time>2026-08-31T10:37:26Z</time>
      </trkpt>
      <trkpt lat="43.44822" lon="-0.35263">
        <ele>216.2</ele>
        <time>2026-08-31T10:37:27Z</time>
      </trkpt>
      <trkpt lat="43.44822" lon="-0.35262">
        <ele>216.2</ele>
        <time>2026-08-31T10:37:27Z</time>
      </trkpt>
      <trkpt lat="43.44821" lon="-0.35261">
        <ele>216.2</ele>
        <time>2026-08-31T10:37:28Z</time>
      </trkpt>
      <trkpt lat="43.44821" lon="-0.3526">
        <ele>216.2</ele>
        <time>2026-08-31T10:37:28Z</time>
      </trkpt>
      <trkpt lat="43.4482" lon="-0.35259">
        <ele>216.2</ele>
        <time>2026-08-31T10:37:29Z</time>
      </trkpt>
      <trkpt lat="43.4482" lon="-0.35258">
        <ele>216.2</ele>
        <time>2026-08-31T10:37:30Z</time>
      </trkpt>
      <trkpt lat="43.4482" lon="-0.35257">
        <ele>216.2</ele>
        <time>2026-08-31T10:37:30Z</time>
      </trkpt>
      <trkpt lat="43.44819" lon="-0.35256">
        <ele>216.2</ele>
        <time>2026-08-31T10:37:31Z</time>
      </trkpt>
      <trkpt lat="43.44819" lon="-0.35255">
        <ele>216.2</ele>
        <time>2026-08-31T10:37:31Z</time>
      </trkpt>
      <trkpt lat="43.44819" lon="-0.35255">
        <ele>216.2</ele>
        <time>2026-08-31T10:37:32Z</time>
      </trkpt>
      <trkpt lat="43.44818" lon="-0.35254">
        <ele>216.2</ele>
        <time>2026-08-31T10:37:32Z</time>
      </trkpt>
      <trkpt lat="43.44818" lon="-0.35253">
        <ele>216.2</ele>
        <time>2026-08-31T10:37:33Z</time>
      </trkpt>
      <trkpt lat="43.44817" lon="-0.35252">
        <ele>216.2</ele>
        <time>2026-08-31T10:37:33Z</time>
      </trkpt>
      <trkpt lat="43.44817" lon="-0.35251">
        <ele>216.2</ele>
        <time>2026-08-31T10:37:34Z</time>
      </trkpt>
      <trkpt lat="43.44817" lon="-0.3525">
        <ele>216.2</ele>
        <time>2026-08-31T10:37:34Z</time>
      </trkpt>
      <trkpt lat="43.44816" lon="-0.35249">
        <ele>216.2</ele>
        <time>2026-08-31T10:37:35Z</time>
      </trkpt>
      <trkpt lat="43.44816" lon="-0.35248">
        <ele>216.2</ele>
        <time>2026-08-31T10:37:35Z</time>
      </trkpt>
      <trkpt lat="43.44815" lon="-0.35247">
        <ele>216.2</ele>
        <time>2026-08-31T10:37:36Z</time>
      </trkpt>
      <trkpt lat="43.44815" lon="-0.35246">
        <ele>216.2</ele>
        <time>2026-08-31T10:37:37Z</time>
      </trkpt>
      <trkpt lat="43.44814" lon="-0.35245">
        <ele>216.2</ele>
        <time>2026-08-31T10:37:37Z</time>
      </trkpt>
      <trkpt lat="43.44814" lon="-0.35244">
        <ele>216.2</ele>
        <time>2026-08-31T10:37:38Z</time>
      </trkpt>
      <trkpt lat="43.44814" lon="-0.35243">
        <ele>216.2</ele>
        <time>2026-08-31T10:37:38Z</time>
      </trkpt>
      <trkpt lat="43.44813" lon="-0.35242">
        <ele>216.2</ele>
        <time>2026-08-31T10:37:39Z</time>
      </trkpt>
      <trkpt lat="43.44813" lon="-0.35241">
        <ele>216.2</ele>
        <time>2026-08-31T10:37:39Z</time>
      </trkpt>
      <trkpt lat="43.44812" lon="-0.3524">
        <ele>216.2</ele>
        <time>2026-08-31T10:37:40Z</time>
      </trkpt>
      <trkpt lat="43.44812" lon="-0.35239">
        <ele>216.2</ele>
        <time>2026-08-31T10:37:40Z</time>
      </trkpt>
      <trkpt lat="43.44812" lon="-0.35239">
        <ele>216.2</ele>
        <time>2026-08-31T10:37:41Z</time>
      </trkpt>
      <trkpt lat="43.44811" lon="-0.35238">
        <ele>216.2</ele>
        <time>2026-08-31T10:37:41Z</time>
      </trkpt>
      <trkpt lat="43.44811" lon="-0.35237">
        <ele>216.2</ele>
        <time>2026-08-31T10:37:42Z</time>
      </trkpt>
      <trkpt lat="43.4481" lon="-0.35236">
        <ele>216.2</ele>
        <time>2026-08-31T10:37:42Z</time>
      </trkpt>
      <trkpt lat="43.4481" lon="-0.35235">
        <ele>216.2</ele>
        <time>2026-08-31T10:37:43Z</time>
      </trkpt>
      <trkpt lat="43.44809" lon="-0.35235">
        <ele>216.2</ele>
        <time>2026-08-31T10:37:44Z</time>
      </trkpt>
      <trkpt lat="43.44809" lon="-0.35234">
        <ele>216.2</ele>
        <time>2026-08-31T10:37:44Z</time>
      </trkpt>
      <trkpt lat="43.44809" lon="-0.35233">
        <ele>216.2</ele>
        <time>2026-08-31T10:37:45Z</time>
      </trkpt>
      <trkpt lat="43.44808" lon="-0.35232">
        <ele>216.2</ele>
        <time>2026-08-31T10:37:45Z</time>
      </trkpt>
      <trkpt lat="43.44808" lon="-0.35232">
        <ele>216.2</ele>
        <time>2026-08-31T10:37:46Z</time>
      </trkpt>
      <trkpt lat="43.44808" lon="-0.35231">
        <ele>216.2</ele>
        <time>2026-08-31T10:37:46Z</time>
      </trkpt>
      <trkpt lat="43.44807" lon="-0.3523">
        <ele>217.2</ele>
        <time>2026-08-31T10:37:47Z</time>
      </trkpt>
      <trkpt lat="43.44807" lon="-0.35229">
        <ele>217.2</ele>
        <time>2026-08-31T10:37:47Z</time>
      </trkpt>
      <trkpt lat="43.44806" lon="-0.35228">
        <ele>217.2</ele>
        <time>2026-08-31T10:37:48Z</time>
      </trkpt>
      <trkpt lat="43.44806" lon="-0.35228">
        <ele>217.2</ele>
        <time>2026-08-31T10:37:48Z</time>
      </trkpt>
      <trkpt lat="43.44806" lon="-0.35227">
        <ele>217.2</ele>
        <time>2026-08-31T10:37:49Z</time>
      </trkpt>
      <trkpt lat="43.44805" lon="-0.35226">
        <ele>217.2</ele>
        <time>2026-08-31T10:37:49Z</time>
      </trkpt>
      <trkpt lat="43.44805" lon="-0.35225">
        <ele>217.2</ele>
        <time>2026-08-31T10:37:50Z</time>
      </trkpt>
      <trkpt lat="43.44804" lon="-0.35224">
        <ele>217.2</ele>
        <time>2026-08-31T10:37:51Z</time>
      </trkpt>
      <trkpt lat="43.44804" lon="-0.35223">
        <ele>217.2</ele>
        <time>2026-08-31T10:37:51Z</time>
      </trkpt>
      <trkpt lat="43.44804" lon="-0.35223">
        <ele>217.2</ele>
        <time>2026-08-31T10:37:52Z</time>
      </trkpt>
      <trkpt lat="43.44803" lon="-0.35222">
        <ele>217.2</ele>
        <time>2026-08-31T10:37:52Z</time>
      </trkpt>
      <trkpt lat="43.44803" lon="-0.35221">
        <ele>217.2</ele>
        <time>2026-08-31T10:37:53Z</time>
      </trkpt>
      <trkpt lat="43.44803" lon="-0.3522">
        <ele>217.2</ele>
        <time>2026-08-31T10:37:53Z</time>
      </trkpt>
      <trkpt lat="43.44802" lon="-0.35219">
        <ele>216.2</ele>
        <time>2026-08-31T10:37:54Z</time>
      </trkpt>
      <trkpt lat="43.44802" lon="-0.35218">
        <ele>216.2</ele>
        <time>2026-08-31T10:37:54Z</time>
      </trkpt>
      <trkpt lat="43.44802" lon="-0.35217">
        <ele>216.2</ele>
        <time>2026-08-31T10:37:55Z</time>
      </trkpt>
      <trkpt lat="43.44801" lon="-0.35216">
        <ele>216.2</ele>
        <time>2026-08-31T10:37:55Z</time>
      </trkpt>
      <trkpt lat="43.44801" lon="-0.35215">
        <ele>216.2</ele>
        <time>2026-08-31T10:37:56Z</time>
      </trkpt>
      <trkpt lat="43.44801" lon="-0.35214">
        <ele>216.2</ele>
        <time>2026-08-31T10:37:57Z</time>
      </trkpt>
      <trkpt lat="43.44801" lon="-0.35213">
        <ele>216.2</ele>
        <time>2026-08-31T10:37:57Z</time>
      </trkpt>
      <trkpt lat="43.448" lon="-0.35213">
        <ele>216.2</ele>
        <time>2026-08-31T10:37:58Z</time>
      </trkpt>
      <trkpt lat="43.448" lon="-0.35212">
        <ele>216.2</ele>
        <time>2026-08-31T10:37:58Z</time>
      </trkpt>
      <trkpt lat="43.448" lon="-0.35211">
        <ele>216.2</ele>
        <time>2026-08-31T10:37:59Z</time>
      </trkpt>
      <trkpt lat="43.44799" lon="-0.3521">
        <ele>216.2</ele>
        <time>2026-08-31T10:37:59Z</time>
      </trkpt>
      <trkpt lat="43.44799" lon="-0.35209">
        <ele>216.2</ele>
        <time>2026-08-31T10:38:00Z</time>
      </trkpt>
      <trkpt lat="43.44799" lon="-0.35208">
        <ele>216.2</ele>
        <time>2026-08-31T10:38:00Z</time>
      </trkpt>
      <trkpt lat="43.44799" lon="-0.35207">
        <ele>216.2</ele>
        <time>2026-08-31T10:38:01Z</time>
      </trkpt>
      <trkpt lat="43.44799" lon="-0.35206">
        <ele>216.2</ele>
        <time>2026-08-31T10:38:01Z</time>
      </trkpt>
      <trkpt lat="43.44798" lon="-0.35205">
        <ele>216.2</ele>
        <time>2026-08-31T10:38:02Z</time>
      </trkpt>
      <trkpt lat="43.44798" lon="-0.35204">
        <ele>216.2</ele>
        <time>2026-08-31T10:38:02Z</time>
      </trkpt>
      <trkpt lat="43.44798" lon="-0.35203">
        <ele>216.2</ele>
        <time>2026-08-31T10:38:03Z</time>
      </trkpt>
      <trkpt lat="43.44798" lon="-0.35202">
        <ele>216.2</ele>
        <time>2026-08-31T10:38:04Z</time>
      </trkpt>
      <trkpt lat="43.44798" lon="-0.35202">
        <ele>216.2</ele>
        <time>2026-08-31T10:38:04Z</time>
      </trkpt>
      <trkpt lat="43.44797" lon="-0.35201">
        <ele>216.2</ele>
        <time>2026-08-31T10:38:05Z</time>
      </trkpt>
      <trkpt lat="43.44797" lon="-0.352">
        <ele>216.2</ele>
        <time>2026-08-31T10:38:05Z</time>
      </trkpt>
      <trkpt lat="43.44797" lon="-0.35199">
        <ele>216.2</ele>
        <time>2026-08-31T10:38:06Z</time>
      </trkpt>
      <trkpt lat="43.44797" lon="-0.35198">
        <ele>216.2</ele>
        <time>2026-08-31T10:38:06Z</time>
      </trkpt>
      <trkpt lat="43.44797" lon="-0.35197">
        <ele>216.2</ele>
        <time>2026-08-31T10:38:07Z</time>
      </trkpt>
      <trkpt lat="43.44796" lon="-0.35196">
        <ele>216.2</ele>
        <time>2026-08-31T10:38:07Z</time>
      </trkpt>
      <trkpt lat="43.44796" lon="-0.35195">
        <ele>216.2</ele>
        <time>2026-08-31T10:38:08Z</time>
      </trkpt>
      <trkpt lat="43.44796" lon="-0.35194">
        <ele>216.2</ele>
        <time>2026-08-31T10:38:08Z</time>
      </trkpt>
      <trkpt lat="43.44796" lon="-0.35193">
        <ele>216.2</ele>
        <time>2026-08-31T10:38:09Z</time>
      </trkpt>
      <trkpt lat="43.44796" lon="-0.35192">
        <ele>216.2</ele>
        <time>2026-08-31T10:38:09Z</time>
      </trkpt>
      <trkpt lat="43.44796" lon="-0.35191">
        <ele>216.2</ele>
        <time>2026-08-31T10:38:10Z</time>
      </trkpt>
      <trkpt lat="43.44795" lon="-0.3519">
        <ele>216.2</ele>
        <time>2026-08-31T10:38:11Z</time>
      </trkpt>
      <trkpt lat="43.44795" lon="-0.3519">
        <ele>216.2</ele>
        <time>2026-08-31T10:38:11Z</time>
      </trkpt>
      <trkpt lat="43.44795" lon="-0.35189">
        <ele>216.2</ele>
        <time>2026-08-31T10:38:12Z</time>
      </trkpt>
      <trkpt lat="43.44795" lon="-0.35188">
        <ele>215.2</ele>
        <time>2026-08-31T10:38:12Z</time>
      </trkpt>
      <trkpt lat="43.44795" lon="-0.35187">
        <ele>215.2</ele>
        <time>2026-08-31T10:38:13Z</time>
      </trkpt>
      <trkpt lat="43.44795" lon="-0.35186">
        <ele>215.2</ele>
        <time>2026-08-31T10:38:13Z</time>
      </trkpt>
      <trkpt lat="43.44794" lon="-0.35185">
        <ele>215.2</ele>
        <time>2026-08-31T10:38:14Z</time>
      </trkpt>
      <trkpt lat="43.44794" lon="-0.35184">
        <ele>215.2</ele>
        <time>2026-08-31T10:38:14Z</time>
      </trkpt>
      <trkpt lat="43.44794" lon="-0.35183">
        <ele>215.2</ele>
        <time>2026-08-31T10:38:15Z</time>
      </trkpt>
      <trkpt lat="43.44794" lon="-0.35182">
        <ele>215.2</ele>
        <time>2026-08-31T10:38:15Z</time>
      </trkpt>
      <trkpt lat="43.44794" lon="-0.35182">
        <ele>215.2</ele>
        <time>2026-08-31T10:38:16Z</time>
      </trkpt>
      <trkpt lat="43.44793" lon="-0.35181">
        <ele>215.2</ele>
        <time>2026-08-31T10:38:17Z</time>
      </trkpt>
      <trkpt lat="43.44793" lon="-0.3518">
        <ele>215.2</ele>
        <time>2026-08-31T10:38:17Z</time>
      </trkpt>
      <trkpt lat="43.44793" lon="-0.35179">
        <ele>215.2</ele>
        <time>2026-08-31T10:38:18Z</time>
      </trkpt>
      <trkpt lat="43.44792" lon="-0.35178">
        <ele>215.2</ele>
        <time>2026-08-31T10:38:18Z</time>
      </trkpt>
      <trkpt lat="43.44792" lon="-0.35178">
        <ele>215.2</ele>
        <time>2026-08-31T10:38:19Z</time>
      </trkpt>
      <trkpt lat="43.44792" lon="-0.35177">
        <ele>215.2</ele>
        <time>2026-08-31T10:38:19Z</time>
      </trkpt>
      <trkpt lat="43.44792" lon="-0.35176">
        <ele>215.2</ele>
        <time>2026-08-31T10:38:20Z</time>
      </trkpt>
      <trkpt lat="43.44791" lon="-0.35175">
        <ele>215.2</ele>
        <time>2026-08-31T10:38:20Z</time>
      </trkpt>
      <trkpt lat="43.44791" lon="-0.35175">
        <ele>214.2</ele>
        <time>2026-08-31T10:38:21Z</time>
      </trkpt>
      <trkpt lat="43.44791" lon="-0.35174">
        <ele>214.2</ele>
        <time>2026-08-31T10:38:21Z</time>
      </trkpt>
      <trkpt lat="43.44791" lon="-0.35173">
        <ele>214.2</ele>
        <time>2026-08-31T10:38:22Z</time>
      </trkpt>
      <trkpt lat="43.44791" lon="-0.35172">
        <ele>214.2</ele>
        <time>2026-08-31T10:38:22Z</time>
      </trkpt>
      <trkpt lat="43.4479" lon="-0.35171">
        <ele>214.2</ele>
        <time>2026-08-31T10:38:23Z</time>
      </trkpt>
      <trkpt lat="43.4479" lon="-0.35171">
        <ele>214.2</ele>
        <time>2026-08-31T10:38:24Z</time>
      </trkpt>
      <trkpt lat="43.4479" lon="-0.3517">
        <ele>214.2</ele>
        <time>2026-08-31T10:38:24Z</time>
      </trkpt>
      <trkpt lat="43.4479" lon="-0.35169">
        <ele>214.2</ele>
        <time>2026-08-31T10:38:25Z</time>
      </trkpt>
      <trkpt lat="43.44789" lon="-0.35169">
        <ele>214.2</ele>
        <time>2026-08-31T10:38:25Z</time>
      </trkpt>
      <trkpt lat="43.44789" lon="-0.35168">
        <ele>213.2</ele>
        <time>2026-08-31T10:38:26Z</time>
      </trkpt>
      <trkpt lat="43.44789" lon="-0.35167">
        <ele>213.2</ele>
        <time>2026-08-31T10:38:26Z</time>
      </trkpt>
      <trkpt lat="43.44789" lon="-0.35166">
        <ele>213.2</ele>
        <time>2026-08-31T10:38:27Z</time>
      </trkpt>
      <trkpt lat="43.44789" lon="-0.35166">
        <ele>213.2</ele>
        <time>2026-08-31T10:38:27Z</time>
      </trkpt>
      <trkpt lat="43.44788" lon="-0.35165">
        <ele>213.2</ele>
        <time>2026-08-31T10:38:28Z</time>
      </trkpt>
      <trkpt lat="43.44788" lon="-0.35164">
        <ele>213.2</ele>
        <time>2026-08-31T10:38:28Z</time>
      </trkpt>
      <trkpt lat="43.44788" lon="-0.35163">
        <ele>213.2</ele>
        <time>2026-08-31T10:38:29Z</time>
      </trkpt>
      <trkpt lat="43.44787" lon="-0.35163">
        <ele>213.2</ele>
        <time>2026-08-31T10:38:29Z</time>
      </trkpt>
      <trkpt lat="43.44787" lon="-0.35162">
        <ele>213.2</ele>
        <time>2026-08-31T10:38:30Z</time>
      </trkpt>
      <trkpt lat="43.44787" lon="-0.35161">
        <ele>213.2</ele>
        <time>2026-08-31T10:38:31Z</time>
      </trkpt>
      <trkpt lat="43.44787" lon="-0.3516">
        <ele>212.2</ele>
        <time>2026-08-31T10:38:31Z</time>
      </trkpt>
      <trkpt lat="43.44786" lon="-0.35159">
        <ele>212.2</ele>
        <time>2026-08-31T10:38:32Z</time>
      </trkpt>
      <trkpt lat="43.44786" lon="-0.35158">
        <ele>212.2</ele>
        <time>2026-08-31T10:38:32Z</time>
      </trkpt>
      <trkpt lat="43.44786" lon="-0.35157">
        <ele>212.2</ele>
        <time>2026-08-31T10:38:33Z</time>
      </trkpt>
      <trkpt lat="43.44786" lon="-0.35157">
        <ele>212.2</ele>
        <time>2026-08-31T10:38:33Z</time>
      </trkpt>
      <trkpt lat="43.44786" lon="-0.35156">
        <ele>211.2</ele>
        <time>2026-08-31T10:38:34Z</time>
      </trkpt>
      <trkpt lat="43.44785" lon="-0.35155">
        <ele>211.2</ele>
        <time>2026-08-31T10:38:34Z</time>
      </trkpt>
      <trkpt lat="43.44785" lon="-0.35154">
        <ele>211.2</ele>
        <time>2026-08-31T10:38:35Z</time>
      </trkpt>
      <trkpt lat="43.44785" lon="-0.35153">
        <ele>211.2</ele>
        <time>2026-08-31T10:38:35Z</time>
      </trkpt>
      <trkpt lat="43.44785" lon="-0.35152">
        <ele>211.2</ele>
        <time>2026-08-31T10:38:36Z</time>
      </trkpt>
      <trkpt lat="43.44785" lon="-0.35151">
        <ele>211.2</ele>
        <time>2026-08-31T10:38:36Z</time>
      </trkpt>
      <trkpt lat="43.44785" lon="-0.3515">
        <ele>211.2</ele>
        <time>2026-08-31T10:38:37Z</time>
      </trkpt>
      <trkpt lat="43.44784" lon="-0.35149">
        <ele>211.2</ele>
        <time>2026-08-31T10:38:38Z</time>
      </trkpt>
      <trkpt lat="43.44784" lon="-0.35148">
        <ele>211.2</ele>
        <time>2026-08-31T10:38:38Z</time>
      </trkpt>
      <trkpt lat="43.44784" lon="-0.35148">
        <ele>211.2</ele>
        <time>2026-08-31T10:38:39Z</time>
      </trkpt>
      <trkpt lat="43.44784" lon="-0.35147">
        <ele>211.2</ele>
        <time>2026-08-31T10:38:39Z</time>
      </trkpt>
      <trkpt lat="43.44784" lon="-0.35146">
        <ele>210.2</ele>
        <time>2026-08-31T10:38:40Z</time>
      </trkpt>
      <trkpt lat="43.44783" lon="-0.35145">
        <ele>210.2</ele>
        <time>2026-08-31T10:38:40Z</time>
      </trkpt>
      <trkpt lat="43.44783" lon="-0.35145">
        <ele>210.2</ele>
        <time>2026-08-31T10:38:41Z</time>
      </trkpt>
      <trkpt lat="43.44783" lon="-0.35144">
        <ele>210.2</ele>
        <time>2026-08-31T10:38:41Z</time>
      </trkpt>
      <trkpt lat="43.44783" lon="-0.35143">
        <ele>210.2</ele>
        <time>2026-08-31T10:38:42Z</time>
      </trkpt>
      <trkpt lat="43.44782" lon="-0.35142">
        <ele>210.2</ele>
        <time>2026-08-31T10:38:42Z</time>
      </trkpt>
      <trkpt lat="43.44782" lon="-0.35142">
        <ele>210.2</ele>
        <time>2026-08-31T10:38:43Z</time>
      </trkpt>
      <trkpt lat="43.44782" lon="-0.35141">
        <ele>210.2</ele>
        <time>2026-08-31T10:38:44Z</time>
      </trkpt>
      <trkpt lat="43.44782" lon="-0.3514">
        <ele>210.2</ele>
        <time>2026-08-31T10:38:44Z</time>
      </trkpt>
      <trkpt lat="43.44782" lon="-0.35139">
        <ele>210.2</ele>
        <time>2026-08-31T10:38:45Z</time>
      </trkpt>
      <trkpt lat="43.44782" lon="-0.35139">
        <ele>210.2</ele>
        <time>2026-08-31T10:38:45Z</time>
      </trkpt>
      <trkpt lat="43.44781" lon="-0.35138">
        <ele>210.2</ele>
        <time>2026-08-31T10:38:46Z</time>
      </trkpt>
      <trkpt lat="43.44781" lon="-0.35138">
        <ele>210.2</ele>
        <time>2026-08-31T10:38:46Z</time>
      </trkpt>
      <trkpt lat="43.44781" lon="-0.35137">
        <ele>210.2</ele>
        <time>2026-08-31T10:38:47Z</time>
      </trkpt>
      <trkpt lat="43.44781" lon="-0.35136">
        <ele>210.2</ele>
        <time>2026-08-31T10:38:47Z</time>
      </trkpt>
      <trkpt lat="43.44781" lon="-0.35135">
        <ele>210.2</ele>
        <time>2026-08-31T10:38:48Z</time>
      </trkpt>
      <trkpt lat="43.44781" lon="-0.35134">
        <ele>210.2</ele>
        <time>2026-08-31T10:38:48Z</time>
      </trkpt>
      <trkpt lat="43.4478" lon="-0.35133">
        <ele>210.2</ele>
        <time>2026-08-31T10:38:49Z</time>
      </trkpt>
      <trkpt lat="43.4478" lon="-0.35132">
        <ele>210.2</ele>
        <time>2026-08-31T10:38:50Z</time>
      </trkpt>
      <trkpt lat="43.4478" lon="-0.35132">
        <ele>210.2</ele>
        <time>2026-08-31T10:38:50Z</time>
      </trkpt>
      <trkpt lat="43.4478" lon="-0.35131">
        <ele>210.2</ele>
        <time>2026-08-31T10:38:51Z</time>
      </trkpt>
      <trkpt lat="43.4478" lon="-0.3513">
        <ele>209.2</ele>
        <time>2026-08-31T10:38:51Z</time>
      </trkpt>
      <trkpt lat="43.4478" lon="-0.35129">
        <ele>209.2</ele>
        <time>2026-08-31T10:38:52Z</time>
      </trkpt>
      <trkpt lat="43.4478" lon="-0.35128">
        <ele>209.2</ele>
        <time>2026-08-31T10:38:52Z</time>
      </trkpt>
      <trkpt lat="43.4478" lon="-0.35127">
        <ele>209.2</ele>
        <time>2026-08-31T10:38:53Z</time>
      </trkpt>
      <trkpt lat="43.4478" lon="-0.35126">
        <ele>209.2</ele>
        <time>2026-08-31T10:38:53Z</time>
      </trkpt>
      <trkpt lat="43.4478" lon="-0.35126">
        <ele>208.2</ele>
        <time>2026-08-31T10:38:54Z</time>
      </trkpt>
      <trkpt lat="43.4478" lon="-0.35125">
        <ele>208.2</ele>
        <time>2026-08-31T10:38:54Z</time>
      </trkpt>
      <trkpt lat="43.4478" lon="-0.35124">
        <ele>208.2</ele>
        <time>2026-08-31T10:38:55Z</time>
      </trkpt>
      <trkpt lat="43.4478" lon="-0.35123">
        <ele>208.2</ele>
        <time>2026-08-31T10:38:55Z</time>
      </trkpt>
      <trkpt lat="43.4478" lon="-0.35122">
        <ele>208.2</ele>
        <time>2026-08-31T10:38:56Z</time>
      </trkpt>
      <trkpt lat="43.4478" lon="-0.35121">
        <ele>208.2</ele>
        <time>2026-08-31T10:38:57Z</time>
      </trkpt>
      <trkpt lat="43.4478" lon="-0.3512">
        <ele>208.2</ele>
        <time>2026-08-31T10:38:57Z</time>
      </trkpt>
      <trkpt lat="43.44779" lon="-0.35119">
        <ele>208.2</ele>
        <time>2026-08-31T10:38:58Z</time>
      </trkpt>
      <trkpt lat="43.44779" lon="-0.35118">
        <ele>208.2</ele>
        <time>2026-08-31T10:38:58Z</time>
      </trkpt>
      <trkpt lat="43.44779" lon="-0.35117">
        <ele>208.2</ele>
        <time>2026-08-31T10:38:59Z</time>
      </trkpt>
      <trkpt lat="43.44779" lon="-0.35117">
        <ele>207.2</ele>
        <time>2026-08-31T10:38:59Z</time>
      </trkpt>
      <trkpt lat="43.44779" lon="-0.35116">
        <ele>207.2</ele>
        <time>2026-08-31T10:39:00Z</time>
      </trkpt>
      <trkpt lat="43.44779" lon="-0.35115">
        <ele>207.2</ele>
        <time>2026-08-31T10:39:00Z</time>
      </trkpt>
      <trkpt lat="43.44779" lon="-0.35114">
        <ele>207.2</ele>
        <time>2026-08-31T10:39:01Z</time>
      </trkpt>
      <trkpt lat="43.44779" lon="-0.35113">
        <ele>207.2</ele>
        <time>2026-08-31T10:39:01Z</time>
      </trkpt>
      <trkpt lat="43.44779" lon="-0.35112">
        <ele>207.2</ele>
        <time>2026-08-31T10:39:02Z</time>
      </trkpt>
      <trkpt lat="43.44779" lon="-0.35111">
        <ele>207.2</ele>
        <time>2026-08-31T10:39:03Z</time>
      </trkpt>
      <trkpt lat="43.44779" lon="-0.3511">
        <ele>206.2</ele>
        <time>2026-08-31T10:39:03Z</time>
      </trkpt>
      <trkpt lat="43.44778" lon="-0.35109">
        <ele>206.2</ele>
        <time>2026-08-31T10:39:04Z</time>
      </trkpt>
      <trkpt lat="43.44778" lon="-0.35108">
        <ele>207.2</ele>
        <time>2026-08-31T10:39:04Z</time>
      </trkpt>
      <trkpt lat="43.44778" lon="-0.35107">
        <ele>207.2</ele>
        <time>2026-08-31T10:39:05Z</time>
      </trkpt>
      <trkpt lat="43.44778" lon="-0.35106">
        <ele>207.2</ele>
        <time>2026-08-31T10:39:05Z</time>
      </trkpt>
      <trkpt lat="43.44778" lon="-0.35106">
        <ele>207.2</ele>
        <time>2026-08-31T10:39:06Z</time>
      </trkpt>
      <trkpt lat="43.44777" lon="-0.35105">
        <ele>207.2</ele>
        <time>2026-08-31T10:39:06Z</time>
      </trkpt>
      <trkpt lat="43.44777" lon="-0.35104">
        <ele>207.2</ele>
        <time>2026-08-31T10:39:07Z</time>
      </trkpt>
      <trkpt lat="43.44777" lon="-0.35103">
        <ele>207.2</ele>
        <time>2026-08-31T10:39:07Z</time>
      </trkpt>
      <trkpt lat="43.44776" lon="-0.35102">
        <ele>207.2</ele>
        <time>2026-08-31T10:39:08Z</time>
      </trkpt>
      <trkpt lat="43.44776" lon="-0.35102">
        <ele>207.2</ele>
        <time>2026-08-31T10:39:08Z</time>
      </trkpt>
      <trkpt lat="43.44776" lon="-0.35101">
        <ele>208.2</ele>
        <time>2026-08-31T10:39:09Z</time>
      </trkpt>
      <trkpt lat="43.44775" lon="-0.351">
        <ele>208.2</ele>
        <time>2026-08-31T10:39:10Z</time>
      </trkpt>
      <trkpt lat="43.44775" lon="-0.35099">
        <ele>208.2</ele>
        <time>2026-08-31T10:39:10Z</time>
      </trkpt>
      <trkpt lat="43.44775" lon="-0.35098">
        <ele>208.2</ele>
        <time>2026-08-31T10:39:11Z</time>
      </trkpt>
      <trkpt lat="43.44774" lon="-0.35097">
        <ele>208.2</ele>
        <time>2026-08-31T10:39:11Z</time>
      </trkpt>
      <trkpt lat="43.44774" lon="-0.35097">
        <ele>208.2</ele>
        <time>2026-08-31T10:39:12Z</time>
      </trkpt>
      <trkpt lat="43.44774" lon="-0.35095">
        <ele>208.2</ele>
        <time>2026-08-31T10:39:12Z</time>
      </trkpt>
      <trkpt lat="43.44773" lon="-0.35095">
        <ele>208.2</ele>
        <time>2026-08-31T10:39:13Z</time>
      </trkpt>
      <trkpt lat="43.44773" lon="-0.35094">
        <ele>208.2</ele>
        <time>2026-08-31T10:39:13Z</time>
      </trkpt>
      <trkpt lat="43.44772" lon="-0.35094">
        <ele>209.2</ele>
        <time>2026-08-31T10:39:14Z</time>
      </trkpt>
      <trkpt lat="43.44772" lon="-0.35093">
        <ele>209.2</ele>
        <time>2026-08-31T10:39:14Z</time>
      </trkpt>
      <trkpt lat="43.44771" lon="-0.35093">
        <ele>208.2</ele>
        <time>2026-08-31T10:39:15Z</time>
      </trkpt>
      <trkpt lat="43.44771" lon="-0.35092">
        <ele>208.2</ele>
        <time>2026-08-31T10:39:15Z</time>
      </trkpt>
      <trkpt lat="43.4477" lon="-0.35092">
        <ele>208.2</ele>
        <time>2026-08-31T10:39:16Z</time>
      </trkpt>
      <trkpt lat="43.4477" lon="-0.35091">
        <ele>208.2</ele>
        <time>2026-08-31T10:39:17Z</time>
      </trkpt>
      <trkpt lat="43.44769" lon="-0.35091">
        <ele>208.2</ele>
        <time>2026-08-31T10:39:17Z</time>
      </trkpt>
      <trkpt lat="43.44768" lon="-0.35091">
        <ele>208.2</ele>
        <time>2026-08-31T10:39:18Z</time>
      </trkpt>
      <trkpt lat="43.44768" lon="-0.3509">
        <ele>208.2</ele>
        <time>2026-08-31T10:39:18Z</time>
      </trkpt>
      <trkpt lat="43.44767" lon="-0.3509">
        <ele>208.2</ele>
        <time>2026-08-31T10:39:19Z</time>
      </trkpt>
      <trkpt lat="43.44767" lon="-0.35089">
        <ele>208.2</ele>
        <time>2026-08-31T10:39:19Z</time>
      </trkpt>
      <trkpt lat="43.44766" lon="-0.35089">
        <ele>208.2</ele>
        <time>2026-08-31T10:39:20Z</time>
      </trkpt>
      <trkpt lat="43.44766" lon="-0.35088">
        <ele>208.2</ele>
        <time>2026-08-31T10:39:20Z</time>
      </trkpt>
      <trkpt lat="43.44765" lon="-0.35088">
        <ele>208.2</ele>
        <time>2026-08-31T10:39:21Z</time>
      </trkpt>
      <trkpt lat="43.44764" lon="-0.35088">
        <ele>208.2</ele>
        <time>2026-08-31T10:39:21Z</time>
      </trkpt>
      <trkpt lat="43.44764" lon="-0.35087">
        <ele>208.2</ele>
        <time>2026-08-31T10:39:22Z</time>
      </trkpt>
      <trkpt lat="43.44763" lon="-0.35087">
        <ele>208.2</ele>
        <time>2026-08-31T10:39:22Z</time>
      </trkpt>
      <trkpt lat="43.44763" lon="-0.35087">
        <ele>208.2</ele>
        <time>2026-08-31T10:39:23Z</time>
      </trkpt>
      <trkpt lat="43.44762" lon="-0.35086">
        <ele>208.2</ele>
        <time>2026-08-31T10:39:24Z</time>
      </trkpt>
      <trkpt lat="43.44761" lon="-0.35086">
        <ele>208.2</ele>
        <time>2026-08-31T10:39:24Z</time>
      </trkpt>
      <trkpt lat="43.44761" lon="-0.35085">
        <ele>208.2</ele>
        <time>2026-08-31T10:39:25Z</time>
      </trkpt>
      <trkpt lat="43.4476" lon="-0.35085">
        <ele>208.2</ele>
        <time>2026-08-31T10:39:25Z</time>
      </trkpt>
      <trkpt lat="43.44759" lon="-0.35084">
        <ele>207.2</ele>
        <time>2026-08-31T10:39:26Z</time>
      </trkpt>
      <trkpt lat="43.44759" lon="-0.35084">
        <ele>207.2</ele>
        <time>2026-08-31T10:39:26Z</time>
      </trkpt>
      <trkpt lat="43.44758" lon="-0.35084">
        <ele>207.2</ele>
        <time>2026-08-31T10:39:27Z</time>
      </trkpt>
      <trkpt lat="43.44757" lon="-0.35084">
        <ele>207.2</ele>
        <time>2026-08-31T10:39:27Z</time>
      </trkpt>
      <trkpt lat="43.44757" lon="-0.35084">
        <ele>206.2</ele>
        <time>2026-08-31T10:39:28Z</time>
      </trkpt>
      <trkpt lat="43.44756" lon="-0.35083">
        <ele>206.2</ele>
        <time>2026-08-31T10:39:28Z</time>
      </trkpt>
      <trkpt lat="43.44756" lon="-0.35083">
        <ele>207.2</ele>
        <time>2026-08-31T10:39:29Z</time>
      </trkpt>
      <trkpt lat="43.44755" lon="-0.35082">
        <ele>207.2</ele>
        <time>2026-08-31T10:39:29Z</time>
      </trkpt>
      <trkpt lat="43.44755" lon="-0.35082">
        <ele>207.2</ele>
        <time>2026-08-31T10:39:30Z</time>
      </trkpt>
      <trkpt lat="43.44754" lon="-0.35081">
        <ele>207.2</ele>
        <time>2026-08-31T10:39:31Z</time>
      </trkpt>
      <trkpt lat="43.44753" lon="-0.35081">
        <ele>207.2</ele>
        <time>2026-08-31T10:39:31Z</time>
      </trkpt>
      <trkpt lat="43.44753" lon="-0.3508">
        <ele>207.2</ele>
        <time>2026-08-31T10:39:32Z</time>
      </trkpt>
      <trkpt lat="43.44752" lon="-0.3508">
        <ele>207.2</ele>
        <time>2026-08-31T10:39:32Z</time>
      </trkpt>
      <trkpt lat="43.44752" lon="-0.35079">
        <ele>207.2</ele>
        <time>2026-08-31T10:39:33Z</time>
      </trkpt>
      <trkpt lat="43.44751" lon="-0.35078">
        <ele>207.2</ele>
        <time>2026-08-31T10:39:33Z</time>
      </trkpt>
      <trkpt lat="43.44751" lon="-0.35078">
        <ele>207.2</ele>
        <time>2026-08-31T10:39:34Z</time>
      </trkpt>
      <trkpt lat="43.4475" lon="-0.35077">
        <ele>207.2</ele>
        <time>2026-08-31T10:39:34Z</time>
      </trkpt>
      <trkpt lat="43.4475" lon="-0.35076">
        <ele>207.2</ele>
        <time>2026-08-31T10:39:35Z</time>
      </trkpt>
      <trkpt lat="43.44749" lon="-0.35076">
        <ele>207.2</ele>
        <time>2026-08-31T10:39:35Z</time>
      </trkpt>
      <trkpt lat="43.44749" lon="-0.35075">
        <ele>207.2</ele>
        <time>2026-08-31T10:39:36Z</time>
      </trkpt>
      <trkpt lat="43.44748" lon="-0.35074">
        <ele>207.2</ele>
        <time>2026-08-31T10:39:37Z</time>
      </trkpt>
      <trkpt lat="43.44747" lon="-0.35074">
        <ele>207.2</ele>
        <time>2026-08-31T10:39:37Z</time>
      </trkpt>
      <trkpt lat="43.44747" lon="-0.35073">
        <ele>207.2</ele>
        <time>2026-08-31T10:39:38Z</time>
      </trkpt>
      <trkpt lat="43.44746" lon="-0.35072">
        <ele>207.2</ele>
        <time>2026-08-31T10:39:38Z</time>
      </trkpt>
      <trkpt lat="43.44746" lon="-0.35072">
        <ele>207.2</ele>
        <time>2026-08-31T10:39:39Z</time>
      </trkpt>
      <trkpt lat="43.44745" lon="-0.35071">
        <ele>207.2</ele>
        <time>2026-08-31T10:39:39Z</time>
      </trkpt>
      <trkpt lat="43.44745" lon="-0.35071">
        <ele>207.2</ele>
        <time>2026-08-31T10:39:40Z</time>
      </trkpt>
      <trkpt lat="43.44744" lon="-0.3507">
        <ele>207.2</ele>
        <time>2026-08-31T10:39:40Z</time>
      </trkpt>
      <trkpt lat="43.44744" lon="-0.3507">
        <ele>207.2</ele>
        <time>2026-08-31T10:39:41Z</time>
      </trkpt>
      <trkpt lat="43.44743" lon="-0.35069">
        <ele>207.2</ele>
        <time>2026-08-31T10:39:41Z</time>
      </trkpt>
      <trkpt lat="43.44743" lon="-0.35068">
        <ele>207.2</ele>
        <time>2026-08-31T10:39:42Z</time>
      </trkpt>
      <trkpt lat="43.44742" lon="-0.35068">
        <ele>207.2</ele>
        <time>2026-08-31T10:39:43Z</time>
      </trkpt>
      <trkpt lat="43.44741" lon="-0.35067">
        <ele>207.2</ele>
        <time>2026-08-31T10:39:43Z</time>
      </trkpt>
      <trkpt lat="43.44741" lon="-0.35067">
        <ele>207.2</ele>
        <time>2026-08-31T10:39:44Z</time>
      </trkpt>
      <trkpt lat="43.4474" lon="-0.35066">
        <ele>207.2</ele>
        <time>2026-08-31T10:39:44Z</time>
      </trkpt>
      <trkpt lat="43.4474" lon="-0.35065">
        <ele>207.2</ele>
        <time>2026-08-31T10:39:45Z</time>
      </trkpt>
      <trkpt lat="43.44739" lon="-0.35065">
        <ele>207.2</ele>
        <time>2026-08-31T10:39:45Z</time>
      </trkpt>
      <trkpt lat="43.44738" lon="-0.35065">
        <ele>207.2</ele>
        <time>2026-08-31T10:39:46Z</time>
      </trkpt>
      <trkpt lat="43.44738" lon="-0.35064">
        <ele>207.2</ele>
        <time>2026-08-31T10:39:46Z</time>
      </trkpt>
      <trkpt lat="43.44737" lon="-0.35064">
        <ele>207.2</ele>
        <time>2026-08-31T10:39:47Z</time>
      </trkpt>
      <trkpt lat="43.44736" lon="-0.35064">
        <ele>207.2</ele>
        <time>2026-08-31T10:39:47Z</time>
      </trkpt>
      <trkpt lat="43.44735" lon="-0.35064">
        <ele>208.2</ele>
        <time>2026-08-31T10:39:48Z</time>
      </trkpt>
      <trkpt lat="43.44734" lon="-0.35064">
        <ele>208.2</ele>
        <time>2026-08-31T10:39:48Z</time>
      </trkpt>
      <trkpt lat="43.44734" lon="-0.35064">
        <ele>208.2</ele>
        <time>2026-08-31T10:39:49Z</time>
      </trkpt>
      <trkpt lat="43.44733" lon="-0.35065">
        <ele>208.2</ele>
        <time>2026-08-31T10:39:49Z</time>
      </trkpt>
      <trkpt lat="43.44732" lon="-0.35065">
        <ele>208.2</ele>
        <time>2026-08-31T10:39:50Z</time>
      </trkpt>
      <trkpt lat="43.44732" lon="-0.35065">
        <ele>208.2</ele>
        <time>2026-08-31T10:39:50Z</time>
      </trkpt>
      <trkpt lat="43.44731" lon="-0.35066">
        <ele>208.2</ele>
        <time>2026-08-31T10:39:51Z</time>
      </trkpt>
      <trkpt lat="43.4473" lon="-0.35066">
        <ele>208.2</ele>
        <time>2026-08-31T10:39:52Z</time>
      </trkpt>
      <trkpt lat="43.4473" lon="-0.35067">
        <ele>209.2</ele>
        <time>2026-08-31T10:39:52Z</time>
      </trkpt>
      <trkpt lat="43.44729" lon="-0.35067">
        <ele>209.2</ele>
        <time>2026-08-31T10:39:53Z</time>
      </trkpt>
      <trkpt lat="43.44728" lon="-0.35068">
        <ele>209.2</ele>
        <time>2026-08-31T10:39:53Z</time>
      </trkpt>
      <trkpt lat="43.44728" lon="-0.35068">
        <ele>209.2</ele>
        <time>2026-08-31T10:39:54Z</time>
      </trkpt>
      <trkpt lat="43.44727" lon="-0.35068">
        <ele>209.2</ele>
        <time>2026-08-31T10:39:54Z</time>
      </trkpt>
      <trkpt lat="43.44726" lon="-0.35069">
        <ele>210.2</ele>
        <time>2026-08-31T10:39:55Z</time>
      </trkpt>
      <trkpt lat="43.44726" lon="-0.35069">
        <ele>210.2</ele>
        <time>2026-08-31T10:39:55Z</time>
      </trkpt>
      <trkpt lat="43.44725" lon="-0.3507">
        <ele>210.2</ele>
        <time>2026-08-31T10:39:56Z</time>
      </trkpt>
      <trkpt lat="43.44725" lon="-0.3507">
        <ele>210.2</ele>
        <time>2026-08-31T10:39:56Z</time>
      </trkpt>
      <trkpt lat="43.44724" lon="-0.3507">
        <ele>211.2</ele>
        <time>2026-08-31T10:39:57Z</time>
      </trkpt>
      <trkpt lat="43.44723" lon="-0.35071">
        <ele>211.2</ele>
        <time>2026-08-31T10:39:58Z</time>
      </trkpt>
      <trkpt lat="43.44723" lon="-0.35071">
        <ele>211.2</ele>
        <time>2026-08-31T10:39:58Z</time>
      </trkpt>
      <trkpt lat="43.44722" lon="-0.35071">
        <ele>211.2</ele>
        <time>2026-08-31T10:39:59Z</time>
      </trkpt>
      <trkpt lat="43.44722" lon="-0.35071">
        <ele>211.2</ele>
        <time>2026-08-31T10:39:59Z</time>
      </trkpt>
      <trkpt lat="43.44721" lon="-0.35071">
        <ele>211.2</ele>
        <time>2026-08-31T10:40:00Z</time>
      </trkpt>
      <trkpt lat="43.4472" lon="-0.35072">
        <ele>211.2</ele>
        <time>2026-08-31T10:40:00Z</time>
      </trkpt>
      <trkpt lat="43.4472" lon="-0.35072">
        <ele>211.2</ele>
        <time>2026-08-31T10:40:01Z</time>
      </trkpt>
      <trkpt lat="43.44719" lon="-0.35073">
        <ele>211.2</ele>
        <time>2026-08-31T10:40:01Z</time>
      </trkpt>
      <trkpt lat="43.44719" lon="-0.35073">
        <ele>211.2</ele>
        <time>2026-08-31T10:40:02Z</time>
      </trkpt>
      <trkpt lat="43.44718" lon="-0.35073">
        <ele>211.2</ele>
        <time>2026-08-31T10:40:03Z</time>
      </trkpt>
      <trkpt lat="43.44717" lon="-0.35074">
        <ele>212.2</ele>
        <time>2026-08-31T10:40:03Z</time>
      </trkpt>
      <trkpt lat="43.44717" lon="-0.35074">
        <ele>212.2</ele>
        <time>2026-08-31T10:40:04Z</time>
      </trkpt>
      <trkpt lat="43.44716" lon="-0.35075">
        <ele>212.2</ele>
        <time>2026-08-31T10:40:04Z</time>
      </trkpt>
      <trkpt lat="43.44716" lon="-0.35075">
        <ele>212.2</ele>
        <time>2026-08-31T10:40:05Z</time>
      </trkpt>
      <trkpt lat="43.44715" lon="-0.35076">
        <ele>212.2</ele>
        <time>2026-08-31T10:40:05Z</time>
      </trkpt>
      <trkpt lat="43.44715" lon="-0.35077">
        <ele>212.2</ele>
        <time>2026-08-31T10:40:06Z</time>
      </trkpt>
      <trkpt lat="43.44714" lon="-0.35077">
        <ele>212.2</ele>
        <time>2026-08-31T10:40:06Z</time>
      </trkpt>
      <trkpt lat="43.44714" lon="-0.35078">
        <ele>212.2</ele>
        <time>2026-08-31T10:40:07Z</time>
      </trkpt>
      <trkpt lat="43.44713" lon="-0.35078">
        <ele>212.2</ele>
        <time>2026-08-31T10:40:08Z</time>
      </trkpt>
      <trkpt lat="43.44713" lon="-0.35079">
        <ele>212.2</ele>
        <time>2026-08-31T10:40:08Z</time>
      </trkpt>
      <trkpt lat="43.44713" lon="-0.3508">
        <ele>212.2</ele>
        <time>2026-08-31T10:40:09Z</time>
      </trkpt>
      <trkpt lat="43.44712" lon="-0.3508">
        <ele>212.2</ele>
        <time>2026-08-31T10:40:09Z</time>
      </trkpt>
      <trkpt lat="43.44712" lon="-0.35081">
        <ele>212.2</ele>
        <time>2026-08-31T10:40:10Z</time>
      </trkpt>
      <trkpt lat="43.44711" lon="-0.35082">
        <ele>212.2</ele>
        <time>2026-08-31T10:40:10Z</time>
      </trkpt>
      <trkpt lat="43.44711" lon="-0.35082">
        <ele>212.2</ele>
        <time>2026-08-31T10:40:11Z</time>
      </trkpt>
      <trkpt lat="43.44711" lon="-0.35083">
        <ele>212.2</ele>
        <time>2026-08-31T10:40:11Z</time>
      </trkpt>
      <trkpt lat="43.4471" lon="-0.35084">
        <ele>212.2</ele>
        <time>2026-08-31T10:40:12Z</time>
      </trkpt>
      <trkpt lat="43.4471" lon="-0.35084">
        <ele>212.2</ele>
        <time>2026-08-31T10:40:13Z</time>
      </trkpt>
      <trkpt lat="43.44709" lon="-0.35085">
        <ele>212.2</ele>
        <time>2026-08-31T10:40:13Z</time>
      </trkpt>
      <trkpt lat="43.44709" lon="-0.35086">
        <ele>212.2</ele>
        <time>2026-08-31T10:40:14Z</time>
      </trkpt>
      <trkpt lat="43.44708" lon="-0.35086">
        <ele>213.2</ele>
        <time>2026-08-31T10:40:14Z</time>
      </trkpt>
      <trkpt lat="43.44708" lon="-0.35087">
        <ele>213.2</ele>
        <time>2026-08-31T10:40:15Z</time>
      </trkpt>
      <trkpt lat="43.44708" lon="-0.35088">
        <ele>213.2</ele>
        <time>2026-08-31T10:40:15Z</time>
      </trkpt>
      <trkpt lat="43.44707" lon="-0.35088">
        <ele>213.2</ele>
        <time>2026-08-31T10:40:16Z</time>
      </trkpt>
      <trkpt lat="43.44707" lon="-0.35089">
        <ele>213.2</ele>
        <time>2026-08-31T10:40:16Z</time>
      </trkpt>
      <trkpt lat="43.44706" lon="-0.3509">
        <ele>212.2</ele>
        <time>2026-08-31T10:40:17Z</time>
      </trkpt>
      <trkpt lat="43.44706" lon="-0.3509">
        <ele>212.2</ele>
        <time>2026-08-31T10:40:18Z</time>
      </trkpt>
      <trkpt lat="43.44705" lon="-0.35091">
        <ele>212.2</ele>
        <time>2026-08-31T10:40:18Z</time>
      </trkpt>
      <trkpt lat="43.44705" lon="-0.35092">
        <ele>212.2</ele>
        <time>2026-08-31T10:40:19Z</time>
      </trkpt>
      <trkpt lat="43.44705" lon="-0.35093">
        <ele>212.2</ele>
        <time>2026-08-31T10:40:19Z</time>
      </trkpt>
      <trkpt lat="43.44704" lon="-0.35093">
        <ele>213.2</ele>
        <time>2026-08-31T10:40:20Z</time>
      </trkpt>
      <trkpt lat="43.44704" lon="-0.35094">
        <ele>213.2</ele>
        <time>2026-08-31T10:40:20Z</time>
      </trkpt>
      <trkpt lat="43.44704" lon="-0.35095">
        <ele>213.2</ele>
        <time>2026-08-31T10:40:21Z</time>
      </trkpt>
      <trkpt lat="43.44703" lon="-0.35095">
        <ele>213.2</ele>
        <time>2026-08-31T10:40:21Z</time>
      </trkpt>
      <trkpt lat="43.44703" lon="-0.35096">
        <ele>212.2</ele>
        <time>2026-08-31T10:40:22Z</time>
      </trkpt>
      <trkpt lat="43.44702" lon="-0.35097">
        <ele>212.2</ele>
        <time>2026-08-31T10:40:23Z</time>
      </trkpt>
      <trkpt lat="43.44702" lon="-0.35097">
        <ele>212.2</ele>
        <time>2026-08-31T10:40:23Z</time>
      </trkpt>
      <trkpt lat="43.44702" lon="-0.35098">
        <ele>212.2</ele>
        <time>2026-08-31T10:40:24Z</time>
      </trkpt>
      <trkpt lat="43.44701" lon="-0.35099">
        <ele>213.2</ele>
        <time>2026-08-31T10:40:24Z</time>
      </trkpt>
      <trkpt lat="43.44701" lon="-0.35099">
        <ele>213.2</ele>
        <time>2026-08-31T10:40:25Z</time>
      </trkpt>
      <trkpt lat="43.447" lon="-0.351">
        <ele>213.2</ele>
        <time>2026-08-31T10:40:25Z</time>
      </trkpt>
      <trkpt lat="43.447" lon="-0.351">
        <ele>213.2</ele>
        <time>2026-08-31T10:40:26Z</time>
      </trkpt>
      <trkpt lat="43.44699" lon="-0.35101">
        <ele>213.2</ele>
        <time>2026-08-31T10:40:26Z</time>
      </trkpt>
      <trkpt lat="43.44699" lon="-0.35102">
        <ele>213.2</ele>
        <time>2026-08-31T10:40:27Z</time>
      </trkpt>
      <trkpt lat="43.44698" lon="-0.35102">
        <ele>213.2</ele>
        <time>2026-08-31T10:40:28Z</time>
      </trkpt>
      <trkpt lat="43.44698" lon="-0.35103">
        <ele>213.2</ele>
        <time>2026-08-31T10:40:28Z</time>
      </trkpt>
      <trkpt lat="43.44698" lon="-0.35104">
        <ele>213.2</ele>
        <time>2026-08-31T10:40:29Z</time>
      </trkpt>
      <trkpt lat="43.44697" lon="-0.35104">
        <ele>213.2</ele>
        <time>2026-08-31T10:40:29Z</time>
      </trkpt>
      <trkpt lat="43.44697" lon="-0.35105">
        <ele>213.2</ele>
        <time>2026-08-31T10:40:30Z</time>
      </trkpt>
      <trkpt lat="43.44696" lon="-0.35106">
        <ele>213.2</ele>
        <time>2026-08-31T10:40:30Z</time>
      </trkpt>
      <trkpt lat="43.44696" lon="-0.35106">
        <ele>213.2</ele>
        <time>2026-08-31T10:40:31Z</time>
      </trkpt>
      <trkpt lat="43.44696" lon="-0.35107">
        <ele>213.2</ele>
        <time>2026-08-31T10:40:31Z</time>
      </trkpt>
      <trkpt lat="43.44695" lon="-0.35108">
        <ele>214.2</ele>
        <time>2026-08-31T10:40:32Z</time>
      </trkpt>
      <trkpt lat="43.44695" lon="-0.35109">
        <ele>214.2</ele>
        <time>2026-08-31T10:40:33Z</time>
      </trkpt>
      <trkpt lat="43.44694" lon="-0.3511">
        <ele>215.2</ele>
        <time>2026-08-31T10:40:33Z</time>
      </trkpt>
      <trkpt lat="43.44694" lon="-0.3511">
        <ele>215.2</ele>
        <time>2026-08-31T10:40:34Z</time>
      </trkpt>
      <trkpt lat="43.44694" lon="-0.35111">
        <ele>215.2</ele>
        <time>2026-08-31T10:40:34Z</time>
      </trkpt>
      <trkpt lat="43.44693" lon="-0.35112">
        <ele>215.2</ele>
        <time>2026-08-31T10:40:35Z</time>
      </trkpt>
      <trkpt lat="43.44693" lon="-0.35113">
        <ele>215.2</ele>
        <time>2026-08-31T10:40:35Z</time>
      </trkpt>
      <trkpt lat="43.44693" lon="-0.35114">
        <ele>215.2</ele>
        <time>2026-08-31T10:40:36Z</time>
      </trkpt>
      <trkpt lat="43.44692" lon="-0.35115">
        <ele>215.2</ele>
        <time>2026-08-31T10:40:37Z</time>
      </trkpt>
      <trkpt lat="43.44692" lon="-0.35115">
        <ele>215.2</ele>
        <time>2026-08-31T10:40:37Z</time>
      </trkpt>
      <trkpt lat="43.44691" lon="-0.35116">
        <ele>215.2</ele>
        <time>2026-08-31T10:40:38Z</time>
      </trkpt>
      <trkpt lat="43.44691" lon="-0.35117">
        <ele>215.2</ele>
        <time>2026-08-31T10:40:38Z</time>
      </trkpt>
      <trkpt lat="43.4469" lon="-0.35118">
        <ele>215.2</ele>
        <time>2026-08-31T10:40:39Z</time>
      </trkpt>
      <trkpt lat="43.4469" lon="-0.35118">
        <ele>215.2</ele>
        <time>2026-08-31T10:40:39Z</time>
      </trkpt>
      <trkpt lat="43.44689" lon="-0.35119">
        <ele>215.2</ele>
        <time>2026-08-31T10:40:40Z</time>
      </trkpt>
      <trkpt lat="43.44688" lon="-0.3512">
        <ele>215.2</ele>
        <time>2026-08-31T10:40:41Z</time>
      </trkpt>
      <trkpt lat="43.44688" lon="-0.35121">
        <ele>215.2</ele>
        <time>2026-08-31T10:40:41Z</time>
      </trkpt>
      <trkpt lat="43.44687" lon="-0.35122">
        <ele>215.2</ele>
        <time>2026-08-31T10:40:42Z</time>
      </trkpt>
      <trkpt lat="43.44687" lon="-0.35122">
        <ele>215.2</ele>
        <time>2026-08-31T10:40:42Z</time>
      </trkpt>
      <trkpt lat="43.44686" lon="-0.35123">
        <ele>216.2</ele>
        <time>2026-08-31T10:40:43Z</time>
      </trkpt>
      <trkpt lat="43.44685" lon="-0.35124">
        <ele>216.2</ele>
        <time>2026-08-31T10:40:43Z</time>
      </trkpt>
      <trkpt lat="43.44685" lon="-0.35125">
        <ele>216.2</ele>
        <time>2026-08-31T10:40:44Z</time>
      </trkpt>
      <trkpt lat="43.44684" lon="-0.35126">
        <ele>216.2</ele>
        <time>2026-08-31T10:40:44Z</time>
      </trkpt>
      <trkpt lat="43.44684" lon="-0.35126">
        <ele>216.2</ele>
        <time>2026-08-31T10:40:45Z</time>
      </trkpt>
      <trkpt lat="43.44683" lon="-0.35127">
        <ele>216.2</ele>
        <time>2026-08-31T10:40:46Z</time>
      </trkpt>
      <trkpt lat="43.44683" lon="-0.35128">
        <ele>216.2</ele>
        <time>2026-08-31T10:40:46Z</time>
      </trkpt>
      <trkpt lat="43.44682" lon="-0.35129">
        <ele>216.2</ele>
        <time>2026-08-31T10:40:47Z</time>
      </trkpt>
      <trkpt lat="43.44682" lon="-0.3513">
        <ele>216.2</ele>
        <time>2026-08-31T10:40:47Z</time>
      </trkpt>
      <trkpt lat="43.44681" lon="-0.3513">
        <ele>215.2</ele>
        <time>2026-08-31T10:40:48Z</time>
      </trkpt>
      <trkpt lat="43.44681" lon="-0.35131">
        <ele>215.2</ele>
        <time>2026-08-31T10:40:48Z</time>
      </trkpt>
      <trkpt lat="43.4468" lon="-0.35131">
        <ele>215.2</ele>
        <time>2026-08-31T10:40:49Z</time>
      </trkpt>
      <trkpt lat="43.44679" lon="-0.35132">
        <ele>215.2</ele>
        <time>2026-08-31T10:40:50Z</time>
      </trkpt>
      <trkpt lat="43.44679" lon="-0.35133">
        <ele>215.2</ele>
        <time>2026-08-31T10:40:50Z</time>
      </trkpt>
      <trkpt lat="43.44678" lon="-0.35134">
        <ele>215.2</ele>
        <time>2026-08-31T10:40:51Z</time>
      </trkpt>
      <trkpt lat="43.44678" lon="-0.35134">
        <ele>215.2</ele>
        <time>2026-08-31T10:40:51Z</time>
      </trkpt>
      <trkpt lat="43.44677" lon="-0.35135">
        <ele>215.2</ele>
        <time>2026-08-31T10:40:52Z</time>
      </trkpt>
      <trkpt lat="43.44677" lon="-0.35136">
        <ele>215.2</ele>
        <time>2026-08-31T10:40:52Z</time>
      </trkpt>
      <trkpt lat="43.44676" lon="-0.35137">
        <ele>215.2</ele>
        <time>2026-08-31T10:40:53Z</time>
      </trkpt>
      <trkpt lat="43.44676" lon="-0.35138">
        <ele>215.2</ele>
        <time>2026-08-31T10:40:54Z</time>
      </trkpt>
      <trkpt lat="43.44676" lon="-0.35138">
        <ele>215.2</ele>
        <time>2026-08-31T10:40:54Z</time>
      </trkpt>
      <trkpt lat="43.44675" lon="-0.35139">
        <ele>215.2</ele>
        <time>2026-08-31T10:40:55Z</time>
      </trkpt>
      <trkpt lat="43.44675" lon="-0.35139">
        <ele>215.2</ele>
        <time>2026-08-31T10:40:55Z</time>
      </trkpt>
      <trkpt lat="43.44674" lon="-0.3514">
        <ele>215.2</ele>
        <time>2026-08-31T10:40:56Z</time>
      </trkpt>
      <trkpt lat="43.44674" lon="-0.3514">
        <ele>215.2</ele>
        <time>2026-08-31T10:40:56Z</time>
      </trkpt>
      <trkpt lat="43.44674" lon="-0.35141">
        <ele>215.2</ele>
        <time>2026-08-31T10:40:57Z</time>
      </trkpt>
      <trkpt lat="43.44673" lon="-0.35142">
        <ele>215.2</ele>
        <time>2026-08-31T10:40:58Z</time>
      </trkpt>
      <trkpt lat="43.44673" lon="-0.35143">
        <ele>215.2</ele>
        <time>2026-08-31T10:40:58Z</time>
      </trkpt>
      <trkpt lat="43.44672" lon="-0.35143">
        <ele>215.2</ele>
        <time>2026-08-31T10:40:59Z</time>
      </trkpt>
      <trkpt lat="43.44672" lon="-0.35144">
        <ele>216.2</ele>
        <time>2026-08-31T10:40:59Z</time>
      </trkpt>
      <trkpt lat="43.44671" lon="-0.35145">
        <ele>217.2</ele>
        <time>2026-08-31T10:41:00Z</time>
      </trkpt>
      <trkpt lat="43.44671" lon="-0.35145">
        <ele>217.2</ele>
        <time>2026-08-31T10:41:00Z</time>
      </trkpt>
      <trkpt lat="43.4467" lon="-0.35146">
        <ele>217.2</ele>
        <time>2026-08-31T10:41:01Z</time>
      </trkpt>
      <trkpt lat="43.4467" lon="-0.35146">
        <ele>217.2</ele>
        <time>2026-08-31T10:41:02Z</time>
      </trkpt>
      <trkpt lat="43.44669" lon="-0.35147">
        <ele>217.2</ele>
        <time>2026-08-31T10:41:02Z</time>
      </trkpt>
      <trkpt lat="43.44669" lon="-0.35147">
        <ele>217.2</ele>
        <time>2026-08-31T10:41:03Z</time>
      </trkpt>
      <trkpt lat="43.44668" lon="-0.35148">
        <ele>218.2</ele>
        <time>2026-08-31T10:41:03Z</time>
      </trkpt>
      <trkpt lat="43.44668" lon="-0.35148">
        <ele>218.2</ele>
        <time>2026-08-31T10:41:04Z</time>
      </trkpt>
      <trkpt lat="43.44667" lon="-0.35149">
        <ele>218.2</ele>
        <time>2026-08-31T10:41:04Z</time>
      </trkpt>
      <trkpt lat="43.44667" lon="-0.35149">
        <ele>218.2</ele>
        <time>2026-08-31T10:41:05Z</time>
      </trkpt>
      <trkpt lat="43.44666" lon="-0.3515">
        <ele>218.2</ele>
        <time>2026-08-31T10:41:06Z</time>
      </trkpt>
      <trkpt lat="43.44666" lon="-0.35151">
        <ele>219.2</ele>
        <time>2026-08-31T10:41:06Z</time>
      </trkpt>
      <trkpt lat="43.44665" lon="-0.35152">
        <ele>219.2</ele>
        <time>2026-08-31T10:41:07Z</time>
      </trkpt>
      <trkpt lat="43.44665" lon="-0.35152">
        <ele>220.2</ele>
        <time>2026-08-31T10:41:07Z</time>
      </trkpt>
      <trkpt lat="43.44665" lon="-0.35153">
        <ele>219.2</ele>
        <time>2026-08-31T10:41:08Z</time>
      </trkpt>
      <trkpt lat="43.44664" lon="-0.35153">
        <ele>219.2</ele>
        <time>2026-08-31T10:41:08Z</time>
      </trkpt>
      <trkpt lat="43.44664" lon="-0.35154">
        <ele>219.2</ele>
        <time>2026-08-31T10:41:09Z</time>
      </trkpt>
      <trkpt lat="43.44663" lon="-0.35154">
        <ele>219.2</ele>
        <time>2026-08-31T10:41:09Z</time>
      </trkpt>
      <trkpt lat="43.44663" lon="-0.35155">
        <ele>219.2</ele>
        <time>2026-08-31T10:41:10Z</time>
      </trkpt>
      <trkpt lat="43.44662" lon="-0.35156">
        <ele>219.2</ele>
        <time>2026-08-31T10:41:11Z</time>
      </trkpt>
      <trkpt lat="43.44662" lon="-0.35156">
        <ele>219.2</ele>
        <time>2026-08-31T10:41:11Z</time>
      </trkpt>
      <trkpt lat="43.44661" lon="-0.35157">
        <ele>219.2</ele>
        <time>2026-08-31T10:41:12Z</time>
      </trkpt>
      <trkpt lat="43.44661" lon="-0.35158">
        <ele>219.2</ele>
        <time>2026-08-31T10:41:12Z</time>
      </trkpt>
      <trkpt lat="43.4466" lon="-0.35158">
        <ele>219.2</ele>
        <time>2026-08-31T10:41:13Z</time>
      </trkpt>
      <trkpt lat="43.4466" lon="-0.35159">
        <ele>219.2</ele>
        <time>2026-08-31T10:41:13Z</time>
      </trkpt>
      <trkpt lat="43.44659" lon="-0.3516">
        <ele>219.2</ele>
        <time>2026-08-31T10:41:14Z</time>
      </trkpt>
      <trkpt lat="43.44659" lon="-0.3516">
        <ele>219.2</ele>
        <time>2026-08-31T10:41:15Z</time>
      </trkpt>
      <trkpt lat="43.44659" lon="-0.35161">
        <ele>219.2</ele>
        <time>2026-08-31T10:41:15Z</time>
      </trkpt>
      <trkpt lat="43.44658" lon="-0.35162">
        <ele>220.2</ele>
        <time>2026-08-31T10:41:16Z</time>
      </trkpt>
      <trkpt lat="43.44658" lon="-0.35162">
        <ele>220.2</ele>
        <time>2026-08-31T10:41:16Z</time>
      </trkpt>
      <trkpt lat="43.44658" lon="-0.35163">
        <ele>220.2</ele>
        <time>2026-08-31T10:41:17Z</time>
      </trkpt>
      <trkpt lat="43.44657" lon="-0.35164">
        <ele>220.2</ele>
        <time>2026-08-31T10:41:17Z</time>
      </trkpt>
      <trkpt lat="43.44657" lon="-0.35165">
        <ele>219.2</ele>
        <time>2026-08-31T10:41:18Z</time>
      </trkpt>
      <trkpt lat="43.44656" lon="-0.35165">
        <ele>219.2</ele>
        <time>2026-08-31T10:41:19Z</time>
      </trkpt>
      <trkpt lat="43.44656" lon="-0.35166">
        <ele>219.2</ele>
        <time>2026-08-31T10:41:19Z</time>
      </trkpt>
      <trkpt lat="43.44656" lon="-0.35167">
        <ele>219.2</ele>
        <time>2026-08-31T10:41:20Z</time>
      </trkpt>
      <trkpt lat="43.44655" lon="-0.35168">
        <ele>219.2</ele>
        <time>2026-08-31T10:41:20Z</time>
      </trkpt>
      <trkpt lat="43.44655" lon="-0.35168">
        <ele>219.2</ele>
        <time>2026-08-31T10:41:21Z</time>
      </trkpt>
      <trkpt lat="43.44655" lon="-0.35169">
        <ele>219.2</ele>
        <time>2026-08-31T10:41:22Z</time>
      </trkpt>
      <trkpt lat="43.44654" lon="-0.3517">
        <ele>219.2</ele>
        <time>2026-08-31T10:41:22Z</time>
      </trkpt>
      <trkpt lat="43.44654" lon="-0.35171">
        <ele>219.2</ele>
        <time>2026-08-31T10:41:23Z</time>
      </trkpt>
      <trkpt lat="43.44653" lon="-0.35171">
        <ele>219.2</ele>
        <time>2026-08-31T10:41:23Z</time>
      </trkpt>
      <trkpt lat="43.44653" lon="-0.35172">
        <ele>219.2</ele>
        <time>2026-08-31T10:41:24Z</time>
      </trkpt>
      <trkpt lat="43.44653" lon="-0.35172">
        <ele>219.2</ele>
        <time>2026-08-31T10:41:24Z</time>
      </trkpt>
      <trkpt lat="43.44652" lon="-0.35173">
        <ele>219.2</ele>
        <time>2026-08-31T10:41:25Z</time>
      </trkpt>
      <trkpt lat="43.44652" lon="-0.35174">
        <ele>219.2</ele>
        <time>2026-08-31T10:41:26Z</time>
      </trkpt>
      <trkpt lat="43.44652" lon="-0.35175">
        <ele>219.2</ele>
        <time>2026-08-31T10:41:26Z</time>
      </trkpt>
      <trkpt lat="43.44651" lon="-0.35175">
        <ele>219.2</ele>
        <time>2026-08-31T10:41:27Z</time>
      </trkpt>
      <trkpt lat="43.44651" lon="-0.35176">
        <ele>218.2</ele>
        <time>2026-08-31T10:41:27Z</time>
      </trkpt>
      <trkpt lat="43.4465" lon="-0.35176">
        <ele>219.2</ele>
        <time>2026-08-31T10:41:28Z</time>
      </trkpt>
      <trkpt lat="43.4465" lon="-0.35177">
        <ele>219.2</ele>
        <time>2026-08-31T10:41:28Z</time>
      </trkpt>
      <trkpt lat="43.4465" lon="-0.35178">
        <ele>219.2</ele>
        <time>2026-08-31T10:41:29Z</time>
      </trkpt>
      <trkpt lat="43.44649" lon="-0.35178">
        <ele>219.2</ele>
        <time>2026-08-31T10:41:30Z</time>
      </trkpt>
      <trkpt lat="43.44649" lon="-0.35179">
        <ele>218.2</ele>
        <time>2026-08-31T10:41:30Z</time>
      </trkpt>
      <trkpt lat="43.44648" lon="-0.3518">
        <ele>218.2</ele>
        <time>2026-08-31T10:41:31Z</time>
      </trkpt>
      <trkpt lat="43.44648" lon="-0.3518">
        <ele>218.2</ele>
        <time>2026-08-31T10:41:31Z</time>
      </trkpt>
      <trkpt lat="43.44648" lon="-0.35181">
        <ele>218.2</ele>
        <time>2026-08-31T10:41:32Z</time>
      </trkpt>
      <trkpt lat="43.44647" lon="-0.35182">
        <ele>218.2</ele>
        <time>2026-08-31T10:41:32Z</time>
      </trkpt>
      <trkpt lat="43.44647" lon="-0.35182">
        <ele>218.2</ele>
        <time>2026-08-31T10:41:33Z</time>
      </trkpt>
      <trkpt lat="43.44646" lon="-0.35183">
        <ele>218.2</ele>
        <time>2026-08-31T10:41:33Z</time>
      </trkpt>
      <trkpt lat="43.44646" lon="-0.35184">
        <ele>218.2</ele>
        <time>2026-08-31T10:41:34Z</time>
      </trkpt>
      <trkpt lat="43.44645" lon="-0.35184">
        <ele>218.2</ele>
        <time>2026-08-31T10:41:35Z</time>
      </trkpt>
      <trkpt lat="43.44645" lon="-0.35185">
        <ele>218.2</ele>
        <time>2026-08-31T10:41:35Z</time>
      </trkpt>
      <trkpt lat="43.44645" lon="-0.35185">
        <ele>218.2</ele>
        <time>2026-08-31T10:41:36Z</time>
      </trkpt>
      <trkpt lat="43.44644" lon="-0.35186">
        <ele>218.2</ele>
        <time>2026-08-31T10:41:36Z</time>
      </trkpt>
      <trkpt lat="43.44644" lon="-0.35186">
        <ele>218.2</ele>
        <time>2026-08-31T10:41:37Z</time>
      </trkpt>
      <trkpt lat="43.44643" lon="-0.35187">
        <ele>218.2</ele>
        <time>2026-08-31T10:41:37Z</time>
      </trkpt>
      <trkpt lat="43.44643" lon="-0.35187">
        <ele>217.2</ele>
        <time>2026-08-31T10:41:38Z</time>
      </trkpt>
      <trkpt lat="43.44642" lon="-0.35188">
        <ele>217.2</ele>
        <time>2026-08-31T10:41:39Z</time>
      </trkpt>
      <trkpt lat="43.44641" lon="-0.35188">
        <ele>217.2</ele>
        <time>2026-08-31T10:41:39Z</time>
      </trkpt>
      <trkpt lat="43.44641" lon="-0.35188">
        <ele>217.2</ele>
        <time>2026-08-31T10:41:40Z</time>
      </trkpt>
      <trkpt lat="43.44641" lon="-0.35189">
        <ele>217.2</ele>
        <time>2026-08-31T10:41:40Z</time>
      </trkpt>
      <trkpt lat="43.4464" lon="-0.35189">
        <ele>217.2</ele>
        <time>2026-08-31T10:41:41Z</time>
      </trkpt>
      <trkpt lat="43.4464" lon="-0.3519">
        <ele>217.2</ele>
        <time>2026-08-31T10:41:41Z</time>
      </trkpt>
      <trkpt lat="43.44639" lon="-0.35191">
        <ele>217.2</ele>
        <time>2026-08-31T10:41:42Z</time>
      </trkpt>
      <trkpt lat="43.44639" lon="-0.35191">
        <ele>217.2</ele>
        <time>2026-08-31T10:41:43Z</time>
      </trkpt>
      <trkpt lat="43.44638" lon="-0.35192">
        <ele>217.2</ele>
        <time>2026-08-31T10:41:43Z</time>
      </trkpt>
      <trkpt lat="43.44638" lon="-0.35193">
        <ele>217.2</ele>
        <time>2026-08-31T10:41:44Z</time>
      </trkpt>
      <trkpt lat="43.44638" lon="-0.35194">
        <ele>217.2</ele>
        <time>2026-08-31T10:41:44Z</time>
      </trkpt>
      <trkpt lat="43.44637" lon="-0.35195">
        <ele>216.2</ele>
        <time>2026-08-31T10:41:45Z</time>
      </trkpt>
      <trkpt lat="43.44637" lon="-0.35195">
        <ele>216.2</ele>
        <time>2026-08-31T10:41:45Z</time>
      </trkpt>
      <trkpt lat="43.44637" lon="-0.35196">
        <ele>216.2</ele>
        <time>2026-08-31T10:41:46Z</time>
      </trkpt>
      <trkpt lat="43.44636" lon="-0.35197">
        <ele>216.2</ele>
        <time>2026-08-31T10:41:47Z</time>
      </trkpt>
      <trkpt lat="43.44636" lon="-0.35198">
        <ele>215.2</ele>
        <time>2026-08-31T10:41:48Z</time>
      </trkpt>
      <trkpt lat="43.44635" lon="-0.35199">
        <ele>215.2</ele>
        <time>2026-08-31T10:41:48Z</time>
      </trkpt>
      <trkpt lat="43.44635" lon="-0.352">
        <ele>216.2</ele>
        <time>2026-08-31T10:41:49Z</time>
      </trkpt>
      <trkpt lat="43.44635" lon="-0.35201">
        <ele>216.2</ele>
        <time>2026-08-31T10:41:49Z</time>
      </trkpt>
      <trkpt lat="43.44634" lon="-0.35201">
        <ele>216.2</ele>
        <time>2026-08-31T10:41:50Z</time>
      </trkpt>
      <trkpt lat="43.44634" lon="-0.35202">
        <ele>216.2</ele>
        <time>2026-08-31T10:41:51Z</time>
      </trkpt>
      <trkpt lat="43.44634" lon="-0.35203">
        <ele>216.2</ele>
        <time>2026-08-31T10:41:51Z</time>
      </trkpt>
      <trkpt lat="43.44634" lon="-0.35203">
        <ele>216.2</ele>
        <time>2026-08-31T10:41:52Z</time>
      </trkpt>
      <trkpt lat="43.44633" lon="-0.35204">
        <ele>216.2</ele>
        <time>2026-08-31T10:41:52Z</time>
      </trkpt>
      <trkpt lat="43.44633" lon="-0.35205">
        <ele>215.2</ele>
        <time>2026-08-31T10:41:53Z</time>
      </trkpt>
      <trkpt lat="43.44633" lon="-0.35206">
        <ele>215.2</ele>
        <time>2026-08-31T10:41:54Z</time>
      </trkpt>
      <trkpt lat="43.44633" lon="-0.35207">
        <ele>215.2</ele>
        <time>2026-08-31T10:41:54Z</time>
      </trkpt>
      <trkpt lat="43.44632" lon="-0.35207">
        <ele>215.2</ele>
        <time>2026-08-31T10:41:55Z</time>
      </trkpt>
      <trkpt lat="43.44632" lon="-0.35208">
        <ele>215.2</ele>
        <time>2026-08-31T10:41:55Z</time>
      </trkpt>
      <trkpt lat="43.44632" lon="-0.35208">
        <ele>215.2</ele>
        <time>2026-08-31T10:41:56Z</time>
      </trkpt>
      <trkpt lat="43.44631" lon="-0.35209">
        <ele>215.2</ele>
        <time>2026-08-31T10:41:56Z</time>
      </trkpt>
      <trkpt lat="43.44631" lon="-0.3521">
        <ele>215.2</ele>
        <time>2026-08-31T10:41:57Z</time>
      </trkpt>
      <trkpt lat="43.44631" lon="-0.35211">
        <ele>215.2</ele>
        <time>2026-08-31T10:41:57Z</time>
      </trkpt>
      <trkpt lat="43.44631" lon="-0.35212">
        <ele>215.2</ele>
        <time>2026-08-31T10:41:58Z</time>
      </trkpt>
      <trkpt lat="43.4463" lon="-0.35213">
        <ele>215.2</ele>
        <time>2026-08-31T10:41:59Z</time>
      </trkpt>
      <trkpt lat="43.4463" lon="-0.35213">
        <ele>215.2</ele>
        <time>2026-08-31T10:41:59Z</time>
      </trkpt>
      <trkpt lat="43.4463" lon="-0.35214">
        <ele>216.2</ele>
        <time>2026-08-31T10:42:00Z</time>
      </trkpt>
      <trkpt lat="43.4463" lon="-0.35215">
        <ele>216.2</ele>
        <time>2026-08-31T10:42:00Z</time>
      </trkpt>
      <trkpt lat="43.4463" lon="-0.35216">
        <ele>216.2</ele>
        <time>2026-08-31T10:42:01Z</time>
      </trkpt>
      <trkpt lat="43.44629" lon="-0.35217">
        <ele>216.2</ele>
        <time>2026-08-31T10:42:01Z</time>
      </trkpt>
      <trkpt lat="43.44629" lon="-0.35218">
        <ele>216.2</ele>
        <time>2026-08-31T10:42:02Z</time>
      </trkpt>
      <trkpt lat="43.44629" lon="-0.35219">
        <ele>216.2</ele>
        <time>2026-08-31T10:42:03Z</time>
      </trkpt>
      <trkpt lat="43.44629" lon="-0.35219">
        <ele>216.2</ele>
        <time>2026-08-31T10:42:03Z</time>
      </trkpt>
      <trkpt lat="43.44628" lon="-0.3522">
        <ele>216.2</ele>
        <time>2026-08-31T10:42:04Z</time>
      </trkpt>
      <trkpt lat="43.44628" lon="-0.35221">
        <ele>216.2</ele>
        <time>2026-08-31T10:42:04Z</time>
      </trkpt>
      <trkpt lat="43.44628" lon="-0.35221">
        <ele>215.2</ele>
        <time>2026-08-31T10:42:05Z</time>
      </trkpt>
      <trkpt lat="43.44628" lon="-0.35222">
        <ele>215.2</ele>
        <time>2026-08-31T10:42:05Z</time>
      </trkpt>
      <trkpt lat="43.44627" lon="-0.35223">
        <ele>215.2</ele>
        <time>2026-08-31T10:42:06Z</time>
      </trkpt>
      <trkpt lat="43.44627" lon="-0.35224">
        <ele>215.2</ele>
        <time>2026-08-31T10:42:07Z</time>
      </trkpt>
      <trkpt lat="43.44627" lon="-0.35225">
        <ele>215.2</ele>
        <time>2026-08-31T10:42:07Z</time>
      </trkpt>
      <trkpt lat="43.44627" lon="-0.35225">
        <ele>215.2</ele>
        <time>2026-08-31T10:42:08Z</time>
      </trkpt>
      <trkpt lat="43.44626" lon="-0.35226">
        <ele>215.2</ele>
        <time>2026-08-31T10:42:08Z</time>
      </trkpt>
      <trkpt lat="43.44626" lon="-0.35227">
        <ele>215.2</ele>
        <time>2026-08-31T10:42:09Z</time>
      </trkpt>
      <trkpt lat="43.44626" lon="-0.35228">
        <ele>215.2</ele>
        <time>2026-08-31T10:42:10Z</time>
      </trkpt>
      <trkpt lat="43.44625" lon="-0.35229">
        <ele>215.2</ele>
        <time>2026-08-31T10:42:10Z</time>
      </trkpt>
      <trkpt lat="43.44625" lon="-0.3523">
        <ele>215.2</ele>
        <time>2026-08-31T10:42:11Z</time>
      </trkpt>
      <trkpt lat="43.44625" lon="-0.3523">
        <ele>215.2</ele>
        <time>2026-08-31T10:42:11Z</time>
      </trkpt>
      <trkpt lat="43.44624" lon="-0.35231">
        <ele>215.2</ele>
        <time>2026-08-31T10:42:12Z</time>
      </trkpt>
      <trkpt lat="43.44624" lon="-0.35232">
        <ele>215.2</ele>
        <time>2026-08-31T10:42:12Z</time>
      </trkpt>
      <trkpt lat="43.44624" lon="-0.35233">
        <ele>216.2</ele>
        <time>2026-08-31T10:42:13Z</time>
      </trkpt>
      <trkpt lat="43.44623" lon="-0.35234">
        <ele>216.2</ele>
        <time>2026-08-31T10:42:14Z</time>
      </trkpt>
      <trkpt lat="43.44623" lon="-0.35235">
        <ele>216.2</ele>
        <time>2026-08-31T10:42:14Z</time>
      </trkpt>
      <trkpt lat="43.44623" lon="-0.35235">
        <ele>216.2</ele>
        <time>2026-08-31T10:42:15Z</time>
      </trkpt>
      <trkpt lat="43.44622" lon="-0.35236">
        <ele>216.2</ele>
        <time>2026-08-31T10:42:15Z</time>
      </trkpt>
      <trkpt lat="43.44622" lon="-0.35237">
        <ele>216.2</ele>
        <time>2026-08-31T10:42:16Z</time>
      </trkpt>
      <trkpt lat="43.44622" lon="-0.35238">
        <ele>216.2</ele>
        <time>2026-08-31T10:42:17Z</time>
      </trkpt>
      <trkpt lat="43.44621" lon="-0.35239">
        <ele>215.2</ele>
        <time>2026-08-31T10:42:17Z</time>
      </trkpt>
      <trkpt lat="43.44621" lon="-0.3524">
        <ele>215.2</ele>
        <time>2026-08-31T10:42:18Z</time>
      </trkpt>
      <trkpt lat="43.44621" lon="-0.3524">
        <ele>215.2</ele>
        <time>2026-08-31T10:42:18Z</time>
      </trkpt>
      <trkpt lat="43.4462" lon="-0.35241">
        <ele>215.2</ele>
        <time>2026-08-31T10:42:19Z</time>
      </trkpt>
      <trkpt lat="43.4462" lon="-0.35242">
        <ele>215.2</ele>
        <time>2026-08-31T10:42:19Z</time>
      </trkpt>
      <trkpt lat="43.4462" lon="-0.35243">
        <ele>216.2</ele>
        <time>2026-08-31T10:42:20Z</time>
      </trkpt>
      <trkpt lat="43.44619" lon="-0.35244">
        <ele>216.2</ele>
        <time>2026-08-31T10:42:20Z</time>
      </trkpt>
      <trkpt lat="43.44619" lon="-0.35245">
        <ele>216.2</ele>
        <time>2026-08-31T10:42:21Z</time>
      </trkpt>
      <trkpt lat="43.44619" lon="-0.35245">
        <ele>216.2</ele>
        <time>2026-08-31T10:42:22Z</time>
      </trkpt>
      <trkpt lat="43.44618" lon="-0.35246">
        <ele>215.2</ele>
        <time>2026-08-31T10:42:22Z</time>
      </trkpt>
      <trkpt lat="43.44618" lon="-0.35247">
        <ele>215.2</ele>
        <time>2026-08-31T10:42:23Z</time>
      </trkpt>
      <trkpt lat="43.44618" lon="-0.35248">
        <ele>215.2</ele>
        <time>2026-08-31T10:42:23Z</time>
      </trkpt>
      <trkpt lat="43.44618" lon="-0.35249">
        <ele>215.2</ele>
        <time>2026-08-31T10:42:24Z</time>
      </trkpt>
      <trkpt lat="43.44617" lon="-0.3525">
        <ele>215.2</ele>
        <time>2026-08-31T10:42:25Z</time>
      </trkpt>
      <trkpt lat="43.44617" lon="-0.35251">
        <ele>215.2</ele>
        <time>2026-08-31T10:42:25Z</time>
      </trkpt>
      <trkpt lat="43.44617" lon="-0.35251">
        <ele>215.2</ele>
        <time>2026-08-31T10:42:26Z</time>
      </trkpt>
      <trkpt lat="43.44617" lon="-0.35252">
        <ele>215.2</ele>
        <time>2026-08-31T10:42:26Z</time>
      </trkpt>
      <trkpt lat="43.44616" lon="-0.35253">
        <ele>215.2</ele>
        <time>2026-08-31T10:42:27Z</time>
      </trkpt>
      <trkpt lat="43.44616" lon="-0.35254">
        <ele>215.2</ele>
        <time>2026-08-31T10:42:27Z</time>
      </trkpt>
      <trkpt lat="43.44616" lon="-0.35255">
        <ele>215.2</ele>
        <time>2026-08-31T10:42:28Z</time>
      </trkpt>
      <trkpt lat="43.44615" lon="-0.35256">
        <ele>215.2</ele>
        <time>2026-08-31T10:42:29Z</time>
      </trkpt>
      <trkpt lat="43.44615" lon="-0.35257">
        <ele>215.2</ele>
        <time>2026-08-31T10:42:29Z</time>
      </trkpt>
      <trkpt lat="43.44615" lon="-0.35257">
        <ele>216.2</ele>
        <time>2026-08-31T10:42:30Z</time>
      </trkpt>
      <trkpt lat="43.44614" lon="-0.35258">
        <ele>216.2</ele>
        <time>2026-08-31T10:42:30Z</time>
      </trkpt>
      <trkpt lat="43.44613" lon="-0.35259">
        <ele>216.2</ele>
        <time>2026-08-31T10:42:32Z</time>
      </trkpt>
      <trkpt lat="43.44612" lon="-0.3526">
        <ele>215.2</ele>
        <time>2026-08-31T10:42:32Z</time>
      </trkpt>
      <trkpt lat="43.44612" lon="-0.3526">
        <ele>215.2</ele>
        <time>2026-08-31T10:42:33Z</time>
      </trkpt>
      <trkpt lat="43.44611" lon="-0.3526">
        <ele>215.2</ele>
        <time>2026-08-31T10:42:34Z</time>
      </trkpt>
      <trkpt lat="43.4461" lon="-0.35259">
        <ele>215.2</ele>
        <time>2026-08-31T10:42:35Z</time>
      </trkpt>
      <trkpt lat="43.44609" lon="-0.3526">
        <ele>216.2</ele>
        <time>2026-08-31T10:42:36Z</time>
      </trkpt>
      <trkpt lat="43.44609" lon="-0.3526">
        <ele>216.2</ele>
        <time>2026-08-31T10:42:36Z</time>
      </trkpt>
      <trkpt lat="43.4461" lon="-0.35261">
        <ele>216.2</ele>
        <time>2026-08-31T10:42:37Z</time>
      </trkpt>
      <trkpt lat="43.4461" lon="-0.35262">
        <ele>216.2</ele>
        <time>2026-08-31T10:42:38Z</time>
      </trkpt>
      <trkpt lat="43.4461" lon="-0.35262">
        <ele>216.2</ele>
        <time>2026-08-31T10:42:38Z</time>
      </trkpt>
      <trkpt lat="43.4461" lon="-0.35263">
        <ele>216.2</ele>
        <time>2026-08-31T10:42:39Z</time>
      </trkpt>
      <trkpt lat="43.4461" lon="-0.35264">
        <ele>216.2</ele>
        <time>2026-08-31T10:42:39Z</time>
      </trkpt>
      <trkpt lat="43.4461" lon="-0.35265">
        <ele>216.2</ele>
        <time>2026-08-31T10:42:40Z</time>
      </trkpt>
      <trkpt lat="43.4461" lon="-0.35266">
        <ele>216.2</ele>
        <time>2026-08-31T10:42:40Z</time>
      </trkpt>
      <trkpt lat="43.4461" lon="-0.35267">
        <ele>216.2</ele>
        <time>2026-08-31T10:42:41Z</time>
      </trkpt>
      <trkpt lat="43.4461" lon="-0.35268">
        <ele>216.2</ele>
        <time>2026-08-31T10:42:42Z</time>
      </trkpt>
      <trkpt lat="43.44609" lon="-0.35269">
        <ele>216.2</ele>
        <time>2026-08-31T10:42:42Z</time>
      </trkpt>
      <trkpt lat="43.44609" lon="-0.35269">
        <ele>216.2</ele>
        <time>2026-08-31T10:42:43Z</time>
      </trkpt>
      <trkpt lat="43.44609" lon="-0.3527">
        <ele>216.2</ele>
        <time>2026-08-31T10:42:43Z</time>
      </trkpt>
      <trkpt lat="43.44609" lon="-0.35271">
        <ele>215.2</ele>
        <time>2026-08-31T10:42:44Z</time>
      </trkpt>
      <trkpt lat="43.44609" lon="-0.35272">
        <ele>215.2</ele>
        <time>2026-08-31T10:42:45Z</time>
      </trkpt>
      <trkpt lat="43.44609" lon="-0.35273">
        <ele>216.2</ele>
        <time>2026-08-31T10:42:45Z</time>
      </trkpt>
      <trkpt lat="43.44608" lon="-0.35274">
        <ele>216.2</ele>
        <time>2026-08-31T10:42:46Z</time>
      </trkpt>
      <trkpt lat="43.44608" lon="-0.35274">
        <ele>216.2</ele>
        <time>2026-08-31T10:42:46Z</time>
      </trkpt>
      <trkpt lat="43.44608" lon="-0.35275">
        <ele>216.2</ele>
        <time>2026-08-31T10:42:47Z</time>
      </trkpt>
      <trkpt lat="43.44607" lon="-0.35276">
        <ele>216.2</ele>
        <time>2026-08-31T10:42:48Z</time>
      </trkpt>
      <trkpt lat="43.44607" lon="-0.35276">
        <ele>216.2</ele>
        <time>2026-08-31T10:42:48Z</time>
      </trkpt>
      <trkpt lat="43.44606" lon="-0.35277">
        <ele>217.2</ele>
        <time>2026-08-31T10:42:49Z</time>
      </trkpt>
      <trkpt lat="43.44606" lon="-0.35278">
        <ele>217.2</ele>
        <time>2026-08-31T10:42:49Z</time>
      </trkpt>
      <trkpt lat="43.44605" lon="-0.35278">
        <ele>217.2</ele>
        <time>2026-08-31T10:42:50Z</time>
      </trkpt>
      <trkpt lat="43.44605" lon="-0.35279">
        <ele>217.2</ele>
        <time>2026-08-31T10:42:50Z</time>
      </trkpt>
      <trkpt lat="43.44605" lon="-0.3528">
        <ele>217.2</ele>
        <time>2026-08-31T10:42:51Z</time>
      </trkpt>
      <trkpt lat="43.44604" lon="-0.3528">
        <ele>217.2</ele>
        <time>2026-08-31T10:42:52Z</time>
      </trkpt>
      <trkpt lat="43.44604" lon="-0.35281">
        <ele>217.2</ele>
        <time>2026-08-31T10:42:52Z</time>
      </trkpt>
      <trkpt lat="43.44604" lon="-0.35282">
        <ele>217.2</ele>
        <time>2026-08-31T10:42:53Z</time>
      </trkpt>
      <trkpt lat="43.44603" lon="-0.35282">
        <ele>217.2</ele>
        <time>2026-08-31T10:42:53Z</time>
      </trkpt>
      <trkpt lat="43.44603" lon="-0.35283">
        <ele>217.2</ele>
        <time>2026-08-31T10:42:54Z</time>
      </trkpt>
      <trkpt lat="43.44603" lon="-0.35284">
        <ele>217.2</ele>
        <time>2026-08-31T10:42:55Z</time>
      </trkpt>
      <trkpt lat="43.44603" lon="-0.35285">
        <ele>217.2</ele>
        <time>2026-08-31T10:42:55Z</time>
      </trkpt>
      <trkpt lat="43.44602" lon="-0.35286">
        <ele>217.2</ele>
        <time>2026-08-31T10:42:56Z</time>
      </trkpt>
      <trkpt lat="43.44602" lon="-0.35287">
        <ele>217.2</ele>
        <time>2026-08-31T10:42:56Z</time>
      </trkpt>
      <trkpt lat="43.44602" lon="-0.35288">
        <ele>218.2</ele>
        <time>2026-08-31T10:42:57Z</time>
      </trkpt>
      <trkpt lat="43.44602" lon="-0.35289">
        <ele>218.2</ele>
        <time>2026-08-31T10:42:58Z</time>
      </trkpt>
      <trkpt lat="43.44601" lon="-0.3529">
        <ele>218.2</ele>
        <time>2026-08-31T10:42:58Z</time>
      </trkpt>
      <trkpt lat="43.44601" lon="-0.3529">
        <ele>218.2</ele>
        <time>2026-08-31T10:42:59Z</time>
      </trkpt>
      <trkpt lat="43.44601" lon="-0.35291">
        <ele>218.2</ele>
        <time>2026-08-31T10:42:59Z</time>
      </trkpt>
      <trkpt lat="43.446" lon="-0.35292">
        <ele>218.2</ele>
        <time>2026-08-31T10:43:00Z</time>
      </trkpt>
      <trkpt lat="43.446" lon="-0.35293">
        <ele>218.2</ele>
        <time>2026-08-31T10:43:01Z</time>
      </trkpt>
      <trkpt lat="43.446" lon="-0.35293">
        <ele>218.2</ele>
        <time>2026-08-31T10:43:01Z</time>
      </trkpt>
      <trkpt lat="43.446" lon="-0.35294">
        <ele>218.2</ele>
        <time>2026-08-31T10:43:02Z</time>
      </trkpt>
      <trkpt lat="43.44599" lon="-0.35295">
        <ele>218.2</ele>
        <time>2026-08-31T10:43:02Z</time>
      </trkpt>
      <trkpt lat="43.44599" lon="-0.35296">
        <ele>218.2</ele>
        <time>2026-08-31T10:43:03Z</time>
      </trkpt>
      <trkpt lat="43.44599" lon="-0.35297">
        <ele>218.2</ele>
        <time>2026-08-31T10:43:03Z</time>
      </trkpt>
      <trkpt lat="43.44599" lon="-0.35298">
        <ele>218.2</ele>
        <time>2026-08-31T10:43:04Z</time>
      </trkpt>
      <trkpt lat="43.44598" lon="-0.35299">
        <ele>218.2</ele>
        <time>2026-08-31T10:43:05Z</time>
      </trkpt>
      <trkpt lat="43.44598" lon="-0.35299">
        <ele>218.2</ele>
        <time>2026-08-31T10:43:05Z</time>
      </trkpt>
      <trkpt lat="43.44598" lon="-0.353">
        <ele>218.2</ele>
        <time>2026-08-31T10:43:06Z</time>
      </trkpt>
      <trkpt lat="43.44597" lon="-0.35301">
        <ele>218.2</ele>
        <time>2026-08-31T10:43:06Z</time>
      </trkpt>
      <trkpt lat="43.44597" lon="-0.35302">
        <ele>218.2</ele>
        <time>2026-08-31T10:43:07Z</time>
      </trkpt>
      <trkpt lat="43.44597" lon="-0.35303">
        <ele>218.2</ele>
        <time>2026-08-31T10:43:08Z</time>
      </trkpt>
      <trkpt lat="43.44596" lon="-0.35304">
        <ele>218.2</ele>
        <time>2026-08-31T10:43:08Z</time>
      </trkpt>
      <trkpt lat="43.44596" lon="-0.35304">
        <ele>218.2</ele>
        <time>2026-08-31T10:43:09Z</time>
      </trkpt>
      <trkpt lat="43.44595" lon="-0.35305">
        <ele>218.2</ele>
        <time>2026-08-31T10:43:09Z</time>
      </trkpt>
      <trkpt lat="43.44595" lon="-0.35306">
        <ele>218.2</ele>
        <time>2026-08-31T10:43:10Z</time>
      </trkpt>
      <trkpt lat="43.44595" lon="-0.35307">
        <ele>218.2</ele>
        <time>2026-08-31T10:43:11Z</time>
      </trkpt>
      <trkpt lat="43.44594" lon="-0.35308">
        <ele>218.2</ele>
        <time>2026-08-31T10:43:11Z</time>
      </trkpt>
      <trkpt lat="43.44594" lon="-0.35308">
        <ele>218.2</ele>
        <time>2026-08-31T10:43:12Z</time>
      </trkpt>
      <trkpt lat="43.44594" lon="-0.35309">
        <ele>218.2</ele>
        <time>2026-08-31T10:43:12Z</time>
      </trkpt>
      <trkpt lat="43.44593" lon="-0.3531">
        <ele>218.2</ele>
        <time>2026-08-31T10:43:13Z</time>
      </trkpt>
      <trkpt lat="43.44593" lon="-0.35311">
        <ele>218.2</ele>
        <time>2026-08-31T10:43:13Z</time>
      </trkpt>
      <trkpt lat="43.44593" lon="-0.35312">
        <ele>218.2</ele>
        <time>2026-08-31T10:43:14Z</time>
      </trkpt>
      <trkpt lat="43.44592" lon="-0.35313">
        <ele>218.2</ele>
        <time>2026-08-31T10:43:15Z</time>
      </trkpt>
      <trkpt lat="43.44592" lon="-0.35313">
        <ele>218.2</ele>
        <time>2026-08-31T10:43:15Z</time>
      </trkpt>
      <trkpt lat="43.44591" lon="-0.35314">
        <ele>218.2</ele>
        <time>2026-08-31T10:43:16Z</time>
      </trkpt>
      <trkpt lat="43.44591" lon="-0.35315">
        <ele>218.2</ele>
        <time>2026-08-31T10:43:16Z</time>
      </trkpt>
      <trkpt lat="43.44591" lon="-0.35316">
        <ele>218.2</ele>
        <time>2026-08-31T10:43:17Z</time>
      </trkpt>
      <trkpt lat="43.44591" lon="-0.35317">
        <ele>218.2</ele>
        <time>2026-08-31T10:43:18Z</time>
      </trkpt>
      <trkpt lat="43.4459" lon="-0.35318">
        <ele>218.2</ele>
        <time>2026-08-31T10:43:18Z</time>
      </trkpt>
      <trkpt lat="43.4459" lon="-0.35318">
        <ele>218.2</ele>
        <time>2026-08-31T10:43:19Z</time>
      </trkpt>
      <trkpt lat="43.4459" lon="-0.35319">
        <ele>218.2</ele>
        <time>2026-08-31T10:43:19Z</time>
      </trkpt>
      <trkpt lat="43.4459" lon="-0.3532">
        <ele>218.2</ele>
        <time>2026-08-31T10:43:20Z</time>
      </trkpt>
      <trkpt lat="43.44589" lon="-0.35321">
        <ele>218.2</ele>
        <time>2026-08-31T10:43:20Z</time>
      </trkpt>
      <trkpt lat="43.44589" lon="-0.35322">
        <ele>217.2</ele>
        <time>2026-08-31T10:43:21Z</time>
      </trkpt>
      <trkpt lat="43.44589" lon="-0.35323">
        <ele>217.2</ele>
        <time>2026-08-31T10:43:22Z</time>
      </trkpt>
      <trkpt lat="43.44588" lon="-0.35324">
        <ele>217.2</ele>
        <time>2026-08-31T10:43:22Z</time>
      </trkpt>
      <trkpt lat="43.44588" lon="-0.35325">
        <ele>217.2</ele>
        <time>2026-08-31T10:43:23Z</time>
      </trkpt>
      <trkpt lat="43.44588" lon="-0.35326">
        <ele>217.2</ele>
        <time>2026-08-31T10:43:23Z</time>
      </trkpt>
      <trkpt lat="43.44588" lon="-0.35326">
        <ele>217.2</ele>
        <time>2026-08-31T10:43:24Z</time>
      </trkpt>
      <trkpt lat="43.44587" lon="-0.35327">
        <ele>217.2</ele>
        <time>2026-08-31T10:43:25Z</time>
      </trkpt>
      <trkpt lat="43.44587" lon="-0.35328">
        <ele>217.2</ele>
        <time>2026-08-31T10:43:25Z</time>
      </trkpt>
      <trkpt lat="43.44587" lon="-0.35329">
        <ele>217.2</ele>
        <time>2026-08-31T10:43:26Z</time>
      </trkpt>
      <trkpt lat="43.44586" lon="-0.3533">
        <ele>217.2</ele>
        <time>2026-08-31T10:43:26Z</time>
      </trkpt>
      <trkpt lat="43.44586" lon="-0.3533">
        <ele>216.2</ele>
        <time>2026-08-31T10:43:27Z</time>
      </trkpt>
      <trkpt lat="43.44586" lon="-0.35331">
        <ele>216.2</ele>
        <time>2026-08-31T10:43:27Z</time>
      </trkpt>
      <trkpt lat="43.44586" lon="-0.35332">
        <ele>217.2</ele>
        <time>2026-08-31T10:43:28Z</time>
      </trkpt>
      <trkpt lat="43.44585" lon="-0.35333">
        <ele>217.2</ele>
        <time>2026-08-31T10:43:29Z</time>
      </trkpt>
      <trkpt lat="43.44585" lon="-0.35333">
        <ele>217.2</ele>
        <time>2026-08-31T10:43:29Z</time>
      </trkpt>
      <trkpt lat="43.44585" lon="-0.35334">
        <ele>217.2</ele>
        <time>2026-08-31T10:43:30Z</time>
      </trkpt>
      <trkpt lat="43.44585" lon="-0.35335">
        <ele>217.2</ele>
        <time>2026-08-31T10:43:30Z</time>
      </trkpt>
      <trkpt lat="43.44585" lon="-0.35335">
        <ele>217.2</ele>
        <time>2026-08-31T10:43:31Z</time>
      </trkpt>
      <trkpt lat="43.44585" lon="-0.35336">
        <ele>217.2</ele>
        <time>2026-08-31T10:43:31Z</time>
      </trkpt>
      <trkpt lat="43.44585" lon="-0.35337">
        <ele>217.2</ele>
        <time>2026-08-31T10:43:32Z</time>
      </trkpt>
      <trkpt lat="43.44585" lon="-0.35338">
        <ele>217.2</ele>
        <time>2026-08-31T10:43:33Z</time>
      </trkpt>
      <trkpt lat="43.44585" lon="-0.35338">
        <ele>217.2</ele>
        <time>2026-08-31T10:43:33Z</time>
      </trkpt>
      <trkpt lat="43.44585" lon="-0.35339">
        <ele>217.2</ele>
        <time>2026-08-31T10:43:34Z</time>
      </trkpt>
      <trkpt lat="43.44584" lon="-0.3534">
        <ele>217.2</ele>
        <time>2026-08-31T10:43:34Z</time>
      </trkpt>
      <trkpt lat="43.44584" lon="-0.35341">
        <ele>217.2</ele>
        <time>2026-08-31T10:43:35Z</time>
      </trkpt>
      <trkpt lat="43.44584" lon="-0.35342">
        <ele>217.2</ele>
        <time>2026-08-31T10:43:36Z</time>
      </trkpt>
      <trkpt lat="43.44584" lon="-0.35343">
        <ele>218.2</ele>
        <time>2026-08-31T10:43:36Z</time>
      </trkpt>
      <trkpt lat="43.44584" lon="-0.35344">
        <ele>217.2</ele>
        <time>2026-08-31T10:43:37Z</time>
      </trkpt>
      <trkpt lat="43.44584" lon="-0.35345">
        <ele>217.2</ele>
        <time>2026-08-31T10:43:37Z</time>
      </trkpt>
      <trkpt lat="43.44584" lon="-0.35346">
        <ele>217.2</ele>
        <time>2026-08-31T10:43:38Z</time>
      </trkpt>
      <trkpt lat="43.44584" lon="-0.35347">
        <ele>217.2</ele>
        <time>2026-08-31T10:43:39Z</time>
      </trkpt>
      <trkpt lat="43.44584" lon="-0.35347">
        <ele>218.2</ele>
        <time>2026-08-31T10:43:39Z</time>
      </trkpt>
      <trkpt lat="43.44584" lon="-0.35348">
        <ele>218.2</ele>
        <time>2026-08-31T10:43:40Z</time>
      </trkpt>
      <trkpt lat="43.44584" lon="-0.35349">
        <ele>218.2</ele>
        <time>2026-08-31T10:43:40Z</time>
      </trkpt>
      <trkpt lat="43.44584" lon="-0.3535">
        <ele>217.2</ele>
        <time>2026-08-31T10:43:41Z</time>
      </trkpt>
      <trkpt lat="43.44584" lon="-0.35351">
        <ele>217.2</ele>
        <time>2026-08-31T10:43:42Z</time>
      </trkpt>
      <trkpt lat="43.44584" lon="-0.35352">
        <ele>217.2</ele>
        <time>2026-08-31T10:43:42Z</time>
      </trkpt>
      <trkpt lat="43.44583" lon="-0.35353">
        <ele>217.2</ele>
        <time>2026-08-31T10:43:43Z</time>
      </trkpt>
      <trkpt lat="43.44583" lon="-0.35353">
        <ele>217.2</ele>
        <time>2026-08-31T10:43:43Z</time>
      </trkpt>
      <trkpt lat="43.44583" lon="-0.35354">
        <ele>216.2</ele>
        <time>2026-08-31T10:43:44Z</time>
      </trkpt>
      <trkpt lat="43.44583" lon="-0.35355">
        <ele>216.2</ele>
        <time>2026-08-31T10:43:44Z</time>
      </trkpt>
      <trkpt lat="43.44583" lon="-0.35356">
        <ele>216.2</ele>
        <time>2026-08-31T10:43:45Z</time>
      </trkpt>
      <trkpt lat="43.44583" lon="-0.35357">
        <ele>216.2</ele>
        <time>2026-08-31T10:43:46Z</time>
      </trkpt>
      <trkpt lat="43.44583" lon="-0.35357">
        <ele>217.2</ele>
        <time>2026-08-31T10:43:46Z</time>
      </trkpt>
      <trkpt lat="43.44582" lon="-0.35358">
        <ele>217.2</ele>
        <time>2026-08-31T10:43:47Z</time>
      </trkpt>
      <trkpt lat="43.44582" lon="-0.35359">
        <ele>217.2</ele>
        <time>2026-08-31T10:43:47Z</time>
      </trkpt>
      <trkpt lat="43.44582" lon="-0.3536">
        <ele>216.2</ele>
        <time>2026-08-31T10:43:48Z</time>
      </trkpt>
      <trkpt lat="43.44582" lon="-0.35361">
        <ele>216.2</ele>
        <time>2026-08-31T10:43:49Z</time>
      </trkpt>
      <trkpt lat="43.44582" lon="-0.35362">
        <ele>216.2</ele>
        <time>2026-08-31T10:43:49Z</time>
      </trkpt>
      <trkpt lat="43.44581" lon="-0.35363">
        <ele>216.2</ele>
        <time>2026-08-31T10:43:50Z</time>
      </trkpt>
      <trkpt lat="43.44581" lon="-0.35364">
        <ele>216.2</ele>
        <time>2026-08-31T10:43:51Z</time>
      </trkpt>
      <trkpt lat="43.44581" lon="-0.35365">
        <ele>216.2</ele>
        <time>2026-08-31T10:43:51Z</time>
      </trkpt>
      <trkpt lat="43.44581" lon="-0.35366">
        <ele>216.2</ele>
        <time>2026-08-31T10:43:52Z</time>
      </trkpt>
      <trkpt lat="43.44581" lon="-0.35367">
        <ele>215.2</ele>
        <time>2026-08-31T10:43:53Z</time>
      </trkpt>
      <trkpt lat="43.44581" lon="-0.35367">
        <ele>215.2</ele>
        <time>2026-08-31T10:43:53Z</time>
      </trkpt>
      <trkpt lat="43.4458" lon="-0.35369">
        <ele>215.2</ele>
        <time>2026-08-31T10:43:55Z</time>
      </trkpt>
      <trkpt lat="43.44579" lon="-0.3537">
        <ele>215.2</ele>
        <time>2026-08-31T10:43:56Z</time>
      </trkpt>
      <trkpt lat="43.44578" lon="-0.3537">
        <ele>215.2</ele>
        <time>2026-08-31T10:43:57Z</time>
      </trkpt>
      <trkpt lat="43.44578" lon="-0.35371">
        <ele>215.2</ele>
        <time>2026-08-31T10:43:58Z</time>
      </trkpt>
      <trkpt lat="43.44578" lon="-0.35372">
        <ele>215.2</ele>
        <time>2026-08-31T10:43:59Z</time>
      </trkpt>
      <trkpt lat="43.44578" lon="-0.35372">
        <ele>215.2</ele>
        <time>2026-08-31T10:44:00Z</time>
      </trkpt>
      <trkpt lat="43.44578" lon="-0.35371">
        <ele>215.2</ele>
        <time>2026-08-31T10:44:01Z</time>
      </trkpt>
      <trkpt lat="43.44578" lon="-0.35371">
        <ele>215.2</ele>
        <time>2026-08-31T10:44:02Z</time>
      </trkpt>
      <trkpt lat="43.44578" lon="-0.35371">
        <ele>215.2</ele>
        <time>2026-08-31T10:44:03Z</time>
      </trkpt>
      <trkpt lat="43.44578" lon="-0.35371">
        <ele>215.2</ele>
        <time>2026-08-31T10:44:04Z</time>
      </trkpt>
      <trkpt lat="43.44578" lon="-0.35372">
        <ele>220.2</ele>
        <time>2026-08-31T10:44:05Z</time>
      </trkpt>
      <trkpt lat="43.44578" lon="-0.35374">
        <ele>222.2</ele>
        <time>2026-08-31T10:44:06Z</time>
      </trkpt>
      <trkpt lat="43.44578" lon="-0.35377">
        <ele>224.2</ele>
        <time>2026-08-31T10:44:07Z</time>
      </trkpt>
      <trkpt lat="43.44578" lon="-0.35377">
        <ele>224.2</ele>
        <time>2026-08-31T10:44:07Z</time>
      </trkpt>
      <trkpt lat="43.44578" lon="-0.35378">
        <ele>225.2</ele>
        <time>2026-08-31T10:44:08Z</time>
      </trkpt>
      <trkpt lat="43.44578" lon="-0.35379">
        <ele>225.2</ele>
        <time>2026-08-31T10:44:08Z</time>
      </trkpt>
      <trkpt lat="43.44576" lon="-0.35382">
        <ele>228.2</ele>
        <time>2026-08-31T10:44:10Z</time>
      </trkpt>
      <trkpt lat="43.44575" lon="-0.35384">
        <ele>229.2</ele>
        <time>2026-08-31T10:44:11Z</time>
      </trkpt>
      <trkpt lat="43.44575" lon="-0.35385">
        <ele>229.2</ele>
        <time>2026-08-31T10:44:11Z</time>
      </trkpt>
      <trkpt lat="43.44575" lon="-0.35386">
        <ele>230.2</ele>
        <time>2026-08-31T10:44:12Z</time>
      </trkpt>
      <trkpt lat="43.44574" lon="-0.35386">
        <ele>230.2</ele>
        <time>2026-08-31T10:44:12Z</time>
      </trkpt>
      <trkpt lat="43.44573" lon="-0.35387">
        <ele>231.2</ele>
        <time>2026-08-31T10:44:13Z</time>
      </trkpt>
      <trkpt lat="43.44573" lon="-0.35387">
        <ele>231.2</ele>
        <time>2026-08-31T10:44:14Z</time>
      </trkpt>
      <trkpt lat="43.44572" lon="-0.35388">
        <ele>233.2</ele>
        <time>2026-08-31T10:44:14Z</time>
      </trkpt>
      <trkpt lat="43.44572" lon="-0.35388">
        <ele>233.2</ele>
        <time>2026-08-31T10:44:15Z</time>
      </trkpt>
      <trkpt lat="43.44571" lon="-0.35389">
        <ele>234.2</ele>
        <time>2026-08-31T10:44:15Z</time>
      </trkpt>
      <trkpt lat="43.44571" lon="-0.35391">
        <ele>235.2</ele>
        <time>2026-08-31T10:44:17Z</time>
      </trkpt>
      <trkpt lat="43.4457" lon="-0.35392">
        <ele>236.2</ele>
        <time>2026-08-31T10:44:18Z</time>
      </trkpt>
      <trkpt lat="43.4457" lon="-0.35394">
        <ele>236.2</ele>
        <time>2026-08-31T10:44:19Z</time>
      </trkpt>
      <trkpt lat="43.4457" lon="-0.35395">
        <ele>236.2</ele>
        <time>2026-08-31T10:44:20Z</time>
      </trkpt>
      <trkpt lat="43.4457" lon="-0.35395">
        <ele>236.2</ele>
        <time>2026-08-31T10:44:21Z</time>
      </trkpt>
      <trkpt lat="43.4457" lon="-0.35396">
        <ele>236.2</ele>
        <time>2026-08-31T10:44:22Z</time>
      </trkpt>
      <trkpt lat="43.44571" lon="-0.35396">
        <ele>236.2</ele>
        <time>2026-08-31T10:44:23Z</time>
      </trkpt>
      <trkpt lat="43.44571" lon="-0.35396">
        <ele>236.2</ele>
        <time>2026-08-31T10:44:24Z</time>
      </trkpt>
      <trkpt lat="43.44571" lon="-0.35397">
        <ele>236.2</ele>
        <time>2026-08-31T10:44:25Z</time>
      </trkpt>
      <trkpt lat="43.44571" lon="-0.35397">
        <ele>236.2</ele>
        <time>2026-08-31T10:44:26Z</time>
      </trkpt>
      <trkpt lat="43.44571" lon="-0.35397">
        <ele>236.2</ele>
        <time>2026-08-31T10:44:27Z</time>
      </trkpt>
      <trkpt lat="43.44571" lon="-0.35397">
        <ele>236.2</ele>
        <time>2026-08-31T10:44:27Z</time>
      </trkpt>
      <trkpt lat="43.4457" lon="-0.35397">
        <ele>236.2</ele>
        <time>2026-08-31T10:44:28Z</time>
      </trkpt>
      <trkpt lat="43.44569" lon="-0.35397">
        <ele>237.2</ele>
        <time>2026-08-31T10:44:29Z</time>
      </trkpt>
      <trkpt lat="43.44568" lon="-0.35397">
        <ele>237.2</ele>
        <time>2026-08-31T10:44:30Z</time>
      </trkpt>
      <trkpt lat="43.44567" lon="-0.35397">
        <ele>238.2</ele>
        <time>2026-08-31T10:44:31Z</time>
      </trkpt>
      <trkpt lat="43.44567" lon="-0.35396">
        <ele>238.2</ele>
        <time>2026-08-31T10:44:31Z</time>
      </trkpt>
      <trkpt lat="43.44566" lon="-0.35396">
        <ele>237.2</ele>
        <time>2026-08-31T10:44:33Z</time>
      </trkpt>
      <trkpt lat="43.44566" lon="-0.35397">
        <ele>237.2</ele>
        <time>2026-08-31T10:44:34Z</time>
      </trkpt>
      <trkpt lat="43.44566" lon="-0.35397">
        <ele>237.2</ele>
        <time>2026-08-31T10:44:35Z</time>
      </trkpt>
      <trkpt lat="43.44566" lon="-0.35397">
        <ele>237.2</ele>
        <time>2026-08-31T10:44:36Z</time>
      </trkpt>
      <trkpt lat="43.44566" lon="-0.35397">
        <ele>237.2</ele>
        <time>2026-08-31T10:44:37Z</time>
      </trkpt>
      <trkpt lat="43.44566" lon="-0.35397">
        <ele>238.2</ele>
        <time>2026-08-31T10:44:38Z</time>
      </trkpt>
      <trkpt lat="43.44566" lon="-0.35397">
        <ele>238.2</ele>
        <time>2026-08-31T10:44:39Z</time>
      </trkpt>
      <trkpt lat="43.44565" lon="-0.35397">
        <ele>238.2</ele>
        <time>2026-08-31T10:44:39Z</time>
      </trkpt>
      <trkpt lat="43.44565" lon="-0.35397">
        <ele>238.2</ele>
        <time>2026-08-31T10:44:40Z</time>
      </trkpt>
      <trkpt lat="43.44564" lon="-0.35396">
        <ele>238.2</ele>
        <time>2026-08-31T10:44:41Z</time>
      </trkpt>
      <trkpt lat="43.44563" lon="-0.35395">
        <ele>239.2</ele>
        <time>2026-08-31T10:44:42Z</time>
      </trkpt>
      <trkpt lat="43.44563" lon="-0.35394">
        <ele>239.2</ele>
        <time>2026-08-31T10:44:43Z</time>
      </trkpt>
      <trkpt lat="43.44562" lon="-0.35394">
        <ele>238.2</ele>
        <time>2026-08-31T10:44:43Z</time>
      </trkpt>
      <trkpt lat="43.44561" lon="-0.35394">
        <ele>239.2</ele>
        <time>2026-08-31T10:44:44Z</time>
      </trkpt>
      <trkpt lat="43.44561" lon="-0.35393">
        <ele>239.2</ele>
        <time>2026-08-31T10:44:45Z</time>
      </trkpt>
      <trkpt lat="43.4456" lon="-0.35393">
        <ele>239.2</ele>
        <time>2026-08-31T10:44:45Z</time>
      </trkpt>
      <trkpt lat="43.44559" lon="-0.35392">
        <ele>238.2</ele>
        <time>2026-08-31T10:44:46Z</time>
      </trkpt>
      <trkpt lat="43.44559" lon="-0.35392">
        <ele>238.2</ele>
        <time>2026-08-31T10:44:47Z</time>
      </trkpt>
      <trkpt lat="43.44558" lon="-0.35392">
        <ele>238.2</ele>
        <time>2026-08-31T10:44:47Z</time>
      </trkpt>
      <trkpt lat="43.44557" lon="-0.35391">
        <ele>238.2</ele>
        <time>2026-08-31T10:44:48Z</time>
      </trkpt>
      <trkpt lat="43.44557" lon="-0.35391">
        <ele>238.2</ele>
        <time>2026-08-31T10:44:48Z</time>
      </trkpt>
      <trkpt lat="43.44556" lon="-0.3539">
        <ele>237.2</ele>
        <time>2026-08-31T10:44:49Z</time>
      </trkpt>
      <trkpt lat="43.44556" lon="-0.3539">
        <ele>237.2</ele>
        <time>2026-08-31T10:44:49Z</time>
      </trkpt>
      <trkpt lat="43.44555" lon="-0.35389">
        <ele>237.2</ele>
        <time>2026-08-31T10:44:50Z</time>
      </trkpt>
      <trkpt lat="43.44555" lon="-0.35388">
        <ele>237.2</ele>
        <time>2026-08-31T10:44:51Z</time>
      </trkpt>
      <trkpt lat="43.44554" lon="-0.35387">
        <ele>238.2</ele>
        <time>2026-08-31T10:44:51Z</time>
      </trkpt>
      <trkpt lat="43.44553" lon="-0.35387">
        <ele>238.2</ele>
        <time>2026-08-31T10:44:52Z</time>
      </trkpt>
      <trkpt lat="43.44553" lon="-0.35386">
        <ele>238.2</ele>
        <time>2026-08-31T10:44:53Z</time>
      </trkpt>
      <trkpt lat="43.44552" lon="-0.35385">
        <ele>237.2</ele>
        <time>2026-08-31T10:44:53Z</time>
      </trkpt>
      <trkpt lat="43.44552" lon="-0.35384">
        <ele>237.2</ele>
        <time>2026-08-31T10:44:54Z</time>
      </trkpt>
      <trkpt lat="43.44551" lon="-0.35384">
        <ele>237.2</ele>
        <time>2026-08-31T10:44:54Z</time>
      </trkpt>
      <trkpt lat="43.44551" lon="-0.35383">
        <ele>237.2</ele>
        <time>2026-08-31T10:44:55Z</time>
      </trkpt>
      <trkpt lat="43.4455" lon="-0.35382">
        <ele>236.2</ele>
        <time>2026-08-31T10:44:55Z</time>
      </trkpt>
      <trkpt lat="43.4455" lon="-0.35381">
        <ele>236.2</ele>
        <time>2026-08-31T10:44:56Z</time>
      </trkpt>
      <trkpt lat="43.4455" lon="-0.3538">
        <ele>236.2</ele>
        <time>2026-08-31T10:44:56Z</time>
      </trkpt>
      <trkpt lat="43.4455" lon="-0.35379">
        <ele>235.2</ele>
        <time>2026-08-31T10:44:57Z</time>
      </trkpt>
      <trkpt lat="43.44549" lon="-0.35379">
        <ele>235.2</ele>
        <time>2026-08-31T10:44:57Z</time>
      </trkpt>
      <trkpt lat="43.44549" lon="-0.35378">
        <ele>235.2</ele>
        <time>2026-08-31T10:44:58Z</time>
      </trkpt>
      <trkpt lat="43.44549" lon="-0.35378">
        <ele>235.2</ele>
        <time>2026-08-31T10:44:58Z</time>
      </trkpt>
      <trkpt lat="43.44548" lon="-0.35377">
        <ele>235.2</ele>
        <time>2026-08-31T10:44:59Z</time>
      </trkpt>
      <trkpt lat="43.44548" lon="-0.35376">
        <ele>235.2</ele>
        <time>2026-08-31T10:44:59Z</time>
      </trkpt>
      <trkpt lat="43.44547" lon="-0.35376">
        <ele>234.2</ele>
        <time>2026-08-31T10:45:00Z</time>
      </trkpt>
      <trkpt lat="43.44547" lon="-0.35375">
        <ele>234.2</ele>
        <time>2026-08-31T10:45:01Z</time>
      </trkpt>
      <trkpt lat="43.44546" lon="-0.35375">
        <ele>234.2</ele>
        <time>2026-08-31T10:45:01Z</time>
      </trkpt>
      <trkpt lat="43.44546" lon="-0.35375">
        <ele>234.2</ele>
        <time>2026-08-31T10:45:02Z</time>
      </trkpt>
      <trkpt lat="43.44546" lon="-0.35374">
        <ele>234.2</ele>
        <time>2026-08-31T10:45:02Z</time>
      </trkpt>
      <trkpt lat="43.44545" lon="-0.35374">
        <ele>234.2</ele>
        <time>2026-08-31T10:45:03Z</time>
      </trkpt>
      <trkpt lat="43.44545" lon="-0.35374">
        <ele>234.2</ele>
        <time>2026-08-31T10:45:03Z</time>
      </trkpt>
      <trkpt lat="43.44544" lon="-0.35373">
        <ele>234.2</ele>
        <time>2026-08-31T10:45:04Z</time>
      </trkpt>
      <trkpt lat="43.44544" lon="-0.35373">
        <ele>234.2</ele>
        <time>2026-08-31T10:45:04Z</time>
      </trkpt>
      <trkpt lat="43.44544" lon="-0.35372">
        <ele>234.2</ele>
        <time>2026-08-31T10:45:05Z</time>
      </trkpt>
      <trkpt lat="43.44543" lon="-0.35372">
        <ele>234.2</ele>
        <time>2026-08-31T10:45:05Z</time>
      </trkpt>
      <trkpt lat="43.44543" lon="-0.35371">
        <ele>234.2</ele>
        <time>2026-08-31T10:45:06Z</time>
      </trkpt>
      <trkpt lat="43.44543" lon="-0.3537">
        <ele>234.2</ele>
        <time>2026-08-31T10:45:07Z</time>
      </trkpt>
      <trkpt lat="43.44542" lon="-0.3537">
        <ele>234.2</ele>
        <time>2026-08-31T10:45:07Z</time>
      </trkpt>
      <trkpt lat="43.44542" lon="-0.35369">
        <ele>234.2</ele>
        <time>2026-08-31T10:45:08Z</time>
      </trkpt>
      <trkpt lat="43.44541" lon="-0.35368">
        <ele>234.2</ele>
        <time>2026-08-31T10:45:08Z</time>
      </trkpt>
      <trkpt lat="43.44541" lon="-0.35368">
        <ele>234.2</ele>
        <time>2026-08-31T10:45:09Z</time>
      </trkpt>
      <trkpt lat="43.4454" lon="-0.35367">
        <ele>234.2</ele>
        <time>2026-08-31T10:45:09Z</time>
      </trkpt>
      <trkpt lat="43.4454" lon="-0.35367">
        <ele>234.2</ele>
        <time>2026-08-31T10:45:10Z</time>
      </trkpt>
      <trkpt lat="43.44539" lon="-0.35366">
        <ele>234.2</ele>
        <time>2026-08-31T10:45:10Z</time>
      </trkpt>
      <trkpt lat="43.44539" lon="-0.35365">
        <ele>234.2</ele>
        <time>2026-08-31T10:45:11Z</time>
      </trkpt>
      <trkpt lat="43.44538" lon="-0.35365">
        <ele>234.2</ele>
        <time>2026-08-31T10:45:11Z</time>
      </trkpt>
      <trkpt lat="43.44538" lon="-0.35364">
        <ele>234.2</ele>
        <time>2026-08-31T10:45:12Z</time>
      </trkpt>
      <trkpt lat="43.44537" lon="-0.35364">
        <ele>234.2</ele>
        <time>2026-08-31T10:45:12Z</time>
      </trkpt>
      <trkpt lat="43.44537" lon="-0.35364">
        <ele>234.2</ele>
        <time>2026-08-31T10:45:13Z</time>
      </trkpt>
      <trkpt lat="43.44536" lon="-0.35363">
        <ele>234.2</ele>
        <time>2026-08-31T10:45:14Z</time>
      </trkpt>
      <trkpt lat="43.44536" lon="-0.35363">
        <ele>233.2</ele>
        <time>2026-08-31T10:45:14Z</time>
      </trkpt>
      <trkpt lat="43.44535" lon="-0.35362">
        <ele>233.2</ele>
        <time>2026-08-31T10:45:15Z</time>
      </trkpt>
      <trkpt lat="43.44535" lon="-0.35362">
        <ele>233.2</ele>
        <time>2026-08-31T10:45:15Z</time>
      </trkpt>
      <trkpt lat="43.44534" lon="-0.35361">
        <ele>233.2</ele>
        <time>2026-08-31T10:45:16Z</time>
      </trkpt>
      <trkpt lat="43.44534" lon="-0.35361">
        <ele>233.2</ele>
        <time>2026-08-31T10:45:16Z</time>
      </trkpt>
      <trkpt lat="43.44533" lon="-0.35361">
        <ele>233.2</ele>
        <time>2026-08-31T10:45:17Z</time>
      </trkpt>
      <trkpt lat="43.44533" lon="-0.3536">
        <ele>233.2</ele>
        <time>2026-08-31T10:45:17Z</time>
      </trkpt>
      <trkpt lat="43.44532" lon="-0.3536">
        <ele>233.2</ele>
        <time>2026-08-31T10:45:18Z</time>
      </trkpt>
      <trkpt lat="43.44531" lon="-0.3536">
        <ele>233.2</ele>
        <time>2026-08-31T10:45:18Z</time>
      </trkpt>
      <trkpt lat="43.44531" lon="-0.35359">
        <ele>233.2</ele>
        <time>2026-08-31T10:45:19Z</time>
      </trkpt>
      <trkpt lat="43.4453" lon="-0.35359">
        <ele>233.2</ele>
        <time>2026-08-31T10:45:19Z</time>
      </trkpt>
      <trkpt lat="43.4453" lon="-0.35358">
        <ele>233.2</ele>
        <time>2026-08-31T10:45:20Z</time>
      </trkpt>
      <trkpt lat="43.44529" lon="-0.35358">
        <ele>233.2</ele>
        <time>2026-08-31T10:45:21Z</time>
      </trkpt>
      <trkpt lat="43.44529" lon="-0.35357">
        <ele>232.2</ele>
        <time>2026-08-31T10:45:21Z</time>
      </trkpt>
      <trkpt lat="43.44528" lon="-0.35357">
        <ele>232.2</ele>
        <time>2026-08-31T10:45:22Z</time>
      </trkpt>
      <trkpt lat="43.44528" lon="-0.35357">
        <ele>232.2</ele>
        <time>2026-08-31T10:45:22Z</time>
      </trkpt>
      <trkpt lat="43.44527" lon="-0.35356">
        <ele>232.2</ele>
        <time>2026-08-31T10:45:23Z</time>
      </trkpt>
      <trkpt lat="43.44527" lon="-0.35356">
        <ele>232.2</ele>
        <time>2026-08-31T10:45:23Z</time>
      </trkpt>
      <trkpt lat="43.44526" lon="-0.35355">
        <ele>232.2</ele>
        <time>2026-08-31T10:45:24Z</time>
      </trkpt>
      <trkpt lat="43.44525" lon="-0.35354">
        <ele>232.2</ele>
        <time>2026-08-31T10:45:24Z</time>
      </trkpt>
      <trkpt lat="43.44525" lon="-0.35354">
        <ele>232.2</ele>
        <time>2026-08-31T10:45:25Z</time>
      </trkpt>
      <trkpt lat="43.44525" lon="-0.35353">
        <ele>232.2</ele>
        <time>2026-08-31T10:45:25Z</time>
      </trkpt>
      <trkpt lat="43.44524" lon="-0.35353">
        <ele>231.2</ele>
        <time>2026-08-31T10:45:26Z</time>
      </trkpt>
      <trkpt lat="43.44524" lon="-0.35352">
        <ele>231.2</ele>
        <time>2026-08-31T10:45:26Z</time>
      </trkpt>
      <trkpt lat="43.44523" lon="-0.35352">
        <ele>231.2</ele>
        <time>2026-08-31T10:45:27Z</time>
      </trkpt>
      <trkpt lat="43.44523" lon="-0.35351">
        <ele>231.2</ele>
        <time>2026-08-31T10:45:27Z</time>
      </trkpt>
      <trkpt lat="43.44523" lon="-0.3535">
        <ele>230.2</ele>
        <time>2026-08-31T10:45:28Z</time>
      </trkpt>
      <trkpt lat="43.44522" lon="-0.3535">
        <ele>230.2</ele>
        <time>2026-08-31T10:45:29Z</time>
      </trkpt>
      <trkpt lat="43.44522" lon="-0.3535">
        <ele>230.2</ele>
        <time>2026-08-31T10:45:29Z</time>
      </trkpt>
      <trkpt lat="43.44521" lon="-0.35349">
        <ele>230.2</ele>
        <time>2026-08-31T10:45:30Z</time>
      </trkpt>
      <trkpt lat="43.44521" lon="-0.35349">
        <ele>229.2</ele>
        <time>2026-08-31T10:45:30Z</time>
      </trkpt>
      <trkpt lat="43.44521" lon="-0.35348">
        <ele>229.2</ele>
        <time>2026-08-31T10:45:31Z</time>
      </trkpt>
      <trkpt lat="43.4452" lon="-0.35348">
        <ele>229.2</ele>
        <time>2026-08-31T10:45:31Z</time>
      </trkpt>
      <trkpt lat="43.4452" lon="-0.35347">
        <ele>229.2</ele>
        <time>2026-08-31T10:45:32Z</time>
      </trkpt>
      <trkpt lat="43.44519" lon="-0.35347">
        <ele>229.2</ele>
        <time>2026-08-31T10:45:32Z</time>
      </trkpt>
      <trkpt lat="43.44519" lon="-0.35346">
        <ele>229.2</ele>
        <time>2026-08-31T10:45:33Z</time>
      </trkpt>
      <trkpt lat="43.44518" lon="-0.35346">
        <ele>229.2</ele>
        <time>2026-08-31T10:45:33Z</time>
      </trkpt>
      <trkpt lat="43.44518" lon="-0.35345">
        <ele>229.2</ele>
        <time>2026-08-31T10:45:34Z</time>
      </trkpt>
      <trkpt lat="43.44517" lon="-0.35345">
        <ele>229.2</ele>
        <time>2026-08-31T10:45:35Z</time>
      </trkpt>
      <trkpt lat="43.44517" lon="-0.35344">
        <ele>229.2</ele>
        <time>2026-08-31T10:45:35Z</time>
      </trkpt>
      <trkpt lat="43.44516" lon="-0.35344">
        <ele>229.2</ele>
        <time>2026-08-31T10:45:36Z</time>
      </trkpt>
      <trkpt lat="43.44516" lon="-0.35343">
        <ele>228.2</ele>
        <time>2026-08-31T10:45:36Z</time>
      </trkpt>
      <trkpt lat="43.44515" lon="-0.35343">
        <ele>228.2</ele>
        <time>2026-08-31T10:45:37Z</time>
      </trkpt>
      <trkpt lat="43.44515" lon="-0.35343">
        <ele>228.2</ele>
        <time>2026-08-31T10:45:37Z</time>
      </trkpt>
      <trkpt lat="43.44514" lon="-0.35342">
        <ele>228.2</ele>
        <time>2026-08-31T10:45:38Z</time>
      </trkpt>
      <trkpt lat="43.44514" lon="-0.35342">
        <ele>228.2</ele>
        <time>2026-08-31T10:45:38Z</time>
      </trkpt>
      <trkpt lat="43.44513" lon="-0.35341">
        <ele>228.2</ele>
        <time>2026-08-31T10:45:39Z</time>
      </trkpt>
      <trkpt lat="43.44513" lon="-0.35341">
        <ele>228.2</ele>
        <time>2026-08-31T10:45:39Z</time>
      </trkpt>
      <trkpt lat="43.44512" lon="-0.35341">
        <ele>228.2</ele>
        <time>2026-08-31T10:45:40Z</time>
      </trkpt>
      <trkpt lat="43.44512" lon="-0.3534">
        <ele>228.2</ele>
        <time>2026-08-31T10:45:40Z</time>
      </trkpt>
      <trkpt lat="43.44511" lon="-0.3534">
        <ele>227.2</ele>
        <time>2026-08-31T10:45:41Z</time>
      </trkpt>
      <trkpt lat="43.44511" lon="-0.3534">
        <ele>227.2</ele>
        <time>2026-08-31T10:45:42Z</time>
      </trkpt>
      <trkpt lat="43.4451" lon="-0.3534">
        <ele>227.2</ele>
        <time>2026-08-31T10:45:42Z</time>
      </trkpt>
      <trkpt lat="43.4451" lon="-0.35339">
        <ele>228.2</ele>
        <time>2026-08-31T10:45:43Z</time>
      </trkpt>
      <trkpt lat="43.44509" lon="-0.35339">
        <ele>228.2</ele>
        <time>2026-08-31T10:45:43Z</time>
      </trkpt>
      <trkpt lat="43.44509" lon="-0.35339">
        <ele>228.2</ele>
        <time>2026-08-31T10:45:44Z</time>
      </trkpt>
      <trkpt lat="43.44508" lon="-0.35339">
        <ele>228.2</ele>
        <time>2026-08-31T10:45:44Z</time>
      </trkpt>
      <trkpt lat="43.44507" lon="-0.35338">
        <ele>227.2</ele>
        <time>2026-08-31T10:45:45Z</time>
      </trkpt>
      <trkpt lat="43.44507" lon="-0.35338">
        <ele>227.2</ele>
        <time>2026-08-31T10:45:45Z</time>
      </trkpt>
      <trkpt lat="43.44506" lon="-0.35338">
        <ele>227.2</ele>
        <time>2026-08-31T10:45:46Z</time>
      </trkpt>
      <trkpt lat="43.44506" lon="-0.35337">
        <ele>227.2</ele>
        <time>2026-08-31T10:45:46Z</time>
      </trkpt>
      <trkpt lat="43.44505" lon="-0.35337">
        <ele>227.2</ele>
        <time>2026-08-31T10:45:47Z</time>
      </trkpt>
      <trkpt lat="43.44504" lon="-0.35337">
        <ele>227.2</ele>
        <time>2026-08-31T10:45:48Z</time>
      </trkpt>
      <trkpt lat="43.44504" lon="-0.35337">
        <ele>227.2</ele>
        <time>2026-08-31T10:45:48Z</time>
      </trkpt>
      <trkpt lat="43.44503" lon="-0.35336">
        <ele>227.2</ele>
        <time>2026-08-31T10:45:49Z</time>
      </trkpt>
      <trkpt lat="43.44503" lon="-0.35336">
        <ele>226.2</ele>
        <time>2026-08-31T10:45:49Z</time>
      </trkpt>
      <trkpt lat="43.44502" lon="-0.35336">
        <ele>225.2</ele>
        <time>2026-08-31T10:45:50Z</time>
      </trkpt>
      <trkpt lat="43.44501" lon="-0.35336">
        <ele>225.2</ele>
        <time>2026-08-31T10:45:50Z</time>
      </trkpt>
      <trkpt lat="43.44501" lon="-0.35336">
        <ele>225.2</ele>
        <time>2026-08-31T10:45:51Z</time>
      </trkpt>
      <trkpt lat="43.445" lon="-0.35335">
        <ele>225.2</ele>
        <time>2026-08-31T10:45:51Z</time>
      </trkpt>
      <trkpt lat="43.445" lon="-0.35336">
        <ele>224.2</ele>
        <time>2026-08-31T10:45:52Z</time>
      </trkpt>
      <trkpt lat="43.44499" lon="-0.35335">
        <ele>224.2</ele>
        <time>2026-08-31T10:45:52Z</time>
      </trkpt>
      <trkpt lat="43.44498" lon="-0.35335">
        <ele>224.2</ele>
        <time>2026-08-31T10:45:53Z</time>
      </trkpt>
      <trkpt lat="43.44498" lon="-0.35335">
        <ele>224.2</ele>
        <time>2026-08-31T10:45:53Z</time>
      </trkpt>
      <trkpt lat="43.44497" lon="-0.35334">
        <ele>224.2</ele>
        <time>2026-08-31T10:45:54Z</time>
      </trkpt>
      <trkpt lat="43.44496" lon="-0.35334">
        <ele>224.2</ele>
        <time>2026-08-31T10:45:55Z</time>
      </trkpt>
      <trkpt lat="43.44495" lon="-0.35334">
        <ele>224.2</ele>
        <time>2026-08-31T10:45:55Z</time>
      </trkpt>
      <trkpt lat="43.44495" lon="-0.35333">
        <ele>224.2</ele>
        <time>2026-08-31T10:45:56Z</time>
      </trkpt>
      <trkpt lat="43.44494" lon="-0.35334">
        <ele>223.2</ele>
        <time>2026-08-31T10:45:56Z</time>
      </trkpt>
      <trkpt lat="43.44494" lon="-0.35334">
        <ele>223.2</ele>
        <time>2026-08-31T10:45:57Z</time>
      </trkpt>
      <trkpt lat="43.44493" lon="-0.35334">
        <ele>223.2</ele>
        <time>2026-08-31T10:45:57Z</time>
      </trkpt>
      <trkpt lat="43.44493" lon="-0.35334">
        <ele>222.2</ele>
        <time>2026-08-31T10:45:58Z</time>
      </trkpt>
      <trkpt lat="43.44492" lon="-0.35334">
        <ele>222.2</ele>
        <time>2026-08-31T10:45:58Z</time>
      </trkpt>
      <trkpt lat="43.44492" lon="-0.35335">
        <ele>222.2</ele>
        <time>2026-08-31T10:45:59Z</time>
      </trkpt>
      <trkpt lat="43.44491" lon="-0.35335">
        <ele>222.2</ele>
        <time>2026-08-31T10:45:59Z</time>
      </trkpt>
      <trkpt lat="43.44491" lon="-0.35335">
        <ele>222.2</ele>
        <time>2026-08-31T10:46:00Z</time>
      </trkpt>
      <trkpt lat="43.4449" lon="-0.35335">
        <ele>222.2</ele>
        <time>2026-08-31T10:46:00Z</time>
      </trkpt>
      <trkpt lat="43.4449" lon="-0.35335">
        <ele>222.2</ele>
        <time>2026-08-31T10:46:01Z</time>
      </trkpt>
      <trkpt lat="43.44489" lon="-0.35335">
        <ele>222.2</ele>
        <time>2026-08-31T10:46:01Z</time>
      </trkpt>
      <trkpt lat="43.44488" lon="-0.35335">
        <ele>222.2</ele>
        <time>2026-08-31T10:46:02Z</time>
      </trkpt>
      <trkpt lat="43.44488" lon="-0.35334">
        <ele>222.2</ele>
        <time>2026-08-31T10:46:03Z</time>
      </trkpt>
      <trkpt lat="43.44487" lon="-0.35334">
        <ele>222.2</ele>
        <time>2026-08-31T10:46:03Z</time>
      </trkpt>
      <trkpt lat="43.44487" lon="-0.35334">
        <ele>222.2</ele>
        <time>2026-08-31T10:46:04Z</time>
      </trkpt>
      <trkpt lat="43.44486" lon="-0.35334">
        <ele>222.2</ele>
        <time>2026-08-31T10:46:04Z</time>
      </trkpt>
      <trkpt lat="43.44485" lon="-0.35334">
        <ele>222.2</ele>
        <time>2026-08-31T10:46:05Z</time>
      </trkpt>
      <trkpt lat="43.44485" lon="-0.35334">
        <ele>222.2</ele>
        <time>2026-08-31T10:46:05Z</time>
      </trkpt>
      <trkpt lat="43.44485" lon="-0.35333">
        <ele>221.2</ele>
        <time>2026-08-31T10:46:06Z</time>
      </trkpt>
      <trkpt lat="43.44484" lon="-0.35333">
        <ele>221.2</ele>
        <time>2026-08-31T10:46:06Z</time>
      </trkpt>
      <trkpt lat="43.44483" lon="-0.35333">
        <ele>221.2</ele>
        <time>2026-08-31T10:46:07Z</time>
      </trkpt>
      <trkpt lat="43.44483" lon="-0.35332">
        <ele>221.2</ele>
        <time>2026-08-31T10:46:07Z</time>
      </trkpt>
      <trkpt lat="43.44482" lon="-0.35332">
        <ele>220.2</ele>
        <time>2026-08-31T10:46:08Z</time>
      </trkpt>
      <trkpt lat="43.44482" lon="-0.35331">
        <ele>220.2</ele>
        <time>2026-08-31T10:46:08Z</time>
      </trkpt>
      <trkpt lat="43.44481" lon="-0.35331">
        <ele>220.2</ele>
        <time>2026-08-31T10:46:09Z</time>
      </trkpt>
      <trkpt lat="43.44481" lon="-0.3533">
        <ele>220.2</ele>
        <time>2026-08-31T10:46:09Z</time>
      </trkpt>
      <trkpt lat="43.4448" lon="-0.3533">
        <ele>221.2</ele>
        <time>2026-08-31T10:46:10Z</time>
      </trkpt>
      <trkpt lat="43.4448" lon="-0.3533">
        <ele>221.2</ele>
        <time>2026-08-31T10:46:11Z</time>
      </trkpt>
      <trkpt lat="43.44479" lon="-0.35329">
        <ele>221.2</ele>
        <time>2026-08-31T10:46:11Z</time>
      </trkpt>
      <trkpt lat="43.44479" lon="-0.35329">
        <ele>221.2</ele>
        <time>2026-08-31T10:46:12Z</time>
      </trkpt>
      <trkpt lat="43.44478" lon="-0.35328">
        <ele>221.2</ele>
        <time>2026-08-31T10:46:12Z</time>
      </trkpt>
      <trkpt lat="43.44478" lon="-0.35328">
        <ele>222.2</ele>
        <time>2026-08-31T10:46:13Z</time>
      </trkpt>
      <trkpt lat="43.44477" lon="-0.35327">
        <ele>222.2</ele>
        <time>2026-08-31T10:46:13Z</time>
      </trkpt>
      <trkpt lat="43.44477" lon="-0.35327">
        <ele>222.2</ele>
        <time>2026-08-31T10:46:14Z</time>
      </trkpt>
      <trkpt lat="43.44476" lon="-0.35326">
        <ele>222.2</ele>
        <time>2026-08-31T10:46:14Z</time>
      </trkpt>
      <trkpt lat="43.44476" lon="-0.35326">
        <ele>222.2</ele>
        <time>2026-08-31T10:46:15Z</time>
      </trkpt>
      <trkpt lat="43.44475" lon="-0.35326">
        <ele>222.2</ele>
        <time>2026-08-31T10:46:15Z</time>
      </trkpt>
      <trkpt lat="43.44475" lon="-0.35325">
        <ele>221.2</ele>
        <time>2026-08-31T10:46:16Z</time>
      </trkpt>
      <trkpt lat="43.44474" lon="-0.35325">
        <ele>221.2</ele>
        <time>2026-08-31T10:46:16Z</time>
      </trkpt>
      <trkpt lat="43.44473" lon="-0.35325">
        <ele>221.2</ele>
        <time>2026-08-31T10:46:17Z</time>
      </trkpt>
      <trkpt lat="43.44473" lon="-0.35324">
        <ele>221.2</ele>
        <time>2026-08-31T10:46:18Z</time>
      </trkpt>
      <trkpt lat="43.44472" lon="-0.35324">
        <ele>222.2</ele>
        <time>2026-08-31T10:46:18Z</time>
      </trkpt>
      <trkpt lat="43.44472" lon="-0.35324">
        <ele>222.2</ele>
        <time>2026-08-31T10:46:19Z</time>
      </trkpt>
      <trkpt lat="43.44471" lon="-0.35323">
        <ele>222.2</ele>
        <time>2026-08-31T10:46:19Z</time>
      </trkpt>
      <trkpt lat="43.4447" lon="-0.35323">
        <ele>222.2</ele>
        <time>2026-08-31T10:46:20Z</time>
      </trkpt>
      <trkpt lat="43.4447" lon="-0.35323">
        <ele>222.2</ele>
        <time>2026-08-31T10:46:20Z</time>
      </trkpt>
      <trkpt lat="43.44469" lon="-0.35322">
        <ele>222.2</ele>
        <time>2026-08-31T10:46:21Z</time>
      </trkpt>
      <trkpt lat="43.44468" lon="-0.35322">
        <ele>222.2</ele>
        <time>2026-08-31T10:46:21Z</time>
      </trkpt>
      <trkpt lat="43.44468" lon="-0.35321">
        <ele>221.2</ele>
        <time>2026-08-31T10:46:22Z</time>
      </trkpt>
      <trkpt lat="43.44467" lon="-0.35321">
        <ele>221.2</ele>
        <time>2026-08-31T10:46:22Z</time>
      </trkpt>
      <trkpt lat="43.44467" lon="-0.35321">
        <ele>221.2</ele>
        <time>2026-08-31T10:46:23Z</time>
      </trkpt>
      <trkpt lat="43.44466" lon="-0.3532">
        <ele>221.2</ele>
        <time>2026-08-31T10:46:24Z</time>
      </trkpt>
      <trkpt lat="43.44465" lon="-0.3532">
        <ele>221.2</ele>
        <time>2026-08-31T10:46:24Z</time>
      </trkpt>
      <trkpt lat="43.44465" lon="-0.3532">
        <ele>221.2</ele>
        <time>2026-08-31T10:46:25Z</time>
      </trkpt>
      <trkpt lat="43.44464" lon="-0.35319">
        <ele>220.2</ele>
        <time>2026-08-31T10:46:25Z</time>
      </trkpt>
      <trkpt lat="43.44463" lon="-0.35319">
        <ele>220.2</ele>
        <time>2026-08-31T10:46:26Z</time>
      </trkpt>
      <trkpt lat="43.44463" lon="-0.35319">
        <ele>220.2</ele>
        <time>2026-08-31T10:46:26Z</time>
      </trkpt>
      <trkpt lat="43.44462" lon="-0.35319">
        <ele>220.2</ele>
        <time>2026-08-31T10:46:27Z</time>
      </trkpt>
      <trkpt lat="43.44461" lon="-0.35319">
        <ele>220.2</ele>
        <time>2026-08-31T10:46:27Z</time>
      </trkpt>
      <trkpt lat="43.44461" lon="-0.35319">
        <ele>220.2</ele>
        <time>2026-08-31T10:46:28Z</time>
      </trkpt>
      <trkpt lat="43.4446" lon="-0.35319">
        <ele>220.2</ele>
        <time>2026-08-31T10:46:29Z</time>
      </trkpt>
      <trkpt lat="43.44459" lon="-0.35319">
        <ele>220.2</ele>
        <time>2026-08-31T10:46:29Z</time>
      </trkpt>
      <trkpt lat="43.44459" lon="-0.35319">
        <ele>219.2</ele>
        <time>2026-08-31T10:46:30Z</time>
      </trkpt>
      <trkpt lat="43.44458" lon="-0.35319">
        <ele>219.2</ele>
        <time>2026-08-31T10:46:30Z</time>
      </trkpt>
      <trkpt lat="43.44457" lon="-0.35319">
        <ele>219.2</ele>
        <time>2026-08-31T10:46:31Z</time>
      </trkpt>
      <trkpt lat="43.44456" lon="-0.35319">
        <ele>219.2</ele>
        <time>2026-08-31T10:46:32Z</time>
      </trkpt>
      <trkpt lat="43.44456" lon="-0.35319">
        <ele>219.2</ele>
        <time>2026-08-31T10:46:32Z</time>
      </trkpt>
      <trkpt lat="43.44455" lon="-0.35319">
        <ele>219.2</ele>
        <time>2026-08-31T10:46:33Z</time>
      </trkpt>
      <trkpt lat="43.44454" lon="-0.35318">
        <ele>219.2</ele>
        <time>2026-08-31T10:46:33Z</time>
      </trkpt>
      <trkpt lat="43.44454" lon="-0.35318">
        <ele>219.2</ele>
        <time>2026-08-31T10:46:34Z</time>
      </trkpt>
      <trkpt lat="43.44453" lon="-0.35318">
        <ele>219.2</ele>
        <time>2026-08-31T10:46:35Z</time>
      </trkpt>
      <trkpt lat="43.44453" lon="-0.35318">
        <ele>219.2</ele>
        <time>2026-08-31T10:46:35Z</time>
      </trkpt>
      <trkpt lat="43.44452" lon="-0.35317">
        <ele>218.2</ele>
        <time>2026-08-31T10:46:36Z</time>
      </trkpt>
      <trkpt lat="43.44452" lon="-0.35317">
        <ele>218.2</ele>
        <time>2026-08-31T10:46:36Z</time>
      </trkpt>
      <trkpt lat="43.44451" lon="-0.35316">
        <ele>218.2</ele>
        <time>2026-08-31T10:46:37Z</time>
      </trkpt>
      <trkpt lat="43.44451" lon="-0.35316">
        <ele>218.2</ele>
        <time>2026-08-31T10:46:37Z</time>
      </trkpt>
      <trkpt lat="43.4445" lon="-0.35315">
        <ele>218.2</ele>
        <time>2026-08-31T10:46:38Z</time>
      </trkpt>
      <trkpt lat="43.44449" lon="-0.35315">
        <ele>218.2</ele>
        <time>2026-08-31T10:46:39Z</time>
      </trkpt>
      <trkpt lat="43.44449" lon="-0.35315">
        <ele>218.2</ele>
        <time>2026-08-31T10:46:39Z</time>
      </trkpt>
      <trkpt lat="43.44448" lon="-0.35315">
        <ele>218.2</ele>
        <time>2026-08-31T10:46:40Z</time>
      </trkpt>
      <trkpt lat="43.44448" lon="-0.35314">
        <ele>218.2</ele>
        <time>2026-08-31T10:46:40Z</time>
      </trkpt>
      <trkpt lat="43.44447" lon="-0.35314">
        <ele>218.2</ele>
        <time>2026-08-31T10:46:41Z</time>
      </trkpt>
      <trkpt lat="43.44447" lon="-0.35313">
        <ele>218.2</ele>
        <time>2026-08-31T10:46:41Z</time>
      </trkpt>
      <trkpt lat="43.44446" lon="-0.35312">
        <ele>217.2</ele>
        <time>2026-08-31T10:46:42Z</time>
      </trkpt>
      <trkpt lat="43.44446" lon="-0.35312">
        <ele>217.2</ele>
        <time>2026-08-31T10:46:42Z</time>
      </trkpt>
      <trkpt lat="43.44445" lon="-0.35311">
        <ele>218.2</ele>
        <time>2026-08-31T10:46:43Z</time>
      </trkpt>
      <trkpt lat="43.44444" lon="-0.35311">
        <ele>218.2</ele>
        <time>2026-08-31T10:46:43Z</time>
      </trkpt>
      <trkpt lat="43.44444" lon="-0.35311">
        <ele>218.2</ele>
        <time>2026-08-31T10:46:44Z</time>
      </trkpt>
      <trkpt lat="43.44443" lon="-0.35311">
        <ele>218.2</ele>
        <time>2026-08-31T10:46:45Z</time>
      </trkpt>
      <trkpt lat="43.44442" lon="-0.3531">
        <ele>217.2</ele>
        <time>2026-08-31T10:46:45Z</time>
      </trkpt>
      <trkpt lat="43.44441" lon="-0.3531">
        <ele>217.2</ele>
        <time>2026-08-31T10:46:46Z</time>
      </trkpt>
      <trkpt lat="43.44441" lon="-0.3531">
        <ele>217.2</ele>
        <time>2026-08-31T10:46:46Z</time>
      </trkpt>
      <trkpt lat="43.4444" lon="-0.3531">
        <ele>218.2</ele>
        <time>2026-08-31T10:46:47Z</time>
      </trkpt>
      <trkpt lat="43.44439" lon="-0.3531">
        <ele>218.2</ele>
        <time>2026-08-31T10:46:47Z</time>
      </trkpt>
      <trkpt lat="43.44439" lon="-0.3531">
        <ele>218.2</ele>
        <time>2026-08-31T10:46:48Z</time>
      </trkpt>
      <trkpt lat="43.44438" lon="-0.3531">
        <ele>218.2</ele>
        <time>2026-08-31T10:46:48Z</time>
      </trkpt>
      <trkpt lat="43.44437" lon="-0.35311">
        <ele>218.2</ele>
        <time>2026-08-31T10:46:49Z</time>
      </trkpt>
      <trkpt lat="43.44436" lon="-0.35311">
        <ele>218.2</ele>
        <time>2026-08-31T10:46:50Z</time>
      </trkpt>
      <trkpt lat="43.44435" lon="-0.35311">
        <ele>218.2</ele>
        <time>2026-08-31T10:46:51Z</time>
      </trkpt>
      <trkpt lat="43.44434" lon="-0.35311">
        <ele>217.2</ele>
        <time>2026-08-31T10:46:51Z</time>
      </trkpt>
      <trkpt lat="43.44434" lon="-0.35311">
        <ele>217.2</ele>
        <time>2026-08-31T10:46:52Z</time>
      </trkpt>
      <trkpt lat="43.44433" lon="-0.35311">
        <ele>217.2</ele>
        <time>2026-08-31T10:46:52Z</time>
      </trkpt>
      <trkpt lat="43.44433" lon="-0.35312">
        <ele>217.2</ele>
        <time>2026-08-31T10:46:53Z</time>
      </trkpt>
      <trkpt lat="43.44432" lon="-0.35312">
        <ele>217.2</ele>
        <time>2026-08-31T10:46:53Z</time>
      </trkpt>
      <trkpt lat="43.44431" lon="-0.35312">
        <ele>216.2</ele>
        <time>2026-08-31T10:46:54Z</time>
      </trkpt>
      <trkpt lat="43.4443" lon="-0.35312">
        <ele>216.2</ele>
        <time>2026-08-31T10:46:54Z</time>
      </trkpt>
      <trkpt lat="43.4443" lon="-0.35312">
        <ele>216.2</ele>
        <time>2026-08-31T10:46:55Z</time>
      </trkpt>
      <trkpt lat="43.44429" lon="-0.35312">
        <ele>216.2</ele>
        <time>2026-08-31T10:46:55Z</time>
      </trkpt>
      <trkpt lat="43.44429" lon="-0.35311">
        <ele>215.2</ele>
        <time>2026-08-31T10:46:56Z</time>
      </trkpt>
      <trkpt lat="43.44428" lon="-0.35311">
        <ele>215.2</ele>
        <time>2026-08-31T10:46:57Z</time>
      </trkpt>
      <trkpt lat="43.44427" lon="-0.35311">
        <ele>215.2</ele>
        <time>2026-08-31T10:46:57Z</time>
      </trkpt>
      <trkpt lat="43.44427" lon="-0.3531">
        <ele>215.2</ele>
        <time>2026-08-31T10:46:58Z</time>
      </trkpt>
      <trkpt lat="43.44426" lon="-0.3531">
        <ele>215.2</ele>
        <time>2026-08-31T10:46:58Z</time>
      </trkpt>
      <trkpt lat="43.44425" lon="-0.3531">
        <ele>216.2</ele>
        <time>2026-08-31T10:46:59Z</time>
      </trkpt>
      <trkpt lat="43.44424" lon="-0.3531">
        <ele>215.2</ele>
        <time>2026-08-31T10:47:00Z</time>
      </trkpt>
      <trkpt lat="43.44423" lon="-0.35309">
        <ele>215.2</ele>
        <time>2026-08-31T10:47:00Z</time>
      </trkpt>
      <trkpt lat="43.44423" lon="-0.35309">
        <ele>215.2</ele>
        <time>2026-08-31T10:47:01Z</time>
      </trkpt>
      <trkpt lat="43.44422" lon="-0.35309">
        <ele>215.2</ele>
        <time>2026-08-31T10:47:01Z</time>
      </trkpt>
      <trkpt lat="43.44422" lon="-0.35308">
        <ele>215.2</ele>
        <time>2026-08-31T10:47:02Z</time>
      </trkpt>
      <trkpt lat="43.44421" lon="-0.35308">
        <ele>215.2</ele>
        <time>2026-08-31T10:47:02Z</time>
      </trkpt>
      <trkpt lat="43.44421" lon="-0.35308">
        <ele>215.2</ele>
        <time>2026-08-31T10:47:03Z</time>
      </trkpt>
      <trkpt lat="43.4442" lon="-0.35307">
        <ele>215.2</ele>
        <time>2026-08-31T10:47:04Z</time>
      </trkpt>
      <trkpt lat="43.44419" lon="-0.35307">
        <ele>215.2</ele>
        <time>2026-08-31T10:47:04Z</time>
      </trkpt>
      <trkpt lat="43.44419" lon="-0.35307">
        <ele>215.2</ele>
        <time>2026-08-31T10:47:05Z</time>
      </trkpt>
      <trkpt lat="43.44418" lon="-0.35307">
        <ele>215.2</ele>
        <time>2026-08-31T10:47:05Z</time>
      </trkpt>
      <trkpt lat="43.44418" lon="-0.35307">
        <ele>216.2</ele>
        <time>2026-08-31T10:47:06Z</time>
      </trkpt>
      <trkpt lat="43.44417" lon="-0.35306">
        <ele>216.2</ele>
        <time>2026-08-31T10:47:06Z</time>
      </trkpt>
      <trkpt lat="43.44416" lon="-0.35306">
        <ele>215.2</ele>
        <time>2026-08-31T10:47:07Z</time>
      </trkpt>
      <trkpt lat="43.44416" lon="-0.35305">
        <ele>215.2</ele>
        <time>2026-08-31T10:47:07Z</time>
      </trkpt>
      <trkpt lat="43.44415" lon="-0.35305">
        <ele>215.2</ele>
        <time>2026-08-31T10:47:08Z</time>
      </trkpt>
      <trkpt lat="43.44415" lon="-0.35305">
        <ele>215.2</ele>
        <time>2026-08-31T10:47:08Z</time>
      </trkpt>
      <trkpt lat="43.44414" lon="-0.35304">
        <ele>216.2</ele>
        <time>2026-08-31T10:47:09Z</time>
      </trkpt>
      <trkpt lat="43.44414" lon="-0.35304">
        <ele>216.2</ele>
        <time>2026-08-31T10:47:10Z</time>
      </trkpt>
      <trkpt lat="43.44413" lon="-0.35303">
        <ele>216.2</ele>
        <time>2026-08-31T10:47:10Z</time>
      </trkpt>
      <trkpt lat="43.44412" lon="-0.35302">
        <ele>215.2</ele>
        <time>2026-08-31T10:47:11Z</time>
      </trkpt>
      <trkpt lat="43.44412" lon="-0.35302">
        <ele>215.2</ele>
        <time>2026-08-31T10:47:12Z</time>
      </trkpt>
      <trkpt lat="43.44411" lon="-0.35301">
        <ele>215.2</ele>
        <time>2026-08-31T10:47:12Z</time>
      </trkpt>
      <trkpt lat="43.44411" lon="-0.35301">
        <ele>215.2</ele>
        <time>2026-08-31T10:47:13Z</time>
      </trkpt>
      <trkpt lat="43.4441" lon="-0.353">
        <ele>215.2</ele>
        <time>2026-08-31T10:47:14Z</time>
      </trkpt>
      <trkpt lat="43.44409" lon="-0.35299">
        <ele>215.2</ele>
        <time>2026-08-31T10:47:14Z</time>
      </trkpt>
      <trkpt lat="43.44409" lon="-0.35299">
        <ele>215.2</ele>
        <time>2026-08-31T10:47:15Z</time>
      </trkpt>
      <trkpt lat="43.44408" lon="-0.35298">
        <ele>215.2</ele>
        <time>2026-08-31T10:47:16Z</time>
      </trkpt>
      <trkpt lat="43.44407" lon="-0.35298">
        <ele>215.2</ele>
        <time>2026-08-31T10:47:16Z</time>
      </trkpt>
      <trkpt lat="43.44407" lon="-0.35298">
        <ele>215.2</ele>
        <time>2026-08-31T10:47:17Z</time>
      </trkpt>
      <trkpt lat="43.44406" lon="-0.35297">
        <ele>215.2</ele>
        <time>2026-08-31T10:47:17Z</time>
      </trkpt>
      <trkpt lat="43.44406" lon="-0.35297">
        <ele>214.2</ele>
        <time>2026-08-31T10:47:18Z</time>
      </trkpt>
      <trkpt lat="43.44405" lon="-0.35297">
        <ele>214.2</ele>
        <time>2026-08-31T10:47:18Z</time>
      </trkpt>
      <trkpt lat="43.44404" lon="-0.35297">
        <ele>214.2</ele>
        <time>2026-08-31T10:47:19Z</time>
      </trkpt>
      <trkpt lat="43.44404" lon="-0.35297">
        <ele>214.2</ele>
        <time>2026-08-31T10:47:20Z</time>
      </trkpt>
      <trkpt lat="43.44403" lon="-0.35297">
        <ele>213.2</ele>
        <time>2026-08-31T10:47:20Z</time>
      </trkpt>
      <trkpt lat="43.44402" lon="-0.35298">
        <ele>213.2</ele>
        <time>2026-08-31T10:47:21Z</time>
      </trkpt>
      <trkpt lat="43.44401" lon="-0.35298">
        <ele>213.2</ele>
        <time>2026-08-31T10:47:21Z</time>
      </trkpt>
      <trkpt lat="43.44401" lon="-0.35299">
        <ele>214.2</ele>
        <time>2026-08-31T10:47:22Z</time>
      </trkpt>
      <trkpt lat="43.44401" lon="-0.353">
        <ele>214.2</ele>
        <time>2026-08-31T10:47:22Z</time>
      </trkpt>
      <trkpt lat="43.44401" lon="-0.35301">
        <ele>214.2</ele>
        <time>2026-08-31T10:47:23Z</time>
      </trkpt>
      <trkpt lat="43.444" lon="-0.35302">
        <ele>214.2</ele>
        <time>2026-08-31T10:47:24Z</time>
      </trkpt>
      <trkpt lat="43.444" lon="-0.35303">
        <ele>214.2</ele>
        <time>2026-08-31T10:47:24Z</time>
      </trkpt>
      <trkpt lat="43.444" lon="-0.35304">
        <ele>214.2</ele>
        <time>2026-08-31T10:47:25Z</time>
      </trkpt>
      <trkpt lat="43.444" lon="-0.35305">
        <ele>213.2</ele>
        <time>2026-08-31T10:47:25Z</time>
      </trkpt>
      <trkpt lat="43.444" lon="-0.35305">
        <ele>214.2</ele>
        <time>2026-08-31T10:47:26Z</time>
      </trkpt>
      <trkpt lat="43.44401" lon="-0.35306">
        <ele>214.2</ele>
        <time>2026-08-31T10:47:26Z</time>
      </trkpt>
      <trkpt lat="43.44401" lon="-0.35307">
        <ele>215.2</ele>
        <time>2026-08-31T10:47:27Z</time>
      </trkpt>
      <trkpt lat="43.44401" lon="-0.35308">
        <ele>215.2</ele>
        <time>2026-08-31T10:47:27Z</time>
      </trkpt>
      <trkpt lat="43.44401" lon="-0.35309">
        <ele>214.2</ele>
        <time>2026-08-31T10:47:28Z</time>
      </trkpt>
      <trkpt lat="43.44402" lon="-0.3531">
        <ele>214.2</ele>
        <time>2026-08-31T10:47:28Z</time>
      </trkpt>
      <trkpt lat="43.44402" lon="-0.3531">
        <ele>214.2</ele>
        <time>2026-08-31T10:47:29Z</time>
      </trkpt>
      <trkpt lat="43.44402" lon="-0.35311">
        <ele>214.2</ele>
        <time>2026-08-31T10:47:30Z</time>
      </trkpt>
      <trkpt lat="43.44402" lon="-0.35311">
        <ele>214.2</ele>
        <time>2026-08-31T10:47:30Z</time>
      </trkpt>
      <trkpt lat="43.44403" lon="-0.35312">
        <ele>214.2</ele>
        <time>2026-08-31T10:47:31Z</time>
      </trkpt>
      <trkpt lat="43.44403" lon="-0.35312">
        <ele>215.2</ele>
        <time>2026-08-31T10:47:31Z</time>
      </trkpt>
      <trkpt lat="43.44403" lon="-0.35313">
        <ele>215.2</ele>
        <time>2026-08-31T10:47:32Z</time>
      </trkpt>
      <trkpt lat="43.44404" lon="-0.35314">
        <ele>215.2</ele>
        <time>2026-08-31T10:47:32Z</time>
      </trkpt>
      <trkpt lat="43.44404" lon="-0.35314">
        <ele>216.2</ele>
        <time>2026-08-31T10:47:33Z</time>
      </trkpt>
      <trkpt lat="43.44404" lon="-0.35315">
        <ele>216.2</ele>
        <time>2026-08-31T10:47:33Z</time>
      </trkpt>
      <trkpt lat="43.44404" lon="-0.35315">
        <ele>216.2</ele>
        <time>2026-08-31T10:47:34Z</time>
      </trkpt>
      <trkpt lat="43.44405" lon="-0.35316">
        <ele>216.2</ele>
        <time>2026-08-31T10:47:34Z</time>
      </trkpt>
      <trkpt lat="43.44405" lon="-0.35316">
        <ele>217.2</ele>
        <time>2026-08-31T10:47:35Z</time>
      </trkpt>
      <trkpt lat="43.44406" lon="-0.35317">
        <ele>217.2</ele>
        <time>2026-08-31T10:47:36Z</time>
      </trkpt>
      <trkpt lat="43.44406" lon="-0.35317">
        <ele>217.2</ele>
        <time>2026-08-31T10:47:36Z</time>
      </trkpt>
      <trkpt lat="43.44406" lon="-0.35318">
        <ele>217.2</ele>
        <time>2026-08-31T10:47:37Z</time>
      </trkpt>
      <trkpt lat="43.44407" lon="-0.35319">
        <ele>217.2</ele>
        <time>2026-08-31T10:47:37Z</time>
      </trkpt>
      <trkpt lat="43.44407" lon="-0.35319">
        <ele>217.2</ele>
        <time>2026-08-31T10:47:38Z</time>
      </trkpt>
      <trkpt lat="43.44407" lon="-0.35319">
        <ele>217.2</ele>
        <time>2026-08-31T10:47:38Z</time>
      </trkpt>
      <trkpt lat="43.44408" lon="-0.35319">
        <ele>218.2</ele>
        <time>2026-08-31T10:47:39Z</time>
      </trkpt>
      <trkpt lat="43.44408" lon="-0.3532">
        <ele>218.2</ele>
        <time>2026-08-31T10:47:39Z</time>
      </trkpt>
      <trkpt lat="43.44408" lon="-0.3532">
        <ele>218.2</ele>
        <time>2026-08-31T10:47:40Z</time>
      </trkpt>
      <trkpt lat="43.44409" lon="-0.3532">
        <ele>218.2</ele>
        <time>2026-08-31T10:47:40Z</time>
      </trkpt>
      <trkpt lat="43.44409" lon="-0.35321">
        <ele>218.2</ele>
        <time>2026-08-31T10:47:41Z</time>
      </trkpt>
      <trkpt lat="43.44409" lon="-0.35321">
        <ele>218.2</ele>
        <time>2026-08-31T10:47:42Z</time>
      </trkpt>
      <trkpt lat="43.44409" lon="-0.35321">
        <ele>218.2</ele>
        <time>2026-08-31T10:47:42Z</time>
      </trkpt>
      <trkpt lat="43.4441" lon="-0.35321">
        <ele>219.2</ele>
        <time>2026-08-31T10:47:43Z</time>
      </trkpt>
      <trkpt lat="43.4441" lon="-0.35322">
        <ele>219.2</ele>
        <time>2026-08-31T10:47:44Z</time>
      </trkpt>
      <trkpt lat="43.44411" lon="-0.35322">
        <ele>219.2</ele>
        <time>2026-08-31T10:47:44Z</time>
      </trkpt>
      <trkpt lat="43.44411" lon="-0.35322">
        <ele>219.2</ele>
        <time>2026-08-31T10:47:45Z</time>
      </trkpt>
      <trkpt lat="43.44412" lon="-0.35322">
        <ele>219.2</ele>
        <time>2026-08-31T10:47:46Z</time>
      </trkpt>
      <trkpt lat="43.44412" lon="-0.35322">
        <ele>218.2</ele>
        <time>2026-08-31T10:47:46Z</time>
      </trkpt>
      <trkpt lat="43.44413" lon="-0.35323">
        <ele>218.2</ele>
        <time>2026-08-31T10:47:47Z</time>
      </trkpt>
      <trkpt lat="43.44413" lon="-0.35324">
        <ele>218.2</ele>
        <time>2026-08-31T10:47:47Z</time>
      </trkpt>
      <trkpt lat="43.44414" lon="-0.35324">
        <ele>218.2</ele>
        <time>2026-08-31T10:47:48Z</time>
      </trkpt>
      <trkpt lat="43.44414" lon="-0.35324">
        <ele>218.2</ele>
        <time>2026-08-31T10:47:48Z</time>
      </trkpt>
      <trkpt lat="43.44414" lon="-0.35325">
        <ele>217.2</ele>
        <time>2026-08-31T10:47:49Z</time>
      </trkpt>
      <trkpt lat="43.44415" lon="-0.35325">
        <ele>217.2</ele>
        <time>2026-08-31T10:47:49Z</time>
      </trkpt>
      <trkpt lat="43.44415" lon="-0.35326">
        <ele>217.2</ele>
        <time>2026-08-31T10:47:50Z</time>
      </trkpt>
      <trkpt lat="43.44415" lon="-0.35326">
        <ele>217.2</ele>
        <time>2026-08-31T10:47:50Z</time>
      </trkpt>
      <trkpt lat="43.44416" lon="-0.35327">
        <ele>217.2</ele>
        <time>2026-08-31T10:47:51Z</time>
      </trkpt>
      <trkpt lat="43.44416" lon="-0.35327">
        <ele>217.2</ele>
        <time>2026-08-31T10:47:52Z</time>
      </trkpt>
      <trkpt lat="43.44416" lon="-0.35328">
        <ele>217.2</ele>
        <time>2026-08-31T10:47:52Z</time>
      </trkpt>
      <trkpt lat="43.44416" lon="-0.35329">
        <ele>217.2</ele>
        <time>2026-08-31T10:47:53Z</time>
      </trkpt>
      <trkpt lat="43.44416" lon="-0.35329">
        <ele>217.2</ele>
        <time>2026-08-31T10:47:53Z</time>
      </trkpt>
      <trkpt lat="43.44416" lon="-0.3533">
        <ele>217.2</ele>
        <time>2026-08-31T10:47:54Z</time>
      </trkpt>
      <trkpt lat="43.44416" lon="-0.35331">
        <ele>217.2</ele>
        <time>2026-08-31T10:47:54Z</time>
      </trkpt>
      <trkpt lat="43.44416" lon="-0.35332">
        <ele>216.2</ele>
        <time>2026-08-31T10:47:55Z</time>
      </trkpt>
      <trkpt lat="43.44417" lon="-0.35333">
        <ele>216.2</ele>
        <time>2026-08-31T10:47:55Z</time>
      </trkpt>
      <trkpt lat="43.44417" lon="-0.35334">
        <ele>216.2</ele>
        <time>2026-08-31T10:47:56Z</time>
      </trkpt>
      <trkpt lat="43.44417" lon="-0.35335">
        <ele>216.2</ele>
        <time>2026-08-31T10:47:57Z</time>
      </trkpt>
      <trkpt lat="43.44417" lon="-0.35335">
        <ele>216.2</ele>
        <time>2026-08-31T10:47:57Z</time>
      </trkpt>
      <trkpt lat="43.44417" lon="-0.35336">
        <ele>216.2</ele>
        <time>2026-08-31T10:47:58Z</time>
      </trkpt>
      <trkpt lat="43.44417" lon="-0.35337">
        <ele>216.2</ele>
        <time>2026-08-31T10:47:58Z</time>
      </trkpt>
      <trkpt lat="43.44417" lon="-0.35337">
        <ele>216.2</ele>
        <time>2026-08-31T10:47:59Z</time>
      </trkpt>
      <trkpt lat="43.44418" lon="-0.35338">
        <ele>216.2</ele>
        <time>2026-08-31T10:47:59Z</time>
      </trkpt>
      <trkpt lat="43.44418" lon="-0.35339">
        <ele>216.2</ele>
        <time>2026-08-31T10:48:00Z</time>
      </trkpt>
      <trkpt lat="43.44418" lon="-0.35339">
        <ele>216.2</ele>
        <time>2026-08-31T10:48:00Z</time>
      </trkpt>
      <trkpt lat="43.44419" lon="-0.3534">
        <ele>216.2</ele>
        <time>2026-08-31T10:48:01Z</time>
      </trkpt>
      <trkpt lat="43.44419" lon="-0.35341">
        <ele>216.2</ele>
        <time>2026-08-31T10:48:02Z</time>
      </trkpt>
      <trkpt lat="43.44419" lon="-0.35342">
        <ele>216.2</ele>
        <time>2026-08-31T10:48:02Z</time>
      </trkpt>
      <trkpt lat="43.44419" lon="-0.35342">
        <ele>216.2</ele>
        <time>2026-08-31T10:48:03Z</time>
      </trkpt>
      <trkpt lat="43.44418" lon="-0.35343">
        <ele>217.2</ele>
        <time>2026-08-31T10:48:04Z</time>
      </trkpt>
      <trkpt lat="43.44418" lon="-0.35344">
        <ele>217.2</ele>
        <time>2026-08-31T10:48:05Z</time>
      </trkpt>
      <trkpt lat="43.44418" lon="-0.35344">
        <ele>217.2</ele>
        <time>2026-08-31T10:48:06Z</time>
      </trkpt>
      <trkpt lat="43.44418" lon="-0.35344">
        <ele>216.2</ele>
        <time>2026-08-31T10:48:06Z</time>
      </trkpt>
      <trkpt lat="43.44418" lon="-0.35344">
        <ele>216.2</ele>
        <time>2026-08-31T10:48:07Z</time>
      </trkpt>
      <trkpt lat="43.44418" lon="-0.35345">
        <ele>216.2</ele>
        <time>2026-08-31T10:48:08Z</time>
      </trkpt>
      <trkpt lat="43.44419" lon="-0.35345">
        <ele>216.2</ele>
        <time>2026-08-31T10:48:08Z</time>
      </trkpt>
      <trkpt lat="43.44419" lon="-0.35346">
        <ele>216.2</ele>
        <time>2026-08-31T10:48:09Z</time>
      </trkpt>
      <trkpt lat="43.4442" lon="-0.35347">
        <ele>216.2</ele>
        <time>2026-08-31T10:48:10Z</time>
      </trkpt>
      <trkpt lat="43.4442" lon="-0.35347">
        <ele>217.2</ele>
        <time>2026-08-31T10:48:10Z</time>
      </trkpt>
      <trkpt lat="43.44421" lon="-0.35348">
        <ele>217.2</ele>
        <time>2026-08-31T10:48:11Z</time>
      </trkpt>
      <trkpt lat="43.44422" lon="-0.35348">
        <ele>216.2</ele>
        <time>2026-08-31T10:48:11Z</time>
      </trkpt>
      <trkpt lat="43.44422" lon="-0.35348">
        <ele>217.2</ele>
        <time>2026-08-31T10:48:12Z</time>
      </trkpt>
      <trkpt lat="43.44422" lon="-0.35349">
        <ele>217.2</ele>
        <time>2026-08-31T10:48:12Z</time>
      </trkpt>
      <trkpt lat="43.44423" lon="-0.35349">
        <ele>217.2</ele>
        <time>2026-08-31T10:48:13Z</time>
      </trkpt>
      <trkpt lat="43.44423" lon="-0.3535">
        <ele>217.2</ele>
        <time>2026-08-31T10:48:13Z</time>
      </trkpt>
      <trkpt lat="43.44424" lon="-0.35351">
        <ele>216.2</ele>
        <time>2026-08-31T10:48:14Z</time>
      </trkpt>
      <trkpt lat="43.44424" lon="-0.35352">
        <ele>217.2</ele>
        <time>2026-08-31T10:48:15Z</time>
      </trkpt>
      <trkpt lat="43.44425" lon="-0.35353">
        <ele>217.2</ele>
        <time>2026-08-31T10:48:15Z</time>
      </trkpt>
      <trkpt lat="43.44425" lon="-0.35353">
        <ele>217.2</ele>
        <time>2026-08-31T10:48:16Z</time>
      </trkpt>
      <trkpt lat="43.44425" lon="-0.35354">
        <ele>217.2</ele>
        <time>2026-08-31T10:48:17Z</time>
      </trkpt>
      <trkpt lat="43.44426" lon="-0.35354">
        <ele>216.2</ele>
        <time>2026-08-31T10:48:17Z</time>
      </trkpt>
      <trkpt lat="43.44426" lon="-0.35355">
        <ele>216.2</ele>
        <time>2026-08-31T10:48:18Z</time>
      </trkpt>
      <trkpt lat="43.44427" lon="-0.35356">
        <ele>216.2</ele>
        <time>2026-08-31T10:48:18Z</time>
      </trkpt>
      <trkpt lat="43.44427" lon="-0.35356">
        <ele>216.2</ele>
        <time>2026-08-31T10:48:19Z</time>
      </trkpt>
      <trkpt lat="43.44427" lon="-0.35357">
        <ele>216.2</ele>
        <time>2026-08-31T10:48:19Z</time>
      </trkpt>
      <trkpt lat="43.44428" lon="-0.35359">
        <ele>216.2</ele>
        <time>2026-08-31T10:48:20Z</time>
      </trkpt>
      <trkpt lat="43.44428" lon="-0.35359">
        <ele>216.2</ele>
        <time>2026-08-31T10:48:21Z</time>
      </trkpt>
      <trkpt lat="43.44428" lon="-0.3536">
        <ele>216.2</ele>
        <time>2026-08-31T10:48:21Z</time>
      </trkpt>
      <trkpt lat="43.44429" lon="-0.35361">
        <ele>216.2</ele>
        <time>2026-08-31T10:48:23Z</time>
      </trkpt>
      <trkpt lat="43.44428" lon="-0.35362">
        <ele>216.2</ele>
        <time>2026-08-31T10:48:23Z</time>
      </trkpt>
      <trkpt lat="43.44429" lon="-0.35363">
        <ele>216.2</ele>
        <time>2026-08-31T10:48:24Z</time>
      </trkpt>
      <trkpt lat="43.44428" lon="-0.35363">
        <ele>216.2</ele>
        <time>2026-08-31T10:48:25Z</time>
      </trkpt>
      <trkpt lat="43.44429" lon="-0.35364">
        <ele>216.2</ele>
        <time>2026-08-31T10:48:25Z</time>
      </trkpt>
      <trkpt lat="43.44429" lon="-0.35365">
        <ele>216.2</ele>
        <time>2026-08-31T10:48:26Z</time>
      </trkpt>
      <trkpt lat="43.44429" lon="-0.35366">
        <ele>216.2</ele>
        <time>2026-08-31T10:48:26Z</time>
      </trkpt>
      <trkpt lat="43.44429" lon="-0.35366">
        <ele>216.2</ele>
        <time>2026-08-31T10:48:27Z</time>
      </trkpt>
      <trkpt lat="43.44429" lon="-0.35367">
        <ele>216.2</ele>
        <time>2026-08-31T10:48:27Z</time>
      </trkpt>
      <trkpt lat="43.44429" lon="-0.35368">
        <ele>216.2</ele>
        <time>2026-08-31T10:48:28Z</time>
      </trkpt>
      <trkpt lat="43.4443" lon="-0.35368">
        <ele>216.2</ele>
        <time>2026-08-31T10:48:29Z</time>
      </trkpt>
      <trkpt lat="43.4443" lon="-0.35369">
        <ele>215.2</ele>
        <time>2026-08-31T10:48:29Z</time>
      </trkpt>
      <trkpt lat="43.4443" lon="-0.3537">
        <ele>215.2</ele>
        <time>2026-08-31T10:48:30Z</time>
      </trkpt>
      <trkpt lat="43.4443" lon="-0.3537">
        <ele>215.2</ele>
        <time>2026-08-31T10:48:30Z</time>
      </trkpt>
      <trkpt lat="43.44431" lon="-0.3537">
        <ele>215.2</ele>
        <time>2026-08-31T10:48:31Z</time>
      </trkpt>
      <trkpt lat="43.44431" lon="-0.35371">
        <ele>215.2</ele>
        <time>2026-08-31T10:48:31Z</time>
      </trkpt>
      <trkpt lat="43.44431" lon="-0.35371">
        <ele>214.2</ele>
        <time>2026-08-31T10:48:32Z</time>
      </trkpt>
      <trkpt lat="43.44432" lon="-0.35372">
        <ele>214.2</ele>
        <time>2026-08-31T10:48:32Z</time>
      </trkpt>
      <trkpt lat="43.44432" lon="-0.35373">
        <ele>214.2</ele>
        <time>2026-08-31T10:48:33Z</time>
      </trkpt>
      <trkpt lat="43.44432" lon="-0.35373">
        <ele>214.2</ele>
        <time>2026-08-31T10:48:33Z</time>
      </trkpt>
      <trkpt lat="43.44433" lon="-0.35374">
        <ele>213.2</ele>
        <time>2026-08-31T10:48:34Z</time>
      </trkpt>
      <trkpt lat="43.44433" lon="-0.35375">
        <ele>213.2</ele>
        <time>2026-08-31T10:48:35Z</time>
      </trkpt>
      <trkpt lat="43.44434" lon="-0.35375">
        <ele>214.2</ele>
        <time>2026-08-31T10:48:35Z</time>
      </trkpt>
      <trkpt lat="43.44435" lon="-0.35376">
        <ele>214.2</ele>
        <time>2026-08-31T10:48:36Z</time>
      </trkpt>
      <trkpt lat="43.44435" lon="-0.35376">
        <ele>214.2</ele>
        <time>2026-08-31T10:48:37Z</time>
      </trkpt>
      <trkpt lat="43.44436" lon="-0.35377">
        <ele>214.2</ele>
        <time>2026-08-31T10:48:37Z</time>
      </trkpt>
      <trkpt lat="43.44436" lon="-0.35377">
        <ele>213.2</ele>
        <time>2026-08-31T10:48:38Z</time>
      </trkpt>
      <trkpt lat="43.44437" lon="-0.35378">
        <ele>213.2</ele>
        <time>2026-08-31T10:48:38Z</time>
      </trkpt>
      <trkpt lat="43.44437" lon="-0.35378">
        <ele>213.2</ele>
        <time>2026-08-31T10:48:39Z</time>
      </trkpt>
      <trkpt lat="43.44438" lon="-0.35379">
        <ele>213.2</ele>
        <time>2026-08-31T10:48:40Z</time>
      </trkpt>
      <trkpt lat="43.44438" lon="-0.35379">
        <ele>213.2</ele>
        <time>2026-08-31T10:48:40Z</time>
      </trkpt>
      <trkpt lat="43.44438" lon="-0.3538">
        <ele>213.2</ele>
        <time>2026-08-31T10:48:41Z</time>
      </trkpt>
      <trkpt lat="43.44438" lon="-0.35381">
        <ele>213.2</ele>
        <time>2026-08-31T10:48:41Z</time>
      </trkpt>
      <trkpt lat="43.44439" lon="-0.35381">
        <ele>213.2</ele>
        <time>2026-08-31T10:48:42Z</time>
      </trkpt>
      <trkpt lat="43.44439" lon="-0.35382">
        <ele>213.2</ele>
        <time>2026-08-31T10:48:42Z</time>
      </trkpt>
      <trkpt lat="43.44439" lon="-0.35382">
        <ele>212.2</ele>
        <time>2026-08-31T10:48:43Z</time>
      </trkpt>
      <trkpt lat="43.4444" lon="-0.35382">
        <ele>212.2</ele>
        <time>2026-08-31T10:48:43Z</time>
      </trkpt>
      <trkpt lat="43.4444" lon="-0.35382">
        <ele>212.2</ele>
        <time>2026-08-31T10:48:44Z</time>
      </trkpt>
      <trkpt lat="43.44441" lon="-0.35383">
        <ele>212.2</ele>
        <time>2026-08-31T10:48:44Z</time>
      </trkpt>
      <trkpt lat="43.44441" lon="-0.35384">
        <ele>211.2</ele>
        <time>2026-08-31T10:48:45Z</time>
      </trkpt>
      <trkpt lat="43.44442" lon="-0.35385">
        <ele>211.2</ele>
        <time>2026-08-31T10:48:46Z</time>
      </trkpt>
      <trkpt lat="43.44442" lon="-0.35386">
        <ele>211.2</ele>
        <time>2026-08-31T10:48:47Z</time>
      </trkpt>
      <trkpt lat="43.44442" lon="-0.35386">
        <ele>210.2</ele>
        <time>2026-08-31T10:48:47Z</time>
      </trkpt>
      <trkpt lat="43.44442" lon="-0.35387">
        <ele>210.2</ele>
        <time>2026-08-31T10:48:48Z</time>
      </trkpt>
      <trkpt lat="43.44442" lon="-0.35388">
        <ele>210.2</ele>
        <time>2026-08-31T10:48:48Z</time>
      </trkpt>
      <trkpt lat="43.44442" lon="-0.35388">
        <ele>210.2</ele>
        <time>2026-08-31T10:48:49Z</time>
      </trkpt>
      <trkpt lat="43.44441" lon="-0.35389">
        <ele>210.2</ele>
        <time>2026-08-31T10:48:49Z</time>
      </trkpt>
      <trkpt lat="43.44441" lon="-0.3539">
        <ele>209.2</ele>
        <time>2026-08-31T10:48:50Z</time>
      </trkpt>
      <trkpt lat="43.44441" lon="-0.35391">
        <ele>209.2</ele>
        <time>2026-08-31T10:48:50Z</time>
      </trkpt>
      <trkpt lat="43.4444" lon="-0.35391">
        <ele>209.2</ele>
        <time>2026-08-31T10:48:51Z</time>
      </trkpt>
      <trkpt lat="43.44439" lon="-0.35392">
        <ele>209.2</ele>
        <time>2026-08-31T10:48:51Z</time>
      </trkpt>
      <trkpt lat="43.44439" lon="-0.35392">
        <ele>209.2</ele>
        <time>2026-08-31T10:48:52Z</time>
      </trkpt>
      <trkpt lat="43.44438" lon="-0.35393">
        <ele>209.2</ele>
        <time>2026-08-31T10:48:52Z</time>
      </trkpt>
      <trkpt lat="43.44437" lon="-0.35393">
        <ele>208.2</ele>
        <time>2026-08-31T10:48:53Z</time>
      </trkpt>
      <trkpt lat="43.44436" lon="-0.35393">
        <ele>208.2</ele>
        <time>2026-08-31T10:48:54Z</time>
      </trkpt>
      <trkpt lat="43.44435" lon="-0.35393">
        <ele>208.2</ele>
        <time>2026-08-31T10:48:54Z</time>
      </trkpt>
      <trkpt lat="43.44434" lon="-0.35394">
        <ele>209.2</ele>
        <time>2026-08-31T10:48:55Z</time>
      </trkpt>
      <trkpt lat="43.44433" lon="-0.35393">
        <ele>209.2</ele>
        <time>2026-08-31T10:48:56Z</time>
      </trkpt>
      <trkpt lat="43.44432" lon="-0.35393">
        <ele>209.2</ele>
        <time>2026-08-31T10:48:57Z</time>
      </trkpt>
      <trkpt lat="43.44431" lon="-0.35393">
        <ele>208.2</ele>
        <time>2026-08-31T10:48:58Z</time>
      </trkpt>
      <trkpt lat="43.4443" lon="-0.35393">
        <ele>208.2</ele>
        <time>2026-08-31T10:48:59Z</time>
      </trkpt>
      <trkpt lat="43.44429" lon="-0.35393">
        <ele>208.2</ele>
        <time>2026-08-31T10:49:00Z</time>
      </trkpt>
      <trkpt lat="43.44429" lon="-0.35392">
        <ele>209.2</ele>
        <time>2026-08-31T10:49:01Z</time>
      </trkpt>
      <trkpt lat="43.44429" lon="-0.35392">
        <ele>209.2</ele>
        <time>2026-08-31T10:49:02Z</time>
      </trkpt>
      <trkpt lat="43.4443" lon="-0.35393">
        <ele>210.2</ele>
        <time>2026-08-31T10:49:03Z</time>
      </trkpt>
      <trkpt lat="43.44431" lon="-0.35393">
        <ele>210.2</ele>
        <time>2026-08-31T10:49:03Z</time>
      </trkpt>
      <trkpt lat="43.44431" lon="-0.35394">
        <ele>210.2</ele>
        <time>2026-08-31T10:49:05Z</time>
      </trkpt>
      <trkpt lat="43.44431" lon="-0.35394">
        <ele>210.2</ele>
        <time>2026-08-31T10:49:06Z</time>
      </trkpt>
      <trkpt lat="43.44431" lon="-0.35394">
        <ele>210.2</ele>
        <time>2026-08-31T10:49:07Z</time>
      </trkpt>
      <trkpt lat="43.44431" lon="-0.35394">
        <ele>210.2</ele>
        <time>2026-08-31T10:49:08Z</time>
      </trkpt>
      <trkpt lat="43.44431" lon="-0.35394">
        <ele>210.2</ele>
        <time>2026-08-31T10:49:09Z</time>
      </trkpt>
      <trkpt lat="43.44431" lon="-0.35395">
        <ele>210.2</ele>
        <time>2026-08-31T10:49:10Z</time>
      </trkpt>
      <trkpt lat="43.44431" lon="-0.35394">
        <ele>210.2</ele>
        <time>2026-08-31T10:49:11Z</time>
      </trkpt>
      <trkpt lat="43.44431" lon="-0.35394">
        <ele>210.2</ele>
        <time>2026-08-31T10:49:12Z</time>
      </trkpt>
      <trkpt lat="43.44431" lon="-0.35394">
        <ele>210.2</ele>
        <time>2026-08-31T10:49:13Z</time>
      </trkpt>
      <trkpt lat="43.44431" lon="-0.35394">
        <ele>210.2</ele>
        <time>2026-08-31T10:49:13Z</time>
      </trkpt>
      <trkpt lat="43.44431" lon="-0.35394">
        <ele>210.2</ele>
        <time>2026-08-31T10:49:14Z</time>
      </trkpt>
      <trkpt lat="43.44431" lon="-0.35394">
        <ele>210.2</ele>
        <time>2026-08-31T10:49:14Z</time>
      </trkpt>
      <trkpt lat="43.44431" lon="-0.35394">
        <ele>210.2</ele>
        <time>2026-08-31T10:49:15Z</time>
      </trkpt>
      <trkpt lat="43.44431" lon="-0.35394">
        <ele>209.2</ele>
        <time>2026-08-31T10:49:16Z</time>
      </trkpt>
      <trkpt lat="43.44431" lon="-0.35394">
        <ele>209.2</ele>
        <time>2026-08-31T10:49:17Z</time>
      </trkpt>
      <trkpt lat="43.4443" lon="-0.35394">
        <ele>209.2</ele>
        <time>2026-08-31T10:49:17Z</time>
      </trkpt>
      <trkpt lat="43.44429" lon="-0.35393">
        <ele>208.2</ele>
        <time>2026-08-31T10:49:18Z</time>
      </trkpt>
      <trkpt lat="43.44429" lon="-0.35392">
        <ele>208.2</ele>
        <time>2026-08-31T10:49:19Z</time>
      </trkpt>
      <trkpt lat="43.44428" lon="-0.35392">
        <ele>209.2</ele>
        <time>2026-08-31T10:49:19Z</time>
      </trkpt>
      <trkpt lat="43.44428" lon="-0.35392">
        <ele>209.2</ele>
        <time>2026-08-31T10:49:20Z</time>
      </trkpt>
      <trkpt lat="43.44427" lon="-0.35392">
        <ele>209.2</ele>
        <time>2026-08-31T10:49:20Z</time>
      </trkpt>
      <trkpt lat="43.44426" lon="-0.35392">
        <ele>209.2</ele>
        <time>2026-08-31T10:49:21Z</time>
      </trkpt>
      <trkpt lat="43.44426" lon="-0.35392">
        <ele>209.2</ele>
        <time>2026-08-31T10:49:21Z</time>
      </trkpt>
      <trkpt lat="43.44425" lon="-0.35392">
        <ele>209.2</ele>
        <time>2026-08-31T10:49:22Z</time>
      </trkpt>
      <trkpt lat="43.44424" lon="-0.35392">
        <ele>209.2</ele>
        <time>2026-08-31T10:49:22Z</time>
      </trkpt>
      <trkpt lat="43.44423" lon="-0.35392">
        <ele>209.2</ele>
        <time>2026-08-31T10:49:23Z</time>
      </trkpt>
      <trkpt lat="43.44423" lon="-0.35392">
        <ele>209.2</ele>
        <time>2026-08-31T10:49:23Z</time>
      </trkpt>
      <trkpt lat="43.44422" lon="-0.35393">
        <ele>209.2</ele>
        <time>2026-08-31T10:49:24Z</time>
      </trkpt>
      <trkpt lat="43.44421" lon="-0.35392">
        <ele>209.2</ele>
        <time>2026-08-31T10:49:24Z</time>
      </trkpt>
      <trkpt lat="43.4442" lon="-0.35393">
        <ele>209.2</ele>
        <time>2026-08-31T10:49:25Z</time>
      </trkpt>
      <trkpt lat="43.4442" lon="-0.35393">
        <ele>209.2</ele>
        <time>2026-08-31T10:49:26Z</time>
      </trkpt>
      <trkpt lat="43.44419" lon="-0.35393">
        <ele>210.2</ele>
        <time>2026-08-31T10:49:26Z</time>
      </trkpt>
      <trkpt lat="43.44418" lon="-0.35393">
        <ele>210.2</ele>
        <time>2026-08-31T10:49:27Z</time>
      </trkpt>
      <trkpt lat="43.44417" lon="-0.35393">
        <ele>210.2</ele>
        <time>2026-08-31T10:49:27Z</time>
      </trkpt>
      <trkpt lat="43.44417" lon="-0.35394">
        <ele>210.2</ele>
        <time>2026-08-31T10:49:28Z</time>
      </trkpt>
      <trkpt lat="43.44416" lon="-0.35394">
        <ele>209.2</ele>
        <time>2026-08-31T10:49:28Z</time>
      </trkpt>
      <trkpt lat="43.44415" lon="-0.35394">
        <ele>209.2</ele>
        <time>2026-08-31T10:49:29Z</time>
      </trkpt>
      <trkpt lat="43.44414" lon="-0.35394">
        <ele>209.2</ele>
        <time>2026-08-31T10:49:29Z</time>
      </trkpt>
      <trkpt lat="43.44414" lon="-0.35393">
        <ele>209.2</ele>
        <time>2026-08-31T10:49:30Z</time>
      </trkpt>
      <trkpt lat="43.44413" lon="-0.35393">
        <ele>209.2</ele>
        <time>2026-08-31T10:49:30Z</time>
      </trkpt>
      <trkpt lat="43.44412" lon="-0.35393">
        <ele>208.2</ele>
        <time>2026-08-31T10:49:31Z</time>
      </trkpt>
      <trkpt lat="43.44412" lon="-0.35393">
        <ele>208.2</ele>
        <time>2026-08-31T10:49:31Z</time>
      </trkpt>
      <trkpt lat="43.44411" lon="-0.35392">
        <ele>208.2</ele>
        <time>2026-08-31T10:49:33Z</time>
      </trkpt>
      <trkpt lat="43.4441" lon="-0.35392">
        <ele>208.2</ele>
        <time>2026-08-31T10:49:33Z</time>
      </trkpt>
      <trkpt lat="43.44409" lon="-0.35392">
        <ele>208.2</ele>
        <time>2026-08-31T10:49:34Z</time>
      </trkpt>
      <trkpt lat="43.44409" lon="-0.35391">
        <ele>207.2</ele>
        <time>2026-08-31T10:49:34Z</time>
      </trkpt>
      <trkpt lat="43.44409" lon="-0.35391">
        <ele>208.2</ele>
        <time>2026-08-31T10:49:35Z</time>
      </trkpt>
      <trkpt lat="43.44408" lon="-0.35391">
        <ele>208.2</ele>
        <time>2026-08-31T10:49:35Z</time>
      </trkpt>
      <trkpt lat="43.44407" lon="-0.3539">
        <ele>207.2</ele>
        <time>2026-08-31T10:49:36Z</time>
      </trkpt>
      <trkpt lat="43.44407" lon="-0.3539">
        <ele>207.2</ele>
        <time>2026-08-31T10:49:36Z</time>
      </trkpt>
      <trkpt lat="43.44406" lon="-0.3539">
        <ele>207.2</ele>
        <time>2026-08-31T10:49:37Z</time>
      </trkpt>
      <trkpt lat="43.44406" lon="-0.3539">
        <ele>207.2</ele>
        <time>2026-08-31T10:49:37Z</time>
      </trkpt>
      <trkpt lat="43.44405" lon="-0.35389">
        <ele>206.2</ele>
        <time>2026-08-31T10:49:38Z</time>
      </trkpt>
      <trkpt lat="43.44405" lon="-0.35389">
        <ele>206.2</ele>
        <time>2026-08-31T10:49:38Z</time>
      </trkpt>
      <trkpt lat="43.44404" lon="-0.35389">
        <ele>206.2</ele>
        <time>2026-08-31T10:49:39Z</time>
      </trkpt>
      <trkpt lat="43.44403" lon="-0.35389">
        <ele>206.2</ele>
        <time>2026-08-31T10:49:40Z</time>
      </trkpt>
      <trkpt lat="43.44403" lon="-0.35389">
        <ele>205.2</ele>
        <time>2026-08-31T10:49:40Z</time>
      </trkpt>
      <trkpt lat="43.44402" lon="-0.35388">
        <ele>205.2</ele>
        <time>2026-08-31T10:49:41Z</time>
      </trkpt>
      <trkpt lat="43.44401" lon="-0.35388">
        <ele>204.2</ele>
        <time>2026-08-31T10:49:41Z</time>
      </trkpt>
      <trkpt lat="43.44401" lon="-0.35388">
        <ele>204.2</ele>
        <time>2026-08-31T10:49:42Z</time>
      </trkpt>
      <trkpt lat="43.444" lon="-0.35388">
        <ele>204.2</ele>
        <time>2026-08-31T10:49:42Z</time>
      </trkpt>
      <trkpt lat="43.44399" lon="-0.35387">
        <ele>204.2</ele>
        <time>2026-08-31T10:49:43Z</time>
      </trkpt>
      <trkpt lat="43.44399" lon="-0.35387">
        <ele>203.2</ele>
        <time>2026-08-31T10:49:43Z</time>
      </trkpt>
      <trkpt lat="43.44398" lon="-0.35387">
        <ele>202.2</ele>
        <time>2026-08-31T10:49:44Z</time>
      </trkpt>
      <trkpt lat="43.44398" lon="-0.35387">
        <ele>202.2</ele>
        <time>2026-08-31T10:49:44Z</time>
      </trkpt>
      <trkpt lat="43.44397" lon="-0.35386">
        <ele>202.2</ele>
        <time>2026-08-31T10:49:45Z</time>
      </trkpt>
      <trkpt lat="43.44396" lon="-0.35386">
        <ele>202.2</ele>
        <time>2026-08-31T10:49:45Z</time>
      </trkpt>
      <trkpt lat="43.44396" lon="-0.35386">
        <ele>201.2</ele>
        <time>2026-08-31T10:49:46Z</time>
      </trkpt>
      <trkpt lat="43.44395" lon="-0.35386">
        <ele>201.2</ele>
        <time>2026-08-31T10:49:47Z</time>
      </trkpt>
      <trkpt lat="43.44394" lon="-0.35385">
        <ele>201.2</ele>
        <time>2026-08-31T10:49:47Z</time>
      </trkpt>
      <trkpt lat="43.44394" lon="-0.35385">
        <ele>201.2</ele>
        <time>2026-08-31T10:49:48Z</time>
      </trkpt>
      <trkpt lat="43.44393" lon="-0.35385">
        <ele>201.2</ele>
        <time>2026-08-31T10:49:49Z</time>
      </trkpt>
      <trkpt lat="43.44393" lon="-0.35385">
        <ele>200.2</ele>
        <time>2026-08-31T10:49:49Z</time>
      </trkpt>
      <trkpt lat="43.44392" lon="-0.35385">
        <ele>200.2</ele>
        <time>2026-08-31T10:49:50Z</time>
      </trkpt>
      <trkpt lat="43.44392" lon="-0.35385">
        <ele>201.2</ele>
        <time>2026-08-31T10:49:50Z</time>
      </trkpt>
      <trkpt lat="43.44391" lon="-0.35385">
        <ele>200.2</ele>
        <time>2026-08-31T10:49:51Z</time>
      </trkpt>
      <trkpt lat="43.4439" lon="-0.35384">
        <ele>199.2</ele>
        <time>2026-08-31T10:49:52Z</time>
      </trkpt>
      <trkpt lat="43.4439" lon="-0.35384">
        <ele>199.2</ele>
        <time>2026-08-31T10:49:52Z</time>
      </trkpt>
      <trkpt lat="43.44389" lon="-0.35384">
        <ele>199.2</ele>
        <time>2026-08-31T10:49:53Z</time>
      </trkpt>
      <trkpt lat="43.44389" lon="-0.35383">
        <ele>199.2</ele>
        <time>2026-08-31T10:49:53Z</time>
      </trkpt>
      <trkpt lat="43.44388" lon="-0.35383">
        <ele>199.2</ele>
        <time>2026-08-31T10:49:54Z</time>
      </trkpt>
      <trkpt lat="43.44388" lon="-0.35382">
        <ele>199.2</ele>
        <time>2026-08-31T10:49:54Z</time>
      </trkpt>
      <trkpt lat="43.44387" lon="-0.35382">
        <ele>199.2</ele>
        <time>2026-08-31T10:49:55Z</time>
      </trkpt>
      <trkpt lat="43.44387" lon="-0.35381">
        <ele>199.2</ele>
        <time>2026-08-31T10:49:56Z</time>
      </trkpt>
      <trkpt lat="43.44386" lon="-0.35381">
        <ele>199.2</ele>
        <time>2026-08-31T10:49:56Z</time>
      </trkpt>
      <trkpt lat="43.44385" lon="-0.35381">
        <ele>199.2</ele>
        <time>2026-08-31T10:49:57Z</time>
      </trkpt>
      <trkpt lat="43.44385" lon="-0.35381">
        <ele>198.2</ele>
        <time>2026-08-31T10:49:57Z</time>
      </trkpt>
      <trkpt lat="43.44385" lon="-0.3538">
        <ele>198.2</ele>
        <time>2026-08-31T10:49:58Z</time>
      </trkpt>
      <trkpt lat="43.44384" lon="-0.3538">
        <ele>198.2</ele>
        <time>2026-08-31T10:49:58Z</time>
      </trkpt>
      <trkpt lat="43.44383" lon="-0.3538">
        <ele>198.2</ele>
        <time>2026-08-31T10:49:59Z</time>
      </trkpt>
      <trkpt lat="43.44383" lon="-0.35379">
        <ele>198.2</ele>
        <time>2026-08-31T10:49:59Z</time>
      </trkpt>
      <trkpt lat="43.44382" lon="-0.35379">
        <ele>198.2</ele>
        <time>2026-08-31T10:50:00Z</time>
      </trkpt>
      <trkpt lat="43.44382" lon="-0.35378">
        <ele>198.2</ele>
        <time>2026-08-31T10:50:00Z</time>
      </trkpt>
      <trkpt lat="43.44381" lon="-0.35378">
        <ele>197.2</ele>
        <time>2026-08-31T10:50:01Z</time>
      </trkpt>
      <trkpt lat="43.44381" lon="-0.35378">
        <ele>197.2</ele>
        <time>2026-08-31T10:50:01Z</time>
      </trkpt>
      <trkpt lat="43.4438" lon="-0.35377">
        <ele>197.2</ele>
        <time>2026-08-31T10:50:02Z</time>
      </trkpt>
      <trkpt lat="43.4438" lon="-0.35377">
        <ele>197.2</ele>
        <time>2026-08-31T10:50:02Z</time>
      </trkpt>
      <trkpt lat="43.44379" lon="-0.35377">
        <ele>197.2</ele>
        <time>2026-08-31T10:50:03Z</time>
      </trkpt>
      <trkpt lat="43.44378" lon="-0.35377">
        <ele>197.2</ele>
        <time>2026-08-31T10:50:03Z</time>
      </trkpt>
      <trkpt lat="43.44378" lon="-0.35376">
        <ele>197.2</ele>
        <time>2026-08-31T10:50:04Z</time>
      </trkpt>
      <trkpt lat="43.44377" lon="-0.35376">
        <ele>197.2</ele>
        <time>2026-08-31T10:50:05Z</time>
      </trkpt>
      <trkpt lat="43.44377" lon="-0.35376">
        <ele>197.2</ele>
        <time>2026-08-31T10:50:05Z</time>
      </trkpt>
      <trkpt lat="43.44376" lon="-0.35375">
        <ele>197.2</ele>
        <time>2026-08-31T10:50:06Z</time>
      </trkpt>
      <trkpt lat="43.44376" lon="-0.35375">
        <ele>197.2</ele>
        <time>2026-08-31T10:50:06Z</time>
      </trkpt>
      <trkpt lat="43.44375" lon="-0.35374">
        <ele>197.2</ele>
        <time>2026-08-31T10:50:07Z</time>
      </trkpt>
      <trkpt lat="43.44375" lon="-0.35374">
        <ele>197.2</ele>
        <time>2026-08-31T10:50:07Z</time>
      </trkpt>
      <trkpt lat="43.44374" lon="-0.35373">
        <ele>196.2</ele>
        <time>2026-08-31T10:50:08Z</time>
      </trkpt>
      <trkpt lat="43.44374" lon="-0.35372">
        <ele>196.2</ele>
        <time>2026-08-31T10:50:08Z</time>
      </trkpt>
      <trkpt lat="43.44374" lon="-0.35372">
        <ele>196.2</ele>
        <time>2026-08-31T10:50:09Z</time>
      </trkpt>
      <trkpt lat="43.44373" lon="-0.35371">
        <ele>196.2</ele>
        <time>2026-08-31T10:50:09Z</time>
      </trkpt>
      <trkpt lat="43.44373" lon="-0.3537">
        <ele>196.2</ele>
        <time>2026-08-31T10:50:10Z</time>
      </trkpt>
      <trkpt lat="43.44373" lon="-0.35369">
        <ele>196.2</ele>
        <time>2026-08-31T10:50:10Z</time>
      </trkpt>
      <trkpt lat="43.44372" lon="-0.35369">
        <ele>196.2</ele>
        <time>2026-08-31T10:50:11Z</time>
      </trkpt>
      <trkpt lat="43.44372" lon="-0.35368">
        <ele>196.2</ele>
        <time>2026-08-31T10:50:11Z</time>
      </trkpt>
      <trkpt lat="43.44371" lon="-0.35368">
        <ele>196.2</ele>
        <time>2026-08-31T10:50:12Z</time>
      </trkpt>
      <trkpt lat="43.44371" lon="-0.35367">
        <ele>196.2</ele>
        <time>2026-08-31T10:50:12Z</time>
      </trkpt>
      <trkpt lat="43.4437" lon="-0.35366">
        <ele>196.2</ele>
        <time>2026-08-31T10:50:13Z</time>
      </trkpt>
      <trkpt lat="43.4437" lon="-0.35366">
        <ele>196.2</ele>
        <time>2026-08-31T10:50:13Z</time>
      </trkpt>
      <trkpt lat="43.44369" lon="-0.35365">
        <ele>196.2</ele>
        <time>2026-08-31T10:50:14Z</time>
      </trkpt>
      <trkpt lat="43.44369" lon="-0.35364">
        <ele>196.2</ele>
        <time>2026-08-31T10:50:15Z</time>
      </trkpt>
      <trkpt lat="43.44369" lon="-0.35364">
        <ele>195.2</ele>
        <time>2026-08-31T10:50:15Z</time>
      </trkpt>
      <trkpt lat="43.44368" lon="-0.35363">
        <ele>195.2</ele>
        <time>2026-08-31T10:50:16Z</time>
      </trkpt>
      <trkpt lat="43.44368" lon="-0.35362">
        <ele>196.2</ele>
        <time>2026-08-31T10:50:16Z</time>
      </trkpt>
      <trkpt lat="43.44367" lon="-0.35362">
        <ele>196.2</ele>
        <time>2026-08-31T10:50:17Z</time>
      </trkpt>
      <trkpt lat="43.44367" lon="-0.35361">
        <ele>196.2</ele>
        <time>2026-08-31T10:50:17Z</time>
      </trkpt>
      <trkpt lat="43.44366" lon="-0.3536">
        <ele>196.2</ele>
        <time>2026-08-31T10:50:18Z</time>
      </trkpt>
      <trkpt lat="43.44366" lon="-0.3536">
        <ele>196.2</ele>
        <time>2026-08-31T10:50:18Z</time>
      </trkpt>
      <trkpt lat="43.44366" lon="-0.35359">
        <ele>196.2</ele>
        <time>2026-08-31T10:50:19Z</time>
      </trkpt>
      <trkpt lat="43.44365" lon="-0.35358">
        <ele>196.2</ele>
        <time>2026-08-31T10:50:19Z</time>
      </trkpt>
      <trkpt lat="43.44365" lon="-0.35358">
        <ele>195.2</ele>
        <time>2026-08-31T10:50:20Z</time>
      </trkpt>
      <trkpt lat="43.44364" lon="-0.35357">
        <ele>195.2</ele>
        <time>2026-08-31T10:50:20Z</time>
      </trkpt>
      <trkpt lat="43.44364" lon="-0.35357">
        <ele>195.2</ele>
        <time>2026-08-31T10:50:21Z</time>
      </trkpt>
      <trkpt lat="43.44364" lon="-0.35356">
        <ele>195.2</ele>
        <time>2026-08-31T10:50:21Z</time>
      </trkpt>
      <trkpt lat="43.44363" lon="-0.35356">
        <ele>195.2</ele>
        <time>2026-08-31T10:50:22Z</time>
      </trkpt>
      <trkpt lat="43.44363" lon="-0.35356">
        <ele>195.2</ele>
        <time>2026-08-31T10:50:23Z</time>
      </trkpt>
      <trkpt lat="43.44363" lon="-0.35355">
        <ele>195.2</ele>
        <time>2026-08-31T10:50:23Z</time>
      </trkpt>
      <trkpt lat="43.44362" lon="-0.35355">
        <ele>195.2</ele>
        <time>2026-08-31T10:50:24Z</time>
      </trkpt>
      <trkpt lat="43.44362" lon="-0.35354">
        <ele>195.2</ele>
        <time>2026-08-31T10:50:24Z</time>
      </trkpt>
      <trkpt lat="43.44362" lon="-0.35354">
        <ele>195.2</ele>
        <time>2026-08-31T10:50:25Z</time>
      </trkpt>
      <trkpt lat="43.44361" lon="-0.35353">
        <ele>195.2</ele>
        <time>2026-08-31T10:50:25Z</time>
      </trkpt>
      <trkpt lat="43.44361" lon="-0.35353">
        <ele>194.2</ele>
        <time>2026-08-31T10:50:26Z</time>
      </trkpt>
      <trkpt lat="43.4436" lon="-0.35352">
        <ele>194.2</ele>
        <time>2026-08-31T10:50:26Z</time>
      </trkpt>
      <trkpt lat="43.44359" lon="-0.35351">
        <ele>193.2</ele>
        <time>2026-08-31T10:50:27Z</time>
      </trkpt>
      <trkpt lat="43.44359" lon="-0.35351">
        <ele>193.2</ele>
        <time>2026-08-31T10:50:27Z</time>
      </trkpt>
      <trkpt lat="43.44358" lon="-0.35351">
        <ele>193.2</ele>
        <time>2026-08-31T10:50:28Z</time>
      </trkpt>
      <trkpt lat="43.44358" lon="-0.3535">
        <ele>193.2</ele>
        <time>2026-08-31T10:50:28Z</time>
      </trkpt>
      <trkpt lat="43.44357" lon="-0.3535">
        <ele>193.2</ele>
        <time>2026-08-31T10:50:29Z</time>
      </trkpt>
      <trkpt lat="43.44357" lon="-0.35349">
        <ele>193.2</ele>
        <time>2026-08-31T10:50:29Z</time>
      </trkpt>
      <trkpt lat="43.44356" lon="-0.35349">
        <ele>192.2</ele>
        <time>2026-08-31T10:50:30Z</time>
      </trkpt>
      <trkpt lat="43.44356" lon="-0.35349">
        <ele>192.2</ele>
        <time>2026-08-31T10:50:31Z</time>
      </trkpt>
      <trkpt lat="43.44355" lon="-0.35348">
        <ele>192.2</ele>
        <time>2026-08-31T10:50:31Z</time>
      </trkpt>
      <trkpt lat="43.44354" lon="-0.35348">
        <ele>192.2</ele>
        <time>2026-08-31T10:50:32Z</time>
      </trkpt>
      <trkpt lat="43.44354" lon="-0.35348">
        <ele>192.2</ele>
        <time>2026-08-31T10:50:32Z</time>
      </trkpt>
      <trkpt lat="43.44353" lon="-0.35348">
        <ele>192.2</ele>
        <time>2026-08-31T10:50:33Z</time>
      </trkpt>
      <trkpt lat="43.44352" lon="-0.35347">
        <ele>192.2</ele>
        <time>2026-08-31T10:50:33Z</time>
      </trkpt>
      <trkpt lat="43.44352" lon="-0.35347">
        <ele>192.2</ele>
        <time>2026-08-31T10:50:34Z</time>
      </trkpt>
      <trkpt lat="43.44351" lon="-0.35347">
        <ele>192.2</ele>
        <time>2026-08-31T10:50:34Z</time>
      </trkpt>
      <trkpt lat="43.44351" lon="-0.35346">
        <ele>191.2</ele>
        <time>2026-08-31T10:50:35Z</time>
      </trkpt>
      <trkpt lat="43.4435" lon="-0.35346">
        <ele>191.2</ele>
        <time>2026-08-31T10:50:35Z</time>
      </trkpt>
      <trkpt lat="43.44349" lon="-0.35345">
        <ele>191.2</ele>
        <time>2026-08-31T10:50:36Z</time>
      </trkpt>
      <trkpt lat="43.44349" lon="-0.35345">
        <ele>191.2</ele>
        <time>2026-08-31T10:50:36Z</time>
      </trkpt>
      <trkpt lat="43.44348" lon="-0.35344">
        <ele>191.2</ele>
        <time>2026-08-31T10:50:37Z</time>
      </trkpt>
      <trkpt lat="43.44348" lon="-0.35343">
        <ele>191.2</ele>
        <time>2026-08-31T10:50:37Z</time>
      </trkpt>
      <trkpt lat="43.44347" lon="-0.35343">
        <ele>191.2</ele>
        <time>2026-08-31T10:50:38Z</time>
      </trkpt>
      <trkpt lat="43.44347" lon="-0.35342">
        <ele>191.2</ele>
        <time>2026-08-31T10:50:39Z</time>
      </trkpt>
      <trkpt lat="43.44346" lon="-0.35342">
        <ele>191.2</ele>
        <time>2026-08-31T10:50:39Z</time>
      </trkpt>
      <trkpt lat="43.44345" lon="-0.35342">
        <ele>191.2</ele>
        <time>2026-08-31T10:50:40Z</time>
      </trkpt>
      <trkpt lat="43.44345" lon="-0.35342">
        <ele>190.2</ele>
        <time>2026-08-31T10:50:40Z</time>
      </trkpt>
      <trkpt lat="43.44344" lon="-0.35342">
        <ele>190.2</ele>
        <time>2026-08-31T10:50:41Z</time>
      </trkpt>
      <trkpt lat="43.44344" lon="-0.35341">
        <ele>190.2</ele>
        <time>2026-08-31T10:50:41Z</time>
      </trkpt>
      <trkpt lat="43.44343" lon="-0.35341">
        <ele>190.2</ele>
        <time>2026-08-31T10:50:42Z</time>
      </trkpt>
      <trkpt lat="43.44343" lon="-0.35341">
        <ele>190.2</ele>
        <time>2026-08-31T10:50:42Z</time>
      </trkpt>
      <trkpt lat="43.44342" lon="-0.3534">
        <ele>189.2</ele>
        <time>2026-08-31T10:50:43Z</time>
      </trkpt>
      <trkpt lat="43.44342" lon="-0.3534">
        <ele>189.2</ele>
        <time>2026-08-31T10:50:43Z</time>
      </trkpt>
      <trkpt lat="43.44341" lon="-0.3534">
        <ele>189.2</ele>
        <time>2026-08-31T10:50:44Z</time>
      </trkpt>
      <trkpt lat="43.44341" lon="-0.35339">
        <ele>189.2</ele>
        <time>2026-08-31T10:50:44Z</time>
      </trkpt>
      <trkpt lat="43.4434" lon="-0.35339">
        <ele>189.2</ele>
        <time>2026-08-31T10:50:45Z</time>
      </trkpt>
      <trkpt lat="43.4434" lon="-0.35338">
        <ele>189.2</ele>
        <time>2026-08-31T10:50:45Z</time>
      </trkpt>
      <trkpt lat="43.44339" lon="-0.35337">
        <ele>189.2</ele>
        <time>2026-08-31T10:50:46Z</time>
      </trkpt>
      <trkpt lat="43.44339" lon="-0.35337">
        <ele>189.2</ele>
        <time>2026-08-31T10:50:47Z</time>
      </trkpt>
      <trkpt lat="43.44338" lon="-0.35336">
        <ele>189.2</ele>
        <time>2026-08-31T10:50:47Z</time>
      </trkpt>
      <trkpt lat="43.44338" lon="-0.35335">
        <ele>189.2</ele>
        <time>2026-08-31T10:50:48Z</time>
      </trkpt>
      <trkpt lat="43.44337" lon="-0.35334">
        <ele>189.2</ele>
        <time>2026-08-31T10:50:50Z</time>
      </trkpt>
      <trkpt lat="43.44336" lon="-0.35334">
        <ele>189.2</ele>
        <time>2026-08-31T10:50:50Z</time>
      </trkpt>
      <trkpt lat="43.44336" lon="-0.35333">
        <ele>189.2</ele>
        <time>2026-08-31T10:50:51Z</time>
      </trkpt>
      <trkpt lat="43.44336" lon="-0.35332">
        <ele>189.2</ele>
        <time>2026-08-31T10:50:51Z</time>
      </trkpt>
      <trkpt lat="43.44336" lon="-0.35332">
        <ele>189.2</ele>
        <time>2026-08-31T10:50:52Z</time>
      </trkpt>
      <trkpt lat="43.44335" lon="-0.35331">
        <ele>189.2</ele>
        <time>2026-08-31T10:50:52Z</time>
      </trkpt>
      <trkpt lat="43.44335" lon="-0.3533">
        <ele>189.2</ele>
        <time>2026-08-31T10:50:53Z</time>
      </trkpt>
      <trkpt lat="43.44335" lon="-0.35329">
        <ele>189.2</ele>
        <time>2026-08-31T10:50:53Z</time>
      </trkpt>
      <trkpt lat="43.44334" lon="-0.35328">
        <ele>189.2</ele>
        <time>2026-08-31T10:50:54Z</time>
      </trkpt>
      <trkpt lat="43.44334" lon="-0.35328">
        <ele>189.2</ele>
        <time>2026-08-31T10:50:54Z</time>
      </trkpt>
      <trkpt lat="43.44333" lon="-0.35327">
        <ele>189.2</ele>
        <time>2026-08-31T10:50:55Z</time>
      </trkpt>
      <trkpt lat="43.44333" lon="-0.35326">
        <ele>189.2</ele>
        <time>2026-08-31T10:50:56Z</time>
      </trkpt>
      <trkpt lat="43.44332" lon="-0.35326">
        <ele>189.2</ele>
        <time>2026-08-31T10:50:56Z</time>
      </trkpt>
      <trkpt lat="43.44332" lon="-0.35325">
        <ele>189.2</ele>
        <time>2026-08-31T10:50:57Z</time>
      </trkpt>
      <trkpt lat="43.44331" lon="-0.35325">
        <ele>189.2</ele>
        <time>2026-08-31T10:50:57Z</time>
      </trkpt>
      <trkpt lat="43.44331" lon="-0.35325">
        <ele>189.2</ele>
        <time>2026-08-31T10:50:58Z</time>
      </trkpt>
      <trkpt lat="43.4433" lon="-0.35324">
        <ele>189.2</ele>
        <time>2026-08-31T10:50:58Z</time>
      </trkpt>
      <trkpt lat="43.44329" lon="-0.35324">
        <ele>189.2</ele>
        <time>2026-08-31T10:50:59Z</time>
      </trkpt>
      <trkpt lat="43.44329" lon="-0.35324">
        <ele>189.2</ele>
        <time>2026-08-31T10:50:59Z</time>
      </trkpt>
      <trkpt lat="43.44328" lon="-0.35324">
        <ele>189.2</ele>
        <time>2026-08-31T10:51:00Z</time>
      </trkpt>
      <trkpt lat="43.44327" lon="-0.35323">
        <ele>189.2</ele>
        <time>2026-08-31T10:51:00Z</time>
      </trkpt>
      <trkpt lat="43.44327" lon="-0.35323">
        <ele>189.2</ele>
        <time>2026-08-31T10:51:01Z</time>
      </trkpt>
      <trkpt lat="43.44326" lon="-0.35323">
        <ele>189.2</ele>
        <time>2026-08-31T10:51:01Z</time>
      </trkpt>
      <trkpt lat="43.44325" lon="-0.35323">
        <ele>189.2</ele>
        <time>2026-08-31T10:51:02Z</time>
      </trkpt>
      <trkpt lat="43.44324" lon="-0.35322">
        <ele>189.2</ele>
        <time>2026-08-31T10:51:03Z</time>
      </trkpt>
      <trkpt lat="43.44324" lon="-0.35323">
        <ele>189.2</ele>
        <time>2026-08-31T10:51:03Z</time>
      </trkpt>
      <trkpt lat="43.44323" lon="-0.35322">
        <ele>189.2</ele>
        <time>2026-08-31T10:51:04Z</time>
      </trkpt>
      <trkpt lat="43.44322" lon="-0.35322">
        <ele>188.2</ele>
        <time>2026-08-31T10:51:04Z</time>
      </trkpt>
      <trkpt lat="43.44322" lon="-0.35322">
        <ele>188.2</ele>
        <time>2026-08-31T10:51:05Z</time>
      </trkpt>
      <trkpt lat="43.44321" lon="-0.35321">
        <ele>188.2</ele>
        <time>2026-08-31T10:51:05Z</time>
      </trkpt>
      <trkpt lat="43.4432" lon="-0.35321">
        <ele>188.2</ele>
        <time>2026-08-31T10:51:06Z</time>
      </trkpt>
      <trkpt lat="43.4432" lon="-0.3532">
        <ele>188.2</ele>
        <time>2026-08-31T10:51:06Z</time>
      </trkpt>
      <trkpt lat="43.44319" lon="-0.3532">
        <ele>188.2</ele>
        <time>2026-08-31T10:51:07Z</time>
      </trkpt>
      <trkpt lat="43.44318" lon="-0.3532">
        <ele>188.2</ele>
        <time>2026-08-31T10:51:07Z</time>
      </trkpt>
      <trkpt lat="43.44318" lon="-0.35319">
        <ele>188.2</ele>
        <time>2026-08-31T10:51:08Z</time>
      </trkpt>
      <trkpt lat="43.44317" lon="-0.35319">
        <ele>188.2</ele>
        <time>2026-08-31T10:51:08Z</time>
      </trkpt>
      <trkpt lat="43.44316" lon="-0.35319">
        <ele>187.2</ele>
        <time>2026-08-31T10:51:09Z</time>
      </trkpt>
      <trkpt lat="43.44316" lon="-0.35318">
        <ele>187.2</ele>
        <time>2026-08-31T10:51:09Z</time>
      </trkpt>
      <trkpt lat="43.44315" lon="-0.35318">
        <ele>186.2</ele>
        <time>2026-08-31T10:51:10Z</time>
      </trkpt>
      <trkpt lat="43.44314" lon="-0.35318">
        <ele>186.2</ele>
        <time>2026-08-31T10:51:10Z</time>
      </trkpt>
      <trkpt lat="43.44313" lon="-0.35318">
        <ele>186.2</ele>
        <time>2026-08-31T10:51:11Z</time>
      </trkpt>
      <trkpt lat="43.44313" lon="-0.35317">
        <ele>186.2</ele>
        <time>2026-08-31T10:51:12Z</time>
      </trkpt>
      <trkpt lat="43.44312" lon="-0.35317">
        <ele>186.2</ele>
        <time>2026-08-31T10:51:12Z</time>
      </trkpt>
      <trkpt lat="43.44311" lon="-0.35317">
        <ele>186.2</ele>
        <time>2026-08-31T10:51:13Z</time>
      </trkpt>
      <trkpt lat="43.44311" lon="-0.35317">
        <ele>186.2</ele>
        <time>2026-08-31T10:51:13Z</time>
      </trkpt>
      <trkpt lat="43.4431" lon="-0.35316">
        <ele>186.2</ele>
        <time>2026-08-31T10:51:14Z</time>
      </trkpt>
      <trkpt lat="43.44309" lon="-0.35316">
        <ele>186.2</ele>
        <time>2026-08-31T10:51:14Z</time>
      </trkpt>
      <trkpt lat="43.44309" lon="-0.35316">
        <ele>186.2</ele>
        <time>2026-08-31T10:51:15Z</time>
      </trkpt>
      <trkpt lat="43.44308" lon="-0.35315">
        <ele>185.2</ele>
        <time>2026-08-31T10:51:15Z</time>
      </trkpt>
      <trkpt lat="43.44308" lon="-0.35315">
        <ele>185.2</ele>
        <time>2026-08-31T10:51:16Z</time>
      </trkpt>
      <trkpt lat="43.44307" lon="-0.35315">
        <ele>185.2</ele>
        <time>2026-08-31T10:51:16Z</time>
      </trkpt>
      <trkpt lat="43.44306" lon="-0.35314">
        <ele>185.2</ele>
        <time>2026-08-31T10:51:17Z</time>
      </trkpt>
      <trkpt lat="43.44306" lon="-0.35314">
        <ele>185.2</ele>
        <time>2026-08-31T10:51:17Z</time>
      </trkpt>
      <trkpt lat="43.44305" lon="-0.35313">
        <ele>184.2</ele>
        <time>2026-08-31T10:51:18Z</time>
      </trkpt>
      <trkpt lat="43.44305" lon="-0.35313">
        <ele>184.2</ele>
        <time>2026-08-31T10:51:18Z</time>
      </trkpt>
      <trkpt lat="43.44304" lon="-0.35312">
        <ele>185.2</ele>
        <time>2026-08-31T10:51:19Z</time>
      </trkpt>
      <trkpt lat="43.44304" lon="-0.35312">
        <ele>185.2</ele>
        <time>2026-08-31T10:51:20Z</time>
      </trkpt>
      <trkpt lat="43.44303" lon="-0.35311">
        <ele>184.2</ele>
        <time>2026-08-31T10:51:20Z</time>
      </trkpt>
      <trkpt lat="43.44303" lon="-0.35311">
        <ele>184.2</ele>
        <time>2026-08-31T10:51:21Z</time>
      </trkpt>
      <trkpt lat="43.44302" lon="-0.3531">
        <ele>184.2</ele>
        <time>2026-08-31T10:51:21Z</time>
      </trkpt>
      <trkpt lat="43.44302" lon="-0.3531">
        <ele>184.2</ele>
        <time>2026-08-31T10:51:22Z</time>
      </trkpt>
      <trkpt lat="43.44301" lon="-0.35309">
        <ele>184.2</ele>
        <time>2026-08-31T10:51:22Z</time>
      </trkpt>
      <trkpt lat="43.44301" lon="-0.35308">
        <ele>184.2</ele>
        <time>2026-08-31T10:51:23Z</time>
      </trkpt>
      <trkpt lat="43.44301" lon="-0.35308">
        <ele>184.2</ele>
        <time>2026-08-31T10:51:23Z</time>
      </trkpt>
      <trkpt lat="43.443" lon="-0.35307">
        <ele>184.2</ele>
        <time>2026-08-31T10:51:24Z</time>
      </trkpt>
      <trkpt lat="43.443" lon="-0.35307">
        <ele>184.2</ele>
        <time>2026-08-31T10:51:24Z</time>
      </trkpt>
      <trkpt lat="43.44299" lon="-0.35306">
        <ele>184.2</ele>
        <time>2026-08-31T10:51:25Z</time>
      </trkpt>
      <trkpt lat="43.44299" lon="-0.35306">
        <ele>184.2</ele>
        <time>2026-08-31T10:51:26Z</time>
      </trkpt>
      <trkpt lat="43.44298" lon="-0.35305">
        <ele>183.2</ele>
        <time>2026-08-31T10:51:26Z</time>
      </trkpt>
      <trkpt lat="43.44298" lon="-0.35305">
        <ele>183.2</ele>
        <time>2026-08-31T10:51:27Z</time>
      </trkpt>
      <trkpt lat="43.44297" lon="-0.35305">
        <ele>183.2</ele>
        <time>2026-08-31T10:51:27Z</time>
      </trkpt>
      <trkpt lat="43.44297" lon="-0.35304">
        <ele>183.2</ele>
        <time>2026-08-31T10:51:28Z</time>
      </trkpt>
      <trkpt lat="43.44296" lon="-0.35304">
        <ele>184.2</ele>
        <time>2026-08-31T10:51:28Z</time>
      </trkpt>
      <trkpt lat="43.44295" lon="-0.35304">
        <ele>184.2</ele>
        <time>2026-08-31T10:51:29Z</time>
      </trkpt>
      <trkpt lat="43.44295" lon="-0.35303">
        <ele>184.2</ele>
        <time>2026-08-31T10:51:29Z</time>
      </trkpt>
      <trkpt lat="43.44294" lon="-0.35303">
        <ele>184.2</ele>
        <time>2026-08-31T10:51:30Z</time>
      </trkpt>
      <trkpt lat="43.44294" lon="-0.35302">
        <ele>184.2</ele>
        <time>2026-08-31T10:51:30Z</time>
      </trkpt>
      <trkpt lat="43.44293" lon="-0.35302">
        <ele>184.2</ele>
        <time>2026-08-31T10:51:31Z</time>
      </trkpt>
      <trkpt lat="43.44293" lon="-0.35301">
        <ele>184.2</ele>
        <time>2026-08-31T10:51:31Z</time>
      </trkpt>
      <trkpt lat="43.44292" lon="-0.35301">
        <ele>184.2</ele>
        <time>2026-08-31T10:51:32Z</time>
      </trkpt>
      <trkpt lat="43.44292" lon="-0.353">
        <ele>184.2</ele>
        <time>2026-08-31T10:51:32Z</time>
      </trkpt>
      <trkpt lat="43.44291" lon="-0.353">
        <ele>183.2</ele>
        <time>2026-08-31T10:51:33Z</time>
      </trkpt>
      <trkpt lat="43.44291" lon="-0.353">
        <ele>183.2</ele>
        <time>2026-08-31T10:51:33Z</time>
      </trkpt>
      <trkpt lat="43.4429" lon="-0.35299">
        <ele>183.2</ele>
        <time>2026-08-31T10:51:34Z</time>
      </trkpt>
      <trkpt lat="43.44289" lon="-0.35299">
        <ele>183.2</ele>
        <time>2026-08-31T10:51:34Z</time>
      </trkpt>
      <trkpt lat="43.44289" lon="-0.35298">
        <ele>182.2</ele>
        <time>2026-08-31T10:51:35Z</time>
      </trkpt>
      <trkpt lat="43.44288" lon="-0.35298">
        <ele>182.2</ele>
        <time>2026-08-31T10:51:35Z</time>
      </trkpt>
      <trkpt lat="43.44288" lon="-0.35297">
        <ele>182.2</ele>
        <time>2026-08-31T10:51:36Z</time>
      </trkpt>
      <trkpt lat="43.44287" lon="-0.35297">
        <ele>182.2</ele>
        <time>2026-08-31T10:51:36Z</time>
      </trkpt>
      <trkpt lat="43.44287" lon="-0.35296">
        <ele>182.2</ele>
        <time>2026-08-31T10:51:37Z</time>
      </trkpt>
      <trkpt lat="43.44286" lon="-0.35296">
        <ele>182.2</ele>
        <time>2026-08-31T10:51:38Z</time>
      </trkpt>
      <trkpt lat="43.44286" lon="-0.35295">
        <ele>182.2</ele>
        <time>2026-08-31T10:51:38Z</time>
      </trkpt>
      <trkpt lat="43.44285" lon="-0.35295">
        <ele>182.2</ele>
        <time>2026-08-31T10:51:39Z</time>
      </trkpt>
      <trkpt lat="43.44285" lon="-0.35295">
        <ele>181.2</ele>
        <time>2026-08-31T10:51:39Z</time>
      </trkpt>
      <trkpt lat="43.44284" lon="-0.35294">
        <ele>181.2</ele>
        <time>2026-08-31T10:51:40Z</time>
      </trkpt>
      <trkpt lat="43.44284" lon="-0.35294">
        <ele>181.2</ele>
        <time>2026-08-31T10:51:40Z</time>
      </trkpt>
      <trkpt lat="43.44283" lon="-0.35294">
        <ele>181.2</ele>
        <time>2026-08-31T10:51:41Z</time>
      </trkpt>
      <trkpt lat="43.44283" lon="-0.35293">
        <ele>181.2</ele>
        <time>2026-08-31T10:51:41Z</time>
      </trkpt>
      <trkpt lat="43.44282" lon="-0.35293">
        <ele>181.2</ele>
        <time>2026-08-31T10:51:42Z</time>
      </trkpt>
      <trkpt lat="43.44282" lon="-0.35292">
        <ele>181.2</ele>
        <time>2026-08-31T10:51:42Z</time>
      </trkpt>
      <trkpt lat="43.44281" lon="-0.35292">
        <ele>180.2</ele>
        <time>2026-08-31T10:51:43Z</time>
      </trkpt>
      <trkpt lat="43.44281" lon="-0.35291">
        <ele>180.2</ele>
        <time>2026-08-31T10:51:43Z</time>
      </trkpt>
      <trkpt lat="43.4428" lon="-0.35291">
        <ele>180.2</ele>
        <time>2026-08-31T10:51:44Z</time>
      </trkpt>
      <trkpt lat="43.4428" lon="-0.3529">
        <ele>180.2</ele>
        <time>2026-08-31T10:51:44Z</time>
      </trkpt>
      <trkpt lat="43.44279" lon="-0.35289">
        <ele>180.2</ele>
        <time>2026-08-31T10:51:45Z</time>
      </trkpt>
      <trkpt lat="43.44279" lon="-0.35289">
        <ele>180.2</ele>
        <time>2026-08-31T10:51:46Z</time>
      </trkpt>
      <trkpt lat="43.44278" lon="-0.35288">
        <ele>180.2</ele>
        <time>2026-08-31T10:51:46Z</time>
      </trkpt>
      <trkpt lat="43.44278" lon="-0.35288">
        <ele>180.2</ele>
        <time>2026-08-31T10:51:47Z</time>
      </trkpt>
      <trkpt lat="43.44277" lon="-0.35287">
        <ele>180.2</ele>
        <time>2026-08-31T10:51:47Z</time>
      </trkpt>
      <trkpt lat="43.44277" lon="-0.35286">
        <ele>180.2</ele>
        <time>2026-08-31T10:51:48Z</time>
      </trkpt>
      <trkpt lat="43.44276" lon="-0.35285">
        <ele>180.2</ele>
        <time>2026-08-31T10:51:48Z</time>
      </trkpt>
      <trkpt lat="43.44276" lon="-0.35285">
        <ele>180.2</ele>
        <time>2026-08-31T10:51:49Z</time>
      </trkpt>
      <trkpt lat="43.44275" lon="-0.35284">
        <ele>180.2</ele>
        <time>2026-08-31T10:51:49Z</time>
      </trkpt>
      <trkpt lat="43.44275" lon="-0.35283">
        <ele>180.2</ele>
        <time>2026-08-31T10:51:50Z</time>
      </trkpt>
      <trkpt lat="43.44274" lon="-0.35283">
        <ele>180.2</ele>
        <time>2026-08-31T10:51:50Z</time>
      </trkpt>
      <trkpt lat="43.44274" lon="-0.35282">
        <ele>180.2</ele>
        <time>2026-08-31T10:51:51Z</time>
      </trkpt>
      <trkpt lat="43.44273" lon="-0.35281">
        <ele>180.2</ele>
        <time>2026-08-31T10:51:51Z</time>
      </trkpt>
      <trkpt lat="43.44273" lon="-0.35281">
        <ele>180.2</ele>
        <time>2026-08-31T10:51:52Z</time>
      </trkpt>
      <trkpt lat="43.44272" lon="-0.3528">
        <ele>180.2</ele>
        <time>2026-08-31T10:51:52Z</time>
      </trkpt>
      <trkpt lat="43.44272" lon="-0.35279">
        <ele>179.2</ele>
        <time>2026-08-31T10:51:53Z</time>
      </trkpt>
      <trkpt lat="43.44271" lon="-0.35278">
        <ele>179.2</ele>
        <time>2026-08-31T10:51:54Z</time>
      </trkpt>
      <trkpt lat="43.44271" lon="-0.35278">
        <ele>179.2</ele>
        <time>2026-08-31T10:51:54Z</time>
      </trkpt>
      <trkpt lat="43.44271" lon="-0.35277">
        <ele>179.2</ele>
        <time>2026-08-31T10:51:55Z</time>
      </trkpt>
      <trkpt lat="43.4427" lon="-0.35276">
        <ele>179.2</ele>
        <time>2026-08-31T10:51:55Z</time>
      </trkpt>
      <trkpt lat="43.4427" lon="-0.35275">
        <ele>179.2</ele>
        <time>2026-08-31T10:51:56Z</time>
      </trkpt>
      <trkpt lat="43.44269" lon="-0.35275">
        <ele>179.2</ele>
        <time>2026-08-31T10:51:56Z</time>
      </trkpt>
      <trkpt lat="43.44269" lon="-0.35274">
        <ele>179.2</ele>
        <time>2026-08-31T10:51:57Z</time>
      </trkpt>
      <trkpt lat="43.44268" lon="-0.35273">
        <ele>179.2</ele>
        <time>2026-08-31T10:51:57Z</time>
      </trkpt>
      <trkpt lat="43.44268" lon="-0.35273">
        <ele>179.2</ele>
        <time>2026-08-31T10:51:58Z</time>
      </trkpt>
      <trkpt lat="43.44267" lon="-0.35272">
        <ele>179.2</ele>
        <time>2026-08-31T10:51:58Z</time>
      </trkpt>
      <trkpt lat="43.44267" lon="-0.35271">
        <ele>179.2</ele>
        <time>2026-08-31T10:51:59Z</time>
      </trkpt>
      <trkpt lat="43.44266" lon="-0.3527">
        <ele>179.2</ele>
        <time>2026-08-31T10:51:59Z</time>
      </trkpt>
      <trkpt lat="43.44266" lon="-0.35269">
        <ele>179.2</ele>
        <time>2026-08-31T10:52:00Z</time>
      </trkpt>
      <trkpt lat="43.44265" lon="-0.35268">
        <ele>179.2</ele>
        <time>2026-08-31T10:52:01Z</time>
      </trkpt>
      <trkpt lat="43.44265" lon="-0.35268">
        <ele>179.2</ele>
        <time>2026-08-31T10:52:01Z</time>
      </trkpt>
      <trkpt lat="43.44264" lon="-0.35267">
        <ele>179.2</ele>
        <time>2026-08-31T10:52:02Z</time>
      </trkpt>
      <trkpt lat="43.44264" lon="-0.35266">
        <ele>178.2</ele>
        <time>2026-08-31T10:52:02Z</time>
      </trkpt>
      <trkpt lat="43.44263" lon="-0.35265">
        <ele>178.2</ele>
        <time>2026-08-31T10:52:03Z</time>
      </trkpt>
      <trkpt lat="43.44263" lon="-0.35265">
        <ele>178.2</ele>
        <time>2026-08-31T10:52:03Z</time>
      </trkpt>
      <trkpt lat="43.44263" lon="-0.35264">
        <ele>178.2</ele>
        <time>2026-08-31T10:52:04Z</time>
      </trkpt>
      <trkpt lat="43.44262" lon="-0.35263">
        <ele>178.2</ele>
        <time>2026-08-31T10:52:04Z</time>
      </trkpt>
      <trkpt lat="43.44262" lon="-0.35263">
        <ele>178.2</ele>
        <time>2026-08-31T10:52:05Z</time>
      </trkpt>
      <trkpt lat="43.44261" lon="-0.35262">
        <ele>178.2</ele>
        <time>2026-08-31T10:52:05Z</time>
      </trkpt>
      <trkpt lat="43.44261" lon="-0.35261">
        <ele>178.2</ele>
        <time>2026-08-31T10:52:06Z</time>
      </trkpt>
      <trkpt lat="43.4426" lon="-0.3526">
        <ele>178.2</ele>
        <time>2026-08-31T10:52:06Z</time>
      </trkpt>
      <trkpt lat="43.4426" lon="-0.35259">
        <ele>178.2</ele>
        <time>2026-08-31T10:52:07Z</time>
      </trkpt>
      <trkpt lat="43.44259" lon="-0.35259">
        <ele>178.2</ele>
        <time>2026-08-31T10:52:07Z</time>
      </trkpt>
      <trkpt lat="43.44259" lon="-0.35258">
        <ele>177.2</ele>
        <time>2026-08-31T10:52:08Z</time>
      </trkpt>
      <trkpt lat="43.44258" lon="-0.35257">
        <ele>177.2</ele>
        <time>2026-08-31T10:52:09Z</time>
      </trkpt>
      <trkpt lat="43.44258" lon="-0.35256">
        <ele>177.2</ele>
        <time>2026-08-31T10:52:09Z</time>
      </trkpt>
      <trkpt lat="43.44257" lon="-0.35256">
        <ele>177.2</ele>
        <time>2026-08-31T10:52:10Z</time>
      </trkpt>
      <trkpt lat="43.44257" lon="-0.35255">
        <ele>178.2</ele>
        <time>2026-08-31T10:52:10Z</time>
      </trkpt>
      <trkpt lat="43.44256" lon="-0.35254">
        <ele>177.2</ele>
        <time>2026-08-31T10:52:11Z</time>
      </trkpt>
      <trkpt lat="43.44256" lon="-0.35254">
        <ele>177.2</ele>
        <time>2026-08-31T10:52:11Z</time>
      </trkpt>
      <trkpt lat="43.44255" lon="-0.35253">
        <ele>177.2</ele>
        <time>2026-08-31T10:52:12Z</time>
      </trkpt>
      <trkpt lat="43.44255" lon="-0.35252">
        <ele>177.2</ele>
        <time>2026-08-31T10:52:12Z</time>
      </trkpt>
      <trkpt lat="43.44254" lon="-0.35251">
        <ele>176.2</ele>
        <time>2026-08-31T10:52:13Z</time>
      </trkpt>
      <trkpt lat="43.44254" lon="-0.35251">
        <ele>176.2</ele>
        <time>2026-08-31T10:52:13Z</time>
      </trkpt>
      <trkpt lat="43.44253" lon="-0.3525">
        <ele>176.2</ele>
        <time>2026-08-31T10:52:14Z</time>
      </trkpt>
      <trkpt lat="43.44252" lon="-0.35249">
        <ele>176.2</ele>
        <time>2026-08-31T10:52:14Z</time>
      </trkpt>
      <trkpt lat="43.44252" lon="-0.35249">
        <ele>176.2</ele>
        <time>2026-08-31T10:52:15Z</time>
      </trkpt>
      <trkpt lat="43.44251" lon="-0.35249">
        <ele>176.2</ele>
        <time>2026-08-31T10:52:15Z</time>
      </trkpt>
      <trkpt lat="43.44251" lon="-0.35248">
        <ele>176.2</ele>
        <time>2026-08-31T10:52:16Z</time>
      </trkpt>
      <trkpt lat="43.4425" lon="-0.35248">
        <ele>176.2</ele>
        <time>2026-08-31T10:52:17Z</time>
      </trkpt>
      <trkpt lat="43.44249" lon="-0.35247">
        <ele>176.2</ele>
        <time>2026-08-31T10:52:17Z</time>
      </trkpt>
      <trkpt lat="43.44249" lon="-0.35247">
        <ele>176.2</ele>
        <time>2026-08-31T10:52:18Z</time>
      </trkpt>
      <trkpt lat="43.44248" lon="-0.35246">
        <ele>175.2</ele>
        <time>2026-08-31T10:52:18Z</time>
      </trkpt>
      <trkpt lat="43.44248" lon="-0.35246">
        <ele>175.2</ele>
        <time>2026-08-31T10:52:19Z</time>
      </trkpt>
      <trkpt lat="43.44247" lon="-0.35245">
        <ele>176.2</ele>
        <time>2026-08-31T10:52:19Z</time>
      </trkpt>
      <trkpt lat="43.44247" lon="-0.35244">
        <ele>176.2</ele>
        <time>2026-08-31T10:52:20Z</time>
      </trkpt>
      <trkpt lat="43.44246" lon="-0.35244">
        <ele>176.2</ele>
        <time>2026-08-31T10:52:20Z</time>
      </trkpt>
      <trkpt lat="43.44246" lon="-0.35243">
        <ele>176.2</ele>
        <time>2026-08-31T10:52:21Z</time>
      </trkpt>
      <trkpt lat="43.44245" lon="-0.35242">
        <ele>176.2</ele>
        <time>2026-08-31T10:52:21Z</time>
      </trkpt>
      <trkpt lat="43.44245" lon="-0.35242">
        <ele>176.2</ele>
        <time>2026-08-31T10:52:22Z</time>
      </trkpt>
      <trkpt lat="43.44244" lon="-0.35241">
        <ele>176.2</ele>
        <time>2026-08-31T10:52:22Z</time>
      </trkpt>
      <trkpt lat="43.44244" lon="-0.35241">
        <ele>176.2</ele>
        <time>2026-08-31T10:52:23Z</time>
      </trkpt>
      <trkpt lat="43.44243" lon="-0.3524">
        <ele>176.2</ele>
        <time>2026-08-31T10:52:23Z</time>
      </trkpt>
      <trkpt lat="43.44243" lon="-0.35239">
        <ele>176.2</ele>
        <time>2026-08-31T10:52:24Z</time>
      </trkpt>
      <trkpt lat="43.44243" lon="-0.35238">
        <ele>176.2</ele>
        <time>2026-08-31T10:52:25Z</time>
      </trkpt>
      <trkpt lat="43.44242" lon="-0.35237">
        <ele>176.2</ele>
        <time>2026-08-31T10:52:25Z</time>
      </trkpt>
      <trkpt lat="43.44242" lon="-0.35237">
        <ele>176.2</ele>
        <time>2026-08-31T10:52:26Z</time>
      </trkpt>
      <trkpt lat="43.44242" lon="-0.35236">
        <ele>176.2</ele>
        <time>2026-08-31T10:52:26Z</time>
      </trkpt>
      <trkpt lat="43.44241" lon="-0.35235">
        <ele>176.2</ele>
        <time>2026-08-31T10:52:27Z</time>
      </trkpt>
      <trkpt lat="43.44241" lon="-0.35234">
        <ele>176.2</ele>
        <time>2026-08-31T10:52:27Z</time>
      </trkpt>
      <trkpt lat="43.44241" lon="-0.35233">
        <ele>176.2</ele>
        <time>2026-08-31T10:52:28Z</time>
      </trkpt>
      <trkpt lat="43.4424" lon="-0.35232">
        <ele>176.2</ele>
        <time>2026-08-31T10:52:28Z</time>
      </trkpt>
      <trkpt lat="43.4424" lon="-0.35232">
        <ele>175.2</ele>
        <time>2026-08-31T10:52:29Z</time>
      </trkpt>
      <trkpt lat="43.4424" lon="-0.35231">
        <ele>175.2</ele>
        <time>2026-08-31T10:52:29Z</time>
      </trkpt>
      <trkpt lat="43.4424" lon="-0.3523">
        <ele>175.2</ele>
        <time>2026-08-31T10:52:30Z</time>
      </trkpt>
      <trkpt lat="43.44239" lon="-0.35229">
        <ele>175.2</ele>
        <time>2026-08-31T10:52:30Z</time>
      </trkpt>
      <trkpt lat="43.44239" lon="-0.35228">
        <ele>175.2</ele>
        <time>2026-08-31T10:52:31Z</time>
      </trkpt>
      <trkpt lat="43.44239" lon="-0.35227">
        <ele>175.2</ele>
        <time>2026-08-31T10:52:31Z</time>
      </trkpt>
      <trkpt lat="43.44239" lon="-0.35226">
        <ele>175.2</ele>
        <time>2026-08-31T10:52:32Z</time>
      </trkpt>
      <trkpt lat="43.44238" lon="-0.35225">
        <ele>175.2</ele>
        <time>2026-08-31T10:52:32Z</time>
      </trkpt>
      <trkpt lat="43.44238" lon="-0.35224">
        <ele>175.2</ele>
        <time>2026-08-31T10:52:33Z</time>
      </trkpt>
      <trkpt lat="43.44238" lon="-0.35223">
        <ele>175.2</ele>
        <time>2026-08-31T10:52:33Z</time>
      </trkpt>
      <trkpt lat="43.44237" lon="-0.35223">
        <ele>175.2</ele>
        <time>2026-08-31T10:52:34Z</time>
      </trkpt>
      <trkpt lat="43.44237" lon="-0.35222">
        <ele>175.2</ele>
        <time>2026-08-31T10:52:35Z</time>
      </trkpt>
      <trkpt lat="43.44236" lon="-0.35221">
        <ele>174.2</ele>
        <time>2026-08-31T10:52:35Z</time>
      </trkpt>
      <trkpt lat="43.44236" lon="-0.3522">
        <ele>174.2</ele>
        <time>2026-08-31T10:52:36Z</time>
      </trkpt>
      <trkpt lat="43.44235" lon="-0.3522">
        <ele>174.2</ele>
        <time>2026-08-31T10:52:36Z</time>
      </trkpt>
      <trkpt lat="43.44235" lon="-0.35219">
        <ele>174.2</ele>
        <time>2026-08-31T10:52:37Z</time>
      </trkpt>
      <trkpt lat="43.44235" lon="-0.35219">
        <ele>174.2</ele>
        <time>2026-08-31T10:52:37Z</time>
      </trkpt>
      <trkpt lat="43.44234" lon="-0.35218">
        <ele>174.2</ele>
        <time>2026-08-31T10:52:38Z</time>
      </trkpt>
      <trkpt lat="43.44234" lon="-0.35217">
        <ele>174.2</ele>
        <time>2026-08-31T10:52:38Z</time>
      </trkpt>
      <trkpt lat="43.44233" lon="-0.35217">
        <ele>174.2</ele>
        <time>2026-08-31T10:52:39Z</time>
      </trkpt>
      <trkpt lat="43.44233" lon="-0.35216">
        <ele>174.2</ele>
        <time>2026-08-31T10:52:39Z</time>
      </trkpt>
      <trkpt lat="43.44232" lon="-0.35216">
        <ele>174.2</ele>
        <time>2026-08-31T10:52:40Z</time>
      </trkpt>
      <trkpt lat="43.44232" lon="-0.35215">
        <ele>174.2</ele>
        <time>2026-08-31T10:52:40Z</time>
      </trkpt>
      <trkpt lat="43.44232" lon="-0.35214">
        <ele>174.2</ele>
        <time>2026-08-31T10:52:41Z</time>
      </trkpt>
      <trkpt lat="43.44231" lon="-0.35214">
        <ele>174.2</ele>
        <time>2026-08-31T10:52:42Z</time>
      </trkpt>
      <trkpt lat="43.44231" lon="-0.35213">
        <ele>174.2</ele>
        <time>2026-08-31T10:52:42Z</time>
      </trkpt>
      <trkpt lat="43.44231" lon="-0.35212">
        <ele>174.2</ele>
        <time>2026-08-31T10:52:43Z</time>
      </trkpt>
      <trkpt lat="43.44231" lon="-0.35212">
        <ele>174.2</ele>
        <time>2026-08-31T10:52:43Z</time>
      </trkpt>
      <trkpt lat="43.4423" lon="-0.35211">
        <ele>174.2</ele>
        <time>2026-08-31T10:52:44Z</time>
      </trkpt>
      <trkpt lat="43.4423" lon="-0.3521">
        <ele>174.2</ele>
        <time>2026-08-31T10:52:44Z</time>
      </trkpt>
      <trkpt lat="43.4423" lon="-0.3521">
        <ele>174.2</ele>
        <time>2026-08-31T10:52:45Z</time>
      </trkpt>
      <trkpt lat="43.44229" lon="-0.35209">
        <ele>174.2</ele>
        <time>2026-08-31T10:52:45Z</time>
      </trkpt>
      <trkpt lat="43.44229" lon="-0.35208">
        <ele>174.2</ele>
        <time>2026-08-31T10:52:46Z</time>
      </trkpt>
      <trkpt lat="43.44229" lon="-0.35207">
        <ele>174.2</ele>
        <time>2026-08-31T10:52:46Z</time>
      </trkpt>
      <trkpt lat="43.44229" lon="-0.35206">
        <ele>173.2</ele>
        <time>2026-08-31T10:52:47Z</time>
      </trkpt>
      <trkpt lat="43.44228" lon="-0.35206">
        <ele>173.2</ele>
        <time>2026-08-31T10:52:47Z</time>
      </trkpt>
      <trkpt lat="43.44228" lon="-0.35205">
        <ele>173.2</ele>
        <time>2026-08-31T10:52:48Z</time>
      </trkpt>
      <trkpt lat="43.44228" lon="-0.35204">
        <ele>173.2</ele>
        <time>2026-08-31T10:52:48Z</time>
      </trkpt>
      <trkpt lat="43.44228" lon="-0.35203">
        <ele>173.2</ele>
        <time>2026-08-31T10:52:49Z</time>
      </trkpt>
      <trkpt lat="43.44228" lon="-0.35202">
        <ele>173.2</ele>
        <time>2026-08-31T10:52:49Z</time>
      </trkpt>
      <trkpt lat="43.44227" lon="-0.35202">
        <ele>174.2</ele>
        <time>2026-08-31T10:52:50Z</time>
      </trkpt>
      <trkpt lat="43.44227" lon="-0.35201">
        <ele>174.2</ele>
        <time>2026-08-31T10:52:51Z</time>
      </trkpt>
      <trkpt lat="43.44227" lon="-0.352">
        <ele>173.2</ele>
        <time>2026-08-31T10:52:51Z</time>
      </trkpt>
      <trkpt lat="43.44227" lon="-0.35199">
        <ele>173.2</ele>
        <time>2026-08-31T10:52:52Z</time>
      </trkpt>
      <trkpt lat="43.44226" lon="-0.35198">
        <ele>173.2</ele>
        <time>2026-08-31T10:52:52Z</time>
      </trkpt>
      <trkpt lat="43.44226" lon="-0.35197">
        <ele>173.2</ele>
        <time>2026-08-31T10:52:53Z</time>
      </trkpt>
      <trkpt lat="43.44226" lon="-0.35197">
        <ele>173.2</ele>
        <time>2026-08-31T10:52:53Z</time>
      </trkpt>
      <trkpt lat="43.44226" lon="-0.35196">
        <ele>172.2</ele>
        <time>2026-08-31T10:52:54Z</time>
      </trkpt>
      <trkpt lat="43.44226" lon="-0.35195">
        <ele>172.2</ele>
        <time>2026-08-31T10:52:54Z</time>
      </trkpt>
      <trkpt lat="43.44226" lon="-0.35194">
        <ele>172.2</ele>
        <time>2026-08-31T10:52:55Z</time>
      </trkpt>
      <trkpt lat="43.44226" lon="-0.35193">
        <ele>172.2</ele>
        <time>2026-08-31T10:52:55Z</time>
      </trkpt>
      <trkpt lat="43.44226" lon="-0.35192">
        <ele>172.2</ele>
        <time>2026-08-31T10:52:56Z</time>
      </trkpt>
      <trkpt lat="43.44226" lon="-0.35191">
        <ele>172.2</ele>
        <time>2026-08-31T10:52:56Z</time>
      </trkpt>
      <trkpt lat="43.44226" lon="-0.3519">
        <ele>172.2</ele>
        <time>2026-08-31T10:52:57Z</time>
      </trkpt>
      <trkpt lat="43.44226" lon="-0.35189">
        <ele>172.2</ele>
        <time>2026-08-31T10:52:57Z</time>
      </trkpt>
      <trkpt lat="43.44226" lon="-0.35188">
        <ele>172.2</ele>
        <time>2026-08-31T10:52:58Z</time>
      </trkpt>
      <trkpt lat="43.44226" lon="-0.35187">
        <ele>172.2</ele>
        <time>2026-08-31T10:52:59Z</time>
      </trkpt>
      <trkpt lat="43.44225" lon="-0.35186">
        <ele>172.2</ele>
        <time>2026-08-31T10:52:59Z</time>
      </trkpt>
      <trkpt lat="43.44225" lon="-0.35185">
        <ele>172.2</ele>
        <time>2026-08-31T10:53:00Z</time>
      </trkpt>
      <trkpt lat="43.44225" lon="-0.35184">
        <ele>172.2</ele>
        <time>2026-08-31T10:53:00Z</time>
      </trkpt>
      <trkpt lat="43.44225" lon="-0.35183">
        <ele>172.2</ele>
        <time>2026-08-31T10:53:01Z</time>
      </trkpt>
      <trkpt lat="43.44225" lon="-0.35182">
        <ele>172.2</ele>
        <time>2026-08-31T10:53:01Z</time>
      </trkpt>
      <trkpt lat="43.44225" lon="-0.35181">
        <ele>172.2</ele>
        <time>2026-08-31T10:53:02Z</time>
      </trkpt>
      <trkpt lat="43.44224" lon="-0.3518">
        <ele>172.2</ele>
        <time>2026-08-31T10:53:02Z</time>
      </trkpt>
      <trkpt lat="43.44224" lon="-0.35179">
        <ele>172.2</ele>
        <time>2026-08-31T10:53:03Z</time>
      </trkpt>
      <trkpt lat="43.44224" lon="-0.35178">
        <ele>172.2</ele>
        <time>2026-08-31T10:53:03Z</time>
      </trkpt>
      <trkpt lat="43.44224" lon="-0.35178">
        <ele>172.2</ele>
        <time>2026-08-31T10:53:04Z</time>
      </trkpt>
      <trkpt lat="43.44224" lon="-0.35177">
        <ele>172.2</ele>
        <time>2026-08-31T10:53:04Z</time>
      </trkpt>
      <trkpt lat="43.44223" lon="-0.35176">
        <ele>172.2</ele>
        <time>2026-08-31T10:53:05Z</time>
      </trkpt>
      <trkpt lat="43.44223" lon="-0.35175">
        <ele>172.2</ele>
        <time>2026-08-31T10:53:06Z</time>
      </trkpt>
      <trkpt lat="43.44223" lon="-0.35174">
        <ele>172.2</ele>
        <time>2026-08-31T10:53:06Z</time>
      </trkpt>
      <trkpt lat="43.44223" lon="-0.35173">
        <ele>172.2</ele>
        <time>2026-08-31T10:53:07Z</time>
      </trkpt>
      <trkpt lat="43.44222" lon="-0.35172">
        <ele>172.2</ele>
        <time>2026-08-31T10:53:07Z</time>
      </trkpt>
      <trkpt lat="43.44222" lon="-0.35172">
        <ele>172.2</ele>
        <time>2026-08-31T10:53:08Z</time>
      </trkpt>
      <trkpt lat="43.44222" lon="-0.35171">
        <ele>172.2</ele>
        <time>2026-08-31T10:53:08Z</time>
      </trkpt>
      <trkpt lat="43.44222" lon="-0.3517">
        <ele>172.2</ele>
        <time>2026-08-31T10:53:09Z</time>
      </trkpt>
      <trkpt lat="43.44221" lon="-0.35169">
        <ele>172.2</ele>
        <time>2026-08-31T10:53:09Z</time>
      </trkpt>
      <trkpt lat="43.44221" lon="-0.35169">
        <ele>172.2</ele>
        <time>2026-08-31T10:53:10Z</time>
      </trkpt>
      <trkpt lat="43.44221" lon="-0.35168">
        <ele>172.2</ele>
        <time>2026-08-31T10:53:10Z</time>
      </trkpt>
      <trkpt lat="43.4422" lon="-0.35167">
        <ele>172.2</ele>
        <time>2026-08-31T10:53:11Z</time>
      </trkpt>
      <trkpt lat="43.4422" lon="-0.35166">
        <ele>172.2</ele>
        <time>2026-08-31T10:53:12Z</time>
      </trkpt>
      <trkpt lat="43.4422" lon="-0.35166">
        <ele>172.2</ele>
        <time>2026-08-31T10:53:12Z</time>
      </trkpt>
      <trkpt lat="43.44219" lon="-0.35165">
        <ele>172.2</ele>
        <time>2026-08-31T10:53:13Z</time>
      </trkpt>
      <trkpt lat="43.44219" lon="-0.35164">
        <ele>172.2</ele>
        <time>2026-08-31T10:53:13Z</time>
      </trkpt>
      <trkpt lat="43.44219" lon="-0.35164">
        <ele>172.2</ele>
        <time>2026-08-31T10:53:14Z</time>
      </trkpt>
      <trkpt lat="43.44218" lon="-0.35163">
        <ele>172.2</ele>
        <time>2026-08-31T10:53:14Z</time>
      </trkpt>
      <trkpt lat="43.44218" lon="-0.35163">
        <ele>172.2</ele>
        <time>2026-08-31T10:53:15Z</time>
      </trkpt>
      <trkpt lat="43.44217" lon="-0.35162">
        <ele>172.2</ele>
        <time>2026-08-31T10:53:15Z</time>
      </trkpt>
      <trkpt lat="43.44217" lon="-0.35161">
        <ele>172.2</ele>
        <time>2026-08-31T10:53:16Z</time>
      </trkpt>
      <trkpt lat="43.44217" lon="-0.3516">
        <ele>172.2</ele>
        <time>2026-08-31T10:53:16Z</time>
      </trkpt>
      <trkpt lat="43.44216" lon="-0.35159">
        <ele>172.2</ele>
        <time>2026-08-31T10:53:17Z</time>
      </trkpt>
      <trkpt lat="43.44216" lon="-0.35159">
        <ele>172.2</ele>
        <time>2026-08-31T10:53:17Z</time>
      </trkpt>
      <trkpt lat="43.44216" lon="-0.35158">
        <ele>172.2</ele>
        <time>2026-08-31T10:53:18Z</time>
      </trkpt>
      <trkpt lat="43.44215" lon="-0.35157">
        <ele>172.2</ele>
        <time>2026-08-31T10:53:19Z</time>
      </trkpt>
      <trkpt lat="43.44215" lon="-0.35157">
        <ele>172.2</ele>
        <time>2026-08-31T10:53:19Z</time>
      </trkpt>
      <trkpt lat="43.44214" lon="-0.35156">
        <ele>172.2</ele>
        <time>2026-08-31T10:53:20Z</time>
      </trkpt>
      <trkpt lat="43.44214" lon="-0.35155">
        <ele>172.2</ele>
        <time>2026-08-31T10:53:20Z</time>
      </trkpt>
      <trkpt lat="43.44213" lon="-0.35155">
        <ele>172.2</ele>
        <time>2026-08-31T10:53:21Z</time>
      </trkpt>
      <trkpt lat="43.44213" lon="-0.35154">
        <ele>172.2</ele>
        <time>2026-08-31T10:53:21Z</time>
      </trkpt>
      <trkpt lat="43.44213" lon="-0.35153">
        <ele>172.2</ele>
        <time>2026-08-31T10:53:22Z</time>
      </trkpt>
      <trkpt lat="43.44212" lon="-0.35153">
        <ele>172.2</ele>
        <time>2026-08-31T10:53:22Z</time>
      </trkpt>
      <trkpt lat="43.44212" lon="-0.35152">
        <ele>173.2</ele>
        <time>2026-08-31T10:53:23Z</time>
      </trkpt>
      <trkpt lat="43.44212" lon="-0.35151">
        <ele>173.2</ele>
        <time>2026-08-31T10:53:23Z</time>
      </trkpt>
      <trkpt lat="43.44212" lon="-0.35151">
        <ele>172.2</ele>
        <time>2026-08-31T10:53:24Z</time>
      </trkpt>
      <trkpt lat="43.44211" lon="-0.3515">
        <ele>172.2</ele>
        <time>2026-08-31T10:53:24Z</time>
      </trkpt>
      <trkpt lat="43.44211" lon="-0.35149">
        <ele>172.2</ele>
        <time>2026-08-31T10:53:25Z</time>
      </trkpt>
      <trkpt lat="43.44211" lon="-0.35149">
        <ele>172.2</ele>
        <time>2026-08-31T10:53:26Z</time>
      </trkpt>
      <trkpt lat="43.44211" lon="-0.35148">
        <ele>172.2</ele>
        <time>2026-08-31T10:53:26Z</time>
      </trkpt>
      <trkpt lat="43.44211" lon="-0.35147">
        <ele>172.2</ele>
        <time>2026-08-31T10:53:27Z</time>
      </trkpt>
      <trkpt lat="43.4421" lon="-0.35146">
        <ele>172.2</ele>
        <time>2026-08-31T10:53:27Z</time>
      </trkpt>
      <trkpt lat="43.4421" lon="-0.35146">
        <ele>171.2</ele>
        <time>2026-08-31T10:53:28Z</time>
      </trkpt>
      <trkpt lat="43.4421" lon="-0.35145">
        <ele>171.2</ele>
        <time>2026-08-31T10:53:28Z</time>
      </trkpt>
      <trkpt lat="43.4421" lon="-0.35144">
        <ele>171.2</ele>
        <time>2026-08-31T10:53:29Z</time>
      </trkpt>
      <trkpt lat="43.44209" lon="-0.35143">
        <ele>171.2</ele>
        <time>2026-08-31T10:53:29Z</time>
      </trkpt>
      <trkpt lat="43.44209" lon="-0.35143">
        <ele>171.2</ele>
        <time>2026-08-31T10:53:30Z</time>
      </trkpt>
      <trkpt lat="43.44209" lon="-0.35142">
        <ele>171.2</ele>
        <time>2026-08-31T10:53:30Z</time>
      </trkpt>
      <trkpt lat="43.44208" lon="-0.35141">
        <ele>170.2</ele>
        <time>2026-08-31T10:53:31Z</time>
      </trkpt>
      <trkpt lat="43.44208" lon="-0.3514">
        <ele>170.2</ele>
        <time>2026-08-31T10:53:32Z</time>
      </trkpt>
      <trkpt lat="43.44208" lon="-0.3514">
        <ele>170.2</ele>
        <time>2026-08-31T10:53:32Z</time>
      </trkpt>
      <trkpt lat="43.44207" lon="-0.35139">
        <ele>170.2</ele>
        <time>2026-08-31T10:53:33Z</time>
      </trkpt>
      <trkpt lat="43.44206" lon="-0.35138">
        <ele>170.2</ele>
        <time>2026-08-31T10:53:33Z</time>
      </trkpt>
      <trkpt lat="43.44206" lon="-0.35138">
        <ele>170.2</ele>
        <time>2026-08-31T10:53:34Z</time>
      </trkpt>
      <trkpt lat="43.44205" lon="-0.35137">
        <ele>170.2</ele>
        <time>2026-08-31T10:53:34Z</time>
      </trkpt>
      <trkpt lat="43.44205" lon="-0.35137">
        <ele>170.2</ele>
        <time>2026-08-31T10:53:35Z</time>
      </trkpt>
      <trkpt lat="43.44204" lon="-0.35136">
        <ele>170.2</ele>
        <time>2026-08-31T10:53:35Z</time>
      </trkpt>
      <trkpt lat="43.44203" lon="-0.35136">
        <ele>170.2</ele>
        <time>2026-08-31T10:53:36Z</time>
      </trkpt>
      <trkpt lat="43.44203" lon="-0.35135">
        <ele>170.2</ele>
        <time>2026-08-31T10:53:36Z</time>
      </trkpt>
      <trkpt lat="43.44202" lon="-0.35134">
        <ele>170.2</ele>
        <time>2026-08-31T10:53:37Z</time>
      </trkpt>
      <trkpt lat="43.44202" lon="-0.35134">
        <ele>170.2</ele>
        <time>2026-08-31T10:53:37Z</time>
      </trkpt>
      <trkpt lat="43.44201" lon="-0.35133">
        <ele>170.2</ele>
        <time>2026-08-31T10:53:38Z</time>
      </trkpt>
      <trkpt lat="43.442" lon="-0.35133">
        <ele>170.2</ele>
        <time>2026-08-31T10:53:39Z</time>
      </trkpt>
      <trkpt lat="43.442" lon="-0.35132">
        <ele>170.2</ele>
        <time>2026-08-31T10:53:39Z</time>
      </trkpt>
      <trkpt lat="43.44199" lon="-0.35132">
        <ele>170.2</ele>
        <time>2026-08-31T10:53:40Z</time>
      </trkpt>
      <trkpt lat="43.44199" lon="-0.35131">
        <ele>170.2</ele>
        <time>2026-08-31T10:53:40Z</time>
      </trkpt>
      <trkpt lat="43.44198" lon="-0.35131">
        <ele>170.2</ele>
        <time>2026-08-31T10:53:41Z</time>
      </trkpt>
      <trkpt lat="43.44197" lon="-0.3513">
        <ele>170.2</ele>
        <time>2026-08-31T10:53:41Z</time>
      </trkpt>
      <trkpt lat="43.44197" lon="-0.35129">
        <ele>170.2</ele>
        <time>2026-08-31T10:53:42Z</time>
      </trkpt>
      <trkpt lat="43.44196" lon="-0.35129">
        <ele>170.2</ele>
        <time>2026-08-31T10:53:42Z</time>
      </trkpt>
      <trkpt lat="43.44195" lon="-0.35128">
        <ele>170.2</ele>
        <time>2026-08-31T10:53:43Z</time>
      </trkpt>
      <trkpt lat="43.44195" lon="-0.35127">
        <ele>170.2</ele>
        <time>2026-08-31T10:53:43Z</time>
      </trkpt>
      <trkpt lat="43.44194" lon="-0.35127">
        <ele>170.2</ele>
        <time>2026-08-31T10:53:44Z</time>
      </trkpt>
      <trkpt lat="43.44194" lon="-0.35126">
        <ele>170.2</ele>
        <time>2026-08-31T10:53:45Z</time>
      </trkpt>
      <trkpt lat="43.44193" lon="-0.35125">
        <ele>170.2</ele>
        <time>2026-08-31T10:53:45Z</time>
      </trkpt>
      <trkpt lat="43.44193" lon="-0.35125">
        <ele>170.2</ele>
        <time>2026-08-31T10:53:46Z</time>
      </trkpt>
      <trkpt lat="43.44192" lon="-0.35124">
        <ele>170.2</ele>
        <time>2026-08-31T10:53:46Z</time>
      </trkpt>
      <trkpt lat="43.44192" lon="-0.35124">
        <ele>170.2</ele>
        <time>2026-08-31T10:53:47Z</time>
      </trkpt>
      <trkpt lat="43.44191" lon="-0.35123">
        <ele>170.2</ele>
        <time>2026-08-31T10:53:47Z</time>
      </trkpt>
      <trkpt lat="43.4419" lon="-0.35123">
        <ele>170.2</ele>
        <time>2026-08-31T10:53:48Z</time>
      </trkpt>
      <trkpt lat="43.4419" lon="-0.35122">
        <ele>170.2</ele>
        <time>2026-08-31T10:53:48Z</time>
      </trkpt>
      <trkpt lat="43.44189" lon="-0.35122">
        <ele>170.2</ele>
        <time>2026-08-31T10:53:49Z</time>
      </trkpt>
      <trkpt lat="43.44189" lon="-0.35121">
        <ele>170.2</ele>
        <time>2026-08-31T10:53:49Z</time>
      </trkpt>
      <trkpt lat="43.44188" lon="-0.35121">
        <ele>170.2</ele>
        <time>2026-08-31T10:53:50Z</time>
      </trkpt>
      <trkpt lat="43.44188" lon="-0.3512">
        <ele>170.2</ele>
        <time>2026-08-31T10:53:50Z</time>
      </trkpt>
      <trkpt lat="43.44187" lon="-0.3512">
        <ele>169.2</ele>
        <time>2026-08-31T10:53:51Z</time>
      </trkpt>
      <trkpt lat="43.44187" lon="-0.35119">
        <ele>169.2</ele>
        <time>2026-08-31T10:53:52Z</time>
      </trkpt>
      <trkpt lat="43.44186" lon="-0.35118">
        <ele>169.2</ele>
        <time>2026-08-31T10:53:52Z</time>
      </trkpt>
      <trkpt lat="43.44186" lon="-0.35118">
        <ele>168.2</ele>
        <time>2026-08-31T10:53:53Z</time>
      </trkpt>
      <trkpt lat="43.44185" lon="-0.35117">
        <ele>168.2</ele>
        <time>2026-08-31T10:53:53Z</time>
      </trkpt>
      <trkpt lat="43.44185" lon="-0.35116">
        <ele>168.2</ele>
        <time>2026-08-31T10:53:54Z</time>
      </trkpt>
      <trkpt lat="43.44184" lon="-0.35116">
        <ele>168.2</ele>
        <time>2026-08-31T10:53:54Z</time>
      </trkpt>
      <trkpt lat="43.44184" lon="-0.35115">
        <ele>168.2</ele>
        <time>2026-08-31T10:53:55Z</time>
      </trkpt>
      <trkpt lat="43.44183" lon="-0.35115">
        <ele>168.2</ele>
        <time>2026-08-31T10:53:55Z</time>
      </trkpt>
      <trkpt lat="43.44183" lon="-0.35114">
        <ele>168.2</ele>
        <time>2026-08-31T10:53:56Z</time>
      </trkpt>
      <trkpt lat="43.44182" lon="-0.35113">
        <ele>168.2</ele>
        <time>2026-08-31T10:53:57Z</time>
      </trkpt>
      <trkpt lat="43.44182" lon="-0.35112">
        <ele>168.2</ele>
        <time>2026-08-31T10:53:57Z</time>
      </trkpt>
      <trkpt lat="43.44181" lon="-0.35112">
        <ele>168.2</ele>
        <time>2026-08-31T10:53:58Z</time>
      </trkpt>
      <trkpt lat="43.44181" lon="-0.35111">
        <ele>168.2</ele>
        <time>2026-08-31T10:53:58Z</time>
      </trkpt>
      <trkpt lat="43.4418" lon="-0.35111">
        <ele>168.2</ele>
        <time>2026-08-31T10:53:59Z</time>
      </trkpt>
      <trkpt lat="43.4418" lon="-0.3511">
        <ele>168.2</ele>
        <time>2026-08-31T10:53:59Z</time>
      </trkpt>
      <trkpt lat="43.44179" lon="-0.3511">
        <ele>169.2</ele>
        <time>2026-08-31T10:54:00Z</time>
      </trkpt>
      <trkpt lat="43.44179" lon="-0.35109">
        <ele>169.2</ele>
        <time>2026-08-31T10:54:00Z</time>
      </trkpt>
      <trkpt lat="43.44178" lon="-0.35109">
        <ele>169.2</ele>
        <time>2026-08-31T10:54:01Z</time>
      </trkpt>
      <trkpt lat="43.44177" lon="-0.35109">
        <ele>169.2</ele>
        <time>2026-08-31T10:54:02Z</time>
      </trkpt>
      <trkpt lat="43.44177" lon="-0.35108">
        <ele>169.2</ele>
        <time>2026-08-31T10:54:02Z</time>
      </trkpt>
      <trkpt lat="43.44176" lon="-0.35108">
        <ele>169.2</ele>
        <time>2026-08-31T10:54:03Z</time>
      </trkpt>
      <trkpt lat="43.44176" lon="-0.35108">
        <ele>169.2</ele>
        <time>2026-08-31T10:54:03Z</time>
      </trkpt>
      <trkpt lat="43.44175" lon="-0.35107">
        <ele>169.2</ele>
        <time>2026-08-31T10:54:04Z</time>
      </trkpt>
      <trkpt lat="43.44174" lon="-0.35107">
        <ele>169.2</ele>
        <time>2026-08-31T10:54:04Z</time>
      </trkpt>
      <trkpt lat="43.44174" lon="-0.35107">
        <ele>168.2</ele>
        <time>2026-08-31T10:54:05Z</time>
      </trkpt>
      <trkpt lat="43.44173" lon="-0.35106">
        <ele>168.2</ele>
        <time>2026-08-31T10:54:05Z</time>
      </trkpt>
      <trkpt lat="43.44172" lon="-0.35106">
        <ele>168.2</ele>
        <time>2026-08-31T10:54:06Z</time>
      </trkpt>
      <trkpt lat="43.44172" lon="-0.35105">
        <ele>168.2</ele>
        <time>2026-08-31T10:54:06Z</time>
      </trkpt>
      <trkpt lat="43.44171" lon="-0.35105">
        <ele>168.2</ele>
        <time>2026-08-31T10:54:07Z</time>
      </trkpt>
      <trkpt lat="43.44171" lon="-0.35105">
        <ele>168.2</ele>
        <time>2026-08-31T10:54:07Z</time>
      </trkpt>
      <trkpt lat="43.4417" lon="-0.35104">
        <ele>168.2</ele>
        <time>2026-08-31T10:54:08Z</time>
      </trkpt>
      <trkpt lat="43.44169" lon="-0.35104">
        <ele>168.2</ele>
        <time>2026-08-31T10:54:08Z</time>
      </trkpt>
      <trkpt lat="43.44169" lon="-0.35103">
        <ele>167.2</ele>
        <time>2026-08-31T10:54:09Z</time>
      </trkpt>
      <trkpt lat="43.44169" lon="-0.35103">
        <ele>167.2</ele>
        <time>2026-08-31T10:54:10Z</time>
      </trkpt>
      <trkpt lat="43.44168" lon="-0.35102">
        <ele>168.2</ele>
        <time>2026-08-31T10:54:10Z</time>
      </trkpt>
      <trkpt lat="43.44167" lon="-0.35102">
        <ele>168.2</ele>
        <time>2026-08-31T10:54:11Z</time>
      </trkpt>
      <trkpt lat="43.44167" lon="-0.35101">
        <ele>168.2</ele>
        <time>2026-08-31T10:54:11Z</time>
      </trkpt>
      <trkpt lat="43.44166" lon="-0.35101">
        <ele>168.2</ele>
        <time>2026-08-31T10:54:12Z</time>
      </trkpt>
      <trkpt lat="43.44166" lon="-0.351">
        <ele>168.2</ele>
        <time>2026-08-31T10:54:12Z</time>
      </trkpt>
      <trkpt lat="43.44165" lon="-0.351">
        <ele>168.2</ele>
        <time>2026-08-31T10:54:13Z</time>
      </trkpt>
      <trkpt lat="43.44164" lon="-0.351">
        <ele>168.2</ele>
        <time>2026-08-31T10:54:13Z</time>
      </trkpt>
      <trkpt lat="43.44164" lon="-0.35099">
        <ele>167.2</ele>
        <time>2026-08-31T10:54:14Z</time>
      </trkpt>
      <trkpt lat="43.44163" lon="-0.35099">
        <ele>167.2</ele>
        <time>2026-08-31T10:54:14Z</time>
      </trkpt>
      <trkpt lat="43.44163" lon="-0.35098">
        <ele>168.2</ele>
        <time>2026-08-31T10:54:15Z</time>
      </trkpt>
      <trkpt lat="43.44162" lon="-0.35098">
        <ele>168.2</ele>
        <time>2026-08-31T10:54:16Z</time>
      </trkpt>
      <trkpt lat="43.44162" lon="-0.35097">
        <ele>168.2</ele>
        <time>2026-08-31T10:54:16Z</time>
      </trkpt>
      <trkpt lat="43.44161" lon="-0.35097">
        <ele>168.2</ele>
        <time>2026-08-31T10:54:17Z</time>
      </trkpt>
      <trkpt lat="43.44161" lon="-0.35097">
        <ele>167.2</ele>
        <time>2026-08-31T10:54:17Z</time>
      </trkpt>
      <trkpt lat="43.4416" lon="-0.35096">
        <ele>167.2</ele>
        <time>2026-08-31T10:54:18Z</time>
      </trkpt>
      <trkpt lat="43.4416" lon="-0.35095">
        <ele>167.2</ele>
        <time>2026-08-31T10:54:18Z</time>
      </trkpt>
      <trkpt lat="43.44159" lon="-0.35095">
        <ele>167.2</ele>
        <time>2026-08-31T10:54:19Z</time>
      </trkpt>
      <trkpt lat="43.44159" lon="-0.35094">
        <ele>167.2</ele>
        <time>2026-08-31T10:54:19Z</time>
      </trkpt>
      <trkpt lat="43.44158" lon="-0.35094">
        <ele>167.2</ele>
        <time>2026-08-31T10:54:20Z</time>
      </trkpt>
      <trkpt lat="43.44158" lon="-0.35093">
        <ele>167.2</ele>
        <time>2026-08-31T10:54:20Z</time>
      </trkpt>
      <trkpt lat="43.44157" lon="-0.35093">
        <ele>167.2</ele>
        <time>2026-08-31T10:54:21Z</time>
      </trkpt>
      <trkpt lat="43.44157" lon="-0.35092">
        <ele>167.2</ele>
        <time>2026-08-31T10:54:21Z</time>
      </trkpt>
      <trkpt lat="43.44156" lon="-0.35092">
        <ele>167.2</ele>
        <time>2026-08-31T10:54:22Z</time>
      </trkpt>
      <trkpt lat="43.44155" lon="-0.35092">
        <ele>167.2</ele>
        <time>2026-08-31T10:54:23Z</time>
      </trkpt>
      <trkpt lat="43.44155" lon="-0.35091">
        <ele>167.2</ele>
        <time>2026-08-31T10:54:23Z</time>
      </trkpt>
      <trkpt lat="43.44154" lon="-0.35091">
        <ele>167.2</ele>
        <time>2026-08-31T10:54:24Z</time>
      </trkpt>
      <trkpt lat="43.44154" lon="-0.35091">
        <ele>167.2</ele>
        <time>2026-08-31T10:54:24Z</time>
      </trkpt>
      <trkpt lat="43.44153" lon="-0.35091">
        <ele>167.2</ele>
        <time>2026-08-31T10:54:25Z</time>
      </trkpt>
      <trkpt lat="43.44153" lon="-0.35091">
        <ele>167.2</ele>
        <time>2026-08-31T10:54:25Z</time>
      </trkpt>
      <trkpt lat="43.44152" lon="-0.3509">
        <ele>167.2</ele>
        <time>2026-08-31T10:54:26Z</time>
      </trkpt>
      <trkpt lat="43.44152" lon="-0.3509">
        <ele>167.2</ele>
        <time>2026-08-31T10:54:26Z</time>
      </trkpt>
      <trkpt lat="43.44151" lon="-0.35089">
        <ele>167.2</ele>
        <time>2026-08-31T10:54:27Z</time>
      </trkpt>
      <trkpt lat="43.44151" lon="-0.35088">
        <ele>167.2</ele>
        <time>2026-08-31T10:54:28Z</time>
      </trkpt>
      <trkpt lat="43.4415" lon="-0.35087">
        <ele>166.2</ele>
        <time>2026-08-31T10:54:28Z</time>
      </trkpt>
      <trkpt lat="43.4415" lon="-0.35087">
        <ele>166.2</ele>
        <time>2026-08-31T10:54:29Z</time>
      </trkpt>
      <trkpt lat="43.44149" lon="-0.35086">
        <ele>166.2</ele>
        <time>2026-08-31T10:54:29Z</time>
      </trkpt>
      <trkpt lat="43.44149" lon="-0.35086">
        <ele>166.2</ele>
        <time>2026-08-31T10:54:30Z</time>
      </trkpt>
      <trkpt lat="43.44148" lon="-0.35085">
        <ele>166.2</ele>
        <time>2026-08-31T10:54:30Z</time>
      </trkpt>
      <trkpt lat="43.44148" lon="-0.35084">
        <ele>166.2</ele>
        <time>2026-08-31T10:54:31Z</time>
      </trkpt>
      <trkpt lat="43.44147" lon="-0.35084">
        <ele>166.2</ele>
        <time>2026-08-31T10:54:31Z</time>
      </trkpt>
      <trkpt lat="43.44147" lon="-0.35083">
        <ele>165.2</ele>
        <time>2026-08-31T10:54:32Z</time>
      </trkpt>
      <trkpt lat="43.44146" lon="-0.35082">
        <ele>165.2</ele>
        <time>2026-08-31T10:54:32Z</time>
      </trkpt>
      <trkpt lat="43.44146" lon="-0.35082">
        <ele>165.2</ele>
        <time>2026-08-31T10:54:33Z</time>
      </trkpt>
      <trkpt lat="43.44145" lon="-0.35081">
        <ele>165.2</ele>
        <time>2026-08-31T10:54:33Z</time>
      </trkpt>
      <trkpt lat="43.44145" lon="-0.3508">
        <ele>165.2</ele>
        <time>2026-08-31T10:54:34Z</time>
      </trkpt>
      <trkpt lat="43.44144" lon="-0.3508">
        <ele>165.2</ele>
        <time>2026-08-31T10:54:35Z</time>
      </trkpt>
      <trkpt lat="43.44144" lon="-0.35079">
        <ele>165.2</ele>
        <time>2026-08-31T10:54:35Z</time>
      </trkpt>
      <trkpt lat="43.44143" lon="-0.35079">
        <ele>165.2</ele>
        <time>2026-08-31T10:54:36Z</time>
      </trkpt>
      <trkpt lat="43.44143" lon="-0.35078">
        <ele>165.2</ele>
        <time>2026-08-31T10:54:36Z</time>
      </trkpt>
      <trkpt lat="43.44142" lon="-0.35078">
        <ele>166.2</ele>
        <time>2026-08-31T10:54:37Z</time>
      </trkpt>
      <trkpt lat="43.44142" lon="-0.35077">
        <ele>166.2</ele>
        <time>2026-08-31T10:54:37Z</time>
      </trkpt>
      <trkpt lat="43.44141" lon="-0.35076">
        <ele>166.2</ele>
        <time>2026-08-31T10:54:38Z</time>
      </trkpt>
      <trkpt lat="43.44141" lon="-0.35076">
        <ele>166.2</ele>
        <time>2026-08-31T10:54:38Z</time>
      </trkpt>
      <trkpt lat="43.4414" lon="-0.35075">
        <ele>166.2</ele>
        <time>2026-08-31T10:54:39Z</time>
      </trkpt>
      <trkpt lat="43.4414" lon="-0.35074">
        <ele>166.2</ele>
        <time>2026-08-31T10:54:40Z</time>
      </trkpt>
      <trkpt lat="43.4414" lon="-0.35074">
        <ele>165.2</ele>
        <time>2026-08-31T10:54:40Z</time>
      </trkpt>
      <trkpt lat="43.44139" lon="-0.35073">
        <ele>165.2</ele>
        <time>2026-08-31T10:54:41Z</time>
      </trkpt>
      <trkpt lat="43.44139" lon="-0.35073">
        <ele>165.2</ele>
        <time>2026-08-31T10:54:41Z</time>
      </trkpt>
      <trkpt lat="43.44138" lon="-0.35072">
        <ele>165.2</ele>
        <time>2026-08-31T10:54:42Z</time>
      </trkpt>
      <trkpt lat="43.44138" lon="-0.35072">
        <ele>164.2</ele>
        <time>2026-08-31T10:54:42Z</time>
      </trkpt>
      <trkpt lat="43.44137" lon="-0.35072">
        <ele>164.2</ele>
        <time>2026-08-31T10:54:43Z</time>
      </trkpt>
      <trkpt lat="43.44137" lon="-0.35071">
        <ele>164.2</ele>
        <time>2026-08-31T10:54:43Z</time>
      </trkpt>
      <trkpt lat="43.44136" lon="-0.35071">
        <ele>164.2</ele>
        <time>2026-08-31T10:54:44Z</time>
      </trkpt>
      <trkpt lat="43.44135" lon="-0.3507">
        <ele>164.2</ele>
        <time>2026-08-31T10:54:44Z</time>
      </trkpt>
      <trkpt lat="43.44135" lon="-0.3507">
        <ele>164.2</ele>
        <time>2026-08-31T10:54:45Z</time>
      </trkpt>
      <trkpt lat="43.44134" lon="-0.35069">
        <ele>164.2</ele>
        <time>2026-08-31T10:54:45Z</time>
      </trkpt>
      <trkpt lat="43.44134" lon="-0.35069">
        <ele>164.2</ele>
        <time>2026-08-31T10:54:46Z</time>
      </trkpt>
      <trkpt lat="43.44133" lon="-0.35068">
        <ele>164.2</ele>
        <time>2026-08-31T10:54:47Z</time>
      </trkpt>
      <trkpt lat="43.44132" lon="-0.35069">
        <ele>164.2</ele>
        <time>2026-08-31T10:54:47Z</time>
      </trkpt>
      <trkpt lat="43.44132" lon="-0.35068">
        <ele>164.2</ele>
        <time>2026-08-31T10:54:48Z</time>
      </trkpt>
      <trkpt lat="43.44131" lon="-0.35068">
        <ele>163.2</ele>
        <time>2026-08-31T10:54:48Z</time>
      </trkpt>
      <trkpt lat="43.4413" lon="-0.35068">
        <ele>163.2</ele>
        <time>2026-08-31T10:54:49Z</time>
      </trkpt>
      <trkpt lat="43.4413" lon="-0.35068">
        <ele>163.2</ele>
        <time>2026-08-31T10:54:49Z</time>
      </trkpt>
      <trkpt lat="43.44129" lon="-0.35068">
        <ele>163.2</ele>
        <time>2026-08-31T10:54:50Z</time>
      </trkpt>
      <trkpt lat="43.44128" lon="-0.35068">
        <ele>163.2</ele>
        <time>2026-08-31T10:54:50Z</time>
      </trkpt>
      <trkpt lat="43.44127" lon="-0.35068">
        <ele>164.2</ele>
        <time>2026-08-31T10:54:51Z</time>
      </trkpt>
      <trkpt lat="43.44127" lon="-0.35067">
        <ele>164.2</ele>
        <time>2026-08-31T10:54:51Z</time>
      </trkpt>
      <trkpt lat="43.44126" lon="-0.35068">
        <ele>164.2</ele>
        <time>2026-08-31T10:54:52Z</time>
      </trkpt>
      <trkpt lat="43.44125" lon="-0.35067">
        <ele>164.2</ele>
        <time>2026-08-31T10:54:52Z</time>
      </trkpt>
      <trkpt lat="43.44124" lon="-0.35067">
        <ele>164.2</ele>
        <time>2026-08-31T10:54:53Z</time>
      </trkpt>
      <trkpt lat="43.44124" lon="-0.35067">
        <ele>164.2</ele>
        <time>2026-08-31T10:54:54Z</time>
      </trkpt>
      <trkpt lat="43.44123" lon="-0.35068">
        <ele>163.2</ele>
        <time>2026-08-31T10:54:54Z</time>
      </trkpt>
      <trkpt lat="43.44122" lon="-0.35067">
        <ele>163.2</ele>
        <time>2026-08-31T10:54:55Z</time>
      </trkpt>
      <trkpt lat="43.44122" lon="-0.35068">
        <ele>163.2</ele>
        <time>2026-08-31T10:54:55Z</time>
      </trkpt>
      <trkpt lat="43.44121" lon="-0.35068">
        <ele>163.2</ele>
        <time>2026-08-31T10:54:56Z</time>
      </trkpt>
      <trkpt lat="43.4412" lon="-0.35068">
        <ele>163.2</ele>
        <time>2026-08-31T10:54:56Z</time>
      </trkpt>
      <trkpt lat="43.4412" lon="-0.35067">
        <ele>163.2</ele>
        <time>2026-08-31T10:54:57Z</time>
      </trkpt>
      <trkpt lat="43.44119" lon="-0.35067">
        <ele>163.2</ele>
        <time>2026-08-31T10:54:57Z</time>
      </trkpt>
      <trkpt lat="43.44118" lon="-0.35067">
        <ele>163.2</ele>
        <time>2026-08-31T10:54:58Z</time>
      </trkpt>
      <trkpt lat="43.44117" lon="-0.35067">
        <ele>163.2</ele>
        <time>2026-08-31T10:54:58Z</time>
      </trkpt>
      <trkpt lat="43.44117" lon="-0.35067">
        <ele>163.2</ele>
        <time>2026-08-31T10:54:59Z</time>
      </trkpt>
      <trkpt lat="43.44116" lon="-0.35067">
        <ele>163.2</ele>
        <time>2026-08-31T10:54:59Z</time>
      </trkpt>
      <trkpt lat="43.44115" lon="-0.35067">
        <ele>162.2</ele>
        <time>2026-08-31T10:55:00Z</time>
      </trkpt>
      <trkpt lat="43.44115" lon="-0.35067">
        <ele>162.2</ele>
        <time>2026-08-31T10:55:01Z</time>
      </trkpt>
      <trkpt lat="43.44114" lon="-0.35067">
        <ele>162.2</ele>
        <time>2026-08-31T10:55:01Z</time>
      </trkpt>
      <trkpt lat="43.44114" lon="-0.35067">
        <ele>161.2</ele>
        <time>2026-08-31T10:55:02Z</time>
      </trkpt>
      <trkpt lat="43.44113" lon="-0.35067">
        <ele>161.2</ele>
        <time>2026-08-31T10:55:02Z</time>
      </trkpt>
      <trkpt lat="43.44113" lon="-0.35066">
        <ele>161.2</ele>
        <time>2026-08-31T10:55:03Z</time>
      </trkpt>
      <trkpt lat="43.44112" lon="-0.35066">
        <ele>161.2</ele>
        <time>2026-08-31T10:55:03Z</time>
      </trkpt>
      <trkpt lat="43.44112" lon="-0.35066">
        <ele>161.2</ele>
        <time>2026-08-31T10:55:04Z</time>
      </trkpt>
      <trkpt lat="43.44111" lon="-0.35065">
        <ele>161.2</ele>
        <time>2026-08-31T10:55:04Z</time>
      </trkpt>
      <trkpt lat="43.4411" lon="-0.35065">
        <ele>161.2</ele>
        <time>2026-08-31T10:55:05Z</time>
      </trkpt>
      <trkpt lat="43.4411" lon="-0.35064">
        <ele>161.2</ele>
        <time>2026-08-31T10:55:05Z</time>
      </trkpt>
      <trkpt lat="43.44109" lon="-0.35063">
        <ele>160.2</ele>
        <time>2026-08-31T10:55:06Z</time>
      </trkpt>
      <trkpt lat="43.44109" lon="-0.35063">
        <ele>160.2</ele>
        <time>2026-08-31T10:55:07Z</time>
      </trkpt>
      <trkpt lat="43.44108" lon="-0.35063">
        <ele>160.2</ele>
        <time>2026-08-31T10:55:07Z</time>
      </trkpt>
      <trkpt lat="43.44108" lon="-0.35062">
        <ele>160.2</ele>
        <time>2026-08-31T10:55:08Z</time>
      </trkpt>
      <trkpt lat="43.44107" lon="-0.35062">
        <ele>159.2</ele>
        <time>2026-08-31T10:55:08Z</time>
      </trkpt>
      <trkpt lat="43.44107" lon="-0.35061">
        <ele>159.2</ele>
        <time>2026-08-31T10:55:09Z</time>
      </trkpt>
      <trkpt lat="43.44106" lon="-0.35061">
        <ele>159.2</ele>
        <time>2026-08-31T10:55:09Z</time>
      </trkpt>
      <trkpt lat="43.44106" lon="-0.35061">
        <ele>159.2</ele>
        <time>2026-08-31T10:55:10Z</time>
      </trkpt>
      <trkpt lat="43.44105" lon="-0.3506">
        <ele>159.2</ele>
        <time>2026-08-31T10:55:10Z</time>
      </trkpt>
      <trkpt lat="43.44105" lon="-0.3506">
        <ele>159.2</ele>
        <time>2026-08-31T10:55:11Z</time>
      </trkpt>
      <trkpt lat="43.44104" lon="-0.35059">
        <ele>159.2</ele>
        <time>2026-08-31T10:55:11Z</time>
      </trkpt>
      <trkpt lat="43.44104" lon="-0.35058">
        <ele>159.2</ele>
        <time>2026-08-31T10:55:12Z</time>
      </trkpt>
      <trkpt lat="43.44103" lon="-0.35058">
        <ele>159.2</ele>
        <time>2026-08-31T10:55:12Z</time>
      </trkpt>
      <trkpt lat="43.44103" lon="-0.35057">
        <ele>159.2</ele>
        <time>2026-08-31T10:55:13Z</time>
      </trkpt>
      <trkpt lat="43.44102" lon="-0.35056">
        <ele>159.2</ele>
        <time>2026-08-31T10:55:14Z</time>
      </trkpt>
      <trkpt lat="43.44102" lon="-0.35056">
        <ele>159.2</ele>
        <time>2026-08-31T10:55:14Z</time>
      </trkpt>
      <trkpt lat="43.44101" lon="-0.35055">
        <ele>159.2</ele>
        <time>2026-08-31T10:55:15Z</time>
      </trkpt>
      <trkpt lat="43.44101" lon="-0.35054">
        <ele>159.2</ele>
        <time>2026-08-31T10:55:15Z</time>
      </trkpt>
      <trkpt lat="43.441" lon="-0.35054">
        <ele>159.2</ele>
        <time>2026-08-31T10:55:16Z</time>
      </trkpt>
      <trkpt lat="43.441" lon="-0.35053">
        <ele>159.2</ele>
        <time>2026-08-31T10:55:16Z</time>
      </trkpt>
      <trkpt lat="43.44099" lon="-0.35052">
        <ele>159.2</ele>
        <time>2026-08-31T10:55:17Z</time>
      </trkpt>
      <trkpt lat="43.44099" lon="-0.35051">
        <ele>159.2</ele>
        <time>2026-08-31T10:55:17Z</time>
      </trkpt>
      <trkpt lat="43.44098" lon="-0.35051">
        <ele>158.2</ele>
        <time>2026-08-31T10:55:18Z</time>
      </trkpt>
      <trkpt lat="43.44098" lon="-0.3505">
        <ele>158.2</ele>
        <time>2026-08-31T10:55:18Z</time>
      </trkpt>
      <trkpt lat="43.44097" lon="-0.3505">
        <ele>158.2</ele>
        <time>2026-08-31T10:55:19Z</time>
      </trkpt>
      <trkpt lat="43.44096" lon="-0.3505">
        <ele>158.2</ele>
        <time>2026-08-31T10:55:20Z</time>
      </trkpt>
      <trkpt lat="43.44096" lon="-0.35049">
        <ele>158.2</ele>
        <time>2026-08-31T10:55:20Z</time>
      </trkpt>
      <trkpt lat="43.44095" lon="-0.35049">
        <ele>158.2</ele>
        <time>2026-08-31T10:55:21Z</time>
      </trkpt>
      <trkpt lat="43.44095" lon="-0.35048">
        <ele>158.2</ele>
        <time>2026-08-31T10:55:21Z</time>
      </trkpt>
      <trkpt lat="43.44094" lon="-0.35048">
        <ele>158.2</ele>
        <time>2026-08-31T10:55:22Z</time>
      </trkpt>
      <trkpt lat="43.44093" lon="-0.35047">
        <ele>158.2</ele>
        <time>2026-08-31T10:55:22Z</time>
      </trkpt>
      <trkpt lat="43.44093" lon="-0.35047">
        <ele>157.2</ele>
        <time>2026-08-31T10:55:23Z</time>
      </trkpt>
      <trkpt lat="43.44092" lon="-0.35046">
        <ele>157.2</ele>
        <time>2026-08-31T10:55:23Z</time>
      </trkpt>
      <trkpt lat="43.44091" lon="-0.35046">
        <ele>157.2</ele>
        <time>2026-08-31T10:55:24Z</time>
      </trkpt>
      <trkpt lat="43.44091" lon="-0.35045">
        <ele>157.2</ele>
        <time>2026-08-31T10:55:24Z</time>
      </trkpt>
      <trkpt lat="43.4409" lon="-0.35045">
        <ele>157.2</ele>
        <time>2026-08-31T10:55:25Z</time>
      </trkpt>
      <trkpt lat="43.4409" lon="-0.35045">
        <ele>157.2</ele>
        <time>2026-08-31T10:55:26Z</time>
      </trkpt>
      <trkpt lat="43.44089" lon="-0.35044">
        <ele>157.2</ele>
        <time>2026-08-31T10:55:26Z</time>
      </trkpt>
      <trkpt lat="43.44088" lon="-0.35044">
        <ele>157.2</ele>
        <time>2026-08-31T10:55:27Z</time>
      </trkpt>
      <trkpt lat="43.44088" lon="-0.35043">
        <ele>157.2</ele>
        <time>2026-08-31T10:55:27Z</time>
      </trkpt>
      <trkpt lat="43.44087" lon="-0.35043">
        <ele>157.2</ele>
        <time>2026-08-31T10:55:28Z</time>
      </trkpt>
      <trkpt lat="43.44087" lon="-0.35042">
        <ele>157.2</ele>
        <time>2026-08-31T10:55:28Z</time>
      </trkpt>
      <trkpt lat="43.44086" lon="-0.35042">
        <ele>157.2</ele>
        <time>2026-08-31T10:55:29Z</time>
      </trkpt>
      <trkpt lat="43.44086" lon="-0.35041">
        <ele>157.2</ele>
        <time>2026-08-31T10:55:29Z</time>
      </trkpt>
      <trkpt lat="43.44085" lon="-0.35041">
        <ele>156.2</ele>
        <time>2026-08-31T10:55:30Z</time>
      </trkpt>
      <trkpt lat="43.44084" lon="-0.3504">
        <ele>156.2</ele>
        <time>2026-08-31T10:55:30Z</time>
      </trkpt>
      <trkpt lat="43.44084" lon="-0.3504">
        <ele>157.2</ele>
        <time>2026-08-31T10:55:31Z</time>
      </trkpt>
      <trkpt lat="43.44083" lon="-0.35039">
        <ele>157.2</ele>
        <time>2026-08-31T10:55:31Z</time>
      </trkpt>
      <trkpt lat="43.44083" lon="-0.35039">
        <ele>157.2</ele>
        <time>2026-08-31T10:55:32Z</time>
      </trkpt>
      <trkpt lat="43.44082" lon="-0.35039">
        <ele>157.2</ele>
        <time>2026-08-31T10:55:33Z</time>
      </trkpt>
      <trkpt lat="43.44081" lon="-0.35038">
        <ele>157.2</ele>
        <time>2026-08-31T10:55:33Z</time>
      </trkpt>
      <trkpt lat="43.44081" lon="-0.35038">
        <ele>157.2</ele>
        <time>2026-08-31T10:55:34Z</time>
      </trkpt>
      <trkpt lat="43.4408" lon="-0.35037">
        <ele>157.2</ele>
        <time>2026-08-31T10:55:34Z</time>
      </trkpt>
      <trkpt lat="43.44079" lon="-0.35037">
        <ele>157.2</ele>
        <time>2026-08-31T10:55:35Z</time>
      </trkpt>
      <trkpt lat="43.44079" lon="-0.35036">
        <ele>157.2</ele>
        <time>2026-08-31T10:55:35Z</time>
      </trkpt>
      <trkpt lat="43.44078" lon="-0.35036">
        <ele>156.2</ele>
        <time>2026-08-31T10:55:36Z</time>
      </trkpt>
      <trkpt lat="43.44078" lon="-0.35035">
        <ele>156.2</ele>
        <time>2026-08-31T10:55:36Z</time>
      </trkpt>
      <trkpt lat="43.44077" lon="-0.35035">
        <ele>156.2</ele>
        <time>2026-08-31T10:55:37Z</time>
      </trkpt>
      <trkpt lat="43.44077" lon="-0.35034">
        <ele>156.2</ele>
        <time>2026-08-31T10:55:37Z</time>
      </trkpt>
      <trkpt lat="43.44076" lon="-0.35034">
        <ele>156.2</ele>
        <time>2026-08-31T10:55:38Z</time>
      </trkpt>
      <trkpt lat="43.44076" lon="-0.35033">
        <ele>156.2</ele>
        <time>2026-08-31T10:55:39Z</time>
      </trkpt>
      <trkpt lat="43.44075" lon="-0.35032">
        <ele>155.2</ele>
        <time>2026-08-31T10:55:39Z</time>
      </trkpt>
      <trkpt lat="43.44075" lon="-0.35032">
        <ele>155.2</ele>
        <time>2026-08-31T10:55:40Z</time>
      </trkpt>
      <trkpt lat="43.44074" lon="-0.35031">
        <ele>155.2</ele>
        <time>2026-08-31T10:55:40Z</time>
      </trkpt>
      <trkpt lat="43.44074" lon="-0.35031">
        <ele>155.2</ele>
        <time>2026-08-31T10:55:41Z</time>
      </trkpt>
      <trkpt lat="43.44074" lon="-0.3503">
        <ele>155.2</ele>
        <time>2026-08-31T10:55:41Z</time>
      </trkpt>
      <trkpt lat="43.44073" lon="-0.35029">
        <ele>155.2</ele>
        <time>2026-08-31T10:55:42Z</time>
      </trkpt>
      <trkpt lat="43.44073" lon="-0.35028">
        <ele>155.2</ele>
        <time>2026-08-31T10:55:42Z</time>
      </trkpt>
      <trkpt lat="43.44072" lon="-0.35027">
        <ele>155.2</ele>
        <time>2026-08-31T10:55:43Z</time>
      </trkpt>
      <trkpt lat="43.44072" lon="-0.35027">
        <ele>155.2</ele>
        <time>2026-08-31T10:55:44Z</time>
      </trkpt>
      <trkpt lat="43.44071" lon="-0.35026">
        <ele>155.2</ele>
        <time>2026-08-31T10:55:44Z</time>
      </trkpt>
      <trkpt lat="43.44071" lon="-0.35025">
        <ele>155.2</ele>
        <time>2026-08-31T10:55:45Z</time>
      </trkpt>
      <trkpt lat="43.4407" lon="-0.35025">
        <ele>155.2</ele>
        <time>2026-08-31T10:55:45Z</time>
      </trkpt>
      <trkpt lat="43.4407" lon="-0.35024">
        <ele>155.2</ele>
        <time>2026-08-31T10:55:46Z</time>
      </trkpt>
      <trkpt lat="43.4407" lon="-0.35023">
        <ele>155.2</ele>
        <time>2026-08-31T10:55:46Z</time>
      </trkpt>
      <trkpt lat="43.44069" lon="-0.35023">
        <ele>155.2</ele>
        <time>2026-08-31T10:55:47Z</time>
      </trkpt>
      <trkpt lat="43.44069" lon="-0.35022">
        <ele>155.2</ele>
        <time>2026-08-31T10:55:47Z</time>
      </trkpt>
      <trkpt lat="43.44069" lon="-0.35022">
        <ele>155.2</ele>
        <time>2026-08-31T10:55:48Z</time>
      </trkpt>
      <trkpt lat="43.44068" lon="-0.35021">
        <ele>155.2</ele>
        <time>2026-08-31T10:55:48Z</time>
      </trkpt>
      <trkpt lat="43.44067" lon="-0.35021">
        <ele>155.2</ele>
        <time>2026-08-31T10:55:49Z</time>
      </trkpt>
      <trkpt lat="43.44067" lon="-0.3502">
        <ele>155.2</ele>
        <time>2026-08-31T10:55:50Z</time>
      </trkpt>
      <trkpt lat="43.44066" lon="-0.3502">
        <ele>155.2</ele>
        <time>2026-08-31T10:55:50Z</time>
      </trkpt>
      <trkpt lat="43.44066" lon="-0.35019">
        <ele>155.2</ele>
        <time>2026-08-31T10:55:51Z</time>
      </trkpt>
      <trkpt lat="43.44065" lon="-0.35019">
        <ele>155.2</ele>
        <time>2026-08-31T10:55:51Z</time>
      </trkpt>
      <trkpt lat="43.44065" lon="-0.35018">
        <ele>155.2</ele>
        <time>2026-08-31T10:55:52Z</time>
      </trkpt>
      <trkpt lat="43.44064" lon="-0.35017">
        <ele>155.2</ele>
        <time>2026-08-31T10:55:52Z</time>
      </trkpt>
      <trkpt lat="43.44064" lon="-0.35017">
        <ele>155.2</ele>
        <time>2026-08-31T10:55:53Z</time>
      </trkpt>
      <trkpt lat="43.44063" lon="-0.35016">
        <ele>155.2</ele>
        <time>2026-08-31T10:55:53Z</time>
      </trkpt>
      <trkpt lat="43.44063" lon="-0.35015">
        <ele>155.2</ele>
        <time>2026-08-31T10:55:54Z</time>
      </trkpt>
      <trkpt lat="43.44062" lon="-0.35014">
        <ele>155.2</ele>
        <time>2026-08-31T10:55:55Z</time>
      </trkpt>
      <trkpt lat="43.44062" lon="-0.35014">
        <ele>155.2</ele>
        <time>2026-08-31T10:55:55Z</time>
      </trkpt>
      <trkpt lat="43.44061" lon="-0.35013">
        <ele>156.2</ele>
        <time>2026-08-31T10:55:56Z</time>
      </trkpt>
      <trkpt lat="43.4406" lon="-0.35013">
        <ele>156.2</ele>
        <time>2026-08-31T10:55:56Z</time>
      </trkpt>
      <trkpt lat="43.4406" lon="-0.35013">
        <ele>155.2</ele>
        <time>2026-08-31T10:55:57Z</time>
      </trkpt>
      <trkpt lat="43.44059" lon="-0.35012">
        <ele>155.2</ele>
        <time>2026-08-31T10:55:57Z</time>
      </trkpt>
      <trkpt lat="43.44058" lon="-0.35012">
        <ele>155.2</ele>
        <time>2026-08-31T10:55:58Z</time>
      </trkpt>
      <trkpt lat="43.44058" lon="-0.35011">
        <ele>155.2</ele>
        <time>2026-08-31T10:55:58Z</time>
      </trkpt>
      <trkpt lat="43.44057" lon="-0.35011">
        <ele>155.2</ele>
        <time>2026-08-31T10:55:59Z</time>
      </trkpt>
      <trkpt lat="43.44056" lon="-0.3501">
        <ele>155.2</ele>
        <time>2026-08-31T10:55:59Z</time>
      </trkpt>
      <trkpt lat="43.44056" lon="-0.3501">
        <ele>155.2</ele>
        <time>2026-08-31T10:56:00Z</time>
      </trkpt>
      <trkpt lat="43.44055" lon="-0.35009">
        <ele>155.2</ele>
        <time>2026-08-31T10:56:01Z</time>
      </trkpt>
      <trkpt lat="43.44054" lon="-0.35009">
        <ele>155.2</ele>
        <time>2026-08-31T10:56:01Z</time>
      </trkpt>
      <trkpt lat="43.44054" lon="-0.35008">
        <ele>155.2</ele>
        <time>2026-08-31T10:56:02Z</time>
      </trkpt>
      <trkpt lat="43.44053" lon="-0.35008">
        <ele>155.2</ele>
        <time>2026-08-31T10:56:02Z</time>
      </trkpt>
      <trkpt lat="43.44052" lon="-0.35008">
        <ele>155.2</ele>
        <time>2026-08-31T10:56:03Z</time>
      </trkpt>
      <trkpt lat="43.44051" lon="-0.35007">
        <ele>155.2</ele>
        <time>2026-08-31T10:56:03Z</time>
      </trkpt>
      <trkpt lat="43.44051" lon="-0.35007">
        <ele>155.2</ele>
        <time>2026-08-31T10:56:04Z</time>
      </trkpt>
      <trkpt lat="43.4405" lon="-0.35006">
        <ele>155.2</ele>
        <time>2026-08-31T10:56:04Z</time>
      </trkpt>
      <trkpt lat="43.44049" lon="-0.35006">
        <ele>155.2</ele>
        <time>2026-08-31T10:56:05Z</time>
      </trkpt>
      <trkpt lat="43.44048" lon="-0.35006">
        <ele>155.2</ele>
        <time>2026-08-31T10:56:05Z</time>
      </trkpt>
      <trkpt lat="43.44048" lon="-0.35006">
        <ele>156.2</ele>
        <time>2026-08-31T10:56:06Z</time>
      </trkpt>
      <trkpt lat="43.44047" lon="-0.35005">
        <ele>156.2</ele>
        <time>2026-08-31T10:56:07Z</time>
      </trkpt>
      <trkpt lat="43.44046" lon="-0.35005">
        <ele>156.2</ele>
        <time>2026-08-31T10:56:07Z</time>
      </trkpt>
      <trkpt lat="43.44046" lon="-0.35005">
        <ele>156.2</ele>
        <time>2026-08-31T10:56:08Z</time>
      </trkpt>
      <trkpt lat="43.44045" lon="-0.35005">
        <ele>157.2</ele>
        <time>2026-08-31T10:56:08Z</time>
      </trkpt>
      <trkpt lat="43.44044" lon="-0.35004">
        <ele>157.2</ele>
        <time>2026-08-31T10:56:09Z</time>
      </trkpt>
      <trkpt lat="43.44044" lon="-0.35004">
        <ele>157.2</ele>
        <time>2026-08-31T10:56:09Z</time>
      </trkpt>
      <trkpt lat="43.44043" lon="-0.35004">
        <ele>157.2</ele>
        <time>2026-08-31T10:56:10Z</time>
      </trkpt>
      <trkpt lat="43.44042" lon="-0.35004">
        <ele>157.2</ele>
        <time>2026-08-31T10:56:10Z</time>
      </trkpt>
      <trkpt lat="43.44042" lon="-0.35004">
        <ele>157.2</ele>
        <time>2026-08-31T10:56:11Z</time>
      </trkpt>
      <trkpt lat="43.44041" lon="-0.35003">
        <ele>157.2</ele>
        <time>2026-08-31T10:56:11Z</time>
      </trkpt>
      <trkpt lat="43.4404" lon="-0.35003">
        <ele>157.2</ele>
        <time>2026-08-31T10:56:12Z</time>
      </trkpt>
      <trkpt lat="43.4404" lon="-0.35003">
        <ele>157.2</ele>
        <time>2026-08-31T10:56:12Z</time>
      </trkpt>
      <trkpt lat="43.44039" lon="-0.35003">
        <ele>157.2</ele>
        <time>2026-08-31T10:56:13Z</time>
      </trkpt>
      <trkpt lat="43.44038" lon="-0.35003">
        <ele>157.2</ele>
        <time>2026-08-31T10:56:14Z</time>
      </trkpt>
      <trkpt lat="43.44038" lon="-0.35003">
        <ele>156.2</ele>
        <time>2026-08-31T10:56:14Z</time>
      </trkpt>
      <trkpt lat="43.44037" lon="-0.35003">
        <ele>156.2</ele>
        <time>2026-08-31T10:56:15Z</time>
      </trkpt>
      <trkpt lat="43.44036" lon="-0.35003">
        <ele>156.2</ele>
        <time>2026-08-31T10:56:15Z</time>
      </trkpt>
      <trkpt lat="43.44036" lon="-0.35003">
        <ele>156.2</ele>
        <time>2026-08-31T10:56:16Z</time>
      </trkpt>
      <trkpt lat="43.44035" lon="-0.35002">
        <ele>156.2</ele>
        <time>2026-08-31T10:56:16Z</time>
      </trkpt>
      <trkpt lat="43.44034" lon="-0.35002">
        <ele>156.2</ele>
        <time>2026-08-31T10:56:17Z</time>
      </trkpt>
      <trkpt lat="43.44034" lon="-0.35002">
        <ele>156.2</ele>
        <time>2026-08-31T10:56:17Z</time>
      </trkpt>
      <trkpt lat="43.44033" lon="-0.35002">
        <ele>156.2</ele>
        <time>2026-08-31T10:56:18Z</time>
      </trkpt>
      <trkpt lat="43.44032" lon="-0.35002">
        <ele>156.2</ele>
        <time>2026-08-31T10:56:18Z</time>
      </trkpt>
      <trkpt lat="43.44032" lon="-0.35001">
        <ele>156.2</ele>
        <time>2026-08-31T10:56:19Z</time>
      </trkpt>
      <trkpt lat="43.44031" lon="-0.35001">
        <ele>156.2</ele>
        <time>2026-08-31T10:56:20Z</time>
      </trkpt>
      <trkpt lat="43.4403" lon="-0.35001">
        <ele>156.2</ele>
        <time>2026-08-31T10:56:20Z</time>
      </trkpt>
      <trkpt lat="43.4403" lon="-0.35001">
        <ele>156.2</ele>
        <time>2026-08-31T10:56:21Z</time>
      </trkpt>
      <trkpt lat="43.44029" lon="-0.35001">
        <ele>156.2</ele>
        <time>2026-08-31T10:56:21Z</time>
      </trkpt>
      <trkpt lat="43.44029" lon="-0.35001">
        <ele>156.2</ele>
        <time>2026-08-31T10:56:22Z</time>
      </trkpt>
      <trkpt lat="43.44028" lon="-0.35001">
        <ele>156.2</ele>
        <time>2026-08-31T10:56:22Z</time>
      </trkpt>
      <trkpt lat="43.44028" lon="-0.35001">
        <ele>156.2</ele>
        <time>2026-08-31T10:56:23Z</time>
      </trkpt>
      <trkpt lat="43.44027" lon="-0.35001">
        <ele>156.2</ele>
        <time>2026-08-31T10:56:23Z</time>
      </trkpt>
      <trkpt lat="43.44027" lon="-0.35001">
        <ele>156.2</ele>
        <time>2026-08-31T10:56:24Z</time>
      </trkpt>
      <trkpt lat="43.44026" lon="-0.35001">
        <ele>156.2</ele>
        <time>2026-08-31T10:56:24Z</time>
      </trkpt>
      <trkpt lat="43.44025" lon="-0.35">
        <ele>156.2</ele>
        <time>2026-08-31T10:56:25Z</time>
      </trkpt>
      <trkpt lat="43.44025" lon="-0.35">
        <ele>156.2</ele>
        <time>2026-08-31T10:56:25Z</time>
      </trkpt>
      <trkpt lat="43.44024" lon="-0.35">
        <ele>156.2</ele>
        <time>2026-08-31T10:56:26Z</time>
      </trkpt>
      <trkpt lat="43.44023" lon="-0.35">
        <ele>156.2</ele>
        <time>2026-08-31T10:56:26Z</time>
      </trkpt>
      <trkpt lat="43.44023" lon="-0.34999">
        <ele>155.2</ele>
        <time>2026-08-31T10:56:27Z</time>
      </trkpt>
      <trkpt lat="43.44022" lon="-0.34999">
        <ele>155.2</ele>
        <time>2026-08-31T10:56:28Z</time>
      </trkpt>
      <trkpt lat="43.44022" lon="-0.34999">
        <ele>156.2</ele>
        <time>2026-08-31T10:56:28Z</time>
      </trkpt>
      <trkpt lat="43.44021" lon="-0.34999">
        <ele>156.2</ele>
        <time>2026-08-31T10:56:29Z</time>
      </trkpt>
      <trkpt lat="43.4402" lon="-0.34999">
        <ele>156.2</ele>
        <time>2026-08-31T10:56:29Z</time>
      </trkpt>
      <trkpt lat="43.4402" lon="-0.34999">
        <ele>155.2</ele>
        <time>2026-08-31T10:56:30Z</time>
      </trkpt>
      <trkpt lat="43.44019" lon="-0.34998">
        <ele>155.2</ele>
        <time>2026-08-31T10:56:30Z</time>
      </trkpt>
      <trkpt lat="43.44019" lon="-0.34998">
        <ele>155.2</ele>
        <time>2026-08-31T10:56:31Z</time>
      </trkpt>
      <trkpt lat="43.44018" lon="-0.34998">
        <ele>155.2</ele>
        <time>2026-08-31T10:56:31Z</time>
      </trkpt>
      <trkpt lat="43.44017" lon="-0.34997">
        <ele>156.2</ele>
        <time>2026-08-31T10:56:32Z</time>
      </trkpt>
      <trkpt lat="43.44017" lon="-0.34997">
        <ele>156.2</ele>
        <time>2026-08-31T10:56:32Z</time>
      </trkpt>
      <trkpt lat="43.44016" lon="-0.34997">
        <ele>156.2</ele>
        <time>2026-08-31T10:56:33Z</time>
      </trkpt>
      <trkpt lat="43.44016" lon="-0.34996">
        <ele>156.2</ele>
        <time>2026-08-31T10:56:34Z</time>
      </trkpt>
      <trkpt lat="43.44015" lon="-0.34996">
        <ele>156.2</ele>
        <time>2026-08-31T10:56:34Z</time>
      </trkpt>
      <trkpt lat="43.44014" lon="-0.34995">
        <ele>156.2</ele>
        <time>2026-08-31T10:56:35Z</time>
      </trkpt>
      <trkpt lat="43.44014" lon="-0.34995">
        <ele>155.2</ele>
        <time>2026-08-31T10:56:35Z</time>
      </trkpt>
      <trkpt lat="43.44013" lon="-0.34994">
        <ele>155.2</ele>
        <time>2026-08-31T10:56:36Z</time>
      </trkpt>
      <trkpt lat="43.44013" lon="-0.34994">
        <ele>155.2</ele>
        <time>2026-08-31T10:56:36Z</time>
      </trkpt>
      <trkpt lat="43.44012" lon="-0.34993">
        <ele>155.2</ele>
        <time>2026-08-31T10:56:37Z</time>
      </trkpt>
      <trkpt lat="43.44011" lon="-0.34992">
        <ele>155.2</ele>
        <time>2026-08-31T10:56:37Z</time>
      </trkpt>
      <trkpt lat="43.44011" lon="-0.34992">
        <ele>156.2</ele>
        <time>2026-08-31T10:56:38Z</time>
      </trkpt>
      <trkpt lat="43.4401" lon="-0.34991">
        <ele>156.2</ele>
        <time>2026-08-31T10:56:39Z</time>
      </trkpt>
      <trkpt lat="43.4401" lon="-0.34991">
        <ele>156.2</ele>
        <time>2026-08-31T10:56:39Z</time>
      </trkpt>
      <trkpt lat="43.44009" lon="-0.3499">
        <ele>156.2</ele>
        <time>2026-08-31T10:56:40Z</time>
      </trkpt>
      <trkpt lat="43.44009" lon="-0.34989">
        <ele>156.2</ele>
        <time>2026-08-31T10:56:40Z</time>
      </trkpt>
      <trkpt lat="43.44008" lon="-0.34989">
        <ele>156.2</ele>
        <time>2026-08-31T10:56:41Z</time>
      </trkpt>
      <trkpt lat="43.44008" lon="-0.34988">
        <ele>156.2</ele>
        <time>2026-08-31T10:56:41Z</time>
      </trkpt>
      <trkpt lat="43.44007" lon="-0.34988">
        <ele>156.2</ele>
        <time>2026-08-31T10:56:42Z</time>
      </trkpt>
      <trkpt lat="43.44006" lon="-0.34987">
        <ele>156.2</ele>
        <time>2026-08-31T10:56:42Z</time>
      </trkpt>
      <trkpt lat="43.44006" lon="-0.34987">
        <ele>156.2</ele>
        <time>2026-08-31T10:56:43Z</time>
      </trkpt>
      <trkpt lat="43.44005" lon="-0.34986">
        <ele>156.2</ele>
        <time>2026-08-31T10:56:43Z</time>
      </trkpt>
      <trkpt lat="43.44004" lon="-0.34986">
        <ele>156.2</ele>
        <time>2026-08-31T10:56:44Z</time>
      </trkpt>
      <trkpt lat="43.44004" lon="-0.34985">
        <ele>156.2</ele>
        <time>2026-08-31T10:56:44Z</time>
      </trkpt>
      <trkpt lat="43.44003" lon="-0.34985">
        <ele>156.2</ele>
        <time>2026-08-31T10:56:45Z</time>
      </trkpt>
      <trkpt lat="43.44002" lon="-0.34985">
        <ele>156.2</ele>
        <time>2026-08-31T10:56:46Z</time>
      </trkpt>
      <trkpt lat="43.44001" lon="-0.34984">
        <ele>156.2</ele>
        <time>2026-08-31T10:56:46Z</time>
      </trkpt>
      <trkpt lat="43.44001" lon="-0.34984">
        <ele>156.2</ele>
        <time>2026-08-31T10:56:47Z</time>
      </trkpt>
      <trkpt lat="43.44" lon="-0.34984">
        <ele>156.2</ele>
        <time>2026-08-31T10:56:47Z</time>
      </trkpt>
      <trkpt lat="43.43999" lon="-0.34983">
        <ele>156.2</ele>
        <time>2026-08-31T10:56:48Z</time>
      </trkpt>
      <trkpt lat="43.43998" lon="-0.34983">
        <ele>156.2</ele>
        <time>2026-08-31T10:56:48Z</time>
      </trkpt>
      <trkpt lat="43.43998" lon="-0.34983">
        <ele>156.2</ele>
        <time>2026-08-31T10:56:49Z</time>
      </trkpt>
      <trkpt lat="43.43997" lon="-0.34982">
        <ele>156.2</ele>
        <time>2026-08-31T10:56:49Z</time>
      </trkpt>
      <trkpt lat="43.43996" lon="-0.34982">
        <ele>157.2</ele>
        <time>2026-08-31T10:56:50Z</time>
      </trkpt>
      <trkpt lat="43.43995" lon="-0.34981">
        <ele>157.2</ele>
        <time>2026-08-31T10:56:50Z</time>
      </trkpt>
      <trkpt lat="43.43995" lon="-0.34981">
        <ele>157.2</ele>
        <time>2026-08-31T10:56:51Z</time>
      </trkpt>
      <trkpt lat="43.43994" lon="-0.34981">
        <ele>157.2</ele>
        <time>2026-08-31T10:56:52Z</time>
      </trkpt>
      <trkpt lat="43.43993" lon="-0.3498">
        <ele>158.2</ele>
        <time>2026-08-31T10:56:52Z</time>
      </trkpt>
      <trkpt lat="43.43992" lon="-0.3498">
        <ele>158.2</ele>
        <time>2026-08-31T10:56:53Z</time>
      </trkpt>
      <trkpt lat="43.43992" lon="-0.34979">
        <ele>158.2</ele>
        <time>2026-08-31T10:56:53Z</time>
      </trkpt>
      <trkpt lat="43.43991" lon="-0.34979">
        <ele>158.2</ele>
        <time>2026-08-31T10:56:54Z</time>
      </trkpt>
      <trkpt lat="43.4399" lon="-0.34979">
        <ele>158.2</ele>
        <time>2026-08-31T10:56:54Z</time>
      </trkpt>
      <trkpt lat="43.43989" lon="-0.34978">
        <ele>158.2</ele>
        <time>2026-08-31T10:56:55Z</time>
      </trkpt>
      <trkpt lat="43.43989" lon="-0.34977">
        <ele>158.2</ele>
        <time>2026-08-31T10:56:55Z</time>
      </trkpt>
      <trkpt lat="43.43988" lon="-0.34977">
        <ele>159.2</ele>
        <time>2026-08-31T10:56:56Z</time>
      </trkpt>
      <trkpt lat="43.43987" lon="-0.34976">
        <ele>159.2</ele>
        <time>2026-08-31T10:56:56Z</time>
      </trkpt>
      <trkpt lat="43.43987" lon="-0.34976">
        <ele>159.2</ele>
        <time>2026-08-31T10:56:57Z</time>
      </trkpt>
      <trkpt lat="43.43986" lon="-0.34976">
        <ele>159.2</ele>
        <time>2026-08-31T10:56:57Z</time>
      </trkpt>
      <trkpt lat="43.43985" lon="-0.34976">
        <ele>159.2</ele>
        <time>2026-08-31T10:56:58Z</time>
      </trkpt>
      <trkpt lat="43.43985" lon="-0.34975">
        <ele>159.2</ele>
        <time>2026-08-31T10:56:59Z</time>
      </trkpt>
      <trkpt lat="43.43984" lon="-0.34975">
        <ele>160.2</ele>
        <time>2026-08-31T10:56:59Z</time>
      </trkpt>
      <trkpt lat="43.43983" lon="-0.34974">
        <ele>160.2</ele>
        <time>2026-08-31T10:57:00Z</time>
      </trkpt>
      <trkpt lat="43.43982" lon="-0.34974">
        <ele>160.2</ele>
        <time>2026-08-31T10:57:00Z</time>
      </trkpt>
      <trkpt lat="43.43982" lon="-0.34974">
        <ele>160.2</ele>
        <time>2026-08-31T10:57:01Z</time>
      </trkpt>
      <trkpt lat="43.43981" lon="-0.34973">
        <ele>160.2</ele>
        <time>2026-08-31T10:57:01Z</time>
      </trkpt>
      <trkpt lat="43.4398" lon="-0.34973">
        <ele>160.2</ele>
        <time>2026-08-31T10:57:02Z</time>
      </trkpt>
      <trkpt lat="43.4398" lon="-0.34972">
        <ele>160.2</ele>
        <time>2026-08-31T10:57:02Z</time>
      </trkpt>
      <trkpt lat="43.43979" lon="-0.34972">
        <ele>160.2</ele>
        <time>2026-08-31T10:57:03Z</time>
      </trkpt>
      <trkpt lat="43.43979" lon="-0.34971">
        <ele>160.2</ele>
        <time>2026-08-31T10:57:03Z</time>
      </trkpt>
      <trkpt lat="43.43978" lon="-0.34971">
        <ele>160.2</ele>
        <time>2026-08-31T10:57:04Z</time>
      </trkpt>
      <trkpt lat="43.43977" lon="-0.3497">
        <ele>160.2</ele>
        <time>2026-08-31T10:57:05Z</time>
      </trkpt>
      <trkpt lat="43.43977" lon="-0.34969">
        <ele>160.2</ele>
        <time>2026-08-31T10:57:05Z</time>
      </trkpt>
      <trkpt lat="43.43976" lon="-0.34969">
        <ele>160.2</ele>
        <time>2026-08-31T10:57:06Z</time>
      </trkpt>
      <trkpt lat="43.43976" lon="-0.34968">
        <ele>160.2</ele>
        <time>2026-08-31T10:57:06Z</time>
      </trkpt>
      <trkpt lat="43.43975" lon="-0.34968">
        <ele>161.2</ele>
        <time>2026-08-31T10:57:07Z</time>
      </trkpt>
      <trkpt lat="43.43974" lon="-0.34967">
        <ele>161.2</ele>
        <time>2026-08-31T10:57:07Z</time>
      </trkpt>
      <trkpt lat="43.43974" lon="-0.34966">
        <ele>161.2</ele>
        <time>2026-08-31T10:57:08Z</time>
      </trkpt>
      <trkpt lat="43.43973" lon="-0.34966">
        <ele>161.2</ele>
        <time>2026-08-31T10:57:08Z</time>
      </trkpt>
      <trkpt lat="43.43972" lon="-0.34965">
        <ele>161.2</ele>
        <time>2026-08-31T10:57:10Z</time>
      </trkpt>
      <trkpt lat="43.4397" lon="-0.34966">
        <ele>162.2</ele>
        <time>2026-08-31T10:57:11Z</time>
      </trkpt>
      <trkpt lat="43.43969" lon="-0.34966">
        <ele>162.2</ele>
        <time>2026-08-31T10:57:11Z</time>
      </trkpt>
      <trkpt lat="43.43969" lon="-0.34966">
        <ele>162.2</ele>
        <time>2026-08-31T10:57:12Z</time>
      </trkpt>
      <trkpt lat="43.43968" lon="-0.34965">
        <ele>162.2</ele>
        <time>2026-08-31T10:57:12Z</time>
      </trkpt>
      <trkpt lat="43.43967" lon="-0.34965">
        <ele>162.2</ele>
        <time>2026-08-31T10:57:13Z</time>
      </trkpt>
      <trkpt lat="43.43967" lon="-0.34964">
        <ele>162.2</ele>
        <time>2026-08-31T10:57:13Z</time>
      </trkpt>
      <trkpt lat="43.43966" lon="-0.34963">
        <ele>162.2</ele>
        <time>2026-08-31T10:57:14Z</time>
      </trkpt>
      <trkpt lat="43.43966" lon="-0.34963">
        <ele>162.2</ele>
        <time>2026-08-31T10:57:14Z</time>
      </trkpt>
      <trkpt lat="43.43965" lon="-0.34962">
        <ele>162.2</ele>
        <time>2026-08-31T10:57:15Z</time>
      </trkpt>
      <trkpt lat="43.43965" lon="-0.34961">
        <ele>162.2</ele>
        <time>2026-08-31T10:57:15Z</time>
      </trkpt>
      <trkpt lat="43.43964" lon="-0.34961">
        <ele>162.2</ele>
        <time>2026-08-31T10:57:16Z</time>
      </trkpt>
      <trkpt lat="43.43963" lon="-0.3496">
        <ele>162.2</ele>
        <time>2026-08-31T10:57:17Z</time>
      </trkpt>
      <trkpt lat="43.43963" lon="-0.34959">
        <ele>162.2</ele>
        <time>2026-08-31T10:57:17Z</time>
      </trkpt>
      <trkpt lat="43.43962" lon="-0.34959">
        <ele>162.2</ele>
        <time>2026-08-31T10:57:18Z</time>
      </trkpt>
      <trkpt lat="43.43962" lon="-0.34958">
        <ele>162.2</ele>
        <time>2026-08-31T10:57:18Z</time>
      </trkpt>
      <trkpt lat="43.43961" lon="-0.34958">
        <ele>162.2</ele>
        <time>2026-08-31T10:57:19Z</time>
      </trkpt>
      <trkpt lat="43.4396" lon="-0.34957">
        <ele>162.2</ele>
        <time>2026-08-31T10:57:19Z</time>
      </trkpt>
      <trkpt lat="43.4396" lon="-0.34956">
        <ele>162.2</ele>
        <time>2026-08-31T10:57:20Z</time>
      </trkpt>
      <trkpt lat="43.43959" lon="-0.34955">
        <ele>162.2</ele>
        <time>2026-08-31T10:57:21Z</time>
      </trkpt>
      <trkpt lat="43.43959" lon="-0.34955">
        <ele>162.2</ele>
        <time>2026-08-31T10:57:21Z</time>
      </trkpt>
      <trkpt lat="43.43958" lon="-0.34954">
        <ele>163.2</ele>
        <time>2026-08-31T10:57:22Z</time>
      </trkpt>
      <trkpt lat="43.43958" lon="-0.34953">
        <ele>163.2</ele>
        <time>2026-08-31T10:57:22Z</time>
      </trkpt>
      <trkpt lat="43.43957" lon="-0.34953">
        <ele>163.2</ele>
        <time>2026-08-31T10:57:23Z</time>
      </trkpt>
      <trkpt lat="43.43957" lon="-0.34952">
        <ele>163.2</ele>
        <time>2026-08-31T10:57:23Z</time>
      </trkpt>
      <trkpt lat="43.43956" lon="-0.34951">
        <ele>163.2</ele>
        <time>2026-08-31T10:57:24Z</time>
      </trkpt>
      <trkpt lat="43.43956" lon="-0.3495">
        <ele>163.2</ele>
        <time>2026-08-31T10:57:25Z</time>
      </trkpt>
      <trkpt lat="43.43956" lon="-0.34949">
        <ele>162.2</ele>
        <time>2026-08-31T10:57:25Z</time>
      </trkpt>
      <trkpt lat="43.43955" lon="-0.34949">
        <ele>162.2</ele>
        <time>2026-08-31T10:57:26Z</time>
      </trkpt>
      <trkpt lat="43.43955" lon="-0.34948">
        <ele>162.2</ele>
        <time>2026-08-31T10:57:26Z</time>
      </trkpt>
      <trkpt lat="43.43954" lon="-0.34947">
        <ele>163.2</ele>
        <time>2026-08-31T10:57:27Z</time>
      </trkpt>
      <trkpt lat="43.43954" lon="-0.34946">
        <ele>163.2</ele>
        <time>2026-08-31T10:57:27Z</time>
      </trkpt>
      <trkpt lat="43.43954" lon="-0.34946">
        <ele>163.2</ele>
        <time>2026-08-31T10:57:28Z</time>
      </trkpt>
      <trkpt lat="43.43953" lon="-0.34945">
        <ele>163.2</ele>
        <time>2026-08-31T10:57:29Z</time>
      </trkpt>
      <trkpt lat="43.43953" lon="-0.34944">
        <ele>163.2</ele>
        <time>2026-08-31T10:57:29Z</time>
      </trkpt>
      <trkpt lat="43.43953" lon="-0.34943">
        <ele>163.2</ele>
        <time>2026-08-31T10:57:30Z</time>
      </trkpt>
      <trkpt lat="43.43952" lon="-0.34943">
        <ele>163.2</ele>
        <time>2026-08-31T10:57:30Z</time>
      </trkpt>
      <trkpt lat="43.43952" lon="-0.34942">
        <ele>163.2</ele>
        <time>2026-08-31T10:57:31Z</time>
      </trkpt>
      <trkpt lat="43.43951" lon="-0.34941">
        <ele>163.2</ele>
        <time>2026-08-31T10:57:31Z</time>
      </trkpt>
      <trkpt lat="43.43951" lon="-0.3494">
        <ele>163.2</ele>
        <time>2026-08-31T10:57:32Z</time>
      </trkpt>
      <trkpt lat="43.43951" lon="-0.34939">
        <ele>163.2</ele>
        <time>2026-08-31T10:57:32Z</time>
      </trkpt>
      <trkpt lat="43.4395" lon="-0.34938">
        <ele>163.2</ele>
        <time>2026-08-31T10:57:33Z</time>
      </trkpt>
      <trkpt lat="43.4395" lon="-0.34937">
        <ele>163.2</ele>
        <time>2026-08-31T10:57:34Z</time>
      </trkpt>
      <trkpt lat="43.43949" lon="-0.34937">
        <ele>163.2</ele>
        <time>2026-08-31T10:57:34Z</time>
      </trkpt>
      <trkpt lat="43.43949" lon="-0.34936">
        <ele>163.2</ele>
        <time>2026-08-31T10:57:35Z</time>
      </trkpt>
      <trkpt lat="43.43949" lon="-0.34935">
        <ele>163.2</ele>
        <time>2026-08-31T10:57:35Z</time>
      </trkpt>
      <trkpt lat="43.43948" lon="-0.34935">
        <ele>163.2</ele>
        <time>2026-08-31T10:57:36Z</time>
      </trkpt>
      <trkpt lat="43.43948" lon="-0.34934">
        <ele>163.2</ele>
        <time>2026-08-31T10:57:36Z</time>
      </trkpt>
      <trkpt lat="43.43948" lon="-0.34933">
        <ele>163.2</ele>
        <time>2026-08-31T10:57:37Z</time>
      </trkpt>
      <trkpt lat="43.43947" lon="-0.34932">
        <ele>163.2</ele>
        <time>2026-08-31T10:57:37Z</time>
      </trkpt>
      <trkpt lat="43.43947" lon="-0.34931">
        <ele>163.2</ele>
        <time>2026-08-31T10:57:38Z</time>
      </trkpt>
      <trkpt lat="43.43947" lon="-0.34931">
        <ele>163.2</ele>
        <time>2026-08-31T10:57:38Z</time>
      </trkpt>
      <trkpt lat="43.43947" lon="-0.3493">
        <ele>163.2</ele>
        <time>2026-08-31T10:57:39Z</time>
      </trkpt>
      <trkpt lat="43.43946" lon="-0.34929">
        <ele>163.2</ele>
        <time>2026-08-31T10:57:40Z</time>
      </trkpt>
      <trkpt lat="43.43946" lon="-0.34928">
        <ele>163.2</ele>
        <time>2026-08-31T10:57:40Z</time>
      </trkpt>
      <trkpt lat="43.43946" lon="-0.34927">
        <ele>163.2</ele>
        <time>2026-08-31T10:57:41Z</time>
      </trkpt>
      <trkpt lat="43.43945" lon="-0.34927">
        <ele>163.2</ele>
        <time>2026-08-31T10:57:41Z</time>
      </trkpt>
      <trkpt lat="43.43945" lon="-0.34926">
        <ele>163.2</ele>
        <time>2026-08-31T10:57:42Z</time>
      </trkpt>
      <trkpt lat="43.43945" lon="-0.34925">
        <ele>163.2</ele>
        <time>2026-08-31T10:57:42Z</time>
      </trkpt>
      <trkpt lat="43.43944" lon="-0.34924">
        <ele>163.2</ele>
        <time>2026-08-31T10:57:43Z</time>
      </trkpt>
      <trkpt lat="43.43944" lon="-0.34924">
        <ele>163.2</ele>
        <time>2026-08-31T10:57:43Z</time>
      </trkpt>
      <trkpt lat="43.43944" lon="-0.34923">
        <ele>163.2</ele>
        <time>2026-08-31T10:57:44Z</time>
      </trkpt>
      <trkpt lat="43.43943" lon="-0.34922">
        <ele>163.2</ele>
        <time>2026-08-31T10:57:45Z</time>
      </trkpt>
      <trkpt lat="43.43943" lon="-0.34921">
        <ele>164.2</ele>
        <time>2026-08-31T10:57:45Z</time>
      </trkpt>
      <trkpt lat="43.43943" lon="-0.3492">
        <ele>164.2</ele>
        <time>2026-08-31T10:57:46Z</time>
      </trkpt>
      <trkpt lat="43.43942" lon="-0.34919">
        <ele>164.2</ele>
        <time>2026-08-31T10:57:46Z</time>
      </trkpt>
      <trkpt lat="43.43942" lon="-0.34919">
        <ele>164.2</ele>
        <time>2026-08-31T10:57:47Z</time>
      </trkpt>
      <trkpt lat="43.43942" lon="-0.34918">
        <ele>164.2</ele>
        <time>2026-08-31T10:57:47Z</time>
      </trkpt>
      <trkpt lat="43.43942" lon="-0.34917">
        <ele>164.2</ele>
        <time>2026-08-31T10:57:48Z</time>
      </trkpt>
      <trkpt lat="43.43941" lon="-0.34916">
        <ele>164.2</ele>
        <time>2026-08-31T10:57:48Z</time>
      </trkpt>
      <trkpt lat="43.43941" lon="-0.34915">
        <ele>164.2</ele>
        <time>2026-08-31T10:57:49Z</time>
      </trkpt>
      <trkpt lat="43.43941" lon="-0.34914">
        <ele>164.2</ele>
        <time>2026-08-31T10:57:50Z</time>
      </trkpt>
      <trkpt lat="43.4394" lon="-0.34913">
        <ele>164.2</ele>
        <time>2026-08-31T10:57:50Z</time>
      </trkpt>
      <trkpt lat="43.4394" lon="-0.34913">
        <ele>164.2</ele>
        <time>2026-08-31T10:57:51Z</time>
      </trkpt>
      <trkpt lat="43.4394" lon="-0.34912">
        <ele>164.2</ele>
        <time>2026-08-31T10:57:51Z</time>
      </trkpt>
      <trkpt lat="43.4394" lon="-0.34911">
        <ele>164.2</ele>
        <time>2026-08-31T10:57:52Z</time>
      </trkpt>
      <trkpt lat="43.43939" lon="-0.34911">
        <ele>164.2</ele>
        <time>2026-08-31T10:57:52Z</time>
      </trkpt>
      <trkpt lat="43.43939" lon="-0.3491">
        <ele>164.2</ele>
        <time>2026-08-31T10:57:53Z</time>
      </trkpt>
      <trkpt lat="43.43938" lon="-0.34909">
        <ele>164.2</ele>
        <time>2026-08-31T10:57:53Z</time>
      </trkpt>
      <trkpt lat="43.43938" lon="-0.34909">
        <ele>163.2</ele>
        <time>2026-08-31T10:57:54Z</time>
      </trkpt>
      <trkpt lat="43.43938" lon="-0.34908">
        <ele>163.2</ele>
        <time>2026-08-31T10:57:54Z</time>
      </trkpt>
      <trkpt lat="43.43937" lon="-0.34907">
        <ele>163.2</ele>
        <time>2026-08-31T10:57:55Z</time>
      </trkpt>
      <trkpt lat="43.43937" lon="-0.34907">
        <ele>163.2</ele>
        <time>2026-08-31T10:57:55Z</time>
      </trkpt>
      <trkpt lat="43.43937" lon="-0.34906">
        <ele>163.2</ele>
        <time>2026-08-31T10:57:56Z</time>
      </trkpt>
      <trkpt lat="43.43936" lon="-0.34905">
        <ele>163.2</ele>
        <time>2026-08-31T10:57:56Z</time>
      </trkpt>
      <trkpt lat="43.43936" lon="-0.34904">
        <ele>163.2</ele>
        <time>2026-08-31T10:57:57Z</time>
      </trkpt>
      <trkpt lat="43.43936" lon="-0.34904">
        <ele>163.2</ele>
        <time>2026-08-31T10:57:58Z</time>
      </trkpt>
      <trkpt lat="43.43935" lon="-0.34903">
        <ele>162.2</ele>
        <time>2026-08-31T10:57:58Z</time>
      </trkpt>
      <trkpt lat="43.43935" lon="-0.34902">
        <ele>162.2</ele>
        <time>2026-08-31T10:57:59Z</time>
      </trkpt>
      <trkpt lat="43.43935" lon="-0.34901">
        <ele>162.2</ele>
        <time>2026-08-31T10:57:59Z</time>
      </trkpt>
      <trkpt lat="43.43935" lon="-0.349">
        <ele>162.2</ele>
        <time>2026-08-31T10:58:00Z</time>
      </trkpt>
      <trkpt lat="43.43934" lon="-0.34899">
        <ele>162.2</ele>
        <time>2026-08-31T10:58:00Z</time>
      </trkpt>
      <trkpt lat="43.43934" lon="-0.34899">
        <ele>162.2</ele>
        <time>2026-08-31T10:58:01Z</time>
      </trkpt>
      <trkpt lat="43.43934" lon="-0.34898">
        <ele>162.2</ele>
        <time>2026-08-31T10:58:01Z</time>
      </trkpt>
      <trkpt lat="43.43934" lon="-0.34897">
        <ele>162.2</ele>
        <time>2026-08-31T10:58:02Z</time>
      </trkpt>
      <trkpt lat="43.43934" lon="-0.34896">
        <ele>162.2</ele>
        <time>2026-08-31T10:58:02Z</time>
      </trkpt>
      <trkpt lat="43.43934" lon="-0.34895">
        <ele>162.2</ele>
        <time>2026-08-31T10:58:03Z</time>
      </trkpt>
      <trkpt lat="43.43934" lon="-0.34894">
        <ele>162.2</ele>
        <time>2026-08-31T10:58:03Z</time>
      </trkpt>
      <trkpt lat="43.43934" lon="-0.34893">
        <ele>162.2</ele>
        <time>2026-08-31T10:58:04Z</time>
      </trkpt>
      <trkpt lat="43.43934" lon="-0.34892">
        <ele>162.2</ele>
        <time>2026-08-31T10:58:04Z</time>
      </trkpt>
      <trkpt lat="43.43934" lon="-0.34892">
        <ele>162.2</ele>
        <time>2026-08-31T10:58:05Z</time>
      </trkpt>
      <trkpt lat="43.43933" lon="-0.34891">
        <ele>162.2</ele>
        <time>2026-08-31T10:58:06Z</time>
      </trkpt>
      <trkpt lat="43.43933" lon="-0.3489">
        <ele>162.2</ele>
        <time>2026-08-31T10:58:06Z</time>
      </trkpt>
      <trkpt lat="43.43933" lon="-0.34889">
        <ele>162.2</ele>
        <time>2026-08-31T10:58:07Z</time>
      </trkpt>
      <trkpt lat="43.43933" lon="-0.34888">
        <ele>162.2</ele>
        <time>2026-08-31T10:58:07Z</time>
      </trkpt>
      <trkpt lat="43.43933" lon="-0.34888">
        <ele>162.2</ele>
        <time>2026-08-31T10:58:08Z</time>
      </trkpt>
      <trkpt lat="43.43932" lon="-0.34887">
        <ele>162.2</ele>
        <time>2026-08-31T10:58:08Z</time>
      </trkpt>
      <trkpt lat="43.43932" lon="-0.34886">
        <ele>162.2</ele>
        <time>2026-08-31T10:58:09Z</time>
      </trkpt>
      <trkpt lat="43.43932" lon="-0.34885">
        <ele>162.2</ele>
        <time>2026-08-31T10:58:09Z</time>
      </trkpt>
      <trkpt lat="43.43932" lon="-0.34884">
        <ele>163.2</ele>
        <time>2026-08-31T10:58:10Z</time>
      </trkpt>
      <trkpt lat="43.43932" lon="-0.34884">
        <ele>163.2</ele>
        <time>2026-08-31T10:58:10Z</time>
      </trkpt>
      <trkpt lat="43.43931" lon="-0.34883">
        <ele>162.2</ele>
        <time>2026-08-31T10:58:11Z</time>
      </trkpt>
      <trkpt lat="43.43931" lon="-0.34882">
        <ele>162.2</ele>
        <time>2026-08-31T10:58:11Z</time>
      </trkpt>
      <trkpt lat="43.43931" lon="-0.34881">
        <ele>162.2</ele>
        <time>2026-08-31T10:58:12Z</time>
      </trkpt>
      <trkpt lat="43.43931" lon="-0.34881">
        <ele>162.2</ele>
        <time>2026-08-31T10:58:13Z</time>
      </trkpt>
      <trkpt lat="43.4393" lon="-0.34879">
        <ele>162.2</ele>
        <time>2026-08-31T10:58:14Z</time>
      </trkpt>
      <trkpt lat="43.4393" lon="-0.34878">
        <ele>162.2</ele>
        <time>2026-08-31T10:58:14Z</time>
      </trkpt>
      <trkpt lat="43.4393" lon="-0.34878">
        <ele>162.2</ele>
        <time>2026-08-31T10:58:15Z</time>
      </trkpt>
      <trkpt lat="43.4393" lon="-0.34877">
        <ele>162.2</ele>
        <time>2026-08-31T10:58:15Z</time>
      </trkpt>
      <trkpt lat="43.43929" lon="-0.34876">
        <ele>162.2</ele>
        <time>2026-08-31T10:58:16Z</time>
      </trkpt>
      <trkpt lat="43.43929" lon="-0.34875">
        <ele>162.2</ele>
        <time>2026-08-31T10:58:16Z</time>
      </trkpt>
      <trkpt lat="43.43929" lon="-0.34874">
        <ele>162.2</ele>
        <time>2026-08-31T10:58:17Z</time>
      </trkpt>
      <trkpt lat="43.43929" lon="-0.34874">
        <ele>162.2</ele>
        <time>2026-08-31T10:58:17Z</time>
      </trkpt>
      <trkpt lat="43.43928" lon="-0.34873">
        <ele>163.2</ele>
        <time>2026-08-31T10:58:18Z</time>
      </trkpt>
      <trkpt lat="43.43928" lon="-0.34872">
        <ele>163.2</ele>
        <time>2026-08-31T10:58:19Z</time>
      </trkpt>
      <trkpt lat="43.43928" lon="-0.34871">
        <ele>163.2</ele>
        <time>2026-08-31T10:58:19Z</time>
      </trkpt>
      <trkpt lat="43.43927" lon="-0.3487">
        <ele>163.2</ele>
        <time>2026-08-31T10:58:20Z</time>
      </trkpt>
      <trkpt lat="43.43927" lon="-0.3487">
        <ele>163.2</ele>
        <time>2026-08-31T10:58:20Z</time>
      </trkpt>
      <trkpt lat="43.43927" lon="-0.34869">
        <ele>163.2</ele>
        <time>2026-08-31T10:58:21Z</time>
      </trkpt>
      <trkpt lat="43.43927" lon="-0.34868">
        <ele>163.2</ele>
        <time>2026-08-31T10:58:21Z</time>
      </trkpt>
      <trkpt lat="43.43926" lon="-0.34867">
        <ele>163.2</ele>
        <time>2026-08-31T10:58:22Z</time>
      </trkpt>
      <trkpt lat="43.43926" lon="-0.34866">
        <ele>163.2</ele>
        <time>2026-08-31T10:58:22Z</time>
      </trkpt>
      <trkpt lat="43.43926" lon="-0.34866">
        <ele>162.2</ele>
        <time>2026-08-31T10:58:23Z</time>
      </trkpt>
      <trkpt lat="43.43925" lon="-0.34865">
        <ele>162.2</ele>
        <time>2026-08-31T10:58:23Z</time>
      </trkpt>
      <trkpt lat="43.43925" lon="-0.34864">
        <ele>163.2</ele>
        <time>2026-08-31T10:58:24Z</time>
      </trkpt>
      <trkpt lat="43.43925" lon="-0.34863">
        <ele>163.2</ele>
        <time>2026-08-31T10:58:24Z</time>
      </trkpt>
      <trkpt lat="43.43924" lon="-0.34863">
        <ele>163.2</ele>
        <time>2026-08-31T10:58:25Z</time>
      </trkpt>
      <trkpt lat="43.43924" lon="-0.34862">
        <ele>163.2</ele>
        <time>2026-08-31T10:58:26Z</time>
      </trkpt>
      <trkpt lat="43.43923" lon="-0.34861">
        <ele>163.2</ele>
        <time>2026-08-31T10:58:26Z</time>
      </trkpt>
      <trkpt lat="43.43923" lon="-0.34861">
        <ele>163.2</ele>
        <time>2026-08-31T10:58:27Z</time>
      </trkpt>
      <trkpt lat="43.43923" lon="-0.3486">
        <ele>163.2</ele>
        <time>2026-08-31T10:58:27Z</time>
      </trkpt>
      <trkpt lat="43.43922" lon="-0.3486">
        <ele>163.2</ele>
        <time>2026-08-31T10:58:28Z</time>
      </trkpt>
      <trkpt lat="43.43922" lon="-0.34859">
        <ele>163.2</ele>
        <time>2026-08-31T10:58:28Z</time>
      </trkpt>
      <trkpt lat="43.43921" lon="-0.34859">
        <ele>163.2</ele>
        <time>2026-08-31T10:58:29Z</time>
      </trkpt>
      <trkpt lat="43.43921" lon="-0.34858">
        <ele>163.2</ele>
        <time>2026-08-31T10:58:29Z</time>
      </trkpt>
      <trkpt lat="43.43921" lon="-0.34857">
        <ele>164.2</ele>
        <time>2026-08-31T10:58:30Z</time>
      </trkpt>
      <trkpt lat="43.4392" lon="-0.34857">
        <ele>164.2</ele>
        <time>2026-08-31T10:58:30Z</time>
      </trkpt>
      <trkpt lat="43.4392" lon="-0.34856">
        <ele>165.2</ele>
        <time>2026-08-31T10:58:31Z</time>
      </trkpt>
      <trkpt lat="43.43919" lon="-0.34856">
        <ele>165.2</ele>
        <time>2026-08-31T10:58:32Z</time>
      </trkpt>
      <trkpt lat="43.43919" lon="-0.34855">
        <ele>165.2</ele>
        <time>2026-08-31T10:58:32Z</time>
      </trkpt>
      <trkpt lat="43.43918" lon="-0.34855">
        <ele>165.2</ele>
        <time>2026-08-31T10:58:33Z</time>
      </trkpt>
      <trkpt lat="43.43918" lon="-0.34854">
        <ele>165.2</ele>
        <time>2026-08-31T10:58:33Z</time>
      </trkpt>
      <trkpt lat="43.43917" lon="-0.34854">
        <ele>165.2</ele>
        <time>2026-08-31T10:58:34Z</time>
      </trkpt>
      <trkpt lat="43.43916" lon="-0.34854">
        <ele>165.2</ele>
        <time>2026-08-31T10:58:34Z</time>
      </trkpt>
      <trkpt lat="43.43916" lon="-0.34854">
        <ele>166.2</ele>
        <time>2026-08-31T10:58:35Z</time>
      </trkpt>
      <trkpt lat="43.43915" lon="-0.34853">
        <ele>166.2</ele>
        <time>2026-08-31T10:58:35Z</time>
      </trkpt>
      <trkpt lat="43.43915" lon="-0.34853">
        <ele>165.2</ele>
        <time>2026-08-31T10:58:36Z</time>
      </trkpt>
      <trkpt lat="43.43914" lon="-0.34853">
        <ele>165.2</ele>
        <time>2026-08-31T10:58:36Z</time>
      </trkpt>
      <trkpt lat="43.43913" lon="-0.34852">
        <ele>166.2</ele>
        <time>2026-08-31T10:58:37Z</time>
      </trkpt>
      <trkpt lat="43.43913" lon="-0.34852">
        <ele>166.2</ele>
        <time>2026-08-31T10:58:38Z</time>
      </trkpt>
      <trkpt lat="43.43912" lon="-0.34852">
        <ele>166.2</ele>
        <time>2026-08-31T10:58:38Z</time>
      </trkpt>
      <trkpt lat="43.43911" lon="-0.34851">
        <ele>166.2</ele>
        <time>2026-08-31T10:58:39Z</time>
      </trkpt>
      <trkpt lat="43.43911" lon="-0.34851">
        <ele>166.2</ele>
        <time>2026-08-31T10:58:39Z</time>
      </trkpt>
      <trkpt lat="43.4391" lon="-0.3485">
        <ele>166.2</ele>
        <time>2026-08-31T10:58:40Z</time>
      </trkpt>
      <trkpt lat="43.4391" lon="-0.3485">
        <ele>166.2</ele>
        <time>2026-08-31T10:58:40Z</time>
      </trkpt>
      <trkpt lat="43.43909" lon="-0.3485">
        <ele>165.2</ele>
        <time>2026-08-31T10:58:41Z</time>
      </trkpt>
      <trkpt lat="43.43908" lon="-0.34849">
        <ele>165.2</ele>
        <time>2026-08-31T10:58:41Z</time>
      </trkpt>
      <trkpt lat="43.43908" lon="-0.34849">
        <ele>165.2</ele>
        <time>2026-08-31T10:58:42Z</time>
      </trkpt>
      <trkpt lat="43.43907" lon="-0.34848">
        <ele>165.2</ele>
        <time>2026-08-31T10:58:43Z</time>
      </trkpt>
      <trkpt lat="43.43907" lon="-0.34848">
        <ele>165.2</ele>
        <time>2026-08-31T10:58:43Z</time>
      </trkpt>
      <trkpt lat="43.43906" lon="-0.34848">
        <ele>165.2</ele>
        <time>2026-08-31T10:58:44Z</time>
      </trkpt>
      <trkpt lat="43.43906" lon="-0.34847">
        <ele>165.2</ele>
        <time>2026-08-31T10:58:44Z</time>
      </trkpt>
      <trkpt lat="43.43905" lon="-0.34847">
        <ele>165.2</ele>
        <time>2026-08-31T10:58:45Z</time>
      </trkpt>
      <trkpt lat="43.43904" lon="-0.34846">
        <ele>165.2</ele>
        <time>2026-08-31T10:58:45Z</time>
      </trkpt>
      <trkpt lat="43.43904" lon="-0.34846">
        <ele>165.2</ele>
        <time>2026-08-31T10:58:46Z</time>
      </trkpt>
      <trkpt lat="43.43903" lon="-0.34845">
        <ele>165.2</ele>
        <time>2026-08-31T10:58:46Z</time>
      </trkpt>
      <trkpt lat="43.43903" lon="-0.34845">
        <ele>165.2</ele>
        <time>2026-08-31T10:58:47Z</time>
      </trkpt>
      <trkpt lat="43.43902" lon="-0.34844">
        <ele>165.2</ele>
        <time>2026-08-31T10:58:47Z</time>
      </trkpt>
      <trkpt lat="43.43902" lon="-0.34844">
        <ele>164.2</ele>
        <time>2026-08-31T10:58:48Z</time>
      </trkpt>
      <trkpt lat="43.43901" lon="-0.34843">
        <ele>164.2</ele>
        <time>2026-08-31T10:58:49Z</time>
      </trkpt>
      <trkpt lat="43.439" lon="-0.34843">
        <ele>164.2</ele>
        <time>2026-08-31T10:58:49Z</time>
      </trkpt>
      <trkpt lat="43.439" lon="-0.34843">
        <ele>164.2</ele>
        <time>2026-08-31T10:58:50Z</time>
      </trkpt>
      <trkpt lat="43.43899" lon="-0.34842">
        <ele>164.2</ele>
        <time>2026-08-31T10:58:50Z</time>
      </trkpt>
      <trkpt lat="43.43899" lon="-0.34842">
        <ele>164.2</ele>
        <time>2026-08-31T10:58:51Z</time>
      </trkpt>
      <trkpt lat="43.43898" lon="-0.34841">
        <ele>164.2</ele>
        <time>2026-08-31T10:58:51Z</time>
      </trkpt>
      <trkpt lat="43.43897" lon="-0.34841">
        <ele>163.2</ele>
        <time>2026-08-31T10:58:52Z</time>
      </trkpt>
      <trkpt lat="43.43897" lon="-0.34841">
        <ele>163.2</ele>
        <time>2026-08-31T10:58:52Z</time>
      </trkpt>
      <trkpt lat="43.43896" lon="-0.3484">
        <ele>163.2</ele>
        <time>2026-08-31T10:58:53Z</time>
      </trkpt>
      <trkpt lat="43.43895" lon="-0.3484">
        <ele>163.2</ele>
        <time>2026-08-31T10:58:53Z</time>
      </trkpt>
      <trkpt lat="43.43895" lon="-0.34839">
        <ele>163.2</ele>
        <time>2026-08-31T10:58:54Z</time>
      </trkpt>
      <trkpt lat="43.43894" lon="-0.34839">
        <ele>163.2</ele>
        <time>2026-08-31T10:58:55Z</time>
      </trkpt>
      <trkpt lat="43.43893" lon="-0.34838">
        <ele>162.2</ele>
        <time>2026-08-31T10:58:55Z</time>
      </trkpt>
      <trkpt lat="43.43893" lon="-0.34838">
        <ele>162.2</ele>
        <time>2026-08-31T10:58:56Z</time>
      </trkpt>
      <trkpt lat="43.43892" lon="-0.34838">
        <ele>162.2</ele>
        <time>2026-08-31T10:58:56Z</time>
      </trkpt>
      <trkpt lat="43.43892" lon="-0.34837">
        <ele>161.2</ele>
        <time>2026-08-31T10:58:57Z</time>
      </trkpt>
      <trkpt lat="43.43891" lon="-0.34836">
        <ele>161.2</ele>
        <time>2026-08-31T10:58:57Z</time>
      </trkpt>
      <trkpt lat="43.43891" lon="-0.34836">
        <ele>161.2</ele>
        <time>2026-08-31T10:58:58Z</time>
      </trkpt>
      <trkpt lat="43.4389" lon="-0.34835">
        <ele>161.2</ele>
        <time>2026-08-31T10:58:58Z</time>
      </trkpt>
      <trkpt lat="43.4389" lon="-0.34834">
        <ele>161.2</ele>
        <time>2026-08-31T10:58:59Z</time>
      </trkpt>
      <trkpt lat="43.43889" lon="-0.34833">
        <ele>161.2</ele>
        <time>2026-08-31T10:59:00Z</time>
      </trkpt>
      <trkpt lat="43.43889" lon="-0.34832">
        <ele>160.2</ele>
        <time>2026-08-31T10:59:00Z</time>
      </trkpt>
      <trkpt lat="43.43888" lon="-0.34831">
        <ele>160.2</ele>
        <time>2026-08-31T10:59:01Z</time>
      </trkpt>
      <trkpt lat="43.43888" lon="-0.34831">
        <ele>159.2</ele>
        <time>2026-08-31T10:59:01Z</time>
      </trkpt>
      <trkpt lat="43.43888" lon="-0.3483">
        <ele>159.2</ele>
        <time>2026-08-31T10:59:02Z</time>
      </trkpt>
      <trkpt lat="43.43887" lon="-0.34829">
        <ele>159.2</ele>
        <time>2026-08-31T10:59:02Z</time>
      </trkpt>
      <trkpt lat="43.43887" lon="-0.34828">
        <ele>160.2</ele>
        <time>2026-08-31T10:59:03Z</time>
      </trkpt>
      <trkpt lat="43.43886" lon="-0.34827">
        <ele>160.2</ele>
        <time>2026-08-31T10:59:03Z</time>
      </trkpt>
      <trkpt lat="43.43886" lon="-0.34827">
        <ele>159.2</ele>
        <time>2026-08-31T10:59:04Z</time>
      </trkpt>
      <trkpt lat="43.43886" lon="-0.34826">
        <ele>159.2</ele>
        <time>2026-08-31T10:59:05Z</time>
      </trkpt>
      <trkpt lat="43.43885" lon="-0.34825">
        <ele>159.2</ele>
        <time>2026-08-31T10:59:05Z</time>
      </trkpt>
      <trkpt lat="43.43885" lon="-0.34824">
        <ele>160.2</ele>
        <time>2026-08-31T10:59:06Z</time>
      </trkpt>
      <trkpt lat="43.43885" lon="-0.34823">
        <ele>160.2</ele>
        <time>2026-08-31T10:59:06Z</time>
      </trkpt>
      <trkpt lat="43.43884" lon="-0.34822">
        <ele>159.2</ele>
        <time>2026-08-31T10:59:07Z</time>
      </trkpt>
      <trkpt lat="43.43884" lon="-0.34821">
        <ele>159.2</ele>
        <time>2026-08-31T10:59:07Z</time>
      </trkpt>
      <trkpt lat="43.43884" lon="-0.34821">
        <ele>159.2</ele>
        <time>2026-08-31T10:59:08Z</time>
      </trkpt>
      <trkpt lat="43.43883" lon="-0.3482">
        <ele>159.2</ele>
        <time>2026-08-31T10:59:08Z</time>
      </trkpt>
      <trkpt lat="43.43882" lon="-0.34819">
        <ele>159.2</ele>
        <time>2026-08-31T10:59:09Z</time>
      </trkpt>
      <trkpt lat="43.43881" lon="-0.34819">
        <ele>159.2</ele>
        <time>2026-08-31T10:59:09Z</time>
      </trkpt>
      <trkpt lat="43.43881" lon="-0.34818">
        <ele>159.2</ele>
        <time>2026-08-31T10:59:10Z</time>
      </trkpt>
      <trkpt lat="43.4388" lon="-0.34818">
        <ele>159.2</ele>
        <time>2026-08-31T10:59:10Z</time>
      </trkpt>
      <trkpt lat="43.43879" lon="-0.34817">
        <ele>159.2</ele>
        <time>2026-08-31T10:59:11Z</time>
      </trkpt>
      <trkpt lat="43.43879" lon="-0.34817">
        <ele>159.2</ele>
        <time>2026-08-31T10:59:11Z</time>
      </trkpt>
      <trkpt lat="43.43878" lon="-0.34816">
        <ele>159.2</ele>
        <time>2026-08-31T10:59:12Z</time>
      </trkpt>
      <trkpt lat="43.43877" lon="-0.34816">
        <ele>159.2</ele>
        <time>2026-08-31T10:59:13Z</time>
      </trkpt>
      <trkpt lat="43.43877" lon="-0.34816">
        <ele>159.2</ele>
        <time>2026-08-31T10:59:13Z</time>
      </trkpt>
      <trkpt lat="43.43876" lon="-0.34815">
        <ele>159.2</ele>
        <time>2026-08-31T10:59:14Z</time>
      </trkpt>
      <trkpt lat="43.43875" lon="-0.34815">
        <ele>159.2</ele>
        <time>2026-08-31T10:59:14Z</time>
      </trkpt>
      <trkpt lat="43.43875" lon="-0.34815">
        <ele>159.2</ele>
        <time>2026-08-31T10:59:15Z</time>
      </trkpt>
      <trkpt lat="43.43874" lon="-0.34814">
        <ele>159.2</ele>
        <time>2026-08-31T10:59:15Z</time>
      </trkpt>
      <trkpt lat="43.43873" lon="-0.34814">
        <ele>159.2</ele>
        <time>2026-08-31T10:59:16Z</time>
      </trkpt>
      <trkpt lat="43.43872" lon="-0.34814">
        <ele>159.2</ele>
        <time>2026-08-31T10:59:16Z</time>
      </trkpt>
      <trkpt lat="43.43872" lon="-0.34813">
        <ele>159.2</ele>
        <time>2026-08-31T10:59:17Z</time>
      </trkpt>
      <trkpt lat="43.43871" lon="-0.34813">
        <ele>159.2</ele>
        <time>2026-08-31T10:59:18Z</time>
      </trkpt>
      <trkpt lat="43.4387" lon="-0.34813">
        <ele>160.2</ele>
        <time>2026-08-31T10:59:18Z</time>
      </trkpt>
      <trkpt lat="43.4387" lon="-0.34813">
        <ele>160.2</ele>
        <time>2026-08-31T10:59:19Z</time>
      </trkpt>
      <trkpt lat="43.43869" lon="-0.34812">
        <ele>160.2</ele>
        <time>2026-08-31T10:59:19Z</time>
      </trkpt>
      <trkpt lat="43.43868" lon="-0.34812">
        <ele>160.2</ele>
        <time>2026-08-31T10:59:20Z</time>
      </trkpt>
      <trkpt lat="43.43868" lon="-0.34812">
        <ele>160.2</ele>
        <time>2026-08-31T10:59:20Z</time>
      </trkpt>
      <trkpt lat="43.43867" lon="-0.34811">
        <ele>160.2</ele>
        <time>2026-08-31T10:59:21Z</time>
      </trkpt>
      <trkpt lat="43.43867" lon="-0.34811">
        <ele>160.2</ele>
        <time>2026-08-31T10:59:21Z</time>
      </trkpt>
      <trkpt lat="43.43866" lon="-0.34811">
        <ele>160.2</ele>
        <time>2026-08-31T10:59:22Z</time>
      </trkpt>
      <trkpt lat="43.43865" lon="-0.3481">
        <ele>160.2</ele>
        <time>2026-08-31T10:59:23Z</time>
      </trkpt>
      <trkpt lat="43.43865" lon="-0.3481">
        <ele>161.2</ele>
        <time>2026-08-31T10:59:23Z</time>
      </trkpt>
      <trkpt lat="43.43864" lon="-0.3481">
        <ele>161.2</ele>
        <time>2026-08-31T10:59:24Z</time>
      </trkpt>
      <trkpt lat="43.43863" lon="-0.34809">
        <ele>161.2</ele>
        <time>2026-08-31T10:59:24Z</time>
      </trkpt>
      <trkpt lat="43.43863" lon="-0.34809">
        <ele>161.2</ele>
        <time>2026-08-31T10:59:25Z</time>
      </trkpt>
      <trkpt lat="43.43862" lon="-0.34809">
        <ele>161.2</ele>
        <time>2026-08-31T10:59:25Z</time>
      </trkpt>
      <trkpt lat="43.43862" lon="-0.34808">
        <ele>161.2</ele>
        <time>2026-08-31T10:59:26Z</time>
      </trkpt>
      <trkpt lat="43.43861" lon="-0.34807">
        <ele>161.2</ele>
        <time>2026-08-31T10:59:26Z</time>
      </trkpt>
      <trkpt lat="43.43861" lon="-0.34807">
        <ele>161.2</ele>
        <time>2026-08-31T10:59:27Z</time>
      </trkpt>
      <trkpt lat="43.4386" lon="-0.34806">
        <ele>161.2</ele>
        <time>2026-08-31T10:59:27Z</time>
      </trkpt>
      <trkpt lat="43.4386" lon="-0.34806">
        <ele>161.2</ele>
        <time>2026-08-31T10:59:28Z</time>
      </trkpt>
      <trkpt lat="43.43859" lon="-0.34805">
        <ele>161.2</ele>
        <time>2026-08-31T10:59:29Z</time>
      </trkpt>
      <trkpt lat="43.43859" lon="-0.34804">
        <ele>161.2</ele>
        <time>2026-08-31T10:59:29Z</time>
      </trkpt>
      <trkpt lat="43.43858" lon="-0.34804">
        <ele>161.2</ele>
        <time>2026-08-31T10:59:30Z</time>
      </trkpt>
      <trkpt lat="43.43858" lon="-0.34803">
        <ele>161.2</ele>
        <time>2026-08-31T10:59:30Z</time>
      </trkpt>
      <trkpt lat="43.43857" lon="-0.34803">
        <ele>160.2</ele>
        <time>2026-08-31T10:59:31Z</time>
      </trkpt>
      <trkpt lat="43.43856" lon="-0.34802">
        <ele>160.2</ele>
        <time>2026-08-31T10:59:31Z</time>
      </trkpt>
      <trkpt lat="43.43856" lon="-0.34801">
        <ele>160.2</ele>
        <time>2026-08-31T10:59:32Z</time>
      </trkpt>
      <trkpt lat="43.43855" lon="-0.34801">
        <ele>160.2</ele>
        <time>2026-08-31T10:59:32Z</time>
      </trkpt>
      <trkpt lat="43.43855" lon="-0.348">
        <ele>161.2</ele>
        <time>2026-08-31T10:59:33Z</time>
      </trkpt>
      <trkpt lat="43.43854" lon="-0.34799">
        <ele>161.2</ele>
        <time>2026-08-31T10:59:33Z</time>
      </trkpt>
      <trkpt lat="43.43854" lon="-0.34798">
        <ele>161.2</ele>
        <time>2026-08-31T10:59:34Z</time>
      </trkpt>
      <trkpt lat="43.43853" lon="-0.34797">
        <ele>161.2</ele>
        <time>2026-08-31T10:59:35Z</time>
      </trkpt>
      <trkpt lat="43.43853" lon="-0.34797">
        <ele>161.2</ele>
        <time>2026-08-31T10:59:35Z</time>
      </trkpt>
      <trkpt lat="43.43853" lon="-0.34796">
        <ele>161.2</ele>
        <time>2026-08-31T10:59:36Z</time>
      </trkpt>
      <trkpt lat="43.43852" lon="-0.34795">
        <ele>161.2</ele>
        <time>2026-08-31T10:59:36Z</time>
      </trkpt>
      <trkpt lat="43.43852" lon="-0.34794">
        <ele>160.2</ele>
        <time>2026-08-31T10:59:37Z</time>
      </trkpt>
      <trkpt lat="43.43852" lon="-0.34793">
        <ele>160.2</ele>
        <time>2026-08-31T10:59:37Z</time>
      </trkpt>
      <trkpt lat="43.43851" lon="-0.34792">
        <ele>161.2</ele>
        <time>2026-08-31T10:59:38Z</time>
      </trkpt>
      <trkpt lat="43.43851" lon="-0.34791">
        <ele>161.2</ele>
        <time>2026-08-31T10:59:38Z</time>
      </trkpt>
      <trkpt lat="43.43851" lon="-0.3479">
        <ele>161.2</ele>
        <time>2026-08-31T10:59:39Z</time>
      </trkpt>
      <trkpt lat="43.4385" lon="-0.3479">
        <ele>161.2</ele>
        <time>2026-08-31T10:59:40Z</time>
      </trkpt>
      <trkpt lat="43.4385" lon="-0.34789">
        <ele>160.2</ele>
        <time>2026-08-31T10:59:40Z</time>
      </trkpt>
      <trkpt lat="43.4385" lon="-0.34788">
        <ele>160.2</ele>
        <time>2026-08-31T10:59:41Z</time>
      </trkpt>
      <trkpt lat="43.4385" lon="-0.34787">
        <ele>160.2</ele>
        <time>2026-08-31T10:59:41Z</time>
      </trkpt>
      <trkpt lat="43.43849" lon="-0.34786">
        <ele>160.2</ele>
        <time>2026-08-31T10:59:42Z</time>
      </trkpt>
      <trkpt lat="43.43849" lon="-0.34786">
        <ele>160.2</ele>
        <time>2026-08-31T10:59:42Z</time>
      </trkpt>
      <trkpt lat="43.43849" lon="-0.34785">
        <ele>160.2</ele>
        <time>2026-08-31T10:59:43Z</time>
      </trkpt>
      <trkpt lat="43.43848" lon="-0.34784">
        <ele>160.2</ele>
        <time>2026-08-31T10:59:43Z</time>
      </trkpt>
      <trkpt lat="43.43848" lon="-0.34783">
        <ele>161.2</ele>
        <time>2026-08-31T10:59:44Z</time>
      </trkpt>
      <trkpt lat="43.43847" lon="-0.34782">
        <ele>161.2</ele>
        <time>2026-08-31T10:59:44Z</time>
      </trkpt>
      <trkpt lat="43.43847" lon="-0.34782">
        <ele>161.2</ele>
        <time>2026-08-31T10:59:45Z</time>
      </trkpt>
      <trkpt lat="43.43847" lon="-0.34781">
        <ele>161.2</ele>
        <time>2026-08-31T10:59:46Z</time>
      </trkpt>
      <trkpt lat="43.43847" lon="-0.3478">
        <ele>161.2</ele>
        <time>2026-08-31T10:59:46Z</time>
      </trkpt>
      <trkpt lat="43.43846" lon="-0.34779">
        <ele>161.2</ele>
        <time>2026-08-31T10:59:47Z</time>
      </trkpt>
      <trkpt lat="43.43846" lon="-0.34779">
        <ele>161.2</ele>
        <time>2026-08-31T10:59:47Z</time>
      </trkpt>
      <trkpt lat="43.43846" lon="-0.34778">
        <ele>161.2</ele>
        <time>2026-08-31T10:59:48Z</time>
      </trkpt>
      <trkpt lat="43.43846" lon="-0.34777">
        <ele>160.2</ele>
        <time>2026-08-31T10:59:48Z</time>
      </trkpt>
      <trkpt lat="43.43845" lon="-0.34776">
        <ele>160.2</ele>
        <time>2026-08-31T10:59:49Z</time>
      </trkpt>
      <trkpt lat="43.43845" lon="-0.34775">
        <ele>160.2</ele>
        <time>2026-08-31T10:59:49Z</time>
      </trkpt>
      <trkpt lat="43.43845" lon="-0.34775">
        <ele>160.2</ele>
        <time>2026-08-31T10:59:50Z</time>
      </trkpt>
      <trkpt lat="43.43845" lon="-0.34774">
        <ele>160.2</ele>
        <time>2026-08-31T10:59:50Z</time>
      </trkpt>
      <trkpt lat="43.43844" lon="-0.34773">
        <ele>160.2</ele>
        <time>2026-08-31T10:59:51Z</time>
      </trkpt>
      <trkpt lat="43.43844" lon="-0.34772">
        <ele>160.2</ele>
        <time>2026-08-31T10:59:51Z</time>
      </trkpt>
      <trkpt lat="43.43844" lon="-0.34772">
        <ele>160.2</ele>
        <time>2026-08-31T10:59:52Z</time>
      </trkpt>
      <trkpt lat="43.43843" lon="-0.34771">
        <ele>160.2</ele>
        <time>2026-08-31T10:59:53Z</time>
      </trkpt>
      <trkpt lat="43.43843" lon="-0.3477">
        <ele>160.2</ele>
        <time>2026-08-31T10:59:53Z</time>
      </trkpt>
      <trkpt lat="43.43843" lon="-0.34769">
        <ele>160.2</ele>
        <time>2026-08-31T10:59:54Z</time>
      </trkpt>
      <trkpt lat="43.43842" lon="-0.34769">
        <ele>160.2</ele>
        <time>2026-08-31T10:59:54Z</time>
      </trkpt>
      <trkpt lat="43.43842" lon="-0.34768">
        <ele>160.2</ele>
        <time>2026-08-31T10:59:55Z</time>
      </trkpt>
      <trkpt lat="43.43841" lon="-0.34767">
        <ele>160.2</ele>
        <time>2026-08-31T10:59:55Z</time>
      </trkpt>
      <trkpt lat="43.43841" lon="-0.34766">
        <ele>160.2</ele>
        <time>2026-08-31T10:59:56Z</time>
      </trkpt>
      <trkpt lat="43.43841" lon="-0.34766">
        <ele>160.2</ele>
        <time>2026-08-31T10:59:56Z</time>
      </trkpt>
      <trkpt lat="43.4384" lon="-0.34765">
        <ele>160.2</ele>
        <time>2026-08-31T10:59:57Z</time>
      </trkpt>
      <trkpt lat="43.4384" lon="-0.34764">
        <ele>160.2</ele>
        <time>2026-08-31T10:59:57Z</time>
      </trkpt>
      <trkpt lat="43.43839" lon="-0.34764">
        <ele>160.2</ele>
        <time>2026-08-31T10:59:58Z</time>
      </trkpt>
      <trkpt lat="43.43839" lon="-0.34763">
        <ele>160.2</ele>
        <time>2026-08-31T10:59:58Z</time>
      </trkpt>
      <trkpt lat="43.43838" lon="-0.34763">
        <ele>159.2</ele>
        <time>2026-08-31T10:59:59Z</time>
      </trkpt>
      <trkpt lat="43.43838" lon="-0.34762">
        <ele>159.2</ele>
        <time>2026-08-31T10:59:59Z</time>
      </trkpt>
      <trkpt lat="43.43837" lon="-0.34761">
        <ele>159.2</ele>
        <time>2026-08-31T11:00:00Z</time>
      </trkpt>
      <trkpt lat="43.43837" lon="-0.34761">
        <ele>159.2</ele>
        <time>2026-08-31T11:00:01Z</time>
      </trkpt>
      <trkpt lat="43.43836" lon="-0.3476">
        <ele>160.2</ele>
        <time>2026-08-31T11:00:01Z</time>
      </trkpt>
      <trkpt lat="43.43836" lon="-0.34759">
        <ele>160.2</ele>
        <time>2026-08-31T11:00:02Z</time>
      </trkpt>
      <trkpt lat="43.43835" lon="-0.34759">
        <ele>160.2</ele>
        <time>2026-08-31T11:00:02Z</time>
      </trkpt>
      <trkpt lat="43.43834" lon="-0.34758">
        <ele>160.2</ele>
        <time>2026-08-31T11:00:03Z</time>
      </trkpt>
      <trkpt lat="43.43834" lon="-0.34757">
        <ele>160.2</ele>
        <time>2026-08-31T11:00:03Z</time>
      </trkpt>
      <trkpt lat="43.43833" lon="-0.34757">
        <ele>159.2</ele>
        <time>2026-08-31T11:00:04Z</time>
      </trkpt>
      <trkpt lat="43.43833" lon="-0.34756">
        <ele>159.2</ele>
        <time>2026-08-31T11:00:04Z</time>
      </trkpt>
      <trkpt lat="43.43832" lon="-0.34755">
        <ele>160.2</ele>
        <time>2026-08-31T11:00:05Z</time>
      </trkpt>
      <trkpt lat="43.43832" lon="-0.34754">
        <ele>160.2</ele>
        <time>2026-08-31T11:00:05Z</time>
      </trkpt>
      <trkpt lat="43.43831" lon="-0.34754">
        <ele>160.2</ele>
        <time>2026-08-31T11:00:06Z</time>
      </trkpt>
      <trkpt lat="43.43831" lon="-0.34753">
        <ele>160.2</ele>
        <time>2026-08-31T11:00:07Z</time>
      </trkpt>
      <trkpt lat="43.43831" lon="-0.34752">
        <ele>160.2</ele>
        <time>2026-08-31T11:00:07Z</time>
      </trkpt>
      <trkpt lat="43.4383" lon="-0.34752">
        <ele>159.2</ele>
        <time>2026-08-31T11:00:08Z</time>
      </trkpt>
      <trkpt lat="43.4383" lon="-0.34751">
        <ele>159.2</ele>
        <time>2026-08-31T11:00:08Z</time>
      </trkpt>
      <trkpt lat="43.43829" lon="-0.3475">
        <ele>159.2</ele>
        <time>2026-08-31T11:00:09Z</time>
      </trkpt>
      <trkpt lat="43.43829" lon="-0.3475">
        <ele>159.2</ele>
        <time>2026-08-31T11:00:09Z</time>
      </trkpt>
      <trkpt lat="43.43828" lon="-0.34749">
        <ele>160.2</ele>
        <time>2026-08-31T11:00:10Z</time>
      </trkpt>
      <trkpt lat="43.43828" lon="-0.34748">
        <ele>160.2</ele>
        <time>2026-08-31T11:00:10Z</time>
      </trkpt>
      <trkpt lat="43.43827" lon="-0.34748">
        <ele>160.2</ele>
        <time>2026-08-31T11:00:11Z</time>
      </trkpt>
      <trkpt lat="43.43827" lon="-0.34747">
        <ele>160.2</ele>
        <time>2026-08-31T11:00:12Z</time>
      </trkpt>
      <trkpt lat="43.43826" lon="-0.34746">
        <ele>159.2</ele>
        <time>2026-08-31T11:00:12Z</time>
      </trkpt>
      <trkpt lat="43.43826" lon="-0.34746">
        <ele>159.2</ele>
        <time>2026-08-31T11:00:13Z</time>
      </trkpt>
      <trkpt lat="43.43825" lon="-0.34745">
        <ele>160.2</ele>
        <time>2026-08-31T11:00:13Z</time>
      </trkpt>
      <trkpt lat="43.43824" lon="-0.34745">
        <ele>160.2</ele>
        <time>2026-08-31T11:00:14Z</time>
      </trkpt>
      <trkpt lat="43.43824" lon="-0.34744">
        <ele>160.2</ele>
        <time>2026-08-31T11:00:14Z</time>
      </trkpt>
      <trkpt lat="43.43823" lon="-0.34744">
        <ele>160.2</ele>
        <time>2026-08-31T11:00:15Z</time>
      </trkpt>
      <trkpt lat="43.43822" lon="-0.34743">
        <ele>160.2</ele>
        <time>2026-08-31T11:00:15Z</time>
      </trkpt>
      <trkpt lat="43.43822" lon="-0.34743">
        <ele>160.2</ele>
        <time>2026-08-31T11:00:16Z</time>
      </trkpt>
      <trkpt lat="43.43821" lon="-0.34742">
        <ele>160.2</ele>
        <time>2026-08-31T11:00:16Z</time>
      </trkpt>
      <trkpt lat="43.43821" lon="-0.34742">
        <ele>160.2</ele>
        <time>2026-08-31T11:00:17Z</time>
      </trkpt>
      <trkpt lat="43.4382" lon="-0.34741">
        <ele>160.2</ele>
        <time>2026-08-31T11:00:18Z</time>
      </trkpt>
      <trkpt lat="43.43819" lon="-0.34741">
        <ele>160.2</ele>
        <time>2026-08-31T11:00:18Z</time>
      </trkpt>
      <trkpt lat="43.43819" lon="-0.3474">
        <ele>160.2</ele>
        <time>2026-08-31T11:00:19Z</time>
      </trkpt>
      <trkpt lat="43.43818" lon="-0.3474">
        <ele>160.2</ele>
        <time>2026-08-31T11:00:19Z</time>
      </trkpt>
      <trkpt lat="43.43817" lon="-0.34739">
        <ele>160.2</ele>
        <time>2026-08-31T11:00:20Z</time>
      </trkpt>
      <trkpt lat="43.43817" lon="-0.34739">
        <ele>160.2</ele>
        <time>2026-08-31T11:00:20Z</time>
      </trkpt>
      <trkpt lat="43.43816" lon="-0.34738">
        <ele>161.2</ele>
        <time>2026-08-31T11:00:21Z</time>
      </trkpt>
      <trkpt lat="43.43815" lon="-0.34738">
        <ele>161.2</ele>
        <time>2026-08-31T11:00:21Z</time>
      </trkpt>
      <trkpt lat="43.43815" lon="-0.34737">
        <ele>161.2</ele>
        <time>2026-08-31T11:00:22Z</time>
      </trkpt>
      <trkpt lat="43.43814" lon="-0.34737">
        <ele>161.2</ele>
        <time>2026-08-31T11:00:22Z</time>
      </trkpt>
      <trkpt lat="43.43814" lon="-0.34737">
        <ele>161.2</ele>
        <time>2026-08-31T11:00:23Z</time>
      </trkpt>
      <trkpt lat="43.43813" lon="-0.34736">
        <ele>161.2</ele>
        <time>2026-08-31T11:00:24Z</time>
      </trkpt>
      <trkpt lat="43.43812" lon="-0.34736">
        <ele>162.2</ele>
        <time>2026-08-31T11:00:24Z</time>
      </trkpt>
      <trkpt lat="43.43811" lon="-0.34735">
        <ele>162.2</ele>
        <time>2026-08-31T11:00:25Z</time>
      </trkpt>
      <trkpt lat="43.43811" lon="-0.34735">
        <ele>162.2</ele>
        <time>2026-08-31T11:00:25Z</time>
      </trkpt>
      <trkpt lat="43.4381" lon="-0.34734">
        <ele>162.2</ele>
        <time>2026-08-31T11:00:26Z</time>
      </trkpt>
      <trkpt lat="43.43809" lon="-0.34734">
        <ele>162.2</ele>
        <time>2026-08-31T11:00:26Z</time>
      </trkpt>
      <trkpt lat="43.43808" lon="-0.34733">
        <ele>162.2</ele>
        <time>2026-08-31T11:00:27Z</time>
      </trkpt>
      <trkpt lat="43.43808" lon="-0.34733">
        <ele>162.2</ele>
        <time>2026-08-31T11:00:27Z</time>
      </trkpt>
      <trkpt lat="43.43807" lon="-0.34733">
        <ele>162.2</ele>
        <time>2026-08-31T11:00:28Z</time>
      </trkpt>
      <trkpt lat="43.43806" lon="-0.34732">
        <ele>162.2</ele>
        <time>2026-08-31T11:00:28Z</time>
      </trkpt>
      <trkpt lat="43.43805" lon="-0.34732">
        <ele>162.2</ele>
        <time>2026-08-31T11:00:29Z</time>
      </trkpt>
      <trkpt lat="43.43805" lon="-0.34731">
        <ele>162.2</ele>
        <time>2026-08-31T11:00:29Z</time>
      </trkpt>
      <trkpt lat="43.43804" lon="-0.34731">
        <ele>163.2</ele>
        <time>2026-08-31T11:00:30Z</time>
      </trkpt>
      <trkpt lat="43.43803" lon="-0.34731">
        <ele>163.2</ele>
        <time>2026-08-31T11:00:31Z</time>
      </trkpt>
      <trkpt lat="43.43802" lon="-0.34731">
        <ele>162.2</ele>
        <time>2026-08-31T11:00:31Z</time>
      </trkpt>
      <trkpt lat="43.43801" lon="-0.34731">
        <ele>162.2</ele>
        <time>2026-08-31T11:00:32Z</time>
      </trkpt>
      <trkpt lat="43.438" lon="-0.34731">
        <ele>162.2</ele>
        <time>2026-08-31T11:00:32Z</time>
      </trkpt>
      <trkpt lat="43.43799" lon="-0.3473">
        <ele>162.2</ele>
        <time>2026-08-31T11:00:33Z</time>
      </trkpt>
      <trkpt lat="43.43799" lon="-0.3473">
        <ele>162.2</ele>
        <time>2026-08-31T11:00:33Z</time>
      </trkpt>
      <trkpt lat="43.43798" lon="-0.3473">
        <ele>162.2</ele>
        <time>2026-08-31T11:00:34Z</time>
      </trkpt>
      <trkpt lat="43.43797" lon="-0.34729">
        <ele>162.2</ele>
        <time>2026-08-31T11:00:34Z</time>
      </trkpt>
      <trkpt lat="43.43796" lon="-0.34729">
        <ele>163.2</ele>
        <time>2026-08-31T11:00:35Z</time>
      </trkpt>
      <trkpt lat="43.43796" lon="-0.34728">
        <ele>163.2</ele>
        <time>2026-08-31T11:00:35Z</time>
      </trkpt>
      <trkpt lat="43.43795" lon="-0.34728">
        <ele>163.2</ele>
        <time>2026-08-31T11:00:36Z</time>
      </trkpt>
      <trkpt lat="43.43794" lon="-0.34727">
        <ele>163.2</ele>
        <time>2026-08-31T11:00:36Z</time>
      </trkpt>
      <trkpt lat="43.43793" lon="-0.34727">
        <ele>164.2</ele>
        <time>2026-08-31T11:00:37Z</time>
      </trkpt>
      <trkpt lat="43.43793" lon="-0.34726">
        <ele>164.2</ele>
        <time>2026-08-31T11:00:38Z</time>
      </trkpt>
      <trkpt lat="43.43792" lon="-0.34725">
        <ele>164.2</ele>
        <time>2026-08-31T11:00:38Z</time>
      </trkpt>
      <trkpt lat="43.43791" lon="-0.34725">
        <ele>164.2</ele>
        <time>2026-08-31T11:00:39Z</time>
      </trkpt>
      <trkpt lat="43.4379" lon="-0.34724">
        <ele>164.2</ele>
        <time>2026-08-31T11:00:39Z</time>
      </trkpt>
      <trkpt lat="43.43789" lon="-0.34724">
        <ele>164.2</ele>
        <time>2026-08-31T11:00:40Z</time>
      </trkpt>
      <trkpt lat="43.43788" lon="-0.34723">
        <ele>164.2</ele>
        <time>2026-08-31T11:00:40Z</time>
      </trkpt>
      <trkpt lat="43.43787" lon="-0.34723">
        <ele>165.2</ele>
        <time>2026-08-31T11:00:41Z</time>
      </trkpt>
      <trkpt lat="43.43787" lon="-0.34722">
        <ele>165.2</ele>
        <time>2026-08-31T11:00:41Z</time>
      </trkpt>
      <trkpt lat="43.43786" lon="-0.34722">
        <ele>165.2</ele>
        <time>2026-08-31T11:00:42Z</time>
      </trkpt>
      <trkpt lat="43.43785" lon="-0.34721">
        <ele>165.2</ele>
        <time>2026-08-31T11:00:43Z</time>
      </trkpt>
      <trkpt lat="43.43784" lon="-0.3472">
        <ele>165.2</ele>
        <time>2026-08-31T11:00:43Z</time>
      </trkpt>
      <trkpt lat="43.43784" lon="-0.34719">
        <ele>165.2</ele>
        <time>2026-08-31T11:00:44Z</time>
      </trkpt>
      <trkpt lat="43.43783" lon="-0.34719">
        <ele>165.2</ele>
        <time>2026-08-31T11:00:44Z</time>
      </trkpt>
      <trkpt lat="43.43782" lon="-0.34718">
        <ele>165.2</ele>
        <time>2026-08-31T11:00:45Z</time>
      </trkpt>
      <trkpt lat="43.43782" lon="-0.34717">
        <ele>165.2</ele>
        <time>2026-08-31T11:00:45Z</time>
      </trkpt>
      <trkpt lat="43.43781" lon="-0.34717">
        <ele>165.2</ele>
        <time>2026-08-31T11:00:46Z</time>
      </trkpt>
      <trkpt lat="43.4378" lon="-0.34716">
        <ele>165.2</ele>
        <time>2026-08-31T11:00:46Z</time>
      </trkpt>
      <trkpt lat="43.4378" lon="-0.34715">
        <ele>165.2</ele>
        <time>2026-08-31T11:00:47Z</time>
      </trkpt>
      <trkpt lat="43.43779" lon="-0.34715">
        <ele>165.2</ele>
        <time>2026-08-31T11:00:47Z</time>
      </trkpt>
      <trkpt lat="43.43779" lon="-0.34714">
        <ele>165.2</ele>
        <time>2026-08-31T11:00:48Z</time>
      </trkpt>
      <trkpt lat="43.43778" lon="-0.34713">
        <ele>165.2</ele>
        <time>2026-08-31T11:00:49Z</time>
      </trkpt>
      <trkpt lat="43.43778" lon="-0.34712">
        <ele>165.2</ele>
        <time>2026-08-31T11:00:49Z</time>
      </trkpt>
      <trkpt lat="43.43777" lon="-0.34712">
        <ele>165.2</ele>
        <time>2026-08-31T11:00:50Z</time>
      </trkpt>
      <trkpt lat="43.43776" lon="-0.34711">
        <ele>164.2</ele>
        <time>2026-08-31T11:00:50Z</time>
      </trkpt>
      <trkpt lat="43.43776" lon="-0.3471">
        <ele>165.2</ele>
        <time>2026-08-31T11:00:51Z</time>
      </trkpt>
      <trkpt lat="43.43775" lon="-0.34709">
        <ele>165.2</ele>
        <time>2026-08-31T11:00:51Z</time>
      </trkpt>
      <trkpt lat="43.43775" lon="-0.34708">
        <ele>165.2</ele>
        <time>2026-08-31T11:00:52Z</time>
      </trkpt>
      <trkpt lat="43.43774" lon="-0.34708">
        <ele>165.2</ele>
        <time>2026-08-31T11:00:52Z</time>
      </trkpt>
      <trkpt lat="43.43774" lon="-0.34707">
        <ele>164.2</ele>
        <time>2026-08-31T11:00:53Z</time>
      </trkpt>
      <trkpt lat="43.43773" lon="-0.34706">
        <ele>164.2</ele>
        <time>2026-08-31T11:00:53Z</time>
      </trkpt>
      <trkpt lat="43.43773" lon="-0.34706">
        <ele>164.2</ele>
        <time>2026-08-31T11:00:54Z</time>
      </trkpt>
      <trkpt lat="43.43772" lon="-0.34705">
        <ele>164.2</ele>
        <time>2026-08-31T11:00:55Z</time>
      </trkpt>
      <trkpt lat="43.43772" lon="-0.34704">
        <ele>164.2</ele>
        <time>2026-08-31T11:00:55Z</time>
      </trkpt>
      <trkpt lat="43.43771" lon="-0.34704">
        <ele>164.2</ele>
        <time>2026-08-31T11:00:56Z</time>
      </trkpt>
      <trkpt lat="43.4377" lon="-0.34703">
        <ele>165.2</ele>
        <time>2026-08-31T11:00:56Z</time>
      </trkpt>
      <trkpt lat="43.4377" lon="-0.34702">
        <ele>165.2</ele>
        <time>2026-08-31T11:00:57Z</time>
      </trkpt>
      <trkpt lat="43.43769" lon="-0.34702">
        <ele>165.2</ele>
        <time>2026-08-31T11:00:57Z</time>
      </trkpt>
      <trkpt lat="43.43769" lon="-0.34701">
        <ele>165.2</ele>
        <time>2026-08-31T11:00:58Z</time>
      </trkpt>
      <trkpt lat="43.43768" lon="-0.347">
        <ele>165.2</ele>
        <time>2026-08-31T11:00:58Z</time>
      </trkpt>
      <trkpt lat="43.43768" lon="-0.347">
        <ele>165.2</ele>
        <time>2026-08-31T11:00:59Z</time>
      </trkpt>
      <trkpt lat="43.43767" lon="-0.34699">
        <ele>165.2</ele>
        <time>2026-08-31T11:00:59Z</time>
      </trkpt>
      <trkpt lat="43.43767" lon="-0.34698">
        <ele>165.2</ele>
        <time>2026-08-31T11:01:00Z</time>
      </trkpt>
      <trkpt lat="43.43766" lon="-0.34697">
        <ele>165.2</ele>
        <time>2026-08-31T11:01:00Z</time>
      </trkpt>
      <trkpt lat="43.43766" lon="-0.34696">
        <ele>165.2</ele>
        <time>2026-08-31T11:01:01Z</time>
      </trkpt>
      <trkpt lat="43.43765" lon="-0.34695">
        <ele>165.2</ele>
        <time>2026-08-31T11:01:02Z</time>
      </trkpt>
      <trkpt lat="43.43765" lon="-0.34695">
        <ele>165.2</ele>
        <time>2026-08-31T11:01:02Z</time>
      </trkpt>
      <trkpt lat="43.43765" lon="-0.34694">
        <ele>165.2</ele>
        <time>2026-08-31T11:01:03Z</time>
      </trkpt>
      <trkpt lat="43.43764" lon="-0.34693">
        <ele>165.2</ele>
        <time>2026-08-31T11:01:03Z</time>
      </trkpt>
      <trkpt lat="43.43764" lon="-0.34693">
        <ele>166.2</ele>
        <time>2026-08-31T11:01:04Z</time>
      </trkpt>
      <trkpt lat="43.43763" lon="-0.34692">
        <ele>166.2</ele>
        <time>2026-08-31T11:01:04Z</time>
      </trkpt>
      <trkpt lat="43.43763" lon="-0.34691">
        <ele>165.2</ele>
        <time>2026-08-31T11:01:05Z</time>
      </trkpt>
      <trkpt lat="43.43763" lon="-0.3469">
        <ele>165.2</ele>
        <time>2026-08-31T11:01:05Z</time>
      </trkpt>
      <trkpt lat="43.43762" lon="-0.3469">
        <ele>165.2</ele>
        <time>2026-08-31T11:01:06Z</time>
      </trkpt>
      <trkpt lat="43.43762" lon="-0.34689">
        <ele>165.2</ele>
        <time>2026-08-31T11:01:07Z</time>
      </trkpt>
      <trkpt lat="43.43762" lon="-0.34688">
        <ele>165.2</ele>
        <time>2026-08-31T11:01:07Z</time>
      </trkpt>
      <trkpt lat="43.43761" lon="-0.34687">
        <ele>165.2</ele>
        <time>2026-08-31T11:01:08Z</time>
      </trkpt>
      <trkpt lat="43.43761" lon="-0.34687">
        <ele>165.2</ele>
        <time>2026-08-31T11:01:08Z</time>
      </trkpt>
      <trkpt lat="43.43761" lon="-0.34686">
        <ele>165.2</ele>
        <time>2026-08-31T11:01:09Z</time>
      </trkpt>
      <trkpt lat="43.43761" lon="-0.34685">
        <ele>165.2</ele>
        <time>2026-08-31T11:01:09Z</time>
      </trkpt>
      <trkpt lat="43.43761" lon="-0.34684">
        <ele>165.2</ele>
        <time>2026-08-31T11:01:10Z</time>
      </trkpt>
      <trkpt lat="43.4376" lon="-0.34683">
        <ele>165.2</ele>
        <time>2026-08-31T11:01:10Z</time>
      </trkpt>
      <trkpt lat="43.4376" lon="-0.34683">
        <ele>166.2</ele>
        <time>2026-08-31T11:01:11Z</time>
      </trkpt>
      <trkpt lat="43.4376" lon="-0.34682">
        <ele>166.2</ele>
        <time>2026-08-31T11:01:12Z</time>
      </trkpt>
      <trkpt lat="43.4376" lon="-0.34681">
        <ele>166.2</ele>
        <time>2026-08-31T11:01:12Z</time>
      </trkpt>
      <trkpt lat="43.4376" lon="-0.3468">
        <ele>165.2</ele>
        <time>2026-08-31T11:01:13Z</time>
      </trkpt>
      <trkpt lat="43.43759" lon="-0.34679">
        <ele>165.2</ele>
        <time>2026-08-31T11:01:13Z</time>
      </trkpt>
      <trkpt lat="43.43759" lon="-0.34679">
        <ele>166.2</ele>
        <time>2026-08-31T11:01:14Z</time>
      </trkpt>
      <trkpt lat="43.43759" lon="-0.34678">
        <ele>166.2</ele>
        <time>2026-08-31T11:01:14Z</time>
      </trkpt>
      <trkpt lat="43.43759" lon="-0.34677">
        <ele>166.2</ele>
        <time>2026-08-31T11:01:15Z</time>
      </trkpt>
      <trkpt lat="43.43758" lon="-0.34676">
        <ele>166.2</ele>
        <time>2026-08-31T11:01:15Z</time>
      </trkpt>
      <trkpt lat="43.43758" lon="-0.34675">
        <ele>166.2</ele>
        <time>2026-08-31T11:01:16Z</time>
      </trkpt>
      <trkpt lat="43.43758" lon="-0.34674">
        <ele>166.2</ele>
        <time>2026-08-31T11:01:16Z</time>
      </trkpt>
      <trkpt lat="43.43758" lon="-0.34673">
        <ele>165.2</ele>
        <time>2026-08-31T11:01:17Z</time>
      </trkpt>
      <trkpt lat="43.43758" lon="-0.34672">
        <ele>165.2</ele>
        <time>2026-08-31T11:01:18Z</time>
      </trkpt>
      <trkpt lat="43.43757" lon="-0.34672">
        <ele>165.2</ele>
        <time>2026-08-31T11:01:18Z</time>
      </trkpt>
      <trkpt lat="43.43757" lon="-0.34671">
        <ele>165.2</ele>
        <time>2026-08-31T11:01:19Z</time>
      </trkpt>
      <trkpt lat="43.43757" lon="-0.3467">
        <ele>165.2</ele>
        <time>2026-08-31T11:01:19Z</time>
      </trkpt>
      <trkpt lat="43.43757" lon="-0.34669">
        <ele>165.2</ele>
        <time>2026-08-31T11:01:20Z</time>
      </trkpt>
      <trkpt lat="43.43756" lon="-0.34669">
        <ele>165.2</ele>
        <time>2026-08-31T11:01:20Z</time>
      </trkpt>
      <trkpt lat="43.43756" lon="-0.34668">
        <ele>165.2</ele>
        <time>2026-08-31T11:01:21Z</time>
      </trkpt>
      <trkpt lat="43.43756" lon="-0.34667">
        <ele>165.2</ele>
        <time>2026-08-31T11:01:21Z</time>
      </trkpt>
      <trkpt lat="43.43755" lon="-0.34667">
        <ele>165.2</ele>
        <time>2026-08-31T11:01:22Z</time>
      </trkpt>
      <trkpt lat="43.43755" lon="-0.34666">
        <ele>165.2</ele>
        <time>2026-08-31T11:01:23Z</time>
      </trkpt>
      <trkpt lat="43.43754" lon="-0.34665">
        <ele>165.2</ele>
        <time>2026-08-31T11:01:23Z</time>
      </trkpt>
      <trkpt lat="43.43754" lon="-0.34665">
        <ele>165.2</ele>
        <time>2026-08-31T11:01:24Z</time>
      </trkpt>
      <trkpt lat="43.43753" lon="-0.34664">
        <ele>165.2</ele>
        <time>2026-08-31T11:01:24Z</time>
      </trkpt>
      <trkpt lat="43.43753" lon="-0.34664">
        <ele>165.2</ele>
        <time>2026-08-31T11:01:25Z</time>
      </trkpt>
      <trkpt lat="43.43752" lon="-0.34664">
        <ele>165.2</ele>
        <time>2026-08-31T11:01:25Z</time>
      </trkpt>
      <trkpt lat="43.43751" lon="-0.34663">
        <ele>166.2</ele>
        <time>2026-08-31T11:01:26Z</time>
      </trkpt>
      <trkpt lat="43.43751" lon="-0.34663">
        <ele>166.2</ele>
        <time>2026-08-31T11:01:26Z</time>
      </trkpt>
      <trkpt lat="43.4375" lon="-0.34662">
        <ele>165.2</ele>
        <time>2026-08-31T11:01:27Z</time>
      </trkpt>
      <trkpt lat="43.4375" lon="-0.34662">
        <ele>165.2</ele>
        <time>2026-08-31T11:01:28Z</time>
      </trkpt>
      <trkpt lat="43.43749" lon="-0.34661">
        <ele>166.2</ele>
        <time>2026-08-31T11:01:28Z</time>
      </trkpt>
      <trkpt lat="43.43748" lon="-0.34661">
        <ele>166.2</ele>
        <time>2026-08-31T11:01:29Z</time>
      </trkpt>
      <trkpt lat="43.43748" lon="-0.3466">
        <ele>167.2</ele>
        <time>2026-08-31T11:01:29Z</time>
      </trkpt>
      <trkpt lat="43.43747" lon="-0.3466">
        <ele>167.2</ele>
        <time>2026-08-31T11:01:30Z</time>
      </trkpt>
      <trkpt lat="43.43747" lon="-0.34659">
        <ele>167.2</ele>
        <time>2026-08-31T11:01:30Z</time>
      </trkpt>
      <trkpt lat="43.43746" lon="-0.34659">
        <ele>167.2</ele>
        <time>2026-08-31T11:01:31Z</time>
      </trkpt>
      <trkpt lat="43.43745" lon="-0.34658">
        <ele>167.2</ele>
        <time>2026-08-31T11:01:31Z</time>
      </trkpt>
      <trkpt lat="43.43744" lon="-0.34658">
        <ele>167.2</ele>
        <time>2026-08-31T11:01:32Z</time>
      </trkpt>
      <trkpt lat="43.43744" lon="-0.34657">
        <ele>167.2</ele>
        <time>2026-08-31T11:01:32Z</time>
      </trkpt>
      <trkpt lat="43.43743" lon="-0.34657">
        <ele>167.2</ele>
        <time>2026-08-31T11:01:33Z</time>
      </trkpt>
      <trkpt lat="43.43742" lon="-0.34656">
        <ele>167.2</ele>
        <time>2026-08-31T11:01:33Z</time>
      </trkpt>
      <trkpt lat="43.43742" lon="-0.34656">
        <ele>168.2</ele>
        <time>2026-08-31T11:01:34Z</time>
      </trkpt>
      <trkpt lat="43.43741" lon="-0.34655">
        <ele>168.2</ele>
        <time>2026-08-31T11:01:35Z</time>
      </trkpt>
      <trkpt lat="43.4374" lon="-0.34655">
        <ele>168.2</ele>
        <time>2026-08-31T11:01:35Z</time>
      </trkpt>
      <trkpt lat="43.43739" lon="-0.34654">
        <ele>168.2</ele>
        <time>2026-08-31T11:01:36Z</time>
      </trkpt>
      <trkpt lat="43.43739" lon="-0.34654">
        <ele>168.2</ele>
        <time>2026-08-31T11:01:36Z</time>
      </trkpt>
      <trkpt lat="43.43738" lon="-0.34653">
        <ele>168.2</ele>
        <time>2026-08-31T11:01:37Z</time>
      </trkpt>
      <trkpt lat="43.43737" lon="-0.34653">
        <ele>168.2</ele>
        <time>2026-08-31T11:01:37Z</time>
      </trkpt>
      <trkpt lat="43.43736" lon="-0.34652">
        <ele>168.2</ele>
        <time>2026-08-31T11:01:38Z</time>
      </trkpt>
      <trkpt lat="43.43736" lon="-0.34652">
        <ele>168.2</ele>
        <time>2026-08-31T11:01:38Z</time>
      </trkpt>
      <trkpt lat="43.43735" lon="-0.34651">
        <ele>168.2</ele>
        <time>2026-08-31T11:01:39Z</time>
      </trkpt>
      <trkpt lat="43.43734" lon="-0.34651">
        <ele>168.2</ele>
        <time>2026-08-31T11:01:39Z</time>
      </trkpt>
      <trkpt lat="43.43733" lon="-0.3465">
        <ele>168.2</ele>
        <time>2026-08-31T11:01:40Z</time>
      </trkpt>
      <trkpt lat="43.43733" lon="-0.3465">
        <ele>168.2</ele>
        <time>2026-08-31T11:01:40Z</time>
      </trkpt>
      <trkpt lat="43.43732" lon="-0.34649">
        <ele>169.2</ele>
        <time>2026-08-31T11:01:41Z</time>
      </trkpt>
      <trkpt lat="43.43731" lon="-0.34649">
        <ele>169.2</ele>
        <time>2026-08-31T11:01:41Z</time>
      </trkpt>
      <trkpt lat="43.4373" lon="-0.34648">
        <ele>169.2</ele>
        <time>2026-08-31T11:01:42Z</time>
      </trkpt>
      <trkpt lat="43.4373" lon="-0.34647">
        <ele>169.2</ele>
        <time>2026-08-31T11:01:43Z</time>
      </trkpt>
      <trkpt lat="43.43729" lon="-0.34646">
        <ele>169.2</ele>
        <time>2026-08-31T11:01:43Z</time>
      </trkpt>
      <trkpt lat="43.43728" lon="-0.34646">
        <ele>169.2</ele>
        <time>2026-08-31T11:01:44Z</time>
      </trkpt>
      <trkpt lat="43.43728" lon="-0.34645">
        <ele>169.2</ele>
        <time>2026-08-31T11:01:44Z</time>
      </trkpt>
      <trkpt lat="43.43727" lon="-0.34644">
        <ele>169.2</ele>
        <time>2026-08-31T11:01:45Z</time>
      </trkpt>
      <trkpt lat="43.43727" lon="-0.34644">
        <ele>168.2</ele>
        <time>2026-08-31T11:01:45Z</time>
      </trkpt>
      <trkpt lat="43.43726" lon="-0.34643">
        <ele>168.2</ele>
        <time>2026-08-31T11:01:46Z</time>
      </trkpt>
      <trkpt lat="43.43725" lon="-0.34642">
        <ele>168.2</ele>
        <time>2026-08-31T11:01:46Z</time>
      </trkpt>
      <trkpt lat="43.43725" lon="-0.34642">
        <ele>168.2</ele>
        <time>2026-08-31T11:01:47Z</time>
      </trkpt>
      <trkpt lat="43.43724" lon="-0.34641">
        <ele>168.2</ele>
        <time>2026-08-31T11:01:47Z</time>
      </trkpt>
      <trkpt lat="43.43724" lon="-0.3464">
        <ele>168.2</ele>
        <time>2026-08-31T11:01:48Z</time>
      </trkpt>
      <trkpt lat="43.43723" lon="-0.34639">
        <ele>168.2</ele>
        <time>2026-08-31T11:01:48Z</time>
      </trkpt>
      <trkpt lat="43.43722" lon="-0.34638">
        <ele>168.2</ele>
        <time>2026-08-31T11:01:49Z</time>
      </trkpt>
      <trkpt lat="43.43722" lon="-0.34638">
        <ele>168.2</ele>
        <time>2026-08-31T11:01:49Z</time>
      </trkpt>
      <trkpt lat="43.43721" lon="-0.34637">
        <ele>168.2</ele>
        <time>2026-08-31T11:01:50Z</time>
      </trkpt>
      <trkpt lat="43.43721" lon="-0.34636">
        <ele>168.2</ele>
        <time>2026-08-31T11:01:51Z</time>
      </trkpt>
      <trkpt lat="43.4372" lon="-0.34636">
        <ele>168.2</ele>
        <time>2026-08-31T11:01:51Z</time>
      </trkpt>
      <trkpt lat="43.4372" lon="-0.34635">
        <ele>168.2</ele>
        <time>2026-08-31T11:01:52Z</time>
      </trkpt>
      <trkpt lat="43.43719" lon="-0.34634">
        <ele>167.2</ele>
        <time>2026-08-31T11:01:52Z</time>
      </trkpt>
      <trkpt lat="43.43719" lon="-0.34633">
        <ele>168.2</ele>
        <time>2026-08-31T11:01:53Z</time>
      </trkpt>
      <trkpt lat="43.43718" lon="-0.34633">
        <ele>168.2</ele>
        <time>2026-08-31T11:01:53Z</time>
      </trkpt>
      <trkpt lat="43.43718" lon="-0.34632">
        <ele>168.2</ele>
        <time>2026-08-31T11:01:54Z</time>
      </trkpt>
      <trkpt lat="43.43717" lon="-0.34631">
        <ele>168.2</ele>
        <time>2026-08-31T11:01:54Z</time>
      </trkpt>
      <trkpt lat="43.43717" lon="-0.3463">
        <ele>167.2</ele>
        <time>2026-08-31T11:01:55Z</time>
      </trkpt>
      <trkpt lat="43.43716" lon="-0.34629">
        <ele>167.2</ele>
        <time>2026-08-31T11:01:55Z</time>
      </trkpt>
      <trkpt lat="43.43716" lon="-0.34629">
        <ele>167.2</ele>
        <time>2026-08-31T11:01:56Z</time>
      </trkpt>
      <trkpt lat="43.43716" lon="-0.34628">
        <ele>167.2</ele>
        <time>2026-08-31T11:01:56Z</time>
      </trkpt>
      <trkpt lat="43.43715" lon="-0.34627">
        <ele>167.2</ele>
        <time>2026-08-31T11:01:57Z</time>
      </trkpt>
      <trkpt lat="43.43715" lon="-0.34626">
        <ele>167.2</ele>
        <time>2026-08-31T11:01:58Z</time>
      </trkpt>
      <trkpt lat="43.43715" lon="-0.34625">
        <ele>167.2</ele>
        <time>2026-08-31T11:01:58Z</time>
      </trkpt>
      <trkpt lat="43.43714" lon="-0.34624">
        <ele>167.2</ele>
        <time>2026-08-31T11:01:59Z</time>
      </trkpt>
      <trkpt lat="43.43714" lon="-0.34624">
        <ele>167.2</ele>
        <time>2026-08-31T11:01:59Z</time>
      </trkpt>
      <trkpt lat="43.43713" lon="-0.34623">
        <ele>167.2</ele>
        <time>2026-08-31T11:02:00Z</time>
      </trkpt>
      <trkpt lat="43.43713" lon="-0.34622">
        <ele>167.2</ele>
        <time>2026-08-31T11:02:00Z</time>
      </trkpt>
      <trkpt lat="43.43712" lon="-0.34622">
        <ele>167.2</ele>
        <time>2026-08-31T11:02:01Z</time>
      </trkpt>
      <trkpt lat="43.43712" lon="-0.34621">
        <ele>167.2</ele>
        <time>2026-08-31T11:02:01Z</time>
      </trkpt>
      <trkpt lat="43.43711" lon="-0.34621">
        <ele>166.2</ele>
        <time>2026-08-31T11:02:02Z</time>
      </trkpt>
      <trkpt lat="43.43711" lon="-0.3462">
        <ele>166.2</ele>
        <time>2026-08-31T11:02:02Z</time>
      </trkpt>
      <trkpt lat="43.4371" lon="-0.34619">
        <ele>167.2</ele>
        <time>2026-08-31T11:02:03Z</time>
      </trkpt>
      <trkpt lat="43.4371" lon="-0.34618">
        <ele>167.2</ele>
        <time>2026-08-31T11:02:03Z</time>
      </trkpt>
      <trkpt lat="43.43709" lon="-0.34618">
        <ele>168.2</ele>
        <time>2026-08-31T11:02:04Z</time>
      </trkpt>
      <trkpt lat="43.43708" lon="-0.34617">
        <ele>168.2</ele>
        <time>2026-08-31T11:02:05Z</time>
      </trkpt>
      <trkpt lat="43.43708" lon="-0.34617">
        <ele>168.2</ele>
        <time>2026-08-31T11:02:05Z</time>
      </trkpt>
      <trkpt lat="43.43707" lon="-0.34616">
        <ele>168.2</ele>
        <time>2026-08-31T11:02:06Z</time>
      </trkpt>
      <trkpt lat="43.43706" lon="-0.34616">
        <ele>168.2</ele>
        <time>2026-08-31T11:02:06Z</time>
      </trkpt>
      <trkpt lat="43.43705" lon="-0.34615">
        <ele>169.2</ele>
        <time>2026-08-31T11:02:07Z</time>
      </trkpt>
      <trkpt lat="43.43705" lon="-0.34615">
        <ele>169.2</ele>
        <time>2026-08-31T11:02:07Z</time>
      </trkpt>
      <trkpt lat="43.43704" lon="-0.34615">
        <ele>169.2</ele>
        <time>2026-08-31T11:02:08Z</time>
      </trkpt>
      <trkpt lat="43.43703" lon="-0.34614">
        <ele>169.2</ele>
        <time>2026-08-31T11:02:08Z</time>
      </trkpt>
      <trkpt lat="43.43702" lon="-0.34614">
        <ele>169.2</ele>
        <time>2026-08-31T11:02:09Z</time>
      </trkpt>
      <trkpt lat="43.43701" lon="-0.34614">
        <ele>169.2</ele>
        <time>2026-08-31T11:02:09Z</time>
      </trkpt>
      <trkpt lat="43.43701" lon="-0.34614">
        <ele>169.2</ele>
        <time>2026-08-31T11:02:10Z</time>
      </trkpt>
      <trkpt lat="43.437" lon="-0.34613">
        <ele>169.2</ele>
        <time>2026-08-31T11:02:11Z</time>
      </trkpt>
      <trkpt lat="43.43699" lon="-0.34613">
        <ele>168.2</ele>
        <time>2026-08-31T11:02:11Z</time>
      </trkpt>
      <trkpt lat="43.43698" lon="-0.34612">
        <ele>168.2</ele>
        <time>2026-08-31T11:02:12Z</time>
      </trkpt>
      <trkpt lat="43.43698" lon="-0.34612">
        <ele>167.2</ele>
        <time>2026-08-31T11:02:12Z</time>
      </trkpt>
      <trkpt lat="43.43698" lon="-0.34612">
        <ele>167.2</ele>
        <time>2026-08-31T11:02:13Z</time>
      </trkpt>
      <trkpt lat="43.43697" lon="-0.34611">
        <ele>167.2</ele>
        <time>2026-08-31T11:02:13Z</time>
      </trkpt>
      <trkpt lat="43.43697" lon="-0.34611">
        <ele>167.2</ele>
        <time>2026-08-31T11:02:14Z</time>
      </trkpt>
      <trkpt lat="43.43696" lon="-0.3461">
        <ele>167.2</ele>
        <time>2026-08-31T11:02:14Z</time>
      </trkpt>
      <trkpt lat="43.43696" lon="-0.3461">
        <ele>167.2</ele>
        <time>2026-08-31T11:02:15Z</time>
      </trkpt>
      <trkpt lat="43.43695" lon="-0.34609">
        <ele>167.2</ele>
        <time>2026-08-31T11:02:15Z</time>
      </trkpt>
      <trkpt lat="43.43694" lon="-0.34609">
        <ele>167.2</ele>
        <time>2026-08-31T11:02:16Z</time>
      </trkpt>
      <trkpt lat="43.43694" lon="-0.34608">
        <ele>167.2</ele>
        <time>2026-08-31T11:02:17Z</time>
      </trkpt>
      <trkpt lat="43.43693" lon="-0.34608">
        <ele>167.2</ele>
        <time>2026-08-31T11:02:17Z</time>
      </trkpt>
      <trkpt lat="43.43693" lon="-0.34607">
        <ele>167.2</ele>
        <time>2026-08-31T11:02:18Z</time>
      </trkpt>
      <trkpt lat="43.43692" lon="-0.34607">
        <ele>167.2</ele>
        <time>2026-08-31T11:02:18Z</time>
      </trkpt>
      <trkpt lat="43.43692" lon="-0.34607">
        <ele>167.2</ele>
        <time>2026-08-31T11:02:19Z</time>
      </trkpt>
      <trkpt lat="43.43691" lon="-0.34606">
        <ele>167.2</ele>
        <time>2026-08-31T11:02:19Z</time>
      </trkpt>
      <trkpt lat="43.4369" lon="-0.34606">
        <ele>167.2</ele>
        <time>2026-08-31T11:02:20Z</time>
      </trkpt>
      <trkpt lat="43.4369" lon="-0.34605">
        <ele>167.2</ele>
        <time>2026-08-31T11:02:20Z</time>
      </trkpt>
      <trkpt lat="43.43689" lon="-0.34605">
        <ele>167.2</ele>
        <time>2026-08-31T11:02:21Z</time>
      </trkpt>
      <trkpt lat="43.43689" lon="-0.34604">
        <ele>167.2</ele>
        <time>2026-08-31T11:02:22Z</time>
      </trkpt>
      <trkpt lat="43.43688" lon="-0.34604">
        <ele>167.2</ele>
        <time>2026-08-31T11:02:22Z</time>
      </trkpt>
      <trkpt lat="43.43687" lon="-0.34603">
        <ele>167.2</ele>
        <time>2026-08-31T11:02:23Z</time>
      </trkpt>
      <trkpt lat="43.43687" lon="-0.34603">
        <ele>167.2</ele>
        <time>2026-08-31T11:02:23Z</time>
      </trkpt>
      <trkpt lat="43.43686" lon="-0.34603">
        <ele>167.2</ele>
        <time>2026-08-31T11:02:24Z</time>
      </trkpt>
      <trkpt lat="43.43686" lon="-0.34602">
        <ele>167.2</ele>
        <time>2026-08-31T11:02:24Z</time>
      </trkpt>
      <trkpt lat="43.43685" lon="-0.34602">
        <ele>168.2</ele>
        <time>2026-08-31T11:02:25Z</time>
      </trkpt>
      <trkpt lat="43.43684" lon="-0.34601">
        <ele>168.2</ele>
        <time>2026-08-31T11:02:25Z</time>
      </trkpt>
      <trkpt lat="43.43684" lon="-0.34601">
        <ele>167.2</ele>
        <time>2026-08-31T11:02:26Z</time>
      </trkpt>
      <trkpt lat="43.43683" lon="-0.346">
        <ele>167.2</ele>
        <time>2026-08-31T11:02:26Z</time>
      </trkpt>
      <trkpt lat="43.43683" lon="-0.346">
        <ele>167.2</ele>
        <time>2026-08-31T11:02:27Z</time>
      </trkpt>
      <trkpt lat="43.43682" lon="-0.34599">
        <ele>167.2</ele>
        <time>2026-08-31T11:02:28Z</time>
      </trkpt>
      <trkpt lat="43.43682" lon="-0.34598">
        <ele>168.2</ele>
        <time>2026-08-31T11:02:28Z</time>
      </trkpt>
      <trkpt lat="43.43681" lon="-0.34598">
        <ele>168.2</ele>
        <time>2026-08-31T11:02:29Z</time>
      </trkpt>
      <trkpt lat="43.43681" lon="-0.34597">
        <ele>168.2</ele>
        <time>2026-08-31T11:02:29Z</time>
      </trkpt>
      <trkpt lat="43.4368" lon="-0.34597">
        <ele>168.2</ele>
        <time>2026-08-31T11:02:30Z</time>
      </trkpt>
      <trkpt lat="43.4368" lon="-0.34596">
        <ele>168.2</ele>
        <time>2026-08-31T11:02:30Z</time>
      </trkpt>
      <trkpt lat="43.43679" lon="-0.34596">
        <ele>168.2</ele>
        <time>2026-08-31T11:02:31Z</time>
      </trkpt>
      <trkpt lat="43.43679" lon="-0.34595">
        <ele>168.2</ele>
        <time>2026-08-31T11:02:31Z</time>
      </trkpt>
      <trkpt lat="43.43678" lon="-0.34594">
        <ele>168.2</ele>
        <time>2026-08-31T11:02:32Z</time>
      </trkpt>
      <trkpt lat="43.43678" lon="-0.34594">
        <ele>168.2</ele>
        <time>2026-08-31T11:02:32Z</time>
      </trkpt>
      <trkpt lat="43.43677" lon="-0.34593">
        <ele>168.2</ele>
        <time>2026-08-31T11:02:33Z</time>
      </trkpt>
      <trkpt lat="43.43676" lon="-0.34593">
        <ele>168.2</ele>
        <time>2026-08-31T11:02:33Z</time>
      </trkpt>
      <trkpt lat="43.43676" lon="-0.34592">
        <ele>168.2</ele>
        <time>2026-08-31T11:02:34Z</time>
      </trkpt>
      <trkpt lat="43.43675" lon="-0.34592">
        <ele>168.2</ele>
        <time>2026-08-31T11:02:35Z</time>
      </trkpt>
      <trkpt lat="43.43675" lon="-0.34591">
        <ele>168.2</ele>
        <time>2026-08-31T11:02:35Z</time>
      </trkpt>
      <trkpt lat="43.43674" lon="-0.34591">
        <ele>168.2</ele>
        <time>2026-08-31T11:02:36Z</time>
      </trkpt>
      <trkpt lat="43.43674" lon="-0.3459">
        <ele>168.2</ele>
        <time>2026-08-31T11:02:36Z</time>
      </trkpt>
      <trkpt lat="43.43673" lon="-0.3459">
        <ele>168.2</ele>
        <time>2026-08-31T11:02:37Z</time>
      </trkpt>
      <trkpt lat="43.43673" lon="-0.3459">
        <ele>168.2</ele>
        <time>2026-08-31T11:02:37Z</time>
      </trkpt>
      <trkpt lat="43.43672" lon="-0.34589">
        <ele>168.2</ele>
        <time>2026-08-31T11:02:38Z</time>
      </trkpt>
      <trkpt lat="43.43672" lon="-0.34589">
        <ele>168.2</ele>
        <time>2026-08-31T11:02:38Z</time>
      </trkpt>
      <trkpt lat="43.43671" lon="-0.34588">
        <ele>168.2</ele>
        <time>2026-08-31T11:02:39Z</time>
      </trkpt>
      <trkpt lat="43.4367" lon="-0.34588">
        <ele>168.2</ele>
        <time>2026-08-31T11:02:39Z</time>
      </trkpt>
      <trkpt lat="43.4367" lon="-0.34587">
        <ele>168.2</ele>
        <time>2026-08-31T11:02:40Z</time>
      </trkpt>
      <trkpt lat="43.43669" lon="-0.34587">
        <ele>168.2</ele>
        <time>2026-08-31T11:02:41Z</time>
      </trkpt>
      <trkpt lat="43.43669" lon="-0.34587">
        <ele>167.2</ele>
        <time>2026-08-31T11:02:41Z</time>
      </trkpt>
      <trkpt lat="43.43668" lon="-0.34587">
        <ele>167.2</ele>
        <time>2026-08-31T11:02:42Z</time>
      </trkpt>
      <trkpt lat="43.43668" lon="-0.34586">
        <ele>167.2</ele>
        <time>2026-08-31T11:02:42Z</time>
      </trkpt>
      <trkpt lat="43.43667" lon="-0.34586">
        <ele>167.2</ele>
        <time>2026-08-31T11:02:43Z</time>
      </trkpt>
      <trkpt lat="43.43667" lon="-0.34585">
        <ele>167.2</ele>
        <time>2026-08-31T11:02:43Z</time>
      </trkpt>
      <trkpt lat="43.43666" lon="-0.34585">
        <ele>167.2</ele>
        <time>2026-08-31T11:02:44Z</time>
      </trkpt>
      <trkpt lat="43.43666" lon="-0.34584">
        <ele>167.2</ele>
        <time>2026-08-31T11:02:44Z</time>
      </trkpt>
      <trkpt lat="43.43665" lon="-0.34584">
        <ele>167.2</ele>
        <time>2026-08-31T11:02:45Z</time>
      </trkpt>
      <trkpt lat="43.43664" lon="-0.34584">
        <ele>167.2</ele>
        <time>2026-08-31T11:02:46Z</time>
      </trkpt>
      <trkpt lat="43.43664" lon="-0.34583">
        <ele>167.2</ele>
        <time>2026-08-31T11:02:46Z</time>
      </trkpt>
      <trkpt lat="43.43663" lon="-0.34583">
        <ele>167.2</ele>
        <time>2026-08-31T11:02:47Z</time>
      </trkpt>
      <trkpt lat="43.43663" lon="-0.34582">
        <ele>167.2</ele>
        <time>2026-08-31T11:02:47Z</time>
      </trkpt>
      <trkpt lat="43.43662" lon="-0.34582">
        <ele>167.2</ele>
        <time>2026-08-31T11:02:48Z</time>
      </trkpt>
      <trkpt lat="43.43662" lon="-0.34581">
        <ele>167.2</ele>
        <time>2026-08-31T11:02:48Z</time>
      </trkpt>
      <trkpt lat="43.43662" lon="-0.3458">
        <ele>166.2</ele>
        <time>2026-08-31T11:02:49Z</time>
      </trkpt>
      <trkpt lat="43.43661" lon="-0.34579">
        <ele>166.2</ele>
        <time>2026-08-31T11:02:49Z</time>
      </trkpt>
      <trkpt lat="43.43661" lon="-0.34579">
        <ele>166.2</ele>
        <time>2026-08-31T11:02:50Z</time>
      </trkpt>
      <trkpt lat="43.4366" lon="-0.34578">
        <ele>166.2</ele>
        <time>2026-08-31T11:02:50Z</time>
      </trkpt>
      <trkpt lat="43.4366" lon="-0.34577">
        <ele>166.2</ele>
        <time>2026-08-31T11:02:51Z</time>
      </trkpt>
      <trkpt lat="43.4366" lon="-0.34576">
        <ele>166.2</ele>
        <time>2026-08-31T11:02:51Z</time>
      </trkpt>
      <trkpt lat="43.4366" lon="-0.34575">
        <ele>166.2</ele>
        <time>2026-08-31T11:02:52Z</time>
      </trkpt>
      <trkpt lat="43.43659" lon="-0.34574">
        <ele>166.2</ele>
        <time>2026-08-31T11:02:52Z</time>
      </trkpt>
      <trkpt lat="43.43659" lon="-0.34573">
        <ele>166.2</ele>
        <time>2026-08-31T11:02:53Z</time>
      </trkpt>
      <trkpt lat="43.43658" lon="-0.34572">
        <ele>166.2</ele>
        <time>2026-08-31T11:02:53Z</time>
      </trkpt>
      <trkpt lat="43.43658" lon="-0.34571">
        <ele>166.2</ele>
        <time>2026-08-31T11:02:54Z</time>
      </trkpt>
      <trkpt lat="43.43658" lon="-0.34571">
        <ele>166.2</ele>
        <time>2026-08-31T11:02:55Z</time>
      </trkpt>
      <trkpt lat="43.43657" lon="-0.3457">
        <ele>166.2</ele>
        <time>2026-08-31T11:02:55Z</time>
      </trkpt>
      <trkpt lat="43.43657" lon="-0.34569">
        <ele>166.2</ele>
        <time>2026-08-31T11:02:56Z</time>
      </trkpt>
      <trkpt lat="43.43656" lon="-0.34568">
        <ele>166.2</ele>
        <time>2026-08-31T11:02:56Z</time>
      </trkpt>
      <trkpt lat="43.43656" lon="-0.34567">
        <ele>166.2</ele>
        <time>2026-08-31T11:02:57Z</time>
      </trkpt>
      <trkpt lat="43.43656" lon="-0.34567">
        <ele>166.2</ele>
        <time>2026-08-31T11:02:57Z</time>
      </trkpt>
      <trkpt lat="43.43655" lon="-0.34566">
        <ele>166.2</ele>
        <time>2026-08-31T11:02:58Z</time>
      </trkpt>
      <trkpt lat="43.43655" lon="-0.34565">
        <ele>166.2</ele>
        <time>2026-08-31T11:02:58Z</time>
      </trkpt>
      <trkpt lat="43.43655" lon="-0.34564">
        <ele>166.2</ele>
        <time>2026-08-31T11:02:59Z</time>
      </trkpt>
      <trkpt lat="43.43654" lon="-0.34563">
        <ele>166.2</ele>
        <time>2026-08-31T11:02:59Z</time>
      </trkpt>
      <trkpt lat="43.43654" lon="-0.34563">
        <ele>166.2</ele>
        <time>2026-08-31T11:03:00Z</time>
      </trkpt>
      <trkpt lat="43.43653" lon="-0.34562">
        <ele>166.2</ele>
        <time>2026-08-31T11:03:00Z</time>
      </trkpt>
      <trkpt lat="43.43653" lon="-0.34561">
        <ele>166.2</ele>
        <time>2026-08-31T11:03:01Z</time>
      </trkpt>
      <trkpt lat="43.43653" lon="-0.3456">
        <ele>166.2</ele>
        <time>2026-08-31T11:03:02Z</time>
      </trkpt>
      <trkpt lat="43.43652" lon="-0.3456">
        <ele>166.2</ele>
        <time>2026-08-31T11:03:02Z</time>
      </trkpt>
      <trkpt lat="43.43652" lon="-0.34559">
        <ele>166.2</ele>
        <time>2026-08-31T11:03:03Z</time>
      </trkpt>
      <trkpt lat="43.43652" lon="-0.34559">
        <ele>165.2</ele>
        <time>2026-08-31T11:03:03Z</time>
      </trkpt>
      <trkpt lat="43.43651" lon="-0.34558">
        <ele>165.2</ele>
        <time>2026-08-31T11:03:04Z</time>
      </trkpt>
      <trkpt lat="43.43651" lon="-0.34557">
        <ele>166.2</ele>
        <time>2026-08-31T11:03:04Z</time>
      </trkpt>
      <trkpt lat="43.4365" lon="-0.34557">
        <ele>165.2</ele>
        <time>2026-08-31T11:03:05Z</time>
      </trkpt>
      <trkpt lat="43.4365" lon="-0.34556">
        <ele>165.2</ele>
        <time>2026-08-31T11:03:05Z</time>
      </trkpt>
      <trkpt lat="43.4365" lon="-0.34555">
        <ele>166.2</ele>
        <time>2026-08-31T11:03:06Z</time>
      </trkpt>
      <trkpt lat="43.4365" lon="-0.34554">
        <ele>166.2</ele>
        <time>2026-08-31T11:03:06Z</time>
      </trkpt>
      <trkpt lat="43.43649" lon="-0.34554">
        <ele>165.2</ele>
        <time>2026-08-31T11:03:07Z</time>
      </trkpt>
      <trkpt lat="43.43649" lon="-0.34553">
        <ele>165.2</ele>
        <time>2026-08-31T11:03:07Z</time>
      </trkpt>
      <trkpt lat="43.43649" lon="-0.34552">
        <ele>165.2</ele>
        <time>2026-08-31T11:03:08Z</time>
      </trkpt>
      <trkpt lat="43.43648" lon="-0.34551">
        <ele>165.2</ele>
        <time>2026-08-31T11:03:09Z</time>
      </trkpt>
      <trkpt lat="43.43648" lon="-0.34551">
        <ele>165.2</ele>
        <time>2026-08-31T11:03:09Z</time>
      </trkpt>
      <trkpt lat="43.43648" lon="-0.3455">
        <ele>165.2</ele>
        <time>2026-08-31T11:03:10Z</time>
      </trkpt>
      <trkpt lat="43.43647" lon="-0.3455">
        <ele>165.2</ele>
        <time>2026-08-31T11:03:10Z</time>
      </trkpt>
      <trkpt lat="43.43647" lon="-0.34549">
        <ele>165.2</ele>
        <time>2026-08-31T11:03:11Z</time>
      </trkpt>
      <trkpt lat="43.43646" lon="-0.34549">
        <ele>165.2</ele>
        <time>2026-08-31T11:03:11Z</time>
      </trkpt>
      <trkpt lat="43.43646" lon="-0.34548">
        <ele>165.2</ele>
        <time>2026-08-31T11:03:12Z</time>
      </trkpt>
      <trkpt lat="43.43646" lon="-0.34548">
        <ele>165.2</ele>
        <time>2026-08-31T11:03:12Z</time>
      </trkpt>
      <trkpt lat="43.43645" lon="-0.34547">
        <ele>165.2</ele>
        <time>2026-08-31T11:03:13Z</time>
      </trkpt>
      <trkpt lat="43.43645" lon="-0.34546">
        <ele>165.2</ele>
        <time>2026-08-31T11:03:13Z</time>
      </trkpt>
      <trkpt lat="43.43644" lon="-0.34546">
        <ele>165.2</ele>
        <time>2026-08-31T11:03:14Z</time>
      </trkpt>
      <trkpt lat="43.43644" lon="-0.34545">
        <ele>165.2</ele>
        <time>2026-08-31T11:03:14Z</time>
      </trkpt>
      <trkpt lat="43.43644" lon="-0.34544">
        <ele>165.2</ele>
        <time>2026-08-31T11:03:15Z</time>
      </trkpt>
      <trkpt lat="43.43643" lon="-0.34544">
        <ele>165.2</ele>
        <time>2026-08-31T11:03:16Z</time>
      </trkpt>
      <trkpt lat="43.43643" lon="-0.34543">
        <ele>165.2</ele>
        <time>2026-08-31T11:03:16Z</time>
      </trkpt>
      <trkpt lat="43.43642" lon="-0.34543">
        <ele>165.2</ele>
        <time>2026-08-31T11:03:17Z</time>
      </trkpt>
      <trkpt lat="43.43642" lon="-0.34542">
        <ele>165.2</ele>
        <time>2026-08-31T11:03:17Z</time>
      </trkpt>
      <trkpt lat="43.43641" lon="-0.34541">
        <ele>165.2</ele>
        <time>2026-08-31T11:03:18Z</time>
      </trkpt>
      <trkpt lat="43.43641" lon="-0.34541">
        <ele>165.2</ele>
        <time>2026-08-31T11:03:18Z</time>
      </trkpt>
      <trkpt lat="43.4364" lon="-0.34541">
        <ele>165.2</ele>
        <time>2026-08-31T11:03:19Z</time>
      </trkpt>
      <trkpt lat="43.4364" lon="-0.3454">
        <ele>165.2</ele>
        <time>2026-08-31T11:03:19Z</time>
      </trkpt>
      <trkpt lat="43.43639" lon="-0.3454">
        <ele>165.2</ele>
        <time>2026-08-31T11:03:20Z</time>
      </trkpt>
      <trkpt lat="43.43639" lon="-0.34539">
        <ele>165.2</ele>
        <time>2026-08-31T11:03:20Z</time>
      </trkpt>
      <trkpt lat="43.43638" lon="-0.34539">
        <ele>165.2</ele>
        <time>2026-08-31T11:03:21Z</time>
      </trkpt>
      <trkpt lat="43.43637" lon="-0.34539">
        <ele>165.2</ele>
        <time>2026-08-31T11:03:22Z</time>
      </trkpt>
      <trkpt lat="43.43637" lon="-0.34538">
        <ele>165.2</ele>
        <time>2026-08-31T11:03:22Z</time>
      </trkpt>
      <trkpt lat="43.43636" lon="-0.34538">
        <ele>165.2</ele>
        <time>2026-08-31T11:03:23Z</time>
      </trkpt>
      <trkpt lat="43.43636" lon="-0.34537">
        <ele>165.2</ele>
        <time>2026-08-31T11:03:23Z</time>
      </trkpt>
      <trkpt lat="43.43635" lon="-0.34537">
        <ele>165.2</ele>
        <time>2026-08-31T11:03:24Z</time>
      </trkpt>
      <trkpt lat="43.43635" lon="-0.34537">
        <ele>165.2</ele>
        <time>2026-08-31T11:03:24Z</time>
      </trkpt>
      <trkpt lat="43.43634" lon="-0.34536">
        <ele>165.2</ele>
        <time>2026-08-31T11:03:25Z</time>
      </trkpt>
      <trkpt lat="43.43634" lon="-0.34536">
        <ele>165.2</ele>
        <time>2026-08-31T11:03:25Z</time>
      </trkpt>
      <trkpt lat="43.43633" lon="-0.34535">
        <ele>165.2</ele>
        <time>2026-08-31T11:03:26Z</time>
      </trkpt>
      <trkpt lat="43.43633" lon="-0.34535">
        <ele>165.2</ele>
        <time>2026-08-31T11:03:26Z</time>
      </trkpt>
      <trkpt lat="43.43632" lon="-0.34534">
        <ele>165.2</ele>
        <time>2026-08-31T11:03:27Z</time>
      </trkpt>
      <trkpt lat="43.43632" lon="-0.34534">
        <ele>165.2</ele>
        <time>2026-08-31T11:03:27Z</time>
      </trkpt>
      <trkpt lat="43.43631" lon="-0.34533">
        <ele>165.2</ele>
        <time>2026-08-31T11:03:28Z</time>
      </trkpt>
      <trkpt lat="43.43631" lon="-0.34533">
        <ele>165.2</ele>
        <time>2026-08-31T11:03:29Z</time>
      </trkpt>
      <trkpt lat="43.43631" lon="-0.34532">
        <ele>165.2</ele>
        <time>2026-08-31T11:03:29Z</time>
      </trkpt>
      <trkpt lat="43.4363" lon="-0.34532">
        <ele>165.2</ele>
        <time>2026-08-31T11:03:30Z</time>
      </trkpt>
      <trkpt lat="43.4363" lon="-0.34531">
        <ele>165.2</ele>
        <time>2026-08-31T11:03:30Z</time>
      </trkpt>
      <trkpt lat="43.43629" lon="-0.34531">
        <ele>164.2</ele>
        <time>2026-08-31T11:03:31Z</time>
      </trkpt>
      <trkpt lat="43.43629" lon="-0.3453">
        <ele>164.2</ele>
        <time>2026-08-31T11:03:31Z</time>
      </trkpt>
      <trkpt lat="43.43628" lon="-0.3453">
        <ele>164.2</ele>
        <time>2026-08-31T11:03:32Z</time>
      </trkpt>
      <trkpt lat="43.43628" lon="-0.34529">
        <ele>164.2</ele>
        <time>2026-08-31T11:03:32Z</time>
      </trkpt>
      <trkpt lat="43.43628" lon="-0.34528">
        <ele>164.2</ele>
        <time>2026-08-31T11:03:33Z</time>
      </trkpt>
      <trkpt lat="43.43627" lon="-0.34528">
        <ele>164.2</ele>
        <time>2026-08-31T11:03:33Z</time>
      </trkpt>
      <trkpt lat="43.43627" lon="-0.34527">
        <ele>164.2</ele>
        <time>2026-08-31T11:03:34Z</time>
      </trkpt>
      <trkpt lat="43.43626" lon="-0.34526">
        <ele>164.2</ele>
        <time>2026-08-31T11:03:34Z</time>
      </trkpt>
      <trkpt lat="43.43626" lon="-0.34526">
        <ele>164.2</ele>
        <time>2026-08-31T11:03:35Z</time>
      </trkpt>
      <trkpt lat="43.43626" lon="-0.34525">
        <ele>164.2</ele>
        <time>2026-08-31T11:03:36Z</time>
      </trkpt>
      <trkpt lat="43.43626" lon="-0.34525">
        <ele>165.2</ele>
        <time>2026-08-31T11:03:36Z</time>
      </trkpt>
      <trkpt lat="43.43625" lon="-0.34524">
        <ele>165.2</ele>
        <time>2026-08-31T11:03:37Z</time>
      </trkpt>
      <trkpt lat="43.43625" lon="-0.34523">
        <ele>164.2</ele>
        <time>2026-08-31T11:03:37Z</time>
      </trkpt>
      <trkpt lat="43.43625" lon="-0.34522">
        <ele>164.2</ele>
        <time>2026-08-31T11:03:38Z</time>
      </trkpt>
      <trkpt lat="43.43624" lon="-0.34521">
        <ele>164.2</ele>
        <time>2026-08-31T11:03:38Z</time>
      </trkpt>
      <trkpt lat="43.43624" lon="-0.34521">
        <ele>164.2</ele>
        <time>2026-08-31T11:03:39Z</time>
      </trkpt>
      <trkpt lat="43.43624" lon="-0.3452">
        <ele>164.2</ele>
        <time>2026-08-31T11:03:39Z</time>
      </trkpt>
      <trkpt lat="43.43623" lon="-0.34519">
        <ele>164.2</ele>
        <time>2026-08-31T11:03:40Z</time>
      </trkpt>
      <trkpt lat="43.43623" lon="-0.34518">
        <ele>164.2</ele>
        <time>2026-08-31T11:03:40Z</time>
      </trkpt>
      <trkpt lat="43.43623" lon="-0.34518">
        <ele>165.2</ele>
        <time>2026-08-31T11:03:41Z</time>
      </trkpt>
      <trkpt lat="43.43622" lon="-0.34517">
        <ele>165.2</ele>
        <time>2026-08-31T11:03:42Z</time>
      </trkpt>
      <trkpt lat="43.43622" lon="-0.34516">
        <ele>164.2</ele>
        <time>2026-08-31T11:03:42Z</time>
      </trkpt>
      <trkpt lat="43.43621" lon="-0.34516">
        <ele>164.2</ele>
        <time>2026-08-31T11:03:43Z</time>
      </trkpt>
      <trkpt lat="43.43621" lon="-0.34515">
        <ele>163.2</ele>
        <time>2026-08-31T11:03:43Z</time>
      </trkpt>
      <trkpt lat="43.43621" lon="-0.34514">
        <ele>163.2</ele>
        <time>2026-08-31T11:03:44Z</time>
      </trkpt>
      <trkpt lat="43.43621" lon="-0.34514">
        <ele>163.2</ele>
        <time>2026-08-31T11:03:44Z</time>
      </trkpt>
      <trkpt lat="43.4362" lon="-0.34513">
        <ele>163.2</ele>
        <time>2026-08-31T11:03:45Z</time>
      </trkpt>
      <trkpt lat="43.4362" lon="-0.34512">
        <ele>163.2</ele>
        <time>2026-08-31T11:03:45Z</time>
      </trkpt>
      <trkpt lat="43.43619" lon="-0.34512">
        <ele>163.2</ele>
        <time>2026-08-31T11:03:46Z</time>
      </trkpt>
      <trkpt lat="43.43619" lon="-0.34511">
        <ele>163.2</ele>
        <time>2026-08-31T11:03:46Z</time>
      </trkpt>
      <trkpt lat="43.43618" lon="-0.3451">
        <ele>163.2</ele>
        <time>2026-08-31T11:03:47Z</time>
      </trkpt>
      <trkpt lat="43.43618" lon="-0.3451">
        <ele>163.2</ele>
        <time>2026-08-31T11:03:47Z</time>
      </trkpt>
      <trkpt lat="43.43617" lon="-0.34509">
        <ele>162.2</ele>
        <time>2026-08-31T11:03:48Z</time>
      </trkpt>
      <trkpt lat="43.43617" lon="-0.34508">
        <ele>162.2</ele>
        <time>2026-08-31T11:03:49Z</time>
      </trkpt>
      <trkpt lat="43.43617" lon="-0.34508">
        <ele>162.2</ele>
        <time>2026-08-31T11:03:49Z</time>
      </trkpt>
      <trkpt lat="43.43616" lon="-0.34507">
        <ele>162.2</ele>
        <time>2026-08-31T11:03:50Z</time>
      </trkpt>
      <trkpt lat="43.43616" lon="-0.34506">
        <ele>162.2</ele>
        <time>2026-08-31T11:03:50Z</time>
      </trkpt>
      <trkpt lat="43.43615" lon="-0.34506">
        <ele>162.2</ele>
        <time>2026-08-31T11:03:51Z</time>
      </trkpt>
      <trkpt lat="43.43615" lon="-0.34505">
        <ele>162.2</ele>
        <time>2026-08-31T11:03:51Z</time>
      </trkpt>
      <trkpt lat="43.43615" lon="-0.34504">
        <ele>161.2</ele>
        <time>2026-08-31T11:03:52Z</time>
      </trkpt>
      <trkpt lat="43.43614" lon="-0.34503">
        <ele>161.2</ele>
        <time>2026-08-31T11:03:52Z</time>
      </trkpt>
      <trkpt lat="43.43614" lon="-0.34503">
        <ele>162.2</ele>
        <time>2026-08-31T11:03:53Z</time>
      </trkpt>
      <trkpt lat="43.43614" lon="-0.34502">
        <ele>162.2</ele>
        <time>2026-08-31T11:03:53Z</time>
      </trkpt>
      <trkpt lat="43.43613" lon="-0.34501">
        <ele>162.2</ele>
        <time>2026-08-31T11:03:54Z</time>
      </trkpt>
      <trkpt lat="43.43613" lon="-0.345">
        <ele>162.2</ele>
        <time>2026-08-31T11:03:55Z</time>
      </trkpt>
      <trkpt lat="43.43613" lon="-0.34499">
        <ele>162.2</ele>
        <time>2026-08-31T11:03:55Z</time>
      </trkpt>
      <trkpt lat="43.43613" lon="-0.34498">
        <ele>162.2</ele>
        <time>2026-08-31T11:03:56Z</time>
      </trkpt>
      <trkpt lat="43.43612" lon="-0.34497">
        <ele>162.2</ele>
        <time>2026-08-31T11:03:56Z</time>
      </trkpt>
      <trkpt lat="43.43612" lon="-0.34497">
        <ele>162.2</ele>
        <time>2026-08-31T11:03:57Z</time>
      </trkpt>
      <trkpt lat="43.43612" lon="-0.34496">
        <ele>162.2</ele>
        <time>2026-08-31T11:03:57Z</time>
      </trkpt>
      <trkpt lat="43.43611" lon="-0.34495">
        <ele>163.2</ele>
        <time>2026-08-31T11:03:58Z</time>
      </trkpt>
      <trkpt lat="43.43611" lon="-0.34494">
        <ele>163.2</ele>
        <time>2026-08-31T11:03:58Z</time>
      </trkpt>
      <trkpt lat="43.43611" lon="-0.34494">
        <ele>163.2</ele>
        <time>2026-08-31T11:03:59Z</time>
      </trkpt>
      <trkpt lat="43.4361" lon="-0.34493">
        <ele>163.2</ele>
        <time>2026-08-31T11:03:59Z</time>
      </trkpt>
      <trkpt lat="43.4361" lon="-0.34492">
        <ele>163.2</ele>
        <time>2026-08-31T11:04:00Z</time>
      </trkpt>
      <trkpt lat="43.43609" lon="-0.34491">
        <ele>163.2</ele>
        <time>2026-08-31T11:04:01Z</time>
      </trkpt>
      <trkpt lat="43.43609" lon="-0.3449">
        <ele>163.2</ele>
        <time>2026-08-31T11:04:01Z</time>
      </trkpt>
      <trkpt lat="43.43609" lon="-0.34489">
        <ele>163.2</ele>
        <time>2026-08-31T11:04:02Z</time>
      </trkpt>
      <trkpt lat="43.43608" lon="-0.34489">
        <ele>163.2</ele>
        <time>2026-08-31T11:04:02Z</time>
      </trkpt>
      <trkpt lat="43.43608" lon="-0.34488">
        <ele>162.2</ele>
        <time>2026-08-31T11:04:03Z</time>
      </trkpt>
      <trkpt lat="43.43608" lon="-0.34487">
        <ele>162.2</ele>
        <time>2026-08-31T11:04:03Z</time>
      </trkpt>
      <trkpt lat="43.43607" lon="-0.34486">
        <ele>162.2</ele>
        <time>2026-08-31T11:04:04Z</time>
      </trkpt>
      <trkpt lat="43.43607" lon="-0.34485">
        <ele>162.2</ele>
        <time>2026-08-31T11:04:04Z</time>
      </trkpt>
      <trkpt lat="43.43606" lon="-0.34485">
        <ele>163.2</ele>
        <time>2026-08-31T11:04:05Z</time>
      </trkpt>
      <trkpt lat="43.43606" lon="-0.34484">
        <ele>163.2</ele>
        <time>2026-08-31T11:04:05Z</time>
      </trkpt>
      <trkpt lat="43.43606" lon="-0.34483">
        <ele>163.2</ele>
        <time>2026-08-31T11:04:06Z</time>
      </trkpt>
      <trkpt lat="43.43605" lon="-0.34482">
        <ele>163.2</ele>
        <time>2026-08-31T11:04:07Z</time>
      </trkpt>
      <trkpt lat="43.43605" lon="-0.34481">
        <ele>163.2</ele>
        <time>2026-08-31T11:04:07Z</time>
      </trkpt>
      <trkpt lat="43.43604" lon="-0.3448">
        <ele>163.2</ele>
        <time>2026-08-31T11:04:08Z</time>
      </trkpt>
      <trkpt lat="43.43604" lon="-0.3448">
        <ele>163.2</ele>
        <time>2026-08-31T11:04:08Z</time>
      </trkpt>
      <trkpt lat="43.43603" lon="-0.34479">
        <ele>163.2</ele>
        <time>2026-08-31T11:04:09Z</time>
      </trkpt>
      <trkpt lat="43.43603" lon="-0.34478">
        <ele>163.2</ele>
        <time>2026-08-31T11:04:09Z</time>
      </trkpt>
      <trkpt lat="43.43602" lon="-0.34477">
        <ele>163.2</ele>
        <time>2026-08-31T11:04:10Z</time>
      </trkpt>
      <trkpt lat="43.43602" lon="-0.34477">
        <ele>163.2</ele>
        <time>2026-08-31T11:04:10Z</time>
      </trkpt>
      <trkpt lat="43.43601" lon="-0.34476">
        <ele>163.2</ele>
        <time>2026-08-31T11:04:11Z</time>
      </trkpt>
      <trkpt lat="43.43601" lon="-0.34475">
        <ele>163.2</ele>
        <time>2026-08-31T11:04:11Z</time>
      </trkpt>
      <trkpt lat="43.436" lon="-0.34474">
        <ele>163.2</ele>
        <time>2026-08-31T11:04:12Z</time>
      </trkpt>
      <trkpt lat="43.436" lon="-0.34473">
        <ele>163.2</ele>
        <time>2026-08-31T11:04:13Z</time>
      </trkpt>
      <trkpt lat="43.43599" lon="-0.34473">
        <ele>163.2</ele>
        <time>2026-08-31T11:04:13Z</time>
      </trkpt>
      <trkpt lat="43.43599" lon="-0.34472">
        <ele>163.2</ele>
        <time>2026-08-31T11:04:14Z</time>
      </trkpt>
      <trkpt lat="43.43598" lon="-0.34471">
        <ele>163.2</ele>
        <time>2026-08-31T11:04:14Z</time>
      </trkpt>
      <trkpt lat="43.43598" lon="-0.34471">
        <ele>163.2</ele>
        <time>2026-08-31T11:04:15Z</time>
      </trkpt>
      <trkpt lat="43.43597" lon="-0.3447">
        <ele>163.2</ele>
        <time>2026-08-31T11:04:15Z</time>
      </trkpt>
      <trkpt lat="43.43597" lon="-0.34469">
        <ele>163.2</ele>
        <time>2026-08-31T11:04:16Z</time>
      </trkpt>
      <trkpt lat="43.43596" lon="-0.34469">
        <ele>163.2</ele>
        <time>2026-08-31T11:04:16Z</time>
      </trkpt>
      <trkpt lat="43.43595" lon="-0.34468">
        <ele>164.2</ele>
        <time>2026-08-31T11:04:17Z</time>
      </trkpt>
      <trkpt lat="43.43595" lon="-0.34468">
        <ele>164.2</ele>
        <time>2026-08-31T11:04:17Z</time>
      </trkpt>
      <trkpt lat="43.43594" lon="-0.34467">
        <ele>163.2</ele>
        <time>2026-08-31T11:04:18Z</time>
      </trkpt>
      <trkpt lat="43.43594" lon="-0.34466">
        <ele>163.2</ele>
        <time>2026-08-31T11:04:19Z</time>
      </trkpt>
      <trkpt lat="43.43593" lon="-0.34466">
        <ele>163.2</ele>
        <time>2026-08-31T11:04:19Z</time>
      </trkpt>
      <trkpt lat="43.43593" lon="-0.34465">
        <ele>163.2</ele>
        <time>2026-08-31T11:04:20Z</time>
      </trkpt>
      <trkpt lat="43.43592" lon="-0.34465">
        <ele>163.2</ele>
        <time>2026-08-31T11:04:20Z</time>
      </trkpt>
      <trkpt lat="43.43591" lon="-0.34464">
        <ele>164.2</ele>
        <time>2026-08-31T11:04:21Z</time>
      </trkpt>
      <trkpt lat="43.43591" lon="-0.34464">
        <ele>164.2</ele>
        <time>2026-08-31T11:04:21Z</time>
      </trkpt>
      <trkpt lat="43.4359" lon="-0.34463">
        <ele>164.2</ele>
        <time>2026-08-31T11:04:22Z</time>
      </trkpt>
      <trkpt lat="43.43589" lon="-0.34463">
        <ele>164.2</ele>
        <time>2026-08-31T11:04:22Z</time>
      </trkpt>
      <trkpt lat="43.43589" lon="-0.34462">
        <ele>164.2</ele>
        <time>2026-08-31T11:04:23Z</time>
      </trkpt>
      <trkpt lat="43.43588" lon="-0.34462">
        <ele>164.2</ele>
        <time>2026-08-31T11:04:23Z</time>
      </trkpt>
      <trkpt lat="43.43588" lon="-0.34461">
        <ele>164.2</ele>
        <time>2026-08-31T11:04:24Z</time>
      </trkpt>
      <trkpt lat="43.43587" lon="-0.3446">
        <ele>164.2</ele>
        <time>2026-08-31T11:04:25Z</time>
      </trkpt>
      <trkpt lat="43.43587" lon="-0.3446">
        <ele>164.2</ele>
        <time>2026-08-31T11:04:25Z</time>
      </trkpt>
      <trkpt lat="43.43586" lon="-0.34459">
        <ele>164.2</ele>
        <time>2026-08-31T11:04:26Z</time>
      </trkpt>
      <trkpt lat="43.43585" lon="-0.34459">
        <ele>164.2</ele>
        <time>2026-08-31T11:04:26Z</time>
      </trkpt>
      <trkpt lat="43.43585" lon="-0.34458">
        <ele>164.2</ele>
        <time>2026-08-31T11:04:27Z</time>
      </trkpt>
      <trkpt lat="43.43584" lon="-0.34457">
        <ele>164.2</ele>
        <time>2026-08-31T11:04:27Z</time>
      </trkpt>
      <trkpt lat="43.43584" lon="-0.34457">
        <ele>164.2</ele>
        <time>2026-08-31T11:04:28Z</time>
      </trkpt>
      <trkpt lat="43.43583" lon="-0.34456">
        <ele>165.2</ele>
        <time>2026-08-31T11:04:29Z</time>
      </trkpt>
      <trkpt lat="43.43583" lon="-0.34456">
        <ele>165.2</ele>
        <time>2026-08-31T11:04:29Z</time>
      </trkpt>
      <trkpt lat="43.43583" lon="-0.34455">
        <ele>165.2</ele>
        <time>2026-08-31T11:04:30Z</time>
      </trkpt>
      <trkpt lat="43.43582" lon="-0.34455">
        <ele>165.2</ele>
        <time>2026-08-31T11:04:30Z</time>
      </trkpt>
      <trkpt lat="43.43582" lon="-0.34454">
        <ele>166.2</ele>
        <time>2026-08-31T11:04:31Z</time>
      </trkpt>
      <trkpt lat="43.43581" lon="-0.34453">
        <ele>166.2</ele>
        <time>2026-08-31T11:04:31Z</time>
      </trkpt>
      <trkpt lat="43.43581" lon="-0.34453">
        <ele>167.2</ele>
        <time>2026-08-31T11:04:32Z</time>
      </trkpt>
      <trkpt lat="43.4358" lon="-0.34452">
        <ele>167.2</ele>
        <time>2026-08-31T11:04:33Z</time>
      </trkpt>
      <trkpt lat="43.43579" lon="-0.34452">
        <ele>166.2</ele>
        <time>2026-08-31T11:04:34Z</time>
      </trkpt>
      <trkpt lat="43.43577" lon="-0.34452">
        <ele>167.2</ele>
        <time>2026-08-31T11:04:35Z</time>
      </trkpt>
      <trkpt lat="43.43576" lon="-0.34452">
        <ele>168.2</ele>
        <time>2026-08-31T11:04:36Z</time>
      </trkpt>
      <trkpt lat="43.43575" lon="-0.34452">
        <ele>168.2</ele>
        <time>2026-08-31T11:04:37Z</time>
      </trkpt>
      <trkpt lat="43.43574" lon="-0.34452">
        <ele>168.2</ele>
        <time>2026-08-31T11:04:38Z</time>
      </trkpt>
      <trkpt lat="43.43573" lon="-0.34452">
        <ele>168.2</ele>
        <time>2026-08-31T11:04:39Z</time>
      </trkpt>
      <trkpt lat="43.43573" lon="-0.34452">
        <ele>169.2</ele>
        <time>2026-08-31T11:04:40Z</time>
      </trkpt>
      <trkpt lat="43.43573" lon="-0.34452">
        <ele>169.2</ele>
        <time>2026-08-31T11:04:41Z</time>
      </trkpt>
      <trkpt lat="43.43571" lon="-0.34452">
        <ele>170.2</ele>
        <time>2026-08-31T11:04:41Z</time>
      </trkpt>
      <trkpt lat="43.4357" lon="-0.34453">
        <ele>171.2</ele>
        <time>2026-08-31T11:04:43Z</time>
      </trkpt>
      <trkpt lat="43.43568" lon="-0.34453">
        <ele>172.2</ele>
        <time>2026-08-31T11:04:43Z</time>
      </trkpt>
      <trkpt lat="43.43567" lon="-0.34453">
        <ele>172.2</ele>
        <time>2026-08-31T11:04:44Z</time>
      </trkpt>
      <trkpt lat="43.43565" lon="-0.34455">
        <ele>172.2</ele>
        <time>2026-08-31T11:04:45Z</time>
      </trkpt>
      <trkpt lat="43.43564" lon="-0.34456">
        <ele>172.2</ele>
        <time>2026-08-31T11:04:45Z</time>
      </trkpt>
      <trkpt lat="43.43564" lon="-0.34456">
        <ele>172.2</ele>
        <time>2026-08-31T11:04:46Z</time>
      </trkpt>
      <trkpt lat="43.43564" lon="-0.34456">
        <ele>172.2</ele>
        <time>2026-08-31T11:04:46Z</time>
      </trkpt>
      <trkpt lat="43.43564" lon="-0.34456">
        <ele>171.2</ele>
        <time>2026-08-31T11:04:47Z</time>
      </trkpt>
      <trkpt lat="43.43564" lon="-0.34456">
        <ele>171.2</ele>
        <time>2026-08-31T11:04:47Z</time>
      </trkpt>
      <trkpt lat="43.43563" lon="-0.34456">
        <ele>172.2</ele>
        <time>2026-08-31T11:04:48Z</time>
      </trkpt>
      <trkpt lat="43.43563" lon="-0.34457">
        <ele>172.2</ele>
        <time>2026-08-31T11:04:48Z</time>
      </trkpt>
      <trkpt lat="43.43562" lon="-0.34458">
        <ele>172.2</ele>
        <time>2026-08-31T11:04:49Z</time>
      </trkpt>
      <trkpt lat="43.43561" lon="-0.34458">
        <ele>172.2</ele>
        <time>2026-08-31T11:04:50Z</time>
      </trkpt>
      <trkpt lat="43.4356" lon="-0.34459">
        <ele>171.2</ele>
        <time>2026-08-31T11:04:50Z</time>
      </trkpt>
      <trkpt lat="43.4356" lon="-0.34459">
        <ele>171.2</ele>
        <time>2026-08-31T11:04:51Z</time>
      </trkpt>
      <trkpt lat="43.43559" lon="-0.3446">
        <ele>172.2</ele>
        <time>2026-08-31T11:04:51Z</time>
      </trkpt>
      <trkpt lat="43.43558" lon="-0.3446">
        <ele>172.2</ele>
        <time>2026-08-31T11:04:52Z</time>
      </trkpt>
      <trkpt lat="43.43557" lon="-0.34461">
        <ele>172.2</ele>
        <time>2026-08-31T11:04:52Z</time>
      </trkpt>
      <trkpt lat="43.43555" lon="-0.34461">
        <ele>172.2</ele>
        <time>2026-08-31T11:04:53Z</time>
      </trkpt>
      <trkpt lat="43.43555" lon="-0.34461">
        <ele>172.2</ele>
        <time>2026-08-31T11:04:54Z</time>
      </trkpt>
      <trkpt lat="43.43554" lon="-0.34462">
        <ele>172.2</ele>
        <time>2026-08-31T11:04:54Z</time>
      </trkpt>
      <trkpt lat="43.43553" lon="-0.34462">
        <ele>172.2</ele>
        <time>2026-08-31T11:04:55Z</time>
      </trkpt>
      <trkpt lat="43.43552" lon="-0.34462">
        <ele>173.2</ele>
        <time>2026-08-31T11:04:55Z</time>
      </trkpt>
      <trkpt lat="43.43552" lon="-0.34463">
        <ele>173.2</ele>
        <time>2026-08-31T11:04:56Z</time>
      </trkpt>
      <trkpt lat="43.43551" lon="-0.34463">
        <ele>173.2</ele>
        <time>2026-08-31T11:04:56Z</time>
      </trkpt>
      <trkpt lat="43.4355" lon="-0.34463">
        <ele>174.2</ele>
        <time>2026-08-31T11:04:57Z</time>
      </trkpt>
      <trkpt lat="43.4355" lon="-0.34463">
        <ele>174.2</ele>
        <time>2026-08-31T11:04:57Z</time>
      </trkpt>
      <trkpt lat="43.43549" lon="-0.34463">
        <ele>174.2</ele>
        <time>2026-08-31T11:04:58Z</time>
      </trkpt>
      <trkpt lat="43.43548" lon="-0.34463">
        <ele>174.2</ele>
        <time>2026-08-31T11:04:58Z</time>
      </trkpt>
      <trkpt lat="43.43547" lon="-0.34463">
        <ele>174.2</ele>
        <time>2026-08-31T11:04:59Z</time>
      </trkpt>
      <trkpt lat="43.43546" lon="-0.34463">
        <ele>174.2</ele>
        <time>2026-08-31T11:04:59Z</time>
      </trkpt>
      <trkpt lat="43.43546" lon="-0.34463">
        <ele>175.2</ele>
        <time>2026-08-31T11:05:00Z</time>
      </trkpt>
      <trkpt lat="43.43545" lon="-0.34463">
        <ele>175.2</ele>
        <time>2026-08-31T11:05:01Z</time>
      </trkpt>
      <trkpt lat="43.43544" lon="-0.34464">
        <ele>175.2</ele>
        <time>2026-08-31T11:05:01Z</time>
      </trkpt>
      <trkpt lat="43.43543" lon="-0.34464">
        <ele>175.2</ele>
        <time>2026-08-31T11:05:02Z</time>
      </trkpt>
      <trkpt lat="43.43543" lon="-0.34464">
        <ele>175.2</ele>
        <time>2026-08-31T11:05:02Z</time>
      </trkpt>
      <trkpt lat="43.43542" lon="-0.34465">
        <ele>175.2</ele>
        <time>2026-08-31T11:05:03Z</time>
      </trkpt>
      <trkpt lat="43.43542" lon="-0.34466">
        <ele>175.2</ele>
        <time>2026-08-31T11:05:03Z</time>
      </trkpt>
      <trkpt lat="43.43541" lon="-0.34467">
        <ele>176.2</ele>
        <time>2026-08-31T11:05:04Z</time>
      </trkpt>
      <trkpt lat="43.43541" lon="-0.34467">
        <ele>176.2</ele>
        <time>2026-08-31T11:05:04Z</time>
      </trkpt>
      <trkpt lat="43.4354" lon="-0.34468">
        <ele>176.2</ele>
        <time>2026-08-31T11:05:05Z</time>
      </trkpt>
      <trkpt lat="43.43539" lon="-0.34468">
        <ele>176.2</ele>
        <time>2026-08-31T11:05:06Z</time>
      </trkpt>
      <trkpt lat="43.43539" lon="-0.34468">
        <ele>176.2</ele>
        <time>2026-08-31T11:05:06Z</time>
      </trkpt>
      <trkpt lat="43.43538" lon="-0.34469">
        <ele>176.2</ele>
        <time>2026-08-31T11:05:07Z</time>
      </trkpt>
      <trkpt lat="43.43537" lon="-0.34469">
        <ele>177.2</ele>
        <time>2026-08-31T11:05:08Z</time>
      </trkpt>
      <trkpt lat="43.43537" lon="-0.34469">
        <ele>177.2</ele>
        <time>2026-08-31T11:05:08Z</time>
      </trkpt>
      <trkpt lat="43.43537" lon="-0.3447">
        <ele>177.2</ele>
        <time>2026-08-31T11:05:09Z</time>
      </trkpt>
      <trkpt lat="43.43536" lon="-0.34471">
        <ele>177.2</ele>
        <time>2026-08-31T11:05:09Z</time>
      </trkpt>
      <trkpt lat="43.43536" lon="-0.34472">
        <ele>178.2</ele>
        <time>2026-08-31T11:05:10Z</time>
      </trkpt>
      <trkpt lat="43.43537" lon="-0.34472">
        <ele>178.2</ele>
        <time>2026-08-31T11:05:11Z</time>
      </trkpt>
      <trkpt lat="43.43537" lon="-0.34473">
        <ele>178.2</ele>
        <time>2026-08-31T11:05:12Z</time>
      </trkpt>
      <trkpt lat="43.43537" lon="-0.34474">
        <ele>179.2</ele>
        <time>2026-08-31T11:05:13Z</time>
      </trkpt>
      <trkpt lat="43.43537" lon="-0.34474">
        <ele>179.2</ele>
        <time>2026-08-31T11:05:14Z</time>
      </trkpt>
      <trkpt lat="43.43538" lon="-0.34475">
        <ele>179.2</ele>
        <time>2026-08-31T11:05:14Z</time>
      </trkpt>
      <trkpt lat="43.43537" lon="-0.34475">
        <ele>180.2</ele>
        <time>2026-08-31T11:05:16Z</time>
      </trkpt>
      <trkpt lat="43.43537" lon="-0.34474">
        <ele>181.2</ele>
        <time>2026-08-31T11:05:17Z</time>
      </trkpt>
      <trkpt lat="43.43537" lon="-0.34475">
        <ele>180.2</ele>
        <time>2026-08-31T11:05:18Z</time>
      </trkpt>
      <trkpt lat="43.43537" lon="-0.34475">
        <ele>180.2</ele>
        <time>2026-08-31T11:05:18Z</time>
      </trkpt>
      <trkpt lat="43.43537" lon="-0.34475">
        <ele>180.2</ele>
        <time>2026-08-31T11:05:20Z</time>
      </trkpt>
      <trkpt lat="43.43537" lon="-0.34475">
        <ele>180.2</ele>
        <time>2026-08-31T11:05:21Z</time>
      </trkpt>
      <trkpt lat="43.43537" lon="-0.34475">
        <ele>180.2</ele>
        <time>2026-08-31T11:05:22Z</time>
      </trkpt>
      <trkpt lat="43.43537" lon="-0.34475">
        <ele>180.2</ele>
        <time>2026-08-31T11:05:23Z</time>
      </trkpt>
      <trkpt lat="43.43537" lon="-0.34475">
        <ele>180.2</ele>
        <time>2026-08-31T11:05:24Z</time>
      </trkpt>
      <trkpt lat="43.43537" lon="-0.34475">
        <ele>179.2</ele>
        <time>2026-08-31T11:05:25Z</time>
      </trkpt>
      <trkpt lat="43.43536" lon="-0.34475">
        <ele>179.2</ele>
        <time>2026-08-31T11:05:26Z</time>
      </trkpt>
      <trkpt lat="43.43536" lon="-0.34475">
        <ele>179.2</ele>
        <time>2026-08-31T11:05:27Z</time>
      </trkpt>
      <trkpt lat="43.43536" lon="-0.34475">
        <ele>179.2</ele>
        <time>2026-08-31T11:05:28Z</time>
      </trkpt>
      <trkpt lat="43.43536" lon="-0.34475">
        <ele>179.2</ele>
        <time>2026-08-31T11:05:29Z</time>
      </trkpt>
      <trkpt lat="43.43536" lon="-0.34475">
        <ele>179.2</ele>
        <time>2026-08-31T11:05:30Z</time>
      </trkpt>
      <trkpt lat="43.43536" lon="-0.34475">
        <ele>179.2</ele>
        <time>2026-08-31T11:05:31Z</time>
      </trkpt>
      <trkpt lat="43.43536" lon="-0.34475">
        <ele>179.2</ele>
        <time>2026-08-31T11:05:32Z</time>
      </trkpt>
      <trkpt lat="43.43536" lon="-0.34475">
        <ele>179.2</ele>
        <time>2026-08-31T11:05:33Z</time>
      </trkpt>
      <trkpt lat="43.43536" lon="-0.34475">
        <ele>179.2</ele>
        <time>2026-08-31T11:05:34Z</time>
      </trkpt>
      <trkpt lat="43.43536" lon="-0.34475">
        <ele>179.2</ele>
        <time>2026-08-31T11:05:34Z</time>
      </trkpt>
      <trkpt lat="43.43536" lon="-0.34475">
        <ele>179.2</ele>
        <time>2026-08-31T11:05:35Z</time>
      </trkpt>
      <trkpt lat="43.43536" lon="-0.34475">
        <ele>179.2</ele>
        <time>2026-08-31T11:05:36Z</time>
      </trkpt>
      <trkpt lat="43.43536" lon="-0.34475">
        <ele>179.2</ele>
        <time>2026-08-31T11:05:37Z</time>
      </trkpt>
      <trkpt lat="43.43536" lon="-0.34476">
        <ele>180.2</ele>
        <time>2026-08-31T11:05:38Z</time>
      </trkpt>
      <trkpt lat="43.43536" lon="-0.34476">
        <ele>180.2</ele>
        <time>2026-08-31T11:05:39Z</time>
      </trkpt>
      <trkpt lat="43.43535" lon="-0.34476">
        <ele>180.2</ele>
        <time>2026-08-31T11:05:39Z</time>
      </trkpt>
      <trkpt lat="43.43535" lon="-0.34476">
        <ele>180.2</ele>
        <time>2026-08-31T11:05:40Z</time>
      </trkpt>
      <trkpt lat="43.43535" lon="-0.34476">
        <ele>180.2</ele>
        <time>2026-08-31T11:05:41Z</time>
      </trkpt>
      <trkpt lat="43.43535" lon="-0.34475">
        <ele>181.2</ele>
        <time>2026-08-31T11:05:41Z</time>
      </trkpt>
      <trkpt lat="43.43534" lon="-0.34475">
        <ele>181.2</ele>
        <time>2026-08-31T11:05:42Z</time>
      </trkpt>
      <trkpt lat="43.43533" lon="-0.34474">
        <ele>181.2</ele>
        <time>2026-08-31T11:05:43Z</time>
      </trkpt>
      <trkpt lat="43.43533" lon="-0.34474">
        <ele>182.2</ele>
        <time>2026-08-31T11:05:43Z</time>
      </trkpt>
      <trkpt lat="43.43532" lon="-0.34474">
        <ele>181.2</ele>
        <time>2026-08-31T11:05:44Z</time>
      </trkpt>
      <trkpt lat="43.43531" lon="-0.34474">
        <ele>181.2</ele>
        <time>2026-08-31T11:05:44Z</time>
      </trkpt>
      <trkpt lat="43.4353" lon="-0.34474">
        <ele>181.2</ele>
        <time>2026-08-31T11:05:45Z</time>
      </trkpt>
      <trkpt lat="43.43529" lon="-0.34475">
        <ele>181.2</ele>
        <time>2026-08-31T11:05:45Z</time>
      </trkpt>
      <trkpt lat="43.43529" lon="-0.34476">
        <ele>181.2</ele>
        <time>2026-08-31T11:05:46Z</time>
      </trkpt>
      <trkpt lat="43.43528" lon="-0.34477">
        <ele>181.2</ele>
        <time>2026-08-31T11:05:46Z</time>
      </trkpt>
      <trkpt lat="43.43528" lon="-0.34477">
        <ele>181.2</ele>
        <time>2026-08-31T11:05:47Z</time>
      </trkpt>
      <trkpt lat="43.43527" lon="-0.34478">
        <ele>181.2</ele>
        <time>2026-08-31T11:05:47Z</time>
      </trkpt>
      <trkpt lat="43.43527" lon="-0.34479">
        <ele>180.2</ele>
        <time>2026-08-31T11:05:48Z</time>
      </trkpt>
      <trkpt lat="43.43526" lon="-0.34479">
        <ele>180.2</ele>
        <time>2026-08-31T11:05:49Z</time>
      </trkpt>
      <trkpt lat="43.43526" lon="-0.3448">
        <ele>180.2</ele>
        <time>2026-08-31T11:05:49Z</time>
      </trkpt>
      <trkpt lat="43.43526" lon="-0.34481">
        <ele>180.2</ele>
        <time>2026-08-31T11:05:50Z</time>
      </trkpt>
      <trkpt lat="43.43525" lon="-0.34482">
        <ele>180.2</ele>
        <time>2026-08-31T11:05:51Z</time>
      </trkpt>
      <trkpt lat="43.43524" lon="-0.34484">
        <ele>181.2</ele>
        <time>2026-08-31T11:05:51Z</time>
      </trkpt>
      <trkpt lat="43.43524" lon="-0.34485">
        <ele>181.2</ele>
        <time>2026-08-31T11:05:52Z</time>
      </trkpt>
      <trkpt lat="43.43523" lon="-0.34486">
        <ele>181.2</ele>
        <time>2026-08-31T11:05:53Z</time>
      </trkpt>
      <trkpt lat="43.43523" lon="-0.34487">
        <ele>181.2</ele>
        <time>2026-08-31T11:05:53Z</time>
      </trkpt>
      <trkpt lat="43.43523" lon="-0.34488">
        <ele>182.2</ele>
        <time>2026-08-31T11:05:54Z</time>
      </trkpt>
      <trkpt lat="43.43523" lon="-0.34489">
        <ele>182.2</ele>
        <time>2026-08-31T11:05:54Z</time>
      </trkpt>
      <trkpt lat="43.43522" lon="-0.3449">
        <ele>182.2</ele>
        <time>2026-08-31T11:05:55Z</time>
      </trkpt>
      <trkpt lat="43.43522" lon="-0.34491">
        <ele>182.2</ele>
        <time>2026-08-31T11:05:55Z</time>
      </trkpt>
      <trkpt lat="43.43521" lon="-0.34492">
        <ele>182.2</ele>
        <time>2026-08-31T11:05:56Z</time>
      </trkpt>
      <trkpt lat="43.43521" lon="-0.34492">
        <ele>182.2</ele>
        <time>2026-08-31T11:05:56Z</time>
      </trkpt>
      <trkpt lat="43.43521" lon="-0.34493">
        <ele>182.2</ele>
        <time>2026-08-31T11:05:57Z</time>
      </trkpt>
      <trkpt lat="43.4352" lon="-0.34494">
        <ele>182.2</ele>
        <time>2026-08-31T11:05:58Z</time>
      </trkpt>
      <trkpt lat="43.4352" lon="-0.34495">
        <ele>182.2</ele>
        <time>2026-08-31T11:05:58Z</time>
      </trkpt>
      <trkpt lat="43.43519" lon="-0.34495">
        <ele>182.2</ele>
        <time>2026-08-31T11:05:59Z</time>
      </trkpt>
      <trkpt lat="43.43519" lon="-0.34496">
        <ele>181.2</ele>
        <time>2026-08-31T11:05:59Z</time>
      </trkpt>
      <trkpt lat="43.43519" lon="-0.34497">
        <ele>181.2</ele>
        <time>2026-08-31T11:06:00Z</time>
      </trkpt>
      <trkpt lat="43.43518" lon="-0.34498">
        <ele>181.2</ele>
        <time>2026-08-31T11:06:00Z</time>
      </trkpt>
      <trkpt lat="43.43518" lon="-0.34499">
        <ele>181.2</ele>
        <time>2026-08-31T11:06:01Z</time>
      </trkpt>
      <trkpt lat="43.43518" lon="-0.345">
        <ele>181.2</ele>
        <time>2026-08-31T11:06:01Z</time>
      </trkpt>
      <trkpt lat="43.43517" lon="-0.345">
        <ele>182.2</ele>
        <time>2026-08-31T11:06:02Z</time>
      </trkpt>
      <trkpt lat="43.43517" lon="-0.34501">
        <ele>182.2</ele>
        <time>2026-08-31T11:06:03Z</time>
      </trkpt>
      <trkpt lat="43.43516" lon="-0.34502">
        <ele>181.2</ele>
        <time>2026-08-31T11:06:03Z</time>
      </trkpt>
      <trkpt lat="43.43516" lon="-0.34503">
        <ele>182.2</ele>
        <time>2026-08-31T11:06:04Z</time>
      </trkpt>
      <trkpt lat="43.43516" lon="-0.34504">
        <ele>182.2</ele>
        <time>2026-08-31T11:06:04Z</time>
      </trkpt>
      <trkpt lat="43.43515" lon="-0.34504">
        <ele>182.2</ele>
        <time>2026-08-31T11:06:05Z</time>
      </trkpt>
      <trkpt lat="43.43515" lon="-0.34505">
        <ele>182.2</ele>
        <time>2026-08-31T11:06:05Z</time>
      </trkpt>
      <trkpt lat="43.43514" lon="-0.34506">
        <ele>183.2</ele>
        <time>2026-08-31T11:06:06Z</time>
      </trkpt>
      <trkpt lat="43.43514" lon="-0.34507">
        <ele>182.2</ele>
        <time>2026-08-31T11:06:07Z</time>
      </trkpt>
      <trkpt lat="43.43513" lon="-0.34508">
        <ele>182.2</ele>
        <time>2026-08-31T11:06:08Z</time>
      </trkpt>
      <trkpt lat="43.43512" lon="-0.34508">
        <ele>182.2</ele>
        <time>2026-08-31T11:06:08Z</time>
      </trkpt>
      <trkpt lat="43.43512" lon="-0.34509">
        <ele>182.2</ele>
        <time>2026-08-31T11:06:09Z</time>
      </trkpt>
      <trkpt lat="43.43511" lon="-0.34509">
        <ele>182.2</ele>
        <time>2026-08-31T11:06:09Z</time>
      </trkpt>
      <trkpt lat="43.43511" lon="-0.3451">
        <ele>183.2</ele>
        <time>2026-08-31T11:06:10Z</time>
      </trkpt>
      <trkpt lat="43.4351" lon="-0.34511">
        <ele>183.2</ele>
        <time>2026-08-31T11:06:11Z</time>
      </trkpt>
      <trkpt lat="43.4351" lon="-0.34511">
        <ele>183.2</ele>
        <time>2026-08-31T11:06:11Z</time>
      </trkpt>
      <trkpt lat="43.43509" lon="-0.34512">
        <ele>183.2</ele>
        <time>2026-08-31T11:06:12Z</time>
      </trkpt>
      <trkpt lat="43.43509" lon="-0.34512">
        <ele>183.2</ele>
        <time>2026-08-31T11:06:12Z</time>
      </trkpt>
      <trkpt lat="43.43508" lon="-0.34513">
        <ele>183.2</ele>
        <time>2026-08-31T11:06:13Z</time>
      </trkpt>
      <trkpt lat="43.43507" lon="-0.34514">
        <ele>183.2</ele>
        <time>2026-08-31T11:06:13Z</time>
      </trkpt>
      <trkpt lat="43.43507" lon="-0.34514">
        <ele>183.2</ele>
        <time>2026-08-31T11:06:14Z</time>
      </trkpt>
      <trkpt lat="43.43507" lon="-0.34515">
        <ele>183.2</ele>
        <time>2026-08-31T11:06:14Z</time>
      </trkpt>
      <trkpt lat="43.43506" lon="-0.34516">
        <ele>183.2</ele>
        <time>2026-08-31T11:06:15Z</time>
      </trkpt>
      <trkpt lat="43.43506" lon="-0.34516">
        <ele>183.2</ele>
        <time>2026-08-31T11:06:16Z</time>
      </trkpt>
      <trkpt lat="43.43505" lon="-0.34517">
        <ele>184.2</ele>
        <time>2026-08-31T11:06:16Z</time>
      </trkpt>
      <trkpt lat="43.43505" lon="-0.34517">
        <ele>184.2</ele>
        <time>2026-08-31T11:06:17Z</time>
      </trkpt>
      <trkpt lat="43.43504" lon="-0.34518">
        <ele>184.2</ele>
        <time>2026-08-31T11:06:17Z</time>
      </trkpt>
      <trkpt lat="43.43503" lon="-0.34518">
        <ele>183.2</ele>
        <time>2026-08-31T11:06:18Z</time>
      </trkpt>
      <trkpt lat="43.43503" lon="-0.34519">
        <ele>183.2</ele>
        <time>2026-08-31T11:06:18Z</time>
      </trkpt>
      <trkpt lat="43.43502" lon="-0.34519">
        <ele>184.2</ele>
        <time>2026-08-31T11:06:19Z</time>
      </trkpt>
      <trkpt lat="43.43502" lon="-0.3452">
        <ele>184.2</ele>
        <time>2026-08-31T11:06:20Z</time>
      </trkpt>
      <trkpt lat="43.43501" lon="-0.3452">
        <ele>183.2</ele>
        <time>2026-08-31T11:06:20Z</time>
      </trkpt>
      <trkpt lat="43.435" lon="-0.34521">
        <ele>183.2</ele>
        <time>2026-08-31T11:06:21Z</time>
      </trkpt>
      <trkpt lat="43.435" lon="-0.34521">
        <ele>183.2</ele>
        <time>2026-08-31T11:06:21Z</time>
      </trkpt>
      <trkpt lat="43.43499" lon="-0.34522">
        <ele>183.2</ele>
        <time>2026-08-31T11:06:22Z</time>
      </trkpt>
      <trkpt lat="43.43499" lon="-0.34522">
        <ele>183.2</ele>
        <time>2026-08-31T11:06:22Z</time>
      </trkpt>
      <trkpt lat="43.43498" lon="-0.34523">
        <ele>183.2</ele>
        <time>2026-08-31T11:06:23Z</time>
      </trkpt>
      <trkpt lat="43.43498" lon="-0.34523">
        <ele>183.2</ele>
        <time>2026-08-31T11:06:23Z</time>
      </trkpt>
      <trkpt lat="43.43497" lon="-0.34524">
        <ele>183.2</ele>
        <time>2026-08-31T11:06:24Z</time>
      </trkpt>
      <trkpt lat="43.43496" lon="-0.34524">
        <ele>183.2</ele>
        <time>2026-08-31T11:06:24Z</time>
      </trkpt>
      <trkpt lat="43.43496" lon="-0.34525">
        <ele>183.2</ele>
        <time>2026-08-31T11:06:25Z</time>
      </trkpt>
      <trkpt lat="43.43495" lon="-0.34525">
        <ele>183.2</ele>
        <time>2026-08-31T11:06:26Z</time>
      </trkpt>
      <trkpt lat="43.43494" lon="-0.34526">
        <ele>183.2</ele>
        <time>2026-08-31T11:06:26Z</time>
      </trkpt>
      <trkpt lat="43.43494" lon="-0.34526">
        <ele>183.2</ele>
        <time>2026-08-31T11:06:27Z</time>
      </trkpt>
      <trkpt lat="43.43493" lon="-0.34526">
        <ele>183.2</ele>
        <time>2026-08-31T11:06:27Z</time>
      </trkpt>
      <trkpt lat="43.43493" lon="-0.34527">
        <ele>183.2</ele>
        <time>2026-08-31T11:06:28Z</time>
      </trkpt>
      <trkpt lat="43.43492" lon="-0.34527">
        <ele>183.2</ele>
        <time>2026-08-31T11:06:28Z</time>
      </trkpt>
      <trkpt lat="43.43491" lon="-0.34528">
        <ele>183.2</ele>
        <time>2026-08-31T11:06:29Z</time>
      </trkpt>
      <trkpt lat="43.43491" lon="-0.34528">
        <ele>183.2</ele>
        <time>2026-08-31T11:06:29Z</time>
      </trkpt>
      <trkpt lat="43.4349" lon="-0.34528">
        <ele>183.2</ele>
        <time>2026-08-31T11:06:30Z</time>
      </trkpt>
      <trkpt lat="43.43489" lon="-0.34529">
        <ele>183.2</ele>
        <time>2026-08-31T11:06:31Z</time>
      </trkpt>
      <trkpt lat="43.43489" lon="-0.34529">
        <ele>183.2</ele>
        <time>2026-08-31T11:06:31Z</time>
      </trkpt>
      <trkpt lat="43.43488" lon="-0.34529">
        <ele>183.2</ele>
        <time>2026-08-31T11:06:32Z</time>
      </trkpt>
      <trkpt lat="43.43487" lon="-0.34529">
        <ele>183.2</ele>
        <time>2026-08-31T11:06:32Z</time>
      </trkpt>
      <trkpt lat="43.43487" lon="-0.3453">
        <ele>183.2</ele>
        <time>2026-08-31T11:06:33Z</time>
      </trkpt>
      <trkpt lat="43.43486" lon="-0.3453">
        <ele>183.2</ele>
        <time>2026-08-31T11:06:33Z</time>
      </trkpt>
      <trkpt lat="43.43485" lon="-0.3453">
        <ele>184.2</ele>
        <time>2026-08-31T11:06:34Z</time>
      </trkpt>
      <trkpt lat="43.43485" lon="-0.34531">
        <ele>184.2</ele>
        <time>2026-08-31T11:06:34Z</time>
      </trkpt>
      <trkpt lat="43.43484" lon="-0.34531">
        <ele>184.2</ele>
        <time>2026-08-31T11:06:35Z</time>
      </trkpt>
      <trkpt lat="43.43483" lon="-0.34531">
        <ele>184.2</ele>
        <time>2026-08-31T11:06:35Z</time>
      </trkpt>
      <trkpt lat="43.43483" lon="-0.34531">
        <ele>184.2</ele>
        <time>2026-08-31T11:06:36Z</time>
      </trkpt>
      <trkpt lat="43.43482" lon="-0.34532">
        <ele>184.2</ele>
        <time>2026-08-31T11:06:37Z</time>
      </trkpt>
      <trkpt lat="43.43481" lon="-0.34532">
        <ele>184.2</ele>
        <time>2026-08-31T11:06:37Z</time>
      </trkpt>
      <trkpt lat="43.43481" lon="-0.34532">
        <ele>184.2</ele>
        <time>2026-08-31T11:06:38Z</time>
      </trkpt>
      <trkpt lat="43.4348" lon="-0.34533">
        <ele>184.2</ele>
        <time>2026-08-31T11:06:38Z</time>
      </trkpt>
      <trkpt lat="43.43479" lon="-0.34533">
        <ele>185.2</ele>
        <time>2026-08-31T11:06:39Z</time>
      </trkpt>
      <trkpt lat="43.43478" lon="-0.34534">
        <ele>185.2</ele>
        <time>2026-08-31T11:06:40Z</time>
      </trkpt>
      <trkpt lat="43.43477" lon="-0.34534">
        <ele>184.2</ele>
        <time>2026-08-31T11:06:40Z</time>
      </trkpt>
      <trkpt lat="43.43477" lon="-0.34534">
        <ele>184.2</ele>
        <time>2026-08-31T11:06:41Z</time>
      </trkpt>
      <trkpt lat="43.43476" lon="-0.34535">
        <ele>184.2</ele>
        <time>2026-08-31T11:06:41Z</time>
      </trkpt>
      <trkpt lat="43.43475" lon="-0.34535">
        <ele>183.2</ele>
        <time>2026-08-31T11:06:42Z</time>
      </trkpt>
      <trkpt lat="43.43474" lon="-0.34535">
        <ele>183.2</ele>
        <time>2026-08-31T11:06:43Z</time>
      </trkpt>
      <trkpt lat="43.43473" lon="-0.34535">
        <ele>183.2</ele>
        <time>2026-08-31T11:06:43Z</time>
      </trkpt>
      <trkpt lat="43.43473" lon="-0.34535">
        <ele>183.2</ele>
        <time>2026-08-31T11:06:44Z</time>
      </trkpt>
      <trkpt lat="43.43472" lon="-0.34536">
        <ele>183.2</ele>
        <time>2026-08-31T11:06:44Z</time>
      </trkpt>
      <trkpt lat="43.43471" lon="-0.34536">
        <ele>183.2</ele>
        <time>2026-08-31T11:06:45Z</time>
      </trkpt>
      <trkpt lat="43.43471" lon="-0.34536">
        <ele>183.2</ele>
        <time>2026-08-31T11:06:45Z</time>
      </trkpt>
      <trkpt lat="43.4347" lon="-0.34536">
        <ele>182.2</ele>
        <time>2026-08-31T11:06:46Z</time>
      </trkpt>
      <trkpt lat="43.43469" lon="-0.34536">
        <ele>182.2</ele>
        <time>2026-08-31T11:06:47Z</time>
      </trkpt>
      <trkpt lat="43.43468" lon="-0.34537">
        <ele>182.2</ele>
        <time>2026-08-31T11:06:47Z</time>
      </trkpt>
      <trkpt lat="43.43467" lon="-0.34537">
        <ele>182.2</ele>
        <time>2026-08-31T11:06:48Z</time>
      </trkpt>
      <trkpt lat="43.43466" lon="-0.34537">
        <ele>182.2</ele>
        <time>2026-08-31T11:06:49Z</time>
      </trkpt>
      <trkpt lat="43.43466" lon="-0.34537">
        <ele>182.2</ele>
        <time>2026-08-31T11:06:49Z</time>
      </trkpt>
      <trkpt lat="43.43464" lon="-0.34537">
        <ele>182.2</ele>
        <time>2026-08-31T11:06:50Z</time>
      </trkpt>
      <trkpt lat="43.43464" lon="-0.34538">
        <ele>182.2</ele>
        <time>2026-08-31T11:06:51Z</time>
      </trkpt>
      <trkpt lat="43.43463" lon="-0.34538">
        <ele>182.2</ele>
        <time>2026-08-31T11:06:51Z</time>
      </trkpt>
      <trkpt lat="43.43462" lon="-0.34538">
        <ele>182.2</ele>
        <time>2026-08-31T11:06:52Z</time>
      </trkpt>
      <trkpt lat="43.43461" lon="-0.34539">
        <ele>181.2</ele>
        <time>2026-08-31T11:06:52Z</time>
      </trkpt>
      <trkpt lat="43.4346" lon="-0.3454">
        <ele>181.2</ele>
        <time>2026-08-31T11:06:53Z</time>
      </trkpt>
      <trkpt lat="43.43459" lon="-0.3454">
        <ele>181.2</ele>
        <time>2026-08-31T11:06:54Z</time>
      </trkpt>
      <trkpt lat="43.43459" lon="-0.34541">
        <ele>181.2</ele>
        <time>2026-08-31T11:06:55Z</time>
      </trkpt>
      <trkpt lat="43.43458" lon="-0.34541">
        <ele>181.2</ele>
        <time>2026-08-31T11:06:56Z</time>
      </trkpt>
      <trkpt lat="43.43457" lon="-0.34542">
        <ele>181.2</ele>
        <time>2026-08-31T11:06:57Z</time>
      </trkpt>
      <trkpt lat="43.43456" lon="-0.34542">
        <ele>181.2</ele>
        <time>2026-08-31T11:06:57Z</time>
      </trkpt>
      <trkpt lat="43.43455" lon="-0.34542">
        <ele>181.2</ele>
        <time>2026-08-31T11:06:58Z</time>
      </trkpt>
      <trkpt lat="43.43455" lon="-0.34543">
        <ele>181.2</ele>
        <time>2026-08-31T11:06:58Z</time>
      </trkpt>
      <trkpt lat="43.43454" lon="-0.34543">
        <ele>181.2</ele>
        <time>2026-08-31T11:06:59Z</time>
      </trkpt>
      <trkpt lat="43.43454" lon="-0.34543">
        <ele>181.2</ele>
        <time>2026-08-31T11:06:59Z</time>
      </trkpt>
      <trkpt lat="43.43453" lon="-0.34543">
        <ele>181.2</ele>
        <time>2026-08-31T11:07:00Z</time>
      </trkpt>
      <trkpt lat="43.43452" lon="-0.34544">
        <ele>181.2</ele>
        <time>2026-08-31T11:07:00Z</time>
      </trkpt>
      <trkpt lat="43.43452" lon="-0.34544">
        <ele>182.2</ele>
        <time>2026-08-31T11:07:01Z</time>
      </trkpt>
      <trkpt lat="43.43451" lon="-0.34544">
        <ele>182.2</ele>
        <time>2026-08-31T11:07:01Z</time>
      </trkpt>
      <trkpt lat="43.4345" lon="-0.34544">
        <ele>182.2</ele>
        <time>2026-08-31T11:07:02Z</time>
      </trkpt>
      <trkpt lat="43.4345" lon="-0.34544">
        <ele>182.2</ele>
        <time>2026-08-31T11:07:02Z</time>
      </trkpt>
      <trkpt lat="43.43449" lon="-0.34545">
        <ele>182.2</ele>
        <time>2026-08-31T11:07:03Z</time>
      </trkpt>
      <trkpt lat="43.43449" lon="-0.34545">
        <ele>182.2</ele>
        <time>2026-08-31T11:07:04Z</time>
      </trkpt>
      <trkpt lat="43.43448" lon="-0.34545">
        <ele>182.2</ele>
        <time>2026-08-31T11:07:04Z</time>
      </trkpt>
      <trkpt lat="43.43447" lon="-0.34545">
        <ele>182.2</ele>
        <time>2026-08-31T11:07:05Z</time>
      </trkpt>
      <trkpt lat="43.43447" lon="-0.34545">
        <ele>182.2</ele>
        <time>2026-08-31T11:07:05Z</time>
      </trkpt>
      <trkpt lat="43.43446" lon="-0.34546">
        <ele>181.2</ele>
        <time>2026-08-31T11:07:06Z</time>
      </trkpt>
      <trkpt lat="43.43445" lon="-0.34546">
        <ele>181.2</ele>
        <time>2026-08-31T11:07:07Z</time>
      </trkpt>
      <trkpt lat="43.43444" lon="-0.34547">
        <ele>181.2</ele>
        <time>2026-08-31T11:07:07Z</time>
      </trkpt>
      <trkpt lat="43.43444" lon="-0.34547">
        <ele>181.2</ele>
        <time>2026-08-31T11:07:08Z</time>
      </trkpt>
      <trkpt lat="43.43443" lon="-0.34547">
        <ele>181.2</ele>
        <time>2026-08-31T11:07:09Z</time>
      </trkpt>
      <trkpt lat="43.43443" lon="-0.34547">
        <ele>181.2</ele>
        <time>2026-08-31T11:07:09Z</time>
      </trkpt>
      <trkpt lat="43.43442" lon="-0.34547">
        <ele>182.2</ele>
        <time>2026-08-31T11:07:10Z</time>
      </trkpt>
      <trkpt lat="43.43442" lon="-0.34547">
        <ele>182.2</ele>
        <time>2026-08-31T11:07:10Z</time>
      </trkpt>
      <trkpt lat="43.43441" lon="-0.34547">
        <ele>182.2</ele>
        <time>2026-08-31T11:07:11Z</time>
      </trkpt>
      <trkpt lat="43.4344" lon="-0.34546">
        <ele>182.2</ele>
        <time>2026-08-31T11:07:12Z</time>
      </trkpt>
      <trkpt lat="43.4344" lon="-0.34546">
        <ele>182.2</ele>
        <time>2026-08-31T11:07:12Z</time>
      </trkpt>
      <trkpt lat="43.43439" lon="-0.34545">
        <ele>182.2</ele>
        <time>2026-08-31T11:07:13Z</time>
      </trkpt>
      <trkpt lat="43.43439" lon="-0.34545">
        <ele>182.2</ele>
        <time>2026-08-31T11:07:13Z</time>
      </trkpt>
      <trkpt lat="43.43439" lon="-0.34544">
        <ele>182.2</ele>
        <time>2026-08-31T11:07:14Z</time>
      </trkpt>
      <trkpt lat="43.43439" lon="-0.34543">
        <ele>182.2</ele>
        <time>2026-08-31T11:07:14Z</time>
      </trkpt>
      <trkpt lat="43.43439" lon="-0.34542">
        <ele>183.2</ele>
        <time>2026-08-31T11:07:15Z</time>
      </trkpt>
      <trkpt lat="43.43439" lon="-0.34542">
        <ele>183.2</ele>
        <time>2026-08-31T11:07:16Z</time>
      </trkpt>
      <trkpt lat="43.43439" lon="-0.34541">
        <ele>183.2</ele>
        <time>2026-08-31T11:07:16Z</time>
      </trkpt>
      <trkpt lat="43.43438" lon="-0.3454">
        <ele>183.2</ele>
        <time>2026-08-31T11:07:17Z</time>
      </trkpt>
      <trkpt lat="43.43438" lon="-0.34539">
        <ele>182.2</ele>
        <time>2026-08-31T11:07:18Z</time>
      </trkpt>
      <trkpt lat="43.43438" lon="-0.34538">
        <ele>182.2</ele>
        <time>2026-08-31T11:07:19Z</time>
      </trkpt>
      <trkpt lat="43.43439" lon="-0.34538">
        <ele>182.2</ele>
        <time>2026-08-31T11:07:20Z</time>
      </trkpt>
      <trkpt lat="43.43439" lon="-0.34538">
        <ele>183.2</ele>
        <time>2026-08-31T11:07:21Z</time>
      </trkpt>
      <trkpt lat="43.43439" lon="-0.34538">
        <ele>182.2</ele>
        <time>2026-08-31T11:07:22Z</time>
      </trkpt>
      <trkpt lat="43.43438" lon="-0.34538">
        <ele>182.2</ele>
        <time>2026-08-31T11:07:23Z</time>
      </trkpt>
      <trkpt lat="43.43438" lon="-0.34538">
        <ele>182.2</ele>
        <time>2026-08-31T11:07:24Z</time>
      </trkpt>
      <trkpt lat="43.43438" lon="-0.34538">
        <ele>182.2</ele>
        <time>2026-08-31T11:07:25Z</time>
      </trkpt>
      <trkpt lat="43.43438" lon="-0.34538">
        <ele>182.2</ele>
        <time>2026-08-31T11:07:26Z</time>
      </trkpt>
      <trkpt lat="43.43438" lon="-0.34538">
        <ele>182.2</ele>
        <time>2026-08-31T11:07:27Z</time>
      </trkpt>
      <trkpt lat="43.43438" lon="-0.34538">
        <ele>182.2</ele>
        <time>2026-08-31T11:07:28Z</time>
      </trkpt>
      <trkpt lat="43.43438" lon="-0.34538">
        <ele>182.2</ele>
        <time>2026-08-31T11:07:29Z</time>
      </trkpt>
      <trkpt lat="43.43438" lon="-0.34538">
        <ele>182.2</ele>
        <time>2026-08-31T11:07:29Z</time>
      </trkpt>
      <trkpt lat="43.43438" lon="-0.34538">
        <ele>182.2</ele>
        <time>2026-08-31T11:07:31Z</time>
      </trkpt>
      <trkpt lat="43.43438" lon="-0.34537">
        <ele>182.2</ele>
        <time>2026-08-31T11:07:32Z</time>
      </trkpt>
      <trkpt lat="43.43438" lon="-0.34537">
        <ele>182.2</ele>
        <time>2026-08-31T11:07:33Z</time>
      </trkpt>
      <trkpt lat="43.43438" lon="-0.34537">
        <ele>182.2</ele>
        <time>2026-08-31T11:07:34Z</time>
      </trkpt>
      <trkpt lat="43.43438" lon="-0.34537">
        <ele>182.2</ele>
        <time>2026-08-31T11:07:35Z</time>
      </trkpt>
      <trkpt lat="43.43438" lon="-0.34537">
        <ele>181.2</ele>
        <time>2026-08-31T11:07:36Z</time>
      </trkpt>
      <trkpt lat="43.43438" lon="-0.34537">
        <ele>181.2</ele>
        <time>2026-08-31T11:07:37Z</time>
      </trkpt>
      <trkpt lat="43.43438" lon="-0.34537">
        <ele>182.2</ele>
        <time>2026-08-31T11:07:38Z</time>
      </trkpt>
      <trkpt lat="43.43438" lon="-0.34537">
        <ele>182.2</ele>
        <time>2026-08-31T11:07:39Z</time>
      </trkpt>
      <trkpt lat="43.43438" lon="-0.34537">
        <ele>182.2</ele>
        <time>2026-08-31T11:07:40Z</time>
      </trkpt>
      <trkpt lat="43.43437" lon="-0.34537">
        <ele>182.2</ele>
        <time>2026-08-31T11:07:41Z</time>
      </trkpt>
      <trkpt lat="43.43437" lon="-0.34537">
        <ele>182.2</ele>
        <time>2026-08-31T11:07:42Z</time>
      </trkpt>
      <trkpt lat="43.43437" lon="-0.34537">
        <ele>182.2</ele>
        <time>2026-08-31T11:07:43Z</time>
      </trkpt>
      <trkpt lat="43.43437" lon="-0.34537">
        <ele>182.2</ele>
        <time>2026-08-31T11:07:44Z</time>
      </trkpt>
      <trkpt lat="43.43437" lon="-0.34537">
        <ele>182.2</ele>
        <time>2026-08-31T11:07:45Z</time>
      </trkpt>
      <trkpt lat="43.43437" lon="-0.34537">
        <ele>182.2</ele>
        <time>2026-08-31T11:07:46Z</time>
      </trkpt>
      <trkpt lat="43.43437" lon="-0.34537">
        <ele>182.2</ele>
        <time>2026-08-31T11:07:47Z</time>
      </trkpt>
      <trkpt lat="43.43437" lon="-0.34537">
        <ele>182.2</ele>
        <time>2026-08-31T11:07:48Z</time>
      </trkpt>
      <trkpt lat="43.43437" lon="-0.34537">
        <ele>182.2</ele>
        <time>2026-08-31T11:07:49Z</time>
      </trkpt>
      <trkpt lat="43.43437" lon="-0.34537">
        <ele>182.2</ele>
        <time>2026-08-31T11:07:50Z</time>
      </trkpt>
      <trkpt lat="43.43437" lon="-0.34537">
        <ele>183.2</ele>
        <time>2026-08-31T11:07:51Z</time>
      </trkpt>
      <trkpt lat="43.43437" lon="-0.34537">
        <ele>183.2</ele>
        <time>2026-08-31T11:07:52Z</time>
      </trkpt>
      <trkpt lat="43.43437" lon="-0.34536">
        <ele>183.2</ele>
        <time>2026-08-31T11:07:53Z</time>
      </trkpt>
      <trkpt lat="43.43437" lon="-0.34535">
        <ele>184.2</ele>
        <time>2026-08-31T11:07:54Z</time>
      </trkpt>
      <trkpt lat="43.43437" lon="-0.34535">
        <ele>184.2</ele>
        <time>2026-08-31T11:07:55Z</time>
      </trkpt>
      <trkpt lat="43.43437" lon="-0.34535">
        <ele>184.2</ele>
        <time>2026-08-31T11:07:56Z</time>
      </trkpt>
      <trkpt lat="43.43437" lon="-0.34535">
        <ele>184.2</ele>
        <time>2026-08-31T11:07:57Z</time>
      </trkpt>
      <trkpt lat="43.43437" lon="-0.34535">
        <ele>184.2</ele>
        <time>2026-08-31T11:07:58Z</time>
      </trkpt>
      <trkpt lat="43.43437" lon="-0.34536">
        <ele>184.2</ele>
        <time>2026-08-31T11:07:59Z</time>
      </trkpt>
      <trkpt lat="43.43437" lon="-0.34536">
        <ele>184.2</ele>
        <time>2026-08-31T11:08:00Z</time>
      </trkpt>
      <trkpt lat="43.43437" lon="-0.34536">
        <ele>184.2</ele>
        <time>2026-08-31T11:08:01Z</time>
      </trkpt>
      <trkpt lat="43.43437" lon="-0.34536">
        <ele>184.2</ele>
        <time>2026-08-31T11:08:02Z</time>
      </trkpt>
      <trkpt lat="43.43437" lon="-0.34536">
        <ele>184.2</ele>
        <time>2026-08-31T11:08:03Z</time>
      </trkpt>
      <trkpt lat="43.43437" lon="-0.34536">
        <ele>184.2</ele>
        <time>2026-08-31T11:08:04Z</time>
      </trkpt>
      <trkpt lat="43.43437" lon="-0.34536">
        <ele>184.2</ele>
        <time>2026-08-31T11:08:05Z</time>
      </trkpt>
      <trkpt lat="43.43437" lon="-0.34536">
        <ele>184.2</ele>
        <time>2026-08-31T11:08:06Z</time>
      </trkpt>
      <trkpt lat="43.43437" lon="-0.34536">
        <ele>184.2</ele>
        <time>2026-08-31T11:08:07Z</time>
      </trkpt>
      <trkpt lat="43.43438" lon="-0.34536">
        <ele>184.2</ele>
        <time>2026-08-31T11:08:08Z</time>
      </trkpt>
      <trkpt lat="43.43438" lon="-0.34536">
        <ele>184.2</ele>
        <time>2026-08-31T11:08:09Z</time>
      </trkpt>
      <trkpt lat="43.43438" lon="-0.34536">
        <ele>184.2</ele>
        <time>2026-08-31T11:08:10Z</time>
      </trkpt>
      <trkpt lat="43.43438" lon="-0.34536">
        <ele>184.2</ele>
        <time>2026-08-31T11:08:11Z</time>
      </trkpt>
      <trkpt lat="43.43438" lon="-0.34536">
        <ele>184.2</ele>
        <time>2026-08-31T11:08:12Z</time>
      </trkpt>
      <trkpt lat="43.43438" lon="-0.34536">
        <ele>184.2</ele>
        <time>2026-08-31T11:08:13Z</time>
      </trkpt>
      <trkpt lat="43.43438" lon="-0.34536">
        <ele>184.2</ele>
        <time>2026-08-31T11:08:14Z</time>
      </trkpt>
      <trkpt lat="43.43438" lon="-0.34536">
        <ele>184.2</ele>
        <time>2026-08-31T11:08:15Z</time>
      </trkpt>
      <trkpt lat="43.43438" lon="-0.34536">
        <ele>184.2</ele>
        <time>2026-08-31T11:08:16Z</time>
      </trkpt>
      <trkpt lat="43.43438" lon="-0.34536">
        <ele>184.2</ele>
        <time>2026-08-31T11:08:17Z</time>
      </trkpt>
      <trkpt lat="43.43438" lon="-0.34536">
        <ele>184.2</ele>
        <time>2026-08-31T11:08:18Z</time>
      </trkpt>
      <trkpt lat="43.43438" lon="-0.34536">
        <ele>184.2</ele>
        <time>2026-08-31T11:08:19Z</time>
      </trkpt>
      <trkpt lat="43.43438" lon="-0.34536">
        <ele>184.2</ele>
        <time>2026-08-31T11:08:20Z</time>
      </trkpt>
      <trkpt lat="43.43438" lon="-0.34536">
        <ele>184.2</ele>
        <time>2026-08-31T11:08:21Z</time>
      </trkpt>
      <trkpt lat="43.43438" lon="-0.34536">
        <ele>184.2</ele>
        <time>2026-08-31T11:08:22Z</time>
      </trkpt>
      <trkpt lat="43.43438" lon="-0.34536">
        <ele>184.2</ele>
        <time>2026-08-31T11:08:23Z</time>
      </trkpt>
      <trkpt lat="43.43438" lon="-0.34536">
        <ele>184.2</ele>
        <time>2026-08-31T11:08:24Z</time>
      </trkpt>
      <trkpt lat="43.43438" lon="-0.34536">
        <ele>184.2</ele>
        <time>2026-08-31T11:08:25Z</time>
      </trkpt>
      <trkpt lat="43.43438" lon="-0.34536">
        <ele>184.2</ele>
        <time>2026-08-31T11:08:26Z</time>
      </trkpt>
      <trkpt lat="43.43438" lon="-0.34536">
        <ele>184.2</ele>
        <time>2026-08-31T11:08:27Z</time>
      </trkpt>
      <trkpt lat="43.43438" lon="-0.34536">
        <ele>184.2</ele>
        <time>2026-08-31T11:08:28Z</time>
      </trkpt>
      <trkpt lat="43.43438" lon="-0.34536">
        <ele>184.2</ele>
        <time>2026-08-31T11:08:29Z</time>
      </trkpt>
      <trkpt lat="43.43438" lon="-0.34536">
        <ele>184.2</ele>
        <time>2026-08-31T11:08:30Z</time>
      </trkpt>
      <trkpt lat="43.43438" lon="-0.34536">
        <ele>184.2</ele>
        <time>2026-08-31T11:08:31Z</time>
      </trkpt>
      <trkpt lat="43.43438" lon="-0.34536">
        <ele>184.2</ele>
        <time>2026-08-31T11:08:32Z</time>
      </trkpt>
      <trkpt lat="43.43438" lon="-0.34536">
        <ele>183.2</ele>
        <time>2026-08-31T11:08:33Z</time>
      </trkpt>
      <trkpt lat="43.43438" lon="-0.34537">
        <ele>183.2</ele>
        <time>2026-08-31T11:08:33Z</time>
      </trkpt>
      <trkpt lat="43.43438" lon="-0.34537">
        <ele>184.2</ele>
        <time>2026-08-31T11:08:34Z</time>
      </trkpt>
      <trkpt lat="43.43438" lon="-0.34537">
        <ele>184.2</ele>
        <time>2026-08-31T11:08:35Z</time>
      </trkpt>
      <trkpt lat="43.43437" lon="-0.34537">
        <ele>182.2</ele>
        <time>2026-08-31T11:08:36Z</time>
      </trkpt>
      <trkpt lat="43.43437" lon="-0.34539">
        <ele>182.2</ele>
        <time>2026-08-31T11:08:37Z</time>
      </trkpt>
      <trkpt lat="43.43436" lon="-0.34539">
        <ele>182.2</ele>
        <time>2026-08-31T11:08:38Z</time>
      </trkpt>
      <trkpt lat="43.43436" lon="-0.34541">
        <ele>182.2</ele>
        <time>2026-08-31T11:08:38Z</time>
      </trkpt>
      <trkpt lat="43.43436" lon="-0.34541">
        <ele>182.2</ele>
        <time>2026-08-31T11:08:39Z</time>
      </trkpt>
      <trkpt lat="43.43436" lon="-0.34543">
        <ele>182.2</ele>
        <time>2026-08-31T11:08:39Z</time>
      </trkpt>
      <trkpt lat="43.43436" lon="-0.34544">
        <ele>182.2</ele>
        <time>2026-08-31T11:08:40Z</time>
      </trkpt>
      <trkpt lat="43.43436" lon="-0.34545">
        <ele>182.2</ele>
        <time>2026-08-31T11:08:40Z</time>
      </trkpt>
      <trkpt lat="43.43436" lon="-0.34547">
        <ele>181.2</ele>
        <time>2026-08-31T11:08:41Z</time>
      </trkpt>
      <trkpt lat="43.43435" lon="-0.34548">
        <ele>181.2</ele>
        <time>2026-08-31T11:08:42Z</time>
      </trkpt>
      <trkpt lat="43.43433" lon="-0.34548">
        <ele>181.2</ele>
        <time>2026-08-31T11:08:44Z</time>
      </trkpt>
      <trkpt lat="43.43433" lon="-0.34549">
        <ele>181.2</ele>
        <time>2026-08-31T11:08:44Z</time>
      </trkpt>
      <trkpt lat="43.43432" lon="-0.34549">
        <ele>181.2</ele>
        <time>2026-08-31T11:08:45Z</time>
      </trkpt>
      <trkpt lat="43.43431" lon="-0.34549">
        <ele>181.2</ele>
        <time>2026-08-31T11:08:46Z</time>
      </trkpt>
      <trkpt lat="43.43431" lon="-0.34549">
        <ele>181.2</ele>
        <time>2026-08-31T11:08:46Z</time>
      </trkpt>
      <trkpt lat="43.43431" lon="-0.34549">
        <ele>182.2</ele>
        <time>2026-08-31T11:08:47Z</time>
      </trkpt>
      <trkpt lat="43.4343" lon="-0.3455">
        <ele>182.2</ele>
        <time>2026-08-31T11:08:47Z</time>
      </trkpt>
      <trkpt lat="43.4343" lon="-0.3455">
        <ele>182.2</ele>
        <time>2026-08-31T11:08:48Z</time>
      </trkpt>
      <trkpt lat="43.43429" lon="-0.3455">
        <ele>182.2</ele>
        <time>2026-08-31T11:08:48Z</time>
      </trkpt>
      <trkpt lat="43.43428" lon="-0.34551">
        <ele>182.2</ele>
        <time>2026-08-31T11:08:49Z</time>
      </trkpt>
      <trkpt lat="43.43428" lon="-0.34551">
        <ele>182.2</ele>
        <time>2026-08-31T11:08:50Z</time>
      </trkpt>
      <trkpt lat="43.43428" lon="-0.34552">
        <ele>182.2</ele>
        <time>2026-08-31T11:08:50Z</time>
      </trkpt>
      <trkpt lat="43.43427" lon="-0.34552">
        <ele>182.2</ele>
        <time>2026-08-31T11:08:51Z</time>
      </trkpt>
      <trkpt lat="43.43426" lon="-0.34553">
        <ele>182.2</ele>
        <time>2026-08-31T11:08:52Z</time>
      </trkpt>
      <trkpt lat="43.43426" lon="-0.34554">
        <ele>182.2</ele>
        <time>2026-08-31T11:08:53Z</time>
      </trkpt>
      <trkpt lat="43.43425" lon="-0.34554">
        <ele>182.2</ele>
        <time>2026-08-31T11:08:53Z</time>
      </trkpt>
      <trkpt lat="43.43425" lon="-0.34554">
        <ele>182.2</ele>
        <time>2026-08-31T11:08:54Z</time>
      </trkpt>
      <trkpt lat="43.43424" lon="-0.34555">
        <ele>182.2</ele>
        <time>2026-08-31T11:08:54Z</time>
      </trkpt>
      <trkpt lat="43.43424" lon="-0.34555">
        <ele>182.2</ele>
        <time>2026-08-31T11:08:55Z</time>
      </trkpt>
      <trkpt lat="43.43424" lon="-0.34556">
        <ele>182.2</ele>
        <time>2026-08-31T11:08:55Z</time>
      </trkpt>
      <trkpt lat="43.43423" lon="-0.34557">
        <ele>182.2</ele>
        <time>2026-08-31T11:08:56Z</time>
      </trkpt>
      <trkpt lat="43.43423" lon="-0.34558">
        <ele>182.2</ele>
        <time>2026-08-31T11:08:57Z</time>
      </trkpt>
      <trkpt lat="43.43423" lon="-0.34559">
        <ele>182.2</ele>
        <time>2026-08-31T11:08:57Z</time>
      </trkpt>
      <trkpt lat="43.43423" lon="-0.3456">
        <ele>182.2</ele>
        <time>2026-08-31T11:08:58Z</time>
      </trkpt>
      <trkpt lat="43.43422" lon="-0.34561">
        <ele>181.2</ele>
        <time>2026-08-31T11:08:59Z</time>
      </trkpt>
      <trkpt lat="43.43422" lon="-0.34563">
        <ele>181.2</ele>
        <time>2026-08-31T11:09:00Z</time>
      </trkpt>
      <trkpt lat="43.43422" lon="-0.34565">
        <ele>181.2</ele>
        <time>2026-08-31T11:09:01Z</time>
      </trkpt>
      <trkpt lat="43.43423" lon="-0.34566">
        <ele>181.2</ele>
        <time>2026-08-31T11:09:01Z</time>
      </trkpt>
      <trkpt lat="43.43423" lon="-0.34567">
        <ele>181.2</ele>
        <time>2026-08-31T11:09:02Z</time>
      </trkpt>
      <trkpt lat="43.43423" lon="-0.34567">
        <ele>181.2</ele>
        <time>2026-08-31T11:09:02Z</time>
      </trkpt>
      <trkpt lat="43.43423" lon="-0.34568">
        <ele>181.2</ele>
        <time>2026-08-31T11:09:03Z</time>
      </trkpt>
      <trkpt lat="43.43424" lon="-0.34569">
        <ele>181.2</ele>
        <time>2026-08-31T11:09:03Z</time>
      </trkpt>
      <trkpt lat="43.43424" lon="-0.3457">
        <ele>180.2</ele>
        <time>2026-08-31T11:09:04Z</time>
      </trkpt>
      <trkpt lat="43.43424" lon="-0.34571">
        <ele>180.2</ele>
        <time>2026-08-31T11:09:04Z</time>
      </trkpt>
      <trkpt lat="43.43424" lon="-0.34571">
        <ele>180.2</ele>
        <time>2026-08-31T11:09:05Z</time>
      </trkpt>
      <trkpt lat="43.43425" lon="-0.34572">
        <ele>180.2</ele>
        <time>2026-08-31T11:09:05Z</time>
      </trkpt>
      <trkpt lat="43.43425" lon="-0.34573">
        <ele>180.2</ele>
        <time>2026-08-31T11:09:06Z</time>
      </trkpt>
      <trkpt lat="43.43425" lon="-0.34574">
        <ele>180.2</ele>
        <time>2026-08-31T11:09:07Z</time>
      </trkpt>
      <trkpt lat="43.43426" lon="-0.34575">
        <ele>180.2</ele>
        <time>2026-08-31T11:09:07Z</time>
      </trkpt>
      <trkpt lat="43.43426" lon="-0.34576">
        <ele>180.2</ele>
        <time>2026-08-31T11:09:08Z</time>
      </trkpt>
      <trkpt lat="43.43426" lon="-0.34576">
        <ele>180.2</ele>
        <time>2026-08-31T11:09:08Z</time>
      </trkpt>
      <trkpt lat="43.43426" lon="-0.34577">
        <ele>180.2</ele>
        <time>2026-08-31T11:09:09Z</time>
      </trkpt>
      <trkpt lat="43.43427" lon="-0.34578">
        <ele>180.2</ele>
        <time>2026-08-31T11:09:09Z</time>
      </trkpt>
      <trkpt lat="43.43427" lon="-0.3458">
        <ele>180.2</ele>
        <time>2026-08-31T11:09:10Z</time>
      </trkpt>
      <trkpt lat="43.43427" lon="-0.3458">
        <ele>180.2</ele>
        <time>2026-08-31T11:09:11Z</time>
      </trkpt>
      <trkpt lat="43.43427" lon="-0.34581">
        <ele>180.2</ele>
        <time>2026-08-31T11:09:11Z</time>
      </trkpt>
      <trkpt lat="43.43428" lon="-0.34581">
        <ele>180.2</ele>
        <time>2026-08-31T11:09:12Z</time>
      </trkpt>
      <trkpt lat="43.43428" lon="-0.34582">
        <ele>180.2</ele>
        <time>2026-08-31T11:09:13Z</time>
      </trkpt>
      <trkpt lat="43.43428" lon="-0.34583">
        <ele>180.2</ele>
        <time>2026-08-31T11:09:13Z</time>
      </trkpt>
      <trkpt lat="43.43428" lon="-0.34583">
        <ele>180.2</ele>
        <time>2026-08-31T11:09:14Z</time>
      </trkpt>
      <trkpt lat="43.43428" lon="-0.34584">
        <ele>180.2</ele>
        <time>2026-08-31T11:09:14Z</time>
      </trkpt>
      <trkpt lat="43.43428" lon="-0.34584">
        <ele>180.2</ele>
        <time>2026-08-31T11:09:15Z</time>
      </trkpt>
      <trkpt lat="43.43428" lon="-0.34585">
        <ele>180.2</ele>
        <time>2026-08-31T11:09:15Z</time>
      </trkpt>
      <trkpt lat="43.43428" lon="-0.34585">
        <ele>180.2</ele>
        <time>2026-08-31T11:09:16Z</time>
      </trkpt>
      <trkpt lat="43.43429" lon="-0.34586">
        <ele>180.2</ele>
        <time>2026-08-31T11:09:16Z</time>
      </trkpt>
      <trkpt lat="43.43429" lon="-0.34587">
        <ele>180.2</ele>
        <time>2026-08-31T11:09:17Z</time>
      </trkpt>
      <trkpt lat="43.43429" lon="-0.34588">
        <ele>180.2</ele>
        <time>2026-08-31T11:09:17Z</time>
      </trkpt>
      <trkpt lat="43.43429" lon="-0.34589">
        <ele>179.2</ele>
        <time>2026-08-31T11:09:18Z</time>
      </trkpt>
      <trkpt lat="43.43429" lon="-0.34589">
        <ele>179.2</ele>
        <time>2026-08-31T11:09:19Z</time>
      </trkpt>
      <trkpt lat="43.43429" lon="-0.3459">
        <ele>179.2</ele>
        <time>2026-08-31T11:09:19Z</time>
      </trkpt>
      <trkpt lat="43.43429" lon="-0.34591">
        <ele>179.2</ele>
        <time>2026-08-31T11:09:20Z</time>
      </trkpt>
      <trkpt lat="43.43429" lon="-0.34592">
        <ele>179.2</ele>
        <time>2026-08-31T11:09:20Z</time>
      </trkpt>
      <trkpt lat="43.43429" lon="-0.34593">
        <ele>180.2</ele>
        <time>2026-08-31T11:09:21Z</time>
      </trkpt>
      <trkpt lat="43.43429" lon="-0.34594">
        <ele>180.2</ele>
        <time>2026-08-31T11:09:21Z</time>
      </trkpt>
      <trkpt lat="43.43429" lon="-0.34594">
        <ele>179.2</ele>
        <time>2026-08-31T11:09:22Z</time>
      </trkpt>
      <trkpt lat="43.43429" lon="-0.34595">
        <ele>179.2</ele>
        <time>2026-08-31T11:09:22Z</time>
      </trkpt>
      <trkpt lat="43.43429" lon="-0.34596">
        <ele>180.2</ele>
        <time>2026-08-31T11:09:23Z</time>
      </trkpt>
      <trkpt lat="43.43428" lon="-0.34597">
        <ele>180.2</ele>
        <time>2026-08-31T11:09:24Z</time>
      </trkpt>
      <trkpt lat="43.43428" lon="-0.34598">
        <ele>180.2</ele>
        <time>2026-08-31T11:09:25Z</time>
      </trkpt>
      <trkpt lat="43.43428" lon="-0.34599">
        <ele>180.2</ele>
        <time>2026-08-31T11:09:25Z</time>
      </trkpt>
      <trkpt lat="43.43427" lon="-0.346">
        <ele>180.2</ele>
        <time>2026-08-31T11:09:26Z</time>
      </trkpt>
      <trkpt lat="43.43427" lon="-0.346">
        <ele>180.2</ele>
        <time>2026-08-31T11:09:26Z</time>
      </trkpt>
      <trkpt lat="43.43427" lon="-0.34601">
        <ele>179.2</ele>
        <time>2026-08-31T11:09:27Z</time>
      </trkpt>
      <trkpt lat="43.43426" lon="-0.34601">
        <ele>179.2</ele>
        <time>2026-08-31T11:09:27Z</time>
      </trkpt>
      <trkpt lat="43.43426" lon="-0.34602">
        <ele>179.2</ele>
        <time>2026-08-31T11:09:28Z</time>
      </trkpt>
      <trkpt lat="43.43426" lon="-0.34603">
        <ele>179.2</ele>
        <time>2026-08-31T11:09:28Z</time>
      </trkpt>
      <trkpt lat="43.43425" lon="-0.34604">
        <ele>179.2</ele>
        <time>2026-08-31T11:09:29Z</time>
      </trkpt>
      <trkpt lat="43.43425" lon="-0.34604">
        <ele>179.2</ele>
        <time>2026-08-31T11:09:29Z</time>
      </trkpt>
      <trkpt lat="43.43425" lon="-0.34605">
        <ele>179.2</ele>
        <time>2026-08-31T11:09:30Z</time>
      </trkpt>
      <trkpt lat="43.43425" lon="-0.34606">
        <ele>179.2</ele>
        <time>2026-08-31T11:09:31Z</time>
      </trkpt>
      <trkpt lat="43.43424" lon="-0.34606">
        <ele>179.2</ele>
        <time>2026-08-31T11:09:31Z</time>
      </trkpt>
      <trkpt lat="43.43424" lon="-0.34607">
        <ele>179.2</ele>
        <time>2026-08-31T11:09:32Z</time>
      </trkpt>
      <trkpt lat="43.43424" lon="-0.34607">
        <ele>179.2</ele>
        <time>2026-08-31T11:09:32Z</time>
      </trkpt>
      <trkpt lat="43.43424" lon="-0.34608">
        <ele>179.2</ele>
        <time>2026-08-31T11:09:33Z</time>
      </trkpt>
      <trkpt lat="43.43424" lon="-0.34609">
        <ele>179.2</ele>
        <time>2026-08-31T11:09:33Z</time>
      </trkpt>
      <trkpt lat="43.43423" lon="-0.34609">
        <ele>179.2</ele>
        <time>2026-08-31T11:09:34Z</time>
      </trkpt>
      <trkpt lat="43.43423" lon="-0.3461">
        <ele>179.2</ele>
        <time>2026-08-31T11:09:34Z</time>
      </trkpt>
      <trkpt lat="43.43423" lon="-0.34611">
        <ele>179.2</ele>
        <time>2026-08-31T11:09:35Z</time>
      </trkpt>
      <trkpt lat="43.43423" lon="-0.34612">
        <ele>179.2</ele>
        <time>2026-08-31T11:09:35Z</time>
      </trkpt>
      <trkpt lat="43.43422" lon="-0.34613">
        <ele>180.2</ele>
        <time>2026-08-31T11:09:36Z</time>
      </trkpt>
      <trkpt lat="43.43422" lon="-0.34614">
        <ele>180.2</ele>
        <time>2026-08-31T11:09:37Z</time>
      </trkpt>
      <trkpt lat="43.43422" lon="-0.34615">
        <ele>180.2</ele>
        <time>2026-08-31T11:09:37Z</time>
      </trkpt>
      <trkpt lat="43.43422" lon="-0.34615">
        <ele>180.2</ele>
        <time>2026-08-31T11:09:38Z</time>
      </trkpt>
      <trkpt lat="43.43422" lon="-0.34616">
        <ele>180.2</ele>
        <time>2026-08-31T11:09:38Z</time>
      </trkpt>
      <trkpt lat="43.43422" lon="-0.34617">
        <ele>180.2</ele>
        <time>2026-08-31T11:09:39Z</time>
      </trkpt>
      <trkpt lat="43.43422" lon="-0.34618">
        <ele>180.2</ele>
        <time>2026-08-31T11:09:39Z</time>
      </trkpt>
      <trkpt lat="43.43422" lon="-0.34619">
        <ele>180.2</ele>
        <time>2026-08-31T11:09:40Z</time>
      </trkpt>
      <trkpt lat="43.43422" lon="-0.3462">
        <ele>180.2</ele>
        <time>2026-08-31T11:09:40Z</time>
      </trkpt>
      <trkpt lat="43.43422" lon="-0.34621">
        <ele>179.2</ele>
        <time>2026-08-31T11:09:41Z</time>
      </trkpt>
      <trkpt lat="43.43422" lon="-0.34622">
        <ele>179.2</ele>
        <time>2026-08-31T11:09:42Z</time>
      </trkpt>
      <trkpt lat="43.43422" lon="-0.34623">
        <ele>180.2</ele>
        <time>2026-08-31T11:09:42Z</time>
      </trkpt>
      <trkpt lat="43.43422" lon="-0.34624">
        <ele>180.2</ele>
        <time>2026-08-31T11:09:43Z</time>
      </trkpt>
      <trkpt lat="43.43422" lon="-0.34624">
        <ele>180.2</ele>
        <time>2026-08-31T11:09:43Z</time>
      </trkpt>
      <trkpt lat="43.43422" lon="-0.34625">
        <ele>179.2</ele>
        <time>2026-08-31T11:09:44Z</time>
      </trkpt>
      <trkpt lat="43.43422" lon="-0.34626">
        <ele>179.2</ele>
        <time>2026-08-31T11:09:44Z</time>
      </trkpt>
      <trkpt lat="43.43422" lon="-0.34627">
        <ele>179.2</ele>
        <time>2026-08-31T11:09:45Z</time>
      </trkpt>
      <trkpt lat="43.43421" lon="-0.34628">
        <ele>179.2</ele>
        <time>2026-08-31T11:09:45Z</time>
      </trkpt>
      <trkpt lat="43.43421" lon="-0.34629">
        <ele>178.2</ele>
        <time>2026-08-31T11:09:46Z</time>
      </trkpt>
      <trkpt lat="43.43421" lon="-0.34629">
        <ele>178.2</ele>
        <time>2026-08-31T11:09:47Z</time>
      </trkpt>
      <trkpt lat="43.43421" lon="-0.3463">
        <ele>179.2</ele>
        <time>2026-08-31T11:09:47Z</time>
      </trkpt>
      <trkpt lat="43.43421" lon="-0.34631">
        <ele>178.2</ele>
        <time>2026-08-31T11:09:48Z</time>
      </trkpt>
      <trkpt lat="43.43421" lon="-0.34632">
        <ele>178.2</ele>
        <time>2026-08-31T11:09:48Z</time>
      </trkpt>
      <trkpt lat="43.43421" lon="-0.34633">
        <ele>178.2</ele>
        <time>2026-08-31T11:09:49Z</time>
      </trkpt>
      <trkpt lat="43.43421" lon="-0.34634">
        <ele>178.2</ele>
        <time>2026-08-31T11:09:49Z</time>
      </trkpt>
      <trkpt lat="43.43421" lon="-0.34635">
        <ele>178.2</ele>
        <time>2026-08-31T11:09:50Z</time>
      </trkpt>
      <trkpt lat="43.43421" lon="-0.34635">
        <ele>178.2</ele>
        <time>2026-08-31T11:09:50Z</time>
      </trkpt>
      <trkpt lat="43.43421" lon="-0.34636">
        <ele>178.2</ele>
        <time>2026-08-31T11:09:51Z</time>
      </trkpt>
      <trkpt lat="43.43421" lon="-0.34637">
        <ele>178.2</ele>
        <time>2026-08-31T11:09:51Z</time>
      </trkpt>
      <trkpt lat="43.43421" lon="-0.34639">
        <ele>177.2</ele>
        <time>2026-08-31T11:09:52Z</time>
      </trkpt>
      <trkpt lat="43.43421" lon="-0.34639">
        <ele>177.2</ele>
        <time>2026-08-31T11:09:53Z</time>
      </trkpt>
      <trkpt lat="43.43421" lon="-0.3464">
        <ele>177.2</ele>
        <time>2026-08-31T11:09:54Z</time>
      </trkpt>
      <trkpt lat="43.43421" lon="-0.34641">
        <ele>177.2</ele>
        <time>2026-08-31T11:09:54Z</time>
      </trkpt>
      <trkpt lat="43.43421" lon="-0.34642">
        <ele>177.2</ele>
        <time>2026-08-31T11:09:55Z</time>
      </trkpt>
      <trkpt lat="43.4342" lon="-0.34643">
        <ele>177.2</ele>
        <time>2026-08-31T11:09:55Z</time>
      </trkpt>
      <trkpt lat="43.4342" lon="-0.34643">
        <ele>177.2</ele>
        <time>2026-08-31T11:09:56Z</time>
      </trkpt>
      <trkpt lat="43.4342" lon="-0.34644">
        <ele>177.2</ele>
        <time>2026-08-31T11:09:56Z</time>
      </trkpt>
      <trkpt lat="43.4342" lon="-0.34645">
        <ele>178.2</ele>
        <time>2026-08-31T11:09:57Z</time>
      </trkpt>
      <trkpt lat="43.4342" lon="-0.34646">
        <ele>178.2</ele>
        <time>2026-08-31T11:09:57Z</time>
      </trkpt>
      <trkpt lat="43.4342" lon="-0.34646">
        <ele>178.2</ele>
        <time>2026-08-31T11:09:58Z</time>
      </trkpt>
      <trkpt lat="43.4342" lon="-0.34647">
        <ele>178.2</ele>
        <time>2026-08-31T11:09:58Z</time>
      </trkpt>
      <trkpt lat="43.4342" lon="-0.34648">
        <ele>178.2</ele>
        <time>2026-08-31T11:09:59Z</time>
      </trkpt>
      <trkpt lat="43.43419" lon="-0.34649">
        <ele>178.2</ele>
        <time>2026-08-31T11:10:00Z</time>
      </trkpt>
      <trkpt lat="43.43419" lon="-0.34649">
        <ele>178.2</ele>
        <time>2026-08-31T11:10:00Z</time>
      </trkpt>
      <trkpt lat="43.43419" lon="-0.3465">
        <ele>178.2</ele>
        <time>2026-08-31T11:10:01Z</time>
      </trkpt>
      <trkpt lat="43.43419" lon="-0.34651">
        <ele>178.2</ele>
        <time>2026-08-31T11:10:01Z</time>
      </trkpt>
      <trkpt lat="43.43419" lon="-0.34652">
        <ele>178.2</ele>
        <time>2026-08-31T11:10:02Z</time>
      </trkpt>
      <trkpt lat="43.43419" lon="-0.34653">
        <ele>178.2</ele>
        <time>2026-08-31T11:10:02Z</time>
      </trkpt>
      <trkpt lat="43.43419" lon="-0.34653">
        <ele>177.2</ele>
        <time>2026-08-31T11:10:03Z</time>
      </trkpt>
      <trkpt lat="43.43419" lon="-0.34654">
        <ele>177.2</ele>
        <time>2026-08-31T11:10:03Z</time>
      </trkpt>
      <trkpt lat="43.43419" lon="-0.34655">
        <ele>178.2</ele>
        <time>2026-08-31T11:10:04Z</time>
      </trkpt>
      <trkpt lat="43.43419" lon="-0.34656">
        <ele>178.2</ele>
        <time>2026-08-31T11:10:04Z</time>
      </trkpt>
      <trkpt lat="43.43419" lon="-0.34657">
        <ele>177.2</ele>
        <time>2026-08-31T11:10:05Z</time>
      </trkpt>
      <trkpt lat="43.43418" lon="-0.34658">
        <ele>177.2</ele>
        <time>2026-08-31T11:10:06Z</time>
      </trkpt>
      <trkpt lat="43.43418" lon="-0.34659">
        <ele>178.2</ele>
        <time>2026-08-31T11:10:06Z</time>
      </trkpt>
      <trkpt lat="43.43418" lon="-0.3466">
        <ele>178.2</ele>
        <time>2026-08-31T11:10:07Z</time>
      </trkpt>
      <trkpt lat="43.43418" lon="-0.34661">
        <ele>178.2</ele>
        <time>2026-08-31T11:10:08Z</time>
      </trkpt>
      <trkpt lat="43.43418" lon="-0.34662">
        <ele>178.2</ele>
        <time>2026-08-31T11:10:08Z</time>
      </trkpt>
      <trkpt lat="43.43418" lon="-0.34663">
        <ele>178.2</ele>
        <time>2026-08-31T11:10:09Z</time>
      </trkpt>
      <trkpt lat="43.43418" lon="-0.34664">
        <ele>178.2</ele>
        <time>2026-08-31T11:10:09Z</time>
      </trkpt>
      <trkpt lat="43.43418" lon="-0.34665">
        <ele>178.2</ele>
        <time>2026-08-31T11:10:10Z</time>
      </trkpt>
      <trkpt lat="43.43418" lon="-0.34667">
        <ele>178.2</ele>
        <time>2026-08-31T11:10:10Z</time>
      </trkpt>
      <trkpt lat="43.43418" lon="-0.34668">
        <ele>178.2</ele>
        <time>2026-08-31T11:10:11Z</time>
      </trkpt>
      <trkpt lat="43.43418" lon="-0.34669">
        <ele>178.2</ele>
        <time>2026-08-31T11:10:12Z</time>
      </trkpt>
      <trkpt lat="43.43418" lon="-0.3467">
        <ele>178.2</ele>
        <time>2026-08-31T11:10:12Z</time>
      </trkpt>
      <trkpt lat="43.43417" lon="-0.34671">
        <ele>178.2</ele>
        <time>2026-08-31T11:10:13Z</time>
      </trkpt>
      <trkpt lat="43.43417" lon="-0.34671">
        <ele>178.2</ele>
        <time>2026-08-31T11:10:13Z</time>
      </trkpt>
      <trkpt lat="43.43417" lon="-0.34673">
        <ele>178.2</ele>
        <time>2026-08-31T11:10:14Z</time>
      </trkpt>
      <trkpt lat="43.43417" lon="-0.34673">
        <ele>178.2</ele>
        <time>2026-08-31T11:10:14Z</time>
      </trkpt>
      <trkpt lat="43.43417" lon="-0.34674">
        <ele>178.2</ele>
        <time>2026-08-31T11:10:15Z</time>
      </trkpt>
      <trkpt lat="43.43417" lon="-0.34675">
        <ele>178.2</ele>
        <time>2026-08-31T11:10:15Z</time>
      </trkpt>
      <trkpt lat="43.43417" lon="-0.34676">
        <ele>177.2</ele>
        <time>2026-08-31T11:10:16Z</time>
      </trkpt>
      <trkpt lat="43.43417" lon="-0.34677">
        <ele>177.2</ele>
        <time>2026-08-31T11:10:16Z</time>
      </trkpt>
      <trkpt lat="43.43417" lon="-0.34678">
        <ele>177.2</ele>
        <time>2026-08-31T11:10:17Z</time>
      </trkpt>
      <trkpt lat="43.43417" lon="-0.34679">
        <ele>177.2</ele>
        <time>2026-08-31T11:10:18Z</time>
      </trkpt>
      <trkpt lat="43.43417" lon="-0.3468">
        <ele>177.2</ele>
        <time>2026-08-31T11:10:18Z</time>
      </trkpt>
      <trkpt lat="43.43417" lon="-0.34681">
        <ele>177.2</ele>
        <time>2026-08-31T11:10:19Z</time>
      </trkpt>
      <trkpt lat="43.43417" lon="-0.34682">
        <ele>177.2</ele>
        <time>2026-08-31T11:10:19Z</time>
      </trkpt>
      <trkpt lat="43.43417" lon="-0.34683">
        <ele>177.2</ele>
        <time>2026-08-31T11:10:20Z</time>
      </trkpt>
      <trkpt lat="43.43417" lon="-0.34684">
        <ele>177.2</ele>
        <time>2026-08-31T11:10:20Z</time>
      </trkpt>
      <trkpt lat="43.43417" lon="-0.34685">
        <ele>177.2</ele>
        <time>2026-08-31T11:10:21Z</time>
      </trkpt>
      <trkpt lat="43.43417" lon="-0.34686">
        <ele>177.2</ele>
        <time>2026-08-31T11:10:21Z</time>
      </trkpt>
      <trkpt lat="43.43416" lon="-0.34686">
        <ele>176.2</ele>
        <time>2026-08-31T11:10:22Z</time>
      </trkpt>
      <trkpt lat="43.43416" lon="-0.34687">
        <ele>176.2</ele>
        <time>2026-08-31T11:10:23Z</time>
      </trkpt>
      <trkpt lat="43.43416" lon="-0.34688">
        <ele>177.2</ele>
        <time>2026-08-31T11:10:23Z</time>
      </trkpt>
      <trkpt lat="43.43416" lon="-0.3469">
        <ele>176.2</ele>
        <time>2026-08-31T11:10:24Z</time>
      </trkpt>
      <trkpt lat="43.43416" lon="-0.34691">
        <ele>176.2</ele>
        <time>2026-08-31T11:10:25Z</time>
      </trkpt>
      <trkpt lat="43.43416" lon="-0.34692">
        <ele>176.2</ele>
        <time>2026-08-31T11:10:25Z</time>
      </trkpt>
      <trkpt lat="43.43416" lon="-0.34693">
        <ele>176.2</ele>
        <time>2026-08-31T11:10:26Z</time>
      </trkpt>
      <trkpt lat="43.43416" lon="-0.34694">
        <ele>176.2</ele>
        <time>2026-08-31T11:10:26Z</time>
      </trkpt>
      <trkpt lat="43.43416" lon="-0.34695">
        <ele>176.2</ele>
        <time>2026-08-31T11:10:27Z</time>
      </trkpt>
      <trkpt lat="43.43416" lon="-0.34695">
        <ele>176.2</ele>
        <time>2026-08-31T11:10:27Z</time>
      </trkpt>
      <trkpt lat="43.43416" lon="-0.34696">
        <ele>176.2</ele>
        <time>2026-08-31T11:10:28Z</time>
      </trkpt>
      <trkpt lat="43.43416" lon="-0.34697">
        <ele>176.2</ele>
        <time>2026-08-31T11:10:28Z</time>
      </trkpt>
      <trkpt lat="43.43416" lon="-0.34698">
        <ele>175.2</ele>
        <time>2026-08-31T11:10:29Z</time>
      </trkpt>
      <trkpt lat="43.43416" lon="-0.34699">
        <ele>175.2</ele>
        <time>2026-08-31T11:10:30Z</time>
      </trkpt>
      <trkpt lat="43.43416" lon="-0.347">
        <ele>175.2</ele>
        <time>2026-08-31T11:10:30Z</time>
      </trkpt>
      <trkpt lat="43.43416" lon="-0.34701">
        <ele>175.2</ele>
        <time>2026-08-31T11:10:31Z</time>
      </trkpt>
      <trkpt lat="43.43416" lon="-0.34702">
        <ele>176.2</ele>
        <time>2026-08-31T11:10:31Z</time>
      </trkpt>
      <trkpt lat="43.43416" lon="-0.34702">
        <ele>176.2</ele>
        <time>2026-08-31T11:10:32Z</time>
      </trkpt>
      <trkpt lat="43.43417" lon="-0.34703">
        <ele>176.2</ele>
        <time>2026-08-31T11:10:32Z</time>
      </trkpt>
      <trkpt lat="43.43417" lon="-0.34704">
        <ele>176.2</ele>
        <time>2026-08-31T11:10:33Z</time>
      </trkpt>
      <trkpt lat="43.43417" lon="-0.34705">
        <ele>176.2</ele>
        <time>2026-08-31T11:10:34Z</time>
      </trkpt>
      <trkpt lat="43.43417" lon="-0.34706">
        <ele>175.2</ele>
        <time>2026-08-31T11:10:34Z</time>
      </trkpt>
      <trkpt lat="43.43417" lon="-0.34706">
        <ele>175.2</ele>
        <time>2026-08-31T11:10:35Z</time>
      </trkpt>
      <trkpt lat="43.43418" lon="-0.34707">
        <ele>175.2</ele>
        <time>2026-08-31T11:10:35Z</time>
      </trkpt>
      <trkpt lat="43.43418" lon="-0.34708">
        <ele>176.2</ele>
        <time>2026-08-31T11:10:36Z</time>
      </trkpt>
      <trkpt lat="43.43418" lon="-0.34708">
        <ele>176.2</ele>
        <time>2026-08-31T11:10:36Z</time>
      </trkpt>
      <trkpt lat="43.43418" lon="-0.34709">
        <ele>176.2</ele>
        <time>2026-08-31T11:10:37Z</time>
      </trkpt>
      <trkpt lat="43.43417" lon="-0.3471">
        <ele>176.2</ele>
        <time>2026-08-31T11:10:37Z</time>
      </trkpt>
      <trkpt lat="43.43417" lon="-0.34711">
        <ele>176.2</ele>
        <time>2026-08-31T11:10:38Z</time>
      </trkpt>
      <trkpt lat="43.43417" lon="-0.34712">
        <ele>176.2</ele>
        <time>2026-08-31T11:10:39Z</time>
      </trkpt>
      <trkpt lat="43.43417" lon="-0.34713">
        <ele>176.2</ele>
        <time>2026-08-31T11:10:39Z</time>
      </trkpt>
      <trkpt lat="43.43417" lon="-0.34714">
        <ele>176.2</ele>
        <time>2026-08-31T11:10:40Z</time>
      </trkpt>
      <trkpt lat="43.43416" lon="-0.34715">
        <ele>177.2</ele>
        <time>2026-08-31T11:10:40Z</time>
      </trkpt>
      <trkpt lat="43.43416" lon="-0.34716">
        <ele>177.2</ele>
        <time>2026-08-31T11:10:41Z</time>
      </trkpt>
      <trkpt lat="43.43416" lon="-0.34717">
        <ele>177.2</ele>
        <time>2026-08-31T11:10:41Z</time>
      </trkpt>
      <trkpt lat="43.43415" lon="-0.34718">
        <ele>177.2</ele>
        <time>2026-08-31T11:10:42Z</time>
      </trkpt>
      <trkpt lat="43.43415" lon="-0.34719">
        <ele>177.2</ele>
        <time>2026-08-31T11:10:42Z</time>
      </trkpt>
      <trkpt lat="43.43415" lon="-0.3472">
        <ele>177.2</ele>
        <time>2026-08-31T11:10:43Z</time>
      </trkpt>
      <trkpt lat="43.43414" lon="-0.34721">
        <ele>177.2</ele>
        <time>2026-08-31T11:10:44Z</time>
      </trkpt>
      <trkpt lat="43.43414" lon="-0.34722">
        <ele>177.2</ele>
        <time>2026-08-31T11:10:44Z</time>
      </trkpt>
      <trkpt lat="43.43413" lon="-0.34723">
        <ele>177.2</ele>
        <time>2026-08-31T11:10:45Z</time>
      </trkpt>
      <trkpt lat="43.43413" lon="-0.34724">
        <ele>177.2</ele>
        <time>2026-08-31T11:10:45Z</time>
      </trkpt>
      <trkpt lat="43.43413" lon="-0.34725">
        <ele>177.2</ele>
        <time>2026-08-31T11:10:46Z</time>
      </trkpt>
      <trkpt lat="43.43412" lon="-0.34726">
        <ele>178.2</ele>
        <time>2026-08-31T11:10:46Z</time>
      </trkpt>
      <trkpt lat="43.43412" lon="-0.34726">
        <ele>178.2</ele>
        <time>2026-08-31T11:10:47Z</time>
      </trkpt>
      <trkpt lat="43.43412" lon="-0.34727">
        <ele>178.2</ele>
        <time>2026-08-31T11:10:47Z</time>
      </trkpt>
      <trkpt lat="43.43412" lon="-0.34728">
        <ele>177.2</ele>
        <time>2026-08-31T11:10:48Z</time>
      </trkpt>
      <trkpt lat="43.43412" lon="-0.34729">
        <ele>177.2</ele>
        <time>2026-08-31T11:10:48Z</time>
      </trkpt>
      <trkpt lat="43.43411" lon="-0.3473">
        <ele>178.2</ele>
        <time>2026-08-31T11:10:49Z</time>
      </trkpt>
      <trkpt lat="43.43411" lon="-0.34731">
        <ele>178.2</ele>
        <time>2026-08-31T11:10:50Z</time>
      </trkpt>
      <trkpt lat="43.43412" lon="-0.34732">
        <ele>178.2</ele>
        <time>2026-08-31T11:10:50Z</time>
      </trkpt>
      <trkpt lat="43.43412" lon="-0.34733">
        <ele>178.2</ele>
        <time>2026-08-31T11:10:51Z</time>
      </trkpt>
      <trkpt lat="43.43412" lon="-0.34734">
        <ele>178.2</ele>
        <time>2026-08-31T11:10:52Z</time>
      </trkpt>
      <trkpt lat="43.43412" lon="-0.34735">
        <ele>178.2</ele>
        <time>2026-08-31T11:10:52Z</time>
      </trkpt>
      <trkpt lat="43.43412" lon="-0.34735">
        <ele>178.2</ele>
        <time>2026-08-31T11:10:53Z</time>
      </trkpt>
      <trkpt lat="43.43412" lon="-0.34736">
        <ele>178.2</ele>
        <time>2026-08-31T11:10:53Z</time>
      </trkpt>
      <trkpt lat="43.43412" lon="-0.34737">
        <ele>178.2</ele>
        <time>2026-08-31T11:10:54Z</time>
      </trkpt>
      <trkpt lat="43.43413" lon="-0.34737">
        <ele>178.2</ele>
        <time>2026-08-31T11:10:55Z</time>
      </trkpt>
      <trkpt lat="43.43413" lon="-0.34738">
        <ele>179.2</ele>
        <time>2026-08-31T11:10:55Z</time>
      </trkpt>
      <trkpt lat="43.43413" lon="-0.34739">
        <ele>179.2</ele>
        <time>2026-08-31T11:10:56Z</time>
      </trkpt>
      <trkpt lat="43.43413" lon="-0.3474">
        <ele>179.2</ele>
        <time>2026-08-31T11:10:56Z</time>
      </trkpt>
      <trkpt lat="43.43414" lon="-0.34741">
        <ele>179.2</ele>
        <time>2026-08-31T11:10:57Z</time>
      </trkpt>
      <trkpt lat="43.43414" lon="-0.34742">
        <ele>179.2</ele>
        <time>2026-08-31T11:10:57Z</time>
      </trkpt>
      <trkpt lat="43.43414" lon="-0.34742">
        <ele>179.2</ele>
        <time>2026-08-31T11:10:58Z</time>
      </trkpt>
      <trkpt lat="43.43414" lon="-0.34744">
        <ele>179.2</ele>
        <time>2026-08-31T11:10:58Z</time>
      </trkpt>
      <trkpt lat="43.43414" lon="-0.34745">
        <ele>179.2</ele>
        <time>2026-08-31T11:10:59Z</time>
      </trkpt>
      <trkpt lat="43.43414" lon="-0.34746">
        <ele>179.2</ele>
        <time>2026-08-31T11:11:00Z</time>
      </trkpt>
      <trkpt lat="43.43415" lon="-0.34747">
        <ele>179.2</ele>
        <time>2026-08-31T11:11:01Z</time>
      </trkpt>
      <trkpt lat="43.43415" lon="-0.34748">
        <ele>179.2</ele>
        <time>2026-08-31T11:11:01Z</time>
      </trkpt>
      <trkpt lat="43.43415" lon="-0.34749">
        <ele>179.2</ele>
        <time>2026-08-31T11:11:02Z</time>
      </trkpt>
      <trkpt lat="43.43415" lon="-0.3475">
        <ele>179.2</ele>
        <time>2026-08-31T11:11:02Z</time>
      </trkpt>
      <trkpt lat="43.43415" lon="-0.34751">
        <ele>179.2</ele>
        <time>2026-08-31T11:11:03Z</time>
      </trkpt>
      <trkpt lat="43.43415" lon="-0.34752">
        <ele>179.2</ele>
        <time>2026-08-31T11:11:04Z</time>
      </trkpt>
      <trkpt lat="43.43416" lon="-0.34753">
        <ele>179.2</ele>
        <time>2026-08-31T11:11:04Z</time>
      </trkpt>
      <trkpt lat="43.43416" lon="-0.34754">
        <ele>179.2</ele>
        <time>2026-08-31T11:11:05Z</time>
      </trkpt>
      <trkpt lat="43.43417" lon="-0.34754">
        <ele>179.2</ele>
        <time>2026-08-31T11:11:06Z</time>
      </trkpt>
      <trkpt lat="43.43417" lon="-0.34755">
        <ele>179.2</ele>
        <time>2026-08-31T11:11:06Z</time>
      </trkpt>
      <trkpt lat="43.43418" lon="-0.34755">
        <ele>179.2</ele>
        <time>2026-08-31T11:11:07Z</time>
      </trkpt>
      <trkpt lat="43.43418" lon="-0.34755">
        <ele>179.2</ele>
        <time>2026-08-31T11:11:07Z</time>
      </trkpt>
      <trkpt lat="43.43418" lon="-0.34755">
        <ele>179.2</ele>
        <time>2026-08-31T11:11:08Z</time>
      </trkpt>
      <trkpt lat="43.43419" lon="-0.34755">
        <ele>179.2</ele>
        <time>2026-08-31T11:11:08Z</time>
      </trkpt>
      <trkpt lat="43.4342" lon="-0.34755">
        <ele>179.2</ele>
        <time>2026-08-31T11:11:09Z</time>
      </trkpt>
      <trkpt lat="43.4342" lon="-0.34755">
        <ele>179.2</ele>
        <time>2026-08-31T11:11:09Z</time>
      </trkpt>
      <trkpt lat="43.43421" lon="-0.34756">
        <ele>179.2</ele>
        <time>2026-08-31T11:11:10Z</time>
      </trkpt>
      <trkpt lat="43.43421" lon="-0.34756">
        <ele>179.2</ele>
        <time>2026-08-31T11:11:10Z</time>
      </trkpt>
      <trkpt lat="43.43422" lon="-0.34756">
        <ele>179.2</ele>
        <time>2026-08-31T11:11:11Z</time>
      </trkpt>
      <trkpt lat="43.43423" lon="-0.34756">
        <ele>179.2</ele>
        <time>2026-08-31T11:11:11Z</time>
      </trkpt>
      <trkpt lat="43.43423" lon="-0.34756">
        <ele>179.2</ele>
        <time>2026-08-31T11:11:12Z</time>
      </trkpt>
      <trkpt lat="43.43424" lon="-0.34756">
        <ele>179.2</ele>
        <time>2026-08-31T11:11:13Z</time>
      </trkpt>
      <trkpt lat="43.43425" lon="-0.34757">
        <ele>179.2</ele>
        <time>2026-08-31T11:11:13Z</time>
      </trkpt>
      <trkpt lat="43.43425" lon="-0.34757">
        <ele>179.2</ele>
        <time>2026-08-31T11:11:14Z</time>
      </trkpt>
      <trkpt lat="43.43426" lon="-0.34757">
        <ele>179.2</ele>
        <time>2026-08-31T11:11:14Z</time>
      </trkpt>
      <trkpt lat="43.43426" lon="-0.34758">
        <ele>179.2</ele>
        <time>2026-08-31T11:11:15Z</time>
      </trkpt>
      <trkpt lat="43.43427" lon="-0.34758">
        <ele>179.2</ele>
        <time>2026-08-31T11:11:15Z</time>
      </trkpt>
      <trkpt lat="43.43427" lon="-0.34758">
        <ele>179.2</ele>
        <time>2026-08-31T11:11:16Z</time>
      </trkpt>
      <trkpt lat="43.43427" lon="-0.34759">
        <ele>179.2</ele>
        <time>2026-08-31T11:11:16Z</time>
      </trkpt>
      <trkpt lat="43.43428" lon="-0.34759">
        <ele>179.2</ele>
        <time>2026-08-31T11:11:17Z</time>
      </trkpt>
      <trkpt lat="43.43428" lon="-0.34759">
        <ele>179.2</ele>
        <time>2026-08-31T11:11:18Z</time>
      </trkpt>
      <trkpt lat="43.43428" lon="-0.34759">
        <ele>179.2</ele>
        <time>2026-08-31T11:11:18Z</time>
      </trkpt>
      <trkpt lat="43.43429" lon="-0.34759">
        <ele>179.2</ele>
        <time>2026-08-31T11:11:19Z</time>
      </trkpt>
      <trkpt lat="43.43429" lon="-0.34759">
        <ele>179.2</ele>
        <time>2026-08-31T11:11:19Z</time>
      </trkpt>
      <trkpt lat="43.4343" lon="-0.34759">
        <ele>179.2</ele>
        <time>2026-08-31T11:11:20Z</time>
      </trkpt>
      <trkpt lat="43.4343" lon="-0.34759">
        <ele>179.2</ele>
        <time>2026-08-31T11:11:20Z</time>
      </trkpt>
      <trkpt lat="43.43431" lon="-0.34759">
        <ele>179.2</ele>
        <time>2026-08-31T11:11:21Z</time>
      </trkpt>
      <trkpt lat="43.43431" lon="-0.34759">
        <ele>179.2</ele>
        <time>2026-08-31T11:11:21Z</time>
      </trkpt>
      <trkpt lat="43.43431" lon="-0.3476">
        <ele>180.2</ele>
        <time>2026-08-31T11:11:22Z</time>
      </trkpt>
      <trkpt lat="43.43432" lon="-0.3476">
        <ele>180.2</ele>
        <time>2026-08-31T11:11:22Z</time>
      </trkpt>
      <trkpt lat="43.43432" lon="-0.3476">
        <ele>180.2</ele>
        <time>2026-08-31T11:11:23Z</time>
      </trkpt>
      <trkpt lat="43.43433" lon="-0.34761">
        <ele>180.2</ele>
        <time>2026-08-31T11:11:23Z</time>
      </trkpt>
      <trkpt lat="43.43433" lon="-0.34761">
        <ele>181.2</ele>
        <time>2026-08-31T11:11:24Z</time>
      </trkpt>
      <trkpt lat="43.43434" lon="-0.34761">
        <ele>181.2</ele>
        <time>2026-08-31T11:11:25Z</time>
      </trkpt>
      <trkpt lat="43.43434" lon="-0.34762">
        <ele>181.2</ele>
        <time>2026-08-31T11:11:25Z</time>
      </trkpt>
      <trkpt lat="43.43434" lon="-0.34762">
        <ele>181.2</ele>
        <time>2026-08-31T11:11:26Z</time>
      </trkpt>
      <trkpt lat="43.43435" lon="-0.34762">
        <ele>181.2</ele>
        <time>2026-08-31T11:11:26Z</time>
      </trkpt>
      <trkpt lat="43.43435" lon="-0.34763">
        <ele>182.2</ele>
        <time>2026-08-31T11:11:27Z</time>
      </trkpt>
      <trkpt lat="43.43436" lon="-0.34763">
        <ele>182.2</ele>
        <time>2026-08-31T11:11:27Z</time>
      </trkpt>
      <trkpt lat="43.43437" lon="-0.34763">
        <ele>182.2</ele>
        <time>2026-08-31T11:11:28Z</time>
      </trkpt>
      <trkpt lat="43.43437" lon="-0.34763">
        <ele>182.2</ele>
        <time>2026-08-31T11:11:28Z</time>
      </trkpt>
      <trkpt lat="43.43438" lon="-0.34763">
        <ele>182.2</ele>
        <time>2026-08-31T11:11:29Z</time>
      </trkpt>
      <trkpt lat="43.43439" lon="-0.34763">
        <ele>182.2</ele>
        <time>2026-08-31T11:11:29Z</time>
      </trkpt>
      <trkpt lat="43.43439" lon="-0.34763">
        <ele>182.2</ele>
        <time>2026-08-31T11:11:30Z</time>
      </trkpt>
      <trkpt lat="43.4344" lon="-0.34763">
        <ele>182.2</ele>
        <time>2026-08-31T11:11:30Z</time>
      </trkpt>
      <trkpt lat="43.4344" lon="-0.34763">
        <ele>182.2</ele>
        <time>2026-08-31T11:11:31Z</time>
      </trkpt>
      <trkpt lat="43.43441" lon="-0.34763">
        <ele>182.2</ele>
        <time>2026-08-31T11:11:32Z</time>
      </trkpt>
      <trkpt lat="43.43442" lon="-0.34763">
        <ele>182.2</ele>
        <time>2026-08-31T11:11:32Z</time>
      </trkpt>
      <trkpt lat="43.43442" lon="-0.34763">
        <ele>182.2</ele>
        <time>2026-08-31T11:11:33Z</time>
      </trkpt>
      <trkpt lat="43.43443" lon="-0.34763">
        <ele>182.2</ele>
        <time>2026-08-31T11:11:33Z</time>
      </trkpt>
      <trkpt lat="43.43443" lon="-0.34763">
        <ele>183.2</ele>
        <time>2026-08-31T11:11:34Z</time>
      </trkpt>
      <trkpt lat="43.43444" lon="-0.34763">
        <ele>183.2</ele>
        <time>2026-08-31T11:11:34Z</time>
      </trkpt>
      <trkpt lat="43.43445" lon="-0.34763">
        <ele>182.2</ele>
        <time>2026-08-31T11:11:35Z</time>
      </trkpt>
      <trkpt lat="43.43445" lon="-0.34764">
        <ele>182.2</ele>
        <time>2026-08-31T11:11:35Z</time>
      </trkpt>
      <trkpt lat="43.43446" lon="-0.34764">
        <ele>182.2</ele>
        <time>2026-08-31T11:11:36Z</time>
      </trkpt>
      <trkpt lat="43.43446" lon="-0.34764">
        <ele>182.2</ele>
        <time>2026-08-31T11:11:36Z</time>
      </trkpt>
      <trkpt lat="43.43447" lon="-0.34764">
        <ele>182.2</ele>
        <time>2026-08-31T11:11:37Z</time>
      </trkpt>
      <trkpt lat="43.43448" lon="-0.34764">
        <ele>182.2</ele>
        <time>2026-08-31T11:11:37Z</time>
      </trkpt>
      <trkpt lat="43.43448" lon="-0.34764">
        <ele>182.2</ele>
        <time>2026-08-31T11:11:38Z</time>
      </trkpt>
      <trkpt lat="43.43449" lon="-0.34764">
        <ele>182.2</ele>
        <time>2026-08-31T11:11:38Z</time>
      </trkpt>
      <trkpt lat="43.4345" lon="-0.34765">
        <ele>182.2</ele>
        <time>2026-08-31T11:11:39Z</time>
      </trkpt>
      <trkpt lat="43.4345" lon="-0.34765">
        <ele>182.2</ele>
        <time>2026-08-31T11:11:40Z</time>
      </trkpt>
      <trkpt lat="43.43452" lon="-0.34765">
        <ele>183.2</ele>
        <time>2026-08-31T11:11:41Z</time>
      </trkpt>
      <trkpt lat="43.43452" lon="-0.34765">
        <ele>183.2</ele>
        <time>2026-08-31T11:11:41Z</time>
      </trkpt>
      <trkpt lat="43.43453" lon="-0.34765">
        <ele>183.2</ele>
        <time>2026-08-31T11:11:42Z</time>
      </trkpt>
      <trkpt lat="43.43454" lon="-0.34766">
        <ele>183.2</ele>
        <time>2026-08-31T11:11:42Z</time>
      </trkpt>
      <trkpt lat="43.43454" lon="-0.34766">
        <ele>183.2</ele>
        <time>2026-08-31T11:11:43Z</time>
      </trkpt>
      <trkpt lat="43.43455" lon="-0.34766">
        <ele>183.2</ele>
        <time>2026-08-31T11:11:43Z</time>
      </trkpt>
      <trkpt lat="43.43455" lon="-0.34766">
        <ele>183.2</ele>
        <time>2026-08-31T11:11:44Z</time>
      </trkpt>
      <trkpt lat="43.43456" lon="-0.34766">
        <ele>183.2</ele>
        <time>2026-08-31T11:11:44Z</time>
      </trkpt>
      <trkpt lat="43.43457" lon="-0.34766">
        <ele>183.2</ele>
        <time>2026-08-31T11:11:45Z</time>
      </trkpt>
      <trkpt lat="43.43457" lon="-0.34767">
        <ele>183.2</ele>
        <time>2026-08-31T11:11:45Z</time>
      </trkpt>
      <trkpt lat="43.43458" lon="-0.34767">
        <ele>183.2</ele>
        <time>2026-08-31T11:11:46Z</time>
      </trkpt>
      <trkpt lat="43.43459" lon="-0.34767">
        <ele>183.2</ele>
        <time>2026-08-31T11:11:47Z</time>
      </trkpt>
      <trkpt lat="43.43459" lon="-0.34767">
        <ele>183.2</ele>
        <time>2026-08-31T11:11:47Z</time>
      </trkpt>
      <trkpt lat="43.4346" lon="-0.34767">
        <ele>183.2</ele>
        <time>2026-08-31T11:11:48Z</time>
      </trkpt>
      <trkpt lat="43.43461" lon="-0.34768">
        <ele>183.2</ele>
        <time>2026-08-31T11:11:48Z</time>
      </trkpt>
      <trkpt lat="43.43461" lon="-0.34768">
        <ele>183.2</ele>
        <time>2026-08-31T11:11:49Z</time>
      </trkpt>
      <trkpt lat="43.43462" lon="-0.34768">
        <ele>183.2</ele>
        <time>2026-08-31T11:11:49Z</time>
      </trkpt>
      <trkpt lat="43.43462" lon="-0.34768">
        <ele>183.2</ele>
        <time>2026-08-31T11:11:50Z</time>
      </trkpt>
      <trkpt lat="43.43463" lon="-0.34768">
        <ele>183.2</ele>
        <time>2026-08-31T11:11:50Z</time>
      </trkpt>
      <trkpt lat="43.43464" lon="-0.34768">
        <ele>183.2</ele>
        <time>2026-08-31T11:11:51Z</time>
      </trkpt>
      <trkpt lat="43.43464" lon="-0.34768">
        <ele>183.2</ele>
        <time>2026-08-31T11:11:51Z</time>
      </trkpt>
      <trkpt lat="43.43465" lon="-0.34768">
        <ele>183.2</ele>
        <time>2026-08-31T11:11:52Z</time>
      </trkpt>
      <trkpt lat="43.43466" lon="-0.34768">
        <ele>183.2</ele>
        <time>2026-08-31T11:11:52Z</time>
      </trkpt>
      <trkpt lat="43.43466" lon="-0.34768">
        <ele>184.2</ele>
        <time>2026-08-31T11:11:53Z</time>
      </trkpt>
      <trkpt lat="43.43467" lon="-0.34768">
        <ele>184.2</ele>
        <time>2026-08-31T11:11:54Z</time>
      </trkpt>
      <trkpt lat="43.43468" lon="-0.34768">
        <ele>183.2</ele>
        <time>2026-08-31T11:11:54Z</time>
      </trkpt>
      <trkpt lat="43.43468" lon="-0.34768">
        <ele>183.2</ele>
        <time>2026-08-31T11:11:55Z</time>
      </trkpt>
      <trkpt lat="43.43469" lon="-0.34768">
        <ele>183.2</ele>
        <time>2026-08-31T11:11:55Z</time>
      </trkpt>
      <trkpt lat="43.4347" lon="-0.34768">
        <ele>183.2</ele>
        <time>2026-08-31T11:11:56Z</time>
      </trkpt>
      <trkpt lat="43.4347" lon="-0.34768">
        <ele>183.2</ele>
        <time>2026-08-31T11:11:56Z</time>
      </trkpt>
      <trkpt lat="43.43471" lon="-0.34768">
        <ele>183.2</ele>
        <time>2026-08-31T11:11:57Z</time>
      </trkpt>
      <trkpt lat="43.43472" lon="-0.34768">
        <ele>183.2</ele>
        <time>2026-08-31T11:11:58Z</time>
      </trkpt>
      <trkpt lat="43.43472" lon="-0.34768">
        <ele>184.2</ele>
        <time>2026-08-31T11:11:58Z</time>
      </trkpt>
      <trkpt lat="43.43473" lon="-0.34769">
        <ele>184.2</ele>
        <time>2026-08-31T11:11:59Z</time>
      </trkpt>
      <trkpt lat="43.43474" lon="-0.34769">
        <ele>184.2</ele>
        <time>2026-08-31T11:11:59Z</time>
      </trkpt>
      <trkpt lat="43.43475" lon="-0.34769">
        <ele>184.2</ele>
        <time>2026-08-31T11:12:00Z</time>
      </trkpt>
      <trkpt lat="43.43475" lon="-0.34769">
        <ele>184.2</ele>
        <time>2026-08-31T11:12:00Z</time>
      </trkpt>
      <trkpt lat="43.43476" lon="-0.34769">
        <ele>184.2</ele>
        <time>2026-08-31T11:12:01Z</time>
      </trkpt>
      <trkpt lat="43.43476" lon="-0.34769">
        <ele>184.2</ele>
        <time>2026-08-31T11:12:01Z</time>
      </trkpt>
      <trkpt lat="43.43477" lon="-0.34769">
        <ele>185.2</ele>
        <time>2026-08-31T11:12:02Z</time>
      </trkpt>
      <trkpt lat="43.43478" lon="-0.34769">
        <ele>185.2</ele>
        <time>2026-08-31T11:12:02Z</time>
      </trkpt>
      <trkpt lat="43.43478" lon="-0.34769">
        <ele>184.2</ele>
        <time>2026-08-31T11:12:03Z</time>
      </trkpt>
      <trkpt lat="43.43479" lon="-0.34769">
        <ele>184.2</ele>
        <time>2026-08-31T11:12:03Z</time>
      </trkpt>
      <trkpt lat="43.4348" lon="-0.34769">
        <ele>184.2</ele>
        <time>2026-08-31T11:12:04Z</time>
      </trkpt>
      <trkpt lat="43.4348" lon="-0.34769">
        <ele>184.2</ele>
        <time>2026-08-31T11:12:04Z</time>
      </trkpt>
      <trkpt lat="43.43481" lon="-0.3477">
        <ele>184.2</ele>
        <time>2026-08-31T11:12:05Z</time>
      </trkpt>
      <trkpt lat="43.43481" lon="-0.3477">
        <ele>184.2</ele>
        <time>2026-08-31T11:12:06Z</time>
      </trkpt>
      <trkpt lat="43.43482" lon="-0.3477">
        <ele>184.2</ele>
        <time>2026-08-31T11:12:06Z</time>
      </trkpt>
      <trkpt lat="43.43482" lon="-0.3477">
        <ele>184.2</ele>
        <time>2026-08-31T11:12:07Z</time>
      </trkpt>
      <trkpt lat="43.43483" lon="-0.3477">
        <ele>184.2</ele>
        <time>2026-08-31T11:12:07Z</time>
      </trkpt>
      <trkpt lat="43.43484" lon="-0.3477">
        <ele>184.2</ele>
        <time>2026-08-31T11:12:08Z</time>
      </trkpt>
      <trkpt lat="43.43484" lon="-0.34771">
        <ele>184.2</ele>
        <time>2026-08-31T11:12:08Z</time>
      </trkpt>
      <trkpt lat="43.43485" lon="-0.34771">
        <ele>184.2</ele>
        <time>2026-08-31T11:12:09Z</time>
      </trkpt>
      <trkpt lat="43.43485" lon="-0.34772">
        <ele>184.2</ele>
        <time>2026-08-31T11:12:09Z</time>
      </trkpt>
      <trkpt lat="43.43486" lon="-0.34772">
        <ele>184.2</ele>
        <time>2026-08-31T11:12:10Z</time>
      </trkpt>
      <trkpt lat="43.43487" lon="-0.34772">
        <ele>184.2</ele>
        <time>2026-08-31T11:12:10Z</time>
      </trkpt>
      <trkpt lat="43.43487" lon="-0.34773">
        <ele>184.2</ele>
        <time>2026-08-31T11:12:11Z</time>
      </trkpt>
      <trkpt lat="43.43488" lon="-0.34774">
        <ele>184.2</ele>
        <time>2026-08-31T11:12:12Z</time>
      </trkpt>
      <trkpt lat="43.43489" lon="-0.34774">
        <ele>184.2</ele>
        <time>2026-08-31T11:12:12Z</time>
      </trkpt>
      <trkpt lat="43.43489" lon="-0.34775">
        <ele>184.2</ele>
        <time>2026-08-31T11:12:13Z</time>
      </trkpt>
      <trkpt lat="43.4349" lon="-0.34775">
        <ele>184.2</ele>
        <time>2026-08-31T11:12:13Z</time>
      </trkpt>
      <trkpt lat="43.43491" lon="-0.34776">
        <ele>184.2</ele>
        <time>2026-08-31T11:12:14Z</time>
      </trkpt>
      <trkpt lat="43.43491" lon="-0.34777">
        <ele>184.2</ele>
        <time>2026-08-31T11:12:14Z</time>
      </trkpt>
      <trkpt lat="43.43492" lon="-0.34777">
        <ele>184.2</ele>
        <time>2026-08-31T11:12:15Z</time>
      </trkpt>
      <trkpt lat="43.43492" lon="-0.34778">
        <ele>184.2</ele>
        <time>2026-08-31T11:12:15Z</time>
      </trkpt>
      <trkpt lat="43.43493" lon="-0.34778">
        <ele>184.2</ele>
        <time>2026-08-31T11:12:16Z</time>
      </trkpt>
      <trkpt lat="43.43494" lon="-0.34779">
        <ele>184.2</ele>
        <time>2026-08-31T11:12:16Z</time>
      </trkpt>
      <trkpt lat="43.43494" lon="-0.3478">
        <ele>184.2</ele>
        <time>2026-08-31T11:12:17Z</time>
      </trkpt>
      <trkpt lat="43.43495" lon="-0.3478">
        <ele>184.2</ele>
        <time>2026-08-31T11:12:18Z</time>
      </trkpt>
      <trkpt lat="43.43495" lon="-0.34781">
        <ele>185.2</ele>
        <time>2026-08-31T11:12:18Z</time>
      </trkpt>
      <trkpt lat="43.43496" lon="-0.34781">
        <ele>185.2</ele>
        <time>2026-08-31T11:12:19Z</time>
      </trkpt>
      <trkpt lat="43.43497" lon="-0.34782">
        <ele>185.2</ele>
        <time>2026-08-31T11:12:19Z</time>
      </trkpt>
      <trkpt lat="43.43497" lon="-0.34783">
        <ele>185.2</ele>
        <time>2026-08-31T11:12:20Z</time>
      </trkpt>
      <trkpt lat="43.43498" lon="-0.34783">
        <ele>185.2</ele>
        <time>2026-08-31T11:12:20Z</time>
      </trkpt>
      <trkpt lat="43.43498" lon="-0.34784">
        <ele>185.2</ele>
        <time>2026-08-31T11:12:21Z</time>
      </trkpt>
      <trkpt lat="43.43499" lon="-0.34785">
        <ele>185.2</ele>
        <time>2026-08-31T11:12:21Z</time>
      </trkpt>
      <trkpt lat="43.43499" lon="-0.34786">
        <ele>185.2</ele>
        <time>2026-08-31T11:12:22Z</time>
      </trkpt>
      <trkpt lat="43.435" lon="-0.34786">
        <ele>185.2</ele>
        <time>2026-08-31T11:12:23Z</time>
      </trkpt>
      <trkpt lat="43.435" lon="-0.34787">
        <ele>185.2</ele>
        <time>2026-08-31T11:12:23Z</time>
      </trkpt>
      <trkpt lat="43.43501" lon="-0.34788">
        <ele>185.2</ele>
        <time>2026-08-31T11:12:24Z</time>
      </trkpt>
      <trkpt lat="43.43501" lon="-0.34789">
        <ele>185.2</ele>
        <time>2026-08-31T11:12:24Z</time>
      </trkpt>
      <trkpt lat="43.43502" lon="-0.3479">
        <ele>185.2</ele>
        <time>2026-08-31T11:12:25Z</time>
      </trkpt>
      <trkpt lat="43.43502" lon="-0.3479">
        <ele>185.2</ele>
        <time>2026-08-31T11:12:25Z</time>
      </trkpt>
      <trkpt lat="43.43503" lon="-0.34791">
        <ele>185.2</ele>
        <time>2026-08-31T11:12:26Z</time>
      </trkpt>
      <trkpt lat="43.43503" lon="-0.34792">
        <ele>185.2</ele>
        <time>2026-08-31T11:12:27Z</time>
      </trkpt>
      <trkpt lat="43.43504" lon="-0.34792">
        <ele>185.2</ele>
        <time>2026-08-31T11:12:27Z</time>
      </trkpt>
      <trkpt lat="43.43504" lon="-0.34793">
        <ele>185.2</ele>
        <time>2026-08-31T11:12:28Z</time>
      </trkpt>
      <trkpt lat="43.43505" lon="-0.34794">
        <ele>185.2</ele>
        <time>2026-08-31T11:12:28Z</time>
      </trkpt>
      <trkpt lat="43.43505" lon="-0.34795">
        <ele>185.2</ele>
        <time>2026-08-31T11:12:29Z</time>
      </trkpt>
      <trkpt lat="43.43506" lon="-0.34795">
        <ele>185.2</ele>
        <time>2026-08-31T11:12:29Z</time>
      </trkpt>
      <trkpt lat="43.43506" lon="-0.34796">
        <ele>185.2</ele>
        <time>2026-08-31T11:12:30Z</time>
      </trkpt>
      <trkpt lat="43.43507" lon="-0.34797">
        <ele>185.2</ele>
        <time>2026-08-31T11:12:31Z</time>
      </trkpt>
      <trkpt lat="43.43507" lon="-0.34797">
        <ele>184.2</ele>
        <time>2026-08-31T11:12:31Z</time>
      </trkpt>
      <trkpt lat="43.43508" lon="-0.34798">
        <ele>184.2</ele>
        <time>2026-08-31T11:12:32Z</time>
      </trkpt>
      <trkpt lat="43.43508" lon="-0.34799">
        <ele>184.2</ele>
        <time>2026-08-31T11:12:32Z</time>
      </trkpt>
      <trkpt lat="43.43509" lon="-0.34799">
        <ele>184.2</ele>
        <time>2026-08-31T11:12:33Z</time>
      </trkpt>
      <trkpt lat="43.43509" lon="-0.348">
        <ele>184.2</ele>
        <time>2026-08-31T11:12:33Z</time>
      </trkpt>
      <trkpt lat="43.4351" lon="-0.34801">
        <ele>184.2</ele>
        <time>2026-08-31T11:12:34Z</time>
      </trkpt>
      <trkpt lat="43.4351" lon="-0.34801">
        <ele>184.2</ele>
        <time>2026-08-31T11:12:35Z</time>
      </trkpt>
      <trkpt lat="43.4351" lon="-0.34802">
        <ele>184.2</ele>
        <time>2026-08-31T11:12:35Z</time>
      </trkpt>
      <trkpt lat="43.43511" lon="-0.34802">
        <ele>184.2</ele>
        <time>2026-08-31T11:12:36Z</time>
      </trkpt>
      <trkpt lat="43.43511" lon="-0.34803">
        <ele>184.2</ele>
        <time>2026-08-31T11:12:36Z</time>
      </trkpt>
      <trkpt lat="43.43512" lon="-0.34804">
        <ele>185.2</ele>
        <time>2026-08-31T11:12:37Z</time>
      </trkpt>
      <trkpt lat="43.43512" lon="-0.34804">
        <ele>185.2</ele>
        <time>2026-08-31T11:12:37Z</time>
      </trkpt>
      <trkpt lat="43.43513" lon="-0.34805">
        <ele>184.2</ele>
        <time>2026-08-31T11:12:38Z</time>
      </trkpt>
      <trkpt lat="43.43513" lon="-0.34806">
        <ele>184.2</ele>
        <time>2026-08-31T11:12:39Z</time>
      </trkpt>
      <trkpt lat="43.43514" lon="-0.34806">
        <ele>184.2</ele>
        <time>2026-08-31T11:12:39Z</time>
      </trkpt>
      <trkpt lat="43.43514" lon="-0.34807">
        <ele>184.2</ele>
        <time>2026-08-31T11:12:40Z</time>
      </trkpt>
      <trkpt lat="43.43515" lon="-0.34807">
        <ele>184.2</ele>
        <time>2026-08-31T11:12:40Z</time>
      </trkpt>
      <trkpt lat="43.43515" lon="-0.34808">
        <ele>184.2</ele>
        <time>2026-08-31T11:12:41Z</time>
      </trkpt>
      <trkpt lat="43.43516" lon="-0.34809">
        <ele>184.2</ele>
        <time>2026-08-31T11:12:41Z</time>
      </trkpt>
      <trkpt lat="43.43516" lon="-0.34809">
        <ele>183.2</ele>
        <time>2026-08-31T11:12:42Z</time>
      </trkpt>
      <trkpt lat="43.43517" lon="-0.3481">
        <ele>183.2</ele>
        <time>2026-08-31T11:12:42Z</time>
      </trkpt>
      <trkpt lat="43.43517" lon="-0.34811">
        <ele>183.2</ele>
        <time>2026-08-31T11:12:43Z</time>
      </trkpt>
      <trkpt lat="43.43518" lon="-0.34811">
        <ele>183.2</ele>
        <time>2026-08-31T11:12:43Z</time>
      </trkpt>
      <trkpt lat="43.43519" lon="-0.34812">
        <ele>183.2</ele>
        <time>2026-08-31T11:12:44Z</time>
      </trkpt>
      <trkpt lat="43.43519" lon="-0.34812">
        <ele>183.2</ele>
        <time>2026-08-31T11:12:45Z</time>
      </trkpt>
      <trkpt lat="43.4352" lon="-0.34813">
        <ele>184.2</ele>
        <time>2026-08-31T11:12:46Z</time>
      </trkpt>
      <trkpt lat="43.43521" lon="-0.34814">
        <ele>184.2</ele>
        <time>2026-08-31T11:12:46Z</time>
      </trkpt>
      <trkpt lat="43.43521" lon="-0.34815">
        <ele>183.2</ele>
        <time>2026-08-31T11:12:47Z</time>
      </trkpt>
      <trkpt lat="43.43522" lon="-0.34815">
        <ele>183.2</ele>
        <time>2026-08-31T11:12:47Z</time>
      </trkpt>
      <trkpt lat="43.43523" lon="-0.34816">
        <ele>183.2</ele>
        <time>2026-08-31T11:12:48Z</time>
      </trkpt>
      <trkpt lat="43.43523" lon="-0.34816">
        <ele>183.2</ele>
        <time>2026-08-31T11:12:48Z</time>
      </trkpt>
      <trkpt lat="43.43524" lon="-0.34817">
        <ele>183.2</ele>
        <time>2026-08-31T11:12:49Z</time>
      </trkpt>
      <trkpt lat="43.43525" lon="-0.34817">
        <ele>183.2</ele>
        <time>2026-08-31T11:12:49Z</time>
      </trkpt>
      <trkpt lat="43.43525" lon="-0.34818">
        <ele>183.2</ele>
        <time>2026-08-31T11:12:50Z</time>
      </trkpt>
      <trkpt lat="43.43526" lon="-0.34818">
        <ele>183.2</ele>
        <time>2026-08-31T11:12:51Z</time>
      </trkpt>
      <trkpt lat="43.43526" lon="-0.34819">
        <ele>183.2</ele>
        <time>2026-08-31T11:12:51Z</time>
      </trkpt>
      <trkpt lat="43.43527" lon="-0.34819">
        <ele>183.2</ele>
        <time>2026-08-31T11:12:52Z</time>
      </trkpt>
      <trkpt lat="43.43527" lon="-0.3482">
        <ele>183.2</ele>
        <time>2026-08-31T11:12:52Z</time>
      </trkpt>
      <trkpt lat="43.43528" lon="-0.3482">
        <ele>184.2</ele>
        <time>2026-08-31T11:12:53Z</time>
      </trkpt>
      <trkpt lat="43.43528" lon="-0.3482">
        <ele>184.2</ele>
        <time>2026-08-31T11:12:53Z</time>
      </trkpt>
      <trkpt lat="43.43529" lon="-0.34821">
        <ele>184.2</ele>
        <time>2026-08-31T11:12:54Z</time>
      </trkpt>
      <trkpt lat="43.43529" lon="-0.34821">
        <ele>184.2</ele>
        <time>2026-08-31T11:12:54Z</time>
      </trkpt>
      <trkpt lat="43.43529" lon="-0.34821">
        <ele>184.2</ele>
        <time>2026-08-31T11:12:55Z</time>
      </trkpt>
      <trkpt lat="43.4353" lon="-0.34821">
        <ele>184.2</ele>
        <time>2026-08-31T11:12:55Z</time>
      </trkpt>
      <trkpt lat="43.4353" lon="-0.34822">
        <ele>183.2</ele>
        <time>2026-08-31T11:12:56Z</time>
      </trkpt>
      <trkpt lat="43.4353" lon="-0.34822">
        <ele>183.2</ele>
        <time>2026-08-31T11:12:56Z</time>
      </trkpt>
      <trkpt lat="43.43531" lon="-0.34823">
        <ele>183.2</ele>
        <time>2026-08-31T11:12:58Z</time>
      </trkpt>
      <trkpt lat="43.43531" lon="-0.34823">
        <ele>183.2</ele>
        <time>2026-08-31T11:12:58Z</time>
      </trkpt>
      <trkpt lat="43.43532" lon="-0.34823">
        <ele>183.2</ele>
        <time>2026-08-31T11:12:59Z</time>
      </trkpt>
      <trkpt lat="43.43533" lon="-0.34823">
        <ele>182.2</ele>
        <time>2026-08-31T11:12:59Z</time>
      </trkpt>
      <trkpt lat="43.43533" lon="-0.34823">
        <ele>182.2</ele>
        <time>2026-08-31T11:13:00Z</time>
      </trkpt>
      <trkpt lat="43.43534" lon="-0.34823">
        <ele>182.2</ele>
        <time>2026-08-31T11:13:00Z</time>
      </trkpt>
      <trkpt lat="43.43534" lon="-0.34823">
        <ele>182.2</ele>
        <time>2026-08-31T11:13:01Z</time>
      </trkpt>
      <trkpt lat="43.43535" lon="-0.34824">
        <ele>183.2</ele>
        <time>2026-08-31T11:13:02Z</time>
      </trkpt>
      <trkpt lat="43.43536" lon="-0.34824">
        <ele>183.2</ele>
        <time>2026-08-31T11:13:03Z</time>
      </trkpt>
      <trkpt lat="43.43536" lon="-0.34824">
        <ele>182.2</ele>
        <time>2026-08-31T11:13:03Z</time>
      </trkpt>
      <trkpt lat="43.43537" lon="-0.34824">
        <ele>182.2</ele>
        <time>2026-08-31T11:13:04Z</time>
      </trkpt>
      <trkpt lat="43.43537" lon="-0.34825">
        <ele>182.2</ele>
        <time>2026-08-31T11:13:04Z</time>
      </trkpt>
      <trkpt lat="43.43538" lon="-0.34825">
        <ele>182.2</ele>
        <time>2026-08-31T11:13:05Z</time>
      </trkpt>
      <trkpt lat="43.43538" lon="-0.34826">
        <ele>182.2</ele>
        <time>2026-08-31T11:13:05Z</time>
      </trkpt>
      <trkpt lat="43.43539" lon="-0.34826">
        <ele>182.2</ele>
        <time>2026-08-31T11:13:06Z</time>
      </trkpt>
      <trkpt lat="43.43539" lon="-0.34827">
        <ele>182.2</ele>
        <time>2026-08-31T11:13:06Z</time>
      </trkpt>
      <trkpt lat="43.4354" lon="-0.34827">
        <ele>182.2</ele>
        <time>2026-08-31T11:13:07Z</time>
      </trkpt>
      <trkpt lat="43.4354" lon="-0.34828">
        <ele>182.2</ele>
        <time>2026-08-31T11:13:07Z</time>
      </trkpt>
      <trkpt lat="43.4354" lon="-0.34828">
        <ele>182.2</ele>
        <time>2026-08-31T11:13:08Z</time>
      </trkpt>
      <trkpt lat="43.43541" lon="-0.34829">
        <ele>182.2</ele>
        <time>2026-08-31T11:13:08Z</time>
      </trkpt>
      <trkpt lat="43.43541" lon="-0.3483">
        <ele>182.2</ele>
        <time>2026-08-31T11:13:09Z</time>
      </trkpt>
      <trkpt lat="43.43541" lon="-0.3483">
        <ele>182.2</ele>
        <time>2026-08-31T11:13:10Z</time>
      </trkpt>
      <trkpt lat="43.43542" lon="-0.34831">
        <ele>182.2</ele>
        <time>2026-08-31T11:13:10Z</time>
      </trkpt>
      <trkpt lat="43.43542" lon="-0.34831">
        <ele>182.2</ele>
        <time>2026-08-31T11:13:11Z</time>
      </trkpt>
      <trkpt lat="43.43543" lon="-0.34832">
        <ele>182.2</ele>
        <time>2026-08-31T11:13:11Z</time>
      </trkpt>
      <trkpt lat="43.43543" lon="-0.34832">
        <ele>182.2</ele>
        <time>2026-08-31T11:13:12Z</time>
      </trkpt>
      <trkpt lat="43.43544" lon="-0.34832">
        <ele>182.2</ele>
        <time>2026-08-31T11:13:12Z</time>
      </trkpt>
      <trkpt lat="43.43544" lon="-0.34833">
        <ele>182.2</ele>
        <time>2026-08-31T11:13:13Z</time>
      </trkpt>
      <trkpt lat="43.43544" lon="-0.34833">
        <ele>182.2</ele>
        <time>2026-08-31T11:13:13Z</time>
      </trkpt>
      <trkpt lat="43.43545" lon="-0.34834">
        <ele>181.2</ele>
        <time>2026-08-31T11:13:14Z</time>
      </trkpt>
      <trkpt lat="43.43545" lon="-0.34834">
        <ele>181.2</ele>
        <time>2026-08-31T11:13:14Z</time>
      </trkpt>
      <trkpt lat="43.43546" lon="-0.34835">
        <ele>182.2</ele>
        <time>2026-08-31T11:13:15Z</time>
      </trkpt>
      <trkpt lat="43.43547" lon="-0.34835">
        <ele>182.2</ele>
        <time>2026-08-31T11:13:16Z</time>
      </trkpt>
      <trkpt lat="43.43547" lon="-0.34835">
        <ele>182.2</ele>
        <time>2026-08-31T11:13:16Z</time>
      </trkpt>
      <trkpt lat="43.43548" lon="-0.34836">
        <ele>182.2</ele>
        <time>2026-08-31T11:13:17Z</time>
      </trkpt>
      <trkpt lat="43.43548" lon="-0.34836">
        <ele>182.2</ele>
        <time>2026-08-31T11:13:17Z</time>
      </trkpt>
      <trkpt lat="43.43549" lon="-0.34836">
        <ele>181.2</ele>
        <time>2026-08-31T11:13:18Z</time>
      </trkpt>
      <trkpt lat="43.4355" lon="-0.34836">
        <ele>181.2</ele>
        <time>2026-08-31T11:13:18Z</time>
      </trkpt>
      <trkpt lat="43.4355" lon="-0.34837">
        <ele>181.2</ele>
        <time>2026-08-31T11:13:19Z</time>
      </trkpt>
      <trkpt lat="43.43551" lon="-0.34837">
        <ele>181.2</ele>
        <time>2026-08-31T11:13:19Z</time>
      </trkpt>
      <trkpt lat="43.43551" lon="-0.34837">
        <ele>181.2</ele>
        <time>2026-08-31T11:13:20Z</time>
      </trkpt>
      <trkpt lat="43.43552" lon="-0.34837">
        <ele>181.2</ele>
        <time>2026-08-31T11:13:20Z</time>
      </trkpt>
      <trkpt lat="43.43552" lon="-0.34838">
        <ele>181.2</ele>
        <time>2026-08-31T11:13:21Z</time>
      </trkpt>
      <trkpt lat="43.43553" lon="-0.34838">
        <ele>181.2</ele>
        <time>2026-08-31T11:13:21Z</time>
      </trkpt>
      <trkpt lat="43.43554" lon="-0.34838">
        <ele>181.2</ele>
        <time>2026-08-31T11:13:22Z</time>
      </trkpt>
      <trkpt lat="43.43554" lon="-0.34839">
        <ele>181.2</ele>
        <time>2026-08-31T11:13:22Z</time>
      </trkpt>
      <trkpt lat="43.43555" lon="-0.34839">
        <ele>181.2</ele>
        <time>2026-08-31T11:13:23Z</time>
      </trkpt>
      <trkpt lat="43.43555" lon="-0.34839">
        <ele>181.2</ele>
        <time>2026-08-31T11:13:24Z</time>
      </trkpt>
      <trkpt lat="43.43556" lon="-0.34839">
        <ele>181.2</ele>
        <time>2026-08-31T11:13:24Z</time>
      </trkpt>
      <trkpt lat="43.43557" lon="-0.3484">
        <ele>181.2</ele>
        <time>2026-08-31T11:13:25Z</time>
      </trkpt>
      <trkpt lat="43.43558" lon="-0.3484">
        <ele>181.2</ele>
        <time>2026-08-31T11:13:26Z</time>
      </trkpt>
      <trkpt lat="43.43558" lon="-0.34841">
        <ele>181.2</ele>
        <time>2026-08-31T11:13:26Z</time>
      </trkpt>
      <trkpt lat="43.43559" lon="-0.34841">
        <ele>181.2</ele>
        <time>2026-08-31T11:13:27Z</time>
      </trkpt>
      <trkpt lat="43.4356" lon="-0.34842">
        <ele>181.2</ele>
        <time>2026-08-31T11:13:27Z</time>
      </trkpt>
      <trkpt lat="43.4356" lon="-0.34842">
        <ele>180.2</ele>
        <time>2026-08-31T11:13:28Z</time>
      </trkpt>
      <trkpt lat="43.43561" lon="-0.34842">
        <ele>180.2</ele>
        <time>2026-08-31T11:13:28Z</time>
      </trkpt>
      <trkpt lat="43.43561" lon="-0.34843">
        <ele>180.2</ele>
        <time>2026-08-31T11:13:29Z</time>
      </trkpt>
      <trkpt lat="43.43562" lon="-0.34844">
        <ele>180.2</ele>
        <time>2026-08-31T11:13:29Z</time>
      </trkpt>
      <trkpt lat="43.43562" lon="-0.34844">
        <ele>180.2</ele>
        <time>2026-08-31T11:13:30Z</time>
      </trkpt>
      <trkpt lat="43.43563" lon="-0.34845">
        <ele>180.2</ele>
        <time>2026-08-31T11:13:31Z</time>
      </trkpt>
      <trkpt lat="43.43563" lon="-0.34845">
        <ele>179.2</ele>
        <time>2026-08-31T11:13:31Z</time>
      </trkpt>
      <trkpt lat="43.43564" lon="-0.34846">
        <ele>179.2</ele>
        <time>2026-08-31T11:13:32Z</time>
      </trkpt>
      <trkpt lat="43.43564" lon="-0.34847">
        <ele>179.2</ele>
        <time>2026-08-31T11:13:32Z</time>
      </trkpt>
      <trkpt lat="43.43565" lon="-0.34847">
        <ele>179.2</ele>
        <time>2026-08-31T11:13:33Z</time>
      </trkpt>
      <trkpt lat="43.43565" lon="-0.34848">
        <ele>179.2</ele>
        <time>2026-08-31T11:13:33Z</time>
      </trkpt>
      <trkpt lat="43.43566" lon="-0.34849">
        <ele>178.2</ele>
        <time>2026-08-31T11:13:34Z</time>
      </trkpt>
      <trkpt lat="43.43567" lon="-0.34849">
        <ele>178.2</ele>
        <time>2026-08-31T11:13:34Z</time>
      </trkpt>
      <trkpt lat="43.43567" lon="-0.3485">
        <ele>178.2</ele>
        <time>2026-08-31T11:13:35Z</time>
      </trkpt>
      <trkpt lat="43.43568" lon="-0.34851">
        <ele>178.2</ele>
        <time>2026-08-31T11:13:35Z</time>
      </trkpt>
      <trkpt lat="43.43568" lon="-0.34851">
        <ele>177.2</ele>
        <time>2026-08-31T11:13:36Z</time>
      </trkpt>
      <trkpt lat="43.43569" lon="-0.34852">
        <ele>177.2</ele>
        <time>2026-08-31T11:13:36Z</time>
      </trkpt>
      <trkpt lat="43.43569" lon="-0.34853">
        <ele>177.2</ele>
        <time>2026-08-31T11:13:37Z</time>
      </trkpt>
      <trkpt lat="43.4357" lon="-0.34853">
        <ele>177.2</ele>
        <time>2026-08-31T11:13:37Z</time>
      </trkpt>
      <trkpt lat="43.43571" lon="-0.34854">
        <ele>177.2</ele>
        <time>2026-08-31T11:13:38Z</time>
      </trkpt>
      <trkpt lat="43.43571" lon="-0.34854">
        <ele>177.2</ele>
        <time>2026-08-31T11:13:39Z</time>
      </trkpt>
      <trkpt lat="43.43572" lon="-0.34855">
        <ele>177.2</ele>
        <time>2026-08-31T11:13:39Z</time>
      </trkpt>
      <trkpt lat="43.43572" lon="-0.34856">
        <ele>177.2</ele>
        <time>2026-08-31T11:13:40Z</time>
      </trkpt>
      <trkpt lat="43.43573" lon="-0.34856">
        <ele>177.2</ele>
        <time>2026-08-31T11:13:40Z</time>
      </trkpt>
      <trkpt lat="43.43573" lon="-0.34856">
        <ele>177.2</ele>
        <time>2026-08-31T11:13:41Z</time>
      </trkpt>
      <trkpt lat="43.43574" lon="-0.34857">
        <ele>177.2</ele>
        <time>2026-08-31T11:13:41Z</time>
      </trkpt>
      <trkpt lat="43.43575" lon="-0.34857">
        <ele>176.2</ele>
        <time>2026-08-31T11:13:42Z</time>
      </trkpt>
      <trkpt lat="43.43575" lon="-0.34858">
        <ele>176.2</ele>
        <time>2026-08-31T11:13:42Z</time>
      </trkpt>
      <trkpt lat="43.43576" lon="-0.34858">
        <ele>176.2</ele>
        <time>2026-08-31T11:13:43Z</time>
      </trkpt>
      <trkpt lat="43.43576" lon="-0.34859">
        <ele>176.2</ele>
        <time>2026-08-31T11:13:43Z</time>
      </trkpt>
      <trkpt lat="43.43577" lon="-0.3486">
        <ele>176.2</ele>
        <time>2026-08-31T11:13:44Z</time>
      </trkpt>
      <trkpt lat="43.43577" lon="-0.34861">
        <ele>176.2</ele>
        <time>2026-08-31T11:13:45Z</time>
      </trkpt>
      <trkpt lat="43.43578" lon="-0.34861">
        <ele>176.2</ele>
        <time>2026-08-31T11:13:45Z</time>
      </trkpt>
      <trkpt lat="43.43578" lon="-0.34862">
        <ele>176.2</ele>
        <time>2026-08-31T11:13:46Z</time>
      </trkpt>
      <trkpt lat="43.43579" lon="-0.34862">
        <ele>176.2</ele>
        <time>2026-08-31T11:13:46Z</time>
      </trkpt>
      <trkpt lat="43.43579" lon="-0.34863">
        <ele>176.2</ele>
        <time>2026-08-31T11:13:47Z</time>
      </trkpt>
      <trkpt lat="43.4358" lon="-0.34863">
        <ele>176.2</ele>
        <time>2026-08-31T11:13:47Z</time>
      </trkpt>
      <trkpt lat="43.4358" lon="-0.34864">
        <ele>176.2</ele>
        <time>2026-08-31T11:13:48Z</time>
      </trkpt>
      <trkpt lat="43.4358" lon="-0.34865">
        <ele>176.2</ele>
        <time>2026-08-31T11:13:48Z</time>
      </trkpt>
      <trkpt lat="43.43581" lon="-0.34865">
        <ele>176.2</ele>
        <time>2026-08-31T11:13:49Z</time>
      </trkpt>
      <trkpt lat="43.43581" lon="-0.34866">
        <ele>176.2</ele>
        <time>2026-08-31T11:13:50Z</time>
      </trkpt>
      <trkpt lat="43.43581" lon="-0.34867">
        <ele>176.2</ele>
        <time>2026-08-31T11:13:50Z</time>
      </trkpt>
      <trkpt lat="43.43582" lon="-0.34867">
        <ele>176.2</ele>
        <time>2026-08-31T11:13:51Z</time>
      </trkpt>
      <trkpt lat="43.43582" lon="-0.34868">
        <ele>176.2</ele>
        <time>2026-08-31T11:13:51Z</time>
      </trkpt>
      <trkpt lat="43.43582" lon="-0.34868">
        <ele>176.2</ele>
        <time>2026-08-31T11:13:52Z</time>
      </trkpt>
      <trkpt lat="43.43583" lon="-0.34868">
        <ele>176.2</ele>
        <time>2026-08-31T11:13:52Z</time>
      </trkpt>
      <trkpt lat="43.43583" lon="-0.34869">
        <ele>176.2</ele>
        <time>2026-08-31T11:13:53Z</time>
      </trkpt>
      <trkpt lat="43.43584" lon="-0.34869">
        <ele>176.2</ele>
        <time>2026-08-31T11:13:54Z</time>
      </trkpt>
      <trkpt lat="43.43584" lon="-0.3487">
        <ele>176.2</ele>
        <time>2026-08-31T11:13:54Z</time>
      </trkpt>
      <trkpt lat="43.43584" lon="-0.34871">
        <ele>176.2</ele>
        <time>2026-08-31T11:13:55Z</time>
      </trkpt>
      <trkpt lat="43.43585" lon="-0.34871">
        <ele>176.2</ele>
        <time>2026-08-31T11:13:55Z</time>
      </trkpt>
      <trkpt lat="43.43585" lon="-0.34872">
        <ele>176.2</ele>
        <time>2026-08-31T11:13:56Z</time>
      </trkpt>
      <trkpt lat="43.43585" lon="-0.34873">
        <ele>176.2</ele>
        <time>2026-08-31T11:13:56Z</time>
      </trkpt>
      <trkpt lat="43.43586" lon="-0.34874">
        <ele>176.2</ele>
        <time>2026-08-31T11:13:57Z</time>
      </trkpt>
      <trkpt lat="43.43586" lon="-0.34874">
        <ele>176.2</ele>
        <time>2026-08-31T11:13:57Z</time>
      </trkpt>
      <trkpt lat="43.43587" lon="-0.34875">
        <ele>176.2</ele>
        <time>2026-08-31T11:13:58Z</time>
      </trkpt>
      <trkpt lat="43.43587" lon="-0.34876">
        <ele>176.2</ele>
        <time>2026-08-31T11:13:59Z</time>
      </trkpt>
      <trkpt lat="43.43587" lon="-0.34877">
        <ele>176.2</ele>
        <time>2026-08-31T11:13:59Z</time>
      </trkpt>
      <trkpt lat="43.43588" lon="-0.34878">
        <ele>176.2</ele>
        <time>2026-08-31T11:14:00Z</time>
      </trkpt>
      <trkpt lat="43.43588" lon="-0.34879">
        <ele>176.2</ele>
        <time>2026-08-31T11:14:00Z</time>
      </trkpt>
      <trkpt lat="43.43589" lon="-0.34879">
        <ele>175.2</ele>
        <time>2026-08-31T11:14:01Z</time>
      </trkpt>
      <trkpt lat="43.43589" lon="-0.3488">
        <ele>175.2</ele>
        <time>2026-08-31T11:14:02Z</time>
      </trkpt>
      <trkpt lat="43.4359" lon="-0.34882">
        <ele>175.2</ele>
        <time>2026-08-31T11:14:03Z</time>
      </trkpt>
      <trkpt lat="43.4359" lon="-0.34882">
        <ele>175.2</ele>
        <time>2026-08-31T11:14:03Z</time>
      </trkpt>
      <trkpt lat="43.43591" lon="-0.34883">
        <ele>175.2</ele>
        <time>2026-08-31T11:14:04Z</time>
      </trkpt>
      <trkpt lat="43.43591" lon="-0.34884">
        <ele>175.2</ele>
        <time>2026-08-31T11:14:04Z</time>
      </trkpt>
      <trkpt lat="43.43591" lon="-0.34884">
        <ele>175.2</ele>
        <time>2026-08-31T11:14:05Z</time>
      </trkpt>
      <trkpt lat="43.43592" lon="-0.34885">
        <ele>175.2</ele>
        <time>2026-08-31T11:14:05Z</time>
      </trkpt>
      <trkpt lat="43.43592" lon="-0.34886">
        <ele>175.2</ele>
        <time>2026-08-31T11:14:06Z</time>
      </trkpt>
      <trkpt lat="43.43592" lon="-0.34887">
        <ele>175.2</ele>
        <time>2026-08-31T11:14:06Z</time>
      </trkpt>
      <trkpt lat="43.43593" lon="-0.34887">
        <ele>174.2</ele>
        <time>2026-08-31T11:14:07Z</time>
      </trkpt>
      <trkpt lat="43.43593" lon="-0.34888">
        <ele>174.2</ele>
        <time>2026-08-31T11:14:07Z</time>
      </trkpt>
      <trkpt lat="43.43593" lon="-0.34889">
        <ele>173.2</ele>
        <time>2026-08-31T11:14:08Z</time>
      </trkpt>
      <trkpt lat="43.43594" lon="-0.3489">
        <ele>173.2</ele>
        <time>2026-08-31T11:14:08Z</time>
      </trkpt>
      <trkpt lat="43.43594" lon="-0.34891">
        <ele>174.2</ele>
        <time>2026-08-31T11:14:09Z</time>
      </trkpt>
      <trkpt lat="43.43594" lon="-0.34891">
        <ele>174.2</ele>
        <time>2026-08-31T11:14:10Z</time>
      </trkpt>
      <trkpt lat="43.43594" lon="-0.34893">
        <ele>174.2</ele>
        <time>2026-08-31T11:14:10Z</time>
      </trkpt>
      <trkpt lat="43.43595" lon="-0.34894">
        <ele>174.2</ele>
        <time>2026-08-31T11:14:11Z</time>
      </trkpt>
      <trkpt lat="43.43595" lon="-0.34895">
        <ele>174.2</ele>
        <time>2026-08-31T11:14:12Z</time>
      </trkpt>
      <trkpt lat="43.43596" lon="-0.34896">
        <ele>174.2</ele>
        <time>2026-08-31T11:14:13Z</time>
      </trkpt>
      <trkpt lat="43.43596" lon="-0.34897">
        <ele>174.2</ele>
        <time>2026-08-31T11:14:13Z</time>
      </trkpt>
      <trkpt lat="43.43596" lon="-0.34898">
        <ele>174.2</ele>
        <time>2026-08-31T11:14:14Z</time>
      </trkpt>
      <trkpt lat="43.43596" lon="-0.34899">
        <ele>174.2</ele>
        <time>2026-08-31T11:14:15Z</time>
      </trkpt>
      <trkpt lat="43.43597" lon="-0.349">
        <ele>173.2</ele>
        <time>2026-08-31T11:14:15Z</time>
      </trkpt>
      <trkpt lat="43.43597" lon="-0.349">
        <ele>173.2</ele>
        <time>2026-08-31T11:14:16Z</time>
      </trkpt>
      <trkpt lat="43.43597" lon="-0.34901">
        <ele>173.2</ele>
        <time>2026-08-31T11:14:16Z</time>
      </trkpt>
      <trkpt lat="43.43597" lon="-0.34902">
        <ele>174.2</ele>
        <time>2026-08-31T11:14:17Z</time>
      </trkpt>
      <trkpt lat="43.43598" lon="-0.34902">
        <ele>174.2</ele>
        <time>2026-08-31T11:14:17Z</time>
      </trkpt>
      <trkpt lat="43.43598" lon="-0.34903">
        <ele>174.2</ele>
        <time>2026-08-31T11:14:18Z</time>
      </trkpt>
      <trkpt lat="43.43598" lon="-0.34904">
        <ele>174.2</ele>
        <time>2026-08-31T11:14:18Z</time>
      </trkpt>
      <trkpt lat="43.43599" lon="-0.34905">
        <ele>174.2</ele>
        <time>2026-08-31T11:14:19Z</time>
      </trkpt>
      <trkpt lat="43.43599" lon="-0.34906">
        <ele>174.2</ele>
        <time>2026-08-31T11:14:19Z</time>
      </trkpt>
      <trkpt lat="43.43599" lon="-0.34907">
        <ele>174.2</ele>
        <time>2026-08-31T11:14:20Z</time>
      </trkpt>
      <trkpt lat="43.43599" lon="-0.34907">
        <ele>174.2</ele>
        <time>2026-08-31T11:14:20Z</time>
      </trkpt>
      <trkpt lat="43.436" lon="-0.34908">
        <ele>174.2</ele>
        <time>2026-08-31T11:14:21Z</time>
      </trkpt>
      <trkpt lat="43.436" lon="-0.34909">
        <ele>174.2</ele>
        <time>2026-08-31T11:14:22Z</time>
      </trkpt>
      <trkpt lat="43.436" lon="-0.3491">
        <ele>175.2</ele>
        <time>2026-08-31T11:14:22Z</time>
      </trkpt>
      <trkpt lat="43.43601" lon="-0.34911">
        <ele>175.2</ele>
        <time>2026-08-31T11:14:23Z</time>
      </trkpt>
      <trkpt lat="43.43601" lon="-0.34911">
        <ele>175.2</ele>
        <time>2026-08-31T11:14:23Z</time>
      </trkpt>
      <trkpt lat="43.43601" lon="-0.34912">
        <ele>175.2</ele>
        <time>2026-08-31T11:14:24Z</time>
      </trkpt>
      <trkpt lat="43.43602" lon="-0.34913">
        <ele>175.2</ele>
        <time>2026-08-31T11:14:24Z</time>
      </trkpt>
      <trkpt lat="43.43602" lon="-0.34914">
        <ele>175.2</ele>
        <time>2026-08-31T11:14:25Z</time>
      </trkpt>
      <trkpt lat="43.43603" lon="-0.34914">
        <ele>175.2</ele>
        <time>2026-08-31T11:14:25Z</time>
      </trkpt>
      <trkpt lat="43.43603" lon="-0.34915">
        <ele>175.2</ele>
        <time>2026-08-31T11:14:26Z</time>
      </trkpt>
      <trkpt lat="43.43604" lon="-0.34916">
        <ele>175.2</ele>
        <time>2026-08-31T11:14:27Z</time>
      </trkpt>
      <trkpt lat="43.43604" lon="-0.34918">
        <ele>175.2</ele>
        <time>2026-08-31T11:14:28Z</time>
      </trkpt>
      <trkpt lat="43.43605" lon="-0.34918">
        <ele>175.2</ele>
        <time>2026-08-31T11:14:28Z</time>
      </trkpt>
      <trkpt lat="43.43605" lon="-0.34919">
        <ele>176.2</ele>
        <time>2026-08-31T11:14:29Z</time>
      </trkpt>
      <trkpt lat="43.43606" lon="-0.3492">
        <ele>176.2</ele>
        <time>2026-08-31T11:14:29Z</time>
      </trkpt>
      <trkpt lat="43.43607" lon="-0.34921">
        <ele>176.2</ele>
        <time>2026-08-31T11:14:30Z</time>
      </trkpt>
      <trkpt lat="43.43607" lon="-0.34921">
        <ele>176.2</ele>
        <time>2026-08-31T11:14:30Z</time>
      </trkpt>
      <trkpt lat="43.43608" lon="-0.34922">
        <ele>176.2</ele>
        <time>2026-08-31T11:14:31Z</time>
      </trkpt>
      <trkpt lat="43.43609" lon="-0.34923">
        <ele>176.2</ele>
        <time>2026-08-31T11:14:31Z</time>
      </trkpt>
      <trkpt lat="43.43609" lon="-0.34924">
        <ele>176.2</ele>
        <time>2026-08-31T11:14:32Z</time>
      </trkpt>
      <trkpt lat="43.4361" lon="-0.34924">
        <ele>176.2</ele>
        <time>2026-08-31T11:14:32Z</time>
      </trkpt>
      <trkpt lat="43.4361" lon="-0.34925">
        <ele>176.2</ele>
        <time>2026-08-31T11:14:33Z</time>
      </trkpt>
      <trkpt lat="43.43611" lon="-0.34926">
        <ele>176.2</ele>
        <time>2026-08-31T11:14:34Z</time>
      </trkpt>
      <trkpt lat="43.43612" lon="-0.34927">
        <ele>177.2</ele>
        <time>2026-08-31T11:14:34Z</time>
      </trkpt>
      <trkpt lat="43.43612" lon="-0.34927">
        <ele>177.2</ele>
        <time>2026-08-31T11:14:35Z</time>
      </trkpt>
      <trkpt lat="43.43613" lon="-0.34928">
        <ele>177.2</ele>
        <time>2026-08-31T11:14:35Z</time>
      </trkpt>
      <trkpt lat="43.43613" lon="-0.34928">
        <ele>177.2</ele>
        <time>2026-08-31T11:14:36Z</time>
      </trkpt>
      <trkpt lat="43.43614" lon="-0.34929">
        <ele>177.2</ele>
        <time>2026-08-31T11:14:36Z</time>
      </trkpt>
      <trkpt lat="43.43615" lon="-0.3493">
        <ele>177.2</ele>
        <time>2026-08-31T11:14:37Z</time>
      </trkpt>
      <trkpt lat="43.43615" lon="-0.34931">
        <ele>177.2</ele>
        <time>2026-08-31T11:14:37Z</time>
      </trkpt>
      <trkpt lat="43.43616" lon="-0.34931">
        <ele>177.2</ele>
        <time>2026-08-31T11:14:38Z</time>
      </trkpt>
      <trkpt lat="43.43617" lon="-0.34932">
        <ele>177.2</ele>
        <time>2026-08-31T11:14:38Z</time>
      </trkpt>
      <trkpt lat="43.43617" lon="-0.34932">
        <ele>177.2</ele>
        <time>2026-08-31T11:14:39Z</time>
      </trkpt>
      <trkpt lat="43.43618" lon="-0.34933">
        <ele>177.2</ele>
        <time>2026-08-31T11:14:40Z</time>
      </trkpt>
      <trkpt lat="43.43618" lon="-0.34934">
        <ele>177.2</ele>
        <time>2026-08-31T11:14:40Z</time>
      </trkpt>
      <trkpt lat="43.43619" lon="-0.34935">
        <ele>177.2</ele>
        <time>2026-08-31T11:14:41Z</time>
      </trkpt>
      <trkpt lat="43.43619" lon="-0.34935">
        <ele>177.2</ele>
        <time>2026-08-31T11:14:41Z</time>
      </trkpt>
      <trkpt lat="43.4362" lon="-0.34936">
        <ele>177.2</ele>
        <time>2026-08-31T11:14:42Z</time>
      </trkpt>
      <trkpt lat="43.43621" lon="-0.34937">
        <ele>178.2</ele>
        <time>2026-08-31T11:14:42Z</time>
      </trkpt>
      <trkpt lat="43.43621" lon="-0.34938">
        <ele>178.2</ele>
        <time>2026-08-31T11:14:43Z</time>
      </trkpt>
      <trkpt lat="43.43621" lon="-0.34939">
        <ele>178.2</ele>
        <time>2026-08-31T11:14:43Z</time>
      </trkpt>
      <trkpt lat="43.43622" lon="-0.34939">
        <ele>178.2</ele>
        <time>2026-08-31T11:14:44Z</time>
      </trkpt>
      <trkpt lat="43.43622" lon="-0.3494">
        <ele>178.2</ele>
        <time>2026-08-31T11:14:44Z</time>
      </trkpt>
      <trkpt lat="43.43623" lon="-0.34941">
        <ele>178.2</ele>
        <time>2026-08-31T11:14:45Z</time>
      </trkpt>
      <trkpt lat="43.43623" lon="-0.34942">
        <ele>178.2</ele>
        <time>2026-08-31T11:14:45Z</time>
      </trkpt>
      <trkpt lat="43.43624" lon="-0.34943">
        <ele>179.2</ele>
        <time>2026-08-31T11:14:46Z</time>
      </trkpt>
      <trkpt lat="43.43624" lon="-0.34943">
        <ele>179.2</ele>
        <time>2026-08-31T11:14:46Z</time>
      </trkpt>
      <trkpt lat="43.43625" lon="-0.34944">
        <ele>179.2</ele>
        <time>2026-08-31T11:14:47Z</time>
      </trkpt>
      <trkpt lat="43.43625" lon="-0.34945">
        <ele>179.2</ele>
        <time>2026-08-31T11:14:48Z</time>
      </trkpt>
      <trkpt lat="43.43626" lon="-0.34945">
        <ele>179.2</ele>
        <time>2026-08-31T11:14:48Z</time>
      </trkpt>
      <trkpt lat="43.43626" lon="-0.34946">
        <ele>179.2</ele>
        <time>2026-08-31T11:14:49Z</time>
      </trkpt>
      <trkpt lat="43.43627" lon="-0.34947">
        <ele>179.2</ele>
        <time>2026-08-31T11:14:49Z</time>
      </trkpt>
      <trkpt lat="43.43627" lon="-0.34947">
        <ele>179.2</ele>
        <time>2026-08-31T11:14:50Z</time>
      </trkpt>
      <trkpt lat="43.43628" lon="-0.34948">
        <ele>180.2</ele>
        <time>2026-08-31T11:14:50Z</time>
      </trkpt>
      <trkpt lat="43.43628" lon="-0.34949">
        <ele>179.2</ele>
        <time>2026-08-31T11:14:51Z</time>
      </trkpt>
      <trkpt lat="43.43629" lon="-0.3495">
        <ele>179.2</ele>
        <time>2026-08-31T11:14:52Z</time>
      </trkpt>
      <trkpt lat="43.43629" lon="-0.34951">
        <ele>179.2</ele>
        <time>2026-08-31T11:14:52Z</time>
      </trkpt>
      <trkpt lat="43.4363" lon="-0.34951">
        <ele>179.2</ele>
        <time>2026-08-31T11:14:53Z</time>
      </trkpt>
      <trkpt lat="43.4363" lon="-0.34952">
        <ele>179.2</ele>
        <time>2026-08-31T11:14:53Z</time>
      </trkpt>
      <trkpt lat="43.4363" lon="-0.34953">
        <ele>180.2</ele>
        <time>2026-08-31T11:14:54Z</time>
      </trkpt>
      <trkpt lat="43.43631" lon="-0.34954">
        <ele>180.2</ele>
        <time>2026-08-31T11:14:55Z</time>
      </trkpt>
      <trkpt lat="43.43631" lon="-0.34954">
        <ele>180.2</ele>
        <time>2026-08-31T11:14:55Z</time>
      </trkpt>
      <trkpt lat="43.43631" lon="-0.34955">
        <ele>180.2</ele>
        <time>2026-08-31T11:14:56Z</time>
      </trkpt>
      <trkpt lat="43.43632" lon="-0.34956">
        <ele>180.2</ele>
        <time>2026-08-31T11:14:56Z</time>
      </trkpt>
      <trkpt lat="43.43632" lon="-0.34957">
        <ele>180.2</ele>
        <time>2026-08-31T11:14:57Z</time>
      </trkpt>
      <trkpt lat="43.43633" lon="-0.34957">
        <ele>180.2</ele>
        <time>2026-08-31T11:14:57Z</time>
      </trkpt>
      <trkpt lat="43.43633" lon="-0.34958">
        <ele>181.2</ele>
        <time>2026-08-31T11:14:58Z</time>
      </trkpt>
      <trkpt lat="43.43633" lon="-0.34959">
        <ele>181.2</ele>
        <time>2026-08-31T11:14:58Z</time>
      </trkpt>
      <trkpt lat="43.43634" lon="-0.34959">
        <ele>181.2</ele>
        <time>2026-08-31T11:14:59Z</time>
      </trkpt>
      <trkpt lat="43.43634" lon="-0.3496">
        <ele>181.2</ele>
        <time>2026-08-31T11:14:59Z</time>
      </trkpt>
      <trkpt lat="43.43635" lon="-0.34961">
        <ele>181.2</ele>
        <time>2026-08-31T11:15:00Z</time>
      </trkpt>
      <trkpt lat="43.43635" lon="-0.34962">
        <ele>181.2</ele>
        <time>2026-08-31T11:15:00Z</time>
      </trkpt>
      <trkpt lat="43.43636" lon="-0.34962">
        <ele>181.2</ele>
        <time>2026-08-31T11:15:01Z</time>
      </trkpt>
      <trkpt lat="43.43636" lon="-0.34963">
        <ele>181.2</ele>
        <time>2026-08-31T11:15:01Z</time>
      </trkpt>
      <trkpt lat="43.43637" lon="-0.34964">
        <ele>181.2</ele>
        <time>2026-08-31T11:15:02Z</time>
      </trkpt>
      <trkpt lat="43.43637" lon="-0.34964">
        <ele>181.2</ele>
        <time>2026-08-31T11:15:03Z</time>
      </trkpt>
      <trkpt lat="43.43638" lon="-0.34965">
        <ele>181.2</ele>
        <time>2026-08-31T11:15:03Z</time>
      </trkpt>
      <trkpt lat="43.43638" lon="-0.34966">
        <ele>181.2</ele>
        <time>2026-08-31T11:15:04Z</time>
      </trkpt>
      <trkpt lat="43.43639" lon="-0.34966">
        <ele>181.2</ele>
        <time>2026-08-31T11:15:04Z</time>
      </trkpt>
      <trkpt lat="43.43639" lon="-0.34967">
        <ele>181.2</ele>
        <time>2026-08-31T11:15:05Z</time>
      </trkpt>
      <trkpt lat="43.4364" lon="-0.34968">
        <ele>181.2</ele>
        <time>2026-08-31T11:15:06Z</time>
      </trkpt>
      <trkpt lat="43.4364" lon="-0.34969">
        <ele>181.2</ele>
        <time>2026-08-31T11:15:06Z</time>
      </trkpt>
      <trkpt lat="43.43641" lon="-0.3497">
        <ele>180.2</ele>
        <time>2026-08-31T11:15:07Z</time>
      </trkpt>
      <trkpt lat="43.43641" lon="-0.34971">
        <ele>180.2</ele>
        <time>2026-08-31T11:15:08Z</time>
      </trkpt>
      <trkpt lat="43.43641" lon="-0.34972">
        <ele>180.2</ele>
        <time>2026-08-31T11:15:08Z</time>
      </trkpt>
      <trkpt lat="43.43642" lon="-0.34973">
        <ele>180.2</ele>
        <time>2026-08-31T11:15:09Z</time>
      </trkpt>
      <trkpt lat="43.43642" lon="-0.34973">
        <ele>180.2</ele>
        <time>2026-08-31T11:15:09Z</time>
      </trkpt>
      <trkpt lat="43.43642" lon="-0.34974">
        <ele>180.2</ele>
        <time>2026-08-31T11:15:10Z</time>
      </trkpt>
      <trkpt lat="43.43643" lon="-0.34975">
        <ele>180.2</ele>
        <time>2026-08-31T11:15:10Z</time>
      </trkpt>
      <trkpt lat="43.43643" lon="-0.34976">
        <ele>180.2</ele>
        <time>2026-08-31T11:15:11Z</time>
      </trkpt>
      <trkpt lat="43.43643" lon="-0.34976">
        <ele>180.2</ele>
        <time>2026-08-31T11:15:11Z</time>
      </trkpt>
      <trkpt lat="43.43644" lon="-0.34977">
        <ele>180.2</ele>
        <time>2026-08-31T11:15:12Z</time>
      </trkpt>
      <trkpt lat="43.43644" lon="-0.34978">
        <ele>180.2</ele>
        <time>2026-08-31T11:15:12Z</time>
      </trkpt>
      <trkpt lat="43.43644" lon="-0.34979">
        <ele>180.2</ele>
        <time>2026-08-31T11:15:13Z</time>
      </trkpt>
      <trkpt lat="43.43645" lon="-0.3498">
        <ele>180.2</ele>
        <time>2026-08-31T11:15:13Z</time>
      </trkpt>
      <trkpt lat="43.43645" lon="-0.34981">
        <ele>180.2</ele>
        <time>2026-08-31T11:15:14Z</time>
      </trkpt>
      <trkpt lat="43.43645" lon="-0.34981">
        <ele>180.2</ele>
        <time>2026-08-31T11:15:14Z</time>
      </trkpt>
      <trkpt lat="43.43646" lon="-0.34982">
        <ele>180.2</ele>
        <time>2026-08-31T11:15:15Z</time>
      </trkpt>
      <trkpt lat="43.43646" lon="-0.34983">
        <ele>180.2</ele>
        <time>2026-08-31T11:15:16Z</time>
      </trkpt>
      <trkpt lat="43.43647" lon="-0.34984">
        <ele>180.2</ele>
        <time>2026-08-31T11:15:16Z</time>
      </trkpt>
      <trkpt lat="43.43647" lon="-0.34985">
        <ele>180.2</ele>
        <time>2026-08-31T11:15:17Z</time>
      </trkpt>
      <trkpt lat="43.43647" lon="-0.34985">
        <ele>181.2</ele>
        <time>2026-08-31T11:15:17Z</time>
      </trkpt>
      <trkpt lat="43.43648" lon="-0.34986">
        <ele>181.2</ele>
        <time>2026-08-31T11:15:18Z</time>
      </trkpt>
      <trkpt lat="43.43648" lon="-0.34987">
        <ele>181.2</ele>
        <time>2026-08-31T11:15:18Z</time>
      </trkpt>
      <trkpt lat="43.43648" lon="-0.34988">
        <ele>181.2</ele>
        <time>2026-08-31T11:15:19Z</time>
      </trkpt>
      <trkpt lat="43.43648" lon="-0.34989">
        <ele>181.2</ele>
        <time>2026-08-31T11:15:19Z</time>
      </trkpt>
      <trkpt lat="43.43649" lon="-0.34989">
        <ele>181.2</ele>
        <time>2026-08-31T11:15:20Z</time>
      </trkpt>
      <trkpt lat="43.43649" lon="-0.3499">
        <ele>181.2</ele>
        <time>2026-08-31T11:15:20Z</time>
      </trkpt>
      <trkpt lat="43.43649" lon="-0.34991">
        <ele>181.2</ele>
        <time>2026-08-31T11:15:21Z</time>
      </trkpt>
      <trkpt lat="43.43649" lon="-0.34991">
        <ele>181.2</ele>
        <time>2026-08-31T11:15:21Z</time>
      </trkpt>
      <trkpt lat="43.43649" lon="-0.34992">
        <ele>181.2</ele>
        <time>2026-08-31T11:15:22Z</time>
      </trkpt>
      <trkpt lat="43.4365" lon="-0.34993">
        <ele>181.2</ele>
        <time>2026-08-31T11:15:23Z</time>
      </trkpt>
      <trkpt lat="43.4365" lon="-0.34994">
        <ele>181.2</ele>
        <time>2026-08-31T11:15:23Z</time>
      </trkpt>
      <trkpt lat="43.4365" lon="-0.34995">
        <ele>181.2</ele>
        <time>2026-08-31T11:15:24Z</time>
      </trkpt>
      <trkpt lat="43.43651" lon="-0.34996">
        <ele>181.2</ele>
        <time>2026-08-31T11:15:24Z</time>
      </trkpt>
      <trkpt lat="43.43651" lon="-0.34997">
        <ele>181.2</ele>
        <time>2026-08-31T11:15:25Z</time>
      </trkpt>
      <trkpt lat="43.43651" lon="-0.34997">
        <ele>181.2</ele>
        <time>2026-08-31T11:15:25Z</time>
      </trkpt>
      <trkpt lat="43.43651" lon="-0.34998">
        <ele>181.2</ele>
        <time>2026-08-31T11:15:26Z</time>
      </trkpt>
      <trkpt lat="43.43652" lon="-0.34999">
        <ele>181.2</ele>
        <time>2026-08-31T11:15:26Z</time>
      </trkpt>
      <trkpt lat="43.43652" lon="-0.34999">
        <ele>181.2</ele>
        <time>2026-08-31T11:15:27Z</time>
      </trkpt>
      <trkpt lat="43.43652" lon="-0.35">
        <ele>181.2</ele>
        <time>2026-08-31T11:15:27Z</time>
      </trkpt>
      <trkpt lat="43.43652" lon="-0.35001">
        <ele>181.2</ele>
        <time>2026-08-31T11:15:28Z</time>
      </trkpt>
      <trkpt lat="43.43653" lon="-0.35002">
        <ele>181.2</ele>
        <time>2026-08-31T11:15:28Z</time>
      </trkpt>
      <trkpt lat="43.43653" lon="-0.35002">
        <ele>181.2</ele>
        <time>2026-08-31T11:15:29Z</time>
      </trkpt>
      <trkpt lat="43.43653" lon="-0.35003">
        <ele>181.2</ele>
        <time>2026-08-31T11:15:30Z</time>
      </trkpt>
      <trkpt lat="43.43654" lon="-0.35004">
        <ele>182.2</ele>
        <time>2026-08-31T11:15:30Z</time>
      </trkpt>
      <trkpt lat="43.43654" lon="-0.35004">
        <ele>182.2</ele>
        <time>2026-08-31T11:15:31Z</time>
      </trkpt>
      <trkpt lat="43.43654" lon="-0.35005">
        <ele>182.2</ele>
        <time>2026-08-31T11:15:31Z</time>
      </trkpt>
      <trkpt lat="43.43654" lon="-0.35006">
        <ele>182.2</ele>
        <time>2026-08-31T11:15:32Z</time>
      </trkpt>
      <trkpt lat="43.43654" lon="-0.35006">
        <ele>183.2</ele>
        <time>2026-08-31T11:15:32Z</time>
      </trkpt>
      <trkpt lat="43.43655" lon="-0.35007">
        <ele>183.2</ele>
        <time>2026-08-31T11:15:33Z</time>
      </trkpt>
      <trkpt lat="43.43655" lon="-0.35008">
        <ele>183.2</ele>
        <time>2026-08-31T11:15:33Z</time>
      </trkpt>
      <trkpt lat="43.43655" lon="-0.35009">
        <ele>183.2</ele>
        <time>2026-08-31T11:15:34Z</time>
      </trkpt>
      <trkpt lat="43.43655" lon="-0.3501">
        <ele>183.2</ele>
        <time>2026-08-31T11:15:34Z</time>
      </trkpt>
      <trkpt lat="43.43655" lon="-0.3501">
        <ele>183.2</ele>
        <time>2026-08-31T11:15:35Z</time>
      </trkpt>
      <trkpt lat="43.43656" lon="-0.35011">
        <ele>183.2</ele>
        <time>2026-08-31T11:15:36Z</time>
      </trkpt>
      <trkpt lat="43.43656" lon="-0.35012">
        <ele>183.2</ele>
        <time>2026-08-31T11:15:36Z</time>
      </trkpt>
      <trkpt lat="43.43657" lon="-0.35012">
        <ele>184.2</ele>
        <time>2026-08-31T11:15:37Z</time>
      </trkpt>
      <trkpt lat="43.43658" lon="-0.35014">
        <ele>183.2</ele>
        <time>2026-08-31T11:15:38Z</time>
      </trkpt>
      <trkpt lat="43.43658" lon="-0.35014">
        <ele>183.2</ele>
        <time>2026-08-31T11:15:38Z</time>
      </trkpt>
      <trkpt lat="43.43658" lon="-0.35015">
        <ele>183.2</ele>
        <time>2026-08-31T11:15:39Z</time>
      </trkpt>
      <trkpt lat="43.43659" lon="-0.35016">
        <ele>183.2</ele>
        <time>2026-08-31T11:15:39Z</time>
      </trkpt>
      <trkpt lat="43.4366" lon="-0.35017">
        <ele>183.2</ele>
        <time>2026-08-31T11:15:40Z</time>
      </trkpt>
      <trkpt lat="43.43661" lon="-0.35018">
        <ele>183.2</ele>
        <time>2026-08-31T11:15:41Z</time>
      </trkpt>
      <trkpt lat="43.43662" lon="-0.35019">
        <ele>184.2</ele>
        <time>2026-08-31T11:15:42Z</time>
      </trkpt>
      <trkpt lat="43.43663" lon="-0.3502">
        <ele>183.2</ele>
        <time>2026-08-31T11:15:43Z</time>
      </trkpt>
      <trkpt lat="43.43663" lon="-0.35021">
        <ele>183.2</ele>
        <time>2026-08-31T11:15:43Z</time>
      </trkpt>
      <trkpt lat="43.43664" lon="-0.35022">
        <ele>183.2</ele>
        <time>2026-08-31T11:15:44Z</time>
      </trkpt>
      <trkpt lat="43.43664" lon="-0.35023">
        <ele>183.2</ele>
        <time>2026-08-31T11:15:44Z</time>
      </trkpt>
      <trkpt lat="43.43665" lon="-0.35024">
        <ele>184.2</ele>
        <time>2026-08-31T11:15:45Z</time>
      </trkpt>
      <trkpt lat="43.43666" lon="-0.35025">
        <ele>184.2</ele>
        <time>2026-08-31T11:15:46Z</time>
      </trkpt>
      <trkpt lat="43.43666" lon="-0.35026">
        <ele>184.2</ele>
        <time>2026-08-31T11:15:47Z</time>
      </trkpt>
      <trkpt lat="43.43667" lon="-0.35027">
        <ele>184.2</ele>
        <time>2026-08-31T11:15:47Z</time>
      </trkpt>
      <trkpt lat="43.43668" lon="-0.35029">
        <ele>184.2</ele>
        <time>2026-08-31T11:15:48Z</time>
      </trkpt>
      <trkpt lat="43.43668" lon="-0.35031">
        <ele>183.2</ele>
        <time>2026-08-31T11:15:49Z</time>
      </trkpt>
      <trkpt lat="43.43669" lon="-0.35033">
        <ele>183.2</ele>
        <time>2026-08-31T11:15:51Z</time>
      </trkpt>
      <trkpt lat="43.4367" lon="-0.35034">
        <ele>184.2</ele>
        <time>2026-08-31T11:15:51Z</time>
      </trkpt>
      <trkpt lat="43.43671" lon="-0.35035">
        <ele>183.2</ele>
        <time>2026-08-31T11:15:52Z</time>
      </trkpt>
      <trkpt lat="43.43671" lon="-0.35036">
        <ele>183.2</ele>
        <time>2026-08-31T11:15:53Z</time>
      </trkpt>
      <trkpt lat="43.43672" lon="-0.35038">
        <ele>183.2</ele>
        <time>2026-08-31T11:15:54Z</time>
      </trkpt>
      <trkpt lat="43.43673" lon="-0.35039">
        <ele>183.2</ele>
        <time>2026-08-31T11:15:55Z</time>
      </trkpt>
      <trkpt lat="43.43673" lon="-0.3504">
        <ele>183.2</ele>
        <time>2026-08-31T11:15:55Z</time>
      </trkpt>
      <trkpt lat="43.43674" lon="-0.35041">
        <ele>183.2</ele>
        <time>2026-08-31T11:15:56Z</time>
      </trkpt>
      <trkpt lat="43.43674" lon="-0.35042">
        <ele>183.2</ele>
        <time>2026-08-31T11:15:56Z</time>
      </trkpt>
      <trkpt lat="43.43675" lon="-0.35043">
        <ele>183.2</ele>
        <time>2026-08-31T11:15:57Z</time>
      </trkpt>
      <trkpt lat="43.43675" lon="-0.35043">
        <ele>183.2</ele>
        <time>2026-08-31T11:15:57Z</time>
      </trkpt>
      <trkpt lat="43.43676" lon="-0.35044">
        <ele>183.2</ele>
        <time>2026-08-31T11:15:58Z</time>
      </trkpt>
      <trkpt lat="43.43676" lon="-0.35044">
        <ele>183.2</ele>
        <time>2026-08-31T11:15:58Z</time>
      </trkpt>
      <trkpt lat="43.43677" lon="-0.35045">
        <ele>183.2</ele>
        <time>2026-08-31T11:15:59Z</time>
      </trkpt>
      <trkpt lat="43.43677" lon="-0.35046">
        <ele>183.2</ele>
        <time>2026-08-31T11:15:59Z</time>
      </trkpt>
      <trkpt lat="43.43678" lon="-0.35046">
        <ele>182.2</ele>
        <time>2026-08-31T11:16:00Z</time>
      </trkpt>
      <trkpt lat="43.43678" lon="-0.35047">
        <ele>182.2</ele>
        <time>2026-08-31T11:16:00Z</time>
      </trkpt>
      <trkpt lat="43.43679" lon="-0.35048">
        <ele>183.2</ele>
        <time>2026-08-31T11:16:01Z</time>
      </trkpt>
      <trkpt lat="43.4368" lon="-0.35049">
        <ele>183.2</ele>
        <time>2026-08-31T11:16:02Z</time>
      </trkpt>
      <trkpt lat="43.4368" lon="-0.3505">
        <ele>183.2</ele>
        <time>2026-08-31T11:16:03Z</time>
      </trkpt>
      <trkpt lat="43.43681" lon="-0.3505">
        <ele>183.2</ele>
        <time>2026-08-31T11:16:03Z</time>
      </trkpt>
      <trkpt lat="43.43681" lon="-0.35051">
        <ele>183.2</ele>
        <time>2026-08-31T11:16:04Z</time>
      </trkpt>
      <trkpt lat="43.43682" lon="-0.35052">
        <ele>183.2</ele>
        <time>2026-08-31T11:16:04Z</time>
      </trkpt>
      <trkpt lat="43.43682" lon="-0.35052">
        <ele>182.2</ele>
        <time>2026-08-31T11:16:05Z</time>
      </trkpt>
      <trkpt lat="43.43683" lon="-0.35053">
        <ele>182.2</ele>
        <time>2026-08-31T11:16:05Z</time>
      </trkpt>
      <trkpt lat="43.43683" lon="-0.35053">
        <ele>182.2</ele>
        <time>2026-08-31T11:16:06Z</time>
      </trkpt>
      <trkpt lat="43.43684" lon="-0.35054">
        <ele>182.2</ele>
        <time>2026-08-31T11:16:06Z</time>
      </trkpt>
      <trkpt lat="43.43684" lon="-0.35054">
        <ele>183.2</ele>
        <time>2026-08-31T11:16:07Z</time>
      </trkpt>
      <trkpt lat="43.43685" lon="-0.35055">
        <ele>183.2</ele>
        <time>2026-08-31T11:16:07Z</time>
      </trkpt>
      <trkpt lat="43.43685" lon="-0.35055">
        <ele>183.2</ele>
        <time>2026-08-31T11:16:08Z</time>
      </trkpt>
      <trkpt lat="43.43686" lon="-0.35056">
        <ele>183.2</ele>
        <time>2026-08-31T11:16:08Z</time>
      </trkpt>
      <trkpt lat="43.43686" lon="-0.35056">
        <ele>182.2</ele>
        <time>2026-08-31T11:16:09Z</time>
      </trkpt>
      <trkpt lat="43.43687" lon="-0.35057">
        <ele>183.2</ele>
        <time>2026-08-31T11:16:10Z</time>
      </trkpt>
      <trkpt lat="43.43688" lon="-0.35059">
        <ele>183.2</ele>
        <time>2026-08-31T11:16:11Z</time>
      </trkpt>
      <trkpt lat="43.43689" lon="-0.3506">
        <ele>183.2</ele>
        <time>2026-08-31T11:16:12Z</time>
      </trkpt>
      <trkpt lat="43.43689" lon="-0.3506">
        <ele>183.2</ele>
        <time>2026-08-31T11:16:12Z</time>
      </trkpt>
      <trkpt lat="43.4369" lon="-0.35061">
        <ele>183.2</ele>
        <time>2026-08-31T11:16:13Z</time>
      </trkpt>
      <trkpt lat="43.4369" lon="-0.35062">
        <ele>183.2</ele>
        <time>2026-08-31T11:16:13Z</time>
      </trkpt>
      <trkpt lat="43.43691" lon="-0.35062">
        <ele>183.2</ele>
        <time>2026-08-31T11:16:14Z</time>
      </trkpt>
      <trkpt lat="43.43692" lon="-0.35063">
        <ele>183.2</ele>
        <time>2026-08-31T11:16:14Z</time>
      </trkpt>
      <trkpt lat="43.43692" lon="-0.35064">
        <ele>184.2</ele>
        <time>2026-08-31T11:16:15Z</time>
      </trkpt>
      <trkpt lat="43.43693" lon="-0.35064">
        <ele>184.2</ele>
        <time>2026-08-31T11:16:15Z</time>
      </trkpt>
      <trkpt lat="43.43694" lon="-0.35065">
        <ele>184.2</ele>
        <time>2026-08-31T11:16:16Z</time>
      </trkpt>
      <trkpt lat="43.43694" lon="-0.35066">
        <ele>184.2</ele>
        <time>2026-08-31T11:16:16Z</time>
      </trkpt>
      <trkpt lat="43.43695" lon="-0.35067">
        <ele>184.2</ele>
        <time>2026-08-31T11:16:17Z</time>
      </trkpt>
      <trkpt lat="43.43695" lon="-0.35067">
        <ele>184.2</ele>
        <time>2026-08-31T11:16:17Z</time>
      </trkpt>
      <trkpt lat="43.43696" lon="-0.35068">
        <ele>184.2</ele>
        <time>2026-08-31T11:16:18Z</time>
      </trkpt>
      <trkpt lat="43.43697" lon="-0.35068">
        <ele>184.2</ele>
        <time>2026-08-31T11:16:19Z</time>
      </trkpt>
      <trkpt lat="43.43697" lon="-0.35069">
        <ele>184.2</ele>
        <time>2026-08-31T11:16:19Z</time>
      </trkpt>
      <trkpt lat="43.43698" lon="-0.3507">
        <ele>184.2</ele>
        <time>2026-08-31T11:16:20Z</time>
      </trkpt>
      <trkpt lat="43.43699" lon="-0.3507">
        <ele>184.2</ele>
        <time>2026-08-31T11:16:20Z</time>
      </trkpt>
      <trkpt lat="43.437" lon="-0.35071">
        <ele>184.2</ele>
        <time>2026-08-31T11:16:21Z</time>
      </trkpt>
      <trkpt lat="43.43701" lon="-0.35071">
        <ele>184.2</ele>
        <time>2026-08-31T11:16:22Z</time>
      </trkpt>
      <trkpt lat="43.43702" lon="-0.35072">
        <ele>184.2</ele>
        <time>2026-08-31T11:16:22Z</time>
      </trkpt>
      <trkpt lat="43.43702" lon="-0.35072">
        <ele>183.2</ele>
        <time>2026-08-31T11:16:23Z</time>
      </trkpt>
      <trkpt lat="43.43703" lon="-0.35073">
        <ele>183.2</ele>
        <time>2026-08-31T11:16:23Z</time>
      </trkpt>
      <trkpt lat="43.43703" lon="-0.35073">
        <ele>183.2</ele>
        <time>2026-08-31T11:16:24Z</time>
      </trkpt>
      <trkpt lat="43.43704" lon="-0.35074">
        <ele>183.2</ele>
        <time>2026-08-31T11:16:24Z</time>
      </trkpt>
      <trkpt lat="43.43704" lon="-0.35074">
        <ele>183.2</ele>
        <time>2026-08-31T11:16:25Z</time>
      </trkpt>
      <trkpt lat="43.43705" lon="-0.35075">
        <ele>183.2</ele>
        <time>2026-08-31T11:16:25Z</time>
      </trkpt>
      <trkpt lat="43.43706" lon="-0.35076">
        <ele>183.2</ele>
        <time>2026-08-31T11:16:26Z</time>
      </trkpt>
      <trkpt lat="43.43706" lon="-0.35077">
        <ele>183.2</ele>
        <time>2026-08-31T11:16:27Z</time>
      </trkpt>
      <trkpt lat="43.43707" lon="-0.35077">
        <ele>184.2</ele>
        <time>2026-08-31T11:16:28Z</time>
      </trkpt>
      <trkpt lat="43.43708" lon="-0.35078">
        <ele>184.2</ele>
        <time>2026-08-31T11:16:28Z</time>
      </trkpt>
      <trkpt lat="43.43708" lon="-0.35078">
        <ele>184.2</ele>
        <time>2026-08-31T11:16:29Z</time>
      </trkpt>
      <trkpt lat="43.43709" lon="-0.35079">
        <ele>184.2</ele>
        <time>2026-08-31T11:16:29Z</time>
      </trkpt>
      <trkpt lat="43.4371" lon="-0.3508">
        <ele>184.2</ele>
        <time>2026-08-31T11:16:30Z</time>
      </trkpt>
      <trkpt lat="43.4371" lon="-0.3508">
        <ele>184.2</ele>
        <time>2026-08-31T11:16:30Z</time>
      </trkpt>
      <trkpt lat="43.43711" lon="-0.35081">
        <ele>184.2</ele>
        <time>2026-08-31T11:16:31Z</time>
      </trkpt>
      <trkpt lat="43.43711" lon="-0.35082">
        <ele>184.2</ele>
        <time>2026-08-31T11:16:31Z</time>
      </trkpt>
      <trkpt lat="43.43712" lon="-0.35082">
        <ele>184.2</ele>
        <time>2026-08-31T11:16:32Z</time>
      </trkpt>
      <trkpt lat="43.43712" lon="-0.35083">
        <ele>184.2</ele>
        <time>2026-08-31T11:16:32Z</time>
      </trkpt>
      <trkpt lat="43.43713" lon="-0.35083">
        <ele>184.2</ele>
        <time>2026-08-31T11:16:33Z</time>
      </trkpt>
      <trkpt lat="43.43713" lon="-0.35084">
        <ele>184.2</ele>
        <time>2026-08-31T11:16:34Z</time>
      </trkpt>
      <trkpt lat="43.43714" lon="-0.35084">
        <ele>184.2</ele>
        <time>2026-08-31T11:16:34Z</time>
      </trkpt>
      <trkpt lat="43.43713" lon="-0.35085">
        <ele>183.2</ele>
        <time>2026-08-31T11:16:35Z</time>
      </trkpt>
      <trkpt lat="43.43713" lon="-0.35086">
        <ele>183.2</ele>
        <time>2026-08-31T11:16:36Z</time>
      </trkpt>
      <trkpt lat="43.43713" lon="-0.35087">
        <ele>183.2</ele>
        <time>2026-08-31T11:16:36Z</time>
      </trkpt>
      <trkpt lat="43.43713" lon="-0.35088">
        <ele>183.2</ele>
        <time>2026-08-31T11:16:37Z</time>
      </trkpt>
      <trkpt lat="43.43713" lon="-0.35089">
        <ele>183.2</ele>
        <time>2026-08-31T11:16:37Z</time>
      </trkpt>
      <trkpt lat="43.43713" lon="-0.3509">
        <ele>183.2</ele>
        <time>2026-08-31T11:16:38Z</time>
      </trkpt>
      <trkpt lat="43.43713" lon="-0.35091">
        <ele>183.2</ele>
        <time>2026-08-31T11:16:38Z</time>
      </trkpt>
      <trkpt lat="43.43713" lon="-0.35092">
        <ele>183.2</ele>
        <time>2026-08-31T11:16:39Z</time>
      </trkpt>
      <trkpt lat="43.43713" lon="-0.35093">
        <ele>183.2</ele>
        <time>2026-08-31T11:16:39Z</time>
      </trkpt>
      <trkpt lat="43.43713" lon="-0.35093">
        <ele>183.2</ele>
        <time>2026-08-31T11:16:40Z</time>
      </trkpt>
      <trkpt lat="43.43713" lon="-0.35094">
        <ele>183.2</ele>
        <time>2026-08-31T11:16:40Z</time>
      </trkpt>
      <trkpt lat="43.43713" lon="-0.35095">
        <ele>183.2</ele>
        <time>2026-08-31T11:16:41Z</time>
      </trkpt>
      <trkpt lat="43.43713" lon="-0.35096">
        <ele>183.2</ele>
        <time>2026-08-31T11:16:41Z</time>
      </trkpt>
      <trkpt lat="43.43713" lon="-0.35097">
        <ele>183.2</ele>
        <time>2026-08-31T11:16:42Z</time>
      </trkpt>
      <trkpt lat="43.43713" lon="-0.35098">
        <ele>183.2</ele>
        <time>2026-08-31T11:16:42Z</time>
      </trkpt>
      <trkpt lat="43.43713" lon="-0.35098">
        <ele>182.2</ele>
        <time>2026-08-31T11:16:43Z</time>
      </trkpt>
      <trkpt lat="43.43713" lon="-0.35099">
        <ele>182.2</ele>
        <time>2026-08-31T11:16:44Z</time>
      </trkpt>
      <trkpt lat="43.43713" lon="-0.351">
        <ele>183.2</ele>
        <time>2026-08-31T11:16:44Z</time>
      </trkpt>
      <trkpt lat="43.43713" lon="-0.35101">
        <ele>183.2</ele>
        <time>2026-08-31T11:16:45Z</time>
      </trkpt>
      <trkpt lat="43.43713" lon="-0.35102">
        <ele>183.2</ele>
        <time>2026-08-31T11:16:45Z</time>
      </trkpt>
      <trkpt lat="43.43713" lon="-0.35102">
        <ele>183.2</ele>
        <time>2026-08-31T11:16:46Z</time>
      </trkpt>
      <trkpt lat="43.43713" lon="-0.35103">
        <ele>183.2</ele>
        <time>2026-08-31T11:16:46Z</time>
      </trkpt>
      <trkpt lat="43.43714" lon="-0.35104">
        <ele>184.2</ele>
        <time>2026-08-31T11:16:47Z</time>
      </trkpt>
      <trkpt lat="43.43714" lon="-0.35105">
        <ele>184.2</ele>
        <time>2026-08-31T11:16:47Z</time>
      </trkpt>
      <trkpt lat="43.43714" lon="-0.35105">
        <ele>183.2</ele>
        <time>2026-08-31T11:16:48Z</time>
      </trkpt>
      <trkpt lat="43.43714" lon="-0.35106">
        <ele>183.2</ele>
        <time>2026-08-31T11:16:49Z</time>
      </trkpt>
      <trkpt lat="43.43714" lon="-0.35107">
        <ele>184.2</ele>
        <time>2026-08-31T11:16:49Z</time>
      </trkpt>
      <trkpt lat="43.43715" lon="-0.35108">
        <ele>183.2</ele>
        <time>2026-08-31T11:16:50Z</time>
      </trkpt>
      <trkpt lat="43.43715" lon="-0.35109">
        <ele>183.2</ele>
        <time>2026-08-31T11:16:50Z</time>
      </trkpt>
      <trkpt lat="43.43715" lon="-0.35109">
        <ele>184.2</ele>
        <time>2026-08-31T11:16:51Z</time>
      </trkpt>
      <trkpt lat="43.43715" lon="-0.3511">
        <ele>184.2</ele>
        <time>2026-08-31T11:16:51Z</time>
      </trkpt>
      <trkpt lat="43.43715" lon="-0.35111">
        <ele>184.2</ele>
        <time>2026-08-31T11:16:52Z</time>
      </trkpt>
      <trkpt lat="43.43716" lon="-0.35112">
        <ele>184.2</ele>
        <time>2026-08-31T11:16:53Z</time>
      </trkpt>
      <trkpt lat="43.43716" lon="-0.35112">
        <ele>184.2</ele>
        <time>2026-08-31T11:16:53Z</time>
      </trkpt>
      <trkpt lat="43.43717" lon="-0.35113">
        <ele>184.2</ele>
        <time>2026-08-31T11:16:54Z</time>
      </trkpt>
      <trkpt lat="43.43718" lon="-0.35113">
        <ele>184.2</ele>
        <time>2026-08-31T11:16:54Z</time>
      </trkpt>
      <trkpt lat="43.43719" lon="-0.35113">
        <ele>184.2</ele>
        <time>2026-08-31T11:16:55Z</time>
      </trkpt>
      <trkpt lat="43.43719" lon="-0.35114">
        <ele>184.2</ele>
        <time>2026-08-31T11:16:55Z</time>
      </trkpt>
      <trkpt lat="43.4372" lon="-0.35114">
        <ele>184.2</ele>
        <time>2026-08-31T11:16:56Z</time>
      </trkpt>
      <trkpt lat="43.43721" lon="-0.35115">
        <ele>184.2</ele>
        <time>2026-08-31T11:16:56Z</time>
      </trkpt>
      <trkpt lat="43.43721" lon="-0.35115">
        <ele>183.2</ele>
        <time>2026-08-31T11:16:57Z</time>
      </trkpt>
      <trkpt lat="43.43722" lon="-0.35116">
        <ele>183.2</ele>
        <time>2026-08-31T11:16:58Z</time>
      </trkpt>
      <trkpt lat="43.43722" lon="-0.35117">
        <ele>183.2</ele>
        <time>2026-08-31T11:16:58Z</time>
      </trkpt>
      <trkpt lat="43.43723" lon="-0.35117">
        <ele>183.2</ele>
        <time>2026-08-31T11:16:59Z</time>
      </trkpt>
      <trkpt lat="43.43724" lon="-0.35118">
        <ele>183.2</ele>
        <time>2026-08-31T11:16:59Z</time>
      </trkpt>
      <trkpt lat="43.43724" lon="-0.35118">
        <ele>183.2</ele>
        <time>2026-08-31T11:17:00Z</time>
      </trkpt>
      <trkpt lat="43.43725" lon="-0.35119">
        <ele>183.2</ele>
        <time>2026-08-31T11:17:00Z</time>
      </trkpt>
      <trkpt lat="43.43726" lon="-0.3512">
        <ele>183.2</ele>
        <time>2026-08-31T11:17:01Z</time>
      </trkpt>
      <trkpt lat="43.43726" lon="-0.3512">
        <ele>183.2</ele>
        <time>2026-08-31T11:17:01Z</time>
      </trkpt>
      <trkpt lat="43.43727" lon="-0.35121">
        <ele>183.2</ele>
        <time>2026-08-31T11:17:02Z</time>
      </trkpt>
      <trkpt lat="43.43727" lon="-0.35121">
        <ele>183.2</ele>
        <time>2026-08-31T11:17:02Z</time>
      </trkpt>
      <trkpt lat="43.43728" lon="-0.35122">
        <ele>184.2</ele>
        <time>2026-08-31T11:17:03Z</time>
      </trkpt>
      <trkpt lat="43.43728" lon="-0.35122">
        <ele>184.2</ele>
        <time>2026-08-31T11:17:04Z</time>
      </trkpt>
      <trkpt lat="43.43729" lon="-0.35123">
        <ele>184.2</ele>
        <time>2026-08-31T11:17:04Z</time>
      </trkpt>
      <trkpt lat="43.43729" lon="-0.35123">
        <ele>184.2</ele>
        <time>2026-08-31T11:17:05Z</time>
      </trkpt>
      <trkpt lat="43.4373" lon="-0.35124">
        <ele>184.2</ele>
        <time>2026-08-31T11:17:05Z</time>
      </trkpt>
      <trkpt lat="43.43731" lon="-0.35125">
        <ele>183.2</ele>
        <time>2026-08-31T11:17:06Z</time>
      </trkpt>
      <trkpt lat="43.43731" lon="-0.35125">
        <ele>183.2</ele>
        <time>2026-08-31T11:17:06Z</time>
      </trkpt>
      <trkpt lat="43.43732" lon="-0.35126">
        <ele>183.2</ele>
        <time>2026-08-31T11:17:07Z</time>
      </trkpt>
      <trkpt lat="43.43732" lon="-0.35127">
        <ele>183.2</ele>
        <time>2026-08-31T11:17:07Z</time>
      </trkpt>
      <trkpt lat="43.43733" lon="-0.35127">
        <ele>183.2</ele>
        <time>2026-08-31T11:17:08Z</time>
      </trkpt>
      <trkpt lat="43.43733" lon="-0.35128">
        <ele>183.2</ele>
        <time>2026-08-31T11:17:08Z</time>
      </trkpt>
      <trkpt lat="43.43734" lon="-0.35129">
        <ele>183.2</ele>
        <time>2026-08-31T11:17:09Z</time>
      </trkpt>
      <trkpt lat="43.43734" lon="-0.35129">
        <ele>183.2</ele>
        <time>2026-08-31T11:17:10Z</time>
      </trkpt>
      <trkpt lat="43.43734" lon="-0.3513">
        <ele>183.2</ele>
        <time>2026-08-31T11:17:10Z</time>
      </trkpt>
      <trkpt lat="43.43735" lon="-0.35131">
        <ele>183.2</ele>
        <time>2026-08-31T11:17:11Z</time>
      </trkpt>
      <trkpt lat="43.43735" lon="-0.35132">
        <ele>183.2</ele>
        <time>2026-08-31T11:17:11Z</time>
      </trkpt>
      <trkpt lat="43.43735" lon="-0.35133">
        <ele>184.2</ele>
        <time>2026-08-31T11:17:12Z</time>
      </trkpt>
      <trkpt lat="43.43736" lon="-0.35134">
        <ele>184.2</ele>
        <time>2026-08-31T11:17:12Z</time>
      </trkpt>
      <trkpt lat="43.43736" lon="-0.35134">
        <ele>184.2</ele>
        <time>2026-08-31T11:17:13Z</time>
      </trkpt>
      <trkpt lat="43.43736" lon="-0.35135">
        <ele>184.2</ele>
        <time>2026-08-31T11:17:13Z</time>
      </trkpt>
      <trkpt lat="43.43737" lon="-0.35136">
        <ele>184.2</ele>
        <time>2026-08-31T11:17:14Z</time>
      </trkpt>
      <trkpt lat="43.43737" lon="-0.35137">
        <ele>184.2</ele>
        <time>2026-08-31T11:17:14Z</time>
      </trkpt>
      <trkpt lat="43.43738" lon="-0.35137">
        <ele>184.2</ele>
        <time>2026-08-31T11:17:15Z</time>
      </trkpt>
      <trkpt lat="43.43738" lon="-0.35138">
        <ele>184.2</ele>
        <time>2026-08-31T11:17:15Z</time>
      </trkpt>
      <trkpt lat="43.43739" lon="-0.35139">
        <ele>184.2</ele>
        <time>2026-08-31T11:17:16Z</time>
      </trkpt>
      <trkpt lat="43.43739" lon="-0.35139">
        <ele>184.2</ele>
        <time>2026-08-31T11:17:17Z</time>
      </trkpt>
      <trkpt lat="43.4374" lon="-0.3514">
        <ele>184.2</ele>
        <time>2026-08-31T11:17:17Z</time>
      </trkpt>
      <trkpt lat="43.4374" lon="-0.3514">
        <ele>184.2</ele>
        <time>2026-08-31T11:17:18Z</time>
      </trkpt>
      <trkpt lat="43.43741" lon="-0.35141">
        <ele>184.2</ele>
        <time>2026-08-31T11:17:18Z</time>
      </trkpt>
      <trkpt lat="43.43741" lon="-0.35141">
        <ele>183.2</ele>
        <time>2026-08-31T11:17:19Z</time>
      </trkpt>
      <trkpt lat="43.43742" lon="-0.35142">
        <ele>183.2</ele>
        <time>2026-08-31T11:17:19Z</time>
      </trkpt>
      <trkpt lat="43.43743" lon="-0.35142">
        <ele>184.2</ele>
        <time>2026-08-31T11:17:20Z</time>
      </trkpt>
      <trkpt lat="43.43743" lon="-0.35143">
        <ele>184.2</ele>
        <time>2026-08-31T11:17:20Z</time>
      </trkpt>
      <trkpt lat="43.43744" lon="-0.35143">
        <ele>184.2</ele>
        <time>2026-08-31T11:17:21Z</time>
      </trkpt>
      <trkpt lat="43.43744" lon="-0.35144">
        <ele>184.2</ele>
        <time>2026-08-31T11:17:21Z</time>
      </trkpt>
      <trkpt lat="43.43745" lon="-0.35144">
        <ele>184.2</ele>
        <time>2026-08-31T11:17:22Z</time>
      </trkpt>
      <trkpt lat="43.43746" lon="-0.35145">
        <ele>184.2</ele>
        <time>2026-08-31T11:17:23Z</time>
      </trkpt>
      <trkpt lat="43.43746" lon="-0.35145">
        <ele>183.2</ele>
        <time>2026-08-31T11:17:23Z</time>
      </trkpt>
      <trkpt lat="43.43746" lon="-0.35146">
        <ele>183.2</ele>
        <time>2026-08-31T11:17:24Z</time>
      </trkpt>
      <trkpt lat="43.43747" lon="-0.35146">
        <ele>183.2</ele>
        <time>2026-08-31T11:17:24Z</time>
      </trkpt>
      <trkpt lat="43.43747" lon="-0.35147">
        <ele>183.2</ele>
        <time>2026-08-31T11:17:25Z</time>
      </trkpt>
      <trkpt lat="43.43748" lon="-0.35147">
        <ele>183.2</ele>
        <time>2026-08-31T11:17:25Z</time>
      </trkpt>
      <trkpt lat="43.43748" lon="-0.35148">
        <ele>183.2</ele>
        <time>2026-08-31T11:17:26Z</time>
      </trkpt>
      <trkpt lat="43.43749" lon="-0.35149">
        <ele>183.2</ele>
        <time>2026-08-31T11:17:26Z</time>
      </trkpt>
      <trkpt lat="43.43749" lon="-0.3515">
        <ele>183.2</ele>
        <time>2026-08-31T11:17:27Z</time>
      </trkpt>
      <trkpt lat="43.4375" lon="-0.3515">
        <ele>183.2</ele>
        <time>2026-08-31T11:17:27Z</time>
      </trkpt>
      <trkpt lat="43.4375" lon="-0.35151">
        <ele>184.2</ele>
        <time>2026-08-31T11:17:28Z</time>
      </trkpt>
      <trkpt lat="43.43751" lon="-0.35152">
        <ele>184.2</ele>
        <time>2026-08-31T11:17:28Z</time>
      </trkpt>
      <trkpt lat="43.43751" lon="-0.35153">
        <ele>184.2</ele>
        <time>2026-08-31T11:17:29Z</time>
      </trkpt>
      <trkpt lat="43.43752" lon="-0.35153">
        <ele>184.2</ele>
        <time>2026-08-31T11:17:29Z</time>
      </trkpt>
      <trkpt lat="43.43752" lon="-0.35154">
        <ele>184.2</ele>
        <time>2026-08-31T11:17:30Z</time>
      </trkpt>
      <trkpt lat="43.43753" lon="-0.35155">
        <ele>184.2</ele>
        <time>2026-08-31T11:17:31Z</time>
      </trkpt>
      <trkpt lat="43.43753" lon="-0.35155">
        <ele>184.2</ele>
        <time>2026-08-31T11:17:31Z</time>
      </trkpt>
      <trkpt lat="43.43753" lon="-0.35156">
        <ele>184.2</ele>
        <time>2026-08-31T11:17:32Z</time>
      </trkpt>
      <trkpt lat="43.43754" lon="-0.35157">
        <ele>184.2</ele>
        <time>2026-08-31T11:17:32Z</time>
      </trkpt>
      <trkpt lat="43.43754" lon="-0.35157">
        <ele>184.2</ele>
        <time>2026-08-31T11:17:33Z</time>
      </trkpt>
      <trkpt lat="43.43755" lon="-0.35158">
        <ele>184.2</ele>
        <time>2026-08-31T11:17:33Z</time>
      </trkpt>
      <trkpt lat="43.43755" lon="-0.35158">
        <ele>184.2</ele>
        <time>2026-08-31T11:17:34Z</time>
      </trkpt>
      <trkpt lat="43.43756" lon="-0.35159">
        <ele>184.2</ele>
        <time>2026-08-31T11:17:34Z</time>
      </trkpt>
      <trkpt lat="43.43756" lon="-0.3516">
        <ele>184.2</ele>
        <time>2026-08-31T11:17:35Z</time>
      </trkpt>
      <trkpt lat="43.43757" lon="-0.3516">
        <ele>184.2</ele>
        <time>2026-08-31T11:17:35Z</time>
      </trkpt>
      <trkpt lat="43.43757" lon="-0.35161">
        <ele>184.2</ele>
        <time>2026-08-31T11:17:36Z</time>
      </trkpt>
      <trkpt lat="43.43757" lon="-0.35162">
        <ele>184.2</ele>
        <time>2026-08-31T11:17:37Z</time>
      </trkpt>
      <trkpt lat="43.43758" lon="-0.35162">
        <ele>184.2</ele>
        <time>2026-08-31T11:17:37Z</time>
      </trkpt>
      <trkpt lat="43.43758" lon="-0.35163">
        <ele>184.2</ele>
        <time>2026-08-31T11:17:38Z</time>
      </trkpt>
      <trkpt lat="43.43758" lon="-0.35164">
        <ele>184.2</ele>
        <time>2026-08-31T11:17:38Z</time>
      </trkpt>
      <trkpt lat="43.43759" lon="-0.35164">
        <ele>183.2</ele>
        <time>2026-08-31T11:17:39Z</time>
      </trkpt>
      <trkpt lat="43.43759" lon="-0.35165">
        <ele>183.2</ele>
        <time>2026-08-31T11:17:39Z</time>
      </trkpt>
      <trkpt lat="43.4376" lon="-0.35166">
        <ele>183.2</ele>
        <time>2026-08-31T11:17:40Z</time>
      </trkpt>
      <trkpt lat="43.4376" lon="-0.35166">
        <ele>183.2</ele>
        <time>2026-08-31T11:17:40Z</time>
      </trkpt>
      <trkpt lat="43.43761" lon="-0.35167">
        <ele>183.2</ele>
        <time>2026-08-31T11:17:41Z</time>
      </trkpt>
      <trkpt lat="43.43761" lon="-0.35168">
        <ele>183.2</ele>
        <time>2026-08-31T11:17:41Z</time>
      </trkpt>
      <trkpt lat="43.43761" lon="-0.35168">
        <ele>183.2</ele>
        <time>2026-08-31T11:17:42Z</time>
      </trkpt>
      <trkpt lat="43.43762" lon="-0.35169">
        <ele>183.2</ele>
        <time>2026-08-31T11:17:42Z</time>
      </trkpt>
      <trkpt lat="43.43762" lon="-0.35169">
        <ele>183.2</ele>
        <time>2026-08-31T11:17:43Z</time>
      </trkpt>
      <trkpt lat="43.43763" lon="-0.3517">
        <ele>183.2</ele>
        <time>2026-08-31T11:17:44Z</time>
      </trkpt>
      <trkpt lat="43.43763" lon="-0.3517">
        <ele>183.2</ele>
        <time>2026-08-31T11:17:44Z</time>
      </trkpt>
      <trkpt lat="43.43764" lon="-0.35171">
        <ele>183.2</ele>
        <time>2026-08-31T11:17:45Z</time>
      </trkpt>
      <trkpt lat="43.43764" lon="-0.35172">
        <ele>183.2</ele>
        <time>2026-08-31T11:17:45Z</time>
      </trkpt>
      <trkpt lat="43.43764" lon="-0.35173">
        <ele>184.2</ele>
        <time>2026-08-31T11:17:46Z</time>
      </trkpt>
      <trkpt lat="43.43765" lon="-0.35173">
        <ele>184.2</ele>
        <time>2026-08-31T11:17:46Z</time>
      </trkpt>
      <trkpt lat="43.43765" lon="-0.35174">
        <ele>183.2</ele>
        <time>2026-08-31T11:17:47Z</time>
      </trkpt>
      <trkpt lat="43.43765" lon="-0.35175">
        <ele>183.2</ele>
        <time>2026-08-31T11:17:47Z</time>
      </trkpt>
      <trkpt lat="43.43765" lon="-0.35176">
        <ele>183.2</ele>
        <time>2026-08-31T11:17:48Z</time>
      </trkpt>
      <trkpt lat="43.43766" lon="-0.35177">
        <ele>183.2</ele>
        <time>2026-08-31T11:17:48Z</time>
      </trkpt>
      <trkpt lat="43.43766" lon="-0.35178">
        <ele>183.2</ele>
        <time>2026-08-31T11:17:49Z</time>
      </trkpt>
      <trkpt lat="43.43766" lon="-0.35179">
        <ele>183.2</ele>
        <time>2026-08-31T11:17:49Z</time>
      </trkpt>
      <trkpt lat="43.43766" lon="-0.35179">
        <ele>183.2</ele>
        <time>2026-08-31T11:17:50Z</time>
      </trkpt>
      <trkpt lat="43.43767" lon="-0.3518">
        <ele>183.2</ele>
        <time>2026-08-31T11:17:51Z</time>
      </trkpt>
      <trkpt lat="43.43767" lon="-0.35181">
        <ele>183.2</ele>
        <time>2026-08-31T11:17:51Z</time>
      </trkpt>
      <trkpt lat="43.43767" lon="-0.35182">
        <ele>183.2</ele>
        <time>2026-08-31T11:17:52Z</time>
      </trkpt>
      <trkpt lat="43.43768" lon="-0.35182">
        <ele>183.2</ele>
        <time>2026-08-31T11:17:52Z</time>
      </trkpt>
      <trkpt lat="43.43768" lon="-0.35183">
        <ele>183.2</ele>
        <time>2026-08-31T11:17:53Z</time>
      </trkpt>
      <trkpt lat="43.43769" lon="-0.35183">
        <ele>183.2</ele>
        <time>2026-08-31T11:17:53Z</time>
      </trkpt>
      <trkpt lat="43.43769" lon="-0.35184">
        <ele>184.2</ele>
        <time>2026-08-31T11:17:54Z</time>
      </trkpt>
      <trkpt lat="43.43769" lon="-0.35185">
        <ele>184.2</ele>
        <time>2026-08-31T11:17:54Z</time>
      </trkpt>
      <trkpt lat="43.4377" lon="-0.35185">
        <ele>184.2</ele>
        <time>2026-08-31T11:17:55Z</time>
      </trkpt>
      <trkpt lat="43.4377" lon="-0.35186">
        <ele>184.2</ele>
        <time>2026-08-31T11:17:55Z</time>
      </trkpt>
      <trkpt lat="43.43771" lon="-0.35186">
        <ele>184.2</ele>
        <time>2026-08-31T11:17:56Z</time>
      </trkpt>
      <trkpt lat="43.43771" lon="-0.35187">
        <ele>184.2</ele>
        <time>2026-08-31T11:17:56Z</time>
      </trkpt>
      <trkpt lat="43.43772" lon="-0.35187">
        <ele>184.2</ele>
        <time>2026-08-31T11:17:57Z</time>
      </trkpt>
      <trkpt lat="43.43772" lon="-0.35188">
        <ele>184.2</ele>
        <time>2026-08-31T11:17:57Z</time>
      </trkpt>
      <trkpt lat="43.43773" lon="-0.35188">
        <ele>184.2</ele>
        <time>2026-08-31T11:17:58Z</time>
      </trkpt>
      <trkpt lat="43.43773" lon="-0.35188">
        <ele>184.2</ele>
        <time>2026-08-31T11:17:59Z</time>
      </trkpt>
      <trkpt lat="43.43774" lon="-0.35189">
        <ele>184.2</ele>
        <time>2026-08-31T11:17:59Z</time>
      </trkpt>
      <trkpt lat="43.43774" lon="-0.35189">
        <ele>184.2</ele>
        <time>2026-08-31T11:18:00Z</time>
      </trkpt>
      <trkpt lat="43.43775" lon="-0.3519">
        <ele>184.2</ele>
        <time>2026-08-31T11:18:00Z</time>
      </trkpt>
      <trkpt lat="43.43775" lon="-0.3519">
        <ele>184.2</ele>
        <time>2026-08-31T11:18:01Z</time>
      </trkpt>
      <trkpt lat="43.43776" lon="-0.3519">
        <ele>184.2</ele>
        <time>2026-08-31T11:18:01Z</time>
      </trkpt>
      <trkpt lat="43.43777" lon="-0.3519">
        <ele>185.2</ele>
        <time>2026-08-31T11:18:02Z</time>
      </trkpt>
      <trkpt lat="43.43777" lon="-0.35191">
        <ele>185.2</ele>
        <time>2026-08-31T11:18:02Z</time>
      </trkpt>
      <trkpt lat="43.43778" lon="-0.35191">
        <ele>185.2</ele>
        <time>2026-08-31T11:18:03Z</time>
      </trkpt>
      <trkpt lat="43.43778" lon="-0.35192">
        <ele>185.2</ele>
        <time>2026-08-31T11:18:04Z</time>
      </trkpt>
      <trkpt lat="43.43779" lon="-0.35192">
        <ele>185.2</ele>
        <time>2026-08-31T11:18:04Z</time>
      </trkpt>
      <trkpt lat="43.4378" lon="-0.35193">
        <ele>185.2</ele>
        <time>2026-08-31T11:18:05Z</time>
      </trkpt>
      <trkpt lat="43.4378" lon="-0.35193">
        <ele>185.2</ele>
        <time>2026-08-31T11:18:05Z</time>
      </trkpt>
      <trkpt lat="43.43781" lon="-0.35194">
        <ele>185.2</ele>
        <time>2026-08-31T11:18:06Z</time>
      </trkpt>
      <trkpt lat="43.43781" lon="-0.35194">
        <ele>184.2</ele>
        <time>2026-08-31T11:18:06Z</time>
      </trkpt>
      <trkpt lat="43.43782" lon="-0.35195">
        <ele>184.2</ele>
        <time>2026-08-31T11:18:07Z</time>
      </trkpt>
      <trkpt lat="43.43782" lon="-0.35195">
        <ele>184.2</ele>
        <time>2026-08-31T11:18:07Z</time>
      </trkpt>
      <trkpt lat="43.43783" lon="-0.35195">
        <ele>185.2</ele>
        <time>2026-08-31T11:18:08Z</time>
      </trkpt>
      <trkpt lat="43.43784" lon="-0.35196">
        <ele>185.2</ele>
        <time>2026-08-31T11:18:08Z</time>
      </trkpt>
      <trkpt lat="43.43784" lon="-0.35196">
        <ele>185.2</ele>
        <time>2026-08-31T11:18:09Z</time>
      </trkpt>
      <trkpt lat="43.43785" lon="-0.35197">
        <ele>185.2</ele>
        <time>2026-08-31T11:18:09Z</time>
      </trkpt>
      <trkpt lat="43.43786" lon="-0.35197">
        <ele>185.2</ele>
        <time>2026-08-31T11:18:10Z</time>
      </trkpt>
      <trkpt lat="43.43786" lon="-0.35198">
        <ele>185.2</ele>
        <time>2026-08-31T11:18:10Z</time>
      </trkpt>
      <trkpt lat="43.43787" lon="-0.35198">
        <ele>185.2</ele>
        <time>2026-08-31T11:18:11Z</time>
      </trkpt>
      <trkpt lat="43.43787" lon="-0.35198">
        <ele>185.2</ele>
        <time>2026-08-31T11:18:12Z</time>
      </trkpt>
      <trkpt lat="43.43788" lon="-0.35199">
        <ele>185.2</ele>
        <time>2026-08-31T11:18:12Z</time>
      </trkpt>
      <trkpt lat="43.43788" lon="-0.35199">
        <ele>185.2</ele>
        <time>2026-08-31T11:18:13Z</time>
      </trkpt>
      <trkpt lat="43.43789" lon="-0.352">
        <ele>184.2</ele>
        <time>2026-08-31T11:18:13Z</time>
      </trkpt>
      <trkpt lat="43.43789" lon="-0.35201">
        <ele>184.2</ele>
        <time>2026-08-31T11:18:14Z</time>
      </trkpt>
      <trkpt lat="43.4379" lon="-0.35202">
        <ele>184.2</ele>
        <time>2026-08-31T11:18:14Z</time>
      </trkpt>
      <trkpt lat="43.4379" lon="-0.35203">
        <ele>184.2</ele>
        <time>2026-08-31T11:18:15Z</time>
      </trkpt>
      <trkpt lat="43.43791" lon="-0.35204">
        <ele>184.2</ele>
        <time>2026-08-31T11:18:15Z</time>
      </trkpt>
      <trkpt lat="43.43791" lon="-0.35205">
        <ele>184.2</ele>
        <time>2026-08-31T11:18:16Z</time>
      </trkpt>
      <trkpt lat="43.43791" lon="-0.35205">
        <ele>184.2</ele>
        <time>2026-08-31T11:18:16Z</time>
      </trkpt>
      <trkpt lat="43.43791" lon="-0.35206">
        <ele>184.2</ele>
        <time>2026-08-31T11:18:17Z</time>
      </trkpt>
      <trkpt lat="43.43792" lon="-0.35207">
        <ele>184.2</ele>
        <time>2026-08-31T11:18:18Z</time>
      </trkpt>
      <trkpt lat="43.43792" lon="-0.35208">
        <ele>183.2</ele>
        <time>2026-08-31T11:18:18Z</time>
      </trkpt>
      <trkpt lat="43.43793" lon="-0.35209">
        <ele>183.2</ele>
        <time>2026-08-31T11:18:19Z</time>
      </trkpt>
      <trkpt lat="43.43793" lon="-0.35209">
        <ele>183.2</ele>
        <time>2026-08-31T11:18:19Z</time>
      </trkpt>
      <trkpt lat="43.43793" lon="-0.3521">
        <ele>183.2</ele>
        <time>2026-08-31T11:18:20Z</time>
      </trkpt>
      <trkpt lat="43.43793" lon="-0.35211">
        <ele>183.2</ele>
        <time>2026-08-31T11:18:20Z</time>
      </trkpt>
      <trkpt lat="43.43794" lon="-0.35212">
        <ele>183.2</ele>
        <time>2026-08-31T11:18:21Z</time>
      </trkpt>
      <trkpt lat="43.43794" lon="-0.35213">
        <ele>183.2</ele>
        <time>2026-08-31T11:18:21Z</time>
      </trkpt>
      <trkpt lat="43.43794" lon="-0.35214">
        <ele>184.2</ele>
        <time>2026-08-31T11:18:22Z</time>
      </trkpt>
      <trkpt lat="43.43795" lon="-0.35215">
        <ele>184.2</ele>
        <time>2026-08-31T11:18:22Z</time>
      </trkpt>
      <trkpt lat="43.43795" lon="-0.35216">
        <ele>184.2</ele>
        <time>2026-08-31T11:18:23Z</time>
      </trkpt>
      <trkpt lat="43.43796" lon="-0.35217">
        <ele>184.2</ele>
        <time>2026-08-31T11:18:23Z</time>
      </trkpt>
      <trkpt lat="43.43796" lon="-0.35218">
        <ele>183.2</ele>
        <time>2026-08-31T11:18:24Z</time>
      </trkpt>
      <trkpt lat="43.43797" lon="-0.35218">
        <ele>183.2</ele>
        <time>2026-08-31T11:18:25Z</time>
      </trkpt>
      <trkpt lat="43.43797" lon="-0.35219">
        <ele>183.2</ele>
        <time>2026-08-31T11:18:25Z</time>
      </trkpt>
      <trkpt lat="43.43798" lon="-0.3522">
        <ele>183.2</ele>
        <time>2026-08-31T11:18:26Z</time>
      </trkpt>
      <trkpt lat="43.43798" lon="-0.35221">
        <ele>183.2</ele>
        <time>2026-08-31T11:18:26Z</time>
      </trkpt>
      <trkpt lat="43.43799" lon="-0.35221">
        <ele>183.2</ele>
        <time>2026-08-31T11:18:27Z</time>
      </trkpt>
      <trkpt lat="43.43799" lon="-0.35222">
        <ele>183.2</ele>
        <time>2026-08-31T11:18:27Z</time>
      </trkpt>
      <trkpt lat="43.43799" lon="-0.35223">
        <ele>183.2</ele>
        <time>2026-08-31T11:18:28Z</time>
      </trkpt>
      <trkpt lat="43.438" lon="-0.35223">
        <ele>183.2</ele>
        <time>2026-08-31T11:18:28Z</time>
      </trkpt>
      <trkpt lat="43.438" lon="-0.35224">
        <ele>183.2</ele>
        <time>2026-08-31T11:18:29Z</time>
      </trkpt>
      <trkpt lat="43.43801" lon="-0.35225">
        <ele>183.2</ele>
        <time>2026-08-31T11:18:29Z</time>
      </trkpt>
      <trkpt lat="43.43801" lon="-0.35225">
        <ele>183.2</ele>
        <time>2026-08-31T11:18:30Z</time>
      </trkpt>
      <trkpt lat="43.43802" lon="-0.35226">
        <ele>183.2</ele>
        <time>2026-08-31T11:18:30Z</time>
      </trkpt>
      <trkpt lat="43.43802" lon="-0.35227">
        <ele>183.2</ele>
        <time>2026-08-31T11:18:31Z</time>
      </trkpt>
      <trkpt lat="43.43803" lon="-0.35228">
        <ele>183.2</ele>
        <time>2026-08-31T11:18:32Z</time>
      </trkpt>
      <trkpt lat="43.43803" lon="-0.35229">
        <ele>184.2</ele>
        <time>2026-08-31T11:18:32Z</time>
      </trkpt>
      <trkpt lat="43.43804" lon="-0.3523">
        <ele>184.2</ele>
        <time>2026-08-31T11:18:33Z</time>
      </trkpt>
      <trkpt lat="43.43804" lon="-0.3523">
        <ele>184.2</ele>
        <time>2026-08-31T11:18:33Z</time>
      </trkpt>
      <trkpt lat="43.43805" lon="-0.35231">
        <ele>183.2</ele>
        <time>2026-08-31T11:18:34Z</time>
      </trkpt>
      <trkpt lat="43.43805" lon="-0.35232">
        <ele>183.2</ele>
        <time>2026-08-31T11:18:34Z</time>
      </trkpt>
      <trkpt lat="43.43806" lon="-0.35233">
        <ele>183.2</ele>
        <time>2026-08-31T11:18:35Z</time>
      </trkpt>
      <trkpt lat="43.43806" lon="-0.35234">
        <ele>183.2</ele>
        <time>2026-08-31T11:18:35Z</time>
      </trkpt>
      <trkpt lat="43.43807" lon="-0.35235">
        <ele>183.2</ele>
        <time>2026-08-31T11:18:36Z</time>
      </trkpt>
      <trkpt lat="43.43807" lon="-0.35236">
        <ele>183.2</ele>
        <time>2026-08-31T11:18:36Z</time>
      </trkpt>
      <trkpt lat="43.43808" lon="-0.35237">
        <ele>183.2</ele>
        <time>2026-08-31T11:18:37Z</time>
      </trkpt>
      <trkpt lat="43.43808" lon="-0.35237">
        <ele>183.2</ele>
        <time>2026-08-31T11:18:37Z</time>
      </trkpt>
      <trkpt lat="43.43808" lon="-0.35239">
        <ele>183.2</ele>
        <time>2026-08-31T11:18:38Z</time>
      </trkpt>
      <trkpt lat="43.43809" lon="-0.35239">
        <ele>183.2</ele>
        <time>2026-08-31T11:18:38Z</time>
      </trkpt>
      <trkpt lat="43.43809" lon="-0.3524">
        <ele>183.2</ele>
        <time>2026-08-31T11:18:39Z</time>
      </trkpt>
      <trkpt lat="43.43809" lon="-0.35241">
        <ele>183.2</ele>
        <time>2026-08-31T11:18:40Z</time>
      </trkpt>
      <trkpt lat="43.43809" lon="-0.35242">
        <ele>183.2</ele>
        <time>2026-08-31T11:18:40Z</time>
      </trkpt>
      <trkpt lat="43.4381" lon="-0.35243">
        <ele>183.2</ele>
        <time>2026-08-31T11:18:41Z</time>
      </trkpt>
      <trkpt lat="43.4381" lon="-0.35244">
        <ele>183.2</ele>
        <time>2026-08-31T11:18:41Z</time>
      </trkpt>
      <trkpt lat="43.4381" lon="-0.35245">
        <ele>183.2</ele>
        <time>2026-08-31T11:18:42Z</time>
      </trkpt>
      <trkpt lat="43.43811" lon="-0.35246">
        <ele>183.2</ele>
        <time>2026-08-31T11:18:42Z</time>
      </trkpt>
      <trkpt lat="43.43811" lon="-0.35247">
        <ele>183.2</ele>
        <time>2026-08-31T11:18:43Z</time>
      </trkpt>
      <trkpt lat="43.43811" lon="-0.35248">
        <ele>183.2</ele>
        <time>2026-08-31T11:18:43Z</time>
      </trkpt>
      <trkpt lat="43.43811" lon="-0.35248">
        <ele>184.2</ele>
        <time>2026-08-31T11:18:44Z</time>
      </trkpt>
      <trkpt lat="43.43812" lon="-0.35249">
        <ele>184.2</ele>
        <time>2026-08-31T11:18:45Z</time>
      </trkpt>
      <trkpt lat="43.43812" lon="-0.3525">
        <ele>184.2</ele>
        <time>2026-08-31T11:18:45Z</time>
      </trkpt>
      <trkpt lat="43.43813" lon="-0.35251">
        <ele>184.2</ele>
        <time>2026-08-31T11:18:46Z</time>
      </trkpt>
      <trkpt lat="43.43813" lon="-0.35251">
        <ele>184.2</ele>
        <time>2026-08-31T11:18:46Z</time>
      </trkpt>
      <trkpt lat="43.43813" lon="-0.35252">
        <ele>184.2</ele>
        <time>2026-08-31T11:18:47Z</time>
      </trkpt>
      <trkpt lat="43.43814" lon="-0.35254">
        <ele>184.2</ele>
        <time>2026-08-31T11:18:48Z</time>
      </trkpt>
      <trkpt lat="43.43815" lon="-0.35255">
        <ele>184.2</ele>
        <time>2026-08-31T11:18:48Z</time>
      </trkpt>
      <trkpt lat="43.43815" lon="-0.35255">
        <ele>185.2</ele>
        <time>2026-08-31T11:18:49Z</time>
      </trkpt>
      <trkpt lat="43.43816" lon="-0.35256">
        <ele>185.2</ele>
        <time>2026-08-31T11:18:49Z</time>
      </trkpt>
      <trkpt lat="43.43816" lon="-0.35257">
        <ele>185.2</ele>
        <time>2026-08-31T11:18:50Z</time>
      </trkpt>
      <trkpt lat="43.43817" lon="-0.35258">
        <ele>185.2</ele>
        <time>2026-08-31T11:18:50Z</time>
      </trkpt>
      <trkpt lat="43.43817" lon="-0.35258">
        <ele>185.2</ele>
        <time>2026-08-31T11:18:51Z</time>
      </trkpt>
      <trkpt lat="43.43818" lon="-0.35259">
        <ele>185.2</ele>
        <time>2026-08-31T11:18:51Z</time>
      </trkpt>
      <trkpt lat="43.43818" lon="-0.3526">
        <ele>185.2</ele>
        <time>2026-08-31T11:18:52Z</time>
      </trkpt>
      <trkpt lat="43.43818" lon="-0.35261">
        <ele>185.2</ele>
        <time>2026-08-31T11:18:53Z</time>
      </trkpt>
      <trkpt lat="43.43819" lon="-0.35262">
        <ele>185.2</ele>
        <time>2026-08-31T11:18:53Z</time>
      </trkpt>
      <trkpt lat="43.43819" lon="-0.35263">
        <ele>185.2</ele>
        <time>2026-08-31T11:18:54Z</time>
      </trkpt>
      <trkpt lat="43.43819" lon="-0.35264">
        <ele>185.2</ele>
        <time>2026-08-31T11:18:54Z</time>
      </trkpt>
      <trkpt lat="43.4382" lon="-0.35264">
        <ele>185.2</ele>
        <time>2026-08-31T11:18:55Z</time>
      </trkpt>
      <trkpt lat="43.4382" lon="-0.35266">
        <ele>185.2</ele>
        <time>2026-08-31T11:18:56Z</time>
      </trkpt>
      <trkpt lat="43.4382" lon="-0.35266">
        <ele>185.2</ele>
        <time>2026-08-31T11:18:56Z</time>
      </trkpt>
      <trkpt lat="43.4382" lon="-0.35267">
        <ele>185.2</ele>
        <time>2026-08-31T11:18:57Z</time>
      </trkpt>
      <trkpt lat="43.43821" lon="-0.35268">
        <ele>185.2</ele>
        <time>2026-08-31T11:18:57Z</time>
      </trkpt>
      <trkpt lat="43.43821" lon="-0.35269">
        <ele>185.2</ele>
        <time>2026-08-31T11:18:58Z</time>
      </trkpt>
      <trkpt lat="43.43821" lon="-0.35269">
        <ele>185.2</ele>
        <time>2026-08-31T11:18:58Z</time>
      </trkpt>
      <trkpt lat="43.43822" lon="-0.3527">
        <ele>185.2</ele>
        <time>2026-08-31T11:18:59Z</time>
      </trkpt>
      <trkpt lat="43.43822" lon="-0.35271">
        <ele>185.2</ele>
        <time>2026-08-31T11:18:59Z</time>
      </trkpt>
      <trkpt lat="43.43823" lon="-0.35272">
        <ele>185.2</ele>
        <time>2026-08-31T11:19:00Z</time>
      </trkpt>
      <trkpt lat="43.43823" lon="-0.35273">
        <ele>185.2</ele>
        <time>2026-08-31T11:19:01Z</time>
      </trkpt>
      <trkpt lat="43.43823" lon="-0.35274">
        <ele>186.2</ele>
        <time>2026-08-31T11:19:01Z</time>
      </trkpt>
      <trkpt lat="43.43824" lon="-0.35274">
        <ele>186.2</ele>
        <time>2026-08-31T11:19:02Z</time>
      </trkpt>
      <trkpt lat="43.43824" lon="-0.35275">
        <ele>185.2</ele>
        <time>2026-08-31T11:19:02Z</time>
      </trkpt>
      <trkpt lat="43.43825" lon="-0.35276">
        <ele>185.2</ele>
        <time>2026-08-31T11:19:03Z</time>
      </trkpt>
      <trkpt lat="43.43825" lon="-0.35277">
        <ele>185.2</ele>
        <time>2026-08-31T11:19:03Z</time>
      </trkpt>
      <trkpt lat="43.43826" lon="-0.35277">
        <ele>185.2</ele>
        <time>2026-08-31T11:19:04Z</time>
      </trkpt>
      <trkpt lat="43.43826" lon="-0.35278">
        <ele>185.2</ele>
        <time>2026-08-31T11:19:04Z</time>
      </trkpt>
      <trkpt lat="43.43827" lon="-0.35279">
        <ele>185.2</ele>
        <time>2026-08-31T11:19:05Z</time>
      </trkpt>
      <trkpt lat="43.43827" lon="-0.3528">
        <ele>185.2</ele>
        <time>2026-08-31T11:19:05Z</time>
      </trkpt>
      <trkpt lat="43.43827" lon="-0.35281">
        <ele>185.2</ele>
        <time>2026-08-31T11:19:06Z</time>
      </trkpt>
      <trkpt lat="43.43828" lon="-0.35281">
        <ele>185.2</ele>
        <time>2026-08-31T11:19:06Z</time>
      </trkpt>
      <trkpt lat="43.43828" lon="-0.35282">
        <ele>185.2</ele>
        <time>2026-08-31T11:19:07Z</time>
      </trkpt>
      <trkpt lat="43.43828" lon="-0.35283">
        <ele>185.2</ele>
        <time>2026-08-31T11:19:07Z</time>
      </trkpt>
      <trkpt lat="43.43829" lon="-0.35284">
        <ele>184.2</ele>
        <time>2026-08-31T11:19:08Z</time>
      </trkpt>
      <trkpt lat="43.43829" lon="-0.35285">
        <ele>184.2</ele>
        <time>2026-08-31T11:19:08Z</time>
      </trkpt>
      <trkpt lat="43.43829" lon="-0.35286">
        <ele>184.2</ele>
        <time>2026-08-31T11:19:09Z</time>
      </trkpt>
      <trkpt lat="43.4383" lon="-0.35287">
        <ele>184.2</ele>
        <time>2026-08-31T11:19:10Z</time>
      </trkpt>
      <trkpt lat="43.4383" lon="-0.35288">
        <ele>183.2</ele>
        <time>2026-08-31T11:19:10Z</time>
      </trkpt>
      <trkpt lat="43.4383" lon="-0.35288">
        <ele>183.2</ele>
        <time>2026-08-31T11:19:11Z</time>
      </trkpt>
      <trkpt lat="43.43831" lon="-0.35289">
        <ele>183.2</ele>
        <time>2026-08-31T11:19:11Z</time>
      </trkpt>
      <trkpt lat="43.43831" lon="-0.3529">
        <ele>183.2</ele>
        <time>2026-08-31T11:19:12Z</time>
      </trkpt>
      <trkpt lat="43.43831" lon="-0.35291">
        <ele>183.2</ele>
        <time>2026-08-31T11:19:12Z</time>
      </trkpt>
      <trkpt lat="43.43832" lon="-0.35292">
        <ele>184.2</ele>
        <time>2026-08-31T11:19:13Z</time>
      </trkpt>
      <trkpt lat="43.43832" lon="-0.35293">
        <ele>184.2</ele>
        <time>2026-08-31T11:19:13Z</time>
      </trkpt>
      <trkpt lat="43.43833" lon="-0.35293">
        <ele>183.2</ele>
        <time>2026-08-31T11:19:14Z</time>
      </trkpt>
      <trkpt lat="43.43833" lon="-0.35294">
        <ele>183.2</ele>
        <time>2026-08-31T11:19:14Z</time>
      </trkpt>
      <trkpt lat="43.43834" lon="-0.35295">
        <ele>184.2</ele>
        <time>2026-08-31T11:19:15Z</time>
      </trkpt>
      <trkpt lat="43.43834" lon="-0.35295">
        <ele>184.2</ele>
        <time>2026-08-31T11:19:15Z</time>
      </trkpt>
      <trkpt lat="43.43834" lon="-0.35296">
        <ele>184.2</ele>
        <time>2026-08-31T11:19:16Z</time>
      </trkpt>
      <trkpt lat="43.43835" lon="-0.35297">
        <ele>184.2</ele>
        <time>2026-08-31T11:19:17Z</time>
      </trkpt>
      <trkpt lat="43.43835" lon="-0.35298">
        <ele>184.2</ele>
        <time>2026-08-31T11:19:17Z</time>
      </trkpt>
      <trkpt lat="43.43836" lon="-0.35299">
        <ele>184.2</ele>
        <time>2026-08-31T11:19:18Z</time>
      </trkpt>
      <trkpt lat="43.43836" lon="-0.353">
        <ele>184.2</ele>
        <time>2026-08-31T11:19:18Z</time>
      </trkpt>
      <trkpt lat="43.43836" lon="-0.35301">
        <ele>184.2</ele>
        <time>2026-08-31T11:19:19Z</time>
      </trkpt>
      <trkpt lat="43.43836" lon="-0.35302">
        <ele>184.2</ele>
        <time>2026-08-31T11:19:19Z</time>
      </trkpt>
      <trkpt lat="43.43837" lon="-0.35303">
        <ele>184.2</ele>
        <time>2026-08-31T11:19:20Z</time>
      </trkpt>
      <trkpt lat="43.43837" lon="-0.35304">
        <ele>184.2</ele>
        <time>2026-08-31T11:19:20Z</time>
      </trkpt>
      <trkpt lat="43.43837" lon="-0.35305">
        <ele>185.2</ele>
        <time>2026-08-31T11:19:21Z</time>
      </trkpt>
      <trkpt lat="43.43837" lon="-0.35306">
        <ele>185.2</ele>
        <time>2026-08-31T11:19:21Z</time>
      </trkpt>
      <trkpt lat="43.43838" lon="-0.35307">
        <ele>185.2</ele>
        <time>2026-08-31T11:19:22Z</time>
      </trkpt>
      <trkpt lat="43.43838" lon="-0.35308">
        <ele>185.2</ele>
        <time>2026-08-31T11:19:22Z</time>
      </trkpt>
      <trkpt lat="43.43838" lon="-0.35308">
        <ele>185.2</ele>
        <time>2026-08-31T11:19:23Z</time>
      </trkpt>
      <trkpt lat="43.43839" lon="-0.35309">
        <ele>185.2</ele>
        <time>2026-08-31T11:19:24Z</time>
      </trkpt>
      <trkpt lat="43.43839" lon="-0.3531">
        <ele>185.2</ele>
        <time>2026-08-31T11:19:24Z</time>
      </trkpt>
      <trkpt lat="43.43839" lon="-0.35311">
        <ele>185.2</ele>
        <time>2026-08-31T11:19:25Z</time>
      </trkpt>
      <trkpt lat="43.4384" lon="-0.35311">
        <ele>185.2</ele>
        <time>2026-08-31T11:19:25Z</time>
      </trkpt>
      <trkpt lat="43.4384" lon="-0.35312">
        <ele>185.2</ele>
        <time>2026-08-31T11:19:26Z</time>
      </trkpt>
      <trkpt lat="43.43841" lon="-0.35313">
        <ele>185.2</ele>
        <time>2026-08-31T11:19:26Z</time>
      </trkpt>
      <trkpt lat="43.43841" lon="-0.35313">
        <ele>185.2</ele>
        <time>2026-08-31T11:19:27Z</time>
      </trkpt>
      <trkpt lat="43.43842" lon="-0.35314">
        <ele>185.2</ele>
        <time>2026-08-31T11:19:27Z</time>
      </trkpt>
      <trkpt lat="43.43842" lon="-0.35315">
        <ele>185.2</ele>
        <time>2026-08-31T11:19:28Z</time>
      </trkpt>
      <trkpt lat="43.43843" lon="-0.35316">
        <ele>185.2</ele>
        <time>2026-08-31T11:19:28Z</time>
      </trkpt>
      <trkpt lat="43.43843" lon="-0.35316">
        <ele>185.2</ele>
        <time>2026-08-31T11:19:29Z</time>
      </trkpt>
      <trkpt lat="43.43844" lon="-0.35317">
        <ele>185.2</ele>
        <time>2026-08-31T11:19:30Z</time>
      </trkpt>
      <trkpt lat="43.43844" lon="-0.35318">
        <ele>185.2</ele>
        <time>2026-08-31T11:19:30Z</time>
      </trkpt>
      <trkpt lat="43.43845" lon="-0.35318">
        <ele>185.2</ele>
        <time>2026-08-31T11:19:31Z</time>
      </trkpt>
      <trkpt lat="43.43845" lon="-0.35319">
        <ele>185.2</ele>
        <time>2026-08-31T11:19:31Z</time>
      </trkpt>
      <trkpt lat="43.43846" lon="-0.3532">
        <ele>185.2</ele>
        <time>2026-08-31T11:19:32Z</time>
      </trkpt>
      <trkpt lat="43.43846" lon="-0.3532">
        <ele>185.2</ele>
        <time>2026-08-31T11:19:32Z</time>
      </trkpt>
      <trkpt lat="43.43847" lon="-0.35321">
        <ele>184.2</ele>
        <time>2026-08-31T11:19:33Z</time>
      </trkpt>
      <trkpt lat="43.43847" lon="-0.35322">
        <ele>184.2</ele>
        <time>2026-08-31T11:19:33Z</time>
      </trkpt>
      <trkpt lat="43.43848" lon="-0.35322">
        <ele>185.2</ele>
        <time>2026-08-31T11:19:34Z</time>
      </trkpt>
      <trkpt lat="43.43848" lon="-0.35323">
        <ele>185.2</ele>
        <time>2026-08-31T11:19:34Z</time>
      </trkpt>
      <trkpt lat="43.43849" lon="-0.35324">
        <ele>185.2</ele>
        <time>2026-08-31T11:19:35Z</time>
      </trkpt>
      <trkpt lat="43.43849" lon="-0.35324">
        <ele>185.2</ele>
        <time>2026-08-31T11:19:35Z</time>
      </trkpt>
      <trkpt lat="43.4385" lon="-0.35325">
        <ele>185.2</ele>
        <time>2026-08-31T11:19:36Z</time>
      </trkpt>
      <trkpt lat="43.4385" lon="-0.35325">
        <ele>185.2</ele>
        <time>2026-08-31T11:19:37Z</time>
      </trkpt>
      <trkpt lat="43.43851" lon="-0.35326">
        <ele>185.2</ele>
        <time>2026-08-31T11:19:37Z</time>
      </trkpt>
      <trkpt lat="43.43851" lon="-0.35327">
        <ele>185.2</ele>
        <time>2026-08-31T11:19:38Z</time>
      </trkpt>
      <trkpt lat="43.43851" lon="-0.35327">
        <ele>185.2</ele>
        <time>2026-08-31T11:19:38Z</time>
      </trkpt>
      <trkpt lat="43.43852" lon="-0.35328">
        <ele>185.2</ele>
        <time>2026-08-31T11:19:39Z</time>
      </trkpt>
      <trkpt lat="43.43852" lon="-0.35329">
        <ele>185.2</ele>
        <time>2026-08-31T11:19:39Z</time>
      </trkpt>
      <trkpt lat="43.43853" lon="-0.35329">
        <ele>185.2</ele>
        <time>2026-08-31T11:19:40Z</time>
      </trkpt>
      <trkpt lat="43.43853" lon="-0.3533">
        <ele>185.2</ele>
        <time>2026-08-31T11:19:40Z</time>
      </trkpt>
      <trkpt lat="43.43853" lon="-0.35331">
        <ele>185.2</ele>
        <time>2026-08-31T11:19:41Z</time>
      </trkpt>
      <trkpt lat="43.43854" lon="-0.35332">
        <ele>185.2</ele>
        <time>2026-08-31T11:19:41Z</time>
      </trkpt>
      <trkpt lat="43.43854" lon="-0.35332">
        <ele>185.2</ele>
        <time>2026-08-31T11:19:42Z</time>
      </trkpt>
      <trkpt lat="43.43855" lon="-0.35333">
        <ele>185.2</ele>
        <time>2026-08-31T11:19:42Z</time>
      </trkpt>
      <trkpt lat="43.43855" lon="-0.35334">
        <ele>185.2</ele>
        <time>2026-08-31T11:19:43Z</time>
      </trkpt>
      <trkpt lat="43.43856" lon="-0.35334">
        <ele>185.2</ele>
        <time>2026-08-31T11:19:43Z</time>
      </trkpt>
      <trkpt lat="43.43856" lon="-0.35335">
        <ele>186.2</ele>
        <time>2026-08-31T11:19:44Z</time>
      </trkpt>
      <trkpt lat="43.43856" lon="-0.35336">
        <ele>186.2</ele>
        <time>2026-08-31T11:19:45Z</time>
      </trkpt>
      <trkpt lat="43.43856" lon="-0.35336">
        <ele>186.2</ele>
        <time>2026-08-31T11:19:45Z</time>
      </trkpt>
      <trkpt lat="43.43857" lon="-0.35337">
        <ele>186.2</ele>
        <time>2026-08-31T11:19:46Z</time>
      </trkpt>
      <trkpt lat="43.43857" lon="-0.35338">
        <ele>186.2</ele>
        <time>2026-08-31T11:19:46Z</time>
      </trkpt>
      <trkpt lat="43.43857" lon="-0.35339">
        <ele>186.2</ele>
        <time>2026-08-31T11:19:47Z</time>
      </trkpt>
      <trkpt lat="43.43858" lon="-0.35339">
        <ele>186.2</ele>
        <time>2026-08-31T11:19:47Z</time>
      </trkpt>
      <trkpt lat="43.43858" lon="-0.3534">
        <ele>186.2</ele>
        <time>2026-08-31T11:19:48Z</time>
      </trkpt>
      <trkpt lat="43.43858" lon="-0.35341">
        <ele>186.2</ele>
        <time>2026-08-31T11:19:48Z</time>
      </trkpt>
      <trkpt lat="43.43859" lon="-0.35342">
        <ele>186.2</ele>
        <time>2026-08-31T11:19:49Z</time>
      </trkpt>
      <trkpt lat="43.43859" lon="-0.35342">
        <ele>186.2</ele>
        <time>2026-08-31T11:19:49Z</time>
      </trkpt>
      <trkpt lat="43.43859" lon="-0.35343">
        <ele>186.2</ele>
        <time>2026-08-31T11:19:50Z</time>
      </trkpt>
      <trkpt lat="43.4386" lon="-0.35344">
        <ele>186.2</ele>
        <time>2026-08-31T11:19:50Z</time>
      </trkpt>
      <trkpt lat="43.4386" lon="-0.35345">
        <ele>186.2</ele>
        <time>2026-08-31T11:19:51Z</time>
      </trkpt>
      <trkpt lat="43.43861" lon="-0.35345">
        <ele>186.2</ele>
        <time>2026-08-31T11:19:52Z</time>
      </trkpt>
      <trkpt lat="43.43861" lon="-0.35346">
        <ele>186.2</ele>
        <time>2026-08-31T11:19:52Z</time>
      </trkpt>
      <trkpt lat="43.43861" lon="-0.35347">
        <ele>186.2</ele>
        <time>2026-08-31T11:19:53Z</time>
      </trkpt>
      <trkpt lat="43.43862" lon="-0.35348">
        <ele>185.2</ele>
        <time>2026-08-31T11:19:53Z</time>
      </trkpt>
      <trkpt lat="43.43862" lon="-0.35348">
        <ele>185.2</ele>
        <time>2026-08-31T11:19:54Z</time>
      </trkpt>
      <trkpt lat="43.43862" lon="-0.35349">
        <ele>185.2</ele>
        <time>2026-08-31T11:19:54Z</time>
      </trkpt>
      <trkpt lat="43.43863" lon="-0.3535">
        <ele>185.2</ele>
        <time>2026-08-31T11:19:55Z</time>
      </trkpt>
      <trkpt lat="43.43863" lon="-0.35351">
        <ele>185.2</ele>
        <time>2026-08-31T11:19:55Z</time>
      </trkpt>
      <trkpt lat="43.43864" lon="-0.35351">
        <ele>186.2</ele>
        <time>2026-08-31T11:19:56Z</time>
      </trkpt>
      <trkpt lat="43.43864" lon="-0.35352">
        <ele>186.2</ele>
        <time>2026-08-31T11:19:56Z</time>
      </trkpt>
      <trkpt lat="43.43864" lon="-0.35353">
        <ele>186.2</ele>
        <time>2026-08-31T11:19:57Z</time>
      </trkpt>
      <trkpt lat="43.43865" lon="-0.35353">
        <ele>186.2</ele>
        <time>2026-08-31T11:19:58Z</time>
      </trkpt>
      <trkpt lat="43.43865" lon="-0.35354">
        <ele>186.2</ele>
        <time>2026-08-31T11:19:58Z</time>
      </trkpt>
      <trkpt lat="43.43866" lon="-0.35355">
        <ele>186.2</ele>
        <time>2026-08-31T11:19:59Z</time>
      </trkpt>
      <trkpt lat="43.43866" lon="-0.35356">
        <ele>186.2</ele>
        <time>2026-08-31T11:19:59Z</time>
      </trkpt>
      <trkpt lat="43.43866" lon="-0.35357">
        <ele>186.2</ele>
        <time>2026-08-31T11:20:00Z</time>
      </trkpt>
      <trkpt lat="43.43867" lon="-0.35357">
        <ele>186.2</ele>
        <time>2026-08-31T11:20:00Z</time>
      </trkpt>
      <trkpt lat="43.43867" lon="-0.35358">
        <ele>186.2</ele>
        <time>2026-08-31T11:20:01Z</time>
      </trkpt>
      <trkpt lat="43.43867" lon="-0.35359">
        <ele>186.2</ele>
        <time>2026-08-31T11:20:01Z</time>
      </trkpt>
      <trkpt lat="43.43868" lon="-0.35359">
        <ele>187.2</ele>
        <time>2026-08-31T11:20:02Z</time>
      </trkpt>
      <trkpt lat="43.43868" lon="-0.3536">
        <ele>187.2</ele>
        <time>2026-08-31T11:20:02Z</time>
      </trkpt>
      <trkpt lat="43.43868" lon="-0.35361">
        <ele>187.2</ele>
        <time>2026-08-31T11:20:03Z</time>
      </trkpt>
      <trkpt lat="43.43869" lon="-0.35362">
        <ele>187.2</ele>
        <time>2026-08-31T11:20:03Z</time>
      </trkpt>
      <trkpt lat="43.43869" lon="-0.35363">
        <ele>186.2</ele>
        <time>2026-08-31T11:20:04Z</time>
      </trkpt>
      <trkpt lat="43.4387" lon="-0.35363">
        <ele>186.2</ele>
        <time>2026-08-31T11:20:05Z</time>
      </trkpt>
      <trkpt lat="43.4387" lon="-0.35364">
        <ele>186.2</ele>
        <time>2026-08-31T11:20:05Z</time>
      </trkpt>
      <trkpt lat="43.4387" lon="-0.35365">
        <ele>186.2</ele>
        <time>2026-08-31T11:20:06Z</time>
      </trkpt>
      <trkpt lat="43.4387" lon="-0.35366">
        <ele>186.2</ele>
        <time>2026-08-31T11:20:06Z</time>
      </trkpt>
      <trkpt lat="43.43871" lon="-0.35367">
        <ele>186.2</ele>
        <time>2026-08-31T11:20:07Z</time>
      </trkpt>
      <trkpt lat="43.43871" lon="-0.35368">
        <ele>186.2</ele>
        <time>2026-08-31T11:20:07Z</time>
      </trkpt>
      <trkpt lat="43.43871" lon="-0.35368">
        <ele>186.2</ele>
        <time>2026-08-31T11:20:08Z</time>
      </trkpt>
      <trkpt lat="43.43872" lon="-0.35369">
        <ele>186.2</ele>
        <time>2026-08-31T11:20:08Z</time>
      </trkpt>
      <trkpt lat="43.43872" lon="-0.3537">
        <ele>186.2</ele>
        <time>2026-08-31T11:20:09Z</time>
      </trkpt>
      <trkpt lat="43.43872" lon="-0.35371">
        <ele>186.2</ele>
        <time>2026-08-31T11:20:09Z</time>
      </trkpt>
      <trkpt lat="43.43872" lon="-0.35372">
        <ele>186.2</ele>
        <time>2026-08-31T11:20:10Z</time>
      </trkpt>
      <trkpt lat="43.43872" lon="-0.35373">
        <ele>186.2</ele>
        <time>2026-08-31T11:20:11Z</time>
      </trkpt>
      <trkpt lat="43.43873" lon="-0.35374">
        <ele>186.2</ele>
        <time>2026-08-31T11:20:11Z</time>
      </trkpt>
      <trkpt lat="43.43873" lon="-0.35375">
        <ele>186.2</ele>
        <time>2026-08-31T11:20:12Z</time>
      </trkpt>
      <trkpt lat="43.43873" lon="-0.35376">
        <ele>185.2</ele>
        <time>2026-08-31T11:20:12Z</time>
      </trkpt>
      <trkpt lat="43.43873" lon="-0.35377">
        <ele>185.2</ele>
        <time>2026-08-31T11:20:13Z</time>
      </trkpt>
      <trkpt lat="43.43874" lon="-0.35378">
        <ele>185.2</ele>
        <time>2026-08-31T11:20:13Z</time>
      </trkpt>
      <trkpt lat="43.43874" lon="-0.35378">
        <ele>185.2</ele>
        <time>2026-08-31T11:20:14Z</time>
      </trkpt>
      <trkpt lat="43.43875" lon="-0.35379">
        <ele>185.2</ele>
        <time>2026-08-31T11:20:14Z</time>
      </trkpt>
      <trkpt lat="43.43875" lon="-0.3538">
        <ele>186.2</ele>
        <time>2026-08-31T11:20:15Z</time>
      </trkpt>
      <trkpt lat="43.43875" lon="-0.35381">
        <ele>186.2</ele>
        <time>2026-08-31T11:20:15Z</time>
      </trkpt>
      <trkpt lat="43.43876" lon="-0.35382">
        <ele>186.2</ele>
        <time>2026-08-31T11:20:16Z</time>
      </trkpt>
      <trkpt lat="43.43876" lon="-0.35382">
        <ele>186.2</ele>
        <time>2026-08-31T11:20:16Z</time>
      </trkpt>
      <trkpt lat="43.43876" lon="-0.35383">
        <ele>186.2</ele>
        <time>2026-08-31T11:20:17Z</time>
      </trkpt>
      <trkpt lat="43.43876" lon="-0.35384">
        <ele>186.2</ele>
        <time>2026-08-31T11:20:18Z</time>
      </trkpt>
      <trkpt lat="43.43877" lon="-0.35385">
        <ele>186.2</ele>
        <time>2026-08-31T11:20:18Z</time>
      </trkpt>
      <trkpt lat="43.43877" lon="-0.35385">
        <ele>186.2</ele>
        <time>2026-08-31T11:20:19Z</time>
      </trkpt>
      <trkpt lat="43.43877" lon="-0.35386">
        <ele>186.2</ele>
        <time>2026-08-31T11:20:19Z</time>
      </trkpt>
      <trkpt lat="43.43878" lon="-0.35387">
        <ele>186.2</ele>
        <time>2026-08-31T11:20:20Z</time>
      </trkpt>
      <trkpt lat="43.43878" lon="-0.35388">
        <ele>186.2</ele>
        <time>2026-08-31T11:20:20Z</time>
      </trkpt>
      <trkpt lat="43.43879" lon="-0.35389">
        <ele>186.2</ele>
        <time>2026-08-31T11:20:21Z</time>
      </trkpt>
      <trkpt lat="43.4388" lon="-0.3539">
        <ele>186.2</ele>
        <time>2026-08-31T11:20:22Z</time>
      </trkpt>
      <trkpt lat="43.4388" lon="-0.3539">
        <ele>186.2</ele>
        <time>2026-08-31T11:20:22Z</time>
      </trkpt>
      <trkpt lat="43.4388" lon="-0.35391">
        <ele>185.2</ele>
        <time>2026-08-31T11:20:23Z</time>
      </trkpt>
      <trkpt lat="43.43881" lon="-0.35392">
        <ele>185.2</ele>
        <time>2026-08-31T11:20:23Z</time>
      </trkpt>
      <trkpt lat="43.43881" lon="-0.35393">
        <ele>185.2</ele>
        <time>2026-08-31T11:20:24Z</time>
      </trkpt>
      <trkpt lat="43.43881" lon="-0.35394">
        <ele>185.2</ele>
        <time>2026-08-31T11:20:25Z</time>
      </trkpt>
      <trkpt lat="43.43881" lon="-0.35394">
        <ele>186.2</ele>
        <time>2026-08-31T11:20:25Z</time>
      </trkpt>
      <trkpt lat="43.43882" lon="-0.35395">
        <ele>186.2</ele>
        <time>2026-08-31T11:20:26Z</time>
      </trkpt>
      <trkpt lat="43.43882" lon="-0.35396">
        <ele>186.2</ele>
        <time>2026-08-31T11:20:26Z</time>
      </trkpt>
      <trkpt lat="43.43882" lon="-0.35397">
        <ele>186.2</ele>
        <time>2026-08-31T11:20:27Z</time>
      </trkpt>
      <trkpt lat="43.43882" lon="-0.35398">
        <ele>186.2</ele>
        <time>2026-08-31T11:20:27Z</time>
      </trkpt>
      <trkpt lat="43.43883" lon="-0.35399">
        <ele>186.2</ele>
        <time>2026-08-31T11:20:28Z</time>
      </trkpt>
      <trkpt lat="43.43883" lon="-0.354">
        <ele>186.2</ele>
        <time>2026-08-31T11:20:28Z</time>
      </trkpt>
      <trkpt lat="43.43883" lon="-0.35401">
        <ele>186.2</ele>
        <time>2026-08-31T11:20:29Z</time>
      </trkpt>
      <trkpt lat="43.43884" lon="-0.35401">
        <ele>186.2</ele>
        <time>2026-08-31T11:20:29Z</time>
      </trkpt>
      <trkpt lat="43.43884" lon="-0.35402">
        <ele>186.2</ele>
        <time>2026-08-31T11:20:30Z</time>
      </trkpt>
      <trkpt lat="43.43884" lon="-0.35403">
        <ele>186.2</ele>
        <time>2026-08-31T11:20:30Z</time>
      </trkpt>
      <trkpt lat="43.43885" lon="-0.35404">
        <ele>186.2</ele>
        <time>2026-08-31T11:20:31Z</time>
      </trkpt>
      <trkpt lat="43.43885" lon="-0.35405">
        <ele>186.2</ele>
        <time>2026-08-31T11:20:32Z</time>
      </trkpt>
      <trkpt lat="43.43885" lon="-0.35406">
        <ele>186.2</ele>
        <time>2026-08-31T11:20:32Z</time>
      </trkpt>
      <trkpt lat="43.43885" lon="-0.35407">
        <ele>186.2</ele>
        <time>2026-08-31T11:20:33Z</time>
      </trkpt>
      <trkpt lat="43.43885" lon="-0.35409">
        <ele>186.2</ele>
        <time>2026-08-31T11:20:33Z</time>
      </trkpt>
      <trkpt lat="43.43886" lon="-0.3541">
        <ele>186.2</ele>
        <time>2026-08-31T11:20:34Z</time>
      </trkpt>
      <trkpt lat="43.43886" lon="-0.35411">
        <ele>186.2</ele>
        <time>2026-08-31T11:20:34Z</time>
      </trkpt>
      <trkpt lat="43.43886" lon="-0.35412">
        <ele>186.2</ele>
        <time>2026-08-31T11:20:35Z</time>
      </trkpt>
      <trkpt lat="43.43886" lon="-0.35413">
        <ele>186.2</ele>
        <time>2026-08-31T11:20:35Z</time>
      </trkpt>
      <trkpt lat="43.43886" lon="-0.35414">
        <ele>186.2</ele>
        <time>2026-08-31T11:20:36Z</time>
      </trkpt>
      <trkpt lat="43.43886" lon="-0.35415">
        <ele>186.2</ele>
        <time>2026-08-31T11:20:37Z</time>
      </trkpt>
      <trkpt lat="43.43886" lon="-0.35416">
        <ele>186.2</ele>
        <time>2026-08-31T11:20:37Z</time>
      </trkpt>
      <trkpt lat="43.43886" lon="-0.35417">
        <ele>186.2</ele>
        <time>2026-08-31T11:20:38Z</time>
      </trkpt>
      <trkpt lat="43.43886" lon="-0.35418">
        <ele>186.2</ele>
        <time>2026-08-31T11:20:38Z</time>
      </trkpt>
      <trkpt lat="43.43886" lon="-0.35419">
        <ele>185.2</ele>
        <time>2026-08-31T11:20:39Z</time>
      </trkpt>
      <trkpt lat="43.43886" lon="-0.3542">
        <ele>185.2</ele>
        <time>2026-08-31T11:20:39Z</time>
      </trkpt>
      <trkpt lat="43.43886" lon="-0.35422">
        <ele>185.2</ele>
        <time>2026-08-31T11:20:40Z</time>
      </trkpt>
      <trkpt lat="43.43886" lon="-0.35423">
        <ele>185.2</ele>
        <time>2026-08-31T11:20:40Z</time>
      </trkpt>
      <trkpt lat="43.43887" lon="-0.35424">
        <ele>187.2</ele>
        <time>2026-08-31T11:20:41Z</time>
      </trkpt>
      <trkpt lat="43.43887" lon="-0.35425">
        <ele>187.2</ele>
        <time>2026-08-31T11:20:42Z</time>
      </trkpt>
      <trkpt lat="43.43887" lon="-0.35426">
        <ele>186.2</ele>
        <time>2026-08-31T11:20:42Z</time>
      </trkpt>
      <trkpt lat="43.43888" lon="-0.35427">
        <ele>186.2</ele>
        <time>2026-08-31T11:20:43Z</time>
      </trkpt>
      <trkpt lat="43.43888" lon="-0.35427">
        <ele>186.2</ele>
        <time>2026-08-31T11:20:43Z</time>
      </trkpt>
      <trkpt lat="43.43888" lon="-0.35428">
        <ele>186.2</ele>
        <time>2026-08-31T11:20:44Z</time>
      </trkpt>
      <trkpt lat="43.43889" lon="-0.3543">
        <ele>185.2</ele>
        <time>2026-08-31T11:20:45Z</time>
      </trkpt>
      <trkpt lat="43.4389" lon="-0.35431">
        <ele>185.2</ele>
        <time>2026-08-31T11:20:45Z</time>
      </trkpt>
      <trkpt lat="43.4389" lon="-0.35432">
        <ele>185.2</ele>
        <time>2026-08-31T11:20:46Z</time>
      </trkpt>
      <trkpt lat="43.4389" lon="-0.35433">
        <ele>185.2</ele>
        <time>2026-08-31T11:20:46Z</time>
      </trkpt>
      <trkpt lat="43.43891" lon="-0.35434">
        <ele>185.2</ele>
        <time>2026-08-31T11:20:47Z</time>
      </trkpt>
      <trkpt lat="43.43891" lon="-0.35435">
        <ele>185.2</ele>
        <time>2026-08-31T11:20:48Z</time>
      </trkpt>
      <trkpt lat="43.43891" lon="-0.35436">
        <ele>185.2</ele>
        <time>2026-08-31T11:20:48Z</time>
      </trkpt>
      <trkpt lat="43.43892" lon="-0.35437">
        <ele>185.2</ele>
        <time>2026-08-31T11:20:49Z</time>
      </trkpt>
      <trkpt lat="43.43892" lon="-0.35438">
        <ele>185.2</ele>
        <time>2026-08-31T11:20:49Z</time>
      </trkpt>
      <trkpt lat="43.43892" lon="-0.35439">
        <ele>185.2</ele>
        <time>2026-08-31T11:20:50Z</time>
      </trkpt>
      <trkpt lat="43.43893" lon="-0.35441">
        <ele>186.2</ele>
        <time>2026-08-31T11:20:51Z</time>
      </trkpt>
      <trkpt lat="43.43894" lon="-0.35442">
        <ele>186.2</ele>
        <time>2026-08-31T11:20:51Z</time>
      </trkpt>
      <trkpt lat="43.43894" lon="-0.35442">
        <ele>186.2</ele>
        <time>2026-08-31T11:20:52Z</time>
      </trkpt>
      <trkpt lat="43.43894" lon="-0.35443">
        <ele>186.2</ele>
        <time>2026-08-31T11:20:52Z</time>
      </trkpt>
      <trkpt lat="43.43895" lon="-0.35444">
        <ele>186.2</ele>
        <time>2026-08-31T11:20:53Z</time>
      </trkpt>
      <trkpt lat="43.43895" lon="-0.35445">
        <ele>186.2</ele>
        <time>2026-08-31T11:20:53Z</time>
      </trkpt>
      <trkpt lat="43.43896" lon="-0.35447">
        <ele>186.2</ele>
        <time>2026-08-31T11:20:54Z</time>
      </trkpt>
      <trkpt lat="43.43896" lon="-0.35447">
        <ele>186.2</ele>
        <time>2026-08-31T11:20:55Z</time>
      </trkpt>
      <trkpt lat="43.43897" lon="-0.35448">
        <ele>186.2</ele>
        <time>2026-08-31T11:20:55Z</time>
      </trkpt>
      <trkpt lat="43.43897" lon="-0.35449">
        <ele>186.2</ele>
        <time>2026-08-31T11:20:56Z</time>
      </trkpt>
      <trkpt lat="43.43897" lon="-0.3545">
        <ele>186.2</ele>
        <time>2026-08-31T11:20:57Z</time>
      </trkpt>
      <trkpt lat="43.43898" lon="-0.35451">
        <ele>187.2</ele>
        <time>2026-08-31T11:20:57Z</time>
      </trkpt>
      <trkpt lat="43.43898" lon="-0.35451">
        <ele>187.2</ele>
        <time>2026-08-31T11:20:58Z</time>
      </trkpt>
      <trkpt lat="43.43898" lon="-0.35452">
        <ele>187.2</ele>
        <time>2026-08-31T11:20:58Z</time>
      </trkpt>
      <trkpt lat="43.43898" lon="-0.35453">
        <ele>187.2</ele>
        <time>2026-08-31T11:20:59Z</time>
      </trkpt>
      <trkpt lat="43.43899" lon="-0.35453">
        <ele>187.2</ele>
        <time>2026-08-31T11:20:59Z</time>
      </trkpt>
      <trkpt lat="43.43899" lon="-0.35454">
        <ele>186.2</ele>
        <time>2026-08-31T11:21:00Z</time>
      </trkpt>
      <trkpt lat="43.43899" lon="-0.35455">
        <ele>186.2</ele>
        <time>2026-08-31T11:21:00Z</time>
      </trkpt>
      <trkpt lat="43.43899" lon="-0.35455">
        <ele>186.2</ele>
        <time>2026-08-31T11:21:01Z</time>
      </trkpt>
      <trkpt lat="43.439" lon="-0.35456">
        <ele>186.2</ele>
        <time>2026-08-31T11:21:01Z</time>
      </trkpt>
      <trkpt lat="43.439" lon="-0.35457">
        <ele>186.2</ele>
        <time>2026-08-31T11:21:02Z</time>
      </trkpt>
      <trkpt lat="43.43901" lon="-0.35458">
        <ele>186.2</ele>
        <time>2026-08-31T11:21:03Z</time>
      </trkpt>
      <trkpt lat="43.43901" lon="-0.35458">
        <ele>187.2</ele>
        <time>2026-08-31T11:21:03Z</time>
      </trkpt>
      <trkpt lat="43.43902" lon="-0.35459">
        <ele>187.2</ele>
        <time>2026-08-31T11:21:04Z</time>
      </trkpt>
      <trkpt lat="43.43902" lon="-0.35459">
        <ele>187.2</ele>
        <time>2026-08-31T11:21:04Z</time>
      </trkpt>
      <trkpt lat="43.43902" lon="-0.3546">
        <ele>187.2</ele>
        <time>2026-08-31T11:21:05Z</time>
      </trkpt>
      <trkpt lat="43.43903" lon="-0.35461">
        <ele>187.2</ele>
        <time>2026-08-31T11:21:05Z</time>
      </trkpt>
      <trkpt lat="43.43903" lon="-0.35462">
        <ele>186.2</ele>
        <time>2026-08-31T11:21:06Z</time>
      </trkpt>
      <trkpt lat="43.43903" lon="-0.35462">
        <ele>186.2</ele>
        <time>2026-08-31T11:21:06Z</time>
      </trkpt>
      <trkpt lat="43.43904" lon="-0.35463">
        <ele>186.2</ele>
        <time>2026-08-31T11:21:07Z</time>
      </trkpt>
      <trkpt lat="43.43904" lon="-0.35464">
        <ele>186.2</ele>
        <time>2026-08-31T11:21:07Z</time>
      </trkpt>
      <trkpt lat="43.43905" lon="-0.35465">
        <ele>186.2</ele>
        <time>2026-08-31T11:21:08Z</time>
      </trkpt>
      <trkpt lat="43.43905" lon="-0.35465">
        <ele>186.2</ele>
        <time>2026-08-31T11:21:09Z</time>
      </trkpt>
      <trkpt lat="43.43906" lon="-0.35466">
        <ele>185.2</ele>
        <time>2026-08-31T11:21:09Z</time>
      </trkpt>
      <trkpt lat="43.43906" lon="-0.35467">
        <ele>185.2</ele>
        <time>2026-08-31T11:21:10Z</time>
      </trkpt>
      <trkpt lat="43.43907" lon="-0.35468">
        <ele>185.2</ele>
        <time>2026-08-31T11:21:10Z</time>
      </trkpt>
      <trkpt lat="43.43907" lon="-0.35469">
        <ele>185.2</ele>
        <time>2026-08-31T11:21:11Z</time>
      </trkpt>
      <trkpt lat="43.43908" lon="-0.35469">
        <ele>185.2</ele>
        <time>2026-08-31T11:21:11Z</time>
      </trkpt>
      <trkpt lat="43.43908" lon="-0.3547">
        <ele>185.2</ele>
        <time>2026-08-31T11:21:12Z</time>
      </trkpt>
      <trkpt lat="43.43909" lon="-0.35471">
        <ele>185.2</ele>
        <time>2026-08-31T11:21:13Z</time>
      </trkpt>
      <trkpt lat="43.43909" lon="-0.35473">
        <ele>185.2</ele>
        <time>2026-08-31T11:21:14Z</time>
      </trkpt>
      <trkpt lat="43.4391" lon="-0.35473">
        <ele>185.2</ele>
        <time>2026-08-31T11:21:15Z</time>
      </trkpt>
      <trkpt lat="43.43911" lon="-0.35474">
        <ele>185.2</ele>
        <time>2026-08-31T11:21:15Z</time>
      </trkpt>
      <trkpt lat="43.43911" lon="-0.35475">
        <ele>185.2</ele>
        <time>2026-08-31T11:21:16Z</time>
      </trkpt>
      <trkpt lat="43.43912" lon="-0.35475">
        <ele>185.2</ele>
        <time>2026-08-31T11:21:16Z</time>
      </trkpt>
      <trkpt lat="43.43912" lon="-0.35476">
        <ele>184.2</ele>
        <time>2026-08-31T11:21:17Z</time>
      </trkpt>
      <trkpt lat="43.43913" lon="-0.35476">
        <ele>184.2</ele>
        <time>2026-08-31T11:21:17Z</time>
      </trkpt>
      <trkpt lat="43.43913" lon="-0.35477">
        <ele>184.2</ele>
        <time>2026-08-31T11:21:18Z</time>
      </trkpt>
      <trkpt lat="43.43914" lon="-0.35478">
        <ele>184.2</ele>
        <time>2026-08-31T11:21:19Z</time>
      </trkpt>
      <trkpt lat="43.43914" lon="-0.35478">
        <ele>184.2</ele>
        <time>2026-08-31T11:21:19Z</time>
      </trkpt>
      <trkpt lat="43.43915" lon="-0.35479">
        <ele>184.2</ele>
        <time>2026-08-31T11:21:20Z</time>
      </trkpt>
      <trkpt lat="43.43915" lon="-0.35479">
        <ele>183.2</ele>
        <time>2026-08-31T11:21:20Z</time>
      </trkpt>
      <trkpt lat="43.43916" lon="-0.3548">
        <ele>183.2</ele>
        <time>2026-08-31T11:21:21Z</time>
      </trkpt>
      <trkpt lat="43.43916" lon="-0.3548">
        <ele>183.2</ele>
        <time>2026-08-31T11:21:21Z</time>
      </trkpt>
      <trkpt lat="43.43916" lon="-0.35481">
        <ele>183.2</ele>
        <time>2026-08-31T11:21:22Z</time>
      </trkpt>
      <trkpt lat="43.43916" lon="-0.35482">
        <ele>183.2</ele>
        <time>2026-08-31T11:21:22Z</time>
      </trkpt>
      <trkpt lat="43.43917" lon="-0.35482">
        <ele>183.2</ele>
        <time>2026-08-31T11:21:23Z</time>
      </trkpt>
      <trkpt lat="43.43917" lon="-0.35483">
        <ele>183.2</ele>
        <time>2026-08-31T11:21:24Z</time>
      </trkpt>
      <trkpt lat="43.43918" lon="-0.35484">
        <ele>183.2</ele>
        <time>2026-08-31T11:21:24Z</time>
      </trkpt>
      <trkpt lat="43.43918" lon="-0.35484">
        <ele>183.2</ele>
        <time>2026-08-31T11:21:25Z</time>
      </trkpt>
      <trkpt lat="43.43919" lon="-0.35486">
        <ele>183.2</ele>
        <time>2026-08-31T11:21:26Z</time>
      </trkpt>
      <trkpt lat="43.43919" lon="-0.35486">
        <ele>184.2</ele>
        <time>2026-08-31T11:21:26Z</time>
      </trkpt>
      <trkpt lat="43.43919" lon="-0.35487">
        <ele>184.2</ele>
        <time>2026-08-31T11:21:27Z</time>
      </trkpt>
      <trkpt lat="43.4392" lon="-0.35488">
        <ele>184.2</ele>
        <time>2026-08-31T11:21:27Z</time>
      </trkpt>
      <trkpt lat="43.4392" lon="-0.35489">
        <ele>183.2</ele>
        <time>2026-08-31T11:21:28Z</time>
      </trkpt>
      <trkpt lat="43.4392" lon="-0.3549">
        <ele>183.2</ele>
        <time>2026-08-31T11:21:28Z</time>
      </trkpt>
      <trkpt lat="43.43921" lon="-0.35491">
        <ele>183.2</ele>
        <time>2026-08-31T11:21:29Z</time>
      </trkpt>
      <trkpt lat="43.43921" lon="-0.35491">
        <ele>183.2</ele>
        <time>2026-08-31T11:21:29Z</time>
      </trkpt>
      <trkpt lat="43.43921" lon="-0.35492">
        <ele>184.2</ele>
        <time>2026-08-31T11:21:30Z</time>
      </trkpt>
      <trkpt lat="43.43922" lon="-0.35493">
        <ele>184.2</ele>
        <time>2026-08-31T11:21:31Z</time>
      </trkpt>
      <trkpt lat="43.43922" lon="-0.35493">
        <ele>184.2</ele>
        <time>2026-08-31T11:21:31Z</time>
      </trkpt>
      <trkpt lat="43.43923" lon="-0.35494">
        <ele>184.2</ele>
        <time>2026-08-31T11:21:32Z</time>
      </trkpt>
      <trkpt lat="43.43923" lon="-0.35495">
        <ele>183.2</ele>
        <time>2026-08-31T11:21:32Z</time>
      </trkpt>
      <trkpt lat="43.43924" lon="-0.35495">
        <ele>183.2</ele>
        <time>2026-08-31T11:21:33Z</time>
      </trkpt>
      <trkpt lat="43.43925" lon="-0.35496">
        <ele>183.2</ele>
        <time>2026-08-31T11:21:33Z</time>
      </trkpt>
      <trkpt lat="43.43925" lon="-0.35497">
        <ele>183.2</ele>
        <time>2026-08-31T11:21:34Z</time>
      </trkpt>
      <trkpt lat="43.43926" lon="-0.35497">
        <ele>183.2</ele>
        <time>2026-08-31T11:21:34Z</time>
      </trkpt>
      <trkpt lat="43.43926" lon="-0.35497">
        <ele>183.2</ele>
        <time>2026-08-31T11:21:35Z</time>
      </trkpt>
      <trkpt lat="43.43927" lon="-0.35498">
        <ele>183.2</ele>
        <time>2026-08-31T11:21:36Z</time>
      </trkpt>
      <trkpt lat="43.43927" lon="-0.35499">
        <ele>183.2</ele>
        <time>2026-08-31T11:21:36Z</time>
      </trkpt>
      <trkpt lat="43.43928" lon="-0.35499">
        <ele>183.2</ele>
        <time>2026-08-31T11:21:37Z</time>
      </trkpt>
      <trkpt lat="43.43928" lon="-0.355">
        <ele>183.2</ele>
        <time>2026-08-31T11:21:37Z</time>
      </trkpt>
      <trkpt lat="43.43929" lon="-0.355">
        <ele>183.2</ele>
        <time>2026-08-31T11:21:38Z</time>
      </trkpt>
      <trkpt lat="43.43929" lon="-0.35501">
        <ele>183.2</ele>
        <time>2026-08-31T11:21:38Z</time>
      </trkpt>
      <trkpt lat="43.4393" lon="-0.35501">
        <ele>184.2</ele>
        <time>2026-08-31T11:21:39Z</time>
      </trkpt>
      <trkpt lat="43.43931" lon="-0.35502">
        <ele>184.2</ele>
        <time>2026-08-31T11:21:39Z</time>
      </trkpt>
      <trkpt lat="43.43931" lon="-0.35502">
        <ele>184.2</ele>
        <time>2026-08-31T11:21:40Z</time>
      </trkpt>
      <trkpt lat="43.43932" lon="-0.35503">
        <ele>184.2</ele>
        <time>2026-08-31T11:21:40Z</time>
      </trkpt>
      <trkpt lat="43.43933" lon="-0.35503">
        <ele>184.2</ele>
        <time>2026-08-31T11:21:41Z</time>
      </trkpt>
      <trkpt lat="43.43933" lon="-0.35504">
        <ele>184.2</ele>
        <time>2026-08-31T11:21:41Z</time>
      </trkpt>
      <trkpt lat="43.43934" lon="-0.35505">
        <ele>184.2</ele>
        <time>2026-08-31T11:21:42Z</time>
      </trkpt>
      <trkpt lat="43.43934" lon="-0.35505">
        <ele>184.2</ele>
        <time>2026-08-31T11:21:43Z</time>
      </trkpt>
      <trkpt lat="43.43935" lon="-0.35506">
        <ele>184.2</ele>
        <time>2026-08-31T11:21:43Z</time>
      </trkpt>
      <trkpt lat="43.43937" lon="-0.35507">
        <ele>184.2</ele>
        <time>2026-08-31T11:21:44Z</time>
      </trkpt>
      <trkpt lat="43.43938" lon="-0.35508">
        <ele>184.2</ele>
        <time>2026-08-31T11:21:46Z</time>
      </trkpt>
      <trkpt lat="43.43939" lon="-0.35509">
        <ele>185.2</ele>
        <time>2026-08-31T11:21:46Z</time>
      </trkpt>
      <trkpt lat="43.43939" lon="-0.35509">
        <ele>185.2</ele>
        <time>2026-08-31T11:21:47Z</time>
      </trkpt>
      <trkpt lat="43.4394" lon="-0.3551">
        <ele>185.2</ele>
        <time>2026-08-31T11:21:47Z</time>
      </trkpt>
      <trkpt lat="43.4394" lon="-0.35511">
        <ele>185.2</ele>
        <time>2026-08-31T11:21:48Z</time>
      </trkpt>
      <trkpt lat="43.43941" lon="-0.35512">
        <ele>185.2</ele>
        <time>2026-08-31T11:21:49Z</time>
      </trkpt>
      <trkpt lat="43.43941" lon="-0.35513">
        <ele>185.2</ele>
        <time>2026-08-31T11:21:49Z</time>
      </trkpt>
      <trkpt lat="43.43942" lon="-0.35514">
        <ele>185.2</ele>
        <time>2026-08-31T11:21:50Z</time>
      </trkpt>
      <trkpt lat="43.43942" lon="-0.35516">
        <ele>185.2</ele>
        <time>2026-08-31T11:21:51Z</time>
      </trkpt>
      <trkpt lat="43.43943" lon="-0.35517">
        <ele>185.2</ele>
        <time>2026-08-31T11:21:51Z</time>
      </trkpt>
      <trkpt lat="43.43943" lon="-0.35517">
        <ele>185.2</ele>
        <time>2026-08-31T11:21:52Z</time>
      </trkpt>
      <trkpt lat="43.43944" lon="-0.35518">
        <ele>185.2</ele>
        <time>2026-08-31T11:21:52Z</time>
      </trkpt>
      <trkpt lat="43.43944" lon="-0.35519">
        <ele>185.2</ele>
        <time>2026-08-31T11:21:53Z</time>
      </trkpt>
      <trkpt lat="43.43945" lon="-0.3552">
        <ele>185.2</ele>
        <time>2026-08-31T11:21:53Z</time>
      </trkpt>
      <trkpt lat="43.43945" lon="-0.3552">
        <ele>185.2</ele>
        <time>2026-08-31T11:21:54Z</time>
      </trkpt>
      <trkpt lat="43.43945" lon="-0.35521">
        <ele>185.2</ele>
        <time>2026-08-31T11:21:54Z</time>
      </trkpt>
      <trkpt lat="43.43946" lon="-0.35522">
        <ele>185.2</ele>
        <time>2026-08-31T11:21:55Z</time>
      </trkpt>
      <trkpt lat="43.43946" lon="-0.35523">
        <ele>185.2</ele>
        <time>2026-08-31T11:21:55Z</time>
      </trkpt>
      <trkpt lat="43.43947" lon="-0.35524">
        <ele>186.2</ele>
        <time>2026-08-31T11:21:56Z</time>
      </trkpt>
      <trkpt lat="43.43947" lon="-0.35525">
        <ele>186.2</ele>
        <time>2026-08-31T11:21:56Z</time>
      </trkpt>
      <trkpt lat="43.43947" lon="-0.35526">
        <ele>185.2</ele>
        <time>2026-08-31T11:21:57Z</time>
      </trkpt>
      <trkpt lat="43.43947" lon="-0.35526">
        <ele>185.2</ele>
        <time>2026-08-31T11:21:57Z</time>
      </trkpt>
      <trkpt lat="43.43948" lon="-0.35528">
        <ele>185.2</ele>
        <time>2026-08-31T11:21:59Z</time>
      </trkpt>
      <trkpt lat="43.43948" lon="-0.35529">
        <ele>185.2</ele>
        <time>2026-08-31T11:21:59Z</time>
      </trkpt>
      <trkpt lat="43.43948" lon="-0.3553">
        <ele>185.2</ele>
        <time>2026-08-31T11:22:00Z</time>
      </trkpt>
      <trkpt lat="43.43948" lon="-0.35531">
        <ele>185.2</ele>
        <time>2026-08-31T11:22:01Z</time>
      </trkpt>
      <trkpt lat="43.43948" lon="-0.35532">
        <ele>185.2</ele>
        <time>2026-08-31T11:22:01Z</time>
      </trkpt>
      <trkpt lat="43.43949" lon="-0.35532">
        <ele>185.2</ele>
        <time>2026-08-31T11:22:02Z</time>
      </trkpt>
      <trkpt lat="43.43949" lon="-0.35533">
        <ele>185.2</ele>
        <time>2026-08-31T11:22:02Z</time>
      </trkpt>
      <trkpt lat="43.43949" lon="-0.35534">
        <ele>185.2</ele>
        <time>2026-08-31T11:22:03Z</time>
      </trkpt>
      <trkpt lat="43.43949" lon="-0.35535">
        <ele>185.2</ele>
        <time>2026-08-31T11:22:04Z</time>
      </trkpt>
      <trkpt lat="43.43949" lon="-0.35536">
        <ele>185.2</ele>
        <time>2026-08-31T11:22:05Z</time>
      </trkpt>
      <trkpt lat="43.43949" lon="-0.35537">
        <ele>185.2</ele>
        <time>2026-08-31T11:22:06Z</time>
      </trkpt>
      <trkpt lat="43.4395" lon="-0.35538">
        <ele>185.2</ele>
        <time>2026-08-31T11:22:06Z</time>
      </trkpt>
      <trkpt lat="43.4395" lon="-0.35539">
        <ele>185.2</ele>
        <time>2026-08-31T11:22:07Z</time>
      </trkpt>
      <trkpt lat="43.4395" lon="-0.3554">
        <ele>185.2</ele>
        <time>2026-08-31T11:22:08Z</time>
      </trkpt>
      <trkpt lat="43.43951" lon="-0.35541">
        <ele>185.2</ele>
        <time>2026-08-31T11:22:08Z</time>
      </trkpt>
      <trkpt lat="43.43951" lon="-0.35542">
        <ele>185.2</ele>
        <time>2026-08-31T11:22:09Z</time>
      </trkpt>
      <trkpt lat="43.43951" lon="-0.35542">
        <ele>185.2</ele>
        <time>2026-08-31T11:22:09Z</time>
      </trkpt>
      <trkpt lat="43.43951" lon="-0.35543">
        <ele>184.2</ele>
        <time>2026-08-31T11:22:10Z</time>
      </trkpt>
      <trkpt lat="43.43951" lon="-0.35544">
        <ele>184.2</ele>
        <time>2026-08-31T11:22:10Z</time>
      </trkpt>
      <trkpt lat="43.43952" lon="-0.35545">
        <ele>184.2</ele>
        <time>2026-08-31T11:22:11Z</time>
      </trkpt>
      <trkpt lat="43.43952" lon="-0.35545">
        <ele>184.2</ele>
        <time>2026-08-31T11:22:11Z</time>
      </trkpt>
      <trkpt lat="43.43952" lon="-0.35546">
        <ele>184.2</ele>
        <time>2026-08-31T11:22:12Z</time>
      </trkpt>
      <trkpt lat="43.43953" lon="-0.35547">
        <ele>184.2</ele>
        <time>2026-08-31T11:22:12Z</time>
      </trkpt>
      <trkpt lat="43.43953" lon="-0.35547">
        <ele>184.2</ele>
        <time>2026-08-31T11:22:13Z</time>
      </trkpt>
      <trkpt lat="43.43954" lon="-0.35548">
        <ele>184.2</ele>
        <time>2026-08-31T11:22:13Z</time>
      </trkpt>
      <trkpt lat="43.43954" lon="-0.35548">
        <ele>184.2</ele>
        <time>2026-08-31T11:22:14Z</time>
      </trkpt>
      <trkpt lat="43.43954" lon="-0.35549">
        <ele>185.2</ele>
        <time>2026-08-31T11:22:15Z</time>
      </trkpt>
      <trkpt lat="43.43955" lon="-0.3555">
        <ele>184.2</ele>
        <time>2026-08-31T11:22:16Z</time>
      </trkpt>
      <trkpt lat="43.43955" lon="-0.3555">
        <ele>185.2</ele>
        <time>2026-08-31T11:22:17Z</time>
      </trkpt>
      <trkpt lat="43.43956" lon="-0.3555">
        <ele>185.2</ele>
        <time>2026-08-31T11:22:18Z</time>
      </trkpt>
      <trkpt lat="43.43956" lon="-0.3555">
        <ele>185.2</ele>
        <time>2026-08-31T11:22:19Z</time>
      </trkpt>
      <trkpt lat="43.43956" lon="-0.3555">
        <ele>185.2</ele>
        <time>2026-08-31T11:22:19Z</time>
      </trkpt>
      <trkpt lat="43.43956" lon="-0.3555">
        <ele>185.2</ele>
        <time>2026-08-31T11:22:20Z</time>
      </trkpt>
      <trkpt lat="43.43956" lon="-0.35549">
        <ele>185.2</ele>
        <time>2026-08-31T11:22:21Z</time>
      </trkpt>
      <trkpt lat="43.43956" lon="-0.3555">
        <ele>185.2</ele>
        <time>2026-08-31T11:22:22Z</time>
      </trkpt>
      <trkpt lat="43.43956" lon="-0.3555">
        <ele>184.2</ele>
        <time>2026-08-31T11:22:22Z</time>
      </trkpt>
      <trkpt lat="43.43956" lon="-0.3555">
        <ele>184.2</ele>
        <time>2026-08-31T11:22:23Z</time>
      </trkpt>
      <trkpt lat="43.43956" lon="-0.35551">
        <ele>185.2</ele>
        <time>2026-08-31T11:22:23Z</time>
      </trkpt>
      <trkpt lat="43.43957" lon="-0.35553">
        <ele>184.2</ele>
        <time>2026-08-31T11:22:24Z</time>
      </trkpt>
      <trkpt lat="43.43958" lon="-0.35555">
        <ele>184.2</ele>
        <time>2026-08-31T11:22:24Z</time>
      </trkpt>
      <trkpt lat="43.43959" lon="-0.35558">
        <ele>184.2</ele>
        <time>2026-08-31T11:22:25Z</time>
      </trkpt>
      <trkpt lat="43.43959" lon="-0.35559">
        <ele>184.2</ele>
        <time>2026-08-31T11:22:25Z</time>
      </trkpt>
      <trkpt lat="43.4396" lon="-0.35561">
        <ele>183.2</ele>
        <time>2026-08-31T11:22:26Z</time>
      </trkpt>
      <trkpt lat="43.4396" lon="-0.35561">
        <ele>183.2</ele>
        <time>2026-08-31T11:22:27Z</time>
      </trkpt>
      <trkpt lat="43.43961" lon="-0.35562">
        <ele>184.2</ele>
        <time>2026-08-31T11:22:27Z</time>
      </trkpt>
      <trkpt lat="43.43962" lon="-0.35563">
        <ele>184.2</ele>
        <time>2026-08-31T11:22:28Z</time>
      </trkpt>
      <trkpt lat="43.43962" lon="-0.35564">
        <ele>183.2</ele>
        <time>2026-08-31T11:22:28Z</time>
      </trkpt>
      <trkpt lat="43.43963" lon="-0.35565">
        <ele>183.2</ele>
        <time>2026-08-31T11:22:29Z</time>
      </trkpt>
      <trkpt lat="43.43964" lon="-0.35565">
        <ele>183.2</ele>
        <time>2026-08-31T11:22:29Z</time>
      </trkpt>
      <trkpt lat="43.43964" lon="-0.35566">
        <ele>182.2</ele>
        <time>2026-08-31T11:22:30Z</time>
      </trkpt>
      <trkpt lat="43.43965" lon="-0.35566">
        <ele>182.2</ele>
        <time>2026-08-31T11:22:30Z</time>
      </trkpt>
      <trkpt lat="43.43966" lon="-0.35566">
        <ele>182.2</ele>
        <time>2026-08-31T11:22:31Z</time>
      </trkpt>
      <trkpt lat="43.43967" lon="-0.35566">
        <ele>182.2</ele>
        <time>2026-08-31T11:22:31Z</time>
      </trkpt>
      <trkpt lat="43.43967" lon="-0.35567">
        <ele>182.2</ele>
        <time>2026-08-31T11:22:32Z</time>
      </trkpt>
      <trkpt lat="43.43968" lon="-0.35567">
        <ele>182.2</ele>
        <time>2026-08-31T11:22:32Z</time>
      </trkpt>
      <trkpt lat="43.43969" lon="-0.35567">
        <ele>182.2</ele>
        <time>2026-08-31T11:22:33Z</time>
      </trkpt>
      <trkpt lat="43.43969" lon="-0.35567">
        <ele>182.2</ele>
        <time>2026-08-31T11:22:33Z</time>
      </trkpt>
      <trkpt lat="43.4397" lon="-0.35568">
        <ele>182.2</ele>
        <time>2026-08-31T11:22:34Z</time>
      </trkpt>
      <trkpt lat="43.4397" lon="-0.35568">
        <ele>183.2</ele>
        <time>2026-08-31T11:22:35Z</time>
      </trkpt>
      <trkpt lat="43.43971" lon="-0.35569">
        <ele>183.2</ele>
        <time>2026-08-31T11:22:35Z</time>
      </trkpt>
      <trkpt lat="43.43972" lon="-0.3557">
        <ele>183.2</ele>
        <time>2026-08-31T11:22:36Z</time>
      </trkpt>
      <trkpt lat="43.43972" lon="-0.35571">
        <ele>183.2</ele>
        <time>2026-08-31T11:22:37Z</time>
      </trkpt>
      <trkpt lat="43.43973" lon="-0.35571">
        <ele>183.2</ele>
        <time>2026-08-31T11:22:37Z</time>
      </trkpt>
      <trkpt lat="43.43973" lon="-0.35572">
        <ele>183.2</ele>
        <time>2026-08-31T11:22:38Z</time>
      </trkpt>
      <trkpt lat="43.43974" lon="-0.35573">
        <ele>183.2</ele>
        <time>2026-08-31T11:22:39Z</time>
      </trkpt>
      <trkpt lat="43.43974" lon="-0.35574">
        <ele>183.2</ele>
        <time>2026-08-31T11:22:39Z</time>
      </trkpt>
      <trkpt lat="43.43975" lon="-0.35574">
        <ele>183.2</ele>
        <time>2026-08-31T11:22:40Z</time>
      </trkpt>
      <trkpt lat="43.43976" lon="-0.35575">
        <ele>183.2</ele>
        <time>2026-08-31T11:22:41Z</time>
      </trkpt>
      <trkpt lat="43.43977" lon="-0.35577">
        <ele>183.2</ele>
        <time>2026-08-31T11:22:42Z</time>
      </trkpt>
      <trkpt lat="43.43978" lon="-0.35578">
        <ele>183.2</ele>
        <time>2026-08-31T11:22:43Z</time>
      </trkpt>
      <trkpt lat="43.43978" lon="-0.35578">
        <ele>183.2</ele>
        <time>2026-08-31T11:22:43Z</time>
      </trkpt>
      <trkpt lat="43.43979" lon="-0.35579">
        <ele>183.2</ele>
        <time>2026-08-31T11:22:44Z</time>
      </trkpt>
      <trkpt lat="43.43979" lon="-0.35579">
        <ele>183.2</ele>
        <time>2026-08-31T11:22:44Z</time>
      </trkpt>
      <trkpt lat="43.4398" lon="-0.3558">
        <ele>183.2</ele>
        <time>2026-08-31T11:22:45Z</time>
      </trkpt>
      <trkpt lat="43.4398" lon="-0.3558">
        <ele>183.2</ele>
        <time>2026-08-31T11:22:45Z</time>
      </trkpt>
      <trkpt lat="43.43981" lon="-0.35581">
        <ele>183.2</ele>
        <time>2026-08-31T11:22:46Z</time>
      </trkpt>
      <trkpt lat="43.43981" lon="-0.35582">
        <ele>183.2</ele>
        <time>2026-08-31T11:22:46Z</time>
      </trkpt>
      <trkpt lat="43.43982" lon="-0.35582">
        <ele>183.2</ele>
        <time>2026-08-31T11:22:47Z</time>
      </trkpt>
      <trkpt lat="43.43982" lon="-0.35583">
        <ele>183.2</ele>
        <time>2026-08-31T11:22:47Z</time>
      </trkpt>
      <trkpt lat="43.43983" lon="-0.35584">
        <ele>184.2</ele>
        <time>2026-08-31T11:22:48Z</time>
      </trkpt>
      <trkpt lat="43.43983" lon="-0.35585">
        <ele>184.2</ele>
        <time>2026-08-31T11:22:48Z</time>
      </trkpt>
      <trkpt lat="43.43984" lon="-0.35586">
        <ele>184.2</ele>
        <time>2026-08-31T11:22:49Z</time>
      </trkpt>
      <trkpt lat="43.43984" lon="-0.35587">
        <ele>184.2</ele>
        <time>2026-08-31T11:22:50Z</time>
      </trkpt>
      <trkpt lat="43.43984" lon="-0.35589">
        <ele>184.2</ele>
        <time>2026-08-31T11:22:51Z</time>
      </trkpt>
      <trkpt lat="43.43985" lon="-0.3559">
        <ele>185.2</ele>
        <time>2026-08-31T11:22:51Z</time>
      </trkpt>
      <trkpt lat="43.43985" lon="-0.35591">
        <ele>185.2</ele>
        <time>2026-08-31T11:22:52Z</time>
      </trkpt>
      <trkpt lat="43.43985" lon="-0.35592">
        <ele>185.2</ele>
        <time>2026-08-31T11:22:52Z</time>
      </trkpt>
      <trkpt lat="43.43985" lon="-0.35594">
        <ele>186.2</ele>
        <time>2026-08-31T11:22:53Z</time>
      </trkpt>
      <trkpt lat="43.43986" lon="-0.35595">
        <ele>186.2</ele>
        <time>2026-08-31T11:22:54Z</time>
      </trkpt>
      <trkpt lat="43.43986" lon="-0.35596">
        <ele>186.2</ele>
        <time>2026-08-31T11:22:54Z</time>
      </trkpt>
      <trkpt lat="43.43986" lon="-0.35597">
        <ele>186.2</ele>
        <time>2026-08-31T11:22:55Z</time>
      </trkpt>
      <trkpt lat="43.43986" lon="-0.35599">
        <ele>186.2</ele>
        <time>2026-08-31T11:22:56Z</time>
      </trkpt>
      <trkpt lat="43.43986" lon="-0.35601">
        <ele>186.2</ele>
        <time>2026-08-31T11:22:57Z</time>
      </trkpt>
      <trkpt lat="43.43987" lon="-0.35603">
        <ele>186.2</ele>
        <time>2026-08-31T11:22:58Z</time>
      </trkpt>
      <trkpt lat="43.43987" lon="-0.35604">
        <ele>186.2</ele>
        <time>2026-08-31T11:22:59Z</time>
      </trkpt>
      <trkpt lat="43.43987" lon="-0.35605">
        <ele>186.2</ele>
        <time>2026-08-31T11:23:00Z</time>
      </trkpt>
      <trkpt lat="43.43987" lon="-0.35606">
        <ele>186.2</ele>
        <time>2026-08-31T11:23:01Z</time>
      </trkpt>
      <trkpt lat="43.43987" lon="-0.35607">
        <ele>186.2</ele>
        <time>2026-08-31T11:23:01Z</time>
      </trkpt>
      <trkpt lat="43.43987" lon="-0.35608">
        <ele>186.2</ele>
        <time>2026-08-31T11:23:02Z</time>
      </trkpt>
      <trkpt lat="43.43987" lon="-0.35609">
        <ele>186.2</ele>
        <time>2026-08-31T11:23:02Z</time>
      </trkpt>
      <trkpt lat="43.43988" lon="-0.35609">
        <ele>185.2</ele>
        <time>2026-08-31T11:23:03Z</time>
      </trkpt>
      <trkpt lat="43.43988" lon="-0.3561">
        <ele>185.2</ele>
        <time>2026-08-31T11:23:04Z</time>
      </trkpt>
      <trkpt lat="43.43988" lon="-0.35611">
        <ele>185.2</ele>
        <time>2026-08-31T11:23:04Z</time>
      </trkpt>
      <trkpt lat="43.43988" lon="-0.35611">
        <ele>185.2</ele>
        <time>2026-08-31T11:23:05Z</time>
      </trkpt>
      <trkpt lat="43.43988" lon="-0.35612">
        <ele>185.2</ele>
        <time>2026-08-31T11:23:05Z</time>
      </trkpt>
      <trkpt lat="43.43989" lon="-0.35612">
        <ele>185.2</ele>
        <time>2026-08-31T11:23:06Z</time>
      </trkpt>
      <trkpt lat="43.43989" lon="-0.35613">
        <ele>185.2</ele>
        <time>2026-08-31T11:23:07Z</time>
      </trkpt>
      <trkpt lat="43.43989" lon="-0.35614">
        <ele>186.2</ele>
        <time>2026-08-31T11:23:07Z</time>
      </trkpt>
      <trkpt lat="43.43989" lon="-0.35614">
        <ele>186.2</ele>
        <time>2026-08-31T11:23:08Z</time>
      </trkpt>
      <trkpt lat="43.43989" lon="-0.35615">
        <ele>186.2</ele>
        <time>2026-08-31T11:23:09Z</time>
      </trkpt>
      <trkpt lat="43.43989" lon="-0.35615">
        <ele>185.2</ele>
        <time>2026-08-31T11:23:09Z</time>
      </trkpt>
      <trkpt lat="43.43989" lon="-0.35616">
        <ele>185.2</ele>
        <time>2026-08-31T11:23:10Z</time>
      </trkpt>
      <trkpt lat="43.43989" lon="-0.35617">
        <ele>185.2</ele>
        <time>2026-08-31T11:23:10Z</time>
      </trkpt>
      <trkpt lat="43.43989" lon="-0.35618">
        <ele>185.2</ele>
        <time>2026-08-31T11:23:11Z</time>
      </trkpt>
      <trkpt lat="43.43988" lon="-0.35619">
        <ele>185.2</ele>
        <time>2026-08-31T11:23:12Z</time>
      </trkpt>
      <trkpt lat="43.43988" lon="-0.35619">
        <ele>185.2</ele>
        <time>2026-08-31T11:23:12Z</time>
      </trkpt>
      <trkpt lat="43.43988" lon="-0.3562">
        <ele>185.2</ele>
        <time>2026-08-31T11:23:13Z</time>
      </trkpt>
      <trkpt lat="43.43988" lon="-0.35621">
        <ele>185.2</ele>
        <time>2026-08-31T11:23:13Z</time>
      </trkpt>
      <trkpt lat="43.43988" lon="-0.35622">
        <ele>185.2</ele>
        <time>2026-08-31T11:23:14Z</time>
      </trkpt>
      <trkpt lat="43.43989" lon="-0.35622">
        <ele>185.2</ele>
        <time>2026-08-31T11:23:15Z</time>
      </trkpt>
      <trkpt lat="43.43989" lon="-0.35623">
        <ele>185.2</ele>
        <time>2026-08-31T11:23:15Z</time>
      </trkpt>
      <trkpt lat="43.4399" lon="-0.35624">
        <ele>186.2</ele>
        <time>2026-08-31T11:23:16Z</time>
      </trkpt>
      <trkpt lat="43.4399" lon="-0.35625">
        <ele>186.2</ele>
        <time>2026-08-31T11:23:16Z</time>
      </trkpt>
      <trkpt lat="43.43991" lon="-0.35625">
        <ele>186.2</ele>
        <time>2026-08-31T11:23:17Z</time>
      </trkpt>
      <trkpt lat="43.43992" lon="-0.35626">
        <ele>186.2</ele>
        <time>2026-08-31T11:23:17Z</time>
      </trkpt>
      <trkpt lat="43.43992" lon="-0.35626">
        <ele>186.2</ele>
        <time>2026-08-31T11:23:18Z</time>
      </trkpt>
      <trkpt lat="43.43993" lon="-0.35627">
        <ele>186.2</ele>
        <time>2026-08-31T11:23:18Z</time>
      </trkpt>
      <trkpt lat="43.43993" lon="-0.35628">
        <ele>186.2</ele>
        <time>2026-08-31T11:23:19Z</time>
      </trkpt>
      <trkpt lat="43.43994" lon="-0.35628">
        <ele>186.2</ele>
        <time>2026-08-31T11:23:20Z</time>
      </trkpt>
      <trkpt lat="43.43995" lon="-0.35628">
        <ele>186.2</ele>
        <time>2026-08-31T11:23:20Z</time>
      </trkpt>
      <trkpt lat="43.43995" lon="-0.35629">
        <ele>186.2</ele>
        <time>2026-08-31T11:23:21Z</time>
      </trkpt>
      <trkpt lat="43.43996" lon="-0.35629">
        <ele>187.2</ele>
        <time>2026-08-31T11:23:21Z</time>
      </trkpt>
      <trkpt lat="43.43997" lon="-0.35629">
        <ele>187.2</ele>
        <time>2026-08-31T11:23:22Z</time>
      </trkpt>
      <trkpt lat="43.43997" lon="-0.3563">
        <ele>187.2</ele>
        <time>2026-08-31T11:23:22Z</time>
      </trkpt>
      <trkpt lat="43.43998" lon="-0.3563">
        <ele>187.2</ele>
        <time>2026-08-31T11:23:23Z</time>
      </trkpt>
      <trkpt lat="43.43998" lon="-0.35631">
        <ele>187.2</ele>
        <time>2026-08-31T11:23:23Z</time>
      </trkpt>
      <trkpt lat="43.43999" lon="-0.35631">
        <ele>187.2</ele>
        <time>2026-08-31T11:23:24Z</time>
      </trkpt>
      <trkpt lat="43.44" lon="-0.35632">
        <ele>187.2</ele>
        <time>2026-08-31T11:23:25Z</time>
      </trkpt>
      <trkpt lat="43.44" lon="-0.35632">
        <ele>187.2</ele>
        <time>2026-08-31T11:23:25Z</time>
      </trkpt>
      <trkpt lat="43.44001" lon="-0.35633">
        <ele>187.2</ele>
        <time>2026-08-31T11:23:26Z</time>
      </trkpt>
      <trkpt lat="43.44001" lon="-0.35633">
        <ele>187.2</ele>
        <time>2026-08-31T11:23:26Z</time>
      </trkpt>
      <trkpt lat="43.44002" lon="-0.35634">
        <ele>187.2</ele>
        <time>2026-08-31T11:23:27Z</time>
      </trkpt>
      <trkpt lat="43.44002" lon="-0.35634">
        <ele>186.2</ele>
        <time>2026-08-31T11:23:27Z</time>
      </trkpt>
      <trkpt lat="43.44002" lon="-0.35635">
        <ele>186.2</ele>
        <time>2026-08-31T11:23:28Z</time>
      </trkpt>
      <trkpt lat="43.44003" lon="-0.35635">
        <ele>186.2</ele>
        <time>2026-08-31T11:23:28Z</time>
      </trkpt>
      <trkpt lat="43.44003" lon="-0.35636">
        <ele>186.2</ele>
        <time>2026-08-31T11:23:29Z</time>
      </trkpt>
      <trkpt lat="43.44004" lon="-0.35637">
        <ele>186.2</ele>
        <time>2026-08-31T11:23:29Z</time>
      </trkpt>
      <trkpt lat="43.44004" lon="-0.35637">
        <ele>186.2</ele>
        <time>2026-08-31T11:23:30Z</time>
      </trkpt>
      <trkpt lat="43.44004" lon="-0.35638">
        <ele>186.2</ele>
        <time>2026-08-31T11:23:30Z</time>
      </trkpt>
      <trkpt lat="43.44005" lon="-0.35639">
        <ele>186.2</ele>
        <time>2026-08-31T11:23:31Z</time>
      </trkpt>
      <trkpt lat="43.44005" lon="-0.35639">
        <ele>186.2</ele>
        <time>2026-08-31T11:23:32Z</time>
      </trkpt>
      <trkpt lat="43.44006" lon="-0.3564">
        <ele>186.2</ele>
        <time>2026-08-31T11:23:32Z</time>
      </trkpt>
      <trkpt lat="43.44006" lon="-0.3564">
        <ele>186.2</ele>
        <time>2026-08-31T11:23:33Z</time>
      </trkpt>
      <trkpt lat="43.44007" lon="-0.35641">
        <ele>186.2</ele>
        <time>2026-08-31T11:23:33Z</time>
      </trkpt>
      <trkpt lat="43.44007" lon="-0.35642">
        <ele>186.2</ele>
        <time>2026-08-31T11:23:34Z</time>
      </trkpt>
      <trkpt lat="43.44007" lon="-0.35642">
        <ele>186.2</ele>
        <time>2026-08-31T11:23:34Z</time>
      </trkpt>
      <trkpt lat="43.44008" lon="-0.35643">
        <ele>187.2</ele>
        <time>2026-08-31T11:23:35Z</time>
      </trkpt>
      <trkpt lat="43.44008" lon="-0.35644">
        <ele>187.2</ele>
        <time>2026-08-31T11:23:35Z</time>
      </trkpt>
      <trkpt lat="43.44008" lon="-0.35645">
        <ele>186.2</ele>
        <time>2026-08-31T11:23:36Z</time>
      </trkpt>
      <trkpt lat="43.44009" lon="-0.35646">
        <ele>186.2</ele>
        <time>2026-08-31T11:23:36Z</time>
      </trkpt>
      <trkpt lat="43.44009" lon="-0.35646">
        <ele>186.2</ele>
        <time>2026-08-31T11:23:37Z</time>
      </trkpt>
      <trkpt lat="43.44009" lon="-0.35647">
        <ele>186.2</ele>
        <time>2026-08-31T11:23:38Z</time>
      </trkpt>
      <trkpt lat="43.4401" lon="-0.35648">
        <ele>187.2</ele>
        <time>2026-08-31T11:23:38Z</time>
      </trkpt>
      <trkpt lat="43.4401" lon="-0.35649">
        <ele>187.2</ele>
        <time>2026-08-31T11:23:39Z</time>
      </trkpt>
      <trkpt lat="43.44011" lon="-0.35649">
        <ele>187.2</ele>
        <time>2026-08-31T11:23:39Z</time>
      </trkpt>
      <trkpt lat="43.44011" lon="-0.3565">
        <ele>187.2</ele>
        <time>2026-08-31T11:23:40Z</time>
      </trkpt>
      <trkpt lat="43.44012" lon="-0.35651">
        <ele>187.2</ele>
        <time>2026-08-31T11:23:40Z</time>
      </trkpt>
      <trkpt lat="43.44012" lon="-0.35652">
        <ele>188.2</ele>
        <time>2026-08-31T11:23:41Z</time>
      </trkpt>
      <trkpt lat="43.44013" lon="-0.35652">
        <ele>188.2</ele>
        <time>2026-08-31T11:23:41Z</time>
      </trkpt>
      <trkpt lat="43.44013" lon="-0.35653">
        <ele>187.2</ele>
        <time>2026-08-31T11:23:42Z</time>
      </trkpt>
      <trkpt lat="43.44014" lon="-0.35654">
        <ele>187.2</ele>
        <time>2026-08-31T11:23:42Z</time>
      </trkpt>
      <trkpt lat="43.44015" lon="-0.35655">
        <ele>187.2</ele>
        <time>2026-08-31T11:23:43Z</time>
      </trkpt>
      <trkpt lat="43.44015" lon="-0.35655">
        <ele>187.2</ele>
        <time>2026-08-31T11:23:44Z</time>
      </trkpt>
      <trkpt lat="43.44016" lon="-0.35656">
        <ele>187.2</ele>
        <time>2026-08-31T11:23:44Z</time>
      </trkpt>
      <trkpt lat="43.44016" lon="-0.35656">
        <ele>187.2</ele>
        <time>2026-08-31T11:23:45Z</time>
      </trkpt>
      <trkpt lat="43.44017" lon="-0.35657">
        <ele>187.2</ele>
        <time>2026-08-31T11:23:45Z</time>
      </trkpt>
      <trkpt lat="43.44018" lon="-0.35658">
        <ele>187.2</ele>
        <time>2026-08-31T11:23:46Z</time>
      </trkpt>
      <trkpt lat="43.44018" lon="-0.35658">
        <ele>187.2</ele>
        <time>2026-08-31T11:23:46Z</time>
      </trkpt>
      <trkpt lat="43.44019" lon="-0.35659">
        <ele>186.2</ele>
        <time>2026-08-31T11:23:47Z</time>
      </trkpt>
      <trkpt lat="43.44019" lon="-0.35659">
        <ele>186.2</ele>
        <time>2026-08-31T11:23:47Z</time>
      </trkpt>
      <trkpt lat="43.4402" lon="-0.3566">
        <ele>186.2</ele>
        <time>2026-08-31T11:23:48Z</time>
      </trkpt>
      <trkpt lat="43.4402" lon="-0.35661">
        <ele>186.2</ele>
        <time>2026-08-31T11:23:48Z</time>
      </trkpt>
      <trkpt lat="43.44021" lon="-0.35661">
        <ele>186.2</ele>
        <time>2026-08-31T11:23:49Z</time>
      </trkpt>
      <trkpt lat="43.44022" lon="-0.35662">
        <ele>186.2</ele>
        <time>2026-08-31T11:23:50Z</time>
      </trkpt>
      <trkpt lat="43.44022" lon="-0.35662">
        <ele>186.2</ele>
        <time>2026-08-31T11:23:50Z</time>
      </trkpt>
      <trkpt lat="43.44023" lon="-0.35663">
        <ele>186.2</ele>
        <time>2026-08-31T11:23:51Z</time>
      </trkpt>
      <trkpt lat="43.44023" lon="-0.35663">
        <ele>186.2</ele>
        <time>2026-08-31T11:23:51Z</time>
      </trkpt>
      <trkpt lat="43.44024" lon="-0.35664">
        <ele>186.2</ele>
        <time>2026-08-31T11:23:52Z</time>
      </trkpt>
      <trkpt lat="43.44025" lon="-0.35664">
        <ele>186.2</ele>
        <time>2026-08-31T11:23:52Z</time>
      </trkpt>
      <trkpt lat="43.44025" lon="-0.35665">
        <ele>185.2</ele>
        <time>2026-08-31T11:23:53Z</time>
      </trkpt>
      <trkpt lat="43.44026" lon="-0.35665">
        <ele>185.2</ele>
        <time>2026-08-31T11:23:53Z</time>
      </trkpt>
      <trkpt lat="43.44026" lon="-0.35666">
        <ele>185.2</ele>
        <time>2026-08-31T11:23:54Z</time>
      </trkpt>
      <trkpt lat="43.44027" lon="-0.35666">
        <ele>185.2</ele>
        <time>2026-08-31T11:23:54Z</time>
      </trkpt>
      <trkpt lat="43.44027" lon="-0.35667">
        <ele>185.2</ele>
        <time>2026-08-31T11:23:55Z</time>
      </trkpt>
      <trkpt lat="43.44028" lon="-0.35667">
        <ele>185.2</ele>
        <time>2026-08-31T11:23:55Z</time>
      </trkpt>
      <trkpt lat="43.44029" lon="-0.35668">
        <ele>186.2</ele>
        <time>2026-08-31T11:23:56Z</time>
      </trkpt>
      <trkpt lat="43.44029" lon="-0.35668">
        <ele>186.2</ele>
        <time>2026-08-31T11:23:56Z</time>
      </trkpt>
      <trkpt lat="43.44029" lon="-0.35669">
        <ele>186.2</ele>
        <time>2026-08-31T11:23:57Z</time>
      </trkpt>
      <trkpt lat="43.4403" lon="-0.35669">
        <ele>186.2</ele>
        <time>2026-08-31T11:23:58Z</time>
      </trkpt>
      <trkpt lat="43.44031" lon="-0.3567">
        <ele>186.2</ele>
        <time>2026-08-31T11:23:58Z</time>
      </trkpt>
      <trkpt lat="43.44031" lon="-0.3567">
        <ele>186.2</ele>
        <time>2026-08-31T11:23:59Z</time>
      </trkpt>
      <trkpt lat="43.44031" lon="-0.35671">
        <ele>186.2</ele>
        <time>2026-08-31T11:23:59Z</time>
      </trkpt>
      <trkpt lat="43.44032" lon="-0.35672">
        <ele>186.2</ele>
        <time>2026-08-31T11:24:00Z</time>
      </trkpt>
      <trkpt lat="43.44032" lon="-0.35672">
        <ele>186.2</ele>
        <time>2026-08-31T11:24:00Z</time>
      </trkpt>
      <trkpt lat="43.44033" lon="-0.35673">
        <ele>185.2</ele>
        <time>2026-08-31T11:24:01Z</time>
      </trkpt>
      <trkpt lat="43.44033" lon="-0.35673">
        <ele>185.2</ele>
        <time>2026-08-31T11:24:01Z</time>
      </trkpt>
      <trkpt lat="43.44034" lon="-0.35674">
        <ele>185.2</ele>
        <time>2026-08-31T11:24:02Z</time>
      </trkpt>
      <trkpt lat="43.44034" lon="-0.35674">
        <ele>185.2</ele>
        <time>2026-08-31T11:24:03Z</time>
      </trkpt>
      <trkpt lat="43.44035" lon="-0.35675">
        <ele>185.2</ele>
        <time>2026-08-31T11:24:03Z</time>
      </trkpt>
      <trkpt lat="43.44035" lon="-0.35676">
        <ele>185.2</ele>
        <time>2026-08-31T11:24:04Z</time>
      </trkpt>
      <trkpt lat="43.44035" lon="-0.35676">
        <ele>185.2</ele>
        <time>2026-08-31T11:24:04Z</time>
      </trkpt>
      <trkpt lat="43.44036" lon="-0.35677">
        <ele>185.2</ele>
        <time>2026-08-31T11:24:05Z</time>
      </trkpt>
      <trkpt lat="43.44036" lon="-0.35678">
        <ele>185.2</ele>
        <time>2026-08-31T11:24:05Z</time>
      </trkpt>
      <trkpt lat="43.44037" lon="-0.35679">
        <ele>185.2</ele>
        <time>2026-08-31T11:24:06Z</time>
      </trkpt>
      <trkpt lat="43.44038" lon="-0.35679">
        <ele>185.2</ele>
        <time>2026-08-31T11:24:06Z</time>
      </trkpt>
      <trkpt lat="43.44038" lon="-0.3568">
        <ele>186.2</ele>
        <time>2026-08-31T11:24:07Z</time>
      </trkpt>
      <trkpt lat="43.44039" lon="-0.35681">
        <ele>186.2</ele>
        <time>2026-08-31T11:24:07Z</time>
      </trkpt>
      <trkpt lat="43.44039" lon="-0.35682">
        <ele>186.2</ele>
        <time>2026-08-31T11:24:08Z</time>
      </trkpt>
      <trkpt lat="43.4404" lon="-0.35682">
        <ele>186.2</ele>
        <time>2026-08-31T11:24:08Z</time>
      </trkpt>
      <trkpt lat="43.4404" lon="-0.35683">
        <ele>185.2</ele>
        <time>2026-08-31T11:24:09Z</time>
      </trkpt>
      <trkpt lat="43.44041" lon="-0.35684">
        <ele>185.2</ele>
        <time>2026-08-31T11:24:10Z</time>
      </trkpt>
      <trkpt lat="43.44041" lon="-0.35684">
        <ele>185.2</ele>
        <time>2026-08-31T11:24:10Z</time>
      </trkpt>
      <trkpt lat="43.44042" lon="-0.35685">
        <ele>185.2</ele>
        <time>2026-08-31T11:24:11Z</time>
      </trkpt>
      <trkpt lat="43.44042" lon="-0.35686">
        <ele>185.2</ele>
        <time>2026-08-31T11:24:11Z</time>
      </trkpt>
      <trkpt lat="43.44043" lon="-0.35687">
        <ele>185.2</ele>
        <time>2026-08-31T11:24:12Z</time>
      </trkpt>
      <trkpt lat="43.44043" lon="-0.35687">
        <ele>185.2</ele>
        <time>2026-08-31T11:24:12Z</time>
      </trkpt>
      <trkpt lat="43.44044" lon="-0.35688">
        <ele>184.2</ele>
        <time>2026-08-31T11:24:13Z</time>
      </trkpt>
      <trkpt lat="43.44044" lon="-0.35689">
        <ele>184.2</ele>
        <time>2026-08-31T11:24:13Z</time>
      </trkpt>
      <trkpt lat="43.44045" lon="-0.3569">
        <ele>184.2</ele>
        <time>2026-08-31T11:24:14Z</time>
      </trkpt>
      <trkpt lat="43.44045" lon="-0.3569">
        <ele>184.2</ele>
        <time>2026-08-31T11:24:14Z</time>
      </trkpt>
      <trkpt lat="43.44046" lon="-0.35691">
        <ele>185.2</ele>
        <time>2026-08-31T11:24:15Z</time>
      </trkpt>
      <trkpt lat="43.44046" lon="-0.35692">
        <ele>185.2</ele>
        <time>2026-08-31T11:24:16Z</time>
      </trkpt>
      <trkpt lat="43.44047" lon="-0.35693">
        <ele>185.2</ele>
        <time>2026-08-31T11:24:16Z</time>
      </trkpt>
      <trkpt lat="43.44047" lon="-0.35693">
        <ele>185.2</ele>
        <time>2026-08-31T11:24:17Z</time>
      </trkpt>
      <trkpt lat="43.44048" lon="-0.35694">
        <ele>185.2</ele>
        <time>2026-08-31T11:24:17Z</time>
      </trkpt>
      <trkpt lat="43.44048" lon="-0.35695">
        <ele>185.2</ele>
        <time>2026-08-31T11:24:18Z</time>
      </trkpt>
      <trkpt lat="43.44049" lon="-0.35695">
        <ele>184.2</ele>
        <time>2026-08-31T11:24:18Z</time>
      </trkpt>
      <trkpt lat="43.44049" lon="-0.35696">
        <ele>184.2</ele>
        <time>2026-08-31T11:24:19Z</time>
      </trkpt>
      <trkpt lat="43.4405" lon="-0.35697">
        <ele>184.2</ele>
        <time>2026-08-31T11:24:19Z</time>
      </trkpt>
      <trkpt lat="43.4405" lon="-0.35698">
        <ele>184.2</ele>
        <time>2026-08-31T11:24:20Z</time>
      </trkpt>
      <trkpt lat="43.44051" lon="-0.35699">
        <ele>184.2</ele>
        <time>2026-08-31T11:24:21Z</time>
      </trkpt>
      <trkpt lat="43.44051" lon="-0.357">
        <ele>184.2</ele>
        <time>2026-08-31T11:24:21Z</time>
      </trkpt>
      <trkpt lat="43.44052" lon="-0.357">
        <ele>184.2</ele>
        <time>2026-08-31T11:24:22Z</time>
      </trkpt>
      <trkpt lat="43.44052" lon="-0.35701">
        <ele>184.2</ele>
        <time>2026-08-31T11:24:22Z</time>
      </trkpt>
      <trkpt lat="43.44052" lon="-0.35702">
        <ele>184.2</ele>
        <time>2026-08-31T11:24:23Z</time>
      </trkpt>
      <trkpt lat="43.44053" lon="-0.35703">
        <ele>184.2</ele>
        <time>2026-08-31T11:24:24Z</time>
      </trkpt>
      <trkpt lat="43.44053" lon="-0.35703">
        <ele>184.2</ele>
        <time>2026-08-31T11:24:24Z</time>
      </trkpt>
      <trkpt lat="43.44054" lon="-0.35704">
        <ele>184.2</ele>
        <time>2026-08-31T11:24:25Z</time>
      </trkpt>
      <trkpt lat="43.44055" lon="-0.35705">
        <ele>184.2</ele>
        <time>2026-08-31T11:24:25Z</time>
      </trkpt>
      <trkpt lat="43.44055" lon="-0.35705">
        <ele>184.2</ele>
        <time>2026-08-31T11:24:26Z</time>
      </trkpt>
      <trkpt lat="43.44056" lon="-0.35706">
        <ele>184.2</ele>
        <time>2026-08-31T11:24:26Z</time>
      </trkpt>
      <trkpt lat="43.44056" lon="-0.35707">
        <ele>184.2</ele>
        <time>2026-08-31T11:24:27Z</time>
      </trkpt>
      <trkpt lat="43.44057" lon="-0.35707">
        <ele>184.2</ele>
        <time>2026-08-31T11:24:27Z</time>
      </trkpt>
      <trkpt lat="43.44057" lon="-0.35708">
        <ele>184.2</ele>
        <time>2026-08-31T11:24:28Z</time>
      </trkpt>
      <trkpt lat="43.44058" lon="-0.35708">
        <ele>184.2</ele>
        <time>2026-08-31T11:24:28Z</time>
      </trkpt>
      <trkpt lat="43.44059" lon="-0.3571">
        <ele>184.2</ele>
        <time>2026-08-31T11:24:30Z</time>
      </trkpt>
      <trkpt lat="43.44059" lon="-0.3571">
        <ele>184.2</ele>
        <time>2026-08-31T11:24:30Z</time>
      </trkpt>
      <trkpt lat="43.4406" lon="-0.35711">
        <ele>184.2</ele>
        <time>2026-08-31T11:24:31Z</time>
      </trkpt>
      <trkpt lat="43.4406" lon="-0.35712">
        <ele>184.2</ele>
        <time>2026-08-31T11:24:31Z</time>
      </trkpt>
      <trkpt lat="43.44061" lon="-0.35712">
        <ele>184.2</ele>
        <time>2026-08-31T11:24:32Z</time>
      </trkpt>
      <trkpt lat="43.44061" lon="-0.35713">
        <ele>184.2</ele>
        <time>2026-08-31T11:24:32Z</time>
      </trkpt>
      <trkpt lat="43.44062" lon="-0.35714">
        <ele>184.2</ele>
        <time>2026-08-31T11:24:33Z</time>
      </trkpt>
      <trkpt lat="43.44062" lon="-0.35714">
        <ele>184.2</ele>
        <time>2026-08-31T11:24:33Z</time>
      </trkpt>
      <trkpt lat="43.44063" lon="-0.35715">
        <ele>184.2</ele>
        <time>2026-08-31T11:24:34Z</time>
      </trkpt>
      <trkpt lat="43.44063" lon="-0.35716">
        <ele>184.2</ele>
        <time>2026-08-31T11:24:34Z</time>
      </trkpt>
      <trkpt lat="43.44064" lon="-0.35717">
        <ele>184.2</ele>
        <time>2026-08-31T11:24:35Z</time>
      </trkpt>
      <trkpt lat="43.44064" lon="-0.35717">
        <ele>184.2</ele>
        <time>2026-08-31T11:24:35Z</time>
      </trkpt>
      <trkpt lat="43.44065" lon="-0.35718">
        <ele>184.2</ele>
        <time>2026-08-31T11:24:36Z</time>
      </trkpt>
      <trkpt lat="43.44065" lon="-0.35719">
        <ele>184.2</ele>
        <time>2026-08-31T11:24:36Z</time>
      </trkpt>
      <trkpt lat="43.44066" lon="-0.35719">
        <ele>184.2</ele>
        <time>2026-08-31T11:24:37Z</time>
      </trkpt>
      <trkpt lat="43.44066" lon="-0.3572">
        <ele>184.2</ele>
        <time>2026-08-31T11:24:38Z</time>
      </trkpt>
      <trkpt lat="43.44067" lon="-0.35721">
        <ele>184.2</ele>
        <time>2026-08-31T11:24:38Z</time>
      </trkpt>
      <trkpt lat="43.44067" lon="-0.35721">
        <ele>184.2</ele>
        <time>2026-08-31T11:24:39Z</time>
      </trkpt>
      <trkpt lat="43.44068" lon="-0.35722">
        <ele>184.2</ele>
        <time>2026-08-31T11:24:39Z</time>
      </trkpt>
      <trkpt lat="43.44068" lon="-0.35723">
        <ele>184.2</ele>
        <time>2026-08-31T11:24:40Z</time>
      </trkpt>
      <trkpt lat="43.44068" lon="-0.35724">
        <ele>184.2</ele>
        <time>2026-08-31T11:24:40Z</time>
      </trkpt>
      <trkpt lat="43.44068" lon="-0.35725">
        <ele>185.2</ele>
        <time>2026-08-31T11:24:41Z</time>
      </trkpt>
      <trkpt lat="43.44069" lon="-0.35726">
        <ele>185.2</ele>
        <time>2026-08-31T11:24:41Z</time>
      </trkpt>
      <trkpt lat="43.44069" lon="-0.35726">
        <ele>185.2</ele>
        <time>2026-08-31T11:24:42Z</time>
      </trkpt>
      <trkpt lat="43.4407" lon="-0.35727">
        <ele>185.2</ele>
        <time>2026-08-31T11:24:42Z</time>
      </trkpt>
      <trkpt lat="43.4407" lon="-0.35727">
        <ele>185.2</ele>
        <time>2026-08-31T11:24:43Z</time>
      </trkpt>
      <trkpt lat="43.4407" lon="-0.35728">
        <ele>185.2</ele>
        <time>2026-08-31T11:24:43Z</time>
      </trkpt>
      <trkpt lat="43.44071" lon="-0.35729">
        <ele>184.2</ele>
        <time>2026-08-31T11:24:44Z</time>
      </trkpt>
      <trkpt lat="43.44071" lon="-0.35729">
        <ele>184.2</ele>
        <time>2026-08-31T11:24:45Z</time>
      </trkpt>
      <trkpt lat="43.44072" lon="-0.3573">
        <ele>184.2</ele>
        <time>2026-08-31T11:24:45Z</time>
      </trkpt>
      <trkpt lat="43.44072" lon="-0.35731">
        <ele>184.2</ele>
        <time>2026-08-31T11:24:46Z</time>
      </trkpt>
      <trkpt lat="43.44072" lon="-0.35731">
        <ele>184.2</ele>
        <time>2026-08-31T11:24:46Z</time>
      </trkpt>
      <trkpt lat="43.44073" lon="-0.35732">
        <ele>184.2</ele>
        <time>2026-08-31T11:24:47Z</time>
      </trkpt>
      <trkpt lat="43.44073" lon="-0.35733">
        <ele>184.2</ele>
        <time>2026-08-31T11:24:47Z</time>
      </trkpt>
      <trkpt lat="43.44073" lon="-0.35734">
        <ele>184.2</ele>
        <time>2026-08-31T11:24:48Z</time>
      </trkpt>
      <trkpt lat="43.44073" lon="-0.35735">
        <ele>184.2</ele>
        <time>2026-08-31T11:24:48Z</time>
      </trkpt>
      <trkpt lat="43.44074" lon="-0.35735">
        <ele>184.2</ele>
        <time>2026-08-31T11:24:49Z</time>
      </trkpt>
      <trkpt lat="43.44074" lon="-0.35736">
        <ele>184.2</ele>
        <time>2026-08-31T11:24:49Z</time>
      </trkpt>
      <trkpt lat="43.44074" lon="-0.35737">
        <ele>184.2</ele>
        <time>2026-08-31T11:24:50Z</time>
      </trkpt>
      <trkpt lat="43.44075" lon="-0.35738">
        <ele>184.2</ele>
        <time>2026-08-31T11:24:50Z</time>
      </trkpt>
      <trkpt lat="43.44075" lon="-0.35738">
        <ele>184.2</ele>
        <time>2026-08-31T11:24:51Z</time>
      </trkpt>
      <trkpt lat="43.44076" lon="-0.35739">
        <ele>184.2</ele>
        <time>2026-08-31T11:24:52Z</time>
      </trkpt>
      <trkpt lat="43.44076" lon="-0.3574">
        <ele>185.2</ele>
        <time>2026-08-31T11:24:52Z</time>
      </trkpt>
      <trkpt lat="43.44077" lon="-0.35741">
        <ele>185.2</ele>
        <time>2026-08-31T11:24:53Z</time>
      </trkpt>
      <trkpt lat="43.44077" lon="-0.35741">
        <ele>184.2</ele>
        <time>2026-08-31T11:24:53Z</time>
      </trkpt>
      <trkpt lat="43.44078" lon="-0.35742">
        <ele>184.2</ele>
        <time>2026-08-31T11:24:54Z</time>
      </trkpt>
      <trkpt lat="43.44078" lon="-0.35743">
        <ele>184.2</ele>
        <time>2026-08-31T11:24:54Z</time>
      </trkpt>
      <trkpt lat="43.44079" lon="-0.35743">
        <ele>184.2</ele>
        <time>2026-08-31T11:24:55Z</time>
      </trkpt>
      <trkpt lat="43.44079" lon="-0.35744">
        <ele>184.2</ele>
        <time>2026-08-31T11:24:55Z</time>
      </trkpt>
      <trkpt lat="43.44079" lon="-0.35745">
        <ele>184.2</ele>
        <time>2026-08-31T11:24:56Z</time>
      </trkpt>
      <trkpt lat="43.4408" lon="-0.35745">
        <ele>184.2</ele>
        <time>2026-08-31T11:24:56Z</time>
      </trkpt>
      <trkpt lat="43.4408" lon="-0.35746">
        <ele>184.2</ele>
        <time>2026-08-31T11:24:57Z</time>
      </trkpt>
      <trkpt lat="43.44081" lon="-0.35746">
        <ele>184.2</ele>
        <time>2026-08-31T11:24:58Z</time>
      </trkpt>
      <trkpt lat="43.44081" lon="-0.35747">
        <ele>184.2</ele>
        <time>2026-08-31T11:24:58Z</time>
      </trkpt>
      <trkpt lat="43.44082" lon="-0.35748">
        <ele>184.2</ele>
        <time>2026-08-31T11:24:59Z</time>
      </trkpt>
      <trkpt lat="43.44082" lon="-0.35749">
        <ele>184.2</ele>
        <time>2026-08-31T11:24:59Z</time>
      </trkpt>
      <trkpt lat="43.44082" lon="-0.3575">
        <ele>184.2</ele>
        <time>2026-08-31T11:25:00Z</time>
      </trkpt>
      <trkpt lat="43.44083" lon="-0.3575">
        <ele>184.2</ele>
        <time>2026-08-31T11:25:00Z</time>
      </trkpt>
      <trkpt lat="43.44083" lon="-0.35751">
        <ele>184.2</ele>
        <time>2026-08-31T11:25:01Z</time>
      </trkpt>
      <trkpt lat="43.44083" lon="-0.35752">
        <ele>184.2</ele>
        <time>2026-08-31T11:25:01Z</time>
      </trkpt>
      <trkpt lat="43.44083" lon="-0.35753">
        <ele>183.2</ele>
        <time>2026-08-31T11:25:02Z</time>
      </trkpt>
      <trkpt lat="43.44084" lon="-0.35753">
        <ele>183.2</ele>
        <time>2026-08-31T11:25:02Z</time>
      </trkpt>
      <trkpt lat="43.44084" lon="-0.35754">
        <ele>184.2</ele>
        <time>2026-08-31T11:25:03Z</time>
      </trkpt>
      <trkpt lat="43.44084" lon="-0.35755">
        <ele>184.2</ele>
        <time>2026-08-31T11:25:03Z</time>
      </trkpt>
      <trkpt lat="43.44085" lon="-0.35755">
        <ele>184.2</ele>
        <time>2026-08-31T11:25:04Z</time>
      </trkpt>
      <trkpt lat="43.44085" lon="-0.35756">
        <ele>184.2</ele>
        <time>2026-08-31T11:25:04Z</time>
      </trkpt>
      <trkpt lat="43.44086" lon="-0.35757">
        <ele>184.2</ele>
        <time>2026-08-31T11:25:05Z</time>
      </trkpt>
      <trkpt lat="43.44086" lon="-0.35758">
        <ele>184.2</ele>
        <time>2026-08-31T11:25:05Z</time>
      </trkpt>
      <trkpt lat="43.44086" lon="-0.35759">
        <ele>183.2</ele>
        <time>2026-08-31T11:25:06Z</time>
      </trkpt>
      <trkpt lat="43.44086" lon="-0.35759">
        <ele>183.2</ele>
        <time>2026-08-31T11:25:07Z</time>
      </trkpt>
      <trkpt lat="43.44087" lon="-0.3576">
        <ele>183.2</ele>
        <time>2026-08-31T11:25:07Z</time>
      </trkpt>
      <trkpt lat="43.44087" lon="-0.35761">
        <ele>183.2</ele>
        <time>2026-08-31T11:25:08Z</time>
      </trkpt>
      <trkpt lat="43.44087" lon="-0.35761">
        <ele>183.2</ele>
        <time>2026-08-31T11:25:08Z</time>
      </trkpt>
      <trkpt lat="43.44087" lon="-0.35762">
        <ele>183.2</ele>
        <time>2026-08-31T11:25:09Z</time>
      </trkpt>
      <trkpt lat="43.44088" lon="-0.35763">
        <ele>182.2</ele>
        <time>2026-08-31T11:25:09Z</time>
      </trkpt>
      <trkpt lat="43.44088" lon="-0.35764">
        <ele>182.2</ele>
        <time>2026-08-31T11:25:10Z</time>
      </trkpt>
      <trkpt lat="43.44089" lon="-0.35764">
        <ele>181.2</ele>
        <time>2026-08-31T11:25:11Z</time>
      </trkpt>
      <trkpt lat="43.44089" lon="-0.35765">
        <ele>181.2</ele>
        <time>2026-08-31T11:25:11Z</time>
      </trkpt>
      <trkpt lat="43.4409" lon="-0.35766">
        <ele>181.2</ele>
        <time>2026-08-31T11:25:12Z</time>
      </trkpt>
      <trkpt lat="43.4409" lon="-0.35767">
        <ele>181.2</ele>
        <time>2026-08-31T11:25:12Z</time>
      </trkpt>
      <trkpt lat="43.4409" lon="-0.35767">
        <ele>181.2</ele>
        <time>2026-08-31T11:25:13Z</time>
      </trkpt>
      <trkpt lat="43.44091" lon="-0.35768">
        <ele>181.2</ele>
        <time>2026-08-31T11:25:13Z</time>
      </trkpt>
      <trkpt lat="43.44091" lon="-0.35769">
        <ele>181.2</ele>
        <time>2026-08-31T11:25:14Z</time>
      </trkpt>
      <trkpt lat="43.44091" lon="-0.3577">
        <ele>181.2</ele>
        <time>2026-08-31T11:25:15Z</time>
      </trkpt>
      <trkpt lat="43.44091" lon="-0.35771">
        <ele>182.2</ele>
        <time>2026-08-31T11:25:15Z</time>
      </trkpt>
      <trkpt lat="43.44092" lon="-0.35772">
        <ele>182.2</ele>
        <time>2026-08-31T11:25:16Z</time>
      </trkpt>
      <trkpt lat="43.44092" lon="-0.35772">
        <ele>182.2</ele>
        <time>2026-08-31T11:25:16Z</time>
      </trkpt>
      <trkpt lat="43.44093" lon="-0.35773">
        <ele>182.2</ele>
        <time>2026-08-31T11:25:17Z</time>
      </trkpt>
      <trkpt lat="43.44093" lon="-0.35774">
        <ele>182.2</ele>
        <time>2026-08-31T11:25:17Z</time>
      </trkpt>
      <trkpt lat="43.44094" lon="-0.35774">
        <ele>182.2</ele>
        <time>2026-08-31T11:25:18Z</time>
      </trkpt>
      <trkpt lat="43.44094" lon="-0.35775">
        <ele>182.2</ele>
        <time>2026-08-31T11:25:18Z</time>
      </trkpt>
      <trkpt lat="43.44095" lon="-0.35776">
        <ele>182.2</ele>
        <time>2026-08-31T11:25:19Z</time>
      </trkpt>
      <trkpt lat="43.44095" lon="-0.35776">
        <ele>182.2</ele>
        <time>2026-08-31T11:25:19Z</time>
      </trkpt>
      <trkpt lat="43.44096" lon="-0.35777">
        <ele>182.2</ele>
        <time>2026-08-31T11:25:20Z</time>
      </trkpt>
      <trkpt lat="43.44096" lon="-0.35778">
        <ele>182.2</ele>
        <time>2026-08-31T11:25:20Z</time>
      </trkpt>
      <trkpt lat="43.44097" lon="-0.35778">
        <ele>182.2</ele>
        <time>2026-08-31T11:25:21Z</time>
      </trkpt>
      <trkpt lat="43.44097" lon="-0.35779">
        <ele>182.2</ele>
        <time>2026-08-31T11:25:21Z</time>
      </trkpt>
      <trkpt lat="43.44098" lon="-0.3578">
        <ele>183.2</ele>
        <time>2026-08-31T11:25:22Z</time>
      </trkpt>
      <trkpt lat="43.44098" lon="-0.3578">
        <ele>183.2</ele>
        <time>2026-08-31T11:25:23Z</time>
      </trkpt>
      <trkpt lat="43.44099" lon="-0.35781">
        <ele>183.2</ele>
        <time>2026-08-31T11:25:23Z</time>
      </trkpt>
      <trkpt lat="43.44099" lon="-0.35781">
        <ele>183.2</ele>
        <time>2026-08-31T11:25:24Z</time>
      </trkpt>
      <trkpt lat="43.441" lon="-0.35782">
        <ele>183.2</ele>
        <time>2026-08-31T11:25:24Z</time>
      </trkpt>
      <trkpt lat="43.441" lon="-0.35782">
        <ele>183.2</ele>
        <time>2026-08-31T11:25:25Z</time>
      </trkpt>
      <trkpt lat="43.44101" lon="-0.35783">
        <ele>183.2</ele>
        <time>2026-08-31T11:25:25Z</time>
      </trkpt>
      <trkpt lat="43.44101" lon="-0.35783">
        <ele>183.2</ele>
        <time>2026-08-31T11:25:26Z</time>
      </trkpt>
      <trkpt lat="43.44102" lon="-0.35784">
        <ele>183.2</ele>
        <time>2026-08-31T11:25:26Z</time>
      </trkpt>
      <trkpt lat="43.44102" lon="-0.35785">
        <ele>183.2</ele>
        <time>2026-08-31T11:25:27Z</time>
      </trkpt>
      <trkpt lat="43.44103" lon="-0.35786">
        <ele>183.2</ele>
        <time>2026-08-31T11:25:27Z</time>
      </trkpt>
      <trkpt lat="43.44103" lon="-0.35786">
        <ele>183.2</ele>
        <time>2026-08-31T11:25:28Z</time>
      </trkpt>
      <trkpt lat="43.44103" lon="-0.35787">
        <ele>183.2</ele>
        <time>2026-08-31T11:25:29Z</time>
      </trkpt>
      <trkpt lat="43.44104" lon="-0.35788">
        <ele>183.2</ele>
        <time>2026-08-31T11:25:29Z</time>
      </trkpt>
      <trkpt lat="43.44104" lon="-0.35788">
        <ele>183.2</ele>
        <time>2026-08-31T11:25:30Z</time>
      </trkpt>
      <trkpt lat="43.44105" lon="-0.35789">
        <ele>184.2</ele>
        <time>2026-08-31T11:25:30Z</time>
      </trkpt>
      <trkpt lat="43.44105" lon="-0.3579">
        <ele>184.2</ele>
        <time>2026-08-31T11:25:31Z</time>
      </trkpt>
      <trkpt lat="43.44105" lon="-0.3579">
        <ele>184.2</ele>
        <time>2026-08-31T11:25:31Z</time>
      </trkpt>
      <trkpt lat="43.44106" lon="-0.35791">
        <ele>184.2</ele>
        <time>2026-08-31T11:25:32Z</time>
      </trkpt>
      <trkpt lat="43.44106" lon="-0.35792">
        <ele>184.2</ele>
        <time>2026-08-31T11:25:32Z</time>
      </trkpt>
      <trkpt lat="43.44107" lon="-0.35793">
        <ele>184.2</ele>
        <time>2026-08-31T11:25:33Z</time>
      </trkpt>
      <trkpt lat="43.44107" lon="-0.35793">
        <ele>184.2</ele>
        <time>2026-08-31T11:25:33Z</time>
      </trkpt>
      <trkpt lat="43.44108" lon="-0.35794">
        <ele>184.2</ele>
        <time>2026-08-31T11:25:34Z</time>
      </trkpt>
      <trkpt lat="43.44108" lon="-0.35795">
        <ele>184.2</ele>
        <time>2026-08-31T11:25:34Z</time>
      </trkpt>
      <trkpt lat="43.44109" lon="-0.35796">
        <ele>184.2</ele>
        <time>2026-08-31T11:25:35Z</time>
      </trkpt>
      <trkpt lat="43.44109" lon="-0.35796">
        <ele>184.2</ele>
        <time>2026-08-31T11:25:36Z</time>
      </trkpt>
      <trkpt lat="43.4411" lon="-0.35797">
        <ele>184.2</ele>
        <time>2026-08-31T11:25:36Z</time>
      </trkpt>
      <trkpt lat="43.4411" lon="-0.35798">
        <ele>184.2</ele>
        <time>2026-08-31T11:25:37Z</time>
      </trkpt>
      <trkpt lat="43.44111" lon="-0.35799">
        <ele>184.2</ele>
        <time>2026-08-31T11:25:37Z</time>
      </trkpt>
      <trkpt lat="43.44111" lon="-0.35799">
        <ele>184.2</ele>
        <time>2026-08-31T11:25:38Z</time>
      </trkpt>
      <trkpt lat="43.44112" lon="-0.358">
        <ele>184.2</ele>
        <time>2026-08-31T11:25:38Z</time>
      </trkpt>
      <trkpt lat="43.44113" lon="-0.35801">
        <ele>185.2</ele>
        <time>2026-08-31T11:25:39Z</time>
      </trkpt>
      <trkpt lat="43.44113" lon="-0.35802">
        <ele>185.2</ele>
        <time>2026-08-31T11:25:39Z</time>
      </trkpt>
      <trkpt lat="43.44114" lon="-0.35803">
        <ele>184.2</ele>
        <time>2026-08-31T11:25:40Z</time>
      </trkpt>
      <trkpt lat="43.44115" lon="-0.35803">
        <ele>184.2</ele>
        <time>2026-08-31T11:25:40Z</time>
      </trkpt>
      <trkpt lat="43.44115" lon="-0.35804">
        <ele>185.2</ele>
        <time>2026-08-31T11:25:41Z</time>
      </trkpt>
      <trkpt lat="43.44116" lon="-0.35805">
        <ele>185.2</ele>
        <time>2026-08-31T11:25:41Z</time>
      </trkpt>
      <trkpt lat="43.44116" lon="-0.35806">
        <ele>185.2</ele>
        <time>2026-08-31T11:25:42Z</time>
      </trkpt>
      <trkpt lat="43.44117" lon="-0.35806">
        <ele>185.2</ele>
        <time>2026-08-31T11:25:43Z</time>
      </trkpt>
      <trkpt lat="43.44117" lon="-0.35807">
        <ele>185.2</ele>
        <time>2026-08-31T11:25:43Z</time>
      </trkpt>
      <trkpt lat="43.44118" lon="-0.35808">
        <ele>185.2</ele>
        <time>2026-08-31T11:25:44Z</time>
      </trkpt>
      <trkpt lat="43.44118" lon="-0.35809">
        <ele>185.2</ele>
        <time>2026-08-31T11:25:44Z</time>
      </trkpt>
      <trkpt lat="43.44118" lon="-0.35809">
        <ele>185.2</ele>
        <time>2026-08-31T11:25:45Z</time>
      </trkpt>
      <trkpt lat="43.44119" lon="-0.3581">
        <ele>185.2</ele>
        <time>2026-08-31T11:25:45Z</time>
      </trkpt>
      <trkpt lat="43.44119" lon="-0.35811">
        <ele>185.2</ele>
        <time>2026-08-31T11:25:46Z</time>
      </trkpt>
      <trkpt lat="43.44119" lon="-0.35812">
        <ele>184.2</ele>
        <time>2026-08-31T11:25:46Z</time>
      </trkpt>
      <trkpt lat="43.44119" lon="-0.35813">
        <ele>185.2</ele>
        <time>2026-08-31T11:25:47Z</time>
      </trkpt>
      <trkpt lat="43.4412" lon="-0.35814">
        <ele>185.2</ele>
        <time>2026-08-31T11:25:47Z</time>
      </trkpt>
      <trkpt lat="43.4412" lon="-0.35815">
        <ele>185.2</ele>
        <time>2026-08-31T11:25:48Z</time>
      </trkpt>
      <trkpt lat="43.4412" lon="-0.35816">
        <ele>185.2</ele>
        <time>2026-08-31T11:25:48Z</time>
      </trkpt>
      <trkpt lat="43.44121" lon="-0.35817">
        <ele>184.2</ele>
        <time>2026-08-31T11:25:49Z</time>
      </trkpt>
      <trkpt lat="43.44121" lon="-0.35817">
        <ele>184.2</ele>
        <time>2026-08-31T11:25:49Z</time>
      </trkpt>
      <trkpt lat="43.44121" lon="-0.35818">
        <ele>184.2</ele>
        <time>2026-08-31T11:25:50Z</time>
      </trkpt>
      <trkpt lat="43.44122" lon="-0.35819">
        <ele>184.2</ele>
        <time>2026-08-31T11:25:51Z</time>
      </trkpt>
      <trkpt lat="43.44122" lon="-0.3582">
        <ele>184.2</ele>
        <time>2026-08-31T11:25:51Z</time>
      </trkpt>
      <trkpt lat="43.44122" lon="-0.35821">
        <ele>184.2</ele>
        <time>2026-08-31T11:25:52Z</time>
      </trkpt>
      <trkpt lat="43.44123" lon="-0.35822">
        <ele>184.2</ele>
        <time>2026-08-31T11:25:52Z</time>
      </trkpt>
      <trkpt lat="43.44123" lon="-0.35823">
        <ele>184.2</ele>
        <time>2026-08-31T11:25:53Z</time>
      </trkpt>
      <trkpt lat="43.44123" lon="-0.35824">
        <ele>184.2</ele>
        <time>2026-08-31T11:25:53Z</time>
      </trkpt>
      <trkpt lat="43.44124" lon="-0.35825">
        <ele>184.2</ele>
        <time>2026-08-31T11:25:54Z</time>
      </trkpt>
      <trkpt lat="43.44124" lon="-0.35826">
        <ele>184.2</ele>
        <time>2026-08-31T11:25:54Z</time>
      </trkpt>
      <trkpt lat="43.44124" lon="-0.35827">
        <ele>183.2</ele>
        <time>2026-08-31T11:25:55Z</time>
      </trkpt>
      <trkpt lat="43.44125" lon="-0.35828">
        <ele>183.2</ele>
        <time>2026-08-31T11:25:55Z</time>
      </trkpt>
      <trkpt lat="43.44125" lon="-0.35829">
        <ele>183.2</ele>
        <time>2026-08-31T11:25:56Z</time>
      </trkpt>
      <trkpt lat="43.44125" lon="-0.3583">
        <ele>183.2</ele>
        <time>2026-08-31T11:25:56Z</time>
      </trkpt>
      <trkpt lat="43.44125" lon="-0.35831">
        <ele>183.2</ele>
        <time>2026-08-31T11:25:57Z</time>
      </trkpt>
      <trkpt lat="43.44126" lon="-0.35832">
        <ele>183.2</ele>
        <time>2026-08-31T11:25:58Z</time>
      </trkpt>
      <trkpt lat="43.44126" lon="-0.35832">
        <ele>183.2</ele>
        <time>2026-08-31T11:25:58Z</time>
      </trkpt>
      <trkpt lat="43.44126" lon="-0.35833">
        <ele>183.2</ele>
        <time>2026-08-31T11:25:59Z</time>
      </trkpt>
      <trkpt lat="43.44127" lon="-0.35834">
        <ele>182.2</ele>
        <time>2026-08-31T11:25:59Z</time>
      </trkpt>
      <trkpt lat="43.44127" lon="-0.35835">
        <ele>182.2</ele>
        <time>2026-08-31T11:26:00Z</time>
      </trkpt>
      <trkpt lat="43.44127" lon="-0.35835">
        <ele>182.2</ele>
        <time>2026-08-31T11:26:00Z</time>
      </trkpt>
      <trkpt lat="43.44128" lon="-0.35836">
        <ele>182.2</ele>
        <time>2026-08-31T11:26:01Z</time>
      </trkpt>
      <trkpt lat="43.44128" lon="-0.35837">
        <ele>182.2</ele>
        <time>2026-08-31T11:26:01Z</time>
      </trkpt>
      <trkpt lat="43.44128" lon="-0.35838">
        <ele>182.2</ele>
        <time>2026-08-31T11:26:02Z</time>
      </trkpt>
      <trkpt lat="43.44129" lon="-0.35838">
        <ele>182.2</ele>
        <time>2026-08-31T11:26:02Z</time>
      </trkpt>
      <trkpt lat="43.44129" lon="-0.35839">
        <ele>182.2</ele>
        <time>2026-08-31T11:26:03Z</time>
      </trkpt>
      <trkpt lat="43.44129" lon="-0.3584">
        <ele>182.2</ele>
        <time>2026-08-31T11:26:03Z</time>
      </trkpt>
      <trkpt lat="43.44129" lon="-0.35841">
        <ele>182.2</ele>
        <time>2026-08-31T11:26:04Z</time>
      </trkpt>
      <trkpt lat="43.4413" lon="-0.35842">
        <ele>182.2</ele>
        <time>2026-08-31T11:26:05Z</time>
      </trkpt>
      <trkpt lat="43.4413" lon="-0.35843">
        <ele>183.2</ele>
        <time>2026-08-31T11:26:05Z</time>
      </trkpt>
      <trkpt lat="43.4413" lon="-0.35844">
        <ele>182.2</ele>
        <time>2026-08-31T11:26:06Z</time>
      </trkpt>
      <trkpt lat="43.44131" lon="-0.35845">
        <ele>182.2</ele>
        <time>2026-08-31T11:26:07Z</time>
      </trkpt>
      <trkpt lat="43.44131" lon="-0.35845">
        <ele>182.2</ele>
        <time>2026-08-31T11:26:07Z</time>
      </trkpt>
      <trkpt lat="43.44131" lon="-0.35846">
        <ele>182.2</ele>
        <time>2026-08-31T11:26:08Z</time>
      </trkpt>
      <trkpt lat="43.44132" lon="-0.35847">
        <ele>182.2</ele>
        <time>2026-08-31T11:26:08Z</time>
      </trkpt>
      <trkpt lat="43.44132" lon="-0.35848">
        <ele>183.2</ele>
        <time>2026-08-31T11:26:09Z</time>
      </trkpt>
      <trkpt lat="43.44132" lon="-0.35848">
        <ele>183.2</ele>
        <time>2026-08-31T11:26:09Z</time>
      </trkpt>
      <trkpt lat="43.44133" lon="-0.35849">
        <ele>183.2</ele>
        <time>2026-08-31T11:26:10Z</time>
      </trkpt>
      <trkpt lat="43.44133" lon="-0.3585">
        <ele>183.2</ele>
        <time>2026-08-31T11:26:11Z</time>
      </trkpt>
      <trkpt lat="43.44133" lon="-0.3585">
        <ele>184.2</ele>
        <time>2026-08-31T11:26:11Z</time>
      </trkpt>
      <trkpt lat="43.44134" lon="-0.35851">
        <ele>184.2</ele>
        <time>2026-08-31T11:26:12Z</time>
      </trkpt>
      <trkpt lat="43.44134" lon="-0.35852">
        <ele>184.2</ele>
        <time>2026-08-31T11:26:12Z</time>
      </trkpt>
      <trkpt lat="43.44135" lon="-0.35853">
        <ele>184.2</ele>
        <time>2026-08-31T11:26:13Z</time>
      </trkpt>
      <trkpt lat="43.44135" lon="-0.35853">
        <ele>184.2</ele>
        <time>2026-08-31T11:26:13Z</time>
      </trkpt>
      <trkpt lat="43.44136" lon="-0.35854">
        <ele>184.2</ele>
        <time>2026-08-31T11:26:14Z</time>
      </trkpt>
      <trkpt lat="43.44136" lon="-0.35855">
        <ele>184.2</ele>
        <time>2026-08-31T11:26:14Z</time>
      </trkpt>
      <trkpt lat="43.44137" lon="-0.35856">
        <ele>184.2</ele>
        <time>2026-08-31T11:26:15Z</time>
      </trkpt>
      <trkpt lat="43.44137" lon="-0.35856">
        <ele>184.2</ele>
        <time>2026-08-31T11:26:15Z</time>
      </trkpt>
      <trkpt lat="43.44138" lon="-0.35857">
        <ele>184.2</ele>
        <time>2026-08-31T11:26:16Z</time>
      </trkpt>
      <trkpt lat="43.44138" lon="-0.35858">
        <ele>184.2</ele>
        <time>2026-08-31T11:26:16Z</time>
      </trkpt>
      <trkpt lat="43.44138" lon="-0.35859">
        <ele>184.2</ele>
        <time>2026-08-31T11:26:17Z</time>
      </trkpt>
      <trkpt lat="43.44138" lon="-0.3586">
        <ele>184.2</ele>
        <time>2026-08-31T11:26:18Z</time>
      </trkpt>
      <trkpt lat="43.44139" lon="-0.35861">
        <ele>184.2</ele>
        <time>2026-08-31T11:26:18Z</time>
      </trkpt>
      <trkpt lat="43.44139" lon="-0.35862">
        <ele>184.2</ele>
        <time>2026-08-31T11:26:19Z</time>
      </trkpt>
      <trkpt lat="43.44139" lon="-0.35863">
        <ele>183.2</ele>
        <time>2026-08-31T11:26:19Z</time>
      </trkpt>
      <trkpt lat="43.4414" lon="-0.35864">
        <ele>183.2</ele>
        <time>2026-08-31T11:26:20Z</time>
      </trkpt>
      <trkpt lat="43.4414" lon="-0.35864">
        <ele>183.2</ele>
        <time>2026-08-31T11:26:20Z</time>
      </trkpt>
      <trkpt lat="43.4414" lon="-0.35865">
        <ele>184.2</ele>
        <time>2026-08-31T11:26:21Z</time>
      </trkpt>
      <trkpt lat="43.44141" lon="-0.35866">
        <ele>184.2</ele>
        <time>2026-08-31T11:26:21Z</time>
      </trkpt>
      <trkpt lat="43.44141" lon="-0.35867">
        <ele>184.2</ele>
        <time>2026-08-31T11:26:22Z</time>
      </trkpt>
      <trkpt lat="43.44141" lon="-0.35868">
        <ele>184.2</ele>
        <time>2026-08-31T11:26:23Z</time>
      </trkpt>
      <trkpt lat="43.44142" lon="-0.35868">
        <ele>184.2</ele>
        <time>2026-08-31T11:26:23Z</time>
      </trkpt>
      <trkpt lat="43.44142" lon="-0.35869">
        <ele>184.2</ele>
        <time>2026-08-31T11:26:24Z</time>
      </trkpt>
      <trkpt lat="43.44142" lon="-0.3587">
        <ele>184.2</ele>
        <time>2026-08-31T11:26:24Z</time>
      </trkpt>
      <trkpt lat="43.44143" lon="-0.35871">
        <ele>184.2</ele>
        <time>2026-08-31T11:26:25Z</time>
      </trkpt>
      <trkpt lat="43.44143" lon="-0.35871">
        <ele>184.2</ele>
        <time>2026-08-31T11:26:25Z</time>
      </trkpt>
      <trkpt lat="43.44144" lon="-0.35872">
        <ele>185.2</ele>
        <time>2026-08-31T11:26:26Z</time>
      </trkpt>
      <trkpt lat="43.44144" lon="-0.35873">
        <ele>185.2</ele>
        <time>2026-08-31T11:26:26Z</time>
      </trkpt>
      <trkpt lat="43.44144" lon="-0.35874">
        <ele>185.2</ele>
        <time>2026-08-31T11:26:27Z</time>
      </trkpt>
      <trkpt lat="43.44144" lon="-0.35875">
        <ele>185.2</ele>
        <time>2026-08-31T11:26:27Z</time>
      </trkpt>
      <trkpt lat="43.44145" lon="-0.35876">
        <ele>185.2</ele>
        <time>2026-08-31T11:26:28Z</time>
      </trkpt>
      <trkpt lat="43.44145" lon="-0.35877">
        <ele>185.2</ele>
        <time>2026-08-31T11:26:29Z</time>
      </trkpt>
      <trkpt lat="43.44145" lon="-0.35877">
        <ele>184.2</ele>
        <time>2026-08-31T11:26:29Z</time>
      </trkpt>
      <trkpt lat="43.44145" lon="-0.35878">
        <ele>184.2</ele>
        <time>2026-08-31T11:26:30Z</time>
      </trkpt>
      <trkpt lat="43.44146" lon="-0.35879">
        <ele>184.2</ele>
        <time>2026-08-31T11:26:30Z</time>
      </trkpt>
      <trkpt lat="43.44146" lon="-0.3588">
        <ele>184.2</ele>
        <time>2026-08-31T11:26:31Z</time>
      </trkpt>
      <trkpt lat="43.44147" lon="-0.35881">
        <ele>183.2</ele>
        <time>2026-08-31T11:26:31Z</time>
      </trkpt>
      <trkpt lat="43.44147" lon="-0.35882">
        <ele>183.2</ele>
        <time>2026-08-31T11:26:32Z</time>
      </trkpt>
      <trkpt lat="43.44148" lon="-0.35883">
        <ele>183.2</ele>
        <time>2026-08-31T11:26:33Z</time>
      </trkpt>
      <trkpt lat="43.44148" lon="-0.35884">
        <ele>183.2</ele>
        <time>2026-08-31T11:26:33Z</time>
      </trkpt>
      <trkpt lat="43.44149" lon="-0.35885">
        <ele>183.2</ele>
        <time>2026-08-31T11:26:34Z</time>
      </trkpt>
      <trkpt lat="43.44149" lon="-0.35886">
        <ele>183.2</ele>
        <time>2026-08-31T11:26:35Z</time>
      </trkpt>
      <trkpt lat="43.44149" lon="-0.35887">
        <ele>183.2</ele>
        <time>2026-08-31T11:26:35Z</time>
      </trkpt>
      <trkpt lat="43.4415" lon="-0.35887">
        <ele>183.2</ele>
        <time>2026-08-31T11:26:36Z</time>
      </trkpt>
      <trkpt lat="43.4415" lon="-0.35888">
        <ele>184.2</ele>
        <time>2026-08-31T11:26:36Z</time>
      </trkpt>
      <trkpt lat="43.44151" lon="-0.35889">
        <ele>184.2</ele>
        <time>2026-08-31T11:26:37Z</time>
      </trkpt>
      <trkpt lat="43.44151" lon="-0.3589">
        <ele>184.2</ele>
        <time>2026-08-31T11:26:37Z</time>
      </trkpt>
      <trkpt lat="43.44151" lon="-0.3589">
        <ele>184.2</ele>
        <time>2026-08-31T11:26:38Z</time>
      </trkpt>
      <trkpt lat="43.44152" lon="-0.35891">
        <ele>184.2</ele>
        <time>2026-08-31T11:26:38Z</time>
      </trkpt>
      <trkpt lat="43.44153" lon="-0.35892">
        <ele>184.2</ele>
        <time>2026-08-31T11:26:39Z</time>
      </trkpt>
      <trkpt lat="43.44153" lon="-0.35892">
        <ele>184.2</ele>
        <time>2026-08-31T11:26:39Z</time>
      </trkpt>
      <trkpt lat="43.44155" lon="-0.35893">
        <ele>185.2</ele>
        <time>2026-08-31T11:26:41Z</time>
      </trkpt>
      <trkpt lat="43.44156" lon="-0.35893">
        <ele>186.2</ele>
        <time>2026-08-31T11:26:42Z</time>
      </trkpt>
      <trkpt lat="43.44156" lon="-0.35892">
        <ele>186.2</ele>
        <time>2026-08-31T11:26:43Z</time>
      </trkpt>
      <trkpt lat="43.44157" lon="-0.35891">
        <ele>186.2</ele>
        <time>2026-08-31T11:26:43Z</time>
      </trkpt>
      <trkpt lat="43.44157" lon="-0.3589">
        <ele>186.2</ele>
        <time>2026-08-31T11:26:44Z</time>
      </trkpt>
      <trkpt lat="43.44157" lon="-0.3589">
        <ele>186.2</ele>
        <time>2026-08-31T11:26:45Z</time>
      </trkpt>
      <trkpt lat="43.44157" lon="-0.3589">
        <ele>186.2</ele>
        <time>2026-08-31T11:26:46Z</time>
      </trkpt>
      <trkpt lat="43.44157" lon="-0.3589">
        <ele>186.2</ele>
        <time>2026-08-31T11:26:47Z</time>
      </trkpt>
      <trkpt lat="43.44157" lon="-0.35891">
        <ele>186.2</ele>
        <time>2026-08-31T11:26:48Z</time>
      </trkpt>
      <trkpt lat="43.44156" lon="-0.35891">
        <ele>186.2</ele>
        <time>2026-08-31T11:26:49Z</time>
      </trkpt>
      <trkpt lat="43.44156" lon="-0.35891">
        <ele>186.2</ele>
        <time>2026-08-31T11:26:50Z</time>
      </trkpt>
      <trkpt lat="43.44156" lon="-0.35891">
        <ele>186.2</ele>
        <time>2026-08-31T11:26:51Z</time>
      </trkpt>
      <trkpt lat="43.44156" lon="-0.35891">
        <ele>187.2</ele>
        <time>2026-08-31T11:26:52Z</time>
      </trkpt>
      <trkpt lat="43.44156" lon="-0.35891">
        <ele>187.2</ele>
        <time>2026-08-31T11:26:53Z</time>
      </trkpt>
      <trkpt lat="43.44156" lon="-0.35892">
        <ele>187.2</ele>
        <time>2026-08-31T11:26:53Z</time>
      </trkpt>
      <trkpt lat="43.44156" lon="-0.35892">
        <ele>187.2</ele>
        <time>2026-08-31T11:26:54Z</time>
      </trkpt>
      <trkpt lat="43.44156" lon="-0.35892">
        <ele>187.2</ele>
        <time>2026-08-31T11:26:55Z</time>
      </trkpt>
      <trkpt lat="43.44156" lon="-0.35892">
        <ele>187.2</ele>
        <time>2026-08-31T11:26:56Z</time>
      </trkpt>
      <trkpt lat="43.44157" lon="-0.35893">
        <ele>187.2</ele>
        <time>2026-08-31T11:26:57Z</time>
      </trkpt>
      <trkpt lat="43.44158" lon="-0.359">
        <ele>187.2</ele>
        <time>2026-08-31T11:26:58Z</time>
      </trkpt>
      <trkpt lat="43.44159" lon="-0.35903">
        <ele>187.2</ele>
        <time>2026-08-31T11:26:59Z</time>
      </trkpt>
      <trkpt lat="43.4416" lon="-0.35904">
        <ele>187.2</ele>
        <time>2026-08-31T11:26:59Z</time>
      </trkpt>
      <trkpt lat="43.4416" lon="-0.35904">
        <ele>187.2</ele>
        <time>2026-08-31T11:27:00Z</time>
      </trkpt>
      <trkpt lat="43.4416" lon="-0.35905">
        <ele>187.2</ele>
        <time>2026-08-31T11:27:00Z</time>
      </trkpt>
      <trkpt lat="43.44161" lon="-0.35906">
        <ele>186.2</ele>
        <time>2026-08-31T11:27:01Z</time>
      </trkpt>
      <trkpt lat="43.44161" lon="-0.35907">
        <ele>186.2</ele>
        <time>2026-08-31T11:27:01Z</time>
      </trkpt>
      <trkpt lat="43.44162" lon="-0.35908">
        <ele>186.2</ele>
        <time>2026-08-31T11:27:02Z</time>
      </trkpt>
      <trkpt lat="43.44163" lon="-0.35909">
        <ele>186.2</ele>
        <time>2026-08-31T11:27:03Z</time>
      </trkpt>
      <trkpt lat="43.44164" lon="-0.3591">
        <ele>186.2</ele>
        <time>2026-08-31T11:27:04Z</time>
      </trkpt>
      <trkpt lat="43.44165" lon="-0.3591">
        <ele>186.2</ele>
        <time>2026-08-31T11:27:04Z</time>
      </trkpt>
      <trkpt lat="43.44166" lon="-0.35911">
        <ele>185.2</ele>
        <time>2026-08-31T11:27:05Z</time>
      </trkpt>
      <trkpt lat="43.44166" lon="-0.35912">
        <ele>185.2</ele>
        <time>2026-08-31T11:27:06Z</time>
      </trkpt>
      <trkpt lat="43.44167" lon="-0.35912">
        <ele>186.2</ele>
        <time>2026-08-31T11:27:06Z</time>
      </trkpt>
      <trkpt lat="43.44167" lon="-0.35913">
        <ele>186.2</ele>
        <time>2026-08-31T11:27:07Z</time>
      </trkpt>
      <trkpt lat="43.44168" lon="-0.35913">
        <ele>186.2</ele>
        <time>2026-08-31T11:27:07Z</time>
      </trkpt>
      <trkpt lat="43.44168" lon="-0.35913">
        <ele>186.2</ele>
        <time>2026-08-31T11:27:08Z</time>
      </trkpt>
      <trkpt lat="43.44168" lon="-0.35914">
        <ele>186.2</ele>
        <time>2026-08-31T11:27:08Z</time>
      </trkpt>
      <trkpt lat="43.44169" lon="-0.35914">
        <ele>186.2</ele>
        <time>2026-08-31T11:27:09Z</time>
      </trkpt>
      <trkpt lat="43.44169" lon="-0.35915">
        <ele>186.2</ele>
        <time>2026-08-31T11:27:09Z</time>
      </trkpt>
      <trkpt lat="43.4417" lon="-0.35916">
        <ele>186.2</ele>
        <time>2026-08-31T11:27:10Z</time>
      </trkpt>
      <trkpt lat="43.4417" lon="-0.35917">
        <ele>185.2</ele>
        <time>2026-08-31T11:27:11Z</time>
      </trkpt>
      <trkpt lat="43.44171" lon="-0.35918">
        <ele>185.2</ele>
        <time>2026-08-31T11:27:12Z</time>
      </trkpt>
      <trkpt lat="43.44171" lon="-0.35918">
        <ele>185.2</ele>
        <time>2026-08-31T11:27:12Z</time>
      </trkpt>
      <trkpt lat="43.44172" lon="-0.35919">
        <ele>185.2</ele>
        <time>2026-08-31T11:27:13Z</time>
      </trkpt>
      <trkpt lat="43.44172" lon="-0.3592">
        <ele>185.2</ele>
        <time>2026-08-31T11:27:14Z</time>
      </trkpt>
      <trkpt lat="43.44173" lon="-0.3592">
        <ele>185.2</ele>
        <time>2026-08-31T11:27:14Z</time>
      </trkpt>
      <trkpt lat="43.44173" lon="-0.35921">
        <ele>185.2</ele>
        <time>2026-08-31T11:27:15Z</time>
      </trkpt>
      <trkpt lat="43.44174" lon="-0.35921">
        <ele>185.2</ele>
        <time>2026-08-31T11:27:15Z</time>
      </trkpt>
      <trkpt lat="43.44174" lon="-0.35922">
        <ele>185.2</ele>
        <time>2026-08-31T11:27:16Z</time>
      </trkpt>
      <trkpt lat="43.44175" lon="-0.35922">
        <ele>185.2</ele>
        <time>2026-08-31T11:27:16Z</time>
      </trkpt>
      <trkpt lat="43.44175" lon="-0.35923">
        <ele>185.2</ele>
        <time>2026-08-31T11:27:17Z</time>
      </trkpt>
      <trkpt lat="43.44176" lon="-0.35923">
        <ele>185.2</ele>
        <time>2026-08-31T11:27:17Z</time>
      </trkpt>
      <trkpt lat="43.44177" lon="-0.35924">
        <ele>185.2</ele>
        <time>2026-08-31T11:27:18Z</time>
      </trkpt>
      <trkpt lat="43.44177" lon="-0.35924">
        <ele>185.2</ele>
        <time>2026-08-31T11:27:18Z</time>
      </trkpt>
      <trkpt lat="43.44178" lon="-0.35925">
        <ele>185.2</ele>
        <time>2026-08-31T11:27:19Z</time>
      </trkpt>
      <trkpt lat="43.44178" lon="-0.35926">
        <ele>185.2</ele>
        <time>2026-08-31T11:27:20Z</time>
      </trkpt>
      <trkpt lat="43.44179" lon="-0.35927">
        <ele>185.2</ele>
        <time>2026-08-31T11:27:21Z</time>
      </trkpt>
      <trkpt lat="43.44179" lon="-0.35928">
        <ele>184.2</ele>
        <time>2026-08-31T11:27:21Z</time>
      </trkpt>
      <trkpt lat="43.4418" lon="-0.35928">
        <ele>183.2</ele>
        <time>2026-08-31T11:27:22Z</time>
      </trkpt>
      <trkpt lat="43.4418" lon="-0.35929">
        <ele>183.2</ele>
        <time>2026-08-31T11:27:22Z</time>
      </trkpt>
      <trkpt lat="43.44181" lon="-0.3593">
        <ele>184.2</ele>
        <time>2026-08-31T11:27:23Z</time>
      </trkpt>
      <trkpt lat="43.44181" lon="-0.35931">
        <ele>184.2</ele>
        <time>2026-08-31T11:27:24Z</time>
      </trkpt>
      <trkpt lat="43.44182" lon="-0.35931">
        <ele>184.2</ele>
        <time>2026-08-31T11:27:24Z</time>
      </trkpt>
      <trkpt lat="43.44182" lon="-0.35932">
        <ele>183.2</ele>
        <time>2026-08-31T11:27:25Z</time>
      </trkpt>
      <trkpt lat="43.44183" lon="-0.35932">
        <ele>183.2</ele>
        <time>2026-08-31T11:27:25Z</time>
      </trkpt>
      <trkpt lat="43.44183" lon="-0.35933">
        <ele>183.2</ele>
        <time>2026-08-31T11:27:26Z</time>
      </trkpt>
      <trkpt lat="43.44184" lon="-0.35934">
        <ele>183.2</ele>
        <time>2026-08-31T11:27:26Z</time>
      </trkpt>
      <trkpt lat="43.44184" lon="-0.35934">
        <ele>182.2</ele>
        <time>2026-08-31T11:27:27Z</time>
      </trkpt>
      <trkpt lat="43.44184" lon="-0.35935">
        <ele>181.2</ele>
        <time>2026-08-31T11:27:28Z</time>
      </trkpt>
      <trkpt lat="43.44185" lon="-0.35936">
        <ele>181.2</ele>
        <time>2026-08-31T11:27:28Z</time>
      </trkpt>
      <trkpt lat="43.44185" lon="-0.35937">
        <ele>180.2</ele>
        <time>2026-08-31T11:27:29Z</time>
      </trkpt>
      <trkpt lat="43.44185" lon="-0.35938">
        <ele>180.2</ele>
        <time>2026-08-31T11:27:30Z</time>
      </trkpt>
      <trkpt lat="43.44186" lon="-0.35938">
        <ele>180.2</ele>
        <time>2026-08-31T11:27:30Z</time>
      </trkpt>
      <trkpt lat="43.44186" lon="-0.35939">
        <ele>179.2</ele>
        <time>2026-08-31T11:27:31Z</time>
      </trkpt>
      <trkpt lat="43.44186" lon="-0.35939">
        <ele>179.2</ele>
        <time>2026-08-31T11:27:31Z</time>
      </trkpt>
      <trkpt lat="43.44187" lon="-0.3594">
        <ele>178.2</ele>
        <time>2026-08-31T11:27:32Z</time>
      </trkpt>
      <trkpt lat="43.44187" lon="-0.35941">
        <ele>178.2</ele>
        <time>2026-08-31T11:27:32Z</time>
      </trkpt>
      <trkpt lat="43.44187" lon="-0.35941">
        <ele>178.2</ele>
        <time>2026-08-31T11:27:33Z</time>
      </trkpt>
      <trkpt lat="43.44188" lon="-0.35942">
        <ele>178.2</ele>
        <time>2026-08-31T11:27:33Z</time>
      </trkpt>
      <trkpt lat="43.44188" lon="-0.35943">
        <ele>178.2</ele>
        <time>2026-08-31T11:27:34Z</time>
      </trkpt>
      <trkpt lat="43.44189" lon="-0.35944">
        <ele>178.2</ele>
        <time>2026-08-31T11:27:35Z</time>
      </trkpt>
      <trkpt lat="43.44189" lon="-0.35946">
        <ele>178.2</ele>
        <time>2026-08-31T11:27:35Z</time>
      </trkpt>
      <trkpt lat="43.44189" lon="-0.35947">
        <ele>177.2</ele>
        <time>2026-08-31T11:27:36Z</time>
      </trkpt>
      <trkpt lat="43.44189" lon="-0.35947">
        <ele>177.2</ele>
        <time>2026-08-31T11:27:37Z</time>
      </trkpt>
      <trkpt lat="43.4419" lon="-0.35948">
        <ele>177.2</ele>
        <time>2026-08-31T11:27:37Z</time>
      </trkpt>
      <trkpt lat="43.4419" lon="-0.35949">
        <ele>177.2</ele>
        <time>2026-08-31T11:27:38Z</time>
      </trkpt>
      <trkpt lat="43.4419" lon="-0.3595">
        <ele>177.2</ele>
        <time>2026-08-31T11:27:38Z</time>
      </trkpt>
      <trkpt lat="43.4419" lon="-0.3595">
        <ele>177.2</ele>
        <time>2026-08-31T11:27:39Z</time>
      </trkpt>
      <trkpt lat="43.44191" lon="-0.35952">
        <ele>177.2</ele>
        <time>2026-08-31T11:27:40Z</time>
      </trkpt>
      <trkpt lat="43.44192" lon="-0.35953">
        <ele>177.2</ele>
        <time>2026-08-31T11:27:41Z</time>
      </trkpt>
      <trkpt lat="43.44193" lon="-0.35954">
        <ele>176.2</ele>
        <time>2026-08-31T11:27:42Z</time>
      </trkpt>
      <trkpt lat="43.44194" lon="-0.35955">
        <ele>176.2</ele>
        <time>2026-08-31T11:27:43Z</time>
      </trkpt>
      <trkpt lat="43.44194" lon="-0.35957">
        <ele>176.2</ele>
        <time>2026-08-31T11:27:44Z</time>
      </trkpt>
      <trkpt lat="43.44195" lon="-0.35958">
        <ele>176.2</ele>
        <time>2026-08-31T11:27:45Z</time>
      </trkpt>
      <trkpt lat="43.44195" lon="-0.35959">
        <ele>176.2</ele>
        <time>2026-08-31T11:27:45Z</time>
      </trkpt>
      <trkpt lat="43.44196" lon="-0.3596">
        <ele>175.2</ele>
        <time>2026-08-31T11:27:46Z</time>
      </trkpt>
      <trkpt lat="43.44196" lon="-0.35961">
        <ele>175.2</ele>
        <time>2026-08-31T11:27:46Z</time>
      </trkpt>
      <trkpt lat="43.44197" lon="-0.35962">
        <ele>175.2</ele>
        <time>2026-08-31T11:27:47Z</time>
      </trkpt>
      <trkpt lat="43.44197" lon="-0.35963">
        <ele>175.2</ele>
        <time>2026-08-31T11:27:47Z</time>
      </trkpt>
      <trkpt lat="43.44198" lon="-0.35963">
        <ele>175.2</ele>
        <time>2026-08-31T11:27:48Z</time>
      </trkpt>
      <trkpt lat="43.44198" lon="-0.35965">
        <ele>175.2</ele>
        <time>2026-08-31T11:27:49Z</time>
      </trkpt>
      <trkpt lat="43.44199" lon="-0.35966">
        <ele>175.2</ele>
        <time>2026-08-31T11:27:49Z</time>
      </trkpt>
      <trkpt lat="43.44199" lon="-0.35967">
        <ele>175.2</ele>
        <time>2026-08-31T11:27:50Z</time>
      </trkpt>
      <trkpt lat="43.442" lon="-0.35968">
        <ele>175.2</ele>
        <time>2026-08-31T11:27:51Z</time>
      </trkpt>
      <trkpt lat="43.442" lon="-0.35969">
        <ele>175.2</ele>
        <time>2026-08-31T11:27:51Z</time>
      </trkpt>
      <trkpt lat="43.442" lon="-0.35969">
        <ele>175.2</ele>
        <time>2026-08-31T11:27:52Z</time>
      </trkpt>
      <trkpt lat="43.44201" lon="-0.35971">
        <ele>175.2</ele>
        <time>2026-08-31T11:27:52Z</time>
      </trkpt>
      <trkpt lat="43.44202" lon="-0.35972">
        <ele>175.2</ele>
        <time>2026-08-31T11:27:53Z</time>
      </trkpt>
      <trkpt lat="43.44203" lon="-0.35973">
        <ele>176.2</ele>
        <time>2026-08-31T11:27:54Z</time>
      </trkpt>
      <trkpt lat="43.44204" lon="-0.35974">
        <ele>176.2</ele>
        <time>2026-08-31T11:27:55Z</time>
      </trkpt>
      <trkpt lat="43.44204" lon="-0.35975">
        <ele>176.2</ele>
        <time>2026-08-31T11:27:55Z</time>
      </trkpt>
      <trkpt lat="43.44205" lon="-0.35975">
        <ele>176.2</ele>
        <time>2026-08-31T11:27:56Z</time>
      </trkpt>
      <trkpt lat="43.44205" lon="-0.35976">
        <ele>176.2</ele>
        <time>2026-08-31T11:27:56Z</time>
      </trkpt>
      <trkpt lat="43.44206" lon="-0.35977">
        <ele>175.2</ele>
        <time>2026-08-31T11:27:57Z</time>
      </trkpt>
      <trkpt lat="43.44206" lon="-0.35977">
        <ele>175.2</ele>
        <time>2026-08-31T11:27:58Z</time>
      </trkpt>
      <trkpt lat="43.44207" lon="-0.35978">
        <ele>176.2</ele>
        <time>2026-08-31T11:27:58Z</time>
      </trkpt>
      <trkpt lat="43.44207" lon="-0.35979">
        <ele>175.2</ele>
        <time>2026-08-31T11:27:59Z</time>
      </trkpt>
      <trkpt lat="43.44208" lon="-0.3598">
        <ele>175.2</ele>
        <time>2026-08-31T11:28:00Z</time>
      </trkpt>
      <trkpt lat="43.44209" lon="-0.3598">
        <ele>176.2</ele>
        <time>2026-08-31T11:28:00Z</time>
      </trkpt>
      <trkpt lat="43.44209" lon="-0.35981">
        <ele>175.2</ele>
        <time>2026-08-31T11:28:01Z</time>
      </trkpt>
      <trkpt lat="43.4421" lon="-0.35981">
        <ele>175.2</ele>
        <time>2026-08-31T11:28:01Z</time>
      </trkpt>
      <trkpt lat="43.44211" lon="-0.35982">
        <ele>175.2</ele>
        <time>2026-08-31T11:28:02Z</time>
      </trkpt>
      <trkpt lat="43.44211" lon="-0.35982">
        <ele>175.2</ele>
        <time>2026-08-31T11:28:02Z</time>
      </trkpt>
      <trkpt lat="43.44212" lon="-0.35983">
        <ele>176.2</ele>
        <time>2026-08-31T11:28:03Z</time>
      </trkpt>
      <trkpt lat="43.44212" lon="-0.35984">
        <ele>176.2</ele>
        <time>2026-08-31T11:28:03Z</time>
      </trkpt>
      <trkpt lat="43.44213" lon="-0.35984">
        <ele>176.2</ele>
        <time>2026-08-31T11:28:04Z</time>
      </trkpt>
      <trkpt lat="43.44214" lon="-0.35985">
        <ele>176.2</ele>
        <time>2026-08-31T11:28:04Z</time>
      </trkpt>
      <trkpt lat="43.44214" lon="-0.35986">
        <ele>176.2</ele>
        <time>2026-08-31T11:28:05Z</time>
      </trkpt>
      <trkpt lat="43.44215" lon="-0.35986">
        <ele>176.2</ele>
        <time>2026-08-31T11:28:05Z</time>
      </trkpt>
      <trkpt lat="43.44215" lon="-0.35987">
        <ele>176.2</ele>
        <time>2026-08-31T11:28:06Z</time>
      </trkpt>
      <trkpt lat="43.44216" lon="-0.35988">
        <ele>176.2</ele>
        <time>2026-08-31T11:28:07Z</time>
      </trkpt>
      <trkpt lat="43.44216" lon="-0.35989">
        <ele>176.2</ele>
        <time>2026-08-31T11:28:07Z</time>
      </trkpt>
      <trkpt lat="43.44217" lon="-0.35989">
        <ele>176.2</ele>
        <time>2026-08-31T11:28:08Z</time>
      </trkpt>
      <trkpt lat="43.44217" lon="-0.3599">
        <ele>175.2</ele>
        <time>2026-08-31T11:28:08Z</time>
      </trkpt>
      <trkpt lat="43.44218" lon="-0.35991">
        <ele>175.2</ele>
        <time>2026-08-31T11:28:09Z</time>
      </trkpt>
      <trkpt lat="43.44218" lon="-0.35992">
        <ele>175.2</ele>
        <time>2026-08-31T11:28:09Z</time>
      </trkpt>
      <trkpt lat="43.44218" lon="-0.35992">
        <ele>174.2</ele>
        <time>2026-08-31T11:28:10Z</time>
      </trkpt>
      <trkpt lat="43.44218" lon="-0.35993">
        <ele>174.2</ele>
        <time>2026-08-31T11:28:10Z</time>
      </trkpt>
      <trkpt lat="43.44218" lon="-0.35994">
        <ele>174.2</ele>
        <time>2026-08-31T11:28:11Z</time>
      </trkpt>
      <trkpt lat="43.44219" lon="-0.35995">
        <ele>174.2</ele>
        <time>2026-08-31T11:28:11Z</time>
      </trkpt>
      <trkpt lat="43.44219" lon="-0.35995">
        <ele>174.2</ele>
        <time>2026-08-31T11:28:12Z</time>
      </trkpt>
      <trkpt lat="43.4422" lon="-0.35996">
        <ele>174.2</ele>
        <time>2026-08-31T11:28:13Z</time>
      </trkpt>
      <trkpt lat="43.4422" lon="-0.35997">
        <ele>174.2</ele>
        <time>2026-08-31T11:28:13Z</time>
      </trkpt>
      <trkpt lat="43.44221" lon="-0.35998">
        <ele>174.2</ele>
        <time>2026-08-31T11:28:14Z</time>
      </trkpt>
      <trkpt lat="43.44221" lon="-0.35998">
        <ele>174.2</ele>
        <time>2026-08-31T11:28:14Z</time>
      </trkpt>
      <trkpt lat="43.44221" lon="-0.35999">
        <ele>174.2</ele>
        <time>2026-08-31T11:28:15Z</time>
      </trkpt>
      <trkpt lat="43.44222" lon="-0.36001">
        <ele>174.2</ele>
        <time>2026-08-31T11:28:16Z</time>
      </trkpt>
      <trkpt lat="43.44222" lon="-0.36002">
        <ele>174.2</ele>
        <time>2026-08-31T11:28:16Z</time>
      </trkpt>
      <trkpt lat="43.44223" lon="-0.36003">
        <ele>174.2</ele>
        <time>2026-08-31T11:28:17Z</time>
      </trkpt>
      <trkpt lat="43.44223" lon="-0.36004">
        <ele>174.2</ele>
        <time>2026-08-31T11:28:17Z</time>
      </trkpt>
      <trkpt lat="43.44223" lon="-0.36005">
        <ele>174.2</ele>
        <time>2026-08-31T11:28:18Z</time>
      </trkpt>
      <trkpt lat="43.44223" lon="-0.36005">
        <ele>174.2</ele>
        <time>2026-08-31T11:28:18Z</time>
      </trkpt>
      <trkpt lat="43.44224" lon="-0.36006">
        <ele>174.2</ele>
        <time>2026-08-31T11:28:19Z</time>
      </trkpt>
      <trkpt lat="43.44224" lon="-0.36007">
        <ele>174.2</ele>
        <time>2026-08-31T11:28:19Z</time>
      </trkpt>
      <trkpt lat="43.44225" lon="-0.36008">
        <ele>174.2</ele>
        <time>2026-08-31T11:28:20Z</time>
      </trkpt>
      <trkpt lat="43.44225" lon="-0.36009">
        <ele>174.2</ele>
        <time>2026-08-31T11:28:20Z</time>
      </trkpt>
      <trkpt lat="43.44225" lon="-0.3601">
        <ele>174.2</ele>
        <time>2026-08-31T11:28:21Z</time>
      </trkpt>
      <trkpt lat="43.44226" lon="-0.36011">
        <ele>174.2</ele>
        <time>2026-08-31T11:28:21Z</time>
      </trkpt>
      <trkpt lat="43.44226" lon="-0.36012">
        <ele>174.2</ele>
        <time>2026-08-31T11:28:22Z</time>
      </trkpt>
      <trkpt lat="43.44227" lon="-0.36013">
        <ele>174.2</ele>
        <time>2026-08-31T11:28:23Z</time>
      </trkpt>
      <trkpt lat="43.44227" lon="-0.36014">
        <ele>174.2</ele>
        <time>2026-08-31T11:28:24Z</time>
      </trkpt>
      <trkpt lat="43.44228" lon="-0.36015">
        <ele>173.2</ele>
        <time>2026-08-31T11:28:24Z</time>
      </trkpt>
      <trkpt lat="43.44228" lon="-0.36016">
        <ele>173.2</ele>
        <time>2026-08-31T11:28:25Z</time>
      </trkpt>
      <trkpt lat="43.44228" lon="-0.36017">
        <ele>173.2</ele>
        <time>2026-08-31T11:28:25Z</time>
      </trkpt>
      <trkpt lat="43.44229" lon="-0.36017">
        <ele>173.2</ele>
        <time>2026-08-31T11:28:26Z</time>
      </trkpt>
      <trkpt lat="43.44229" lon="-0.36018">
        <ele>173.2</ele>
        <time>2026-08-31T11:28:26Z</time>
      </trkpt>
      <trkpt lat="43.4423" lon="-0.36018">
        <ele>173.2</ele>
        <time>2026-08-31T11:28:27Z</time>
      </trkpt>
      <trkpt lat="43.4423" lon="-0.36019">
        <ele>173.2</ele>
        <time>2026-08-31T11:28:27Z</time>
      </trkpt>
      <trkpt lat="43.4423" lon="-0.3602">
        <ele>172.2</ele>
        <time>2026-08-31T11:28:28Z</time>
      </trkpt>
      <trkpt lat="43.44231" lon="-0.36021">
        <ele>172.2</ele>
        <time>2026-08-31T11:28:28Z</time>
      </trkpt>
      <trkpt lat="43.44231" lon="-0.36022">
        <ele>172.2</ele>
        <time>2026-08-31T11:28:29Z</time>
      </trkpt>
      <trkpt lat="43.44232" lon="-0.36023">
        <ele>172.2</ele>
        <time>2026-08-31T11:28:29Z</time>
      </trkpt>
      <trkpt lat="43.44232" lon="-0.36024">
        <ele>172.2</ele>
        <time>2026-08-31T11:28:30Z</time>
      </trkpt>
      <trkpt lat="43.44233" lon="-0.36025">
        <ele>172.2</ele>
        <time>2026-08-31T11:28:31Z</time>
      </trkpt>
      <trkpt lat="43.44234" lon="-0.36026">
        <ele>172.2</ele>
        <time>2026-08-31T11:28:32Z</time>
      </trkpt>
      <trkpt lat="43.44235" lon="-0.36027">
        <ele>172.2</ele>
        <time>2026-08-31T11:28:33Z</time>
      </trkpt>
      <trkpt lat="43.44235" lon="-0.36028">
        <ele>172.2</ele>
        <time>2026-08-31T11:28:33Z</time>
      </trkpt>
      <trkpt lat="43.44236" lon="-0.36029">
        <ele>172.2</ele>
        <time>2026-08-31T11:28:34Z</time>
      </trkpt>
      <trkpt lat="43.44236" lon="-0.36029">
        <ele>172.2</ele>
        <time>2026-08-31T11:28:34Z</time>
      </trkpt>
      <trkpt lat="43.44237" lon="-0.3603">
        <ele>173.2</ele>
        <time>2026-08-31T11:28:35Z</time>
      </trkpt>
      <trkpt lat="43.44237" lon="-0.36031">
        <ele>173.2</ele>
        <time>2026-08-31T11:28:35Z</time>
      </trkpt>
      <trkpt lat="43.44238" lon="-0.36031">
        <ele>173.2</ele>
        <time>2026-08-31T11:28:36Z</time>
      </trkpt>
      <trkpt lat="43.44239" lon="-0.36032">
        <ele>173.2</ele>
        <time>2026-08-31T11:28:36Z</time>
      </trkpt>
      <trkpt lat="43.4424" lon="-0.36033">
        <ele>173.2</ele>
        <time>2026-08-31T11:28:37Z</time>
      </trkpt>
      <trkpt lat="43.4424" lon="-0.36033">
        <ele>173.2</ele>
        <time>2026-08-31T11:28:37Z</time>
      </trkpt>
      <trkpt lat="43.44241" lon="-0.36034">
        <ele>173.2</ele>
        <time>2026-08-31T11:28:38Z</time>
      </trkpt>
      <trkpt lat="43.44242" lon="-0.36034">
        <ele>173.2</ele>
        <time>2026-08-31T11:28:39Z</time>
      </trkpt>
      <trkpt lat="43.44242" lon="-0.36035">
        <ele>173.2</ele>
        <time>2026-08-31T11:28:39Z</time>
      </trkpt>
      <trkpt lat="43.44243" lon="-0.36036">
        <ele>173.2</ele>
        <time>2026-08-31T11:28:40Z</time>
      </trkpt>
      <trkpt lat="43.44244" lon="-0.36036">
        <ele>173.2</ele>
        <time>2026-08-31T11:28:41Z</time>
      </trkpt>
      <trkpt lat="43.44244" lon="-0.36037">
        <ele>174.2</ele>
        <time>2026-08-31T11:28:41Z</time>
      </trkpt>
      <trkpt lat="43.44245" lon="-0.36038">
        <ele>174.2</ele>
        <time>2026-08-31T11:28:42Z</time>
      </trkpt>
      <trkpt lat="43.44246" lon="-0.36039">
        <ele>174.2</ele>
        <time>2026-08-31T11:28:43Z</time>
      </trkpt>
      <trkpt lat="43.44247" lon="-0.3604">
        <ele>174.2</ele>
        <time>2026-08-31T11:28:43Z</time>
      </trkpt>
      <trkpt lat="43.44247" lon="-0.3604">
        <ele>174.2</ele>
        <time>2026-08-31T11:28:44Z</time>
      </trkpt>
      <trkpt lat="43.44248" lon="-0.36041">
        <ele>173.2</ele>
        <time>2026-08-31T11:28:45Z</time>
      </trkpt>
      <trkpt lat="43.44249" lon="-0.36042">
        <ele>173.2</ele>
        <time>2026-08-31T11:28:46Z</time>
      </trkpt>
      <trkpt lat="43.4425" lon="-0.36043">
        <ele>173.2</ele>
        <time>2026-08-31T11:28:46Z</time>
      </trkpt>
      <trkpt lat="43.4425" lon="-0.36043">
        <ele>173.2</ele>
        <time>2026-08-31T11:28:47Z</time>
      </trkpt>
      <trkpt lat="43.44251" lon="-0.36044">
        <ele>173.2</ele>
        <time>2026-08-31T11:28:48Z</time>
      </trkpt>
      <trkpt lat="43.44251" lon="-0.36044">
        <ele>173.2</ele>
        <time>2026-08-31T11:28:48Z</time>
      </trkpt>
      <trkpt lat="43.44252" lon="-0.36045">
        <ele>173.2</ele>
        <time>2026-08-31T11:28:49Z</time>
      </trkpt>
      <trkpt lat="43.44253" lon="-0.36045">
        <ele>173.2</ele>
        <time>2026-08-31T11:28:49Z</time>
      </trkpt>
      <trkpt lat="43.44253" lon="-0.36046">
        <ele>173.2</ele>
        <time>2026-08-31T11:28:50Z</time>
      </trkpt>
      <trkpt lat="43.44254" lon="-0.36046">
        <ele>173.2</ele>
        <time>2026-08-31T11:28:50Z</time>
      </trkpt>
      <trkpt lat="43.44255" lon="-0.36047">
        <ele>173.2</ele>
        <time>2026-08-31T11:28:51Z</time>
      </trkpt>
      <trkpt lat="43.44255" lon="-0.36047">
        <ele>173.2</ele>
        <time>2026-08-31T11:28:51Z</time>
      </trkpt>
      <trkpt lat="43.44256" lon="-0.36048">
        <ele>173.2</ele>
        <time>2026-08-31T11:28:52Z</time>
      </trkpt>
      <trkpt lat="43.44256" lon="-0.36048">
        <ele>173.2</ele>
        <time>2026-08-31T11:28:52Z</time>
      </trkpt>
      <trkpt lat="43.44257" lon="-0.36049">
        <ele>173.2</ele>
        <time>2026-08-31T11:28:53Z</time>
      </trkpt>
      <trkpt lat="43.44258" lon="-0.36049">
        <ele>173.2</ele>
        <time>2026-08-31T11:28:53Z</time>
      </trkpt>
      <trkpt lat="43.44258" lon="-0.3605">
        <ele>173.2</ele>
        <time>2026-08-31T11:28:54Z</time>
      </trkpt>
      <trkpt lat="43.44259" lon="-0.3605">
        <ele>173.2</ele>
        <time>2026-08-31T11:28:54Z</time>
      </trkpt>
      <trkpt lat="43.4426" lon="-0.36051">
        <ele>173.2</ele>
        <time>2026-08-31T11:28:55Z</time>
      </trkpt>
      <trkpt lat="43.4426" lon="-0.36051">
        <ele>173.2</ele>
        <time>2026-08-31T11:28:55Z</time>
      </trkpt>
      <trkpt lat="43.44261" lon="-0.36052">
        <ele>173.2</ele>
        <time>2026-08-31T11:28:56Z</time>
      </trkpt>
      <trkpt lat="43.44261" lon="-0.36052">
        <ele>173.2</ele>
        <time>2026-08-31T11:28:56Z</time>
      </trkpt>
      <trkpt lat="43.44262" lon="-0.36053">
        <ele>173.2</ele>
        <time>2026-08-31T11:28:57Z</time>
      </trkpt>
      <trkpt lat="43.44263" lon="-0.36053">
        <ele>173.2</ele>
        <time>2026-08-31T11:28:58Z</time>
      </trkpt>
      <trkpt lat="43.44264" lon="-0.36054">
        <ele>174.2</ele>
        <time>2026-08-31T11:28:59Z</time>
      </trkpt>
      <trkpt lat="43.44265" lon="-0.36054">
        <ele>174.2</ele>
        <time>2026-08-31T11:29:00Z</time>
      </trkpt>
      <trkpt lat="43.44266" lon="-0.36055">
        <ele>173.2</ele>
        <time>2026-08-31T11:29:00Z</time>
      </trkpt>
      <trkpt lat="43.44266" lon="-0.36055">
        <ele>173.2</ele>
        <time>2026-08-31T11:29:01Z</time>
      </trkpt>
      <trkpt lat="43.44267" lon="-0.36055">
        <ele>173.2</ele>
        <time>2026-08-31T11:29:01Z</time>
      </trkpt>
      <trkpt lat="43.44268" lon="-0.36056">
        <ele>173.2</ele>
        <time>2026-08-31T11:29:02Z</time>
      </trkpt>
      <trkpt lat="43.44268" lon="-0.36056">
        <ele>173.2</ele>
        <time>2026-08-31T11:29:02Z</time>
      </trkpt>
      <trkpt lat="43.44269" lon="-0.36056">
        <ele>173.2</ele>
        <time>2026-08-31T11:29:03Z</time>
      </trkpt>
      <trkpt lat="43.4427" lon="-0.36056">
        <ele>173.2</ele>
        <time>2026-08-31T11:29:03Z</time>
      </trkpt>
      <trkpt lat="43.4427" lon="-0.36057">
        <ele>173.2</ele>
        <time>2026-08-31T11:29:04Z</time>
      </trkpt>
      <trkpt lat="43.44271" lon="-0.36057">
        <ele>173.2</ele>
        <time>2026-08-31T11:29:04Z</time>
      </trkpt>
      <trkpt lat="43.44272" lon="-0.36057">
        <ele>173.2</ele>
        <time>2026-08-31T11:29:05Z</time>
      </trkpt>
      <trkpt lat="43.44272" lon="-0.36057">
        <ele>173.2</ele>
        <time>2026-08-31T11:29:05Z</time>
      </trkpt>
      <trkpt lat="43.44273" lon="-0.36057">
        <ele>173.2</ele>
        <time>2026-08-31T11:29:06Z</time>
      </trkpt>
      <trkpt lat="43.44274" lon="-0.36058">
        <ele>173.2</ele>
        <time>2026-08-31T11:29:06Z</time>
      </trkpt>
      <trkpt lat="43.44274" lon="-0.36058">
        <ele>173.2</ele>
        <time>2026-08-31T11:29:07Z</time>
      </trkpt>
      <trkpt lat="43.44275" lon="-0.36058">
        <ele>173.2</ele>
        <time>2026-08-31T11:29:08Z</time>
      </trkpt>
      <trkpt lat="43.44275" lon="-0.36057">
        <ele>173.2</ele>
        <time>2026-08-31T11:29:08Z</time>
      </trkpt>
      <trkpt lat="43.44276" lon="-0.36058">
        <ele>173.2</ele>
        <time>2026-08-31T11:29:09Z</time>
      </trkpt>
      <trkpt lat="43.44276" lon="-0.36058">
        <ele>173.2</ele>
        <time>2026-08-31T11:29:09Z</time>
      </trkpt>
      <trkpt lat="43.44277" lon="-0.36058">
        <ele>173.2</ele>
        <time>2026-08-31T11:29:10Z</time>
      </trkpt>
      <trkpt lat="43.44278" lon="-0.36058">
        <ele>172.2</ele>
        <time>2026-08-31T11:29:10Z</time>
      </trkpt>
      <trkpt lat="43.44278" lon="-0.36058">
        <ele>173.2</ele>
        <time>2026-08-31T11:29:11Z</time>
      </trkpt>
      <trkpt lat="43.44279" lon="-0.36057">
        <ele>173.2</ele>
        <time>2026-08-31T11:29:11Z</time>
      </trkpt>
      <trkpt lat="43.4428" lon="-0.36057">
        <ele>172.2</ele>
        <time>2026-08-31T11:29:12Z</time>
      </trkpt>
      <trkpt lat="43.4428" lon="-0.36057">
        <ele>172.2</ele>
        <time>2026-08-31T11:29:12Z</time>
      </trkpt>
      <trkpt lat="43.44281" lon="-0.36057">
        <ele>172.2</ele>
        <time>2026-08-31T11:29:13Z</time>
      </trkpt>
      <trkpt lat="43.44282" lon="-0.36057">
        <ele>172.2</ele>
        <time>2026-08-31T11:29:13Z</time>
      </trkpt>
      <trkpt lat="43.44282" lon="-0.36057">
        <ele>172.2</ele>
        <time>2026-08-31T11:29:14Z</time>
      </trkpt>
      <trkpt lat="43.44283" lon="-0.36057">
        <ele>172.2</ele>
        <time>2026-08-31T11:29:14Z</time>
      </trkpt>
      <trkpt lat="43.44283" lon="-0.36056">
        <ele>172.2</ele>
        <time>2026-08-31T11:29:15Z</time>
      </trkpt>
      <trkpt lat="43.44284" lon="-0.36056">
        <ele>172.2</ele>
        <time>2026-08-31T11:29:15Z</time>
      </trkpt>
      <trkpt lat="43.44285" lon="-0.36056">
        <ele>172.2</ele>
        <time>2026-08-31T11:29:16Z</time>
      </trkpt>
      <trkpt lat="43.44285" lon="-0.36056">
        <ele>172.2</ele>
        <time>2026-08-31T11:29:16Z</time>
      </trkpt>
      <trkpt lat="43.44286" lon="-0.36055">
        <ele>171.2</ele>
        <time>2026-08-31T11:29:17Z</time>
      </trkpt>
      <trkpt lat="43.44286" lon="-0.36055">
        <ele>171.2</ele>
        <time>2026-08-31T11:29:18Z</time>
      </trkpt>
      <trkpt lat="43.44287" lon="-0.36054">
        <ele>171.2</ele>
        <time>2026-08-31T11:29:18Z</time>
      </trkpt>
      <trkpt lat="43.44288" lon="-0.36054">
        <ele>171.2</ele>
        <time>2026-08-31T11:29:19Z</time>
      </trkpt>
      <trkpt lat="43.44288" lon="-0.36054">
        <ele>171.2</ele>
        <time>2026-08-31T11:29:19Z</time>
      </trkpt>
      <trkpt lat="43.44289" lon="-0.36053">
        <ele>171.2</ele>
        <time>2026-08-31T11:29:20Z</time>
      </trkpt>
      <trkpt lat="43.44289" lon="-0.36053">
        <ele>170.2</ele>
        <time>2026-08-31T11:29:20Z</time>
      </trkpt>
      <trkpt lat="43.4429" lon="-0.36053">
        <ele>170.2</ele>
        <time>2026-08-31T11:29:21Z</time>
      </trkpt>
      <trkpt lat="43.4429" lon="-0.36052">
        <ele>170.2</ele>
        <time>2026-08-31T11:29:21Z</time>
      </trkpt>
      <trkpt lat="43.44291" lon="-0.36052">
        <ele>170.2</ele>
        <time>2026-08-31T11:29:22Z</time>
      </trkpt>
      <trkpt lat="43.44291" lon="-0.36052">
        <ele>170.2</ele>
        <time>2026-08-31T11:29:22Z</time>
      </trkpt>
      <trkpt lat="43.44292" lon="-0.36051">
        <ele>169.2</ele>
        <time>2026-08-31T11:29:23Z</time>
      </trkpt>
      <trkpt lat="43.44292" lon="-0.36051">
        <ele>169.2</ele>
        <time>2026-08-31T11:29:23Z</time>
      </trkpt>
      <trkpt lat="43.44293" lon="-0.3605">
        <ele>169.2</ele>
        <time>2026-08-31T11:29:24Z</time>
      </trkpt>
      <trkpt lat="43.44293" lon="-0.36049">
        <ele>169.2</ele>
        <time>2026-08-31T11:29:24Z</time>
      </trkpt>
      <trkpt lat="43.44294" lon="-0.36049">
        <ele>169.2</ele>
        <time>2026-08-31T11:29:25Z</time>
      </trkpt>
      <trkpt lat="43.44295" lon="-0.36049">
        <ele>169.2</ele>
        <time>2026-08-31T11:29:26Z</time>
      </trkpt>
      <trkpt lat="43.44295" lon="-0.36048">
        <ele>169.2</ele>
        <time>2026-08-31T11:29:26Z</time>
      </trkpt>
      <trkpt lat="43.44296" lon="-0.36048">
        <ele>169.2</ele>
        <time>2026-08-31T11:29:27Z</time>
      </trkpt>
      <trkpt lat="43.44296" lon="-0.36047">
        <ele>169.2</ele>
        <time>2026-08-31T11:29:27Z</time>
      </trkpt>
      <trkpt lat="43.44297" lon="-0.36047">
        <ele>169.2</ele>
        <time>2026-08-31T11:29:28Z</time>
      </trkpt>
      <trkpt lat="43.44297" lon="-0.36046">
        <ele>169.2</ele>
        <time>2026-08-31T11:29:28Z</time>
      </trkpt>
      <trkpt lat="43.44298" lon="-0.36046">
        <ele>169.2</ele>
        <time>2026-08-31T11:29:29Z</time>
      </trkpt>
      <trkpt lat="43.44298" lon="-0.36046">
        <ele>169.2</ele>
        <time>2026-08-31T11:29:29Z</time>
      </trkpt>
      <trkpt lat="43.44299" lon="-0.36046">
        <ele>169.2</ele>
        <time>2026-08-31T11:29:30Z</time>
      </trkpt>
      <trkpt lat="43.443" lon="-0.36045">
        <ele>169.2</ele>
        <time>2026-08-31T11:29:30Z</time>
      </trkpt>
      <trkpt lat="43.443" lon="-0.36045">
        <ele>169.2</ele>
        <time>2026-08-31T11:29:31Z</time>
      </trkpt>
      <trkpt lat="43.44301" lon="-0.36045">
        <ele>169.2</ele>
        <time>2026-08-31T11:29:31Z</time>
      </trkpt>
      <trkpt lat="43.44302" lon="-0.36045">
        <ele>169.2</ele>
        <time>2026-08-31T11:29:32Z</time>
      </trkpt>
      <trkpt lat="43.44303" lon="-0.36045">
        <ele>169.2</ele>
        <time>2026-08-31T11:29:33Z</time>
      </trkpt>
      <trkpt lat="43.44304" lon="-0.36045">
        <ele>169.2</ele>
        <time>2026-08-31T11:29:33Z</time>
      </trkpt>
      <trkpt lat="43.44305" lon="-0.36046">
        <ele>169.2</ele>
        <time>2026-08-31T11:29:34Z</time>
      </trkpt>
      <trkpt lat="43.44306" lon="-0.36046">
        <ele>169.2</ele>
        <time>2026-08-31T11:29:34Z</time>
      </trkpt>
      <trkpt lat="43.44307" lon="-0.36046">
        <ele>169.2</ele>
        <time>2026-08-31T11:29:35Z</time>
      </trkpt>
      <trkpt lat="43.44307" lon="-0.36047">
        <ele>169.2</ele>
        <time>2026-08-31T11:29:36Z</time>
      </trkpt>
      <trkpt lat="43.44308" lon="-0.36047">
        <ele>169.2</ele>
        <time>2026-08-31T11:29:36Z</time>
      </trkpt>
      <trkpt lat="43.44309" lon="-0.36047">
        <ele>169.2</ele>
        <time>2026-08-31T11:29:37Z</time>
      </trkpt>
      <trkpt lat="43.4431" lon="-0.36047">
        <ele>169.2</ele>
        <time>2026-08-31T11:29:37Z</time>
      </trkpt>
      <trkpt lat="43.4431" lon="-0.36048">
        <ele>169.2</ele>
        <time>2026-08-31T11:29:38Z</time>
      </trkpt>
      <trkpt lat="43.44311" lon="-0.36048">
        <ele>169.2</ele>
        <time>2026-08-31T11:29:38Z</time>
      </trkpt>
      <trkpt lat="43.44312" lon="-0.36048">
        <ele>169.2</ele>
        <time>2026-08-31T11:29:39Z</time>
      </trkpt>
      <trkpt lat="43.44313" lon="-0.36049">
        <ele>169.2</ele>
        <time>2026-08-31T11:29:39Z</time>
      </trkpt>
      <trkpt lat="43.44313" lon="-0.36049">
        <ele>170.2</ele>
        <time>2026-08-31T11:29:40Z</time>
      </trkpt>
      <trkpt lat="43.44314" lon="-0.3605">
        <ele>170.2</ele>
        <time>2026-08-31T11:29:40Z</time>
      </trkpt>
      <trkpt lat="43.44315" lon="-0.3605">
        <ele>170.2</ele>
        <time>2026-08-31T11:29:41Z</time>
      </trkpt>
      <trkpt lat="43.44315" lon="-0.3605">
        <ele>170.2</ele>
        <time>2026-08-31T11:29:41Z</time>
      </trkpt>
      <trkpt lat="43.44316" lon="-0.36051">
        <ele>170.2</ele>
        <time>2026-08-31T11:29:42Z</time>
      </trkpt>
      <trkpt lat="43.44317" lon="-0.36051">
        <ele>170.2</ele>
        <time>2026-08-31T11:29:42Z</time>
      </trkpt>
      <trkpt lat="43.44317" lon="-0.36051">
        <ele>170.2</ele>
        <time>2026-08-31T11:29:43Z</time>
      </trkpt>
      <trkpt lat="43.44318" lon="-0.36051">
        <ele>170.2</ele>
        <time>2026-08-31T11:29:43Z</time>
      </trkpt>
      <trkpt lat="43.44319" lon="-0.36051">
        <ele>170.2</ele>
        <time>2026-08-31T11:29:44Z</time>
      </trkpt>
      <trkpt lat="43.4432" lon="-0.36052">
        <ele>170.2</ele>
        <time>2026-08-31T11:29:45Z</time>
      </trkpt>
      <trkpt lat="43.44321" lon="-0.36052">
        <ele>170.2</ele>
        <time>2026-08-31T11:29:46Z</time>
      </trkpt>
      <trkpt lat="43.44322" lon="-0.36053">
        <ele>170.2</ele>
        <time>2026-08-31T11:29:46Z</time>
      </trkpt>
      <trkpt lat="43.44322" lon="-0.36053">
        <ele>170.2</ele>
        <time>2026-08-31T11:29:47Z</time>
      </trkpt>
      <trkpt lat="43.44323" lon="-0.36053">
        <ele>170.2</ele>
        <time>2026-08-31T11:29:47Z</time>
      </trkpt>
      <trkpt lat="43.44324" lon="-0.36054">
        <ele>170.2</ele>
        <time>2026-08-31T11:29:48Z</time>
      </trkpt>
      <trkpt lat="43.44324" lon="-0.36054">
        <ele>170.2</ele>
        <time>2026-08-31T11:29:48Z</time>
      </trkpt>
      <trkpt lat="43.44325" lon="-0.36054">
        <ele>169.2</ele>
        <time>2026-08-31T11:29:49Z</time>
      </trkpt>
      <trkpt lat="43.44326" lon="-0.36055">
        <ele>169.2</ele>
        <time>2026-08-31T11:29:49Z</time>
      </trkpt>
      <trkpt lat="43.44326" lon="-0.36055">
        <ele>169.2</ele>
        <time>2026-08-31T11:29:50Z</time>
      </trkpt>
      <trkpt lat="43.44327" lon="-0.36056">
        <ele>169.2</ele>
        <time>2026-08-31T11:29:50Z</time>
      </trkpt>
      <trkpt lat="43.44327" lon="-0.36056">
        <ele>168.2</ele>
        <time>2026-08-31T11:29:51Z</time>
      </trkpt>
      <trkpt lat="43.44328" lon="-0.36056">
        <ele>168.2</ele>
        <time>2026-08-31T11:29:51Z</time>
      </trkpt>
      <trkpt lat="43.44328" lon="-0.36057">
        <ele>168.2</ele>
        <time>2026-08-31T11:29:52Z</time>
      </trkpt>
      <trkpt lat="43.44329" lon="-0.36057">
        <ele>168.2</ele>
        <time>2026-08-31T11:29:52Z</time>
      </trkpt>
      <trkpt lat="43.4433" lon="-0.36057">
        <ele>168.2</ele>
        <time>2026-08-31T11:29:53Z</time>
      </trkpt>
      <trkpt lat="43.4433" lon="-0.36058">
        <ele>167.2</ele>
        <time>2026-08-31T11:29:54Z</time>
      </trkpt>
      <trkpt lat="43.44331" lon="-0.36058">
        <ele>167.2</ele>
        <time>2026-08-31T11:29:54Z</time>
      </trkpt>
      <trkpt lat="43.44332" lon="-0.36059">
        <ele>167.2</ele>
        <time>2026-08-31T11:29:55Z</time>
      </trkpt>
      <trkpt lat="43.44332" lon="-0.36059">
        <ele>167.2</ele>
        <time>2026-08-31T11:29:56Z</time>
      </trkpt>
      <trkpt lat="43.44333" lon="-0.36059">
        <ele>167.2</ele>
        <time>2026-08-31T11:29:56Z</time>
      </trkpt>
      <trkpt lat="43.44333" lon="-0.3606">
        <ele>167.2</ele>
        <time>2026-08-31T11:29:57Z</time>
      </trkpt>
      <trkpt lat="43.44334" lon="-0.3606">
        <ele>166.2</ele>
        <time>2026-08-31T11:29:57Z</time>
      </trkpt>
      <trkpt lat="43.44334" lon="-0.3606">
        <ele>166.2</ele>
        <time>2026-08-31T11:29:58Z</time>
      </trkpt>
      <trkpt lat="43.44335" lon="-0.36061">
        <ele>166.2</ele>
        <time>2026-08-31T11:29:58Z</time>
      </trkpt>
      <trkpt lat="43.44335" lon="-0.36061">
        <ele>166.2</ele>
        <time>2026-08-31T11:29:59Z</time>
      </trkpt>
      <trkpt lat="43.44336" lon="-0.36061">
        <ele>166.2</ele>
        <time>2026-08-31T11:29:59Z</time>
      </trkpt>
      <trkpt lat="43.44336" lon="-0.36061">
        <ele>166.2</ele>
        <time>2026-08-31T11:30:00Z</time>
      </trkpt>
      <trkpt lat="43.44337" lon="-0.36062">
        <ele>166.2</ele>
        <time>2026-08-31T11:30:00Z</time>
      </trkpt>
      <trkpt lat="43.44338" lon="-0.36062">
        <ele>166.2</ele>
        <time>2026-08-31T11:30:01Z</time>
      </trkpt>
      <trkpt lat="43.44338" lon="-0.36062">
        <ele>166.2</ele>
        <time>2026-08-31T11:30:01Z</time>
      </trkpt>
      <trkpt lat="43.44339" lon="-0.36062">
        <ele>166.2</ele>
        <time>2026-08-31T11:30:02Z</time>
      </trkpt>
      <trkpt lat="43.44339" lon="-0.36062">
        <ele>166.2</ele>
        <time>2026-08-31T11:30:03Z</time>
      </trkpt>
      <trkpt lat="43.4434" lon="-0.36062">
        <ele>166.2</ele>
        <time>2026-08-31T11:30:03Z</time>
      </trkpt>
      <trkpt lat="43.44341" lon="-0.36062">
        <ele>166.2</ele>
        <time>2026-08-31T11:30:04Z</time>
      </trkpt>
      <trkpt lat="43.44341" lon="-0.36063">
        <ele>166.2</ele>
        <time>2026-08-31T11:30:04Z</time>
      </trkpt>
      <trkpt lat="43.44342" lon="-0.36063">
        <ele>166.2</ele>
        <time>2026-08-31T11:30:05Z</time>
      </trkpt>
      <trkpt lat="43.44342" lon="-0.36063">
        <ele>166.2</ele>
        <time>2026-08-31T11:30:05Z</time>
      </trkpt>
      <trkpt lat="43.44343" lon="-0.36063">
        <ele>166.2</ele>
        <time>2026-08-31T11:30:06Z</time>
      </trkpt>
      <trkpt lat="43.44343" lon="-0.36063">
        <ele>166.2</ele>
        <time>2026-08-31T11:30:06Z</time>
      </trkpt>
      <trkpt lat="43.44344" lon="-0.36064">
        <ele>166.2</ele>
        <time>2026-08-31T11:30:07Z</time>
      </trkpt>
      <trkpt lat="43.44345" lon="-0.36064">
        <ele>166.2</ele>
        <time>2026-08-31T11:30:07Z</time>
      </trkpt>
      <trkpt lat="43.44346" lon="-0.36064">
        <ele>166.2</ele>
        <time>2026-08-31T11:30:08Z</time>
      </trkpt>
      <trkpt lat="43.44346" lon="-0.36064">
        <ele>166.2</ele>
        <time>2026-08-31T11:30:09Z</time>
      </trkpt>
      <trkpt lat="43.44347" lon="-0.36064">
        <ele>166.2</ele>
        <time>2026-08-31T11:30:09Z</time>
      </trkpt>
      <trkpt lat="43.44347" lon="-0.36064">
        <ele>166.2</ele>
        <time>2026-08-31T11:30:10Z</time>
      </trkpt>
      <trkpt lat="43.44348" lon="-0.36065">
        <ele>166.2</ele>
        <time>2026-08-31T11:30:11Z</time>
      </trkpt>
      <trkpt lat="43.44349" lon="-0.36065">
        <ele>166.2</ele>
        <time>2026-08-31T11:30:11Z</time>
      </trkpt>
      <trkpt lat="43.44349" lon="-0.36065">
        <ele>166.2</ele>
        <time>2026-08-31T11:30:12Z</time>
      </trkpt>
      <trkpt lat="43.4435" lon="-0.36065">
        <ele>166.2</ele>
        <time>2026-08-31T11:30:12Z</time>
      </trkpt>
      <trkpt lat="43.4435" lon="-0.36065">
        <ele>166.2</ele>
        <time>2026-08-31T11:30:13Z</time>
      </trkpt>
      <trkpt lat="43.44351" lon="-0.36065">
        <ele>166.2</ele>
        <time>2026-08-31T11:30:13Z</time>
      </trkpt>
      <trkpt lat="43.44352" lon="-0.36065">
        <ele>166.2</ele>
        <time>2026-08-31T11:30:14Z</time>
      </trkpt>
      <trkpt lat="43.44352" lon="-0.36065">
        <ele>166.2</ele>
        <time>2026-08-31T11:30:14Z</time>
      </trkpt>
      <trkpt lat="43.44353" lon="-0.36066">
        <ele>166.2</ele>
        <time>2026-08-31T11:30:15Z</time>
      </trkpt>
      <trkpt lat="43.44353" lon="-0.36066">
        <ele>166.2</ele>
        <time>2026-08-31T11:30:15Z</time>
      </trkpt>
      <trkpt lat="43.44354" lon="-0.36066">
        <ele>165.2</ele>
        <time>2026-08-31T11:30:16Z</time>
      </trkpt>
      <trkpt lat="43.44355" lon="-0.36066">
        <ele>165.2</ele>
        <time>2026-08-31T11:30:17Z</time>
      </trkpt>
      <trkpt lat="43.44355" lon="-0.36067">
        <ele>165.2</ele>
        <time>2026-08-31T11:30:17Z</time>
      </trkpt>
      <trkpt lat="43.44356" lon="-0.36067">
        <ele>165.2</ele>
        <time>2026-08-31T11:30:18Z</time>
      </trkpt>
      <trkpt lat="43.44357" lon="-0.36068">
        <ele>165.2</ele>
        <time>2026-08-31T11:30:19Z</time>
      </trkpt>
      <trkpt lat="43.44357" lon="-0.36068">
        <ele>164.2</ele>
        <time>2026-08-31T11:30:19Z</time>
      </trkpt>
      <trkpt lat="43.44358" lon="-0.36069">
        <ele>164.2</ele>
        <time>2026-08-31T11:30:20Z</time>
      </trkpt>
      <trkpt lat="43.44358" lon="-0.36069">
        <ele>164.2</ele>
        <time>2026-08-31T11:30:20Z</time>
      </trkpt>
      <trkpt lat="43.44359" lon="-0.36069">
        <ele>164.2</ele>
        <time>2026-08-31T11:30:21Z</time>
      </trkpt>
      <trkpt lat="43.44359" lon="-0.3607">
        <ele>163.2</ele>
        <time>2026-08-31T11:30:21Z</time>
      </trkpt>
      <trkpt lat="43.4436" lon="-0.3607">
        <ele>163.2</ele>
        <time>2026-08-31T11:30:22Z</time>
      </trkpt>
      <trkpt lat="43.44361" lon="-0.36071">
        <ele>163.2</ele>
        <time>2026-08-31T11:30:23Z</time>
      </trkpt>
      <trkpt lat="43.44362" lon="-0.36071">
        <ele>162.2</ele>
        <time>2026-08-31T11:30:23Z</time>
      </trkpt>
      <trkpt lat="43.44362" lon="-0.36071">
        <ele>162.2</ele>
        <time>2026-08-31T11:30:24Z</time>
      </trkpt>
      <trkpt lat="43.44363" lon="-0.36071">
        <ele>162.2</ele>
        <time>2026-08-31T11:30:24Z</time>
      </trkpt>
      <trkpt lat="43.44363" lon="-0.36071">
        <ele>162.2</ele>
        <time>2026-08-31T11:30:25Z</time>
      </trkpt>
      <trkpt lat="43.44364" lon="-0.36071">
        <ele>162.2</ele>
        <time>2026-08-31T11:30:25Z</time>
      </trkpt>
      <trkpt lat="43.44365" lon="-0.36071">
        <ele>162.2</ele>
        <time>2026-08-31T11:30:26Z</time>
      </trkpt>
      <trkpt lat="43.44365" lon="-0.36071">
        <ele>162.2</ele>
        <time>2026-08-31T11:30:26Z</time>
      </trkpt>
      <trkpt lat="43.44366" lon="-0.36071">
        <ele>162.2</ele>
        <time>2026-08-31T11:30:27Z</time>
      </trkpt>
      <trkpt lat="43.44367" lon="-0.36072">
        <ele>162.2</ele>
        <time>2026-08-31T11:30:27Z</time>
      </trkpt>
      <trkpt lat="43.44367" lon="-0.36072">
        <ele>162.2</ele>
        <time>2026-08-31T11:30:28Z</time>
      </trkpt>
      <trkpt lat="43.44368" lon="-0.36072">
        <ele>162.2</ele>
        <time>2026-08-31T11:30:29Z</time>
      </trkpt>
      <trkpt lat="43.44368" lon="-0.36073">
        <ele>162.2</ele>
        <time>2026-08-31T11:30:29Z</time>
      </trkpt>
      <trkpt lat="43.44369" lon="-0.36073">
        <ele>162.2</ele>
        <time>2026-08-31T11:30:30Z</time>
      </trkpt>
      <trkpt lat="43.4437" lon="-0.36074">
        <ele>162.2</ele>
        <time>2026-08-31T11:30:30Z</time>
      </trkpt>
      <trkpt lat="43.4437" lon="-0.36075">
        <ele>162.2</ele>
        <time>2026-08-31T11:30:31Z</time>
      </trkpt>
      <trkpt lat="43.44371" lon="-0.36076">
        <ele>162.2</ele>
        <time>2026-08-31T11:30:31Z</time>
      </trkpt>
      <trkpt lat="43.44371" lon="-0.36077">
        <ele>162.2</ele>
        <time>2026-08-31T11:30:32Z</time>
      </trkpt>
      <trkpt lat="43.44372" lon="-0.36078">
        <ele>162.2</ele>
        <time>2026-08-31T11:30:33Z</time>
      </trkpt>
      <trkpt lat="43.44372" lon="-0.36078">
        <ele>162.2</ele>
        <time>2026-08-31T11:30:33Z</time>
      </trkpt>
      <trkpt lat="43.44372" lon="-0.36079">
        <ele>162.2</ele>
        <time>2026-08-31T11:30:34Z</time>
      </trkpt>
      <trkpt lat="43.44373" lon="-0.3608">
        <ele>162.2</ele>
        <time>2026-08-31T11:30:34Z</time>
      </trkpt>
      <trkpt lat="43.44373" lon="-0.3608">
        <ele>162.2</ele>
        <time>2026-08-31T11:30:35Z</time>
      </trkpt>
      <trkpt lat="43.44374" lon="-0.36081">
        <ele>162.2</ele>
        <time>2026-08-31T11:30:35Z</time>
      </trkpt>
      <trkpt lat="43.44374" lon="-0.36082">
        <ele>162.2</ele>
        <time>2026-08-31T11:30:36Z</time>
      </trkpt>
      <trkpt lat="43.44375" lon="-0.36082">
        <ele>162.2</ele>
        <time>2026-08-31T11:30:36Z</time>
      </trkpt>
      <trkpt lat="43.44375" lon="-0.36083">
        <ele>162.2</ele>
        <time>2026-08-31T11:30:37Z</time>
      </trkpt>
      <trkpt lat="43.44376" lon="-0.36084">
        <ele>162.2</ele>
        <time>2026-08-31T11:30:38Z</time>
      </trkpt>
      <trkpt lat="43.44377" lon="-0.36085">
        <ele>162.2</ele>
        <time>2026-08-31T11:30:39Z</time>
      </trkpt>
      <trkpt lat="43.44378" lon="-0.36085">
        <ele>162.2</ele>
        <time>2026-08-31T11:30:39Z</time>
      </trkpt>
      <trkpt lat="43.44378" lon="-0.36086">
        <ele>162.2</ele>
        <time>2026-08-31T11:30:40Z</time>
      </trkpt>
      <trkpt lat="43.44379" lon="-0.36086">
        <ele>162.2</ele>
        <time>2026-08-31T11:30:41Z</time>
      </trkpt>
      <trkpt lat="43.4438" lon="-0.36087">
        <ele>162.2</ele>
        <time>2026-08-31T11:30:41Z</time>
      </trkpt>
      <trkpt lat="43.44381" lon="-0.36087">
        <ele>162.2</ele>
        <time>2026-08-31T11:30:42Z</time>
      </trkpt>
      <trkpt lat="43.44381" lon="-0.36088">
        <ele>162.2</ele>
        <time>2026-08-31T11:30:42Z</time>
      </trkpt>
      <trkpt lat="43.44382" lon="-0.36088">
        <ele>162.2</ele>
        <time>2026-08-31T11:30:43Z</time>
      </trkpt>
      <trkpt lat="43.44383" lon="-0.36088">
        <ele>162.2</ele>
        <time>2026-08-31T11:30:43Z</time>
      </trkpt>
      <trkpt lat="43.44383" lon="-0.36089">
        <ele>162.2</ele>
        <time>2026-08-31T11:30:44Z</time>
      </trkpt>
      <trkpt lat="43.44384" lon="-0.36089">
        <ele>162.2</ele>
        <time>2026-08-31T11:30:44Z</time>
      </trkpt>
      <trkpt lat="43.44385" lon="-0.36089">
        <ele>163.2</ele>
        <time>2026-08-31T11:30:45Z</time>
      </trkpt>
      <trkpt lat="43.44385" lon="-0.36089">
        <ele>163.2</ele>
        <time>2026-08-31T11:30:45Z</time>
      </trkpt>
      <trkpt lat="43.44386" lon="-0.3609">
        <ele>163.2</ele>
        <time>2026-08-31T11:30:46Z</time>
      </trkpt>
      <trkpt lat="43.44387" lon="-0.3609">
        <ele>163.2</ele>
        <time>2026-08-31T11:30:47Z</time>
      </trkpt>
      <trkpt lat="43.44387" lon="-0.3609">
        <ele>163.2</ele>
        <time>2026-08-31T11:30:47Z</time>
      </trkpt>
      <trkpt lat="43.44388" lon="-0.3609">
        <ele>163.2</ele>
        <time>2026-08-31T11:30:48Z</time>
      </trkpt>
      <trkpt lat="43.44389" lon="-0.3609">
        <ele>163.2</ele>
        <time>2026-08-31T11:30:48Z</time>
      </trkpt>
      <trkpt lat="43.4439" lon="-0.36091">
        <ele>163.2</ele>
        <time>2026-08-31T11:30:49Z</time>
      </trkpt>
      <trkpt lat="43.4439" lon="-0.36091">
        <ele>164.2</ele>
        <time>2026-08-31T11:30:49Z</time>
      </trkpt>
      <trkpt lat="43.44391" lon="-0.36091">
        <ele>164.2</ele>
        <time>2026-08-31T11:30:50Z</time>
      </trkpt>
      <trkpt lat="43.44392" lon="-0.36092">
        <ele>164.2</ele>
        <time>2026-08-31T11:30:50Z</time>
      </trkpt>
      <trkpt lat="43.44393" lon="-0.36092">
        <ele>164.2</ele>
        <time>2026-08-31T11:30:51Z</time>
      </trkpt>
      <trkpt lat="43.44393" lon="-0.36092">
        <ele>164.2</ele>
        <time>2026-08-31T11:30:51Z</time>
      </trkpt>
      <trkpt lat="43.44394" lon="-0.36093">
        <ele>164.2</ele>
        <time>2026-08-31T11:30:52Z</time>
      </trkpt>
      <trkpt lat="43.44395" lon="-0.36093">
        <ele>164.2</ele>
        <time>2026-08-31T11:30:52Z</time>
      </trkpt>
      <trkpt lat="43.44396" lon="-0.36094">
        <ele>163.2</ele>
        <time>2026-08-31T11:30:53Z</time>
      </trkpt>
      <trkpt lat="43.44397" lon="-0.36094">
        <ele>163.2</ele>
        <time>2026-08-31T11:30:53Z</time>
      </trkpt>
      <trkpt lat="43.44397" lon="-0.36095">
        <ele>163.2</ele>
        <time>2026-08-31T11:30:54Z</time>
      </trkpt>
      <trkpt lat="43.44398" lon="-0.36095">
        <ele>163.2</ele>
        <time>2026-08-31T11:30:54Z</time>
      </trkpt>
      <trkpt lat="43.44399" lon="-0.36096">
        <ele>163.2</ele>
        <time>2026-08-31T11:30:55Z</time>
      </trkpt>
      <trkpt lat="43.44399" lon="-0.36097">
        <ele>163.2</ele>
        <time>2026-08-31T11:30:56Z</time>
      </trkpt>
      <trkpt lat="43.444" lon="-0.36098">
        <ele>163.2</ele>
        <time>2026-08-31T11:30:56Z</time>
      </trkpt>
      <trkpt lat="43.44401" lon="-0.36098">
        <ele>163.2</ele>
        <time>2026-08-31T11:30:57Z</time>
      </trkpt>
      <trkpt lat="43.44401" lon="-0.36099">
        <ele>163.2</ele>
        <time>2026-08-31T11:30:57Z</time>
      </trkpt>
      <trkpt lat="43.44402" lon="-0.361">
        <ele>163.2</ele>
        <time>2026-08-31T11:30:58Z</time>
      </trkpt>
      <trkpt lat="43.44403" lon="-0.361">
        <ele>163.2</ele>
        <time>2026-08-31T11:30:58Z</time>
      </trkpt>
      <trkpt lat="43.44403" lon="-0.36101">
        <ele>163.2</ele>
        <time>2026-08-31T11:30:59Z</time>
      </trkpt>
      <trkpt lat="43.44404" lon="-0.36102">
        <ele>163.2</ele>
        <time>2026-08-31T11:30:59Z</time>
      </trkpt>
      <trkpt lat="43.44405" lon="-0.36103">
        <ele>164.2</ele>
        <time>2026-08-31T11:31:00Z</time>
      </trkpt>
      <trkpt lat="43.44405" lon="-0.36103">
        <ele>164.2</ele>
        <time>2026-08-31T11:31:00Z</time>
      </trkpt>
      <trkpt lat="43.44406" lon="-0.36104">
        <ele>164.2</ele>
        <time>2026-08-31T11:31:01Z</time>
      </trkpt>
      <trkpt lat="43.44407" lon="-0.36105">
        <ele>164.2</ele>
        <time>2026-08-31T11:31:01Z</time>
      </trkpt>
      <trkpt lat="43.44407" lon="-0.36106">
        <ele>164.2</ele>
        <time>2026-08-31T11:31:02Z</time>
      </trkpt>
      <trkpt lat="43.44408" lon="-0.36106">
        <ele>164.2</ele>
        <time>2026-08-31T11:31:02Z</time>
      </trkpt>
      <trkpt lat="43.44409" lon="-0.36107">
        <ele>165.2</ele>
        <time>2026-08-31T11:31:03Z</time>
      </trkpt>
      <trkpt lat="43.4441" lon="-0.36107">
        <ele>165.2</ele>
        <time>2026-08-31T11:31:03Z</time>
      </trkpt>
      <trkpt lat="43.4441" lon="-0.36108">
        <ele>165.2</ele>
        <time>2026-08-31T11:31:04Z</time>
      </trkpt>
      <trkpt lat="43.44411" lon="-0.36109">
        <ele>165.2</ele>
        <time>2026-08-31T11:31:05Z</time>
      </trkpt>
      <trkpt lat="43.44412" lon="-0.36109">
        <ele>165.2</ele>
        <time>2026-08-31T11:31:05Z</time>
      </trkpt>
      <trkpt lat="43.44413" lon="-0.3611">
        <ele>165.2</ele>
        <time>2026-08-31T11:31:06Z</time>
      </trkpt>
      <trkpt lat="43.44413" lon="-0.36111">
        <ele>164.2</ele>
        <time>2026-08-31T11:31:06Z</time>
      </trkpt>
      <trkpt lat="43.44414" lon="-0.36111">
        <ele>164.2</ele>
        <time>2026-08-31T11:31:07Z</time>
      </trkpt>
      <trkpt lat="43.44415" lon="-0.36112">
        <ele>164.2</ele>
        <time>2026-08-31T11:31:07Z</time>
      </trkpt>
      <trkpt lat="43.44416" lon="-0.36112">
        <ele>164.2</ele>
        <time>2026-08-31T11:31:08Z</time>
      </trkpt>
      <trkpt lat="43.44416" lon="-0.36113">
        <ele>164.2</ele>
        <time>2026-08-31T11:31:08Z</time>
      </trkpt>
      <trkpt lat="43.44417" lon="-0.36114">
        <ele>165.2</ele>
        <time>2026-08-31T11:31:09Z</time>
      </trkpt>
      <trkpt lat="43.44418" lon="-0.36114">
        <ele>165.2</ele>
        <time>2026-08-31T11:31:09Z</time>
      </trkpt>
      <trkpt lat="43.44418" lon="-0.36115">
        <ele>164.2</ele>
        <time>2026-08-31T11:31:10Z</time>
      </trkpt>
      <trkpt lat="43.44419" lon="-0.36116">
        <ele>164.2</ele>
        <time>2026-08-31T11:31:10Z</time>
      </trkpt>
      <trkpt lat="43.4442" lon="-0.36116">
        <ele>164.2</ele>
        <time>2026-08-31T11:31:11Z</time>
      </trkpt>
      <trkpt lat="43.4442" lon="-0.36117">
        <ele>164.2</ele>
        <time>2026-08-31T11:31:11Z</time>
      </trkpt>
      <trkpt lat="43.44421" lon="-0.36117">
        <ele>165.2</ele>
        <time>2026-08-31T11:31:12Z</time>
      </trkpt>
      <trkpt lat="43.44422" lon="-0.36118">
        <ele>165.2</ele>
        <time>2026-08-31T11:31:13Z</time>
      </trkpt>
      <trkpt lat="43.44422" lon="-0.36119">
        <ele>164.2</ele>
        <time>2026-08-31T11:31:13Z</time>
      </trkpt>
      <trkpt lat="43.44423" lon="-0.36119">
        <ele>164.2</ele>
        <time>2026-08-31T11:31:14Z</time>
      </trkpt>
      <trkpt lat="43.44424" lon="-0.3612">
        <ele>165.2</ele>
        <time>2026-08-31T11:31:14Z</time>
      </trkpt>
      <trkpt lat="43.44424" lon="-0.36121">
        <ele>165.2</ele>
        <time>2026-08-31T11:31:15Z</time>
      </trkpt>
      <trkpt lat="43.44425" lon="-0.36122">
        <ele>165.2</ele>
        <time>2026-08-31T11:31:15Z</time>
      </trkpt>
      <trkpt lat="43.44425" lon="-0.36122">
        <ele>165.2</ele>
        <time>2026-08-31T11:31:16Z</time>
      </trkpt>
      <trkpt lat="43.44426" lon="-0.36123">
        <ele>165.2</ele>
        <time>2026-08-31T11:31:16Z</time>
      </trkpt>
      <trkpt lat="43.44427" lon="-0.36124">
        <ele>166.2</ele>
        <time>2026-08-31T11:31:17Z</time>
      </trkpt>
      <trkpt lat="43.44428" lon="-0.36125">
        <ele>166.2</ele>
        <time>2026-08-31T11:31:18Z</time>
      </trkpt>
      <trkpt lat="43.44428" lon="-0.36126">
        <ele>166.2</ele>
        <time>2026-08-31T11:31:18Z</time>
      </trkpt>
      <trkpt lat="43.44429" lon="-0.36127">
        <ele>166.2</ele>
        <time>2026-08-31T11:31:19Z</time>
      </trkpt>
      <trkpt lat="43.44429" lon="-0.36128">
        <ele>166.2</ele>
        <time>2026-08-31T11:31:19Z</time>
      </trkpt>
      <trkpt lat="43.4443" lon="-0.36129">
        <ele>165.2</ele>
        <time>2026-08-31T11:31:20Z</time>
      </trkpt>
      <trkpt lat="43.44431" lon="-0.3613">
        <ele>165.2</ele>
        <time>2026-08-31T11:31:21Z</time>
      </trkpt>
      <trkpt lat="43.44431" lon="-0.36131">
        <ele>165.2</ele>
        <time>2026-08-31T11:31:21Z</time>
      </trkpt>
      <trkpt lat="43.44431" lon="-0.36132">
        <ele>165.2</ele>
        <time>2026-08-31T11:31:22Z</time>
      </trkpt>
      <trkpt lat="43.44432" lon="-0.36133">
        <ele>165.2</ele>
        <time>2026-08-31T11:31:22Z</time>
      </trkpt>
      <trkpt lat="43.44432" lon="-0.36133">
        <ele>165.2</ele>
        <time>2026-08-31T11:31:23Z</time>
      </trkpt>
      <trkpt lat="43.44432" lon="-0.36134">
        <ele>165.2</ele>
        <time>2026-08-31T11:31:23Z</time>
      </trkpt>
      <trkpt lat="43.44432" lon="-0.36135">
        <ele>166.2</ele>
        <time>2026-08-31T11:31:24Z</time>
      </trkpt>
      <trkpt lat="43.44432" lon="-0.36136">
        <ele>166.2</ele>
        <time>2026-08-31T11:31:24Z</time>
      </trkpt>
      <trkpt lat="43.44432" lon="-0.36137">
        <ele>166.2</ele>
        <time>2026-08-31T11:31:25Z</time>
      </trkpt>
      <trkpt lat="43.44432" lon="-0.36138">
        <ele>166.2</ele>
        <time>2026-08-31T11:31:25Z</time>
      </trkpt>
      <trkpt lat="43.44432" lon="-0.36139">
        <ele>165.2</ele>
        <time>2026-08-31T11:31:26Z</time>
      </trkpt>
      <trkpt lat="43.44432" lon="-0.3614">
        <ele>165.2</ele>
        <time>2026-08-31T11:31:26Z</time>
      </trkpt>
      <trkpt lat="43.44432" lon="-0.36141">
        <ele>166.2</ele>
        <time>2026-08-31T11:31:27Z</time>
      </trkpt>
      <trkpt lat="43.44432" lon="-0.36142">
        <ele>166.2</ele>
        <time>2026-08-31T11:31:28Z</time>
      </trkpt>
      <trkpt lat="43.44432" lon="-0.36143">
        <ele>166.2</ele>
        <time>2026-08-31T11:31:28Z</time>
      </trkpt>
      <trkpt lat="43.44431" lon="-0.36144">
        <ele>166.2</ele>
        <time>2026-08-31T11:31:29Z</time>
      </trkpt>
      <trkpt lat="43.44431" lon="-0.36145">
        <ele>166.2</ele>
        <time>2026-08-31T11:31:29Z</time>
      </trkpt>
      <trkpt lat="43.44431" lon="-0.36146">
        <ele>166.2</ele>
        <time>2026-08-31T11:31:30Z</time>
      </trkpt>
      <trkpt lat="43.4443" lon="-0.36146">
        <ele>166.2</ele>
        <time>2026-08-31T11:31:30Z</time>
      </trkpt>
      <trkpt lat="43.4443" lon="-0.36147">
        <ele>165.2</ele>
        <time>2026-08-31T11:31:31Z</time>
      </trkpt>
      <trkpt lat="43.44429" lon="-0.36148">
        <ele>165.2</ele>
        <time>2026-08-31T11:31:31Z</time>
      </trkpt>
      <trkpt lat="43.44429" lon="-0.36148">
        <ele>165.2</ele>
        <time>2026-08-31T11:31:32Z</time>
      </trkpt>
      <trkpt lat="43.44428" lon="-0.36149">
        <ele>165.2</ele>
        <time>2026-08-31T11:31:32Z</time>
      </trkpt>
      <trkpt lat="43.44428" lon="-0.36149">
        <ele>166.2</ele>
        <time>2026-08-31T11:31:33Z</time>
      </trkpt>
      <trkpt lat="43.44427" lon="-0.3615">
        <ele>166.2</ele>
        <time>2026-08-31T11:31:34Z</time>
      </trkpt>
      <trkpt lat="43.44427" lon="-0.36151">
        <ele>166.2</ele>
        <time>2026-08-31T11:31:34Z</time>
      </trkpt>
      <trkpt lat="43.44426" lon="-0.36151">
        <ele>167.2</ele>
        <time>2026-08-31T11:31:35Z</time>
      </trkpt>
      <trkpt lat="43.44426" lon="-0.36151">
        <ele>167.2</ele>
        <time>2026-08-31T11:31:35Z</time>
      </trkpt>
      <trkpt lat="43.44425" lon="-0.36152">
        <ele>167.2</ele>
        <time>2026-08-31T11:31:36Z</time>
      </trkpt>
      <trkpt lat="43.44424" lon="-0.36153">
        <ele>167.2</ele>
        <time>2026-08-31T11:31:37Z</time>
      </trkpt>
      <trkpt lat="43.44424" lon="-0.36153">
        <ele>167.2</ele>
        <time>2026-08-31T11:31:37Z</time>
      </trkpt>
      <trkpt lat="43.44424" lon="-0.36154">
        <ele>167.2</ele>
        <time>2026-08-31T11:31:38Z</time>
      </trkpt>
      <trkpt lat="43.44423" lon="-0.36155">
        <ele>167.2</ele>
        <time>2026-08-31T11:31:39Z</time>
      </trkpt>
      <trkpt lat="43.44422" lon="-0.36155">
        <ele>167.2</ele>
        <time>2026-08-31T11:31:39Z</time>
      </trkpt>
      <trkpt lat="43.44422" lon="-0.36156">
        <ele>167.2</ele>
        <time>2026-08-31T11:31:40Z</time>
      </trkpt>
      <trkpt lat="43.44421" lon="-0.36157">
        <ele>167.2</ele>
        <time>2026-08-31T11:31:40Z</time>
      </trkpt>
      <trkpt lat="43.4442" lon="-0.36157">
        <ele>167.2</ele>
        <time>2026-08-31T11:31:41Z</time>
      </trkpt>
      <trkpt lat="43.4442" lon="-0.36158">
        <ele>167.2</ele>
        <time>2026-08-31T11:31:41Z</time>
      </trkpt>
      <trkpt lat="43.44419" lon="-0.36158">
        <ele>167.2</ele>
        <time>2026-08-31T11:31:42Z</time>
      </trkpt>
      <trkpt lat="43.44418" lon="-0.36158">
        <ele>167.2</ele>
        <time>2026-08-31T11:31:42Z</time>
      </trkpt>
      <trkpt lat="43.44418" lon="-0.36159">
        <ele>167.2</ele>
        <time>2026-08-31T11:31:43Z</time>
      </trkpt>
      <trkpt lat="43.44417" lon="-0.3616">
        <ele>167.2</ele>
        <time>2026-08-31T11:31:44Z</time>
      </trkpt>
      <trkpt lat="43.44417" lon="-0.3616">
        <ele>167.2</ele>
        <time>2026-08-31T11:31:44Z</time>
      </trkpt>
      <trkpt lat="43.44417" lon="-0.3616">
        <ele>167.2</ele>
        <time>2026-08-31T11:31:45Z</time>
      </trkpt>
      <trkpt lat="43.44416" lon="-0.3616">
        <ele>167.2</ele>
        <time>2026-08-31T11:31:45Z</time>
      </trkpt>
      <trkpt lat="43.44416" lon="-0.36161">
        <ele>167.2</ele>
        <time>2026-08-31T11:31:46Z</time>
      </trkpt>
      <trkpt lat="43.44415" lon="-0.36161">
        <ele>167.2</ele>
        <time>2026-08-31T11:31:46Z</time>
      </trkpt>
      <trkpt lat="43.44415" lon="-0.36162">
        <ele>167.2</ele>
        <time>2026-08-31T11:31:47Z</time>
      </trkpt>
      <trkpt lat="43.44414" lon="-0.36162">
        <ele>167.2</ele>
        <time>2026-08-31T11:31:48Z</time>
      </trkpt>
      <trkpt lat="43.44414" lon="-0.36163">
        <ele>168.2</ele>
        <time>2026-08-31T11:31:48Z</time>
      </trkpt>
      <trkpt lat="43.44413" lon="-0.36163">
        <ele>167.2</ele>
        <time>2026-08-31T11:31:49Z</time>
      </trkpt>
      <trkpt lat="43.44413" lon="-0.36164">
        <ele>167.2</ele>
        <time>2026-08-31T11:31:49Z</time>
      </trkpt>
      <trkpt lat="43.44412" lon="-0.36164">
        <ele>167.2</ele>
        <time>2026-08-31T11:31:50Z</time>
      </trkpt>
      <trkpt lat="43.44412" lon="-0.36165">
        <ele>167.2</ele>
        <time>2026-08-31T11:31:50Z</time>
      </trkpt>
      <trkpt lat="43.44411" lon="-0.36165">
        <ele>167.2</ele>
        <time>2026-08-31T11:31:51Z</time>
      </trkpt>
      <trkpt lat="43.44411" lon="-0.36166">
        <ele>167.2</ele>
        <time>2026-08-31T11:31:52Z</time>
      </trkpt>
      <trkpt lat="43.4441" lon="-0.36166">
        <ele>167.2</ele>
        <time>2026-08-31T11:31:52Z</time>
      </trkpt>
      <trkpt lat="43.4441" lon="-0.36166">
        <ele>167.2</ele>
        <time>2026-08-31T11:31:53Z</time>
      </trkpt>
      <trkpt lat="43.44409" lon="-0.36166">
        <ele>166.2</ele>
        <time>2026-08-31T11:31:53Z</time>
      </trkpt>
      <trkpt lat="43.44408" lon="-0.36167">
        <ele>166.2</ele>
        <time>2026-08-31T11:31:54Z</time>
      </trkpt>
      <trkpt lat="43.44408" lon="-0.36167">
        <ele>166.2</ele>
        <time>2026-08-31T11:31:54Z</time>
      </trkpt>
      <trkpt lat="43.44407" lon="-0.36167">
        <ele>166.2</ele>
        <time>2026-08-31T11:31:55Z</time>
      </trkpt>
      <trkpt lat="43.44406" lon="-0.36168">
        <ele>167.2</ele>
        <time>2026-08-31T11:31:56Z</time>
      </trkpt>
      <trkpt lat="43.44405" lon="-0.36169">
        <ele>167.2</ele>
        <time>2026-08-31T11:31:57Z</time>
      </trkpt>
      <trkpt lat="43.44405" lon="-0.36169">
        <ele>167.2</ele>
        <time>2026-08-31T11:31:57Z</time>
      </trkpt>
      <trkpt lat="43.44404" lon="-0.36169">
        <ele>166.2</ele>
        <time>2026-08-31T11:31:58Z</time>
      </trkpt>
      <trkpt lat="43.44404" lon="-0.3617">
        <ele>166.2</ele>
        <time>2026-08-31T11:31:58Z</time>
      </trkpt>
      <trkpt lat="43.44403" lon="-0.3617">
        <ele>166.2</ele>
        <time>2026-08-31T11:31:59Z</time>
      </trkpt>
      <trkpt lat="43.44402" lon="-0.3617">
        <ele>167.2</ele>
        <time>2026-08-31T11:32:00Z</time>
      </trkpt>
      <trkpt lat="43.44401" lon="-0.36171">
        <ele>167.2</ele>
        <time>2026-08-31T11:32:01Z</time>
      </trkpt>
      <trkpt lat="43.44401" lon="-0.36171">
        <ele>167.2</ele>
        <time>2026-08-31T11:32:01Z</time>
      </trkpt>
      <trkpt lat="43.44399" lon="-0.36172">
        <ele>167.2</ele>
        <time>2026-08-31T11:32:02Z</time>
      </trkpt>
      <trkpt lat="43.44399" lon="-0.36172">
        <ele>167.2</ele>
        <time>2026-08-31T11:32:03Z</time>
      </trkpt>
      <trkpt lat="43.44398" lon="-0.36172">
        <ele>167.2</ele>
        <time>2026-08-31T11:32:04Z</time>
      </trkpt>
      <trkpt lat="43.44397" lon="-0.36172">
        <ele>167.2</ele>
        <time>2026-08-31T11:32:05Z</time>
      </trkpt>
      <trkpt lat="43.44396" lon="-0.36173">
        <ele>168.2</ele>
        <time>2026-08-31T11:32:06Z</time>
      </trkpt>
      <trkpt lat="43.44395" lon="-0.36173">
        <ele>168.2</ele>
        <time>2026-08-31T11:32:07Z</time>
      </trkpt>
      <trkpt lat="43.44394" lon="-0.36173">
        <ele>168.2</ele>
        <time>2026-08-31T11:32:07Z</time>
      </trkpt>
      <trkpt lat="43.44394" lon="-0.36174">
        <ele>169.2</ele>
        <time>2026-08-31T11:32:08Z</time>
      </trkpt>
      <trkpt lat="43.44393" lon="-0.36174">
        <ele>169.2</ele>
        <time>2026-08-31T11:32:08Z</time>
      </trkpt>
      <trkpt lat="43.44392" lon="-0.36174">
        <ele>168.2</ele>
        <time>2026-08-31T11:32:09Z</time>
      </trkpt>
      <trkpt lat="43.44391" lon="-0.36175">
        <ele>168.2</ele>
        <time>2026-08-31T11:32:10Z</time>
      </trkpt>
      <trkpt lat="43.4439" lon="-0.36175">
        <ele>168.2</ele>
        <time>2026-08-31T11:32:11Z</time>
      </trkpt>
      <trkpt lat="43.4439" lon="-0.36175">
        <ele>168.2</ele>
        <time>2026-08-31T11:32:11Z</time>
      </trkpt>
      <trkpt lat="43.44389" lon="-0.36175">
        <ele>168.2</ele>
        <time>2026-08-31T11:32:12Z</time>
      </trkpt>
      <trkpt lat="43.44388" lon="-0.36176">
        <ele>168.2</ele>
        <time>2026-08-31T11:32:13Z</time>
      </trkpt>
      <trkpt lat="43.44388" lon="-0.36176">
        <ele>168.2</ele>
        <time>2026-08-31T11:32:13Z</time>
      </trkpt>
      <trkpt lat="43.44387" lon="-0.36176">
        <ele>167.2</ele>
        <time>2026-08-31T11:32:14Z</time>
      </trkpt>
      <trkpt lat="43.44387" lon="-0.36176">
        <ele>167.2</ele>
        <time>2026-08-31T11:32:14Z</time>
      </trkpt>
      <trkpt lat="43.44386" lon="-0.36176">
        <ele>167.2</ele>
        <time>2026-08-31T11:32:15Z</time>
      </trkpt>
      <trkpt lat="43.44385" lon="-0.36176">
        <ele>167.2</ele>
        <time>2026-08-31T11:32:16Z</time>
      </trkpt>
      <trkpt lat="43.44384" lon="-0.36177">
        <ele>167.2</ele>
        <time>2026-08-31T11:32:17Z</time>
      </trkpt>
      <trkpt lat="43.44384" lon="-0.36177">
        <ele>168.2</ele>
        <time>2026-08-31T11:32:17Z</time>
      </trkpt>
      <trkpt lat="43.44384" lon="-0.36177">
        <ele>169.2</ele>
        <time>2026-08-31T11:32:18Z</time>
      </trkpt>
      <trkpt lat="43.44383" lon="-0.36178">
        <ele>169.2</ele>
        <time>2026-08-31T11:32:19Z</time>
      </trkpt>
      <trkpt lat="43.44383" lon="-0.36178">
        <ele>169.2</ele>
        <time>2026-08-31T11:32:19Z</time>
      </trkpt>
      <trkpt lat="43.44382" lon="-0.36178">
        <ele>169.2</ele>
        <time>2026-08-31T11:32:20Z</time>
      </trkpt>
      <trkpt lat="43.44382" lon="-0.36178">
        <ele>169.2</ele>
        <time>2026-08-31T11:32:20Z</time>
      </trkpt>
      <trkpt lat="43.44381" lon="-0.36178">
        <ele>169.2</ele>
        <time>2026-08-31T11:32:21Z</time>
      </trkpt>
      <trkpt lat="43.44381" lon="-0.36179">
        <ele>169.2</ele>
        <time>2026-08-31T11:32:22Z</time>
      </trkpt>
      <trkpt lat="43.4438" lon="-0.36179">
        <ele>169.2</ele>
        <time>2026-08-31T11:32:22Z</time>
      </trkpt>
      <trkpt lat="43.4438" lon="-0.36179">
        <ele>170.2</ele>
        <time>2026-08-31T11:32:23Z</time>
      </trkpt>
      <trkpt lat="43.44379" lon="-0.3618">
        <ele>170.2</ele>
        <time>2026-08-31T11:32:23Z</time>
      </trkpt>
      <trkpt lat="43.44379" lon="-0.3618">
        <ele>170.2</ele>
        <time>2026-08-31T11:32:24Z</time>
      </trkpt>
      <trkpt lat="43.44378" lon="-0.3618">
        <ele>170.2</ele>
        <time>2026-08-31T11:32:25Z</time>
      </trkpt>
      <trkpt lat="43.44378" lon="-0.36181">
        <ele>170.2</ele>
        <time>2026-08-31T11:32:25Z</time>
      </trkpt>
      <trkpt lat="43.44377" lon="-0.36181">
        <ele>170.2</ele>
        <time>2026-08-31T11:32:26Z</time>
      </trkpt>
      <trkpt lat="43.44377" lon="-0.36181">
        <ele>170.2</ele>
        <time>2026-08-31T11:32:27Z</time>
      </trkpt>
      <trkpt lat="43.44376" lon="-0.36181">
        <ele>169.2</ele>
        <time>2026-08-31T11:32:27Z</time>
      </trkpt>
      <trkpt lat="43.44375" lon="-0.36181">
        <ele>169.2</ele>
        <time>2026-08-31T11:32:28Z</time>
      </trkpt>
      <trkpt lat="43.44375" lon="-0.36182">
        <ele>169.2</ele>
        <time>2026-08-31T11:32:28Z</time>
      </trkpt>
      <trkpt lat="43.44374" lon="-0.36182">
        <ele>169.2</ele>
        <time>2026-08-31T11:32:29Z</time>
      </trkpt>
      <trkpt lat="43.44373" lon="-0.36182">
        <ele>169.2</ele>
        <time>2026-08-31T11:32:30Z</time>
      </trkpt>
      <trkpt lat="43.44373" lon="-0.36182">
        <ele>169.2</ele>
        <time>2026-08-31T11:32:30Z</time>
      </trkpt>
      <trkpt lat="43.44372" lon="-0.36182">
        <ele>169.2</ele>
        <time>2026-08-31T11:32:31Z</time>
      </trkpt>
      <trkpt lat="43.44371" lon="-0.36183">
        <ele>170.2</ele>
        <time>2026-08-31T11:32:32Z</time>
      </trkpt>
      <trkpt lat="43.4437" lon="-0.36183">
        <ele>171.2</ele>
        <time>2026-08-31T11:32:33Z</time>
      </trkpt>
      <trkpt lat="43.4437" lon="-0.36183">
        <ele>171.2</ele>
        <time>2026-08-31T11:32:33Z</time>
      </trkpt>
      <trkpt lat="43.44369" lon="-0.36184">
        <ele>171.2</ele>
        <time>2026-08-31T11:32:34Z</time>
      </trkpt>
      <trkpt lat="43.44369" lon="-0.36184">
        <ele>171.2</ele>
        <time>2026-08-31T11:32:35Z</time>
      </trkpt>
      <trkpt lat="43.44368" lon="-0.36185">
        <ele>171.2</ele>
        <time>2026-08-31T11:32:35Z</time>
      </trkpt>
      <trkpt lat="43.44368" lon="-0.36185">
        <ele>171.2</ele>
        <time>2026-08-31T11:32:36Z</time>
      </trkpt>
      <trkpt lat="43.44368" lon="-0.36186">
        <ele>171.2</ele>
        <time>2026-08-31T11:32:37Z</time>
      </trkpt>
      <trkpt lat="43.44367" lon="-0.36186">
        <ele>171.2</ele>
        <time>2026-08-31T11:32:37Z</time>
      </trkpt>
      <trkpt lat="43.44367" lon="-0.36187">
        <ele>172.2</ele>
        <time>2026-08-31T11:32:38Z</time>
      </trkpt>
      <trkpt lat="43.44366" lon="-0.36187">
        <ele>172.2</ele>
        <time>2026-08-31T11:32:38Z</time>
      </trkpt>
      <trkpt lat="43.44366" lon="-0.36188">
        <ele>172.2</ele>
        <time>2026-08-31T11:32:39Z</time>
      </trkpt>
      <trkpt lat="43.44365" lon="-0.36188">
        <ele>172.2</ele>
        <time>2026-08-31T11:32:40Z</time>
      </trkpt>
      <trkpt lat="43.44365" lon="-0.36188">
        <ele>173.2</ele>
        <time>2026-08-31T11:32:40Z</time>
      </trkpt>
      <trkpt lat="43.44364" lon="-0.36189">
        <ele>173.2</ele>
        <time>2026-08-31T11:32:41Z</time>
      </trkpt>
      <trkpt lat="43.44364" lon="-0.36189">
        <ele>173.2</ele>
        <time>2026-08-31T11:32:41Z</time>
      </trkpt>
      <trkpt lat="43.44363" lon="-0.36189">
        <ele>174.2</ele>
        <time>2026-08-31T11:32:42Z</time>
      </trkpt>
      <trkpt lat="43.44363" lon="-0.3619">
        <ele>174.2</ele>
        <time>2026-08-31T11:32:43Z</time>
      </trkpt>
      <trkpt lat="43.44362" lon="-0.3619">
        <ele>174.2</ele>
        <time>2026-08-31T11:32:43Z</time>
      </trkpt>
      <trkpt lat="43.44362" lon="-0.36191">
        <ele>174.2</ele>
        <time>2026-08-31T11:32:44Z</time>
      </trkpt>
      <trkpt lat="43.44361" lon="-0.36191">
        <ele>174.2</ele>
        <time>2026-08-31T11:32:45Z</time>
      </trkpt>
      <trkpt lat="43.44361" lon="-0.36191">
        <ele>174.2</ele>
        <time>2026-08-31T11:32:45Z</time>
      </trkpt>
      <trkpt lat="43.4436" lon="-0.36192">
        <ele>174.2</ele>
        <time>2026-08-31T11:32:46Z</time>
      </trkpt>
      <trkpt lat="43.4436" lon="-0.36192">
        <ele>174.2</ele>
        <time>2026-08-31T11:32:46Z</time>
      </trkpt>
      <trkpt lat="43.44359" lon="-0.36192">
        <ele>175.2</ele>
        <time>2026-08-31T11:32:47Z</time>
      </trkpt>
      <trkpt lat="43.44359" lon="-0.36193">
        <ele>175.2</ele>
        <time>2026-08-31T11:32:48Z</time>
      </trkpt>
      <trkpt lat="43.44358" lon="-0.36193">
        <ele>175.2</ele>
        <time>2026-08-31T11:32:49Z</time>
      </trkpt>
      <trkpt lat="43.44357" lon="-0.36194">
        <ele>175.2</ele>
        <time>2026-08-31T11:32:50Z</time>
      </trkpt>
      <trkpt lat="43.44356" lon="-0.36194">
        <ele>175.2</ele>
        <time>2026-08-31T11:32:50Z</time>
      </trkpt>
      <trkpt lat="43.44356" lon="-0.36194">
        <ele>176.2</ele>
        <time>2026-08-31T11:32:51Z</time>
      </trkpt>
      <trkpt lat="43.44355" lon="-0.36194">
        <ele>176.2</ele>
        <time>2026-08-31T11:32:51Z</time>
      </trkpt>
      <trkpt lat="43.44355" lon="-0.36194">
        <ele>176.2</ele>
        <time>2026-08-31T11:32:52Z</time>
      </trkpt>
      <trkpt lat="43.44354" lon="-0.36195">
        <ele>176.2</ele>
        <time>2026-08-31T11:32:53Z</time>
      </trkpt>
      <trkpt lat="43.44354" lon="-0.36195">
        <ele>176.2</ele>
        <time>2026-08-31T11:32:53Z</time>
      </trkpt>
      <trkpt lat="43.44353" lon="-0.36195">
        <ele>176.2</ele>
        <time>2026-08-31T11:32:54Z</time>
      </trkpt>
      <trkpt lat="43.44353" lon="-0.36195">
        <ele>176.2</ele>
        <time>2026-08-31T11:32:54Z</time>
      </trkpt>
      <trkpt lat="43.44352" lon="-0.36196">
        <ele>176.2</ele>
        <time>2026-08-31T11:32:55Z</time>
      </trkpt>
      <trkpt lat="43.44352" lon="-0.36196">
        <ele>176.2</ele>
        <time>2026-08-31T11:32:56Z</time>
      </trkpt>
      <trkpt lat="43.44351" lon="-0.36197">
        <ele>176.2</ele>
        <time>2026-08-31T11:32:56Z</time>
      </trkpt>
      <trkpt lat="43.4435" lon="-0.36197">
        <ele>176.2</ele>
        <time>2026-08-31T11:32:57Z</time>
      </trkpt>
      <trkpt lat="43.4435" lon="-0.36197">
        <ele>176.2</ele>
        <time>2026-08-31T11:32:57Z</time>
      </trkpt>
      <trkpt lat="43.44349" lon="-0.36198">
        <ele>176.2</ele>
        <time>2026-08-31T11:32:58Z</time>
      </trkpt>
      <trkpt lat="43.44349" lon="-0.36198">
        <ele>177.2</ele>
        <time>2026-08-31T11:32:59Z</time>
      </trkpt>
      <trkpt lat="43.44348" lon="-0.36199">
        <ele>177.2</ele>
        <time>2026-08-31T11:32:59Z</time>
      </trkpt>
      <trkpt lat="43.44348" lon="-0.36199">
        <ele>177.2</ele>
        <time>2026-08-31T11:33:00Z</time>
      </trkpt>
      <trkpt lat="43.44347" lon="-0.362">
        <ele>177.2</ele>
        <time>2026-08-31T11:33:01Z</time>
      </trkpt>
      <trkpt lat="43.44347" lon="-0.362">
        <ele>177.2</ele>
        <time>2026-08-31T11:33:01Z</time>
      </trkpt>
      <trkpt lat="43.44346" lon="-0.36201">
        <ele>178.2</ele>
        <time>2026-08-31T11:33:02Z</time>
      </trkpt>
      <trkpt lat="43.44346" lon="-0.36202">
        <ele>178.2</ele>
        <time>2026-08-31T11:33:02Z</time>
      </trkpt>
      <trkpt lat="43.44345" lon="-0.36202">
        <ele>178.2</ele>
        <time>2026-08-31T11:33:03Z</time>
      </trkpt>
      <trkpt lat="43.44344" lon="-0.36203">
        <ele>178.2</ele>
        <time>2026-08-31T11:33:04Z</time>
      </trkpt>
      <trkpt lat="43.44344" lon="-0.36203">
        <ele>178.2</ele>
        <time>2026-08-31T11:33:04Z</time>
      </trkpt>
      <trkpt lat="43.44343" lon="-0.36204">
        <ele>178.2</ele>
        <time>2026-08-31T11:33:05Z</time>
      </trkpt>
      <trkpt lat="43.44343" lon="-0.36204">
        <ele>178.2</ele>
        <time>2026-08-31T11:33:06Z</time>
      </trkpt>
      <trkpt lat="43.44342" lon="-0.36205">
        <ele>179.2</ele>
        <time>2026-08-31T11:33:06Z</time>
      </trkpt>
      <trkpt lat="43.44342" lon="-0.36206">
        <ele>179.2</ele>
        <time>2026-08-31T11:33:07Z</time>
      </trkpt>
      <trkpt lat="43.44342" lon="-0.36207">
        <ele>179.2</ele>
        <time>2026-08-31T11:33:07Z</time>
      </trkpt>
      <trkpt lat="43.44341" lon="-0.36207">
        <ele>178.2</ele>
        <time>2026-08-31T11:33:08Z</time>
      </trkpt>
      <trkpt lat="43.44341" lon="-0.36208">
        <ele>178.2</ele>
        <time>2026-08-31T11:33:08Z</time>
      </trkpt>
      <trkpt lat="43.4434" lon="-0.36209">
        <ele>179.2</ele>
        <time>2026-08-31T11:33:09Z</time>
      </trkpt>
      <trkpt lat="43.4434" lon="-0.3621">
        <ele>179.2</ele>
        <time>2026-08-31T11:33:10Z</time>
      </trkpt>
      <trkpt lat="43.44339" lon="-0.3621">
        <ele>179.2</ele>
        <time>2026-08-31T11:33:10Z</time>
      </trkpt>
      <trkpt lat="43.44339" lon="-0.36211">
        <ele>179.2</ele>
        <time>2026-08-31T11:33:11Z</time>
      </trkpt>
      <trkpt lat="43.44339" lon="-0.36212">
        <ele>179.2</ele>
        <time>2026-08-31T11:33:12Z</time>
      </trkpt>
      <trkpt lat="43.44338" lon="-0.36212">
        <ele>179.2</ele>
        <time>2026-08-31T11:33:12Z</time>
      </trkpt>
      <trkpt lat="43.44338" lon="-0.36213">
        <ele>179.2</ele>
        <time>2026-08-31T11:33:13Z</time>
      </trkpt>
      <trkpt lat="43.44338" lon="-0.36214">
        <ele>178.2</ele>
        <time>2026-08-31T11:33:13Z</time>
      </trkpt>
      <trkpt lat="43.44338" lon="-0.36214">
        <ele>179.2</ele>
        <time>2026-08-31T11:33:14Z</time>
      </trkpt>
      <trkpt lat="43.44337" lon="-0.36215">
        <ele>179.2</ele>
        <time>2026-08-31T11:33:14Z</time>
      </trkpt>
      <trkpt lat="43.44337" lon="-0.36216">
        <ele>179.2</ele>
        <time>2026-08-31T11:33:15Z</time>
      </trkpt>
      <trkpt lat="43.44337" lon="-0.36217">
        <ele>179.2</ele>
        <time>2026-08-31T11:33:16Z</time>
      </trkpt>
      <trkpt lat="43.44336" lon="-0.36217">
        <ele>179.2</ele>
        <time>2026-08-31T11:33:16Z</time>
      </trkpt>
      <trkpt lat="43.44336" lon="-0.36218">
        <ele>179.2</ele>
        <time>2026-08-31T11:33:17Z</time>
      </trkpt>
      <trkpt lat="43.44336" lon="-0.36218">
        <ele>179.2</ele>
        <time>2026-08-31T11:33:18Z</time>
      </trkpt>
      <trkpt lat="43.44335" lon="-0.36219">
        <ele>178.2</ele>
        <time>2026-08-31T11:33:18Z</time>
      </trkpt>
      <trkpt lat="43.44335" lon="-0.3622">
        <ele>178.2</ele>
        <time>2026-08-31T11:33:19Z</time>
      </trkpt>
      <trkpt lat="43.44335" lon="-0.3622">
        <ele>178.2</ele>
        <time>2026-08-31T11:33:19Z</time>
      </trkpt>
      <trkpt lat="43.44334" lon="-0.36221">
        <ele>178.2</ele>
        <time>2026-08-31T11:33:20Z</time>
      </trkpt>
      <trkpt lat="43.44334" lon="-0.36221">
        <ele>178.2</ele>
        <time>2026-08-31T11:33:21Z</time>
      </trkpt>
      <trkpt lat="43.44333" lon="-0.36222">
        <ele>178.2</ele>
        <time>2026-08-31T11:33:21Z</time>
      </trkpt>
      <trkpt lat="43.44333" lon="-0.36223">
        <ele>178.2</ele>
        <time>2026-08-31T11:33:22Z</time>
      </trkpt>
      <trkpt lat="43.44333" lon="-0.36224">
        <ele>178.2</ele>
        <time>2026-08-31T11:33:22Z</time>
      </trkpt>
      <trkpt lat="43.44332" lon="-0.36224">
        <ele>178.2</ele>
        <time>2026-08-31T11:33:23Z</time>
      </trkpt>
      <trkpt lat="43.44332" lon="-0.36225">
        <ele>178.2</ele>
        <time>2026-08-31T11:33:24Z</time>
      </trkpt>
      <trkpt lat="43.44332" lon="-0.36226">
        <ele>178.2</ele>
        <time>2026-08-31T11:33:24Z</time>
      </trkpt>
      <trkpt lat="43.44331" lon="-0.36227">
        <ele>178.2</ele>
        <time>2026-08-31T11:33:25Z</time>
      </trkpt>
      <trkpt lat="43.44331" lon="-0.36227">
        <ele>179.2</ele>
        <time>2026-08-31T11:33:25Z</time>
      </trkpt>
      <trkpt lat="43.4433" lon="-0.36228">
        <ele>180.2</ele>
        <time>2026-08-31T11:33:26Z</time>
      </trkpt>
      <trkpt lat="43.4433" lon="-0.36228">
        <ele>180.2</ele>
        <time>2026-08-31T11:33:26Z</time>
      </trkpt>
      <trkpt lat="43.4433" lon="-0.36229">
        <ele>180.2</ele>
        <time>2026-08-31T11:33:27Z</time>
      </trkpt>
      <trkpt lat="43.44329" lon="-0.3623">
        <ele>180.2</ele>
        <time>2026-08-31T11:33:28Z</time>
      </trkpt>
      <trkpt lat="43.44329" lon="-0.3623">
        <ele>180.2</ele>
        <time>2026-08-31T11:33:28Z</time>
      </trkpt>
      <trkpt lat="43.44328" lon="-0.3623">
        <ele>181.2</ele>
        <time>2026-08-31T11:33:29Z</time>
      </trkpt>
      <trkpt lat="43.44328" lon="-0.36231">
        <ele>181.2</ele>
        <time>2026-08-31T11:33:29Z</time>
      </trkpt>
      <trkpt lat="43.44327" lon="-0.36231">
        <ele>181.2</ele>
        <time>2026-08-31T11:33:30Z</time>
      </trkpt>
      <trkpt lat="43.44327" lon="-0.36232">
        <ele>181.2</ele>
        <time>2026-08-31T11:33:31Z</time>
      </trkpt>
      <trkpt lat="43.44326" lon="-0.36232">
        <ele>181.2</ele>
        <time>2026-08-31T11:33:31Z</time>
      </trkpt>
      <trkpt lat="43.44326" lon="-0.36233">
        <ele>182.2</ele>
        <time>2026-08-31T11:33:32Z</time>
      </trkpt>
      <trkpt lat="43.44325" lon="-0.36233">
        <ele>182.2</ele>
        <time>2026-08-31T11:33:32Z</time>
      </trkpt>
      <trkpt lat="43.44325" lon="-0.36234">
        <ele>182.2</ele>
        <time>2026-08-31T11:33:33Z</time>
      </trkpt>
      <trkpt lat="43.44324" lon="-0.36234">
        <ele>182.2</ele>
        <time>2026-08-31T11:33:33Z</time>
      </trkpt>
      <trkpt lat="43.44324" lon="-0.36235">
        <ele>183.2</ele>
        <time>2026-08-31T11:33:34Z</time>
      </trkpt>
      <trkpt lat="43.44323" lon="-0.36235">
        <ele>183.2</ele>
        <time>2026-08-31T11:33:35Z</time>
      </trkpt>
      <trkpt lat="43.44323" lon="-0.36236">
        <ele>183.2</ele>
        <time>2026-08-31T11:33:35Z</time>
      </trkpt>
      <trkpt lat="43.44323" lon="-0.36236">
        <ele>184.2</ele>
        <time>2026-08-31T11:33:36Z</time>
      </trkpt>
      <trkpt lat="43.44322" lon="-0.36237">
        <ele>184.2</ele>
        <time>2026-08-31T11:33:36Z</time>
      </trkpt>
      <trkpt lat="43.44322" lon="-0.36238">
        <ele>184.2</ele>
        <time>2026-08-31T11:33:37Z</time>
      </trkpt>
      <trkpt lat="43.44321" lon="-0.36238">
        <ele>184.2</ele>
        <time>2026-08-31T11:33:38Z</time>
      </trkpt>
      <trkpt lat="43.44321" lon="-0.36239">
        <ele>184.2</ele>
        <time>2026-08-31T11:33:38Z</time>
      </trkpt>
      <trkpt lat="43.4432" lon="-0.36239">
        <ele>184.2</ele>
        <time>2026-08-31T11:33:39Z</time>
      </trkpt>
      <trkpt lat="43.4432" lon="-0.3624">
        <ele>184.2</ele>
        <time>2026-08-31T11:33:39Z</time>
      </trkpt>
      <trkpt lat="43.44319" lon="-0.3624">
        <ele>184.2</ele>
        <time>2026-08-31T11:33:40Z</time>
      </trkpt>
      <trkpt lat="43.44319" lon="-0.36241">
        <ele>184.2</ele>
        <time>2026-08-31T11:33:41Z</time>
      </trkpt>
      <trkpt lat="43.44318" lon="-0.36241">
        <ele>184.2</ele>
        <time>2026-08-31T11:33:41Z</time>
      </trkpt>
      <trkpt lat="43.44318" lon="-0.36241">
        <ele>184.2</ele>
        <time>2026-08-31T11:33:42Z</time>
      </trkpt>
      <trkpt lat="43.44317" lon="-0.36242">
        <ele>184.2</ele>
        <time>2026-08-31T11:33:42Z</time>
      </trkpt>
      <trkpt lat="43.44316" lon="-0.36242">
        <ele>185.2</ele>
        <time>2026-08-31T11:33:43Z</time>
      </trkpt>
      <trkpt lat="43.44316" lon="-0.36243">
        <ele>185.2</ele>
        <time>2026-08-31T11:33:44Z</time>
      </trkpt>
      <trkpt lat="43.44315" lon="-0.36244">
        <ele>185.2</ele>
        <time>2026-08-31T11:33:45Z</time>
      </trkpt>
      <trkpt lat="43.44314" lon="-0.36245">
        <ele>184.2</ele>
        <time>2026-08-31T11:33:46Z</time>
      </trkpt>
      <trkpt lat="43.44314" lon="-0.36246">
        <ele>184.2</ele>
        <time>2026-08-31T11:33:46Z</time>
      </trkpt>
      <trkpt lat="43.44313" lon="-0.36246">
        <ele>185.2</ele>
        <time>2026-08-31T11:33:47Z</time>
      </trkpt>
      <trkpt lat="43.44313" lon="-0.36247">
        <ele>185.2</ele>
        <time>2026-08-31T11:33:48Z</time>
      </trkpt>
      <trkpt lat="43.44312" lon="-0.36248">
        <ele>185.2</ele>
        <time>2026-08-31T11:33:48Z</time>
      </trkpt>
      <trkpt lat="43.44311" lon="-0.36248">
        <ele>184.2</ele>
        <time>2026-08-31T11:33:49Z</time>
      </trkpt>
      <trkpt lat="43.44311" lon="-0.36249">
        <ele>184.2</ele>
        <time>2026-08-31T11:33:49Z</time>
      </trkpt>
      <trkpt lat="43.4431" lon="-0.3625">
        <ele>184.2</ele>
        <time>2026-08-31T11:33:50Z</time>
      </trkpt>
      <trkpt lat="43.4431" lon="-0.3625">
        <ele>184.2</ele>
        <time>2026-08-31T11:33:51Z</time>
      </trkpt>
      <trkpt lat="43.4431" lon="-0.36251">
        <ele>184.2</ele>
        <time>2026-08-31T11:33:51Z</time>
      </trkpt>
      <trkpt lat="43.44309" lon="-0.36251">
        <ele>184.2</ele>
        <time>2026-08-31T11:33:52Z</time>
      </trkpt>
      <trkpt lat="43.44309" lon="-0.36252">
        <ele>184.2</ele>
        <time>2026-08-31T11:33:52Z</time>
      </trkpt>
      <trkpt lat="43.44308" lon="-0.36253">
        <ele>184.2</ele>
        <time>2026-08-31T11:33:53Z</time>
      </trkpt>
      <trkpt lat="43.44308" lon="-0.36253">
        <ele>184.2</ele>
        <time>2026-08-31T11:33:53Z</time>
      </trkpt>
      <trkpt lat="43.44308" lon="-0.36254">
        <ele>185.2</ele>
        <time>2026-08-31T11:33:54Z</time>
      </trkpt>
      <trkpt lat="43.44307" lon="-0.36254">
        <ele>185.2</ele>
        <time>2026-08-31T11:33:55Z</time>
      </trkpt>
      <trkpt lat="43.44307" lon="-0.36255">
        <ele>185.2</ele>
        <time>2026-08-31T11:33:55Z</time>
      </trkpt>
      <trkpt lat="43.44306" lon="-0.36255">
        <ele>185.2</ele>
        <time>2026-08-31T11:33:56Z</time>
      </trkpt>
      <trkpt lat="43.44306" lon="-0.36256">
        <ele>185.2</ele>
        <time>2026-08-31T11:33:56Z</time>
      </trkpt>
      <trkpt lat="43.44305" lon="-0.36257">
        <ele>185.2</ele>
        <time>2026-08-31T11:33:57Z</time>
      </trkpt>
      <trkpt lat="43.44305" lon="-0.36257">
        <ele>185.2</ele>
        <time>2026-08-31T11:33:57Z</time>
      </trkpt>
      <trkpt lat="43.44305" lon="-0.36258">
        <ele>186.2</ele>
        <time>2026-08-31T11:33:58Z</time>
      </trkpt>
      <trkpt lat="43.44304" lon="-0.36258">
        <ele>186.2</ele>
        <time>2026-08-31T11:33:59Z</time>
      </trkpt>
      <trkpt lat="43.44304" lon="-0.36259">
        <ele>186.2</ele>
        <time>2026-08-31T11:33:59Z</time>
      </trkpt>
      <trkpt lat="43.44303" lon="-0.3626">
        <ele>186.2</ele>
        <time>2026-08-31T11:34:00Z</time>
      </trkpt>
      <trkpt lat="43.44302" lon="-0.36261">
        <ele>186.2</ele>
        <time>2026-08-31T11:34:01Z</time>
      </trkpt>
      <trkpt lat="43.44302" lon="-0.36261">
        <ele>186.2</ele>
        <time>2026-08-31T11:34:02Z</time>
      </trkpt>
      <trkpt lat="43.44301" lon="-0.36262">
        <ele>186.2</ele>
        <time>2026-08-31T11:34:02Z</time>
      </trkpt>
      <trkpt lat="43.44301" lon="-0.36262">
        <ele>186.2</ele>
        <time>2026-08-31T11:34:03Z</time>
      </trkpt>
      <trkpt lat="43.443" lon="-0.36263">
        <ele>186.2</ele>
        <time>2026-08-31T11:34:03Z</time>
      </trkpt>
      <trkpt lat="43.443" lon="-0.36264">
        <ele>186.2</ele>
        <time>2026-08-31T11:34:04Z</time>
      </trkpt>
      <trkpt lat="43.44299" lon="-0.36264">
        <ele>186.2</ele>
        <time>2026-08-31T11:34:04Z</time>
      </trkpt>
      <trkpt lat="43.44299" lon="-0.36265">
        <ele>186.2</ele>
        <time>2026-08-31T11:34:05Z</time>
      </trkpt>
      <trkpt lat="43.44298" lon="-0.36265">
        <ele>186.2</ele>
        <time>2026-08-31T11:34:06Z</time>
      </trkpt>
      <trkpt lat="43.44298" lon="-0.36266">
        <ele>186.2</ele>
        <time>2026-08-31T11:34:06Z</time>
      </trkpt>
      <trkpt lat="43.44297" lon="-0.36266">
        <ele>187.2</ele>
        <time>2026-08-31T11:34:07Z</time>
      </trkpt>
      <trkpt lat="43.44297" lon="-0.36267">
        <ele>187.2</ele>
        <time>2026-08-31T11:34:07Z</time>
      </trkpt>
      <trkpt lat="43.44296" lon="-0.36268">
        <ele>186.2</ele>
        <time>2026-08-31T11:34:08Z</time>
      </trkpt>
      <trkpt lat="43.44296" lon="-0.36269">
        <ele>187.2</ele>
        <time>2026-08-31T11:34:09Z</time>
      </trkpt>
      <trkpt lat="43.44294" lon="-0.36269">
        <ele>187.2</ele>
        <time>2026-08-31T11:34:10Z</time>
      </trkpt>
      <trkpt lat="43.44294" lon="-0.3627">
        <ele>187.2</ele>
        <time>2026-08-31T11:34:10Z</time>
      </trkpt>
      <trkpt lat="43.44293" lon="-0.3627">
        <ele>187.2</ele>
        <time>2026-08-31T11:34:11Z</time>
      </trkpt>
      <trkpt lat="43.44292" lon="-0.36271">
        <ele>187.2</ele>
        <time>2026-08-31T11:34:11Z</time>
      </trkpt>
      <trkpt lat="43.44291" lon="-0.36271">
        <ele>187.2</ele>
        <time>2026-08-31T11:34:12Z</time>
      </trkpt>
      <trkpt lat="43.44291" lon="-0.36272">
        <ele>187.2</ele>
        <time>2026-08-31T11:34:13Z</time>
      </trkpt>
      <trkpt lat="43.4429" lon="-0.36273">
        <ele>188.2</ele>
        <time>2026-08-31T11:34:13Z</time>
      </trkpt>
      <trkpt lat="43.4429" lon="-0.36273">
        <ele>188.2</ele>
        <time>2026-08-31T11:34:14Z</time>
      </trkpt>
      <trkpt lat="43.44289" lon="-0.36274">
        <ele>188.2</ele>
        <time>2026-08-31T11:34:14Z</time>
      </trkpt>
      <trkpt lat="43.44288" lon="-0.36274">
        <ele>188.2</ele>
        <time>2026-08-31T11:34:15Z</time>
      </trkpt>
      <trkpt lat="43.44288" lon="-0.36275">
        <ele>188.2</ele>
        <time>2026-08-31T11:34:15Z</time>
      </trkpt>
      <trkpt lat="43.44287" lon="-0.36275">
        <ele>187.2</ele>
        <time>2026-08-31T11:34:16Z</time>
      </trkpt>
      <trkpt lat="43.44286" lon="-0.36276">
        <ele>187.2</ele>
        <time>2026-08-31T11:34:17Z</time>
      </trkpt>
      <trkpt lat="43.44286" lon="-0.36276">
        <ele>187.2</ele>
        <time>2026-08-31T11:34:17Z</time>
      </trkpt>
      <trkpt lat="43.44285" lon="-0.36277">
        <ele>187.2</ele>
        <time>2026-08-31T11:34:18Z</time>
      </trkpt>
      <trkpt lat="43.44284" lon="-0.36277">
        <ele>187.2</ele>
        <time>2026-08-31T11:34:18Z</time>
      </trkpt>
      <trkpt lat="43.44283" lon="-0.36278">
        <ele>187.2</ele>
        <time>2026-08-31T11:34:19Z</time>
      </trkpt>
      <trkpt lat="43.44282" lon="-0.36279">
        <ele>187.2</ele>
        <time>2026-08-31T11:34:20Z</time>
      </trkpt>
      <trkpt lat="43.44282" lon="-0.36279">
        <ele>187.2</ele>
        <time>2026-08-31T11:34:20Z</time>
      </trkpt>
      <trkpt lat="43.44281" lon="-0.3628">
        <ele>187.2</ele>
        <time>2026-08-31T11:34:21Z</time>
      </trkpt>
      <trkpt lat="43.4428" lon="-0.36281">
        <ele>187.2</ele>
        <time>2026-08-31T11:34:22Z</time>
      </trkpt>
      <trkpt lat="43.44279" lon="-0.36281">
        <ele>187.2</ele>
        <time>2026-08-31T11:34:23Z</time>
      </trkpt>
      <trkpt lat="43.44279" lon="-0.36282">
        <ele>187.2</ele>
        <time>2026-08-31T11:34:23Z</time>
      </trkpt>
      <trkpt lat="43.44278" lon="-0.36282">
        <ele>187.2</ele>
        <time>2026-08-31T11:34:24Z</time>
      </trkpt>
      <trkpt lat="43.44278" lon="-0.36283">
        <ele>187.2</ele>
        <time>2026-08-31T11:34:25Z</time>
      </trkpt>
      <trkpt lat="43.44277" lon="-0.36283">
        <ele>187.2</ele>
        <time>2026-08-31T11:34:25Z</time>
      </trkpt>
      <trkpt lat="43.44277" lon="-0.36284">
        <ele>187.2</ele>
        <time>2026-08-31T11:34:26Z</time>
      </trkpt>
      <trkpt lat="43.44277" lon="-0.36284">
        <ele>187.2</ele>
        <time>2026-08-31T11:34:26Z</time>
      </trkpt>
      <trkpt lat="43.44276" lon="-0.36285">
        <ele>187.2</ele>
        <time>2026-08-31T11:34:27Z</time>
      </trkpt>
      <trkpt lat="43.44276" lon="-0.36285">
        <ele>187.2</ele>
        <time>2026-08-31T11:34:27Z</time>
      </trkpt>
      <trkpt lat="43.44275" lon="-0.36286">
        <ele>186.2</ele>
        <time>2026-08-31T11:34:28Z</time>
      </trkpt>
      <trkpt lat="43.44275" lon="-0.36286">
        <ele>186.2</ele>
        <time>2026-08-31T11:34:28Z</time>
      </trkpt>
      <trkpt lat="43.44274" lon="-0.36287">
        <ele>187.2</ele>
        <time>2026-08-31T11:34:29Z</time>
      </trkpt>
      <trkpt lat="43.44274" lon="-0.36288">
        <ele>187.2</ele>
        <time>2026-08-31T11:34:30Z</time>
      </trkpt>
      <trkpt lat="43.44273" lon="-0.36288">
        <ele>186.2</ele>
        <time>2026-08-31T11:34:30Z</time>
      </trkpt>
      <trkpt lat="43.44273" lon="-0.36289">
        <ele>186.2</ele>
        <time>2026-08-31T11:34:31Z</time>
      </trkpt>
      <trkpt lat="43.44272" lon="-0.36289">
        <ele>186.2</ele>
        <time>2026-08-31T11:34:31Z</time>
      </trkpt>
      <trkpt lat="43.44271" lon="-0.3629">
        <ele>186.2</ele>
        <time>2026-08-31T11:34:32Z</time>
      </trkpt>
      <trkpt lat="43.44271" lon="-0.36291">
        <ele>186.2</ele>
        <time>2026-08-31T11:34:32Z</time>
      </trkpt>
      <trkpt lat="43.4427" lon="-0.36291">
        <ele>185.2</ele>
        <time>2026-08-31T11:34:33Z</time>
      </trkpt>
      <trkpt lat="43.4427" lon="-0.36292">
        <ele>186.2</ele>
        <time>2026-08-31T11:34:34Z</time>
      </trkpt>
      <trkpt lat="43.44269" lon="-0.36293">
        <ele>186.2</ele>
        <time>2026-08-31T11:34:35Z</time>
      </trkpt>
      <trkpt lat="43.44268" lon="-0.36294">
        <ele>186.2</ele>
        <time>2026-08-31T11:34:35Z</time>
      </trkpt>
      <trkpt lat="43.44268" lon="-0.36294">
        <ele>186.2</ele>
        <time>2026-08-31T11:34:36Z</time>
      </trkpt>
      <trkpt lat="43.44267" lon="-0.36295">
        <ele>186.2</ele>
        <time>2026-08-31T11:34:36Z</time>
      </trkpt>
      <trkpt lat="43.44266" lon="-0.36296">
        <ele>186.2</ele>
        <time>2026-08-31T11:34:37Z</time>
      </trkpt>
      <trkpt lat="43.44266" lon="-0.36296">
        <ele>186.2</ele>
        <time>2026-08-31T11:34:37Z</time>
      </trkpt>
      <trkpt lat="43.44265" lon="-0.36297">
        <ele>185.2</ele>
        <time>2026-08-31T11:34:38Z</time>
      </trkpt>
      <trkpt lat="43.44265" lon="-0.36298">
        <ele>185.2</ele>
        <time>2026-08-31T11:34:39Z</time>
      </trkpt>
      <trkpt lat="43.44264" lon="-0.36298">
        <ele>186.2</ele>
        <time>2026-08-31T11:34:39Z</time>
      </trkpt>
      <trkpt lat="43.44264" lon="-0.36299">
        <ele>186.2</ele>
        <time>2026-08-31T11:34:40Z</time>
      </trkpt>
      <trkpt lat="43.44263" lon="-0.36299">
        <ele>185.2</ele>
        <time>2026-08-31T11:34:40Z</time>
      </trkpt>
      <trkpt lat="43.44262" lon="-0.363">
        <ele>185.2</ele>
        <time>2026-08-31T11:34:41Z</time>
      </trkpt>
      <trkpt lat="43.44262" lon="-0.363">
        <ele>185.2</ele>
        <time>2026-08-31T11:34:41Z</time>
      </trkpt>
      <trkpt lat="43.44261" lon="-0.363">
        <ele>186.2</ele>
        <time>2026-08-31T11:34:42Z</time>
      </trkpt>
      <trkpt lat="43.4426" lon="-0.36301">
        <ele>186.2</ele>
        <time>2026-08-31T11:34:43Z</time>
      </trkpt>
      <trkpt lat="43.4426" lon="-0.36301">
        <ele>186.2</ele>
        <time>2026-08-31T11:34:43Z</time>
      </trkpt>
      <trkpt lat="43.44259" lon="-0.36302">
        <ele>186.2</ele>
        <time>2026-08-31T11:34:44Z</time>
      </trkpt>
      <trkpt lat="43.44259" lon="-0.36302">
        <ele>186.2</ele>
        <time>2026-08-31T11:34:44Z</time>
      </trkpt>
      <trkpt lat="43.44258" lon="-0.36303">
        <ele>186.2</ele>
        <time>2026-08-31T11:34:45Z</time>
      </trkpt>
      <trkpt lat="43.44257" lon="-0.36303">
        <ele>186.2</ele>
        <time>2026-08-31T11:34:45Z</time>
      </trkpt>
      <trkpt lat="43.44257" lon="-0.36303">
        <ele>186.2</ele>
        <time>2026-08-31T11:34:46Z</time>
      </trkpt>
      <trkpt lat="43.44256" lon="-0.36304">
        <ele>186.2</ele>
        <time>2026-08-31T11:34:46Z</time>
      </trkpt>
      <trkpt lat="43.44256" lon="-0.36304">
        <ele>186.2</ele>
        <time>2026-08-31T11:34:47Z</time>
      </trkpt>
      <trkpt lat="43.44255" lon="-0.36305">
        <ele>186.2</ele>
        <time>2026-08-31T11:34:47Z</time>
      </trkpt>
      <trkpt lat="43.44254" lon="-0.36305">
        <ele>186.2</ele>
        <time>2026-08-31T11:34:48Z</time>
      </trkpt>
      <trkpt lat="43.44254" lon="-0.36306">
        <ele>186.2</ele>
        <time>2026-08-31T11:34:49Z</time>
      </trkpt>
      <trkpt lat="43.44253" lon="-0.36306">
        <ele>186.2</ele>
        <time>2026-08-31T11:34:49Z</time>
      </trkpt>
      <trkpt lat="43.44253" lon="-0.36306">
        <ele>186.2</ele>
        <time>2026-08-31T11:34:50Z</time>
      </trkpt>
      <trkpt lat="43.44252" lon="-0.36307">
        <ele>186.2</ele>
        <time>2026-08-31T11:34:50Z</time>
      </trkpt>
      <trkpt lat="43.44251" lon="-0.36307">
        <ele>186.2</ele>
        <time>2026-08-31T11:34:51Z</time>
      </trkpt>
      <trkpt lat="43.44251" lon="-0.36308">
        <ele>186.2</ele>
        <time>2026-08-31T11:34:51Z</time>
      </trkpt>
      <trkpt lat="43.4425" lon="-0.36308">
        <ele>185.2</ele>
        <time>2026-08-31T11:34:52Z</time>
      </trkpt>
      <trkpt lat="43.44249" lon="-0.36309">
        <ele>185.2</ele>
        <time>2026-08-31T11:34:53Z</time>
      </trkpt>
      <trkpt lat="43.44249" lon="-0.36309">
        <ele>185.2</ele>
        <time>2026-08-31T11:34:53Z</time>
      </trkpt>
      <trkpt lat="43.44248" lon="-0.3631">
        <ele>185.2</ele>
        <time>2026-08-31T11:34:54Z</time>
      </trkpt>
      <trkpt lat="43.44248" lon="-0.3631">
        <ele>185.2</ele>
        <time>2026-08-31T11:34:54Z</time>
      </trkpt>
      <trkpt lat="43.44247" lon="-0.36311">
        <ele>186.2</ele>
        <time>2026-08-31T11:34:55Z</time>
      </trkpt>
      <trkpt lat="43.44247" lon="-0.36311">
        <ele>186.2</ele>
        <time>2026-08-31T11:34:55Z</time>
      </trkpt>
      <trkpt lat="43.44246" lon="-0.36312">
        <ele>186.2</ele>
        <time>2026-08-31T11:34:56Z</time>
      </trkpt>
      <trkpt lat="43.44245" lon="-0.36313">
        <ele>186.2</ele>
        <time>2026-08-31T11:34:57Z</time>
      </trkpt>
      <trkpt lat="43.44245" lon="-0.36313">
        <ele>186.2</ele>
        <time>2026-08-31T11:34:57Z</time>
      </trkpt>
      <trkpt lat="43.44244" lon="-0.36314">
        <ele>186.2</ele>
        <time>2026-08-31T11:34:58Z</time>
      </trkpt>
      <trkpt lat="43.44244" lon="-0.36314">
        <ele>186.2</ele>
        <time>2026-08-31T11:34:58Z</time>
      </trkpt>
      <trkpt lat="43.44243" lon="-0.36315">
        <ele>185.2</ele>
        <time>2026-08-31T11:34:59Z</time>
      </trkpt>
      <trkpt lat="43.44243" lon="-0.36316">
        <ele>185.2</ele>
        <time>2026-08-31T11:34:59Z</time>
      </trkpt>
      <trkpt lat="43.44242" lon="-0.36316">
        <ele>185.2</ele>
        <time>2026-08-31T11:35:00Z</time>
      </trkpt>
      <trkpt lat="43.44242" lon="-0.36317">
        <ele>185.2</ele>
        <time>2026-08-31T11:35:01Z</time>
      </trkpt>
      <trkpt lat="43.44241" lon="-0.36318">
        <ele>185.2</ele>
        <time>2026-08-31T11:35:01Z</time>
      </trkpt>
      <trkpt lat="43.44241" lon="-0.36319">
        <ele>185.2</ele>
        <time>2026-08-31T11:35:02Z</time>
      </trkpt>
      <trkpt lat="43.44241" lon="-0.36319">
        <ele>185.2</ele>
        <time>2026-08-31T11:35:02Z</time>
      </trkpt>
      <trkpt lat="43.4424" lon="-0.3632">
        <ele>185.2</ele>
        <time>2026-08-31T11:35:03Z</time>
      </trkpt>
      <trkpt lat="43.4424" lon="-0.36321">
        <ele>185.2</ele>
        <time>2026-08-31T11:35:03Z</time>
      </trkpt>
      <trkpt lat="43.4424" lon="-0.36322">
        <ele>186.2</ele>
        <time>2026-08-31T11:35:04Z</time>
      </trkpt>
      <trkpt lat="43.44239" lon="-0.36323">
        <ele>186.2</ele>
        <time>2026-08-31T11:35:05Z</time>
      </trkpt>
      <trkpt lat="43.44239" lon="-0.36324">
        <ele>186.2</ele>
        <time>2026-08-31T11:35:05Z</time>
      </trkpt>
      <trkpt lat="43.44238" lon="-0.36325">
        <ele>186.2</ele>
        <time>2026-08-31T11:35:06Z</time>
      </trkpt>
      <trkpt lat="43.44238" lon="-0.36326">
        <ele>186.2</ele>
        <time>2026-08-31T11:35:06Z</time>
      </trkpt>
      <trkpt lat="43.44238" lon="-0.36327">
        <ele>185.2</ele>
        <time>2026-08-31T11:35:07Z</time>
      </trkpt>
      <trkpt lat="43.44238" lon="-0.36328">
        <ele>185.2</ele>
        <time>2026-08-31T11:35:07Z</time>
      </trkpt>
      <trkpt lat="43.44238" lon="-0.36329">
        <ele>185.2</ele>
        <time>2026-08-31T11:35:08Z</time>
      </trkpt>
      <trkpt lat="43.44238" lon="-0.3633">
        <ele>185.2</ele>
        <time>2026-08-31T11:35:09Z</time>
      </trkpt>
      <trkpt lat="43.44238" lon="-0.36331">
        <ele>185.2</ele>
        <time>2026-08-31T11:35:09Z</time>
      </trkpt>
      <trkpt lat="43.44237" lon="-0.36331">
        <ele>185.2</ele>
        <time>2026-08-31T11:35:10Z</time>
      </trkpt>
      <trkpt lat="43.44237" lon="-0.36332">
        <ele>185.2</ele>
        <time>2026-08-31T11:35:10Z</time>
      </trkpt>
      <trkpt lat="43.44237" lon="-0.36333">
        <ele>185.2</ele>
        <time>2026-08-31T11:35:11Z</time>
      </trkpt>
      <trkpt lat="43.44237" lon="-0.36334">
        <ele>185.2</ele>
        <time>2026-08-31T11:35:11Z</time>
      </trkpt>
      <trkpt lat="43.44237" lon="-0.36335">
        <ele>186.2</ele>
        <time>2026-08-31T11:35:12Z</time>
      </trkpt>
      <trkpt lat="43.44237" lon="-0.36335">
        <ele>186.2</ele>
        <time>2026-08-31T11:35:13Z</time>
      </trkpt>
      <trkpt lat="43.44237" lon="-0.36336">
        <ele>186.2</ele>
        <time>2026-08-31T11:35:13Z</time>
      </trkpt>
      <trkpt lat="43.44237" lon="-0.36337">
        <ele>185.2</ele>
        <time>2026-08-31T11:35:14Z</time>
      </trkpt>
      <trkpt lat="43.44237" lon="-0.36338">
        <ele>185.2</ele>
        <time>2026-08-31T11:35:14Z</time>
      </trkpt>
      <trkpt lat="43.44237" lon="-0.36339">
        <ele>185.2</ele>
        <time>2026-08-31T11:35:15Z</time>
      </trkpt>
      <trkpt lat="43.44237" lon="-0.3634">
        <ele>185.2</ele>
        <time>2026-08-31T11:35:16Z</time>
      </trkpt>
      <trkpt lat="43.44237" lon="-0.36341">
        <ele>185.2</ele>
        <time>2026-08-31T11:35:16Z</time>
      </trkpt>
      <trkpt lat="43.44237" lon="-0.36342">
        <ele>185.2</ele>
        <time>2026-08-31T11:35:17Z</time>
      </trkpt>
      <trkpt lat="43.44237" lon="-0.36343">
        <ele>185.2</ele>
        <time>2026-08-31T11:35:17Z</time>
      </trkpt>
      <trkpt lat="43.44237" lon="-0.36344">
        <ele>185.2</ele>
        <time>2026-08-31T11:35:18Z</time>
      </trkpt>
      <trkpt lat="43.44237" lon="-0.36345">
        <ele>185.2</ele>
        <time>2026-08-31T11:35:18Z</time>
      </trkpt>
      <trkpt lat="43.44238" lon="-0.36346">
        <ele>185.2</ele>
        <time>2026-08-31T11:35:19Z</time>
      </trkpt>
      <trkpt lat="43.44238" lon="-0.36347">
        <ele>185.2</ele>
        <time>2026-08-31T11:35:20Z</time>
      </trkpt>
      <trkpt lat="43.44238" lon="-0.36347">
        <ele>185.2</ele>
        <time>2026-08-31T11:35:20Z</time>
      </trkpt>
      <trkpt lat="43.44238" lon="-0.36348">
        <ele>185.2</ele>
        <time>2026-08-31T11:35:21Z</time>
      </trkpt>
      <trkpt lat="43.44238" lon="-0.36349">
        <ele>185.2</ele>
        <time>2026-08-31T11:35:21Z</time>
      </trkpt>
      <trkpt lat="43.44239" lon="-0.3635">
        <ele>185.2</ele>
        <time>2026-08-31T11:35:22Z</time>
      </trkpt>
      <trkpt lat="43.44239" lon="-0.36351">
        <ele>185.2</ele>
        <time>2026-08-31T11:35:22Z</time>
      </trkpt>
      <trkpt lat="43.44239" lon="-0.36351">
        <ele>185.2</ele>
        <time>2026-08-31T11:35:23Z</time>
      </trkpt>
      <trkpt lat="43.44239" lon="-0.36353">
        <ele>185.2</ele>
        <time>2026-08-31T11:35:24Z</time>
      </trkpt>
      <trkpt lat="43.44239" lon="-0.36353">
        <ele>185.2</ele>
        <time>2026-08-31T11:35:24Z</time>
      </trkpt>
      <trkpt lat="43.44239" lon="-0.36354">
        <ele>185.2</ele>
        <time>2026-08-31T11:35:25Z</time>
      </trkpt>
      <trkpt lat="43.44239" lon="-0.36355">
        <ele>185.2</ele>
        <time>2026-08-31T11:35:25Z</time>
      </trkpt>
      <trkpt lat="43.44239" lon="-0.36356">
        <ele>185.2</ele>
        <time>2026-08-31T11:35:26Z</time>
      </trkpt>
      <trkpt lat="43.4424" lon="-0.36356">
        <ele>185.2</ele>
        <time>2026-08-31T11:35:26Z</time>
      </trkpt>
      <trkpt lat="43.4424" lon="-0.36357">
        <ele>185.2</ele>
        <time>2026-08-31T11:35:27Z</time>
      </trkpt>
      <trkpt lat="43.4424" lon="-0.36358">
        <ele>185.2</ele>
        <time>2026-08-31T11:35:28Z</time>
      </trkpt>
      <trkpt lat="43.4424" lon="-0.36359">
        <ele>185.2</ele>
        <time>2026-08-31T11:35:28Z</time>
      </trkpt>
      <trkpt lat="43.4424" lon="-0.36359">
        <ele>185.2</ele>
        <time>2026-08-31T11:35:29Z</time>
      </trkpt>
      <trkpt lat="43.4424" lon="-0.3636">
        <ele>185.2</ele>
        <time>2026-08-31T11:35:29Z</time>
      </trkpt>
      <trkpt lat="43.44241" lon="-0.36362">
        <ele>185.2</ele>
        <time>2026-08-31T11:35:30Z</time>
      </trkpt>
      <trkpt lat="43.44241" lon="-0.36363">
        <ele>185.2</ele>
        <time>2026-08-31T11:35:31Z</time>
      </trkpt>
      <trkpt lat="43.44241" lon="-0.36363">
        <ele>185.2</ele>
        <time>2026-08-31T11:35:32Z</time>
      </trkpt>
      <trkpt lat="43.44241" lon="-0.36364">
        <ele>185.2</ele>
        <time>2026-08-31T11:35:32Z</time>
      </trkpt>
      <trkpt lat="43.44241" lon="-0.36365">
        <ele>186.2</ele>
        <time>2026-08-31T11:35:33Z</time>
      </trkpt>
      <trkpt lat="43.44241" lon="-0.36365">
        <ele>186.2</ele>
        <time>2026-08-31T11:35:33Z</time>
      </trkpt>
      <trkpt lat="43.44241" lon="-0.36366">
        <ele>186.2</ele>
        <time>2026-08-31T11:35:34Z</time>
      </trkpt>
      <trkpt lat="43.44242" lon="-0.36367">
        <ele>186.2</ele>
        <time>2026-08-31T11:35:35Z</time>
      </trkpt>
      <trkpt lat="43.44242" lon="-0.36368">
        <ele>186.2</ele>
        <time>2026-08-31T11:35:35Z</time>
      </trkpt>
      <trkpt lat="43.44242" lon="-0.36368">
        <ele>186.2</ele>
        <time>2026-08-31T11:35:36Z</time>
      </trkpt>
      <trkpt lat="43.44242" lon="-0.36369">
        <ele>186.2</ele>
        <time>2026-08-31T11:35:36Z</time>
      </trkpt>
      <trkpt lat="43.44243" lon="-0.3637">
        <ele>186.2</ele>
        <time>2026-08-31T11:35:37Z</time>
      </trkpt>
      <trkpt lat="43.44243" lon="-0.36371">
        <ele>186.2</ele>
        <time>2026-08-31T11:35:37Z</time>
      </trkpt>
      <trkpt lat="43.44243" lon="-0.36371">
        <ele>186.2</ele>
        <time>2026-08-31T11:35:38Z</time>
      </trkpt>
      <trkpt lat="43.44244" lon="-0.36372">
        <ele>186.2</ele>
        <time>2026-08-31T11:35:39Z</time>
      </trkpt>
      <trkpt lat="43.44244" lon="-0.36373">
        <ele>187.2</ele>
        <time>2026-08-31T11:35:39Z</time>
      </trkpt>
      <trkpt lat="43.44244" lon="-0.36374">
        <ele>187.2</ele>
        <time>2026-08-31T11:35:40Z</time>
      </trkpt>
      <trkpt lat="43.44244" lon="-0.36374">
        <ele>187.2</ele>
        <time>2026-08-31T11:35:40Z</time>
      </trkpt>
      <trkpt lat="43.44245" lon="-0.36375">
        <ele>187.2</ele>
        <time>2026-08-31T11:35:41Z</time>
      </trkpt>
      <trkpt lat="43.44245" lon="-0.36376">
        <ele>187.2</ele>
        <time>2026-08-31T11:35:42Z</time>
      </trkpt>
      <trkpt lat="43.44245" lon="-0.36377">
        <ele>187.2</ele>
        <time>2026-08-31T11:35:42Z</time>
      </trkpt>
      <trkpt lat="43.44246" lon="-0.36378">
        <ele>187.2</ele>
        <time>2026-08-31T11:35:43Z</time>
      </trkpt>
      <trkpt lat="43.44246" lon="-0.36379">
        <ele>187.2</ele>
        <time>2026-08-31T11:35:44Z</time>
      </trkpt>
      <trkpt lat="43.44246" lon="-0.3638">
        <ele>187.2</ele>
        <time>2026-08-31T11:35:44Z</time>
      </trkpt>
      <trkpt lat="43.44246" lon="-0.3638">
        <ele>187.2</ele>
        <time>2026-08-31T11:35:45Z</time>
      </trkpt>
      <trkpt lat="43.44247" lon="-0.36381">
        <ele>187.2</ele>
        <time>2026-08-31T11:35:46Z</time>
      </trkpt>
      <trkpt lat="43.44247" lon="-0.36382">
        <ele>188.2</ele>
        <time>2026-08-31T11:35:46Z</time>
      </trkpt>
      <trkpt lat="43.44247" lon="-0.36382">
        <ele>188.2</ele>
        <time>2026-08-31T11:35:47Z</time>
      </trkpt>
      <trkpt lat="43.44247" lon="-0.36383">
        <ele>188.2</ele>
        <time>2026-08-31T11:35:47Z</time>
      </trkpt>
      <trkpt lat="43.44247" lon="-0.36384">
        <ele>188.2</ele>
        <time>2026-08-31T11:35:48Z</time>
      </trkpt>
      <trkpt lat="43.44248" lon="-0.36384">
        <ele>188.2</ele>
        <time>2026-08-31T11:35:49Z</time>
      </trkpt>
      <trkpt lat="43.44248" lon="-0.36385">
        <ele>188.2</ele>
        <time>2026-08-31T11:35:49Z</time>
      </trkpt>
      <trkpt lat="43.44248" lon="-0.36386">
        <ele>188.2</ele>
        <time>2026-08-31T11:35:50Z</time>
      </trkpt>
      <trkpt lat="43.44248" lon="-0.36386">
        <ele>188.2</ele>
        <time>2026-08-31T11:35:50Z</time>
      </trkpt>
      <trkpt lat="43.44249" lon="-0.36387">
        <ele>188.2</ele>
        <time>2026-08-31T11:35:51Z</time>
      </trkpt>
      <trkpt lat="43.44249" lon="-0.36388">
        <ele>188.2</ele>
        <time>2026-08-31T11:35:51Z</time>
      </trkpt>
      <trkpt lat="43.44249" lon="-0.36388">
        <ele>188.2</ele>
        <time>2026-08-31T11:35:52Z</time>
      </trkpt>
      <trkpt lat="43.4425" lon="-0.36389">
        <ele>188.2</ele>
        <time>2026-08-31T11:35:53Z</time>
      </trkpt>
      <trkpt lat="43.4425" lon="-0.36389">
        <ele>188.2</ele>
        <time>2026-08-31T11:35:53Z</time>
      </trkpt>
      <trkpt lat="43.4425" lon="-0.3639">
        <ele>188.2</ele>
        <time>2026-08-31T11:35:54Z</time>
      </trkpt>
      <trkpt lat="43.44251" lon="-0.36391">
        <ele>188.2</ele>
        <time>2026-08-31T11:35:54Z</time>
      </trkpt>
      <trkpt lat="43.44251" lon="-0.36391">
        <ele>188.2</ele>
        <time>2026-08-31T11:35:55Z</time>
      </trkpt>
      <trkpt lat="43.44252" lon="-0.36392">
        <ele>188.2</ele>
        <time>2026-08-31T11:35:55Z</time>
      </trkpt>
      <trkpt lat="43.44252" lon="-0.36392">
        <ele>188.2</ele>
        <time>2026-08-31T11:35:56Z</time>
      </trkpt>
      <trkpt lat="43.44253" lon="-0.36393">
        <ele>188.2</ele>
        <time>2026-08-31T11:35:57Z</time>
      </trkpt>
      <trkpt lat="43.44253" lon="-0.36393">
        <ele>188.2</ele>
        <time>2026-08-31T11:35:57Z</time>
      </trkpt>
      <trkpt lat="43.44253" lon="-0.36394">
        <ele>188.2</ele>
        <time>2026-08-31T11:35:58Z</time>
      </trkpt>
      <trkpt lat="43.44254" lon="-0.36395">
        <ele>188.2</ele>
        <time>2026-08-31T11:35:59Z</time>
      </trkpt>
      <trkpt lat="43.44254" lon="-0.36396">
        <ele>189.2</ele>
        <time>2026-08-31T11:35:59Z</time>
      </trkpt>
      <trkpt lat="43.44255" lon="-0.36396">
        <ele>189.2</ele>
        <time>2026-08-31T11:36:00Z</time>
      </trkpt>
      <trkpt lat="43.44255" lon="-0.36397">
        <ele>189.2</ele>
        <time>2026-08-31T11:36:01Z</time>
      </trkpt>
      <trkpt lat="43.44255" lon="-0.36398">
        <ele>190.2</ele>
        <time>2026-08-31T11:36:01Z</time>
      </trkpt>
      <trkpt lat="43.44256" lon="-0.36398">
        <ele>190.2</ele>
        <time>2026-08-31T11:36:02Z</time>
      </trkpt>
      <trkpt lat="43.44256" lon="-0.36399">
        <ele>190.2</ele>
        <time>2026-08-31T11:36:02Z</time>
      </trkpt>
      <trkpt lat="43.44256" lon="-0.364">
        <ele>190.2</ele>
        <time>2026-08-31T11:36:03Z</time>
      </trkpt>
      <trkpt lat="43.44257" lon="-0.36401">
        <ele>190.2</ele>
        <time>2026-08-31T11:36:04Z</time>
      </trkpt>
      <trkpt lat="43.44257" lon="-0.36401">
        <ele>190.2</ele>
        <time>2026-08-31T11:36:04Z</time>
      </trkpt>
      <trkpt lat="43.44257" lon="-0.36402">
        <ele>190.2</ele>
        <time>2026-08-31T11:36:05Z</time>
      </trkpt>
      <trkpt lat="43.44257" lon="-0.36403">
        <ele>190.2</ele>
        <time>2026-08-31T11:36:05Z</time>
      </trkpt>
      <trkpt lat="43.44257" lon="-0.36404">
        <ele>190.2</ele>
        <time>2026-08-31T11:36:06Z</time>
      </trkpt>
      <trkpt lat="43.44258" lon="-0.36405">
        <ele>190.2</ele>
        <time>2026-08-31T11:36:06Z</time>
      </trkpt>
      <trkpt lat="43.44258" lon="-0.36405">
        <ele>190.2</ele>
        <time>2026-08-31T11:36:07Z</time>
      </trkpt>
      <trkpt lat="43.44258" lon="-0.36406">
        <ele>190.2</ele>
        <time>2026-08-31T11:36:08Z</time>
      </trkpt>
      <trkpt lat="43.44259" lon="-0.36407">
        <ele>191.2</ele>
        <time>2026-08-31T11:36:08Z</time>
      </trkpt>
      <trkpt lat="43.44259" lon="-0.36408">
        <ele>191.2</ele>
        <time>2026-08-31T11:36:09Z</time>
      </trkpt>
      <trkpt lat="43.44259" lon="-0.36408">
        <ele>191.2</ele>
        <time>2026-08-31T11:36:09Z</time>
      </trkpt>
      <trkpt lat="43.4426" lon="-0.36409">
        <ele>191.2</ele>
        <time>2026-08-31T11:36:10Z</time>
      </trkpt>
      <trkpt lat="43.4426" lon="-0.3641">
        <ele>191.2</ele>
        <time>2026-08-31T11:36:10Z</time>
      </trkpt>
      <trkpt lat="43.4426" lon="-0.3641">
        <ele>191.2</ele>
        <time>2026-08-31T11:36:11Z</time>
      </trkpt>
      <trkpt lat="43.44261" lon="-0.36411">
        <ele>191.2</ele>
        <time>2026-08-31T11:36:12Z</time>
      </trkpt>
      <trkpt lat="43.44261" lon="-0.36412">
        <ele>192.2</ele>
        <time>2026-08-31T11:36:12Z</time>
      </trkpt>
      <trkpt lat="43.44262" lon="-0.36412">
        <ele>192.2</ele>
        <time>2026-08-31T11:36:13Z</time>
      </trkpt>
      <trkpt lat="43.44262" lon="-0.36413">
        <ele>192.2</ele>
        <time>2026-08-31T11:36:13Z</time>
      </trkpt>
      <trkpt lat="43.44262" lon="-0.36414">
        <ele>192.2</ele>
        <time>2026-08-31T11:36:14Z</time>
      </trkpt>
      <trkpt lat="43.44263" lon="-0.36415">
        <ele>192.2</ele>
        <time>2026-08-31T11:36:15Z</time>
      </trkpt>
      <trkpt lat="43.44263" lon="-0.36416">
        <ele>192.2</ele>
        <time>2026-08-31T11:36:15Z</time>
      </trkpt>
      <trkpt lat="43.44263" lon="-0.36416">
        <ele>193.2</ele>
        <time>2026-08-31T11:36:16Z</time>
      </trkpt>
      <trkpt lat="43.44264" lon="-0.36417">
        <ele>193.2</ele>
        <time>2026-08-31T11:36:16Z</time>
      </trkpt>
      <trkpt lat="43.44264" lon="-0.36418">
        <ele>193.2</ele>
        <time>2026-08-31T11:36:17Z</time>
      </trkpt>
      <trkpt lat="43.44264" lon="-0.36419">
        <ele>193.2</ele>
        <time>2026-08-31T11:36:17Z</time>
      </trkpt>
      <trkpt lat="43.44265" lon="-0.36419">
        <ele>192.2</ele>
        <time>2026-08-31T11:36:18Z</time>
      </trkpt>
      <trkpt lat="43.44265" lon="-0.3642">
        <ele>192.2</ele>
        <time>2026-08-31T11:36:19Z</time>
      </trkpt>
      <trkpt lat="43.44265" lon="-0.36421">
        <ele>192.2</ele>
        <time>2026-08-31T11:36:20Z</time>
      </trkpt>
      <trkpt lat="43.44266" lon="-0.36422">
        <ele>193.2</ele>
        <time>2026-08-31T11:36:20Z</time>
      </trkpt>
      <trkpt lat="43.44266" lon="-0.36423">
        <ele>193.2</ele>
        <time>2026-08-31T11:36:21Z</time>
      </trkpt>
      <trkpt lat="43.44266" lon="-0.36423">
        <ele>192.2</ele>
        <time>2026-08-31T11:36:21Z</time>
      </trkpt>
      <trkpt lat="43.44267" lon="-0.36424">
        <ele>193.2</ele>
        <time>2026-08-31T11:36:22Z</time>
      </trkpt>
      <trkpt lat="43.44267" lon="-0.36424">
        <ele>193.2</ele>
        <time>2026-08-31T11:36:23Z</time>
      </trkpt>
      <trkpt lat="43.44268" lon="-0.36425">
        <ele>193.2</ele>
        <time>2026-08-31T11:36:23Z</time>
      </trkpt>
      <trkpt lat="43.44268" lon="-0.36426">
        <ele>193.2</ele>
        <time>2026-08-31T11:36:24Z</time>
      </trkpt>
      <trkpt lat="43.44269" lon="-0.36426">
        <ele>193.2</ele>
        <time>2026-08-31T11:36:25Z</time>
      </trkpt>
      <trkpt lat="43.44269" lon="-0.36427">
        <ele>193.2</ele>
        <time>2026-08-31T11:36:25Z</time>
      </trkpt>
      <trkpt lat="43.44269" lon="-0.36428">
        <ele>193.2</ele>
        <time>2026-08-31T11:36:26Z</time>
      </trkpt>
      <trkpt lat="43.4427" lon="-0.36429">
        <ele>193.2</ele>
        <time>2026-08-31T11:36:26Z</time>
      </trkpt>
      <trkpt lat="43.4427" lon="-0.3643">
        <ele>193.2</ele>
        <time>2026-08-31T11:36:27Z</time>
      </trkpt>
      <trkpt lat="43.44271" lon="-0.36431">
        <ele>193.2</ele>
        <time>2026-08-31T11:36:27Z</time>
      </trkpt>
      <trkpt lat="43.44271" lon="-0.36432">
        <ele>193.2</ele>
        <time>2026-08-31T11:36:28Z</time>
      </trkpt>
      <trkpt lat="43.44271" lon="-0.36432">
        <ele>193.2</ele>
        <time>2026-08-31T11:36:29Z</time>
      </trkpt>
      <trkpt lat="43.44271" lon="-0.36433">
        <ele>193.2</ele>
        <time>2026-08-31T11:36:29Z</time>
      </trkpt>
      <trkpt lat="43.44272" lon="-0.36434">
        <ele>193.2</ele>
        <time>2026-08-31T11:36:30Z</time>
      </trkpt>
      <trkpt lat="43.44272" lon="-0.36435">
        <ele>193.2</ele>
        <time>2026-08-31T11:36:30Z</time>
      </trkpt>
      <trkpt lat="43.44272" lon="-0.36436">
        <ele>194.2</ele>
        <time>2026-08-31T11:36:31Z</time>
      </trkpt>
      <trkpt lat="43.44273" lon="-0.36437">
        <ele>194.2</ele>
        <time>2026-08-31T11:36:32Z</time>
      </trkpt>
      <trkpt lat="43.44273" lon="-0.36438">
        <ele>195.2</ele>
        <time>2026-08-31T11:36:32Z</time>
      </trkpt>
      <trkpt lat="43.44274" lon="-0.36439">
        <ele>195.2</ele>
        <time>2026-08-31T11:36:33Z</time>
      </trkpt>
      <trkpt lat="43.44274" lon="-0.3644">
        <ele>195.2</ele>
        <time>2026-08-31T11:36:33Z</time>
      </trkpt>
      <trkpt lat="43.44274" lon="-0.36441">
        <ele>196.2</ele>
        <time>2026-08-31T11:36:34Z</time>
      </trkpt>
      <trkpt lat="43.44274" lon="-0.36442">
        <ele>196.2</ele>
        <time>2026-08-31T11:36:34Z</time>
      </trkpt>
      <trkpt lat="43.44274" lon="-0.36443">
        <ele>195.2</ele>
        <time>2026-08-31T11:36:35Z</time>
      </trkpt>
      <trkpt lat="43.44275" lon="-0.36443">
        <ele>195.2</ele>
        <time>2026-08-31T11:36:35Z</time>
      </trkpt>
      <trkpt lat="43.44275" lon="-0.36445">
        <ele>196.2</ele>
        <time>2026-08-31T11:36:36Z</time>
      </trkpt>
      <trkpt lat="43.44275" lon="-0.36445">
        <ele>196.2</ele>
        <time>2026-08-31T11:36:37Z</time>
      </trkpt>
      <trkpt lat="43.44275" lon="-0.36446">
        <ele>196.2</ele>
        <time>2026-08-31T11:36:37Z</time>
      </trkpt>
      <trkpt lat="43.44276" lon="-0.36447">
        <ele>196.2</ele>
        <time>2026-08-31T11:36:38Z</time>
      </trkpt>
      <trkpt lat="43.44276" lon="-0.36448">
        <ele>196.2</ele>
        <time>2026-08-31T11:36:39Z</time>
      </trkpt>
      <trkpt lat="43.44277" lon="-0.36449">
        <ele>196.2</ele>
        <time>2026-08-31T11:36:40Z</time>
      </trkpt>
      <trkpt lat="43.44277" lon="-0.3645">
        <ele>197.2</ele>
        <time>2026-08-31T11:36:40Z</time>
      </trkpt>
      <trkpt lat="43.44278" lon="-0.36451">
        <ele>197.2</ele>
        <time>2026-08-31T11:36:41Z</time>
      </trkpt>
      <trkpt lat="43.44278" lon="-0.36451">
        <ele>197.2</ele>
        <time>2026-08-31T11:36:41Z</time>
      </trkpt>
      <trkpt lat="43.44278" lon="-0.36452">
        <ele>196.2</ele>
        <time>2026-08-31T11:36:42Z</time>
      </trkpt>
      <trkpt lat="43.44278" lon="-0.36453">
        <ele>196.2</ele>
        <time>2026-08-31T11:36:42Z</time>
      </trkpt>
      <trkpt lat="43.44279" lon="-0.36453">
        <ele>196.2</ele>
        <time>2026-08-31T11:36:43Z</time>
      </trkpt>
      <trkpt lat="43.44279" lon="-0.36454">
        <ele>196.2</ele>
        <time>2026-08-31T11:36:44Z</time>
      </trkpt>
      <trkpt lat="43.4428" lon="-0.36455">
        <ele>197.2</ele>
        <time>2026-08-31T11:36:44Z</time>
      </trkpt>
      <trkpt lat="43.4428" lon="-0.36455">
        <ele>197.2</ele>
        <time>2026-08-31T11:36:45Z</time>
      </trkpt>
      <trkpt lat="43.4428" lon="-0.36456">
        <ele>197.2</ele>
        <time>2026-08-31T11:36:45Z</time>
      </trkpt>
      <trkpt lat="43.44281" lon="-0.36457">
        <ele>197.2</ele>
        <time>2026-08-31T11:36:46Z</time>
      </trkpt>
      <trkpt lat="43.44281" lon="-0.36458">
        <ele>197.2</ele>
        <time>2026-08-31T11:36:46Z</time>
      </trkpt>
      <trkpt lat="43.44282" lon="-0.36459">
        <ele>197.2</ele>
        <time>2026-08-31T11:36:47Z</time>
      </trkpt>
      <trkpt lat="43.44282" lon="-0.3646">
        <ele>198.2</ele>
        <time>2026-08-31T11:36:48Z</time>
      </trkpt>
      <trkpt lat="43.44283" lon="-0.36462">
        <ele>198.2</ele>
        <time>2026-08-31T11:36:49Z</time>
      </trkpt>
      <trkpt lat="43.44283" lon="-0.36463">
        <ele>198.2</ele>
        <time>2026-08-31T11:36:49Z</time>
      </trkpt>
      <trkpt lat="43.44283" lon="-0.36464">
        <ele>198.2</ele>
        <time>2026-08-31T11:36:50Z</time>
      </trkpt>
      <trkpt lat="43.44283" lon="-0.36464">
        <ele>198.2</ele>
        <time>2026-08-31T11:36:50Z</time>
      </trkpt>
      <trkpt lat="43.44283" lon="-0.36465">
        <ele>198.2</ele>
        <time>2026-08-31T11:36:51Z</time>
      </trkpt>
      <trkpt lat="43.44283" lon="-0.36466">
        <ele>198.2</ele>
        <time>2026-08-31T11:36:52Z</time>
      </trkpt>
      <trkpt lat="43.44284" lon="-0.36467">
        <ele>198.2</ele>
        <time>2026-08-31T11:36:52Z</time>
      </trkpt>
      <trkpt lat="43.44284" lon="-0.36468">
        <ele>198.2</ele>
        <time>2026-08-31T11:36:53Z</time>
      </trkpt>
      <trkpt lat="43.44284" lon="-0.36469">
        <ele>197.2</ele>
        <time>2026-08-31T11:36:53Z</time>
      </trkpt>
      <trkpt lat="43.44284" lon="-0.36469">
        <ele>198.2</ele>
        <time>2026-08-31T11:36:54Z</time>
      </trkpt>
      <trkpt lat="43.44284" lon="-0.3647">
        <ele>198.2</ele>
        <time>2026-08-31T11:36:54Z</time>
      </trkpt>
      <trkpt lat="43.44285" lon="-0.36471">
        <ele>198.2</ele>
        <time>2026-08-31T11:36:55Z</time>
      </trkpt>
      <trkpt lat="43.44285" lon="-0.36472">
        <ele>198.2</ele>
        <time>2026-08-31T11:36:56Z</time>
      </trkpt>
      <trkpt lat="43.44285" lon="-0.36472">
        <ele>198.2</ele>
        <time>2026-08-31T11:36:56Z</time>
      </trkpt>
      <trkpt lat="43.44285" lon="-0.36473">
        <ele>199.2</ele>
        <time>2026-08-31T11:36:57Z</time>
      </trkpt>
      <trkpt lat="43.44286" lon="-0.36474">
        <ele>199.2</ele>
        <time>2026-08-31T11:36:57Z</time>
      </trkpt>
      <trkpt lat="43.44286" lon="-0.36475">
        <ele>198.2</ele>
        <time>2026-08-31T11:36:58Z</time>
      </trkpt>
      <trkpt lat="43.44286" lon="-0.36475">
        <ele>198.2</ele>
        <time>2026-08-31T11:36:58Z</time>
      </trkpt>
      <trkpt lat="43.44287" lon="-0.36476">
        <ele>199.2</ele>
        <time>2026-08-31T11:36:59Z</time>
      </trkpt>
      <trkpt lat="43.44287" lon="-0.36477">
        <ele>199.2</ele>
        <time>2026-08-31T11:37:00Z</time>
      </trkpt>
      <trkpt lat="43.44288" lon="-0.36477">
        <ele>199.2</ele>
        <time>2026-08-31T11:37:00Z</time>
      </trkpt>
      <trkpt lat="43.44288" lon="-0.36478">
        <ele>199.2</ele>
        <time>2026-08-31T11:37:01Z</time>
      </trkpt>
      <trkpt lat="43.44289" lon="-0.36479">
        <ele>199.2</ele>
        <time>2026-08-31T11:37:01Z</time>
      </trkpt>
      <trkpt lat="43.44289" lon="-0.36479">
        <ele>200.2</ele>
        <time>2026-08-31T11:37:02Z</time>
      </trkpt>
      <trkpt lat="43.4429" lon="-0.3648">
        <ele>200.2</ele>
        <time>2026-08-31T11:37:03Z</time>
      </trkpt>
      <trkpt lat="43.4429" lon="-0.3648">
        <ele>200.2</ele>
        <time>2026-08-31T11:37:03Z</time>
      </trkpt>
      <trkpt lat="43.44291" lon="-0.36481">
        <ele>199.2</ele>
        <time>2026-08-31T11:37:04Z</time>
      </trkpt>
      <trkpt lat="43.44291" lon="-0.36482">
        <ele>199.2</ele>
        <time>2026-08-31T11:37:04Z</time>
      </trkpt>
      <trkpt lat="43.44292" lon="-0.36482">
        <ele>199.2</ele>
        <time>2026-08-31T11:37:05Z</time>
      </trkpt>
      <trkpt lat="43.44292" lon="-0.36483">
        <ele>199.2</ele>
        <time>2026-08-31T11:37:05Z</time>
      </trkpt>
      <trkpt lat="43.44293" lon="-0.36483">
        <ele>200.2</ele>
        <time>2026-08-31T11:37:06Z</time>
      </trkpt>
      <trkpt lat="43.44293" lon="-0.36484">
        <ele>200.2</ele>
        <time>2026-08-31T11:37:07Z</time>
      </trkpt>
      <trkpt lat="43.44294" lon="-0.36484">
        <ele>200.2</ele>
        <time>2026-08-31T11:37:07Z</time>
      </trkpt>
      <trkpt lat="43.44294" lon="-0.36485">
        <ele>200.2</ele>
        <time>2026-08-31T11:37:08Z</time>
      </trkpt>
      <trkpt lat="43.44295" lon="-0.36486">
        <ele>200.2</ele>
        <time>2026-08-31T11:37:08Z</time>
      </trkpt>
      <trkpt lat="43.44295" lon="-0.36486">
        <ele>200.2</ele>
        <time>2026-08-31T11:37:09Z</time>
      </trkpt>
      <trkpt lat="43.44296" lon="-0.36487">
        <ele>200.2</ele>
        <time>2026-08-31T11:37:10Z</time>
      </trkpt>
      <trkpt lat="43.44296" lon="-0.36488">
        <ele>200.2</ele>
        <time>2026-08-31T11:37:10Z</time>
      </trkpt>
      <trkpt lat="43.44296" lon="-0.36488">
        <ele>200.2</ele>
        <time>2026-08-31T11:37:11Z</time>
      </trkpt>
      <trkpt lat="43.44297" lon="-0.36489">
        <ele>200.2</ele>
        <time>2026-08-31T11:37:11Z</time>
      </trkpt>
      <trkpt lat="43.44297" lon="-0.3649">
        <ele>200.2</ele>
        <time>2026-08-31T11:37:12Z</time>
      </trkpt>
      <trkpt lat="43.44297" lon="-0.36491">
        <ele>200.2</ele>
        <time>2026-08-31T11:37:12Z</time>
      </trkpt>
      <trkpt lat="43.44298" lon="-0.36491">
        <ele>201.2</ele>
        <time>2026-08-31T11:37:13Z</time>
      </trkpt>
      <trkpt lat="43.44298" lon="-0.36492">
        <ele>201.2</ele>
        <time>2026-08-31T11:37:14Z</time>
      </trkpt>
      <trkpt lat="43.44299" lon="-0.36493">
        <ele>201.2</ele>
        <time>2026-08-31T11:37:14Z</time>
      </trkpt>
      <trkpt lat="43.44299" lon="-0.36494">
        <ele>201.2</ele>
        <time>2026-08-31T11:37:15Z</time>
      </trkpt>
      <trkpt lat="43.44299" lon="-0.36495">
        <ele>201.2</ele>
        <time>2026-08-31T11:37:15Z</time>
      </trkpt>
      <trkpt lat="43.443" lon="-0.36496">
        <ele>202.2</ele>
        <time>2026-08-31T11:37:16Z</time>
      </trkpt>
      <trkpt lat="43.443" lon="-0.36497">
        <ele>202.2</ele>
        <time>2026-08-31T11:37:16Z</time>
      </trkpt>
      <trkpt lat="43.443" lon="-0.36498">
        <ele>202.2</ele>
        <time>2026-08-31T11:37:17Z</time>
      </trkpt>
      <trkpt lat="43.44301" lon="-0.36498">
        <ele>202.2</ele>
        <time>2026-08-31T11:37:18Z</time>
      </trkpt>
      <trkpt lat="43.44301" lon="-0.36499">
        <ele>202.2</ele>
        <time>2026-08-31T11:37:18Z</time>
      </trkpt>
      <trkpt lat="43.44301" lon="-0.365">
        <ele>202.2</ele>
        <time>2026-08-31T11:37:19Z</time>
      </trkpt>
      <trkpt lat="43.44302" lon="-0.36501">
        <ele>202.2</ele>
        <time>2026-08-31T11:37:19Z</time>
      </trkpt>
      <trkpt lat="43.44302" lon="-0.36502">
        <ele>202.2</ele>
        <time>2026-08-31T11:37:20Z</time>
      </trkpt>
      <trkpt lat="43.44302" lon="-0.36503">
        <ele>202.2</ele>
        <time>2026-08-31T11:37:20Z</time>
      </trkpt>
      <trkpt lat="43.44302" lon="-0.36504">
        <ele>202.2</ele>
        <time>2026-08-31T11:37:21Z</time>
      </trkpt>
      <trkpt lat="43.44303" lon="-0.36505">
        <ele>202.2</ele>
        <time>2026-08-31T11:37:22Z</time>
      </trkpt>
      <trkpt lat="43.44303" lon="-0.36506">
        <ele>203.2</ele>
        <time>2026-08-31T11:37:22Z</time>
      </trkpt>
      <trkpt lat="43.44303" lon="-0.36507">
        <ele>203.2</ele>
        <time>2026-08-31T11:37:23Z</time>
      </trkpt>
      <trkpt lat="43.44303" lon="-0.36508">
        <ele>203.2</ele>
        <time>2026-08-31T11:37:23Z</time>
      </trkpt>
      <trkpt lat="43.44303" lon="-0.36509">
        <ele>203.2</ele>
        <time>2026-08-31T11:37:24Z</time>
      </trkpt>
      <trkpt lat="43.44303" lon="-0.3651">
        <ele>203.2</ele>
        <time>2026-08-31T11:37:24Z</time>
      </trkpt>
      <trkpt lat="43.44303" lon="-0.36511">
        <ele>202.2</ele>
        <time>2026-08-31T11:37:25Z</time>
      </trkpt>
      <trkpt lat="43.44303" lon="-0.36512">
        <ele>202.2</ele>
        <time>2026-08-31T11:37:26Z</time>
      </trkpt>
      <trkpt lat="43.44302" lon="-0.36514">
        <ele>203.2</ele>
        <time>2026-08-31T11:37:26Z</time>
      </trkpt>
      <trkpt lat="43.44302" lon="-0.36515">
        <ele>202.2</ele>
        <time>2026-08-31T11:37:27Z</time>
      </trkpt>
      <trkpt lat="43.44302" lon="-0.36516">
        <ele>203.2</ele>
        <time>2026-08-31T11:37:28Z</time>
      </trkpt>
      <trkpt lat="43.44302" lon="-0.36517">
        <ele>203.2</ele>
        <time>2026-08-31T11:37:28Z</time>
      </trkpt>
      <trkpt lat="43.44302" lon="-0.36518">
        <ele>204.2</ele>
        <time>2026-08-31T11:37:29Z</time>
      </trkpt>
      <trkpt lat="43.44302" lon="-0.36519">
        <ele>204.2</ele>
        <time>2026-08-31T11:37:30Z</time>
      </trkpt>
      <trkpt lat="43.44302" lon="-0.3652">
        <ele>204.2</ele>
        <time>2026-08-31T11:37:30Z</time>
      </trkpt>
      <trkpt lat="43.44302" lon="-0.36521">
        <ele>204.2</ele>
        <time>2026-08-31T11:37:31Z</time>
      </trkpt>
      <trkpt lat="43.44302" lon="-0.36522">
        <ele>204.2</ele>
        <time>2026-08-31T11:37:31Z</time>
      </trkpt>
      <trkpt lat="43.44302" lon="-0.36523">
        <ele>204.2</ele>
        <time>2026-08-31T11:37:32Z</time>
      </trkpt>
      <trkpt lat="43.44302" lon="-0.36524">
        <ele>204.2</ele>
        <time>2026-08-31T11:37:33Z</time>
      </trkpt>
      <trkpt lat="43.44302" lon="-0.36525">
        <ele>204.2</ele>
        <time>2026-08-31T11:37:33Z</time>
      </trkpt>
      <trkpt lat="43.44302" lon="-0.36526">
        <ele>205.2</ele>
        <time>2026-08-31T11:37:34Z</time>
      </trkpt>
      <trkpt lat="43.44302" lon="-0.36526">
        <ele>205.2</ele>
        <time>2026-08-31T11:37:34Z</time>
      </trkpt>
      <trkpt lat="43.44301" lon="-0.36527">
        <ele>205.2</ele>
        <time>2026-08-31T11:37:35Z</time>
      </trkpt>
      <trkpt lat="43.44301" lon="-0.36528">
        <ele>205.2</ele>
        <time>2026-08-31T11:37:35Z</time>
      </trkpt>
      <trkpt lat="43.44301" lon="-0.36529">
        <ele>205.2</ele>
        <time>2026-08-31T11:37:36Z</time>
      </trkpt>
      <trkpt lat="43.44301" lon="-0.3653">
        <ele>205.2</ele>
        <time>2026-08-31T11:37:37Z</time>
      </trkpt>
      <trkpt lat="43.44301" lon="-0.36531">
        <ele>206.2</ele>
        <time>2026-08-31T11:37:37Z</time>
      </trkpt>
      <trkpt lat="43.44301" lon="-0.36532">
        <ele>206.2</ele>
        <time>2026-08-31T11:37:38Z</time>
      </trkpt>
      <trkpt lat="43.443" lon="-0.36532">
        <ele>206.2</ele>
        <time>2026-08-31T11:37:38Z</time>
      </trkpt>
      <trkpt lat="43.443" lon="-0.36533">
        <ele>206.2</ele>
        <time>2026-08-31T11:37:39Z</time>
      </trkpt>
      <trkpt lat="43.443" lon="-0.36534">
        <ele>206.2</ele>
        <time>2026-08-31T11:37:39Z</time>
      </trkpt>
      <trkpt lat="43.443" lon="-0.36535">
        <ele>206.2</ele>
        <time>2026-08-31T11:37:40Z</time>
      </trkpt>
      <trkpt lat="43.443" lon="-0.36536">
        <ele>206.2</ele>
        <time>2026-08-31T11:37:41Z</time>
      </trkpt>
      <trkpt lat="43.44299" lon="-0.36537">
        <ele>206.2</ele>
        <time>2026-08-31T11:37:41Z</time>
      </trkpt>
      <trkpt lat="43.44299" lon="-0.36538">
        <ele>206.2</ele>
        <time>2026-08-31T11:37:42Z</time>
      </trkpt>
      <trkpt lat="43.44299" lon="-0.36539">
        <ele>206.2</ele>
        <time>2026-08-31T11:37:42Z</time>
      </trkpt>
      <trkpt lat="43.44299" lon="-0.3654">
        <ele>205.2</ele>
        <time>2026-08-31T11:37:43Z</time>
      </trkpt>
      <trkpt lat="43.44298" lon="-0.36541">
        <ele>205.2</ele>
        <time>2026-08-31T11:37:43Z</time>
      </trkpt>
      <trkpt lat="43.44298" lon="-0.36541">
        <ele>205.2</ele>
        <time>2026-08-31T11:37:44Z</time>
      </trkpt>
      <trkpt lat="43.44298" lon="-0.36542">
        <ele>205.2</ele>
        <time>2026-08-31T11:37:45Z</time>
      </trkpt>
      <trkpt lat="43.44297" lon="-0.36543">
        <ele>205.2</ele>
        <time>2026-08-31T11:37:45Z</time>
      </trkpt>
      <trkpt lat="43.44297" lon="-0.36544">
        <ele>205.2</ele>
        <time>2026-08-31T11:37:46Z</time>
      </trkpt>
      <trkpt lat="43.44297" lon="-0.36545">
        <ele>205.2</ele>
        <time>2026-08-31T11:37:46Z</time>
      </trkpt>
      <trkpt lat="43.44297" lon="-0.36546">
        <ele>206.2</ele>
        <time>2026-08-31T11:37:47Z</time>
      </trkpt>
      <trkpt lat="43.44296" lon="-0.36547">
        <ele>206.2</ele>
        <time>2026-08-31T11:37:48Z</time>
      </trkpt>
      <trkpt lat="43.44296" lon="-0.36548">
        <ele>206.2</ele>
        <time>2026-08-31T11:37:48Z</time>
      </trkpt>
      <trkpt lat="43.44296" lon="-0.36549">
        <ele>206.2</ele>
        <time>2026-08-31T11:37:49Z</time>
      </trkpt>
      <trkpt lat="43.44296" lon="-0.36549">
        <ele>205.2</ele>
        <time>2026-08-31T11:37:49Z</time>
      </trkpt>
      <trkpt lat="43.44296" lon="-0.3655">
        <ele>205.2</ele>
        <time>2026-08-31T11:37:50Z</time>
      </trkpt>
      <trkpt lat="43.44296" lon="-0.36551">
        <ele>205.2</ele>
        <time>2026-08-31T11:37:50Z</time>
      </trkpt>
      <trkpt lat="43.44295" lon="-0.36552">
        <ele>205.2</ele>
        <time>2026-08-31T11:37:51Z</time>
      </trkpt>
      <trkpt lat="43.44295" lon="-0.36553">
        <ele>205.2</ele>
        <time>2026-08-31T11:37:52Z</time>
      </trkpt>
      <trkpt lat="43.44295" lon="-0.36554">
        <ele>205.2</ele>
        <time>2026-08-31T11:37:53Z</time>
      </trkpt>
      <trkpt lat="43.44294" lon="-0.36556">
        <ele>206.2</ele>
        <time>2026-08-31T11:37:54Z</time>
      </trkpt>
      <trkpt lat="43.44294" lon="-0.36557">
        <ele>206.2</ele>
        <time>2026-08-31T11:37:54Z</time>
      </trkpt>
      <trkpt lat="43.44294" lon="-0.36558">
        <ele>206.2</ele>
        <time>2026-08-31T11:37:55Z</time>
      </trkpt>
      <trkpt lat="43.44294" lon="-0.36559">
        <ele>206.2</ele>
        <time>2026-08-31T11:37:56Z</time>
      </trkpt>
      <trkpt lat="43.44294" lon="-0.3656">
        <ele>206.2</ele>
        <time>2026-08-31T11:37:56Z</time>
      </trkpt>
      <trkpt lat="43.44294" lon="-0.36561">
        <ele>206.2</ele>
        <time>2026-08-31T11:37:57Z</time>
      </trkpt>
      <trkpt lat="43.44293" lon="-0.36562">
        <ele>206.2</ele>
        <time>2026-08-31T11:37:57Z</time>
      </trkpt>
      <trkpt lat="43.44293" lon="-0.36563">
        <ele>206.2</ele>
        <time>2026-08-31T11:37:58Z</time>
      </trkpt>
      <trkpt lat="43.44293" lon="-0.36564">
        <ele>206.2</ele>
        <time>2026-08-31T11:37:58Z</time>
      </trkpt>
      <trkpt lat="43.44293" lon="-0.36565">
        <ele>206.2</ele>
        <time>2026-08-31T11:37:59Z</time>
      </trkpt>
      <trkpt lat="43.44292" lon="-0.36566">
        <ele>206.2</ele>
        <time>2026-08-31T11:38:00Z</time>
      </trkpt>
      <trkpt lat="43.44292" lon="-0.36567">
        <ele>207.2</ele>
        <time>2026-08-31T11:38:00Z</time>
      </trkpt>
      <trkpt lat="43.44292" lon="-0.36568">
        <ele>207.2</ele>
        <time>2026-08-31T11:38:01Z</time>
      </trkpt>
      <trkpt lat="43.44291" lon="-0.3657">
        <ele>207.2</ele>
        <time>2026-08-31T11:38:02Z</time>
      </trkpt>
      <trkpt lat="43.44291" lon="-0.36571">
        <ele>207.2</ele>
        <time>2026-08-31T11:38:02Z</time>
      </trkpt>
      <trkpt lat="43.44291" lon="-0.36572">
        <ele>207.2</ele>
        <time>2026-08-31T11:38:03Z</time>
      </trkpt>
      <trkpt lat="43.4429" lon="-0.36574">
        <ele>207.2</ele>
        <time>2026-08-31T11:38:04Z</time>
      </trkpt>
      <trkpt lat="43.4429" lon="-0.36575">
        <ele>207.2</ele>
        <time>2026-08-31T11:38:05Z</time>
      </trkpt>
      <trkpt lat="43.44289" lon="-0.36576">
        <ele>207.2</ele>
        <time>2026-08-31T11:38:05Z</time>
      </trkpt>
      <trkpt lat="43.44289" lon="-0.36577">
        <ele>208.2</ele>
        <time>2026-08-31T11:38:06Z</time>
      </trkpt>
      <trkpt lat="43.44288" lon="-0.36578">
        <ele>208.2</ele>
        <time>2026-08-31T11:38:07Z</time>
      </trkpt>
      <trkpt lat="43.44288" lon="-0.36579">
        <ele>208.2</ele>
        <time>2026-08-31T11:38:07Z</time>
      </trkpt>
      <trkpt lat="43.44288" lon="-0.36579">
        <ele>208.2</ele>
        <time>2026-08-31T11:38:08Z</time>
      </trkpt>
      <trkpt lat="43.44287" lon="-0.3658">
        <ele>208.2</ele>
        <time>2026-08-31T11:38:08Z</time>
      </trkpt>
      <trkpt lat="43.44287" lon="-0.36581">
        <ele>209.2</ele>
        <time>2026-08-31T11:38:09Z</time>
      </trkpt>
      <trkpt lat="43.44286" lon="-0.36582">
        <ele>209.2</ele>
        <time>2026-08-31T11:38:09Z</time>
      </trkpt>
      <trkpt lat="43.44286" lon="-0.36583">
        <ele>208.2</ele>
        <time>2026-08-31T11:38:10Z</time>
      </trkpt>
      <trkpt lat="43.44286" lon="-0.36584">
        <ele>208.2</ele>
        <time>2026-08-31T11:38:11Z</time>
      </trkpt>
      <trkpt lat="43.44285" lon="-0.36585">
        <ele>208.2</ele>
        <time>2026-08-31T11:38:11Z</time>
      </trkpt>
      <trkpt lat="43.44285" lon="-0.36585">
        <ele>209.2</ele>
        <time>2026-08-31T11:38:12Z</time>
      </trkpt>
      <trkpt lat="43.44285" lon="-0.36586">
        <ele>209.2</ele>
        <time>2026-08-31T11:38:12Z</time>
      </trkpt>
      <trkpt lat="43.44284" lon="-0.36587">
        <ele>209.2</ele>
        <time>2026-08-31T11:38:13Z</time>
      </trkpt>
      <trkpt lat="43.44284" lon="-0.36588">
        <ele>209.2</ele>
        <time>2026-08-31T11:38:14Z</time>
      </trkpt>
      <trkpt lat="43.44283" lon="-0.36588">
        <ele>208.2</ele>
        <time>2026-08-31T11:38:14Z</time>
      </trkpt>
      <trkpt lat="43.44283" lon="-0.36589">
        <ele>208.2</ele>
        <time>2026-08-31T11:38:15Z</time>
      </trkpt>
      <trkpt lat="43.44282" lon="-0.36589">
        <ele>208.2</ele>
        <time>2026-08-31T11:38:15Z</time>
      </trkpt>
      <trkpt lat="43.44281" lon="-0.3659">
        <ele>208.2</ele>
        <time>2026-08-31T11:38:16Z</time>
      </trkpt>
      <trkpt lat="43.44281" lon="-0.3659">
        <ele>208.2</ele>
        <time>2026-08-31T11:38:16Z</time>
      </trkpt>
      <trkpt lat="43.4428" lon="-0.36591">
        <ele>208.2</ele>
        <time>2026-08-31T11:38:17Z</time>
      </trkpt>
      <trkpt lat="43.4428" lon="-0.36591">
        <ele>208.2</ele>
        <time>2026-08-31T11:38:18Z</time>
      </trkpt>
      <trkpt lat="43.44279" lon="-0.36592">
        <ele>209.2</ele>
        <time>2026-08-31T11:38:18Z</time>
      </trkpt>
      <trkpt lat="43.44278" lon="-0.36593">
        <ele>209.2</ele>
        <time>2026-08-31T11:38:19Z</time>
      </trkpt>
      <trkpt lat="43.44278" lon="-0.36593">
        <ele>209.2</ele>
        <time>2026-08-31T11:38:19Z</time>
      </trkpt>
      <trkpt lat="43.44277" lon="-0.36594">
        <ele>209.2</ele>
        <time>2026-08-31T11:38:20Z</time>
      </trkpt>
      <trkpt lat="43.44276" lon="-0.36594">
        <ele>209.2</ele>
        <time>2026-08-31T11:38:20Z</time>
      </trkpt>
      <trkpt lat="43.44276" lon="-0.36595">
        <ele>209.2</ele>
        <time>2026-08-31T11:38:21Z</time>
      </trkpt>
      <trkpt lat="43.44275" lon="-0.36595">
        <ele>209.2</ele>
        <time>2026-08-31T11:38:22Z</time>
      </trkpt>
      <trkpt lat="43.44275" lon="-0.36596">
        <ele>209.2</ele>
        <time>2026-08-31T11:38:22Z</time>
      </trkpt>
      <trkpt lat="43.44274" lon="-0.36597">
        <ele>209.2</ele>
        <time>2026-08-31T11:38:23Z</time>
      </trkpt>
      <trkpt lat="43.44273" lon="-0.36597">
        <ele>209.2</ele>
        <time>2026-08-31T11:38:23Z</time>
      </trkpt>
      <trkpt lat="43.44273" lon="-0.36598">
        <ele>209.2</ele>
        <time>2026-08-31T11:38:24Z</time>
      </trkpt>
      <trkpt lat="43.44272" lon="-0.36598">
        <ele>209.2</ele>
        <time>2026-08-31T11:38:24Z</time>
      </trkpt>
      <trkpt lat="43.44271" lon="-0.36599">
        <ele>209.2</ele>
        <time>2026-08-31T11:38:25Z</time>
      </trkpt>
      <trkpt lat="43.44271" lon="-0.36599">
        <ele>209.2</ele>
        <time>2026-08-31T11:38:26Z</time>
      </trkpt>
      <trkpt lat="43.4427" lon="-0.366">
        <ele>209.2</ele>
        <time>2026-08-31T11:38:26Z</time>
      </trkpt>
      <trkpt lat="43.44269" lon="-0.366">
        <ele>209.2</ele>
        <time>2026-08-31T11:38:27Z</time>
      </trkpt>
      <trkpt lat="43.44269" lon="-0.36601">
        <ele>209.2</ele>
        <time>2026-08-31T11:38:27Z</time>
      </trkpt>
      <trkpt lat="43.44268" lon="-0.36601">
        <ele>209.2</ele>
        <time>2026-08-31T11:38:28Z</time>
      </trkpt>
      <trkpt lat="43.44267" lon="-0.36601">
        <ele>209.2</ele>
        <time>2026-08-31T11:38:29Z</time>
      </trkpt>
      <trkpt lat="43.44267" lon="-0.36602">
        <ele>210.2</ele>
        <time>2026-08-31T11:38:29Z</time>
      </trkpt>
      <trkpt lat="43.44266" lon="-0.36602">
        <ele>210.2</ele>
        <time>2026-08-31T11:38:30Z</time>
      </trkpt>
      <trkpt lat="43.44265" lon="-0.36603">
        <ele>210.2</ele>
        <time>2026-08-31T11:38:30Z</time>
      </trkpt>
      <trkpt lat="43.44265" lon="-0.36603">
        <ele>211.2</ele>
        <time>2026-08-31T11:38:31Z</time>
      </trkpt>
      <trkpt lat="43.44264" lon="-0.36604">
        <ele>211.2</ele>
        <time>2026-08-31T11:38:31Z</time>
      </trkpt>
      <trkpt lat="43.44264" lon="-0.36604">
        <ele>210.2</ele>
        <time>2026-08-31T11:38:32Z</time>
      </trkpt>
      <trkpt lat="43.44263" lon="-0.36604">
        <ele>210.2</ele>
        <time>2026-08-31T11:38:33Z</time>
      </trkpt>
      <trkpt lat="43.44262" lon="-0.36605">
        <ele>210.2</ele>
        <time>2026-08-31T11:38:33Z</time>
      </trkpt>
      <trkpt lat="43.44262" lon="-0.36605">
        <ele>210.2</ele>
        <time>2026-08-31T11:38:34Z</time>
      </trkpt>
      <trkpt lat="43.44261" lon="-0.36605">
        <ele>210.2</ele>
        <time>2026-08-31T11:38:34Z</time>
      </trkpt>
      <trkpt lat="43.44261" lon="-0.36606">
        <ele>210.2</ele>
        <time>2026-08-31T11:38:35Z</time>
      </trkpt>
      <trkpt lat="43.4426" lon="-0.36606">
        <ele>210.2</ele>
        <time>2026-08-31T11:38:35Z</time>
      </trkpt>
      <trkpt lat="43.44259" lon="-0.36606">
        <ele>210.2</ele>
        <time>2026-08-31T11:38:36Z</time>
      </trkpt>
      <trkpt lat="43.44259" lon="-0.36606">
        <ele>210.2</ele>
        <time>2026-08-31T11:38:37Z</time>
      </trkpt>
      <trkpt lat="43.44258" lon="-0.36607">
        <ele>210.2</ele>
        <time>2026-08-31T11:38:37Z</time>
      </trkpt>
      <trkpt lat="43.44257" lon="-0.36607">
        <ele>211.2</ele>
        <time>2026-08-31T11:38:38Z</time>
      </trkpt>
      <trkpt lat="43.44256" lon="-0.36607">
        <ele>211.2</ele>
        <time>2026-08-31T11:38:38Z</time>
      </trkpt>
      <trkpt lat="43.44256" lon="-0.36607">
        <ele>211.2</ele>
        <time>2026-08-31T11:38:39Z</time>
      </trkpt>
      <trkpt lat="43.44255" lon="-0.36607">
        <ele>211.2</ele>
        <time>2026-08-31T11:38:39Z</time>
      </trkpt>
      <trkpt lat="43.44254" lon="-0.36607">
        <ele>211.2</ele>
        <time>2026-08-31T11:38:40Z</time>
      </trkpt>
      <trkpt lat="43.44253" lon="-0.36607">
        <ele>211.2</ele>
        <time>2026-08-31T11:38:41Z</time>
      </trkpt>
      <trkpt lat="43.44253" lon="-0.36607">
        <ele>211.2</ele>
        <time>2026-08-31T11:38:41Z</time>
      </trkpt>
      <trkpt lat="43.44252" lon="-0.36607">
        <ele>211.2</ele>
        <time>2026-08-31T11:38:42Z</time>
      </trkpt>
      <trkpt lat="43.44251" lon="-0.36607">
        <ele>211.2</ele>
        <time>2026-08-31T11:38:42Z</time>
      </trkpt>
      <trkpt lat="43.44251" lon="-0.36607">
        <ele>211.2</ele>
        <time>2026-08-31T11:38:43Z</time>
      </trkpt>
      <trkpt lat="43.4425" lon="-0.36607">
        <ele>211.2</ele>
        <time>2026-08-31T11:38:43Z</time>
      </trkpt>
      <trkpt lat="43.44249" lon="-0.36607">
        <ele>211.2</ele>
        <time>2026-08-31T11:38:44Z</time>
      </trkpt>
      <trkpt lat="43.44248" lon="-0.36607">
        <ele>211.2</ele>
        <time>2026-08-31T11:38:45Z</time>
      </trkpt>
      <trkpt lat="43.44248" lon="-0.36608">
        <ele>211.2</ele>
        <time>2026-08-31T11:38:45Z</time>
      </trkpt>
      <trkpt lat="43.44247" lon="-0.36608">
        <ele>211.2</ele>
        <time>2026-08-31T11:38:46Z</time>
      </trkpt>
      <trkpt lat="43.44246" lon="-0.36608">
        <ele>211.2</ele>
        <time>2026-08-31T11:38:46Z</time>
      </trkpt>
      <trkpt lat="43.44246" lon="-0.36608">
        <ele>211.2</ele>
        <time>2026-08-31T11:38:47Z</time>
      </trkpt>
      <trkpt lat="43.44245" lon="-0.36608">
        <ele>211.2</ele>
        <time>2026-08-31T11:38:48Z</time>
      </trkpt>
      <trkpt lat="43.44244" lon="-0.36608">
        <ele>211.2</ele>
        <time>2026-08-31T11:38:48Z</time>
      </trkpt>
      <trkpt lat="43.44244" lon="-0.36608">
        <ele>210.2</ele>
        <time>2026-08-31T11:38:49Z</time>
      </trkpt>
      <trkpt lat="43.44243" lon="-0.36609">
        <ele>210.2</ele>
        <time>2026-08-31T11:38:49Z</time>
      </trkpt>
      <trkpt lat="43.44242" lon="-0.36609">
        <ele>210.2</ele>
        <time>2026-08-31T11:38:50Z</time>
      </trkpt>
      <trkpt lat="43.44241" lon="-0.36609">
        <ele>210.2</ele>
        <time>2026-08-31T11:38:50Z</time>
      </trkpt>
      <trkpt lat="43.44241" lon="-0.36609">
        <ele>210.2</ele>
        <time>2026-08-31T11:38:51Z</time>
      </trkpt>
      <trkpt lat="43.4424" lon="-0.36609">
        <ele>210.2</ele>
        <time>2026-08-31T11:38:52Z</time>
      </trkpt>
      <trkpt lat="43.44239" lon="-0.36609">
        <ele>210.2</ele>
        <time>2026-08-31T11:38:52Z</time>
      </trkpt>
      <trkpt lat="43.44238" lon="-0.36609">
        <ele>210.2</ele>
        <time>2026-08-31T11:38:53Z</time>
      </trkpt>
      <trkpt lat="43.44238" lon="-0.36609">
        <ele>210.2</ele>
        <time>2026-08-31T11:38:53Z</time>
      </trkpt>
      <trkpt lat="43.44237" lon="-0.3661">
        <ele>210.2</ele>
        <time>2026-08-31T11:38:54Z</time>
      </trkpt>
      <trkpt lat="43.44236" lon="-0.3661">
        <ele>210.2</ele>
        <time>2026-08-31T11:38:54Z</time>
      </trkpt>
      <trkpt lat="43.44236" lon="-0.3661">
        <ele>210.2</ele>
        <time>2026-08-31T11:38:55Z</time>
      </trkpt>
      <trkpt lat="43.44235" lon="-0.36611">
        <ele>210.2</ele>
        <time>2026-08-31T11:38:56Z</time>
      </trkpt>
      <trkpt lat="43.44234" lon="-0.36611">
        <ele>210.2</ele>
        <time>2026-08-31T11:38:56Z</time>
      </trkpt>
      <trkpt lat="43.44233" lon="-0.36611">
        <ele>210.2</ele>
        <time>2026-08-31T11:38:57Z</time>
      </trkpt>
      <trkpt lat="43.44232" lon="-0.36611">
        <ele>211.2</ele>
        <time>2026-08-31T11:38:58Z</time>
      </trkpt>
      <trkpt lat="43.44232" lon="-0.36611">
        <ele>211.2</ele>
        <time>2026-08-31T11:38:58Z</time>
      </trkpt>
      <trkpt lat="43.44231" lon="-0.36611">
        <ele>211.2</ele>
        <time>2026-08-31T11:38:59Z</time>
      </trkpt>
      <trkpt lat="43.4423" lon="-0.36611">
        <ele>211.2</ele>
        <time>2026-08-31T11:39:00Z</time>
      </trkpt>
      <trkpt lat="43.4423" lon="-0.36611">
        <ele>212.2</ele>
        <time>2026-08-31T11:39:00Z</time>
      </trkpt>
      <trkpt lat="43.44229" lon="-0.36611">
        <ele>212.2</ele>
        <time>2026-08-31T11:39:01Z</time>
      </trkpt>
      <trkpt lat="43.44228" lon="-0.36611">
        <ele>212.2</ele>
        <time>2026-08-31T11:39:01Z</time>
      </trkpt>
      <trkpt lat="43.44228" lon="-0.36612">
        <ele>212.2</ele>
        <time>2026-08-31T11:39:02Z</time>
      </trkpt>
      <trkpt lat="43.44227" lon="-0.36611">
        <ele>212.2</ele>
        <time>2026-08-31T11:39:02Z</time>
      </trkpt>
      <trkpt lat="43.44227" lon="-0.36611">
        <ele>212.2</ele>
        <time>2026-08-31T11:39:03Z</time>
      </trkpt>
      <trkpt lat="43.44226" lon="-0.36611">
        <ele>212.2</ele>
        <time>2026-08-31T11:39:04Z</time>
      </trkpt>
      <trkpt lat="43.44224" lon="-0.36611">
        <ele>212.2</ele>
        <time>2026-08-31T11:39:05Z</time>
      </trkpt>
      <trkpt lat="43.44224" lon="-0.36611">
        <ele>212.2</ele>
        <time>2026-08-31T11:39:05Z</time>
      </trkpt>
      <trkpt lat="43.44223" lon="-0.36611">
        <ele>212.2</ele>
        <time>2026-08-31T11:39:06Z</time>
      </trkpt>
      <trkpt lat="43.44223" lon="-0.36611">
        <ele>212.2</ele>
        <time>2026-08-31T11:39:06Z</time>
      </trkpt>
      <trkpt lat="43.44222" lon="-0.36611">
        <ele>213.2</ele>
        <time>2026-08-31T11:39:07Z</time>
      </trkpt>
      <trkpt lat="43.44221" lon="-0.36611">
        <ele>213.2</ele>
        <time>2026-08-31T11:39:07Z</time>
      </trkpt>
      <trkpt lat="43.44221" lon="-0.36611">
        <ele>213.2</ele>
        <time>2026-08-31T11:39:08Z</time>
      </trkpt>
      <trkpt lat="43.4422" lon="-0.36611">
        <ele>213.2</ele>
        <time>2026-08-31T11:39:09Z</time>
      </trkpt>
      <trkpt lat="43.44219" lon="-0.36611">
        <ele>213.2</ele>
        <time>2026-08-31T11:39:09Z</time>
      </trkpt>
      <trkpt lat="43.44219" lon="-0.36611">
        <ele>213.2</ele>
        <time>2026-08-31T11:39:10Z</time>
      </trkpt>
      <trkpt lat="43.44218" lon="-0.36611">
        <ele>213.2</ele>
        <time>2026-08-31T11:39:10Z</time>
      </trkpt>
      <trkpt lat="43.44218" lon="-0.36612">
        <ele>213.2</ele>
        <time>2026-08-31T11:39:11Z</time>
      </trkpt>
      <trkpt lat="43.44217" lon="-0.36612">
        <ele>213.2</ele>
        <time>2026-08-31T11:39:11Z</time>
      </trkpt>
      <trkpt lat="43.44216" lon="-0.36612">
        <ele>212.2</ele>
        <time>2026-08-31T11:39:12Z</time>
      </trkpt>
      <trkpt lat="43.44216" lon="-0.36612">
        <ele>212.2</ele>
        <time>2026-08-31T11:39:13Z</time>
      </trkpt>
      <trkpt lat="43.44215" lon="-0.36613">
        <ele>213.2</ele>
        <time>2026-08-31T11:39:13Z</time>
      </trkpt>
      <trkpt lat="43.44215" lon="-0.36613">
        <ele>213.2</ele>
        <time>2026-08-31T11:39:14Z</time>
      </trkpt>
      <trkpt lat="43.44214" lon="-0.36614">
        <ele>212.2</ele>
        <time>2026-08-31T11:39:14Z</time>
      </trkpt>
      <trkpt lat="43.44214" lon="-0.36614">
        <ele>212.2</ele>
        <time>2026-08-31T11:39:15Z</time>
      </trkpt>
      <trkpt lat="43.44214" lon="-0.36615">
        <ele>212.2</ele>
        <time>2026-08-31T11:39:15Z</time>
      </trkpt>
      <trkpt lat="43.44213" lon="-0.36615">
        <ele>212.2</ele>
        <time>2026-08-31T11:39:16Z</time>
      </trkpt>
      <trkpt lat="43.44212" lon="-0.36615">
        <ele>212.2</ele>
        <time>2026-08-31T11:39:16Z</time>
      </trkpt>
      <trkpt lat="43.44212" lon="-0.36616">
        <ele>212.2</ele>
        <time>2026-08-31T11:39:17Z</time>
      </trkpt>
      <trkpt lat="43.44211" lon="-0.36616">
        <ele>212.2</ele>
        <time>2026-08-31T11:39:18Z</time>
      </trkpt>
      <trkpt lat="43.44211" lon="-0.36616">
        <ele>211.2</ele>
        <time>2026-08-31T11:39:18Z</time>
      </trkpt>
      <trkpt lat="43.4421" lon="-0.36617">
        <ele>211.2</ele>
        <time>2026-08-31T11:39:19Z</time>
      </trkpt>
      <trkpt lat="43.4421" lon="-0.36617">
        <ele>211.2</ele>
        <time>2026-08-31T11:39:19Z</time>
      </trkpt>
      <trkpt lat="43.4421" lon="-0.36618">
        <ele>212.2</ele>
        <time>2026-08-31T11:39:20Z</time>
      </trkpt>
      <trkpt lat="43.44209" lon="-0.36618">
        <ele>212.2</ele>
        <time>2026-08-31T11:39:20Z</time>
      </trkpt>
      <trkpt lat="43.44209" lon="-0.36618">
        <ele>211.2</ele>
        <time>2026-08-31T11:39:21Z</time>
      </trkpt>
      <trkpt lat="43.44208" lon="-0.36619">
        <ele>210.2</ele>
        <time>2026-08-31T11:39:22Z</time>
      </trkpt>
      <trkpt lat="43.44207" lon="-0.36619">
        <ele>210.2</ele>
        <time>2026-08-31T11:39:23Z</time>
      </trkpt>
      <trkpt lat="43.44206" lon="-0.3662">
        <ele>209.2</ele>
        <time>2026-08-31T11:39:24Z</time>
      </trkpt>
      <trkpt lat="43.44205" lon="-0.3662">
        <ele>210.2</ele>
        <time>2026-08-31T11:39:25Z</time>
      </trkpt>
      <trkpt lat="43.44205" lon="-0.3662">
        <ele>210.2</ele>
        <time>2026-08-31T11:39:25Z</time>
      </trkpt>
      <trkpt lat="43.44204" lon="-0.36621">
        <ele>210.2</ele>
        <time>2026-08-31T11:39:26Z</time>
      </trkpt>
      <trkpt lat="43.44203" lon="-0.36621">
        <ele>210.2</ele>
        <time>2026-08-31T11:39:27Z</time>
      </trkpt>
      <trkpt lat="43.44203" lon="-0.36621">
        <ele>210.2</ele>
        <time>2026-08-31T11:39:27Z</time>
      </trkpt>
      <trkpt lat="43.44202" lon="-0.36621">
        <ele>210.2</ele>
        <time>2026-08-31T11:39:28Z</time>
      </trkpt>
      <trkpt lat="43.44202" lon="-0.36622">
        <ele>210.2</ele>
        <time>2026-08-31T11:39:28Z</time>
      </trkpt>
      <trkpt lat="43.44201" lon="-0.36622">
        <ele>211.2</ele>
        <time>2026-08-31T11:39:29Z</time>
      </trkpt>
      <trkpt lat="43.44201" lon="-0.36623">
        <ele>211.2</ele>
        <time>2026-08-31T11:39:29Z</time>
      </trkpt>
      <trkpt lat="43.442" lon="-0.36623">
        <ele>211.2</ele>
        <time>2026-08-31T11:39:30Z</time>
      </trkpt>
      <trkpt lat="43.442" lon="-0.36623">
        <ele>211.2</ele>
        <time>2026-08-31T11:39:31Z</time>
      </trkpt>
      <trkpt lat="43.44199" lon="-0.36624">
        <ele>211.2</ele>
        <time>2026-08-31T11:39:31Z</time>
      </trkpt>
      <trkpt lat="43.44199" lon="-0.36624">
        <ele>211.2</ele>
        <time>2026-08-31T11:39:32Z</time>
      </trkpt>
      <trkpt lat="43.44198" lon="-0.36625">
        <ele>210.2</ele>
        <time>2026-08-31T11:39:32Z</time>
      </trkpt>
      <trkpt lat="43.44198" lon="-0.36625">
        <ele>209.2</ele>
        <time>2026-08-31T11:39:33Z</time>
      </trkpt>
      <trkpt lat="43.44197" lon="-0.36625">
        <ele>209.2</ele>
        <time>2026-08-31T11:39:33Z</time>
      </trkpt>
      <trkpt lat="43.44197" lon="-0.36626">
        <ele>210.2</ele>
        <time>2026-08-31T11:39:34Z</time>
      </trkpt>
      <trkpt lat="43.44196" lon="-0.36626">
        <ele>210.2</ele>
        <time>2026-08-31T11:39:35Z</time>
      </trkpt>
      <trkpt lat="43.44196" lon="-0.36627">
        <ele>210.2</ele>
        <time>2026-08-31T11:39:35Z</time>
      </trkpt>
      <trkpt lat="43.44195" lon="-0.36627">
        <ele>210.2</ele>
        <time>2026-08-31T11:39:36Z</time>
      </trkpt>
      <trkpt lat="43.44195" lon="-0.36628">
        <ele>211.2</ele>
        <time>2026-08-31T11:39:36Z</time>
      </trkpt>
      <trkpt lat="43.44194" lon="-0.36628">
        <ele>210.2</ele>
        <time>2026-08-31T11:39:37Z</time>
      </trkpt>
      <trkpt lat="43.44194" lon="-0.36628">
        <ele>210.2</ele>
        <time>2026-08-31T11:39:37Z</time>
      </trkpt>
      <trkpt lat="43.44194" lon="-0.36629">
        <ele>210.2</ele>
        <time>2026-08-31T11:39:38Z</time>
      </trkpt>
      <trkpt lat="43.44193" lon="-0.36629">
        <ele>210.2</ele>
        <time>2026-08-31T11:39:38Z</time>
      </trkpt>
      <trkpt lat="43.44193" lon="-0.3663">
        <ele>210.2</ele>
        <time>2026-08-31T11:39:39Z</time>
      </trkpt>
      <trkpt lat="43.44192" lon="-0.3663">
        <ele>210.2</ele>
        <time>2026-08-31T11:39:40Z</time>
      </trkpt>
      <trkpt lat="43.44192" lon="-0.3663">
        <ele>210.2</ele>
        <time>2026-08-31T11:39:40Z</time>
      </trkpt>
      <trkpt lat="43.44191" lon="-0.36631">
        <ele>210.2</ele>
        <time>2026-08-31T11:39:41Z</time>
      </trkpt>
      <trkpt lat="43.44191" lon="-0.36631">
        <ele>210.2</ele>
        <time>2026-08-31T11:39:41Z</time>
      </trkpt>
      <trkpt lat="43.4419" lon="-0.36631">
        <ele>210.2</ele>
        <time>2026-08-31T11:39:42Z</time>
      </trkpt>
      <trkpt lat="43.4419" lon="-0.36632">
        <ele>210.2</ele>
        <time>2026-08-31T11:39:42Z</time>
      </trkpt>
      <trkpt lat="43.44189" lon="-0.36632">
        <ele>210.2</ele>
        <time>2026-08-31T11:39:43Z</time>
      </trkpt>
      <trkpt lat="43.44188" lon="-0.36632">
        <ele>210.2</ele>
        <time>2026-08-31T11:39:44Z</time>
      </trkpt>
      <trkpt lat="43.44188" lon="-0.36632">
        <ele>210.2</ele>
        <time>2026-08-31T11:39:44Z</time>
      </trkpt>
      <trkpt lat="43.44187" lon="-0.36633">
        <ele>210.2</ele>
        <time>2026-08-31T11:39:45Z</time>
      </trkpt>
      <trkpt lat="43.44187" lon="-0.36633">
        <ele>210.2</ele>
        <time>2026-08-31T11:39:45Z</time>
      </trkpt>
      <trkpt lat="43.44186" lon="-0.36633">
        <ele>210.2</ele>
        <time>2026-08-31T11:39:46Z</time>
      </trkpt>
      <trkpt lat="43.44185" lon="-0.36633">
        <ele>210.2</ele>
        <time>2026-08-31T11:39:46Z</time>
      </trkpt>
      <trkpt lat="43.44185" lon="-0.36634">
        <ele>209.2</ele>
        <time>2026-08-31T11:39:47Z</time>
      </trkpt>
      <trkpt lat="43.44184" lon="-0.36634">
        <ele>209.2</ele>
        <time>2026-08-31T11:39:48Z</time>
      </trkpt>
      <trkpt lat="43.44184" lon="-0.36634">
        <ele>209.2</ele>
        <time>2026-08-31T11:39:48Z</time>
      </trkpt>
      <trkpt lat="43.44183" lon="-0.36635">
        <ele>209.2</ele>
        <time>2026-08-31T11:39:49Z</time>
      </trkpt>
      <trkpt lat="43.44183" lon="-0.36635">
        <ele>209.2</ele>
        <time>2026-08-31T11:39:49Z</time>
      </trkpt>
      <trkpt lat="43.44182" lon="-0.36636">
        <ele>210.2</ele>
        <time>2026-08-31T11:39:50Z</time>
      </trkpt>
      <trkpt lat="43.44181" lon="-0.36636">
        <ele>210.2</ele>
        <time>2026-08-31T11:39:51Z</time>
      </trkpt>
      <trkpt lat="43.44181" lon="-0.36636">
        <ele>210.2</ele>
        <time>2026-08-31T11:39:51Z</time>
      </trkpt>
      <trkpt lat="43.4418" lon="-0.36637">
        <ele>210.2</ele>
        <time>2026-08-31T11:39:52Z</time>
      </trkpt>
      <trkpt lat="43.4418" lon="-0.36637">
        <ele>210.2</ele>
        <time>2026-08-31T11:39:52Z</time>
      </trkpt>
      <trkpt lat="43.44179" lon="-0.36637">
        <ele>210.2</ele>
        <time>2026-08-31T11:39:53Z</time>
      </trkpt>
      <trkpt lat="43.44178" lon="-0.36637">
        <ele>210.2</ele>
        <time>2026-08-31T11:39:53Z</time>
      </trkpt>
      <trkpt lat="43.44178" lon="-0.36638">
        <ele>210.2</ele>
        <time>2026-08-31T11:39:54Z</time>
      </trkpt>
      <trkpt lat="43.44177" lon="-0.36638">
        <ele>210.2</ele>
        <time>2026-08-31T11:39:55Z</time>
      </trkpt>
      <trkpt lat="43.44176" lon="-0.36638">
        <ele>210.2</ele>
        <time>2026-08-31T11:39:55Z</time>
      </trkpt>
      <trkpt lat="43.44176" lon="-0.36638">
        <ele>210.2</ele>
        <time>2026-08-31T11:39:56Z</time>
      </trkpt>
      <trkpt lat="43.44175" lon="-0.36639">
        <ele>210.2</ele>
        <time>2026-08-31T11:39:56Z</time>
      </trkpt>
      <trkpt lat="43.44174" lon="-0.36639">
        <ele>211.2</ele>
        <time>2026-08-31T11:39:57Z</time>
      </trkpt>
      <trkpt lat="43.44174" lon="-0.36639">
        <ele>211.2</ele>
        <time>2026-08-31T11:39:57Z</time>
      </trkpt>
      <trkpt lat="43.44173" lon="-0.3664">
        <ele>211.2</ele>
        <time>2026-08-31T11:39:58Z</time>
      </trkpt>
      <trkpt lat="43.44172" lon="-0.3664">
        <ele>211.2</ele>
        <time>2026-08-31T11:39:59Z</time>
      </trkpt>
      <trkpt lat="43.44171" lon="-0.3664">
        <ele>210.2</ele>
        <time>2026-08-31T11:39:59Z</time>
      </trkpt>
      <trkpt lat="43.44171" lon="-0.36641">
        <ele>211.2</ele>
        <time>2026-08-31T11:40:00Z</time>
      </trkpt>
      <trkpt lat="43.4417" lon="-0.36641">
        <ele>211.2</ele>
        <time>2026-08-31T11:40:00Z</time>
      </trkpt>
      <trkpt lat="43.44169" lon="-0.36642">
        <ele>211.2</ele>
        <time>2026-08-31T11:40:01Z</time>
      </trkpt>
      <trkpt lat="43.44169" lon="-0.36642">
        <ele>211.2</ele>
        <time>2026-08-31T11:40:02Z</time>
      </trkpt>
      <trkpt lat="43.44168" lon="-0.36642">
        <ele>211.2</ele>
        <time>2026-08-31T11:40:02Z</time>
      </trkpt>
      <trkpt lat="43.44168" lon="-0.36643">
        <ele>211.2</ele>
        <time>2026-08-31T11:40:03Z</time>
      </trkpt>
      <trkpt lat="43.44167" lon="-0.36643">
        <ele>211.2</ele>
        <time>2026-08-31T11:40:03Z</time>
      </trkpt>
      <trkpt lat="43.44166" lon="-0.36644">
        <ele>211.2</ele>
        <time>2026-08-31T11:40:04Z</time>
      </trkpt>
      <trkpt lat="43.44166" lon="-0.36644">
        <ele>211.2</ele>
        <time>2026-08-31T11:40:04Z</time>
      </trkpt>
      <trkpt lat="43.44165" lon="-0.36644">
        <ele>211.2</ele>
        <time>2026-08-31T11:40:05Z</time>
      </trkpt>
      <trkpt lat="43.44164" lon="-0.36645">
        <ele>211.2</ele>
        <time>2026-08-31T11:40:06Z</time>
      </trkpt>
      <trkpt lat="43.44164" lon="-0.36645">
        <ele>210.2</ele>
        <time>2026-08-31T11:40:06Z</time>
      </trkpt>
      <trkpt lat="43.44164" lon="-0.36646">
        <ele>210.2</ele>
        <time>2026-08-31T11:40:07Z</time>
      </trkpt>
      <trkpt lat="43.44163" lon="-0.36646">
        <ele>211.2</ele>
        <time>2026-08-31T11:40:07Z</time>
      </trkpt>
      <trkpt lat="43.44162" lon="-0.36646">
        <ele>211.2</ele>
        <time>2026-08-31T11:40:08Z</time>
      </trkpt>
      <trkpt lat="43.44162" lon="-0.36647">
        <ele>211.2</ele>
        <time>2026-08-31T11:40:08Z</time>
      </trkpt>
      <trkpt lat="43.44161" lon="-0.36647">
        <ele>211.2</ele>
        <time>2026-08-31T11:40:09Z</time>
      </trkpt>
      <trkpt lat="43.4416" lon="-0.36648">
        <ele>211.2</ele>
        <time>2026-08-31T11:40:10Z</time>
      </trkpt>
      <trkpt lat="43.4416" lon="-0.36648">
        <ele>212.2</ele>
        <time>2026-08-31T11:40:10Z</time>
      </trkpt>
      <trkpt lat="43.44159" lon="-0.36649">
        <ele>213.2</ele>
        <time>2026-08-31T11:40:11Z</time>
      </trkpt>
      <trkpt lat="43.44158" lon="-0.3665">
        <ele>213.2</ele>
        <time>2026-08-31T11:40:11Z</time>
      </trkpt>
      <trkpt lat="43.44157" lon="-0.3665">
        <ele>212.2</ele>
        <time>2026-08-31T11:40:12Z</time>
      </trkpt>
      <trkpt lat="43.44157" lon="-0.36651">
        <ele>212.2</ele>
        <time>2026-08-31T11:40:13Z</time>
      </trkpt>
      <trkpt lat="43.44156" lon="-0.36651">
        <ele>213.2</ele>
        <time>2026-08-31T11:40:13Z</time>
      </trkpt>
      <trkpt lat="43.44155" lon="-0.36652">
        <ele>213.2</ele>
        <time>2026-08-31T11:40:14Z</time>
      </trkpt>
      <trkpt lat="43.44154" lon="-0.36652">
        <ele>213.2</ele>
        <time>2026-08-31T11:40:14Z</time>
      </trkpt>
      <trkpt lat="43.44153" lon="-0.36653">
        <ele>213.2</ele>
        <time>2026-08-31T11:40:15Z</time>
      </trkpt>
      <trkpt lat="43.44153" lon="-0.36653">
        <ele>213.2</ele>
        <time>2026-08-31T11:40:15Z</time>
      </trkpt>
      <trkpt lat="43.44152" lon="-0.36653">
        <ele>214.2</ele>
        <time>2026-08-31T11:40:16Z</time>
      </trkpt>
      <trkpt lat="43.44151" lon="-0.36654">
        <ele>214.2</ele>
        <time>2026-08-31T11:40:17Z</time>
      </trkpt>
      <trkpt lat="43.4415" lon="-0.36654">
        <ele>214.2</ele>
        <time>2026-08-31T11:40:17Z</time>
      </trkpt>
      <trkpt lat="43.4415" lon="-0.36654">
        <ele>214.2</ele>
        <time>2026-08-31T11:40:18Z</time>
      </trkpt>
      <trkpt lat="43.44149" lon="-0.36655">
        <ele>214.2</ele>
        <time>2026-08-31T11:40:18Z</time>
      </trkpt>
      <trkpt lat="43.44148" lon="-0.36655">
        <ele>214.2</ele>
        <time>2026-08-31T11:40:19Z</time>
      </trkpt>
      <trkpt lat="43.44147" lon="-0.36655">
        <ele>214.2</ele>
        <time>2026-08-31T11:40:20Z</time>
      </trkpt>
      <trkpt lat="43.44146" lon="-0.36655">
        <ele>215.2</ele>
        <time>2026-08-31T11:40:20Z</time>
      </trkpt>
      <trkpt lat="43.44146" lon="-0.36656">
        <ele>215.2</ele>
        <time>2026-08-31T11:40:21Z</time>
      </trkpt>
      <trkpt lat="43.44145" lon="-0.36656">
        <ele>215.2</ele>
        <time>2026-08-31T11:40:21Z</time>
      </trkpt>
      <trkpt lat="43.44145" lon="-0.36656">
        <ele>215.2</ele>
        <time>2026-08-31T11:40:22Z</time>
      </trkpt>
      <trkpt lat="43.44144" lon="-0.36656">
        <ele>215.2</ele>
        <time>2026-08-31T11:40:23Z</time>
      </trkpt>
      <trkpt lat="43.44143" lon="-0.36657">
        <ele>215.2</ele>
        <time>2026-08-31T11:40:23Z</time>
      </trkpt>
      <trkpt lat="43.44143" lon="-0.36657">
        <ele>215.2</ele>
        <time>2026-08-31T11:40:24Z</time>
      </trkpt>
      <trkpt lat="43.44142" lon="-0.36657">
        <ele>216.2</ele>
        <time>2026-08-31T11:40:24Z</time>
      </trkpt>
      <trkpt lat="43.44142" lon="-0.36658">
        <ele>216.2</ele>
        <time>2026-08-31T11:40:25Z</time>
      </trkpt>
      <trkpt lat="43.44141" lon="-0.36658">
        <ele>216.2</ele>
        <time>2026-08-31T11:40:25Z</time>
      </trkpt>
      <trkpt lat="43.44141" lon="-0.36658">
        <ele>216.2</ele>
        <time>2026-08-31T11:40:26Z</time>
      </trkpt>
      <trkpt lat="43.4414" lon="-0.36659">
        <ele>216.2</ele>
        <time>2026-08-31T11:40:27Z</time>
      </trkpt>
      <trkpt lat="43.44139" lon="-0.36659">
        <ele>217.2</ele>
        <time>2026-08-31T11:40:27Z</time>
      </trkpt>
      <trkpt lat="43.44139" lon="-0.36659">
        <ele>217.2</ele>
        <time>2026-08-31T11:40:28Z</time>
      </trkpt>
      <trkpt lat="43.44138" lon="-0.3666">
        <ele>217.2</ele>
        <time>2026-08-31T11:40:28Z</time>
      </trkpt>
      <trkpt lat="43.44138" lon="-0.36661">
        <ele>218.2</ele>
        <time>2026-08-31T11:40:29Z</time>
      </trkpt>
      <trkpt lat="43.44137" lon="-0.36661">
        <ele>218.2</ele>
        <time>2026-08-31T11:40:30Z</time>
      </trkpt>
      <trkpt lat="43.44137" lon="-0.36662">
        <ele>218.2</ele>
        <time>2026-08-31T11:40:30Z</time>
      </trkpt>
      <trkpt lat="43.44136" lon="-0.36662">
        <ele>218.2</ele>
        <time>2026-08-31T11:40:31Z</time>
      </trkpt>
      <trkpt lat="43.44135" lon="-0.36663">
        <ele>218.2</ele>
        <time>2026-08-31T11:40:31Z</time>
      </trkpt>
      <trkpt lat="43.44135" lon="-0.36663">
        <ele>219.2</ele>
        <time>2026-08-31T11:40:32Z</time>
      </trkpt>
      <trkpt lat="43.44134" lon="-0.36664">
        <ele>219.2</ele>
        <time>2026-08-31T11:40:32Z</time>
      </trkpt>
      <trkpt lat="43.44134" lon="-0.36664">
        <ele>219.2</ele>
        <time>2026-08-31T11:40:33Z</time>
      </trkpt>
      <trkpt lat="43.44133" lon="-0.36664">
        <ele>219.2</ele>
        <time>2026-08-31T11:40:34Z</time>
      </trkpt>
      <trkpt lat="43.44132" lon="-0.36665">
        <ele>219.2</ele>
        <time>2026-08-31T11:40:34Z</time>
      </trkpt>
      <trkpt lat="43.44132" lon="-0.36665">
        <ele>219.2</ele>
        <time>2026-08-31T11:40:35Z</time>
      </trkpt>
      <trkpt lat="43.44131" lon="-0.36666">
        <ele>219.2</ele>
        <time>2026-08-31T11:40:35Z</time>
      </trkpt>
      <trkpt lat="43.4413" lon="-0.36666">
        <ele>219.2</ele>
        <time>2026-08-31T11:40:36Z</time>
      </trkpt>
      <trkpt lat="43.4413" lon="-0.36667">
        <ele>219.2</ele>
        <time>2026-08-31T11:40:36Z</time>
      </trkpt>
      <trkpt lat="43.44129" lon="-0.36668">
        <ele>219.2</ele>
        <time>2026-08-31T11:40:37Z</time>
      </trkpt>
      <trkpt lat="43.44128" lon="-0.36668">
        <ele>219.2</ele>
        <time>2026-08-31T11:40:38Z</time>
      </trkpt>
      <trkpt lat="43.44128" lon="-0.36669">
        <ele>219.2</ele>
        <time>2026-08-31T11:40:38Z</time>
      </trkpt>
      <trkpt lat="43.44127" lon="-0.3667">
        <ele>219.2</ele>
        <time>2026-08-31T11:40:39Z</time>
      </trkpt>
      <trkpt lat="43.44127" lon="-0.3667">
        <ele>219.2</ele>
        <time>2026-08-31T11:40:39Z</time>
      </trkpt>
      <trkpt lat="43.44126" lon="-0.36671">
        <ele>220.2</ele>
        <time>2026-08-31T11:40:40Z</time>
      </trkpt>
      <trkpt lat="43.44125" lon="-0.36671">
        <ele>220.2</ele>
        <time>2026-08-31T11:40:40Z</time>
      </trkpt>
      <trkpt lat="43.44125" lon="-0.36672">
        <ele>220.2</ele>
        <time>2026-08-31T11:40:41Z</time>
      </trkpt>
      <trkpt lat="43.44124" lon="-0.36672">
        <ele>220.2</ele>
        <time>2026-08-31T11:40:42Z</time>
      </trkpt>
      <trkpt lat="43.44123" lon="-0.36673">
        <ele>220.2</ele>
        <time>2026-08-31T11:40:42Z</time>
      </trkpt>
      <trkpt lat="43.44123" lon="-0.36673">
        <ele>221.2</ele>
        <time>2026-08-31T11:40:43Z</time>
      </trkpt>
      <trkpt lat="43.44122" lon="-0.36674">
        <ele>221.2</ele>
        <time>2026-08-31T11:40:43Z</time>
      </trkpt>
      <trkpt lat="43.44122" lon="-0.36674">
        <ele>222.2</ele>
        <time>2026-08-31T11:40:44Z</time>
      </trkpt>
      <trkpt lat="43.44121" lon="-0.36675">
        <ele>222.2</ele>
        <time>2026-08-31T11:40:44Z</time>
      </trkpt>
      <trkpt lat="43.4412" lon="-0.36675">
        <ele>222.2</ele>
        <time>2026-08-31T11:40:45Z</time>
      </trkpt>
      <trkpt lat="43.4412" lon="-0.36676">
        <ele>222.2</ele>
        <time>2026-08-31T11:40:46Z</time>
      </trkpt>
      <trkpt lat="43.44119" lon="-0.36676">
        <ele>223.2</ele>
        <time>2026-08-31T11:40:46Z</time>
      </trkpt>
      <trkpt lat="43.44119" lon="-0.36677">
        <ele>223.2</ele>
        <time>2026-08-31T11:40:47Z</time>
      </trkpt>
      <trkpt lat="43.44118" lon="-0.36677">
        <ele>224.2</ele>
        <time>2026-08-31T11:40:47Z</time>
      </trkpt>
      <trkpt lat="43.44117" lon="-0.36678">
        <ele>223.2</ele>
        <time>2026-08-31T11:40:48Z</time>
      </trkpt>
      <trkpt lat="43.44117" lon="-0.36678">
        <ele>223.2</ele>
        <time>2026-08-31T11:40:48Z</time>
      </trkpt>
      <trkpt lat="43.44116" lon="-0.36679">
        <ele>224.2</ele>
        <time>2026-08-31T11:40:49Z</time>
      </trkpt>
      <trkpt lat="43.44116" lon="-0.36679">
        <ele>224.2</ele>
        <time>2026-08-31T11:40:50Z</time>
      </trkpt>
      <trkpt lat="43.44115" lon="-0.36679">
        <ele>224.2</ele>
        <time>2026-08-31T11:40:50Z</time>
      </trkpt>
      <trkpt lat="43.44114" lon="-0.3668">
        <ele>224.2</ele>
        <time>2026-08-31T11:40:51Z</time>
      </trkpt>
      <trkpt lat="43.44114" lon="-0.3668">
        <ele>224.2</ele>
        <time>2026-08-31T11:40:51Z</time>
      </trkpt>
      <trkpt lat="43.44113" lon="-0.36681">
        <ele>225.2</ele>
        <time>2026-08-31T11:40:52Z</time>
      </trkpt>
      <trkpt lat="43.44112" lon="-0.36681">
        <ele>225.2</ele>
        <time>2026-08-31T11:40:52Z</time>
      </trkpt>
      <trkpt lat="43.44112" lon="-0.36681">
        <ele>225.2</ele>
        <time>2026-08-31T11:40:53Z</time>
      </trkpt>
      <trkpt lat="43.44111" lon="-0.36682">
        <ele>225.2</ele>
        <time>2026-08-31T11:40:54Z</time>
      </trkpt>
      <trkpt lat="43.4411" lon="-0.36682">
        <ele>226.2</ele>
        <time>2026-08-31T11:40:54Z</time>
      </trkpt>
      <trkpt lat="43.4411" lon="-0.36683">
        <ele>226.2</ele>
        <time>2026-08-31T11:40:55Z</time>
      </trkpt>
      <trkpt lat="43.44109" lon="-0.36683">
        <ele>226.2</ele>
        <time>2026-08-31T11:40:55Z</time>
      </trkpt>
      <trkpt lat="43.44108" lon="-0.36684">
        <ele>226.2</ele>
        <time>2026-08-31T11:40:56Z</time>
      </trkpt>
      <trkpt lat="43.44107" lon="-0.36685">
        <ele>226.2</ele>
        <time>2026-08-31T11:40:57Z</time>
      </trkpt>
      <trkpt lat="43.44107" lon="-0.36686">
        <ele>226.2</ele>
        <time>2026-08-31T11:40:58Z</time>
      </trkpt>
      <trkpt lat="43.44106" lon="-0.36686">
        <ele>227.2</ele>
        <time>2026-08-31T11:40:58Z</time>
      </trkpt>
      <trkpt lat="43.44106" lon="-0.36687">
        <ele>227.2</ele>
        <time>2026-08-31T11:40:59Z</time>
      </trkpt>
      <trkpt lat="43.44105" lon="-0.36688">
        <ele>227.2</ele>
        <time>2026-08-31T11:40:59Z</time>
      </trkpt>
      <trkpt lat="43.44105" lon="-0.36688">
        <ele>227.2</ele>
        <time>2026-08-31T11:41:00Z</time>
      </trkpt>
      <trkpt lat="43.44104" lon="-0.36689">
        <ele>227.2</ele>
        <time>2026-08-31T11:41:00Z</time>
      </trkpt>
      <trkpt lat="43.44104" lon="-0.36689">
        <ele>228.2</ele>
        <time>2026-08-31T11:41:01Z</time>
      </trkpt>
      <trkpt lat="43.44103" lon="-0.3669">
        <ele>228.2</ele>
        <time>2026-08-31T11:41:02Z</time>
      </trkpt>
      <trkpt lat="43.44102" lon="-0.36691">
        <ele>228.2</ele>
        <time>2026-08-31T11:41:02Z</time>
      </trkpt>
      <trkpt lat="43.44102" lon="-0.36691">
        <ele>228.2</ele>
        <time>2026-08-31T11:41:03Z</time>
      </trkpt>
      <trkpt lat="43.44101" lon="-0.36692">
        <ele>228.2</ele>
        <time>2026-08-31T11:41:03Z</time>
      </trkpt>
      <trkpt lat="43.441" lon="-0.36692">
        <ele>228.2</ele>
        <time>2026-08-31T11:41:05Z</time>
      </trkpt>
      <trkpt lat="43.441" lon="-0.36693">
        <ele>229.2</ele>
        <time>2026-08-31T11:41:05Z</time>
      </trkpt>
      <trkpt lat="43.44099" lon="-0.36693">
        <ele>229.2</ele>
        <time>2026-08-31T11:41:06Z</time>
      </trkpt>
      <trkpt lat="43.44098" lon="-0.36694">
        <ele>229.2</ele>
        <time>2026-08-31T11:41:06Z</time>
      </trkpt>
      <trkpt lat="43.44098" lon="-0.36695">
        <ele>229.2</ele>
        <time>2026-08-31T11:41:07Z</time>
      </trkpt>
      <trkpt lat="43.44097" lon="-0.36695">
        <ele>229.2</ele>
        <time>2026-08-31T11:41:07Z</time>
      </trkpt>
      <trkpt lat="43.44097" lon="-0.36696">
        <ele>229.2</ele>
        <time>2026-08-31T11:41:08Z</time>
      </trkpt>
      <trkpt lat="43.44097" lon="-0.36696">
        <ele>229.2</ele>
        <time>2026-08-31T11:41:09Z</time>
      </trkpt>
      <trkpt lat="43.44096" lon="-0.36697">
        <ele>229.2</ele>
        <time>2026-08-31T11:41:09Z</time>
      </trkpt>
      <trkpt lat="43.44096" lon="-0.36697">
        <ele>228.2</ele>
        <time>2026-08-31T11:41:10Z</time>
      </trkpt>
      <trkpt lat="43.44096" lon="-0.36698">
        <ele>228.2</ele>
        <time>2026-08-31T11:41:10Z</time>
      </trkpt>
      <trkpt lat="43.44095" lon="-0.36698">
        <ele>229.2</ele>
        <time>2026-08-31T11:41:11Z</time>
      </trkpt>
      <trkpt lat="43.44095" lon="-0.36699">
        <ele>229.2</ele>
        <time>2026-08-31T11:41:12Z</time>
      </trkpt>
      <trkpt lat="43.44094" lon="-0.36699">
        <ele>229.2</ele>
        <time>2026-08-31T11:41:12Z</time>
      </trkpt>
      <trkpt lat="43.44094" lon="-0.367">
        <ele>229.2</ele>
        <time>2026-08-31T11:41:13Z</time>
      </trkpt>
      <trkpt lat="43.44093" lon="-0.36701">
        <ele>230.2</ele>
        <time>2026-08-31T11:41:14Z</time>
      </trkpt>
      <trkpt lat="43.44092" lon="-0.36701">
        <ele>230.2</ele>
        <time>2026-08-31T11:41:14Z</time>
      </trkpt>
      <trkpt lat="43.44092" lon="-0.36702">
        <ele>231.2</ele>
        <time>2026-08-31T11:41:15Z</time>
      </trkpt>
      <trkpt lat="43.44092" lon="-0.36703">
        <ele>231.2</ele>
        <time>2026-08-31T11:41:16Z</time>
      </trkpt>
      <trkpt lat="43.44091" lon="-0.36703">
        <ele>230.2</ele>
        <time>2026-08-31T11:41:16Z</time>
      </trkpt>
      <trkpt lat="43.44091" lon="-0.36704">
        <ele>231.2</ele>
        <time>2026-08-31T11:41:17Z</time>
      </trkpt>
      <trkpt lat="43.4409" lon="-0.36704">
        <ele>231.2</ele>
        <time>2026-08-31T11:41:17Z</time>
      </trkpt>
      <trkpt lat="43.4409" lon="-0.36704">
        <ele>231.2</ele>
        <time>2026-08-31T11:41:18Z</time>
      </trkpt>
      <trkpt lat="43.44089" lon="-0.36705">
        <ele>231.2</ele>
        <time>2026-08-31T11:41:18Z</time>
      </trkpt>
      <trkpt lat="43.44089" lon="-0.36705">
        <ele>231.2</ele>
        <time>2026-08-31T11:41:19Z</time>
      </trkpt>
      <trkpt lat="43.44088" lon="-0.36706">
        <ele>231.2</ele>
        <time>2026-08-31T11:41:20Z</time>
      </trkpt>
      <trkpt lat="43.44088" lon="-0.36707">
        <ele>231.2</ele>
        <time>2026-08-31T11:41:20Z</time>
      </trkpt>
      <trkpt lat="43.44088" lon="-0.36707">
        <ele>231.2</ele>
        <time>2026-08-31T11:41:21Z</time>
      </trkpt>
      <trkpt lat="43.44087" lon="-0.36708">
        <ele>232.2</ele>
        <time>2026-08-31T11:41:21Z</time>
      </trkpt>
      <trkpt lat="43.44087" lon="-0.36708">
        <ele>231.2</ele>
        <time>2026-08-31T11:41:22Z</time>
      </trkpt>
      <trkpt lat="43.44086" lon="-0.36709">
        <ele>231.2</ele>
        <time>2026-08-31T11:41:22Z</time>
      </trkpt>
      <trkpt lat="43.44086" lon="-0.36709">
        <ele>232.2</ele>
        <time>2026-08-31T11:41:23Z</time>
      </trkpt>
      <trkpt lat="43.44086" lon="-0.3671">
        <ele>232.2</ele>
        <time>2026-08-31T11:41:24Z</time>
      </trkpt>
      <trkpt lat="43.44085" lon="-0.3671">
        <ele>232.2</ele>
        <time>2026-08-31T11:41:24Z</time>
      </trkpt>
      <trkpt lat="43.44085" lon="-0.36711">
        <ele>232.2</ele>
        <time>2026-08-31T11:41:25Z</time>
      </trkpt>
      <trkpt lat="43.44084" lon="-0.36712">
        <ele>232.2</ele>
        <time>2026-08-31T11:41:25Z</time>
      </trkpt>
      <trkpt lat="43.44084" lon="-0.36712">
        <ele>232.2</ele>
        <time>2026-08-31T11:41:26Z</time>
      </trkpt>
      <trkpt lat="43.44083" lon="-0.36713">
        <ele>232.2</ele>
        <time>2026-08-31T11:41:26Z</time>
      </trkpt>
      <trkpt lat="43.44083" lon="-0.36713">
        <ele>232.2</ele>
        <time>2026-08-31T11:41:27Z</time>
      </trkpt>
      <trkpt lat="43.44082" lon="-0.36714">
        <ele>232.2</ele>
        <time>2026-08-31T11:41:28Z</time>
      </trkpt>
      <trkpt lat="43.44082" lon="-0.36714">
        <ele>232.2</ele>
        <time>2026-08-31T11:41:28Z</time>
      </trkpt>
      <trkpt lat="43.44081" lon="-0.36715">
        <ele>232.2</ele>
        <time>2026-08-31T11:41:29Z</time>
      </trkpt>
      <trkpt lat="43.44081" lon="-0.36715">
        <ele>232.2</ele>
        <time>2026-08-31T11:41:29Z</time>
      </trkpt>
      <trkpt lat="43.4408" lon="-0.36716">
        <ele>233.2</ele>
        <time>2026-08-31T11:41:30Z</time>
      </trkpt>
      <trkpt lat="43.4408" lon="-0.36716">
        <ele>233.2</ele>
        <time>2026-08-31T11:41:30Z</time>
      </trkpt>
      <trkpt lat="43.44079" lon="-0.36717">
        <ele>233.2</ele>
        <time>2026-08-31T11:41:31Z</time>
      </trkpt>
      <trkpt lat="43.44078" lon="-0.36717">
        <ele>233.2</ele>
        <time>2026-08-31T11:41:32Z</time>
      </trkpt>
      <trkpt lat="43.44078" lon="-0.36718">
        <ele>233.2</ele>
        <time>2026-08-31T11:41:32Z</time>
      </trkpt>
      <trkpt lat="43.44077" lon="-0.36718">
        <ele>233.2</ele>
        <time>2026-08-31T11:41:33Z</time>
      </trkpt>
      <trkpt lat="43.44077" lon="-0.36719">
        <ele>233.2</ele>
        <time>2026-08-31T11:41:33Z</time>
      </trkpt>
      <trkpt lat="43.44076" lon="-0.36719">
        <ele>233.2</ele>
        <time>2026-08-31T11:41:34Z</time>
      </trkpt>
      <trkpt lat="43.44076" lon="-0.3672">
        <ele>233.2</ele>
        <time>2026-08-31T11:41:34Z</time>
      </trkpt>
      <trkpt lat="43.44075" lon="-0.3672">
        <ele>234.2</ele>
        <time>2026-08-31T11:41:35Z</time>
      </trkpt>
      <trkpt lat="43.44074" lon="-0.36721">
        <ele>234.2</ele>
        <time>2026-08-31T11:41:36Z</time>
      </trkpt>
      <trkpt lat="43.44074" lon="-0.36721">
        <ele>234.2</ele>
        <time>2026-08-31T11:41:36Z</time>
      </trkpt>
      <trkpt lat="43.44073" lon="-0.36722">
        <ele>234.2</ele>
        <time>2026-08-31T11:41:37Z</time>
      </trkpt>
      <trkpt lat="43.44072" lon="-0.36723">
        <ele>234.2</ele>
        <time>2026-08-31T11:41:37Z</time>
      </trkpt>
      <trkpt lat="43.44072" lon="-0.36724">
        <ele>234.2</ele>
        <time>2026-08-31T11:41:38Z</time>
      </trkpt>
      <trkpt lat="43.44071" lon="-0.36724">
        <ele>234.2</ele>
        <time>2026-08-31T11:41:38Z</time>
      </trkpt>
      <trkpt lat="43.4407" lon="-0.36725">
        <ele>235.2</ele>
        <time>2026-08-31T11:41:39Z</time>
      </trkpt>
      <trkpt lat="43.4407" lon="-0.36726">
        <ele>235.2</ele>
        <time>2026-08-31T11:41:39Z</time>
      </trkpt>
      <trkpt lat="43.44069" lon="-0.36726">
        <ele>235.2</ele>
        <time>2026-08-31T11:41:40Z</time>
      </trkpt>
      <trkpt lat="43.44069" lon="-0.36727">
        <ele>235.2</ele>
        <time>2026-08-31T11:41:41Z</time>
      </trkpt>
      <trkpt lat="43.44068" lon="-0.36728">
        <ele>235.2</ele>
        <time>2026-08-31T11:41:41Z</time>
      </trkpt>
      <trkpt lat="43.44068" lon="-0.36728">
        <ele>235.2</ele>
        <time>2026-08-31T11:41:42Z</time>
      </trkpt>
      <trkpt lat="43.44067" lon="-0.36729">
        <ele>235.2</ele>
        <time>2026-08-31T11:41:42Z</time>
      </trkpt>
      <trkpt lat="43.44066" lon="-0.3673">
        <ele>235.2</ele>
        <time>2026-08-31T11:41:43Z</time>
      </trkpt>
      <trkpt lat="43.44065" lon="-0.3673">
        <ele>235.2</ele>
        <time>2026-08-31T11:41:43Z</time>
      </trkpt>
      <trkpt lat="43.44065" lon="-0.36731">
        <ele>235.2</ele>
        <time>2026-08-31T11:41:44Z</time>
      </trkpt>
      <trkpt lat="43.44064" lon="-0.36731">
        <ele>235.2</ele>
        <time>2026-08-31T11:41:45Z</time>
      </trkpt>
      <trkpt lat="43.44064" lon="-0.36732">
        <ele>235.2</ele>
        <time>2026-08-31T11:41:45Z</time>
      </trkpt>
      <trkpt lat="43.44063" lon="-0.36732">
        <ele>236.2</ele>
        <time>2026-08-31T11:41:46Z</time>
      </trkpt>
      <trkpt lat="43.44063" lon="-0.36733">
        <ele>236.2</ele>
        <time>2026-08-31T11:41:46Z</time>
      </trkpt>
      <trkpt lat="43.44062" lon="-0.36733">
        <ele>235.2</ele>
        <time>2026-08-31T11:41:47Z</time>
      </trkpt>
      <trkpt lat="43.44062" lon="-0.36734">
        <ele>235.2</ele>
        <time>2026-08-31T11:41:47Z</time>
      </trkpt>
      <trkpt lat="43.44061" lon="-0.36734">
        <ele>235.2</ele>
        <time>2026-08-31T11:41:48Z</time>
      </trkpt>
      <trkpt lat="43.4406" lon="-0.36735">
        <ele>235.2</ele>
        <time>2026-08-31T11:41:49Z</time>
      </trkpt>
      <trkpt lat="43.4406" lon="-0.36736">
        <ele>235.2</ele>
        <time>2026-08-31T11:41:49Z</time>
      </trkpt>
      <trkpt lat="43.44059" lon="-0.36736">
        <ele>235.2</ele>
        <time>2026-08-31T11:41:50Z</time>
      </trkpt>
      <trkpt lat="43.44059" lon="-0.36736">
        <ele>235.2</ele>
        <time>2026-08-31T11:41:50Z</time>
      </trkpt>
      <trkpt lat="43.44058" lon="-0.36737">
        <ele>235.2</ele>
        <time>2026-08-31T11:41:51Z</time>
      </trkpt>
      <trkpt lat="43.44058" lon="-0.36737">
        <ele>235.2</ele>
        <time>2026-08-31T11:41:51Z</time>
      </trkpt>
      <trkpt lat="43.44057" lon="-0.36738">
        <ele>236.2</ele>
        <time>2026-08-31T11:41:52Z</time>
      </trkpt>
      <trkpt lat="43.44056" lon="-0.36738">
        <ele>236.2</ele>
        <time>2026-08-31T11:41:53Z</time>
      </trkpt>
      <trkpt lat="43.44055" lon="-0.36739">
        <ele>236.2</ele>
        <time>2026-08-31T11:41:53Z</time>
      </trkpt>
      <trkpt lat="43.44055" lon="-0.36739">
        <ele>236.2</ele>
        <time>2026-08-31T11:41:54Z</time>
      </trkpt>
      <trkpt lat="43.44054" lon="-0.3674">
        <ele>236.2</ele>
        <time>2026-08-31T11:41:54Z</time>
      </trkpt>
      <trkpt lat="43.44053" lon="-0.36741">
        <ele>237.2</ele>
        <time>2026-08-31T11:41:55Z</time>
      </trkpt>
      <trkpt lat="43.44052" lon="-0.36741">
        <ele>237.2</ele>
        <time>2026-08-31T11:41:55Z</time>
      </trkpt>
      <trkpt lat="43.44051" lon="-0.36742">
        <ele>237.2</ele>
        <time>2026-08-31T11:41:56Z</time>
      </trkpt>
      <trkpt lat="43.4405" lon="-0.36742">
        <ele>237.2</ele>
        <time>2026-08-31T11:41:56Z</time>
      </trkpt>
      <trkpt lat="43.44049" lon="-0.36743">
        <ele>237.2</ele>
        <time>2026-08-31T11:41:57Z</time>
      </trkpt>
      <trkpt lat="43.44049" lon="-0.36743">
        <ele>237.2</ele>
        <time>2026-08-31T11:41:58Z</time>
      </trkpt>
      <trkpt lat="43.44048" lon="-0.36744">
        <ele>238.2</ele>
        <time>2026-08-31T11:41:58Z</time>
      </trkpt>
      <trkpt lat="43.44047" lon="-0.36744">
        <ele>238.2</ele>
        <time>2026-08-31T11:41:59Z</time>
      </trkpt>
      <trkpt lat="43.44046" lon="-0.36745">
        <ele>238.2</ele>
        <time>2026-08-31T11:41:59Z</time>
      </trkpt>
      <trkpt lat="43.44046" lon="-0.36745">
        <ele>238.2</ele>
        <time>2026-08-31T11:42:00Z</time>
      </trkpt>
      <trkpt lat="43.44045" lon="-0.36746">
        <ele>238.2</ele>
        <time>2026-08-31T11:42:01Z</time>
      </trkpt>
      <trkpt lat="43.44045" lon="-0.36746">
        <ele>238.2</ele>
        <time>2026-08-31T11:42:01Z</time>
      </trkpt>
      <trkpt lat="43.44044" lon="-0.36746">
        <ele>238.2</ele>
        <time>2026-08-31T11:42:02Z</time>
      </trkpt>
      <trkpt lat="43.44043" lon="-0.36747">
        <ele>238.2</ele>
        <time>2026-08-31T11:42:02Z</time>
      </trkpt>
      <trkpt lat="43.44042" lon="-0.36747">
        <ele>239.2</ele>
        <time>2026-08-31T11:42:03Z</time>
      </trkpt>
      <trkpt lat="43.44041" lon="-0.36748">
        <ele>239.2</ele>
        <time>2026-08-31T11:42:03Z</time>
      </trkpt>
      <trkpt lat="43.44041" lon="-0.36748">
        <ele>239.2</ele>
        <time>2026-08-31T11:42:04Z</time>
      </trkpt>
      <trkpt lat="43.4404" lon="-0.36749">
        <ele>239.2</ele>
        <time>2026-08-31T11:42:04Z</time>
      </trkpt>
      <trkpt lat="43.44039" lon="-0.36749">
        <ele>239.2</ele>
        <time>2026-08-31T11:42:05Z</time>
      </trkpt>
      <trkpt lat="43.44038" lon="-0.3675">
        <ele>239.2</ele>
        <time>2026-08-31T11:42:06Z</time>
      </trkpt>
      <trkpt lat="43.44038" lon="-0.3675">
        <ele>239.2</ele>
        <time>2026-08-31T11:42:06Z</time>
      </trkpt>
      <trkpt lat="43.44037" lon="-0.3675">
        <ele>239.2</ele>
        <time>2026-08-31T11:42:07Z</time>
      </trkpt>
      <trkpt lat="43.44036" lon="-0.36751">
        <ele>239.2</ele>
        <time>2026-08-31T11:42:07Z</time>
      </trkpt>
      <trkpt lat="43.44036" lon="-0.36751">
        <ele>239.2</ele>
        <time>2026-08-31T11:42:08Z</time>
      </trkpt>
      <trkpt lat="43.44035" lon="-0.36752">
        <ele>239.2</ele>
        <time>2026-08-31T11:42:08Z</time>
      </trkpt>
      <trkpt lat="43.44034" lon="-0.36752">
        <ele>239.2</ele>
        <time>2026-08-31T11:42:09Z</time>
      </trkpt>
      <trkpt lat="43.44034" lon="-0.36753">
        <ele>239.2</ele>
        <time>2026-08-31T11:42:10Z</time>
      </trkpt>
      <trkpt lat="43.44033" lon="-0.36753">
        <ele>239.2</ele>
        <time>2026-08-31T11:42:10Z</time>
      </trkpt>
      <trkpt lat="43.44032" lon="-0.36754">
        <ele>239.2</ele>
        <time>2026-08-31T11:42:11Z</time>
      </trkpt>
      <trkpt lat="43.44032" lon="-0.36754">
        <ele>239.2</ele>
        <time>2026-08-31T11:42:11Z</time>
      </trkpt>
      <trkpt lat="43.44031" lon="-0.36754">
        <ele>239.2</ele>
        <time>2026-08-31T11:42:12Z</time>
      </trkpt>
      <trkpt lat="43.4403" lon="-0.36755">
        <ele>239.2</ele>
        <time>2026-08-31T11:42:12Z</time>
      </trkpt>
      <trkpt lat="43.4403" lon="-0.36755">
        <ele>239.2</ele>
        <time>2026-08-31T11:42:13Z</time>
      </trkpt>
      <trkpt lat="43.44029" lon="-0.36755">
        <ele>239.2</ele>
        <time>2026-08-31T11:42:13Z</time>
      </trkpt>
      <trkpt lat="43.44028" lon="-0.36756">
        <ele>240.2</ele>
        <time>2026-08-31T11:42:14Z</time>
      </trkpt>
      <trkpt lat="43.44028" lon="-0.36756">
        <ele>240.2</ele>
        <time>2026-08-31T11:42:14Z</time>
      </trkpt>
      <trkpt lat="43.44027" lon="-0.36756">
        <ele>239.2</ele>
        <time>2026-08-31T11:42:15Z</time>
      </trkpt>
      <trkpt lat="43.44027" lon="-0.36756">
        <ele>239.2</ele>
        <time>2026-08-31T11:42:16Z</time>
      </trkpt>
      <trkpt lat="43.44026" lon="-0.36757">
        <ele>239.2</ele>
        <time>2026-08-31T11:42:16Z</time>
      </trkpt>
      <trkpt lat="43.44026" lon="-0.36757">
        <ele>240.2</ele>
        <time>2026-08-31T11:42:17Z</time>
      </trkpt>
      <trkpt lat="43.44025" lon="-0.36757">
        <ele>240.2</ele>
        <time>2026-08-31T11:42:17Z</time>
      </trkpt>
      <trkpt lat="43.44024" lon="-0.36758">
        <ele>240.2</ele>
        <time>2026-08-31T11:42:18Z</time>
      </trkpt>
      <trkpt lat="43.44024" lon="-0.36758">
        <ele>240.2</ele>
        <time>2026-08-31T11:42:18Z</time>
      </trkpt>
      <trkpt lat="43.44023" lon="-0.36758">
        <ele>240.2</ele>
        <time>2026-08-31T11:42:19Z</time>
      </trkpt>
      <trkpt lat="43.44023" lon="-0.36759">
        <ele>240.2</ele>
        <time>2026-08-31T11:42:20Z</time>
      </trkpt>
      <trkpt lat="43.44022" lon="-0.36759">
        <ele>240.2</ele>
        <time>2026-08-31T11:42:20Z</time>
      </trkpt>
      <trkpt lat="43.44021" lon="-0.36759">
        <ele>240.2</ele>
        <time>2026-08-31T11:42:21Z</time>
      </trkpt>
      <trkpt lat="43.44021" lon="-0.3676">
        <ele>240.2</ele>
        <time>2026-08-31T11:42:21Z</time>
      </trkpt>
      <trkpt lat="43.4402" lon="-0.3676">
        <ele>240.2</ele>
        <time>2026-08-31T11:42:22Z</time>
      </trkpt>
      <trkpt lat="43.44019" lon="-0.3676">
        <ele>240.2</ele>
        <time>2026-08-31T11:42:23Z</time>
      </trkpt>
      <trkpt lat="43.44018" lon="-0.36761">
        <ele>240.2</ele>
        <time>2026-08-31T11:42:24Z</time>
      </trkpt>
      <trkpt lat="43.44017" lon="-0.36761">
        <ele>240.2</ele>
        <time>2026-08-31T11:42:24Z</time>
      </trkpt>
      <trkpt lat="43.44017" lon="-0.36761">
        <ele>240.2</ele>
        <time>2026-08-31T11:42:25Z</time>
      </trkpt>
      <trkpt lat="43.44016" lon="-0.36761">
        <ele>240.2</ele>
        <time>2026-08-31T11:42:25Z</time>
      </trkpt>
      <trkpt lat="43.44015" lon="-0.36761">
        <ele>240.2</ele>
        <time>2026-08-31T11:42:26Z</time>
      </trkpt>
      <trkpt lat="43.44015" lon="-0.36761">
        <ele>240.2</ele>
        <time>2026-08-31T11:42:26Z</time>
      </trkpt>
      <trkpt lat="43.44014" lon="-0.36762">
        <ele>240.2</ele>
        <time>2026-08-31T11:42:27Z</time>
      </trkpt>
      <trkpt lat="43.44013" lon="-0.36762">
        <ele>240.2</ele>
        <time>2026-08-31T11:42:27Z</time>
      </trkpt>
      <trkpt lat="43.44012" lon="-0.36762">
        <ele>240.2</ele>
        <time>2026-08-31T11:42:28Z</time>
      </trkpt>
      <trkpt lat="43.44012" lon="-0.36762">
        <ele>240.2</ele>
        <time>2026-08-31T11:42:29Z</time>
      </trkpt>
      <trkpt lat="43.44011" lon="-0.36762">
        <ele>240.2</ele>
        <time>2026-08-31T11:42:29Z</time>
      </trkpt>
      <trkpt lat="43.4401" lon="-0.36762">
        <ele>240.2</ele>
        <time>2026-08-31T11:42:30Z</time>
      </trkpt>
      <trkpt lat="43.4401" lon="-0.36762">
        <ele>240.2</ele>
        <time>2026-08-31T11:42:30Z</time>
      </trkpt>
      <trkpt lat="43.44009" lon="-0.36762">
        <ele>240.2</ele>
        <time>2026-08-31T11:42:31Z</time>
      </trkpt>
      <trkpt lat="43.44008" lon="-0.36762">
        <ele>240.2</ele>
        <time>2026-08-31T11:42:31Z</time>
      </trkpt>
      <trkpt lat="43.44008" lon="-0.36763">
        <ele>240.2</ele>
        <time>2026-08-31T11:42:32Z</time>
      </trkpt>
      <trkpt lat="43.44007" lon="-0.36763">
        <ele>240.2</ele>
        <time>2026-08-31T11:42:32Z</time>
      </trkpt>
      <trkpt lat="43.44006" lon="-0.36763">
        <ele>240.2</ele>
        <time>2026-08-31T11:42:33Z</time>
      </trkpt>
      <trkpt lat="43.44005" lon="-0.36763">
        <ele>239.2</ele>
        <time>2026-08-31T11:42:34Z</time>
      </trkpt>
      <trkpt lat="43.44004" lon="-0.36764">
        <ele>240.2</ele>
        <time>2026-08-31T11:42:35Z</time>
      </trkpt>
      <trkpt lat="43.44003" lon="-0.36764">
        <ele>240.2</ele>
        <time>2026-08-31T11:42:36Z</time>
      </trkpt>
      <trkpt lat="43.44002" lon="-0.36765">
        <ele>240.2</ele>
        <time>2026-08-31T11:42:37Z</time>
      </trkpt>
      <trkpt lat="43.44002" lon="-0.36765">
        <ele>240.2</ele>
        <time>2026-08-31T11:42:37Z</time>
      </trkpt>
      <trkpt lat="43.44001" lon="-0.36766">
        <ele>240.2</ele>
        <time>2026-08-31T11:42:38Z</time>
      </trkpt>
      <trkpt lat="43.44001" lon="-0.36766">
        <ele>240.2</ele>
        <time>2026-08-31T11:42:38Z</time>
      </trkpt>
      <trkpt lat="43.44" lon="-0.36766">
        <ele>240.2</ele>
        <time>2026-08-31T11:42:39Z</time>
      </trkpt>
      <trkpt lat="43.43999" lon="-0.36766">
        <ele>240.2</ele>
        <time>2026-08-31T11:42:39Z</time>
      </trkpt>
      <trkpt lat="43.43999" lon="-0.36766">
        <ele>240.2</ele>
        <time>2026-08-31T11:42:40Z</time>
      </trkpt>
      <trkpt lat="43.43998" lon="-0.36767">
        <ele>240.2</ele>
        <time>2026-08-31T11:42:40Z</time>
      </trkpt>
      <trkpt lat="43.43997" lon="-0.36767">
        <ele>239.2</ele>
        <time>2026-08-31T11:42:41Z</time>
      </trkpt>
      <trkpt lat="43.43996" lon="-0.36767">
        <ele>239.2</ele>
        <time>2026-08-31T11:42:41Z</time>
      </trkpt>
      <trkpt lat="43.43995" lon="-0.36767">
        <ele>239.2</ele>
        <time>2026-08-31T11:42:42Z</time>
      </trkpt>
      <trkpt lat="43.43995" lon="-0.36768">
        <ele>239.2</ele>
        <time>2026-08-31T11:42:43Z</time>
      </trkpt>
      <trkpt lat="43.43994" lon="-0.36768">
        <ele>239.2</ele>
        <time>2026-08-31T11:42:43Z</time>
      </trkpt>
      <trkpt lat="43.43993" lon="-0.36768">
        <ele>239.2</ele>
        <time>2026-08-31T11:42:44Z</time>
      </trkpt>
      <trkpt lat="43.43992" lon="-0.36769">
        <ele>239.2</ele>
        <time>2026-08-31T11:42:44Z</time>
      </trkpt>
      <trkpt lat="43.43992" lon="-0.36769">
        <ele>239.2</ele>
        <time>2026-08-31T11:42:45Z</time>
      </trkpt>
      <trkpt lat="43.43991" lon="-0.36769">
        <ele>239.2</ele>
        <time>2026-08-31T11:42:45Z</time>
      </trkpt>
      <trkpt lat="43.4399" lon="-0.3677">
        <ele>239.2</ele>
        <time>2026-08-31T11:42:46Z</time>
      </trkpt>
      <trkpt lat="43.4399" lon="-0.3677">
        <ele>239.2</ele>
        <time>2026-08-31T11:42:46Z</time>
      </trkpt>
      <trkpt lat="43.43989" lon="-0.3677">
        <ele>240.2</ele>
        <time>2026-08-31T11:42:47Z</time>
      </trkpt>
      <trkpt lat="43.43988" lon="-0.36771">
        <ele>240.2</ele>
        <time>2026-08-31T11:42:48Z</time>
      </trkpt>
      <trkpt lat="43.43988" lon="-0.36771">
        <ele>240.2</ele>
        <time>2026-08-31T11:42:48Z</time>
      </trkpt>
      <trkpt lat="43.43987" lon="-0.36771">
        <ele>240.2</ele>
        <time>2026-08-31T11:42:49Z</time>
      </trkpt>
      <trkpt lat="43.43986" lon="-0.36772">
        <ele>240.2</ele>
        <time>2026-08-31T11:42:49Z</time>
      </trkpt>
      <trkpt lat="43.43986" lon="-0.36772">
        <ele>240.2</ele>
        <time>2026-08-31T11:42:50Z</time>
      </trkpt>
      <trkpt lat="43.43985" lon="-0.36773">
        <ele>240.2</ele>
        <time>2026-08-31T11:42:50Z</time>
      </trkpt>
      <trkpt lat="43.43984" lon="-0.36773">
        <ele>240.2</ele>
        <time>2026-08-31T11:42:51Z</time>
      </trkpt>
      <trkpt lat="43.43984" lon="-0.36773">
        <ele>240.2</ele>
        <time>2026-08-31T11:42:51Z</time>
      </trkpt>
      <trkpt lat="43.43983" lon="-0.36773">
        <ele>240.2</ele>
        <time>2026-08-31T11:42:52Z</time>
      </trkpt>
      <trkpt lat="43.43982" lon="-0.36774">
        <ele>240.2</ele>
        <time>2026-08-31T11:42:52Z</time>
      </trkpt>
      <trkpt lat="43.43981" lon="-0.36774">
        <ele>240.2</ele>
        <time>2026-08-31T11:42:53Z</time>
      </trkpt>
      <trkpt lat="43.43981" lon="-0.36774">
        <ele>240.2</ele>
        <time>2026-08-31T11:42:54Z</time>
      </trkpt>
      <trkpt lat="43.4398" lon="-0.36774">
        <ele>241.2</ele>
        <time>2026-08-31T11:42:54Z</time>
      </trkpt>
      <trkpt lat="43.43979" lon="-0.36774">
        <ele>241.2</ele>
        <time>2026-08-31T11:42:55Z</time>
      </trkpt>
      <trkpt lat="43.43979" lon="-0.36774">
        <ele>241.2</ele>
        <time>2026-08-31T11:42:55Z</time>
      </trkpt>
      <trkpt lat="43.43979" lon="-0.36774">
        <ele>241.2</ele>
        <time>2026-08-31T11:42:56Z</time>
      </trkpt>
      <trkpt lat="43.43979" lon="-0.36775">
        <ele>241.2</ele>
        <time>2026-08-31T11:42:56Z</time>
      </trkpt>
      <trkpt lat="43.43979" lon="-0.36775">
        <ele>240.2</ele>
        <time>2026-08-31T11:42:57Z</time>
      </trkpt>
      <trkpt lat="43.43979" lon="-0.36775">
        <ele>240.2</ele>
        <time>2026-08-31T11:42:57Z</time>
      </trkpt>
      <trkpt lat="43.43979" lon="-0.36775">
        <ele>241.2</ele>
        <time>2026-08-31T11:42:58Z</time>
      </trkpt>
      <trkpt lat="43.43978" lon="-0.36775">
        <ele>241.2</ele>
        <time>2026-08-31T11:42:59Z</time>
      </trkpt>
      <trkpt lat="43.43978" lon="-0.36775">
        <ele>241.2</ele>
        <time>2026-08-31T11:42:59Z</time>
      </trkpt>
      <trkpt lat="43.43977" lon="-0.36775">
        <ele>241.2</ele>
        <time>2026-08-31T11:43:00Z</time>
      </trkpt>
      <trkpt lat="43.43976" lon="-0.36776">
        <ele>241.2</ele>
        <time>2026-08-31T11:43:00Z</time>
      </trkpt>
      <trkpt lat="43.43975" lon="-0.36776">
        <ele>242.2</ele>
        <time>2026-08-31T11:43:01Z</time>
      </trkpt>
      <trkpt lat="43.43975" lon="-0.36777">
        <ele>242.2</ele>
        <time>2026-08-31T11:43:02Z</time>
      </trkpt>
      <trkpt lat="43.43974" lon="-0.36777">
        <ele>242.2</ele>
        <time>2026-08-31T11:43:02Z</time>
      </trkpt>
      <trkpt lat="43.43973" lon="-0.36778">
        <ele>242.2</ele>
        <time>2026-08-31T11:43:03Z</time>
      </trkpt>
      <trkpt lat="43.43972" lon="-0.36778">
        <ele>242.2</ele>
        <time>2026-08-31T11:43:04Z</time>
      </trkpt>
      <trkpt lat="43.43971" lon="-0.36779">
        <ele>242.2</ele>
        <time>2026-08-31T11:43:04Z</time>
      </trkpt>
      <trkpt lat="43.4397" lon="-0.36779">
        <ele>242.2</ele>
        <time>2026-08-31T11:43:06Z</time>
      </trkpt>
      <trkpt lat="43.4397" lon="-0.36779">
        <ele>242.2</ele>
        <time>2026-08-31T11:43:07Z</time>
      </trkpt>
      <trkpt lat="43.4397" lon="-0.36779">
        <ele>242.2</ele>
        <time>2026-08-31T11:43:08Z</time>
      </trkpt>
      <trkpt lat="43.4397" lon="-0.36779">
        <ele>242.2</ele>
        <time>2026-08-31T11:43:09Z</time>
      </trkpt>
      <trkpt lat="43.43971" lon="-0.36778">
        <ele>242.2</ele>
        <time>2026-08-31T11:43:10Z</time>
      </trkpt>
      <trkpt lat="43.43971" lon="-0.36778">
        <ele>242.2</ele>
        <time>2026-08-31T11:43:11Z</time>
      </trkpt>
      <trkpt lat="43.43971" lon="-0.36778">
        <ele>242.2</ele>
        <time>2026-08-31T11:43:12Z</time>
      </trkpt>
      <trkpt lat="43.43971" lon="-0.36778">
        <ele>242.2</ele>
        <time>2026-08-31T11:43:13Z</time>
      </trkpt>
      <trkpt lat="43.43971" lon="-0.36778">
        <ele>242.2</ele>
        <time>2026-08-31T11:43:14Z</time>
      </trkpt>
      <trkpt lat="43.43971" lon="-0.36778">
        <ele>242.2</ele>
        <time>2026-08-31T11:43:15Z</time>
      </trkpt>
      <trkpt lat="43.43971" lon="-0.36778">
        <ele>242.2</ele>
        <time>2026-08-31T11:43:16Z</time>
      </trkpt>
      <trkpt lat="43.43971" lon="-0.36778">
        <ele>242.2</ele>
        <time>2026-08-31T11:43:17Z</time>
      </trkpt>
      <trkpt lat="43.43971" lon="-0.36778">
        <ele>242.2</ele>
        <time>2026-08-31T11:43:18Z</time>
      </trkpt>
      <trkpt lat="43.43971" lon="-0.36778">
        <ele>242.2</ele>
        <time>2026-08-31T11:43:19Z</time>
      </trkpt>
      <trkpt lat="43.43971" lon="-0.36778">
        <ele>242.2</ele>
        <time>2026-08-31T11:43:20Z</time>
      </trkpt>
      <trkpt lat="43.43971" lon="-0.36778">
        <ele>242.2</ele>
        <time>2026-08-31T11:43:21Z</time>
      </trkpt>
      <trkpt lat="43.43971" lon="-0.36778">
        <ele>242.2</ele>
        <time>2026-08-31T11:43:21Z</time>
      </trkpt>
      <trkpt lat="43.43971" lon="-0.36778">
        <ele>243.2</ele>
        <time>2026-08-31T11:43:22Z</time>
      </trkpt>
      <trkpt lat="43.4397" lon="-0.36778">
        <ele>243.2</ele>
        <time>2026-08-31T11:43:23Z</time>
      </trkpt>
      <trkpt lat="43.4397" lon="-0.36778">
        <ele>243.2</ele>
        <time>2026-08-31T11:43:23Z</time>
      </trkpt>
      <trkpt lat="43.43969" lon="-0.36779">
        <ele>243.2</ele>
        <time>2026-08-31T11:43:24Z</time>
      </trkpt>
      <trkpt lat="43.43969" lon="-0.3678">
        <ele>243.2</ele>
        <time>2026-08-31T11:43:25Z</time>
      </trkpt>
      <trkpt lat="43.43968" lon="-0.36781">
        <ele>243.2</ele>
        <time>2026-08-31T11:43:25Z</time>
      </trkpt>
      <trkpt lat="43.43967" lon="-0.3678">
        <ele>243.2</ele>
        <time>2026-08-31T11:43:26Z</time>
      </trkpt>
      <trkpt lat="43.43966" lon="-0.36781">
        <ele>243.2</ele>
        <time>2026-08-31T11:43:27Z</time>
      </trkpt>
      <trkpt lat="43.43965" lon="-0.36781">
        <ele>243.2</ele>
        <time>2026-08-31T11:43:27Z</time>
      </trkpt>
      <trkpt lat="43.43964" lon="-0.36781">
        <ele>243.2</ele>
        <time>2026-08-31T11:43:28Z</time>
      </trkpt>
      <trkpt lat="43.43964" lon="-0.36781">
        <ele>243.2</ele>
        <time>2026-08-31T11:43:28Z</time>
      </trkpt>
      <trkpt lat="43.43963" lon="-0.36781">
        <ele>243.2</ele>
        <time>2026-08-31T11:43:29Z</time>
      </trkpt>
      <trkpt lat="43.43963" lon="-0.36781">
        <ele>243.2</ele>
        <time>2026-08-31T11:43:30Z</time>
      </trkpt>
      <trkpt lat="43.43962" lon="-0.36782">
        <ele>243.2</ele>
        <time>2026-08-31T11:43:31Z</time>
      </trkpt>
      <trkpt lat="43.43962" lon="-0.36782">
        <ele>243.2</ele>
        <time>2026-08-31T11:43:32Z</time>
      </trkpt>
      <trkpt lat="43.43962" lon="-0.36782">
        <ele>243.2</ele>
        <time>2026-08-31T11:43:33Z</time>
      </trkpt>
      <trkpt lat="43.43962" lon="-0.36782">
        <ele>243.2</ele>
        <time>2026-08-31T11:43:34Z</time>
      </trkpt>
      <trkpt lat="43.43962" lon="-0.36782">
        <ele>243.2</ele>
        <time>2026-08-31T11:43:35Z</time>
      </trkpt>
      <trkpt lat="43.43962" lon="-0.36782">
        <ele>243.2</ele>
        <time>2026-08-31T11:43:36Z</time>
      </trkpt>
      <trkpt lat="43.43961" lon="-0.36782">
        <ele>244.2</ele>
        <time>2026-08-31T11:43:37Z</time>
      </trkpt>
      <trkpt lat="43.43961" lon="-0.36782">
        <ele>244.2</ele>
        <time>2026-08-31T11:43:37Z</time>
      </trkpt>
      <trkpt lat="43.4396" lon="-0.36782">
        <ele>243.2</ele>
        <time>2026-08-31T11:43:38Z</time>
      </trkpt>
      <trkpt lat="43.43959" lon="-0.36782">
        <ele>243.2</ele>
        <time>2026-08-31T11:43:39Z</time>
      </trkpt>
      <trkpt lat="43.43959" lon="-0.36782">
        <ele>243.2</ele>
        <time>2026-08-31T11:43:39Z</time>
      </trkpt>
      <trkpt lat="43.43958" lon="-0.36782">
        <ele>243.2</ele>
        <time>2026-08-31T11:43:40Z</time>
      </trkpt>
      <trkpt lat="43.43957" lon="-0.36782">
        <ele>243.2</ele>
        <time>2026-08-31T11:43:40Z</time>
      </trkpt>
      <trkpt lat="43.43957" lon="-0.36782">
        <ele>243.2</ele>
        <time>2026-08-31T11:43:41Z</time>
      </trkpt>
      <trkpt lat="43.43956" lon="-0.36782">
        <ele>243.2</ele>
        <time>2026-08-31T11:43:41Z</time>
      </trkpt>
      <trkpt lat="43.43955" lon="-0.36782">
        <ele>243.2</ele>
        <time>2026-08-31T11:43:42Z</time>
      </trkpt>
      <trkpt lat="43.43954" lon="-0.36782">
        <ele>243.2</ele>
        <time>2026-08-31T11:43:43Z</time>
      </trkpt>
      <trkpt lat="43.43953" lon="-0.36782">
        <ele>243.2</ele>
        <time>2026-08-31T11:43:43Z</time>
      </trkpt>
      <trkpt lat="43.43952" lon="-0.36783">
        <ele>244.2</ele>
        <time>2026-08-31T11:43:44Z</time>
      </trkpt>
      <trkpt lat="43.43951" lon="-0.36783">
        <ele>243.2</ele>
        <time>2026-08-31T11:43:45Z</time>
      </trkpt>
      <trkpt lat="43.4395" lon="-0.36784">
        <ele>243.2</ele>
        <time>2026-08-31T11:43:45Z</time>
      </trkpt>
      <trkpt lat="43.4395" lon="-0.36784">
        <ele>244.2</ele>
        <time>2026-08-31T11:43:46Z</time>
      </trkpt>
      <trkpt lat="43.43949" lon="-0.36784">
        <ele>243.2</ele>
        <time>2026-08-31T11:43:47Z</time>
      </trkpt>
      <trkpt lat="43.43949" lon="-0.36785">
        <ele>243.2</ele>
        <time>2026-08-31T11:43:47Z</time>
      </trkpt>
      <trkpt lat="43.43948" lon="-0.36785">
        <ele>243.2</ele>
        <time>2026-08-31T11:43:48Z</time>
      </trkpt>
      <trkpt lat="43.43947" lon="-0.36785">
        <ele>243.2</ele>
        <time>2026-08-31T11:43:48Z</time>
      </trkpt>
      <trkpt lat="43.43947" lon="-0.36785">
        <ele>244.2</ele>
        <time>2026-08-31T11:43:49Z</time>
      </trkpt>
      <trkpt lat="43.43946" lon="-0.36786">
        <ele>244.2</ele>
        <time>2026-08-31T11:43:50Z</time>
      </trkpt>
      <trkpt lat="43.43946" lon="-0.36786">
        <ele>244.2</ele>
        <time>2026-08-31T11:43:50Z</time>
      </trkpt>
      <trkpt lat="43.43945" lon="-0.36786">
        <ele>245.2</ele>
        <time>2026-08-31T11:43:51Z</time>
      </trkpt>
      <trkpt lat="43.43944" lon="-0.36786">
        <ele>245.2</ele>
        <time>2026-08-31T11:43:51Z</time>
      </trkpt>
      <trkpt lat="43.43944" lon="-0.36786">
        <ele>245.2</ele>
        <time>2026-08-31T11:43:52Z</time>
      </trkpt>
      <trkpt lat="43.43943" lon="-0.36786">
        <ele>245.2</ele>
        <time>2026-08-31T11:43:52Z</time>
      </trkpt>
      <trkpt lat="43.43943" lon="-0.36787">
        <ele>245.2</ele>
        <time>2026-08-31T11:43:53Z</time>
      </trkpt>
      <trkpt lat="43.43942" lon="-0.36787">
        <ele>245.2</ele>
        <time>2026-08-31T11:43:54Z</time>
      </trkpt>
      <trkpt lat="43.43941" lon="-0.36787">
        <ele>245.2</ele>
        <time>2026-08-31T11:43:54Z</time>
      </trkpt>
      <trkpt lat="43.43941" lon="-0.36787">
        <ele>245.2</ele>
        <time>2026-08-31T11:43:55Z</time>
      </trkpt>
      <trkpt lat="43.4394" lon="-0.36788">
        <ele>245.2</ele>
        <time>2026-08-31T11:43:56Z</time>
      </trkpt>
      <trkpt lat="43.43939" lon="-0.36789">
        <ele>245.2</ele>
        <time>2026-08-31T11:43:56Z</time>
      </trkpt>
      <trkpt lat="43.43939" lon="-0.3679">
        <ele>245.2</ele>
        <time>2026-08-31T11:43:57Z</time>
      </trkpt>
      <trkpt lat="43.43939" lon="-0.36791">
        <ele>246.2</ele>
        <time>2026-08-31T11:43:58Z</time>
      </trkpt>
      <trkpt lat="43.43939" lon="-0.36791">
        <ele>246.2</ele>
        <time>2026-08-31T11:43:58Z</time>
      </trkpt>
      <trkpt lat="43.43938" lon="-0.36792">
        <ele>246.2</ele>
        <time>2026-08-31T11:43:59Z</time>
      </trkpt>
      <trkpt lat="43.43938" lon="-0.36792">
        <ele>246.2</ele>
        <time>2026-08-31T11:43:59Z</time>
      </trkpt>
      <trkpt lat="43.43937" lon="-0.36793">
        <ele>245.2</ele>
        <time>2026-08-31T11:44:00Z</time>
      </trkpt>
      <trkpt lat="43.43937" lon="-0.36793">
        <ele>245.2</ele>
        <time>2026-08-31T11:44:00Z</time>
      </trkpt>
      <trkpt lat="43.43936" lon="-0.36794">
        <ele>245.2</ele>
        <time>2026-08-31T11:44:01Z</time>
      </trkpt>
      <trkpt lat="43.43936" lon="-0.36794">
        <ele>245.2</ele>
        <time>2026-08-31T11:44:02Z</time>
      </trkpt>
      <trkpt lat="43.43935" lon="-0.36795">
        <ele>246.2</ele>
        <time>2026-08-31T11:44:02Z</time>
      </trkpt>
      <trkpt lat="43.43933" lon="-0.36795">
        <ele>246.2</ele>
        <time>2026-08-31T11:44:03Z</time>
      </trkpt>
      <trkpt lat="43.43933" lon="-0.36795">
        <ele>246.2</ele>
        <time>2026-08-31T11:44:04Z</time>
      </trkpt>
      <trkpt lat="43.43932" lon="-0.36796">
        <ele>246.2</ele>
        <time>2026-08-31T11:44:04Z</time>
      </trkpt>
      <trkpt lat="43.43931" lon="-0.36796">
        <ele>246.2</ele>
        <time>2026-08-31T11:44:05Z</time>
      </trkpt>
      <trkpt lat="43.43931" lon="-0.36797">
        <ele>246.2</ele>
        <time>2026-08-31T11:44:06Z</time>
      </trkpt>
      <trkpt lat="43.4393" lon="-0.36797">
        <ele>245.2</ele>
        <time>2026-08-31T11:44:06Z</time>
      </trkpt>
      <trkpt lat="43.4393" lon="-0.36797">
        <ele>246.2</ele>
        <time>2026-08-31T11:44:07Z</time>
      </trkpt>
      <trkpt lat="43.43929" lon="-0.36798">
        <ele>246.2</ele>
        <time>2026-08-31T11:44:07Z</time>
      </trkpt>
      <trkpt lat="43.43929" lon="-0.36798">
        <ele>246.2</ele>
        <time>2026-08-31T11:44:08Z</time>
      </trkpt>
      <trkpt lat="43.43928" lon="-0.36799">
        <ele>246.2</ele>
        <time>2026-08-31T11:44:08Z</time>
      </trkpt>
      <trkpt lat="43.43928" lon="-0.36799">
        <ele>246.2</ele>
        <time>2026-08-31T11:44:09Z</time>
      </trkpt>
      <trkpt lat="43.43927" lon="-0.368">
        <ele>246.2</ele>
        <time>2026-08-31T11:44:10Z</time>
      </trkpt>
      <trkpt lat="43.43926" lon="-0.368">
        <ele>246.2</ele>
        <time>2026-08-31T11:44:10Z</time>
      </trkpt>
      <trkpt lat="43.43926" lon="-0.368">
        <ele>246.2</ele>
        <time>2026-08-31T11:44:11Z</time>
      </trkpt>
      <trkpt lat="43.43925" lon="-0.36801">
        <ele>246.2</ele>
        <time>2026-08-31T11:44:11Z</time>
      </trkpt>
      <trkpt lat="43.43925" lon="-0.36801">
        <ele>247.2</ele>
        <time>2026-08-31T11:44:12Z</time>
      </trkpt>
      <trkpt lat="43.43924" lon="-0.36801">
        <ele>247.2</ele>
        <time>2026-08-31T11:44:13Z</time>
      </trkpt>
      <trkpt lat="43.43923" lon="-0.36801">
        <ele>246.2</ele>
        <time>2026-08-31T11:44:13Z</time>
      </trkpt>
      <trkpt lat="43.43922" lon="-0.368">
        <ele>246.2</ele>
        <time>2026-08-31T11:44:14Z</time>
      </trkpt>
      <trkpt lat="43.43922" lon="-0.368">
        <ele>246.2</ele>
        <time>2026-08-31T11:44:14Z</time>
      </trkpt>
      <trkpt lat="43.43921" lon="-0.368">
        <ele>246.2</ele>
        <time>2026-08-31T11:44:15Z</time>
      </trkpt>
      <trkpt lat="43.4392" lon="-0.368">
        <ele>246.2</ele>
        <time>2026-08-31T11:44:15Z</time>
      </trkpt>
      <trkpt lat="43.4392" lon="-0.368">
        <ele>247.2</ele>
        <time>2026-08-31T11:44:16Z</time>
      </trkpt>
      <trkpt lat="43.43919" lon="-0.368">
        <ele>247.2</ele>
        <time>2026-08-31T11:44:17Z</time>
      </trkpt>
      <trkpt lat="43.43919" lon="-0.36801">
        <ele>247.2</ele>
        <time>2026-08-31T11:44:17Z</time>
      </trkpt>
      <trkpt lat="43.43918" lon="-0.36801">
        <ele>247.2</ele>
        <time>2026-08-31T11:44:18Z</time>
      </trkpt>
      <trkpt lat="43.43917" lon="-0.36802">
        <ele>247.2</ele>
        <time>2026-08-31T11:44:18Z</time>
      </trkpt>
      <trkpt lat="43.43917" lon="-0.36802">
        <ele>247.2</ele>
        <time>2026-08-31T11:44:19Z</time>
      </trkpt>
      <trkpt lat="43.43916" lon="-0.36802">
        <ele>247.2</ele>
        <time>2026-08-31T11:44:20Z</time>
      </trkpt>
      <trkpt lat="43.43915" lon="-0.36803">
        <ele>247.2</ele>
        <time>2026-08-31T11:44:20Z</time>
      </trkpt>
      <trkpt lat="43.43915" lon="-0.36803">
        <ele>247.2</ele>
        <time>2026-08-31T11:44:21Z</time>
      </trkpt>
      <trkpt lat="43.43914" lon="-0.36803">
        <ele>247.2</ele>
        <time>2026-08-31T11:44:21Z</time>
      </trkpt>
      <trkpt lat="43.43914" lon="-0.36803">
        <ele>247.2</ele>
        <time>2026-08-31T11:44:22Z</time>
      </trkpt>
      <trkpt lat="43.43913" lon="-0.36804">
        <ele>247.2</ele>
        <time>2026-08-31T11:44:22Z</time>
      </trkpt>
      <trkpt lat="43.43912" lon="-0.36804">
        <ele>248.2</ele>
        <time>2026-08-31T11:44:23Z</time>
      </trkpt>
      <trkpt lat="43.43912" lon="-0.36804">
        <ele>248.2</ele>
        <time>2026-08-31T11:44:24Z</time>
      </trkpt>
      <trkpt lat="43.43911" lon="-0.36804">
        <ele>248.2</ele>
        <time>2026-08-31T11:44:24Z</time>
      </trkpt>
      <trkpt lat="43.43911" lon="-0.36804">
        <ele>248.2</ele>
        <time>2026-08-31T11:44:25Z</time>
      </trkpt>
      <trkpt lat="43.4391" lon="-0.36804">
        <ele>248.2</ele>
        <time>2026-08-31T11:44:25Z</time>
      </trkpt>
      <trkpt lat="43.43909" lon="-0.36804">
        <ele>248.2</ele>
        <time>2026-08-31T11:44:27Z</time>
      </trkpt>
      <trkpt lat="43.43908" lon="-0.36804">
        <ele>248.2</ele>
        <time>2026-08-31T11:44:27Z</time>
      </trkpt>
      <trkpt lat="43.43908" lon="-0.36804">
        <ele>248.2</ele>
        <time>2026-08-31T11:44:28Z</time>
      </trkpt>
      <trkpt lat="43.43907" lon="-0.36805">
        <ele>248.2</ele>
        <time>2026-08-31T11:44:28Z</time>
      </trkpt>
      <trkpt lat="43.43907" lon="-0.36805">
        <ele>248.2</ele>
        <time>2026-08-31T11:44:29Z</time>
      </trkpt>
      <trkpt lat="43.43906" lon="-0.36806">
        <ele>248.2</ele>
        <time>2026-08-31T11:44:29Z</time>
      </trkpt>
      <trkpt lat="43.43905" lon="-0.36806">
        <ele>248.2</ele>
        <time>2026-08-31T11:44:30Z</time>
      </trkpt>
      <trkpt lat="43.43905" lon="-0.36806">
        <ele>248.2</ele>
        <time>2026-08-31T11:44:31Z</time>
      </trkpt>
      <trkpt lat="43.43904" lon="-0.36806">
        <ele>247.2</ele>
        <time>2026-08-31T11:44:31Z</time>
      </trkpt>
      <trkpt lat="43.43904" lon="-0.36806">
        <ele>247.2</ele>
        <time>2026-08-31T11:44:32Z</time>
      </trkpt>
      <trkpt lat="43.43903" lon="-0.36807">
        <ele>247.2</ele>
        <time>2026-08-31T11:44:32Z</time>
      </trkpt>
      <trkpt lat="43.43902" lon="-0.36807">
        <ele>247.2</ele>
        <time>2026-08-31T11:44:33Z</time>
      </trkpt>
      <trkpt lat="43.43902" lon="-0.36808">
        <ele>247.2</ele>
        <time>2026-08-31T11:44:34Z</time>
      </trkpt>
      <trkpt lat="43.43901" lon="-0.36808">
        <ele>247.2</ele>
        <time>2026-08-31T11:44:34Z</time>
      </trkpt>
      <trkpt lat="43.43901" lon="-0.36808">
        <ele>247.2</ele>
        <time>2026-08-31T11:44:35Z</time>
      </trkpt>
      <trkpt lat="43.439" lon="-0.36808">
        <ele>248.2</ele>
        <time>2026-08-31T11:44:35Z</time>
      </trkpt>
      <trkpt lat="43.439" lon="-0.36808">
        <ele>248.2</ele>
        <time>2026-08-31T11:44:36Z</time>
      </trkpt>
      <trkpt lat="43.43899" lon="-0.36809">
        <ele>248.2</ele>
        <time>2026-08-31T11:44:36Z</time>
      </trkpt>
      <trkpt lat="43.43899" lon="-0.36809">
        <ele>247.2</ele>
        <time>2026-08-31T11:44:37Z</time>
      </trkpt>
      <trkpt lat="43.43898" lon="-0.3681">
        <ele>247.2</ele>
        <time>2026-08-31T11:44:38Z</time>
      </trkpt>
      <trkpt lat="43.43898" lon="-0.3681">
        <ele>248.2</ele>
        <time>2026-08-31T11:44:38Z</time>
      </trkpt>
      <trkpt lat="43.43897" lon="-0.3681">
        <ele>248.2</ele>
        <time>2026-08-31T11:44:39Z</time>
      </trkpt>
      <trkpt lat="43.43897" lon="-0.3681">
        <ele>248.2</ele>
        <time>2026-08-31T11:44:39Z</time>
      </trkpt>
      <trkpt lat="43.43897" lon="-0.36811">
        <ele>248.2</ele>
        <time>2026-08-31T11:44:40Z</time>
      </trkpt>
      <trkpt lat="43.43896" lon="-0.36811">
        <ele>248.2</ele>
        <time>2026-08-31T11:44:41Z</time>
      </trkpt>
      <trkpt lat="43.43895" lon="-0.36812">
        <ele>248.2</ele>
        <time>2026-08-31T11:44:41Z</time>
      </trkpt>
      <trkpt lat="43.43895" lon="-0.36812">
        <ele>248.2</ele>
        <time>2026-08-31T11:44:42Z</time>
      </trkpt>
      <trkpt lat="43.43894" lon="-0.36813">
        <ele>248.2</ele>
        <time>2026-08-31T11:44:42Z</time>
      </trkpt>
      <trkpt lat="43.43894" lon="-0.36813">
        <ele>248.2</ele>
        <time>2026-08-31T11:44:43Z</time>
      </trkpt>
      <trkpt lat="43.43893" lon="-0.36814">
        <ele>248.2</ele>
        <time>2026-08-31T11:44:43Z</time>
      </trkpt>
      <trkpt lat="43.43893" lon="-0.36814">
        <ele>248.2</ele>
        <time>2026-08-31T11:44:44Z</time>
      </trkpt>
      <trkpt lat="43.43892" lon="-0.36815">
        <ele>248.2</ele>
        <time>2026-08-31T11:44:45Z</time>
      </trkpt>
      <trkpt lat="43.43892" lon="-0.36815">
        <ele>248.2</ele>
        <time>2026-08-31T11:44:45Z</time>
      </trkpt>
      <trkpt lat="43.43892" lon="-0.36816">
        <ele>248.2</ele>
        <time>2026-08-31T11:44:46Z</time>
      </trkpt>
      <trkpt lat="43.43892" lon="-0.36817">
        <ele>248.2</ele>
        <time>2026-08-31T11:44:46Z</time>
      </trkpt>
      <trkpt lat="43.43891" lon="-0.36818">
        <ele>248.2</ele>
        <time>2026-08-31T11:44:47Z</time>
      </trkpt>
      <trkpt lat="43.43891" lon="-0.36818">
        <ele>248.2</ele>
        <time>2026-08-31T11:44:48Z</time>
      </trkpt>
      <trkpt lat="43.43891" lon="-0.36819">
        <ele>249.2</ele>
        <time>2026-08-31T11:44:48Z</time>
      </trkpt>
      <trkpt lat="43.4389" lon="-0.3682">
        <ele>248.2</ele>
        <time>2026-08-31T11:44:49Z</time>
      </trkpt>
      <trkpt lat="43.4389" lon="-0.36821">
        <ele>248.2</ele>
        <time>2026-08-31T11:44:49Z</time>
      </trkpt>
      <trkpt lat="43.43889" lon="-0.36821">
        <ele>248.2</ele>
        <time>2026-08-31T11:44:50Z</time>
      </trkpt>
      <trkpt lat="43.43889" lon="-0.36822">
        <ele>248.2</ele>
        <time>2026-08-31T11:44:50Z</time>
      </trkpt>
      <trkpt lat="43.43889" lon="-0.36823">
        <ele>248.2</ele>
        <time>2026-08-31T11:44:51Z</time>
      </trkpt>
      <trkpt lat="43.43888" lon="-0.36823">
        <ele>248.2</ele>
        <time>2026-08-31T11:44:52Z</time>
      </trkpt>
      <trkpt lat="43.43888" lon="-0.36824">
        <ele>248.2</ele>
        <time>2026-08-31T11:44:52Z</time>
      </trkpt>
      <trkpt lat="43.43887" lon="-0.36825">
        <ele>247.2</ele>
        <time>2026-08-31T11:44:53Z</time>
      </trkpt>
      <trkpt lat="43.43887" lon="-0.36825">
        <ele>247.2</ele>
        <time>2026-08-31T11:44:53Z</time>
      </trkpt>
      <trkpt lat="43.43887" lon="-0.36826">
        <ele>247.2</ele>
        <time>2026-08-31T11:44:54Z</time>
      </trkpt>
      <trkpt lat="43.43886" lon="-0.36827">
        <ele>247.2</ele>
        <time>2026-08-31T11:44:55Z</time>
      </trkpt>
      <trkpt lat="43.43886" lon="-0.36827">
        <ele>247.2</ele>
        <time>2026-08-31T11:44:55Z</time>
      </trkpt>
      <trkpt lat="43.43886" lon="-0.36828">
        <ele>247.2</ele>
        <time>2026-08-31T11:44:56Z</time>
      </trkpt>
      <trkpt lat="43.43885" lon="-0.36829">
        <ele>247.2</ele>
        <time>2026-08-31T11:44:56Z</time>
      </trkpt>
      <trkpt lat="43.43885" lon="-0.36829">
        <ele>247.2</ele>
        <time>2026-08-31T11:44:57Z</time>
      </trkpt>
      <trkpt lat="43.43885" lon="-0.3683">
        <ele>247.2</ele>
        <time>2026-08-31T11:44:58Z</time>
      </trkpt>
      <trkpt lat="43.43885" lon="-0.36831">
        <ele>247.2</ele>
        <time>2026-08-31T11:44:58Z</time>
      </trkpt>
      <trkpt lat="43.43884" lon="-0.36832">
        <ele>247.2</ele>
        <time>2026-08-31T11:44:59Z</time>
      </trkpt>
      <trkpt lat="43.43884" lon="-0.36832">
        <ele>247.2</ele>
        <time>2026-08-31T11:44:59Z</time>
      </trkpt>
      <trkpt lat="43.43884" lon="-0.36833">
        <ele>247.2</ele>
        <time>2026-08-31T11:45:00Z</time>
      </trkpt>
      <trkpt lat="43.43883" lon="-0.36834">
        <ele>247.2</ele>
        <time>2026-08-31T11:45:01Z</time>
      </trkpt>
      <trkpt lat="43.43883" lon="-0.36835">
        <ele>247.2</ele>
        <time>2026-08-31T11:45:01Z</time>
      </trkpt>
      <trkpt lat="43.43883" lon="-0.36836">
        <ele>248.2</ele>
        <time>2026-08-31T11:45:02Z</time>
      </trkpt>
      <trkpt lat="43.43882" lon="-0.36836">
        <ele>248.2</ele>
        <time>2026-08-31T11:45:02Z</time>
      </trkpt>
      <trkpt lat="43.43882" lon="-0.36837">
        <ele>248.2</ele>
        <time>2026-08-31T11:45:03Z</time>
      </trkpt>
      <trkpt lat="43.43882" lon="-0.36838">
        <ele>248.2</ele>
        <time>2026-08-31T11:45:03Z</time>
      </trkpt>
      <trkpt lat="43.43881" lon="-0.36839">
        <ele>248.2</ele>
        <time>2026-08-31T11:45:04Z</time>
      </trkpt>
      <trkpt lat="43.43881" lon="-0.36839">
        <ele>248.2</ele>
        <time>2026-08-31T11:45:05Z</time>
      </trkpt>
      <trkpt lat="43.43881" lon="-0.3684">
        <ele>248.2</ele>
        <time>2026-08-31T11:45:05Z</time>
      </trkpt>
      <trkpt lat="43.4388" lon="-0.3684">
        <ele>248.2</ele>
        <time>2026-08-31T11:45:06Z</time>
      </trkpt>
      <trkpt lat="43.43879" lon="-0.36841">
        <ele>248.2</ele>
        <time>2026-08-31T11:45:06Z</time>
      </trkpt>
      <trkpt lat="43.43879" lon="-0.36841">
        <ele>248.2</ele>
        <time>2026-08-31T11:45:07Z</time>
      </trkpt>
      <trkpt lat="43.43878" lon="-0.36842">
        <ele>248.2</ele>
        <time>2026-08-31T11:45:08Z</time>
      </trkpt>
      <trkpt lat="43.43878" lon="-0.36842">
        <ele>248.2</ele>
        <time>2026-08-31T11:45:08Z</time>
      </trkpt>
      <trkpt lat="43.43878" lon="-0.36843">
        <ele>247.2</ele>
        <time>2026-08-31T11:45:09Z</time>
      </trkpt>
      <trkpt lat="43.43877" lon="-0.36843">
        <ele>247.2</ele>
        <time>2026-08-31T11:45:09Z</time>
      </trkpt>
      <trkpt lat="43.43877" lon="-0.36843">
        <ele>247.2</ele>
        <time>2026-08-31T11:45:10Z</time>
      </trkpt>
      <trkpt lat="43.43876" lon="-0.36844">
        <ele>247.2</ele>
        <time>2026-08-31T11:45:11Z</time>
      </trkpt>
      <trkpt lat="43.43876" lon="-0.36844">
        <ele>247.2</ele>
        <time>2026-08-31T11:45:11Z</time>
      </trkpt>
      <trkpt lat="43.43875" lon="-0.36844">
        <ele>247.2</ele>
        <time>2026-08-31T11:45:12Z</time>
      </trkpt>
      <trkpt lat="43.43875" lon="-0.36845">
        <ele>247.2</ele>
        <time>2026-08-31T11:45:12Z</time>
      </trkpt>
      <trkpt lat="43.43874" lon="-0.36845">
        <ele>247.2</ele>
        <time>2026-08-31T11:45:13Z</time>
      </trkpt>
      <trkpt lat="43.43874" lon="-0.36846">
        <ele>247.2</ele>
        <time>2026-08-31T11:45:13Z</time>
      </trkpt>
      <trkpt lat="43.43873" lon="-0.36846">
        <ele>247.2</ele>
        <time>2026-08-31T11:45:14Z</time>
      </trkpt>
      <trkpt lat="43.43873" lon="-0.36847">
        <ele>247.2</ele>
        <time>2026-08-31T11:45:15Z</time>
      </trkpt>
      <trkpt lat="43.43872" lon="-0.36847">
        <ele>246.2</ele>
        <time>2026-08-31T11:45:15Z</time>
      </trkpt>
      <trkpt lat="43.43872" lon="-0.36847">
        <ele>247.2</ele>
        <time>2026-08-31T11:45:16Z</time>
      </trkpt>
      <trkpt lat="43.43871" lon="-0.36848">
        <ele>247.2</ele>
        <time>2026-08-31T11:45:16Z</time>
      </trkpt>
      <trkpt lat="43.43871" lon="-0.36848">
        <ele>246.2</ele>
        <time>2026-08-31T11:45:17Z</time>
      </trkpt>
      <trkpt lat="43.4387" lon="-0.36848">
        <ele>246.2</ele>
        <time>2026-08-31T11:45:18Z</time>
      </trkpt>
      <trkpt lat="43.4387" lon="-0.36849">
        <ele>247.2</ele>
        <time>2026-08-31T11:45:18Z</time>
      </trkpt>
      <trkpt lat="43.43869" lon="-0.36849">
        <ele>247.2</ele>
        <time>2026-08-31T11:45:19Z</time>
      </trkpt>
      <trkpt lat="43.43869" lon="-0.3685">
        <ele>247.2</ele>
        <time>2026-08-31T11:45:19Z</time>
      </trkpt>
      <trkpt lat="43.43869" lon="-0.3685">
        <ele>247.2</ele>
        <time>2026-08-31T11:45:20Z</time>
      </trkpt>
      <trkpt lat="43.43868" lon="-0.36851">
        <ele>247.2</ele>
        <time>2026-08-31T11:45:21Z</time>
      </trkpt>
      <trkpt lat="43.43867" lon="-0.36851">
        <ele>247.2</ele>
        <time>2026-08-31T11:45:21Z</time>
      </trkpt>
      <trkpt lat="43.43867" lon="-0.36852">
        <ele>247.2</ele>
        <time>2026-08-31T11:45:22Z</time>
      </trkpt>
      <trkpt lat="43.43867" lon="-0.36852">
        <ele>247.2</ele>
        <time>2026-08-31T11:45:22Z</time>
      </trkpt>
      <trkpt lat="43.43866" lon="-0.36853">
        <ele>247.2</ele>
        <time>2026-08-31T11:45:23Z</time>
      </trkpt>
      <trkpt lat="43.43866" lon="-0.36853">
        <ele>247.2</ele>
        <time>2026-08-31T11:45:24Z</time>
      </trkpt>
      <trkpt lat="43.43866" lon="-0.36854">
        <ele>247.2</ele>
        <time>2026-08-31T11:45:24Z</time>
      </trkpt>
      <trkpt lat="43.43865" lon="-0.36855">
        <ele>247.2</ele>
        <time>2026-08-31T11:45:25Z</time>
      </trkpt>
      <trkpt lat="43.43865" lon="-0.36855">
        <ele>247.2</ele>
        <time>2026-08-31T11:45:25Z</time>
      </trkpt>
      <trkpt lat="43.43864" lon="-0.36856">
        <ele>247.2</ele>
        <time>2026-08-31T11:45:26Z</time>
      </trkpt>
      <trkpt lat="43.43864" lon="-0.36857">
        <ele>247.2</ele>
        <time>2026-08-31T11:45:27Z</time>
      </trkpt>
      <trkpt lat="43.43863" lon="-0.36857">
        <ele>246.2</ele>
        <time>2026-08-31T11:45:27Z</time>
      </trkpt>
      <trkpt lat="43.43863" lon="-0.36858">
        <ele>246.2</ele>
        <time>2026-08-31T11:45:28Z</time>
      </trkpt>
      <trkpt lat="43.43863" lon="-0.36858">
        <ele>246.2</ele>
        <time>2026-08-31T11:45:28Z</time>
      </trkpt>
      <trkpt lat="43.43862" lon="-0.36859">
        <ele>246.2</ele>
        <time>2026-08-31T11:45:29Z</time>
      </trkpt>
      <trkpt lat="43.43862" lon="-0.3686">
        <ele>246.2</ele>
        <time>2026-08-31T11:45:29Z</time>
      </trkpt>
      <trkpt lat="43.43862" lon="-0.36861">
        <ele>246.2</ele>
        <time>2026-08-31T11:45:30Z</time>
      </trkpt>
      <trkpt lat="43.43861" lon="-0.36861">
        <ele>246.2</ele>
        <time>2026-08-31T11:45:31Z</time>
      </trkpt>
      <trkpt lat="43.43861" lon="-0.36862">
        <ele>246.2</ele>
        <time>2026-08-31T11:45:31Z</time>
      </trkpt>
      <trkpt lat="43.4386" lon="-0.36862">
        <ele>247.2</ele>
        <time>2026-08-31T11:45:32Z</time>
      </trkpt>
      <trkpt lat="43.4386" lon="-0.36863">
        <ele>247.2</ele>
        <time>2026-08-31T11:45:33Z</time>
      </trkpt>
      <trkpt lat="43.43859" lon="-0.36863">
        <ele>247.2</ele>
        <time>2026-08-31T11:45:33Z</time>
      </trkpt>
      <trkpt lat="43.43859" lon="-0.36864">
        <ele>247.2</ele>
        <time>2026-08-31T11:45:34Z</time>
      </trkpt>
      <trkpt lat="43.43858" lon="-0.36864">
        <ele>247.2</ele>
        <time>2026-08-31T11:45:34Z</time>
      </trkpt>
      <trkpt lat="43.43858" lon="-0.36865">
        <ele>246.2</ele>
        <time>2026-08-31T11:45:35Z</time>
      </trkpt>
      <trkpt lat="43.43857" lon="-0.36866">
        <ele>246.2</ele>
        <time>2026-08-31T11:45:35Z</time>
      </trkpt>
      <trkpt lat="43.43857" lon="-0.36866">
        <ele>246.2</ele>
        <time>2026-08-31T11:45:36Z</time>
      </trkpt>
      <trkpt lat="43.43856" lon="-0.36866">
        <ele>246.2</ele>
        <time>2026-08-31T11:45:37Z</time>
      </trkpt>
      <trkpt lat="43.43856" lon="-0.36866">
        <ele>246.2</ele>
        <time>2026-08-31T11:45:37Z</time>
      </trkpt>
      <trkpt lat="43.43855" lon="-0.36866">
        <ele>246.2</ele>
        <time>2026-08-31T11:45:38Z</time>
      </trkpt>
      <trkpt lat="43.43855" lon="-0.36867">
        <ele>246.2</ele>
        <time>2026-08-31T11:45:38Z</time>
      </trkpt>
      <trkpt lat="43.43854" lon="-0.36867">
        <ele>246.2</ele>
        <time>2026-08-31T11:45:39Z</time>
      </trkpt>
      <trkpt lat="43.43854" lon="-0.36867">
        <ele>246.2</ele>
        <time>2026-08-31T11:45:40Z</time>
      </trkpt>
      <trkpt lat="43.43853" lon="-0.36868">
        <ele>246.2</ele>
        <time>2026-08-31T11:45:40Z</time>
      </trkpt>
      <trkpt lat="43.43853" lon="-0.36868">
        <ele>245.2</ele>
        <time>2026-08-31T11:45:41Z</time>
      </trkpt>
      <trkpt lat="43.43852" lon="-0.36868">
        <ele>245.2</ele>
        <time>2026-08-31T11:45:42Z</time>
      </trkpt>
      <trkpt lat="43.43851" lon="-0.36869">
        <ele>245.2</ele>
        <time>2026-08-31T11:45:42Z</time>
      </trkpt>
      <trkpt lat="43.43851" lon="-0.36869">
        <ele>245.2</ele>
        <time>2026-08-31T11:45:43Z</time>
      </trkpt>
      <trkpt lat="43.4385" lon="-0.36869">
        <ele>245.2</ele>
        <time>2026-08-31T11:45:43Z</time>
      </trkpt>
      <trkpt lat="43.4385" lon="-0.3687">
        <ele>245.2</ele>
        <time>2026-08-31T11:45:44Z</time>
      </trkpt>
      <trkpt lat="43.43849" lon="-0.3687">
        <ele>245.2</ele>
        <time>2026-08-31T11:45:44Z</time>
      </trkpt>
      <trkpt lat="43.43848" lon="-0.36871">
        <ele>245.2</ele>
        <time>2026-08-31T11:45:45Z</time>
      </trkpt>
      <trkpt lat="43.43848" lon="-0.36871">
        <ele>245.2</ele>
        <time>2026-08-31T11:45:46Z</time>
      </trkpt>
      <trkpt lat="43.43847" lon="-0.36872">
        <ele>245.2</ele>
        <time>2026-08-31T11:45:46Z</time>
      </trkpt>
      <trkpt lat="43.43847" lon="-0.36872">
        <ele>245.2</ele>
        <time>2026-08-31T11:45:47Z</time>
      </trkpt>
      <trkpt lat="43.43846" lon="-0.36872">
        <ele>245.2</ele>
        <time>2026-08-31T11:45:47Z</time>
      </trkpt>
      <trkpt lat="43.43845" lon="-0.36872">
        <ele>245.2</ele>
        <time>2026-08-31T11:45:48Z</time>
      </trkpt>
      <trkpt lat="43.43845" lon="-0.36873">
        <ele>245.2</ele>
        <time>2026-08-31T11:45:49Z</time>
      </trkpt>
      <trkpt lat="43.43844" lon="-0.36873">
        <ele>245.2</ele>
        <time>2026-08-31T11:45:49Z</time>
      </trkpt>
      <trkpt lat="43.43844" lon="-0.36873">
        <ele>245.2</ele>
        <time>2026-08-31T11:45:50Z</time>
      </trkpt>
      <trkpt lat="43.43843" lon="-0.36874">
        <ele>245.2</ele>
        <time>2026-08-31T11:45:50Z</time>
      </trkpt>
      <trkpt lat="43.43842" lon="-0.36874">
        <ele>245.2</ele>
        <time>2026-08-31T11:45:51Z</time>
      </trkpt>
      <trkpt lat="43.43842" lon="-0.36874">
        <ele>245.2</ele>
        <time>2026-08-31T11:45:52Z</time>
      </trkpt>
      <trkpt lat="43.43841" lon="-0.36875">
        <ele>245.2</ele>
        <time>2026-08-31T11:45:52Z</time>
      </trkpt>
      <trkpt lat="43.43841" lon="-0.36875">
        <ele>246.2</ele>
        <time>2026-08-31T11:45:53Z</time>
      </trkpt>
      <trkpt lat="43.43841" lon="-0.36875">
        <ele>246.2</ele>
        <time>2026-08-31T11:45:53Z</time>
      </trkpt>
      <trkpt lat="43.43841" lon="-0.36875">
        <ele>245.2</ele>
        <time>2026-08-31T11:45:54Z</time>
      </trkpt>
      <trkpt lat="43.4384" lon="-0.36875">
        <ele>245.2</ele>
        <time>2026-08-31T11:45:54Z</time>
      </trkpt>
      <trkpt lat="43.43839" lon="-0.36875">
        <ele>246.2</ele>
        <time>2026-08-31T11:45:55Z</time>
      </trkpt>
      <trkpt lat="43.43839" lon="-0.36876">
        <ele>245.2</ele>
        <time>2026-08-31T11:45:56Z</time>
      </trkpt>
      <trkpt lat="43.43839" lon="-0.36876">
        <ele>245.2</ele>
        <time>2026-08-31T11:45:56Z</time>
      </trkpt>
      <trkpt lat="43.43839" lon="-0.36877">
        <ele>245.2</ele>
        <time>2026-08-31T11:45:57Z</time>
      </trkpt>
      <trkpt lat="43.43839" lon="-0.36878">
        <ele>245.2</ele>
        <time>2026-08-31T11:45:57Z</time>
      </trkpt>
      <trkpt lat="43.43839" lon="-0.36879">
        <ele>246.2</ele>
        <time>2026-08-31T11:45:58Z</time>
      </trkpt>
      <trkpt lat="43.43839" lon="-0.3688">
        <ele>246.2</ele>
        <time>2026-08-31T11:45:59Z</time>
      </trkpt>
      <trkpt lat="43.4384" lon="-0.36881">
        <ele>246.2</ele>
        <time>2026-08-31T11:45:59Z</time>
      </trkpt>
      <trkpt lat="43.43841" lon="-0.36882">
        <ele>246.2</ele>
        <time>2026-08-31T11:46:00Z</time>
      </trkpt>
      <trkpt lat="43.43842" lon="-0.36882">
        <ele>246.2</ele>
        <time>2026-08-31T11:46:01Z</time>
      </trkpt>
      <trkpt lat="43.43843" lon="-0.36883">
        <ele>247.2</ele>
        <time>2026-08-31T11:46:01Z</time>
      </trkpt>
      <trkpt lat="43.43843" lon="-0.36883">
        <ele>247.2</ele>
        <time>2026-08-31T11:46:02Z</time>
      </trkpt>
      <trkpt lat="43.43844" lon="-0.36884">
        <ele>247.2</ele>
        <time>2026-08-31T11:46:02Z</time>
      </trkpt>
      <trkpt lat="43.43845" lon="-0.36884">
        <ele>247.2</ele>
        <time>2026-08-31T11:46:03Z</time>
      </trkpt>
      <trkpt lat="43.43845" lon="-0.36885">
        <ele>247.2</ele>
        <time>2026-08-31T11:46:04Z</time>
      </trkpt>
      <trkpt lat="43.43846" lon="-0.36885">
        <ele>247.2</ele>
        <time>2026-08-31T11:46:04Z</time>
      </trkpt>
      <trkpt lat="43.43846" lon="-0.36886">
        <ele>247.2</ele>
        <time>2026-08-31T11:46:05Z</time>
      </trkpt>
      <trkpt lat="43.43847" lon="-0.36887">
        <ele>247.2</ele>
        <time>2026-08-31T11:46:05Z</time>
      </trkpt>
      <trkpt lat="43.43847" lon="-0.36887">
        <ele>247.2</ele>
        <time>2026-08-31T11:46:06Z</time>
      </trkpt>
      <trkpt lat="43.43847" lon="-0.36888">
        <ele>247.2</ele>
        <time>2026-08-31T11:46:07Z</time>
      </trkpt>
      <trkpt lat="43.43847" lon="-0.36889">
        <ele>247.2</ele>
        <time>2026-08-31T11:46:07Z</time>
      </trkpt>
      <trkpt lat="43.43847" lon="-0.3689">
        <ele>248.2</ele>
        <time>2026-08-31T11:46:08Z</time>
      </trkpt>
      <trkpt lat="43.43847" lon="-0.3689">
        <ele>248.2</ele>
        <time>2026-08-31T11:46:09Z</time>
      </trkpt>
      <trkpt lat="43.43848" lon="-0.36891">
        <ele>248.2</ele>
        <time>2026-08-31T11:46:09Z</time>
      </trkpt>
      <trkpt lat="43.43847" lon="-0.36892">
        <ele>248.2</ele>
        <time>2026-08-31T11:46:10Z</time>
      </trkpt>
      <trkpt lat="43.43847" lon="-0.36893">
        <ele>248.2</ele>
        <time>2026-08-31T11:46:10Z</time>
      </trkpt>
      <trkpt lat="43.43847" lon="-0.36893">
        <ele>249.2</ele>
        <time>2026-08-31T11:46:11Z</time>
      </trkpt>
      <trkpt lat="43.43846" lon="-0.36894">
        <ele>249.2</ele>
        <time>2026-08-31T11:46:12Z</time>
      </trkpt>
      <trkpt lat="43.43846" lon="-0.36895">
        <ele>249.2</ele>
        <time>2026-08-31T11:46:12Z</time>
      </trkpt>
      <trkpt lat="43.43845" lon="-0.36896">
        <ele>249.2</ele>
        <time>2026-08-31T11:46:13Z</time>
      </trkpt>
      <trkpt lat="43.43845" lon="-0.36897">
        <ele>249.2</ele>
        <time>2026-08-31T11:46:14Z</time>
      </trkpt>
      <trkpt lat="43.43845" lon="-0.36898">
        <ele>249.2</ele>
        <time>2026-08-31T11:46:14Z</time>
      </trkpt>
      <trkpt lat="43.43844" lon="-0.36898">
        <ele>250.2</ele>
        <time>2026-08-31T11:46:15Z</time>
      </trkpt>
      <trkpt lat="43.43844" lon="-0.36899">
        <ele>250.2</ele>
        <time>2026-08-31T11:46:15Z</time>
      </trkpt>
      <trkpt lat="43.43843" lon="-0.36899">
        <ele>249.2</ele>
        <time>2026-08-31T11:46:16Z</time>
      </trkpt>
      <trkpt lat="43.43843" lon="-0.369">
        <ele>249.2</ele>
        <time>2026-08-31T11:46:16Z</time>
      </trkpt>
      <trkpt lat="43.43842" lon="-0.36901">
        <ele>249.2</ele>
        <time>2026-08-31T11:46:17Z</time>
      </trkpt>
      <trkpt lat="43.43842" lon="-0.36901">
        <ele>249.2</ele>
        <time>2026-08-31T11:46:18Z</time>
      </trkpt>
      <trkpt lat="43.43841" lon="-0.36902">
        <ele>249.2</ele>
        <time>2026-08-31T11:46:18Z</time>
      </trkpt>
      <trkpt lat="43.4384" lon="-0.36902">
        <ele>249.2</ele>
        <time>2026-08-31T11:46:19Z</time>
      </trkpt>
      <trkpt lat="43.4384" lon="-0.36903">
        <ele>249.2</ele>
        <time>2026-08-31T11:46:19Z</time>
      </trkpt>
      <trkpt lat="43.43839" lon="-0.36903">
        <ele>249.2</ele>
        <time>2026-08-31T11:46:20Z</time>
      </trkpt>
      <trkpt lat="43.43838" lon="-0.36903">
        <ele>249.2</ele>
        <time>2026-08-31T11:46:21Z</time>
      </trkpt>
      <trkpt lat="43.43837" lon="-0.36903">
        <ele>249.2</ele>
        <time>2026-08-31T11:46:21Z</time>
      </trkpt>
      <trkpt lat="43.43837" lon="-0.36904">
        <ele>250.2</ele>
        <time>2026-08-31T11:46:22Z</time>
      </trkpt>
      <trkpt lat="43.43836" lon="-0.36904">
        <ele>250.2</ele>
        <time>2026-08-31T11:46:22Z</time>
      </trkpt>
      <trkpt lat="43.43835" lon="-0.36904">
        <ele>250.2</ele>
        <time>2026-08-31T11:46:23Z</time>
      </trkpt>
      <trkpt lat="43.43834" lon="-0.36905">
        <ele>250.2</ele>
        <time>2026-08-31T11:46:24Z</time>
      </trkpt>
      <trkpt lat="43.43834" lon="-0.36905">
        <ele>250.2</ele>
        <time>2026-08-31T11:46:24Z</time>
      </trkpt>
      <trkpt lat="43.43833" lon="-0.36905">
        <ele>250.2</ele>
        <time>2026-08-31T11:46:25Z</time>
      </trkpt>
      <trkpt lat="43.43832" lon="-0.36905">
        <ele>250.2</ele>
        <time>2026-08-31T11:46:25Z</time>
      </trkpt>
      <trkpt lat="43.43832" lon="-0.36905">
        <ele>250.2</ele>
        <time>2026-08-31T11:46:26Z</time>
      </trkpt>
      <trkpt lat="43.43831" lon="-0.36906">
        <ele>250.2</ele>
        <time>2026-08-31T11:46:26Z</time>
      </trkpt>
      <trkpt lat="43.43831" lon="-0.36906">
        <ele>250.2</ele>
        <time>2026-08-31T11:46:27Z</time>
      </trkpt>
      <trkpt lat="43.4383" lon="-0.36906">
        <ele>250.2</ele>
        <time>2026-08-31T11:46:28Z</time>
      </trkpt>
      <trkpt lat="43.43829" lon="-0.36906">
        <ele>250.2</ele>
        <time>2026-08-31T11:46:28Z</time>
      </trkpt>
      <trkpt lat="43.43829" lon="-0.36907">
        <ele>250.2</ele>
        <time>2026-08-31T11:46:29Z</time>
      </trkpt>
      <trkpt lat="43.43828" lon="-0.36907">
        <ele>250.2</ele>
        <time>2026-08-31T11:46:29Z</time>
      </trkpt>
      <trkpt lat="43.43828" lon="-0.36908">
        <ele>250.2</ele>
        <time>2026-08-31T11:46:30Z</time>
      </trkpt>
      <trkpt lat="43.43827" lon="-0.36909">
        <ele>250.2</ele>
        <time>2026-08-31T11:46:30Z</time>
      </trkpt>
      <trkpt lat="43.43826" lon="-0.3691">
        <ele>251.2</ele>
        <time>2026-08-31T11:46:32Z</time>
      </trkpt>
      <trkpt lat="43.43826" lon="-0.36911">
        <ele>252.2</ele>
        <time>2026-08-31T11:46:32Z</time>
      </trkpt>
      <trkpt lat="43.43826" lon="-0.36911">
        <ele>252.2</ele>
        <time>2026-08-31T11:46:33Z</time>
      </trkpt>
      <trkpt lat="43.43825" lon="-0.36912">
        <ele>252.2</ele>
        <time>2026-08-31T11:46:33Z</time>
      </trkpt>
      <trkpt lat="43.43825" lon="-0.36912">
        <ele>252.2</ele>
        <time>2026-08-31T11:46:34Z</time>
      </trkpt>
      <trkpt lat="43.43825" lon="-0.36913">
        <ele>252.2</ele>
        <time>2026-08-31T11:46:34Z</time>
      </trkpt>
      <trkpt lat="43.43824" lon="-0.36914">
        <ele>252.2</ele>
        <time>2026-08-31T11:46:35Z</time>
      </trkpt>
      <trkpt lat="43.43824" lon="-0.36915">
        <ele>252.2</ele>
        <time>2026-08-31T11:46:36Z</time>
      </trkpt>
      <trkpt lat="43.43824" lon="-0.36915">
        <ele>252.2</ele>
        <time>2026-08-31T11:46:36Z</time>
      </trkpt>
      <trkpt lat="43.43823" lon="-0.36916">
        <ele>252.2</ele>
        <time>2026-08-31T11:46:37Z</time>
      </trkpt>
      <trkpt lat="43.43823" lon="-0.36917">
        <ele>252.2</ele>
        <time>2026-08-31T11:46:37Z</time>
      </trkpt>
      <trkpt lat="43.43823" lon="-0.36918">
        <ele>252.2</ele>
        <time>2026-08-31T11:46:38Z</time>
      </trkpt>
      <trkpt lat="43.43822" lon="-0.36918">
        <ele>252.2</ele>
        <time>2026-08-31T11:46:38Z</time>
      </trkpt>
      <trkpt lat="43.43822" lon="-0.3692">
        <ele>251.2</ele>
        <time>2026-08-31T11:46:40Z</time>
      </trkpt>
      <trkpt lat="43.43821" lon="-0.36921">
        <ele>251.2</ele>
        <time>2026-08-31T11:46:40Z</time>
      </trkpt>
      <trkpt lat="43.43821" lon="-0.36921">
        <ele>252.2</ele>
        <time>2026-08-31T11:46:41Z</time>
      </trkpt>
      <trkpt lat="43.43821" lon="-0.36922">
        <ele>252.2</ele>
        <time>2026-08-31T11:46:41Z</time>
      </trkpt>
      <trkpt lat="43.43821" lon="-0.36923">
        <ele>252.2</ele>
        <time>2026-08-31T11:46:42Z</time>
      </trkpt>
      <trkpt lat="43.4382" lon="-0.36924">
        <ele>252.2</ele>
        <time>2026-08-31T11:46:42Z</time>
      </trkpt>
      <trkpt lat="43.4382" lon="-0.36924">
        <ele>252.2</ele>
        <time>2026-08-31T11:46:43Z</time>
      </trkpt>
      <trkpt lat="43.43819" lon="-0.36925">
        <ele>252.2</ele>
        <time>2026-08-31T11:46:44Z</time>
      </trkpt>
      <trkpt lat="43.43819" lon="-0.36925">
        <ele>252.2</ele>
        <time>2026-08-31T11:46:44Z</time>
      </trkpt>
      <trkpt lat="43.43819" lon="-0.36926">
        <ele>252.2</ele>
        <time>2026-08-31T11:46:45Z</time>
      </trkpt>
      <trkpt lat="43.43818" lon="-0.36927">
        <ele>252.2</ele>
        <time>2026-08-31T11:46:45Z</time>
      </trkpt>
      <trkpt lat="43.43818" lon="-0.36927">
        <ele>252.2</ele>
        <time>2026-08-31T11:46:46Z</time>
      </trkpt>
      <trkpt lat="43.43818" lon="-0.36928">
        <ele>252.2</ele>
        <time>2026-08-31T11:46:46Z</time>
      </trkpt>
      <trkpt lat="43.43817" lon="-0.36929">
        <ele>251.2</ele>
        <time>2026-08-31T11:46:48Z</time>
      </trkpt>
      <trkpt lat="43.43816" lon="-0.3693">
        <ele>251.2</ele>
        <time>2026-08-31T11:46:48Z</time>
      </trkpt>
      <trkpt lat="43.43816" lon="-0.3693">
        <ele>251.2</ele>
        <time>2026-08-31T11:46:49Z</time>
      </trkpt>
      <trkpt lat="43.43816" lon="-0.36931">
        <ele>251.2</ele>
        <time>2026-08-31T11:46:49Z</time>
      </trkpt>
      <trkpt lat="43.43815" lon="-0.36932">
        <ele>251.2</ele>
        <time>2026-08-31T11:46:50Z</time>
      </trkpt>
      <trkpt lat="43.43815" lon="-0.36932">
        <ele>251.2</ele>
        <time>2026-08-31T11:46:51Z</time>
      </trkpt>
      <trkpt lat="43.43814" lon="-0.36933">
        <ele>251.2</ele>
        <time>2026-08-31T11:46:51Z</time>
      </trkpt>
      <trkpt lat="43.43814" lon="-0.36934">
        <ele>251.2</ele>
        <time>2026-08-31T11:46:52Z</time>
      </trkpt>
      <trkpt lat="43.43813" lon="-0.36934">
        <ele>251.2</ele>
        <time>2026-08-31T11:46:53Z</time>
      </trkpt>
      <trkpt lat="43.43813" lon="-0.36935">
        <ele>251.2</ele>
        <time>2026-08-31T11:46:53Z</time>
      </trkpt>
      <trkpt lat="43.43812" lon="-0.36936">
        <ele>251.2</ele>
        <time>2026-08-31T11:46:54Z</time>
      </trkpt>
      <trkpt lat="43.43812" lon="-0.36937">
        <ele>251.2</ele>
        <time>2026-08-31T11:46:54Z</time>
      </trkpt>
      <trkpt lat="43.43812" lon="-0.36937">
        <ele>251.2</ele>
        <time>2026-08-31T11:46:55Z</time>
      </trkpt>
      <trkpt lat="43.43811" lon="-0.36938">
        <ele>251.2</ele>
        <time>2026-08-31T11:46:55Z</time>
      </trkpt>
      <trkpt lat="43.43811" lon="-0.36939">
        <ele>251.2</ele>
        <time>2026-08-31T11:46:56Z</time>
      </trkpt>
      <trkpt lat="43.4381" lon="-0.3694">
        <ele>251.2</ele>
        <time>2026-08-31T11:46:57Z</time>
      </trkpt>
      <trkpt lat="43.4381" lon="-0.3694">
        <ele>251.2</ele>
        <time>2026-08-31T11:46:57Z</time>
      </trkpt>
      <trkpt lat="43.43809" lon="-0.36941">
        <ele>251.2</ele>
        <time>2026-08-31T11:46:58Z</time>
      </trkpt>
      <trkpt lat="43.43809" lon="-0.36941">
        <ele>251.2</ele>
        <time>2026-08-31T11:46:58Z</time>
      </trkpt>
      <trkpt lat="43.43808" lon="-0.36942">
        <ele>252.2</ele>
        <time>2026-08-31T11:46:59Z</time>
      </trkpt>
      <trkpt lat="43.43808" lon="-0.36942">
        <ele>252.2</ele>
        <time>2026-08-31T11:46:59Z</time>
      </trkpt>
      <trkpt lat="43.43807" lon="-0.36943">
        <ele>252.2</ele>
        <time>2026-08-31T11:47:00Z</time>
      </trkpt>
      <trkpt lat="43.43807" lon="-0.36944">
        <ele>252.2</ele>
        <time>2026-08-31T11:47:00Z</time>
      </trkpt>
      <trkpt lat="43.43806" lon="-0.36944">
        <ele>252.2</ele>
        <time>2026-08-31T11:47:01Z</time>
      </trkpt>
      <trkpt lat="43.43806" lon="-0.36945">
        <ele>252.2</ele>
        <time>2026-08-31T11:47:02Z</time>
      </trkpt>
      <trkpt lat="43.43806" lon="-0.36945">
        <ele>252.2</ele>
        <time>2026-08-31T11:47:02Z</time>
      </trkpt>
      <trkpt lat="43.43805" lon="-0.36946">
        <ele>252.2</ele>
        <time>2026-08-31T11:47:03Z</time>
      </trkpt>
      <trkpt lat="43.43805" lon="-0.36947">
        <ele>252.2</ele>
        <time>2026-08-31T11:47:03Z</time>
      </trkpt>
      <trkpt lat="43.43804" lon="-0.36947">
        <ele>252.2</ele>
        <time>2026-08-31T11:47:04Z</time>
      </trkpt>
      <trkpt lat="43.43804" lon="-0.36948">
        <ele>252.2</ele>
        <time>2026-08-31T11:47:04Z</time>
      </trkpt>
      <trkpt lat="43.43803" lon="-0.36948">
        <ele>252.2</ele>
        <time>2026-08-31T11:47:05Z</time>
      </trkpt>
      <trkpt lat="43.43803" lon="-0.36949">
        <ele>252.2</ele>
        <time>2026-08-31T11:47:05Z</time>
      </trkpt>
      <trkpt lat="43.43802" lon="-0.36949">
        <ele>252.2</ele>
        <time>2026-08-31T11:47:06Z</time>
      </trkpt>
      <trkpt lat="43.43801" lon="-0.36949">
        <ele>253.2</ele>
        <time>2026-08-31T11:47:07Z</time>
      </trkpt>
      <trkpt lat="43.43801" lon="-0.36949">
        <ele>253.2</ele>
        <time>2026-08-31T11:47:08Z</time>
      </trkpt>
      <trkpt lat="43.438" lon="-0.3695">
        <ele>253.2</ele>
        <time>2026-08-31T11:47:09Z</time>
      </trkpt>
      <trkpt lat="43.438" lon="-0.3695">
        <ele>253.2</ele>
        <time>2026-08-31T11:47:09Z</time>
      </trkpt>
      <trkpt lat="43.438" lon="-0.36951">
        <ele>253.2</ele>
        <time>2026-08-31T11:47:10Z</time>
      </trkpt>
      <trkpt lat="43.438" lon="-0.36952">
        <ele>253.2</ele>
        <time>2026-08-31T11:47:10Z</time>
      </trkpt>
      <trkpt lat="43.438" lon="-0.36953">
        <ele>253.2</ele>
        <time>2026-08-31T11:47:11Z</time>
      </trkpt>
      <trkpt lat="43.43799" lon="-0.36954">
        <ele>253.2</ele>
        <time>2026-08-31T11:47:11Z</time>
      </trkpt>
      <trkpt lat="43.43799" lon="-0.36955">
        <ele>253.2</ele>
        <time>2026-08-31T11:47:12Z</time>
      </trkpt>
      <trkpt lat="43.43799" lon="-0.36956">
        <ele>253.2</ele>
        <time>2026-08-31T11:47:12Z</time>
      </trkpt>
      <trkpt lat="43.43798" lon="-0.36957">
        <ele>253.2</ele>
        <time>2026-08-31T11:47:13Z</time>
      </trkpt>
      <trkpt lat="43.43798" lon="-0.36957">
        <ele>253.2</ele>
        <time>2026-08-31T11:47:13Z</time>
      </trkpt>
      <trkpt lat="43.43798" lon="-0.36958">
        <ele>253.2</ele>
        <time>2026-08-31T11:47:14Z</time>
      </trkpt>
      <trkpt lat="43.43797" lon="-0.36959">
        <ele>253.2</ele>
        <time>2026-08-31T11:47:15Z</time>
      </trkpt>
      <trkpt lat="43.43797" lon="-0.3696">
        <ele>253.2</ele>
        <time>2026-08-31T11:47:15Z</time>
      </trkpt>
      <trkpt lat="43.43796" lon="-0.36961">
        <ele>253.2</ele>
        <time>2026-08-31T11:47:16Z</time>
      </trkpt>
      <trkpt lat="43.43796" lon="-0.36962">
        <ele>253.2</ele>
        <time>2026-08-31T11:47:16Z</time>
      </trkpt>
      <trkpt lat="43.43796" lon="-0.36963">
        <ele>253.2</ele>
        <time>2026-08-31T11:47:17Z</time>
      </trkpt>
      <trkpt lat="43.43795" lon="-0.36964">
        <ele>253.2</ele>
        <time>2026-08-31T11:47:17Z</time>
      </trkpt>
      <trkpt lat="43.43795" lon="-0.36965">
        <ele>253.2</ele>
        <time>2026-08-31T11:47:18Z</time>
      </trkpt>
      <trkpt lat="43.43795" lon="-0.36966">
        <ele>253.2</ele>
        <time>2026-08-31T11:47:18Z</time>
      </trkpt>
      <trkpt lat="43.43794" lon="-0.36966">
        <ele>253.2</ele>
        <time>2026-08-31T11:47:19Z</time>
      </trkpt>
      <trkpt lat="43.43794" lon="-0.36967">
        <ele>253.2</ele>
        <time>2026-08-31T11:47:20Z</time>
      </trkpt>
      <trkpt lat="43.43793" lon="-0.36968">
        <ele>253.2</ele>
        <time>2026-08-31T11:47:20Z</time>
      </trkpt>
      <trkpt lat="43.43793" lon="-0.36969">
        <ele>253.2</ele>
        <time>2026-08-31T11:47:21Z</time>
      </trkpt>
      <trkpt lat="43.43793" lon="-0.36969">
        <ele>253.2</ele>
        <time>2026-08-31T11:47:21Z</time>
      </trkpt>
      <trkpt lat="43.43792" lon="-0.3697">
        <ele>253.2</ele>
        <time>2026-08-31T11:47:22Z</time>
      </trkpt>
      <trkpt lat="43.43792" lon="-0.36971">
        <ele>253.2</ele>
        <time>2026-08-31T11:47:22Z</time>
      </trkpt>
      <trkpt lat="43.43791" lon="-0.36972">
        <ele>253.2</ele>
        <time>2026-08-31T11:47:23Z</time>
      </trkpt>
      <trkpt lat="43.4379" lon="-0.36973">
        <ele>254.2</ele>
        <time>2026-08-31T11:47:24Z</time>
      </trkpt>
      <trkpt lat="43.4379" lon="-0.36973">
        <ele>254.2</ele>
        <time>2026-08-31T11:47:25Z</time>
      </trkpt>
      <trkpt lat="43.4379" lon="-0.36974">
        <ele>254.2</ele>
        <time>2026-08-31T11:47:25Z</time>
      </trkpt>
      <trkpt lat="43.43789" lon="-0.36975">
        <ele>254.2</ele>
        <time>2026-08-31T11:47:26Z</time>
      </trkpt>
      <trkpt lat="43.43789" lon="-0.36975">
        <ele>254.2</ele>
        <time>2026-08-31T11:47:26Z</time>
      </trkpt>
      <trkpt lat="43.43788" lon="-0.36976">
        <ele>254.2</ele>
        <time>2026-08-31T11:47:27Z</time>
      </trkpt>
      <trkpt lat="43.43788" lon="-0.36976">
        <ele>254.2</ele>
        <time>2026-08-31T11:47:27Z</time>
      </trkpt>
      <trkpt lat="43.43788" lon="-0.36977">
        <ele>254.2</ele>
        <time>2026-08-31T11:47:28Z</time>
      </trkpt>
      <trkpt lat="43.43787" lon="-0.36977">
        <ele>254.2</ele>
        <time>2026-08-31T11:47:28Z</time>
      </trkpt>
      <trkpt lat="43.43787" lon="-0.36978">
        <ele>254.2</ele>
        <time>2026-08-31T11:47:29Z</time>
      </trkpt>
      <trkpt lat="43.43786" lon="-0.36979">
        <ele>254.2</ele>
        <time>2026-08-31T11:47:29Z</time>
      </trkpt>
      <trkpt lat="43.43786" lon="-0.36979">
        <ele>254.2</ele>
        <time>2026-08-31T11:47:30Z</time>
      </trkpt>
      <trkpt lat="43.43785" lon="-0.3698">
        <ele>254.2</ele>
        <time>2026-08-31T11:47:30Z</time>
      </trkpt>
      <trkpt lat="43.43785" lon="-0.36981">
        <ele>254.2</ele>
        <time>2026-08-31T11:47:31Z</time>
      </trkpt>
      <trkpt lat="43.43785" lon="-0.36982">
        <ele>254.2</ele>
        <time>2026-08-31T11:47:31Z</time>
      </trkpt>
      <trkpt lat="43.43784" lon="-0.36982">
        <ele>254.2</ele>
        <time>2026-08-31T11:47:32Z</time>
      </trkpt>
      <trkpt lat="43.43784" lon="-0.36983">
        <ele>254.2</ele>
        <time>2026-08-31T11:47:33Z</time>
      </trkpt>
      <trkpt lat="43.43783" lon="-0.36984">
        <ele>254.2</ele>
        <time>2026-08-31T11:47:33Z</time>
      </trkpt>
      <trkpt lat="43.43783" lon="-0.36984">
        <ele>254.2</ele>
        <time>2026-08-31T11:47:34Z</time>
      </trkpt>
      <trkpt lat="43.43782" lon="-0.36985">
        <ele>254.2</ele>
        <time>2026-08-31T11:47:34Z</time>
      </trkpt>
      <trkpt lat="43.43781" lon="-0.36985">
        <ele>254.2</ele>
        <time>2026-08-31T11:47:35Z</time>
      </trkpt>
      <trkpt lat="43.43781" lon="-0.36986">
        <ele>254.2</ele>
        <time>2026-08-31T11:47:35Z</time>
      </trkpt>
      <trkpt lat="43.4378" lon="-0.36986">
        <ele>253.2</ele>
        <time>2026-08-31T11:47:36Z</time>
      </trkpt>
      <trkpt lat="43.43779" lon="-0.36986">
        <ele>253.2</ele>
        <time>2026-08-31T11:47:36Z</time>
      </trkpt>
      <trkpt lat="43.43779" lon="-0.36987">
        <ele>253.2</ele>
        <time>2026-08-31T11:47:37Z</time>
      </trkpt>
      <trkpt lat="43.43778" lon="-0.36987">
        <ele>253.2</ele>
        <time>2026-08-31T11:47:37Z</time>
      </trkpt>
      <trkpt lat="43.43778" lon="-0.36988">
        <ele>253.2</ele>
        <time>2026-08-31T11:47:38Z</time>
      </trkpt>
      <trkpt lat="43.43777" lon="-0.36988">
        <ele>253.2</ele>
        <time>2026-08-31T11:47:38Z</time>
      </trkpt>
      <trkpt lat="43.43776" lon="-0.36989">
        <ele>253.2</ele>
        <time>2026-08-31T11:47:39Z</time>
      </trkpt>
      <trkpt lat="43.43776" lon="-0.36989">
        <ele>253.2</ele>
        <time>2026-08-31T11:47:40Z</time>
      </trkpt>
      <trkpt lat="43.43775" lon="-0.3699">
        <ele>253.2</ele>
        <time>2026-08-31T11:47:40Z</time>
      </trkpt>
      <trkpt lat="43.43775" lon="-0.3699">
        <ele>253.2</ele>
        <time>2026-08-31T11:47:41Z</time>
      </trkpt>
      <trkpt lat="43.43774" lon="-0.36991">
        <ele>253.2</ele>
        <time>2026-08-31T11:47:41Z</time>
      </trkpt>
      <trkpt lat="43.43774" lon="-0.36991">
        <ele>253.2</ele>
        <time>2026-08-31T11:47:42Z</time>
      </trkpt>
      <trkpt lat="43.43773" lon="-0.36992">
        <ele>253.2</ele>
        <time>2026-08-31T11:47:42Z</time>
      </trkpt>
      <trkpt lat="43.43773" lon="-0.36993">
        <ele>253.2</ele>
        <time>2026-08-31T11:47:43Z</time>
      </trkpt>
      <trkpt lat="43.43772" lon="-0.36993">
        <ele>253.2</ele>
        <time>2026-08-31T11:47:43Z</time>
      </trkpt>
      <trkpt lat="43.43772" lon="-0.36994">
        <ele>253.2</ele>
        <time>2026-08-31T11:47:44Z</time>
      </trkpt>
      <trkpt lat="43.43771" lon="-0.36995">
        <ele>253.2</ele>
        <time>2026-08-31T11:47:45Z</time>
      </trkpt>
      <trkpt lat="43.43771" lon="-0.36996">
        <ele>253.2</ele>
        <time>2026-08-31T11:47:45Z</time>
      </trkpt>
      <trkpt lat="43.43771" lon="-0.36996">
        <ele>253.2</ele>
        <time>2026-08-31T11:47:46Z</time>
      </trkpt>
      <trkpt lat="43.4377" lon="-0.36997">
        <ele>253.2</ele>
        <time>2026-08-31T11:47:46Z</time>
      </trkpt>
      <trkpt lat="43.43769" lon="-0.36998">
        <ele>253.2</ele>
        <time>2026-08-31T11:47:47Z</time>
      </trkpt>
      <trkpt lat="43.43769" lon="-0.36998">
        <ele>253.2</ele>
        <time>2026-08-31T11:47:47Z</time>
      </trkpt>
      <trkpt lat="43.43769" lon="-0.36999">
        <ele>254.2</ele>
        <time>2026-08-31T11:47:48Z</time>
      </trkpt>
      <trkpt lat="43.43768" lon="-0.36999">
        <ele>254.2</ele>
        <time>2026-08-31T11:47:48Z</time>
      </trkpt>
      <trkpt lat="43.43768" lon="-0.37">
        <ele>254.2</ele>
        <time>2026-08-31T11:47:49Z</time>
      </trkpt>
      <trkpt lat="43.43767" lon="-0.37001">
        <ele>254.2</ele>
        <time>2026-08-31T11:47:49Z</time>
      </trkpt>
      <trkpt lat="43.43767" lon="-0.37001">
        <ele>254.2</ele>
        <time>2026-08-31T11:47:50Z</time>
      </trkpt>
      <trkpt lat="43.43766" lon="-0.37002">
        <ele>254.2</ele>
        <time>2026-08-31T11:47:50Z</time>
      </trkpt>
      <trkpt lat="43.43766" lon="-0.37002">
        <ele>254.2</ele>
        <time>2026-08-31T11:47:51Z</time>
      </trkpt>
      <trkpt lat="43.43765" lon="-0.37003">
        <ele>254.2</ele>
        <time>2026-08-31T11:47:52Z</time>
      </trkpt>
      <trkpt lat="43.43765" lon="-0.37003">
        <ele>254.2</ele>
        <time>2026-08-31T11:47:52Z</time>
      </trkpt>
      <trkpt lat="43.43764" lon="-0.37004">
        <ele>254.2</ele>
        <time>2026-08-31T11:47:53Z</time>
      </trkpt>
      <trkpt lat="43.43764" lon="-0.37005">
        <ele>253.2</ele>
        <time>2026-08-31T11:47:53Z</time>
      </trkpt>
      <trkpt lat="43.43763" lon="-0.37005">
        <ele>254.2</ele>
        <time>2026-08-31T11:47:54Z</time>
      </trkpt>
      <trkpt lat="43.43763" lon="-0.37006">
        <ele>254.2</ele>
        <time>2026-08-31T11:47:54Z</time>
      </trkpt>
      <trkpt lat="43.43762" lon="-0.37007">
        <ele>254.2</ele>
        <time>2026-08-31T11:47:55Z</time>
      </trkpt>
      <trkpt lat="43.43762" lon="-0.37007">
        <ele>254.2</ele>
        <time>2026-08-31T11:47:55Z</time>
      </trkpt>
      <trkpt lat="43.43761" lon="-0.37008">
        <ele>255.2</ele>
        <time>2026-08-31T11:47:56Z</time>
      </trkpt>
      <trkpt lat="43.43761" lon="-0.37008">
        <ele>255.2</ele>
        <time>2026-08-31T11:47:56Z</time>
      </trkpt>
      <trkpt lat="43.4376" lon="-0.37009">
        <ele>255.2</ele>
        <time>2026-08-31T11:47:57Z</time>
      </trkpt>
      <trkpt lat="43.4376" lon="-0.3701">
        <ele>255.2</ele>
        <time>2026-08-31T11:47:57Z</time>
      </trkpt>
      <trkpt lat="43.43759" lon="-0.3701">
        <ele>255.2</ele>
        <time>2026-08-31T11:47:58Z</time>
      </trkpt>
      <trkpt lat="43.43759" lon="-0.37011">
        <ele>255.2</ele>
        <time>2026-08-31T11:47:58Z</time>
      </trkpt>
      <trkpt lat="43.43758" lon="-0.37011">
        <ele>255.2</ele>
        <time>2026-08-31T11:47:59Z</time>
      </trkpt>
      <trkpt lat="43.43758" lon="-0.37012">
        <ele>255.2</ele>
        <time>2026-08-31T11:48:00Z</time>
      </trkpt>
      <trkpt lat="43.43757" lon="-0.37013">
        <ele>255.2</ele>
        <time>2026-08-31T11:48:00Z</time>
      </trkpt>
      <trkpt lat="43.43757" lon="-0.37013">
        <ele>254.2</ele>
        <time>2026-08-31T11:48:01Z</time>
      </trkpt>
      <trkpt lat="43.43756" lon="-0.37014">
        <ele>254.2</ele>
        <time>2026-08-31T11:48:01Z</time>
      </trkpt>
      <trkpt lat="43.43756" lon="-0.37015">
        <ele>255.2</ele>
        <time>2026-08-31T11:48:02Z</time>
      </trkpt>
      <trkpt lat="43.43755" lon="-0.37015">
        <ele>255.2</ele>
        <time>2026-08-31T11:48:02Z</time>
      </trkpt>
      <trkpt lat="43.43755" lon="-0.37016">
        <ele>254.2</ele>
        <time>2026-08-31T11:48:03Z</time>
      </trkpt>
      <trkpt lat="43.43754" lon="-0.37017">
        <ele>254.2</ele>
        <time>2026-08-31T11:48:03Z</time>
      </trkpt>
      <trkpt lat="43.43754" lon="-0.37017">
        <ele>254.2</ele>
        <time>2026-08-31T11:48:04Z</time>
      </trkpt>
      <trkpt lat="43.43753" lon="-0.37018">
        <ele>254.2</ele>
        <time>2026-08-31T11:48:05Z</time>
      </trkpt>
      <trkpt lat="43.43753" lon="-0.37018">
        <ele>254.2</ele>
        <time>2026-08-31T11:48:05Z</time>
      </trkpt>
      <trkpt lat="43.43753" lon="-0.37019">
        <ele>254.2</ele>
        <time>2026-08-31T11:48:06Z</time>
      </trkpt>
      <trkpt lat="43.43752" lon="-0.37019">
        <ele>254.2</ele>
        <time>2026-08-31T11:48:06Z</time>
      </trkpt>
      <trkpt lat="43.43752" lon="-0.3702">
        <ele>254.2</ele>
        <time>2026-08-31T11:48:07Z</time>
      </trkpt>
      <trkpt lat="43.43751" lon="-0.37021">
        <ele>254.2</ele>
        <time>2026-08-31T11:48:07Z</time>
      </trkpt>
      <trkpt lat="43.43751" lon="-0.37021">
        <ele>254.2</ele>
        <time>2026-08-31T11:48:08Z</time>
      </trkpt>
      <trkpt lat="43.4375" lon="-0.37022">
        <ele>254.2</ele>
        <time>2026-08-31T11:48:09Z</time>
      </trkpt>
      <trkpt lat="43.4375" lon="-0.37022">
        <ele>254.2</ele>
        <time>2026-08-31T11:48:09Z</time>
      </trkpt>
      <trkpt lat="43.43749" lon="-0.37023">
        <ele>254.2</ele>
        <time>2026-08-31T11:48:10Z</time>
      </trkpt>
      <trkpt lat="43.43749" lon="-0.37024">
        <ele>254.2</ele>
        <time>2026-08-31T11:48:10Z</time>
      </trkpt>
      <trkpt lat="43.43748" lon="-0.37024">
        <ele>254.2</ele>
        <time>2026-08-31T11:48:11Z</time>
      </trkpt>
      <trkpt lat="43.43748" lon="-0.37025">
        <ele>254.2</ele>
        <time>2026-08-31T11:48:11Z</time>
      </trkpt>
      <trkpt lat="43.43748" lon="-0.37025">
        <ele>253.2</ele>
        <time>2026-08-31T11:48:12Z</time>
      </trkpt>
      <trkpt lat="43.43747" lon="-0.37026">
        <ele>253.2</ele>
        <time>2026-08-31T11:48:12Z</time>
      </trkpt>
      <trkpt lat="43.43747" lon="-0.37027">
        <ele>253.2</ele>
        <time>2026-08-31T11:48:13Z</time>
      </trkpt>
      <trkpt lat="43.43747" lon="-0.37027">
        <ele>253.2</ele>
        <time>2026-08-31T11:48:14Z</time>
      </trkpt>
      <trkpt lat="43.43746" lon="-0.37028">
        <ele>253.2</ele>
        <time>2026-08-31T11:48:14Z</time>
      </trkpt>
      <trkpt lat="43.43746" lon="-0.37028">
        <ele>253.2</ele>
        <time>2026-08-31T11:48:15Z</time>
      </trkpt>
      <trkpt lat="43.43745" lon="-0.37029">
        <ele>253.2</ele>
        <time>2026-08-31T11:48:16Z</time>
      </trkpt>
      <trkpt lat="43.43745" lon="-0.3703">
        <ele>254.2</ele>
        <time>2026-08-31T11:48:16Z</time>
      </trkpt>
      <trkpt lat="43.43745" lon="-0.37031">
        <ele>254.2</ele>
        <time>2026-08-31T11:48:17Z</time>
      </trkpt>
      <trkpt lat="43.43744" lon="-0.37031">
        <ele>254.2</ele>
        <time>2026-08-31T11:48:17Z</time>
      </trkpt>
      <trkpt lat="43.43744" lon="-0.37032">
        <ele>254.2</ele>
        <time>2026-08-31T11:48:18Z</time>
      </trkpt>
      <trkpt lat="43.43744" lon="-0.37033">
        <ele>254.2</ele>
        <time>2026-08-31T11:48:18Z</time>
      </trkpt>
      <trkpt lat="43.43743" lon="-0.37034">
        <ele>255.2</ele>
        <time>2026-08-31T11:48:19Z</time>
      </trkpt>
      <trkpt lat="43.43743" lon="-0.37034">
        <ele>255.2</ele>
        <time>2026-08-31T11:48:20Z</time>
      </trkpt>
      <trkpt lat="43.43743" lon="-0.37035">
        <ele>255.2</ele>
        <time>2026-08-31T11:48:20Z</time>
      </trkpt>
      <trkpt lat="43.43742" lon="-0.37035">
        <ele>255.2</ele>
        <time>2026-08-31T11:48:21Z</time>
      </trkpt>
      <trkpt lat="43.43742" lon="-0.37036">
        <ele>255.2</ele>
        <time>2026-08-31T11:48:21Z</time>
      </trkpt>
      <trkpt lat="43.43741" lon="-0.37036">
        <ele>255.2</ele>
        <time>2026-08-31T11:48:22Z</time>
      </trkpt>
      <trkpt lat="43.43741" lon="-0.37036">
        <ele>255.2</ele>
        <time>2026-08-31T11:48:22Z</time>
      </trkpt>
      <trkpt lat="43.4374" lon="-0.37037">
        <ele>255.2</ele>
        <time>2026-08-31T11:48:23Z</time>
      </trkpt>
      <trkpt lat="43.4374" lon="-0.37037">
        <ele>255.2</ele>
        <time>2026-08-31T11:48:23Z</time>
      </trkpt>
      <trkpt lat="43.43739" lon="-0.37038">
        <ele>255.2</ele>
        <time>2026-08-31T11:48:24Z</time>
      </trkpt>
      <trkpt lat="43.43739" lon="-0.37038">
        <ele>254.2</ele>
        <time>2026-08-31T11:48:25Z</time>
      </trkpt>
      <trkpt lat="43.43738" lon="-0.37039">
        <ele>254.2</ele>
        <time>2026-08-31T11:48:26Z</time>
      </trkpt>
      <trkpt lat="43.43737" lon="-0.37039">
        <ele>253.2</ele>
        <time>2026-08-31T11:48:26Z</time>
      </trkpt>
      <trkpt lat="43.43737" lon="-0.37039">
        <ele>253.2</ele>
        <time>2026-08-31T11:48:27Z</time>
      </trkpt>
      <trkpt lat="43.43736" lon="-0.37039">
        <ele>253.2</ele>
        <time>2026-08-31T11:48:27Z</time>
      </trkpt>
      <trkpt lat="43.43735" lon="-0.37039">
        <ele>252.2</ele>
        <time>2026-08-31T11:48:28Z</time>
      </trkpt>
      <trkpt lat="43.43735" lon="-0.3704">
        <ele>252.2</ele>
        <time>2026-08-31T11:48:28Z</time>
      </trkpt>
      <trkpt lat="43.43734" lon="-0.3704">
        <ele>252.2</ele>
        <time>2026-08-31T11:48:29Z</time>
      </trkpt>
      <trkpt lat="43.43734" lon="-0.3704">
        <ele>252.2</ele>
        <time>2026-08-31T11:48:29Z</time>
      </trkpt>
      <trkpt lat="43.43733" lon="-0.3704">
        <ele>252.2</ele>
        <time>2026-08-31T11:48:30Z</time>
      </trkpt>
      <trkpt lat="43.43733" lon="-0.3704">
        <ele>252.2</ele>
        <time>2026-08-31T11:48:30Z</time>
      </trkpt>
      <trkpt lat="43.43732" lon="-0.3704">
        <ele>251.2</ele>
        <time>2026-08-31T11:48:31Z</time>
      </trkpt>
      <trkpt lat="43.43731" lon="-0.3704">
        <ele>251.2</ele>
        <time>2026-08-31T11:48:32Z</time>
      </trkpt>
      <trkpt lat="43.43731" lon="-0.3704">
        <ele>251.2</ele>
        <time>2026-08-31T11:48:32Z</time>
      </trkpt>
      <trkpt lat="43.4373" lon="-0.3704">
        <ele>251.2</ele>
        <time>2026-08-31T11:48:33Z</time>
      </trkpt>
      <trkpt lat="43.43729" lon="-0.3704">
        <ele>250.2</ele>
        <time>2026-08-31T11:48:33Z</time>
      </trkpt>
      <trkpt lat="43.43729" lon="-0.3704">
        <ele>250.2</ele>
        <time>2026-08-31T11:48:34Z</time>
      </trkpt>
      <trkpt lat="43.43728" lon="-0.3704">
        <ele>250.2</ele>
        <time>2026-08-31T11:48:34Z</time>
      </trkpt>
      <trkpt lat="43.43728" lon="-0.3704">
        <ele>249.2</ele>
        <time>2026-08-31T11:48:35Z</time>
      </trkpt>
      <trkpt lat="43.43727" lon="-0.3704">
        <ele>249.2</ele>
        <time>2026-08-31T11:48:35Z</time>
      </trkpt>
      <trkpt lat="43.43726" lon="-0.3704">
        <ele>249.2</ele>
        <time>2026-08-31T11:48:36Z</time>
      </trkpt>
      <trkpt lat="43.43725" lon="-0.3704">
        <ele>249.2</ele>
        <time>2026-08-31T11:48:36Z</time>
      </trkpt>
      <trkpt lat="43.43724" lon="-0.37041">
        <ele>249.2</ele>
        <time>2026-08-31T11:48:38Z</time>
      </trkpt>
      <trkpt lat="43.43724" lon="-0.37041">
        <ele>249.2</ele>
        <time>2026-08-31T11:48:38Z</time>
      </trkpt>
      <trkpt lat="43.43723" lon="-0.37042">
        <ele>249.2</ele>
        <time>2026-08-31T11:48:39Z</time>
      </trkpt>
      <trkpt lat="43.43722" lon="-0.37042">
        <ele>249.2</ele>
        <time>2026-08-31T11:48:39Z</time>
      </trkpt>
      <trkpt lat="43.43722" lon="-0.37042">
        <ele>248.2</ele>
        <time>2026-08-31T11:48:40Z</time>
      </trkpt>
      <trkpt lat="43.43721" lon="-0.37043">
        <ele>248.2</ele>
        <time>2026-08-31T11:48:40Z</time>
      </trkpt>
      <trkpt lat="43.43721" lon="-0.37043">
        <ele>249.2</ele>
        <time>2026-08-31T11:48:41Z</time>
      </trkpt>
      <trkpt lat="43.4372" lon="-0.37043">
        <ele>249.2</ele>
        <time>2026-08-31T11:48:41Z</time>
      </trkpt>
      <trkpt lat="43.43719" lon="-0.37043">
        <ele>249.2</ele>
        <time>2026-08-31T11:48:42Z</time>
      </trkpt>
      <trkpt lat="43.43719" lon="-0.37043">
        <ele>249.2</ele>
        <time>2026-08-31T11:48:43Z</time>
      </trkpt>
      <trkpt lat="43.43718" lon="-0.37043">
        <ele>248.2</ele>
        <time>2026-08-31T11:48:43Z</time>
      </trkpt>
      <trkpt lat="43.43718" lon="-0.37043">
        <ele>248.2</ele>
        <time>2026-08-31T11:48:44Z</time>
      </trkpt>
      <trkpt lat="43.43717" lon="-0.37044">
        <ele>248.2</ele>
        <time>2026-08-31T11:48:44Z</time>
      </trkpt>
      <trkpt lat="43.43717" lon="-0.37044">
        <ele>248.2</ele>
        <time>2026-08-31T11:48:45Z</time>
      </trkpt>
      <trkpt lat="43.43716" lon="-0.37044">
        <ele>248.2</ele>
        <time>2026-08-31T11:48:45Z</time>
      </trkpt>
      <trkpt lat="43.43715" lon="-0.37045">
        <ele>248.2</ele>
        <time>2026-08-31T11:48:46Z</time>
      </trkpt>
      <trkpt lat="43.43715" lon="-0.37045">
        <ele>248.2</ele>
        <time>2026-08-31T11:48:46Z</time>
      </trkpt>
      <trkpt lat="43.43714" lon="-0.37045">
        <ele>247.2</ele>
        <time>2026-08-31T11:48:47Z</time>
      </trkpt>
      <trkpt lat="43.43713" lon="-0.37045">
        <ele>247.2</ele>
        <time>2026-08-31T11:48:48Z</time>
      </trkpt>
      <trkpt lat="43.43712" lon="-0.37046">
        <ele>247.2</ele>
        <time>2026-08-31T11:48:48Z</time>
      </trkpt>
      <trkpt lat="43.43712" lon="-0.37046">
        <ele>247.2</ele>
        <time>2026-08-31T11:48:49Z</time>
      </trkpt>
      <trkpt lat="43.43711" lon="-0.37046">
        <ele>247.2</ele>
        <time>2026-08-31T11:48:49Z</time>
      </trkpt>
      <trkpt lat="43.4371" lon="-0.37046">
        <ele>247.2</ele>
        <time>2026-08-31T11:48:50Z</time>
      </trkpt>
      <trkpt lat="43.4371" lon="-0.37046">
        <ele>247.2</ele>
        <time>2026-08-31T11:48:51Z</time>
      </trkpt>
      <trkpt lat="43.43709" lon="-0.37046">
        <ele>247.2</ele>
        <time>2026-08-31T11:48:51Z</time>
      </trkpt>
      <trkpt lat="43.43709" lon="-0.37047">
        <ele>247.2</ele>
        <time>2026-08-31T11:48:52Z</time>
      </trkpt>
      <trkpt lat="43.43708" lon="-0.37047">
        <ele>247.2</ele>
        <time>2026-08-31T11:48:52Z</time>
      </trkpt>
      <trkpt lat="43.43707" lon="-0.37048">
        <ele>246.2</ele>
        <time>2026-08-31T11:48:53Z</time>
      </trkpt>
      <trkpt lat="43.43707" lon="-0.37048">
        <ele>246.2</ele>
        <time>2026-08-31T11:48:54Z</time>
      </trkpt>
      <trkpt lat="43.43706" lon="-0.37049">
        <ele>246.2</ele>
        <time>2026-08-31T11:48:55Z</time>
      </trkpt>
      <trkpt lat="43.43705" lon="-0.37049">
        <ele>245.2</ele>
        <time>2026-08-31T11:48:55Z</time>
      </trkpt>
      <trkpt lat="43.43704" lon="-0.37049">
        <ele>245.2</ele>
        <time>2026-08-31T11:48:56Z</time>
      </trkpt>
      <trkpt lat="43.43704" lon="-0.37049">
        <ele>245.2</ele>
        <time>2026-08-31T11:48:56Z</time>
      </trkpt>
      <trkpt lat="43.43703" lon="-0.37049">
        <ele>245.2</ele>
        <time>2026-08-31T11:48:57Z</time>
      </trkpt>
      <trkpt lat="43.43702" lon="-0.3705">
        <ele>245.2</ele>
        <time>2026-08-31T11:48:57Z</time>
      </trkpt>
      <trkpt lat="43.43701" lon="-0.3705">
        <ele>244.2</ele>
        <time>2026-08-31T11:48:58Z</time>
      </trkpt>
      <trkpt lat="43.43701" lon="-0.3705">
        <ele>244.2</ele>
        <time>2026-08-31T11:48:58Z</time>
      </trkpt>
      <trkpt lat="43.437" lon="-0.3705">
        <ele>244.2</ele>
        <time>2026-08-31T11:48:59Z</time>
      </trkpt>
      <trkpt lat="43.43699" lon="-0.3705">
        <ele>244.2</ele>
        <time>2026-08-31T11:48:59Z</time>
      </trkpt>
      <trkpt lat="43.43699" lon="-0.3705">
        <ele>243.2</ele>
        <time>2026-08-31T11:49:00Z</time>
      </trkpt>
      <trkpt lat="43.43698" lon="-0.37051">
        <ele>243.2</ele>
        <time>2026-08-31T11:49:01Z</time>
      </trkpt>
      <trkpt lat="43.43697" lon="-0.37051">
        <ele>243.2</ele>
        <time>2026-08-31T11:49:01Z</time>
      </trkpt>
      <trkpt lat="43.43697" lon="-0.37051">
        <ele>243.2</ele>
        <time>2026-08-31T11:49:02Z</time>
      </trkpt>
      <trkpt lat="43.43696" lon="-0.37052">
        <ele>243.2</ele>
        <time>2026-08-31T11:49:02Z</time>
      </trkpt>
      <trkpt lat="43.43696" lon="-0.37052">
        <ele>244.2</ele>
        <time>2026-08-31T11:49:03Z</time>
      </trkpt>
      <trkpt lat="43.43695" lon="-0.37053">
        <ele>244.2</ele>
        <time>2026-08-31T11:49:03Z</time>
      </trkpt>
      <trkpt lat="43.43694" lon="-0.37053">
        <ele>244.2</ele>
        <time>2026-08-31T11:49:04Z</time>
      </trkpt>
      <trkpt lat="43.43694" lon="-0.37053">
        <ele>244.2</ele>
        <time>2026-08-31T11:49:04Z</time>
      </trkpt>
      <trkpt lat="43.43693" lon="-0.37054">
        <ele>243.2</ele>
        <time>2026-08-31T11:49:05Z</time>
      </trkpt>
      <trkpt lat="43.43693" lon="-0.37054">
        <ele>243.2</ele>
        <time>2026-08-31T11:49:05Z</time>
      </trkpt>
      <trkpt lat="43.43692" lon="-0.37054">
        <ele>243.2</ele>
        <time>2026-08-31T11:49:06Z</time>
      </trkpt>
      <trkpt lat="43.43691" lon="-0.37055">
        <ele>243.2</ele>
        <time>2026-08-31T11:49:06Z</time>
      </trkpt>
      <trkpt lat="43.43691" lon="-0.37055">
        <ele>243.2</ele>
        <time>2026-08-31T11:49:07Z</time>
      </trkpt>
      <trkpt lat="43.4369" lon="-0.37056">
        <ele>243.2</ele>
        <time>2026-08-31T11:49:08Z</time>
      </trkpt>
      <trkpt lat="43.4369" lon="-0.37056">
        <ele>242.2</ele>
        <time>2026-08-31T11:49:08Z</time>
      </trkpt>
      <trkpt lat="43.43689" lon="-0.37056">
        <ele>242.2</ele>
        <time>2026-08-31T11:49:09Z</time>
      </trkpt>
      <trkpt lat="43.43688" lon="-0.37057">
        <ele>242.2</ele>
        <time>2026-08-31T11:49:09Z</time>
      </trkpt>
      <trkpt lat="43.43688" lon="-0.37057">
        <ele>242.2</ele>
        <time>2026-08-31T11:49:10Z</time>
      </trkpt>
      <trkpt lat="43.43687" lon="-0.37057">
        <ele>242.2</ele>
        <time>2026-08-31T11:49:10Z</time>
      </trkpt>
      <trkpt lat="43.43687" lon="-0.37058">
        <ele>241.2</ele>
        <time>2026-08-31T11:49:11Z</time>
      </trkpt>
      <trkpt lat="43.43686" lon="-0.37058">
        <ele>241.2</ele>
        <time>2026-08-31T11:49:11Z</time>
      </trkpt>
      <trkpt lat="43.43685" lon="-0.37058">
        <ele>241.2</ele>
        <time>2026-08-31T11:49:12Z</time>
      </trkpt>
      <trkpt lat="43.43685" lon="-0.37059">
        <ele>241.2</ele>
        <time>2026-08-31T11:49:12Z</time>
      </trkpt>
      <trkpt lat="43.43684" lon="-0.37059">
        <ele>241.2</ele>
        <time>2026-08-31T11:49:13Z</time>
      </trkpt>
      <trkpt lat="43.43683" lon="-0.37059">
        <ele>241.2</ele>
        <time>2026-08-31T11:49:14Z</time>
      </trkpt>
      <trkpt lat="43.43683" lon="-0.3706">
        <ele>240.2</ele>
        <time>2026-08-31T11:49:14Z</time>
      </trkpt>
      <trkpt lat="43.43682" lon="-0.3706">
        <ele>240.2</ele>
        <time>2026-08-31T11:49:15Z</time>
      </trkpt>
      <trkpt lat="43.43682" lon="-0.37061">
        <ele>240.2</ele>
        <time>2026-08-31T11:49:15Z</time>
      </trkpt>
      <trkpt lat="43.43681" lon="-0.37061">
        <ele>240.2</ele>
        <time>2026-08-31T11:49:16Z</time>
      </trkpt>
      <trkpt lat="43.43681" lon="-0.37062">
        <ele>240.2</ele>
        <time>2026-08-31T11:49:16Z</time>
      </trkpt>
      <trkpt lat="43.4368" lon="-0.37062">
        <ele>240.2</ele>
        <time>2026-08-31T11:49:17Z</time>
      </trkpt>
      <trkpt lat="43.4368" lon="-0.37063">
        <ele>240.2</ele>
        <time>2026-08-31T11:49:17Z</time>
      </trkpt>
      <trkpt lat="43.43679" lon="-0.37063">
        <ele>240.2</ele>
        <time>2026-08-31T11:49:18Z</time>
      </trkpt>
      <trkpt lat="43.43678" lon="-0.37063">
        <ele>240.2</ele>
        <time>2026-08-31T11:49:18Z</time>
      </trkpt>
      <trkpt lat="43.43678" lon="-0.37064">
        <ele>240.2</ele>
        <time>2026-08-31T11:49:19Z</time>
      </trkpt>
      <trkpt lat="43.43677" lon="-0.37064">
        <ele>240.2</ele>
        <time>2026-08-31T11:49:20Z</time>
      </trkpt>
      <trkpt lat="43.43677" lon="-0.37065">
        <ele>240.2</ele>
        <time>2026-08-31T11:49:20Z</time>
      </trkpt>
      <trkpt lat="43.43676" lon="-0.37066">
        <ele>240.2</ele>
        <time>2026-08-31T11:49:21Z</time>
      </trkpt>
      <trkpt lat="43.43675" lon="-0.37066">
        <ele>239.2</ele>
        <time>2026-08-31T11:49:22Z</time>
      </trkpt>
      <trkpt lat="43.43675" lon="-0.37067">
        <ele>239.2</ele>
        <time>2026-08-31T11:49:22Z</time>
      </trkpt>
      <trkpt lat="43.43674" lon="-0.37067">
        <ele>239.2</ele>
        <time>2026-08-31T11:49:23Z</time>
      </trkpt>
      <trkpt lat="43.43674" lon="-0.37067">
        <ele>239.2</ele>
        <time>2026-08-31T11:49:23Z</time>
      </trkpt>
      <trkpt lat="43.43673" lon="-0.37068">
        <ele>239.2</ele>
        <time>2026-08-31T11:49:24Z</time>
      </trkpt>
      <trkpt lat="43.43672" lon="-0.37068">
        <ele>239.2</ele>
        <time>2026-08-31T11:49:24Z</time>
      </trkpt>
      <trkpt lat="43.43672" lon="-0.37068">
        <ele>239.2</ele>
        <time>2026-08-31T11:49:25Z</time>
      </trkpt>
      <trkpt lat="43.43671" lon="-0.37069">
        <ele>239.2</ele>
        <time>2026-08-31T11:49:25Z</time>
      </trkpt>
      <trkpt lat="43.43671" lon="-0.37069">
        <ele>238.2</ele>
        <time>2026-08-31T11:49:26Z</time>
      </trkpt>
      <trkpt lat="43.4367" lon="-0.37069">
        <ele>238.2</ele>
        <time>2026-08-31T11:49:27Z</time>
      </trkpt>
      <trkpt lat="43.4367" lon="-0.37069">
        <ele>238.2</ele>
        <time>2026-08-31T11:49:27Z</time>
      </trkpt>
      <trkpt lat="43.43669" lon="-0.37069">
        <ele>238.2</ele>
        <time>2026-08-31T11:49:28Z</time>
      </trkpt>
      <trkpt lat="43.43669" lon="-0.37069">
        <ele>238.2</ele>
        <time>2026-08-31T11:49:28Z</time>
      </trkpt>
      <trkpt lat="43.43669" lon="-0.37069">
        <ele>238.2</ele>
        <time>2026-08-31T11:49:29Z</time>
      </trkpt>
      <trkpt lat="43.43668" lon="-0.3707">
        <ele>238.2</ele>
        <time>2026-08-31T11:49:29Z</time>
      </trkpt>
      <trkpt lat="43.43668" lon="-0.3707">
        <ele>238.2</ele>
        <time>2026-08-31T11:49:30Z</time>
      </trkpt>
      <trkpt lat="43.43667" lon="-0.3707">
        <ele>238.2</ele>
        <time>2026-08-31T11:49:30Z</time>
      </trkpt>
      <trkpt lat="43.43667" lon="-0.3707">
        <ele>237.2</ele>
        <time>2026-08-31T11:49:31Z</time>
      </trkpt>
      <trkpt lat="43.43666" lon="-0.37071">
        <ele>237.2</ele>
        <time>2026-08-31T11:49:32Z</time>
      </trkpt>
      <trkpt lat="43.43666" lon="-0.37071">
        <ele>237.2</ele>
        <time>2026-08-31T11:49:32Z</time>
      </trkpt>
      <trkpt lat="43.43665" lon="-0.37072">
        <ele>237.2</ele>
        <time>2026-08-31T11:49:33Z</time>
      </trkpt>
      <trkpt lat="43.43665" lon="-0.37072">
        <ele>237.2</ele>
        <time>2026-08-31T11:49:33Z</time>
      </trkpt>
      <trkpt lat="43.43664" lon="-0.37073">
        <ele>237.2</ele>
        <time>2026-08-31T11:49:34Z</time>
      </trkpt>
      <trkpt lat="43.43664" lon="-0.37073">
        <ele>237.2</ele>
        <time>2026-08-31T11:49:34Z</time>
      </trkpt>
      <trkpt lat="43.43663" lon="-0.37074">
        <ele>237.2</ele>
        <time>2026-08-31T11:49:35Z</time>
      </trkpt>
      <trkpt lat="43.43663" lon="-0.37075">
        <ele>237.2</ele>
        <time>2026-08-31T11:49:36Z</time>
      </trkpt>
      <trkpt lat="43.43663" lon="-0.37077">
        <ele>237.2</ele>
        <time>2026-08-31T11:49:36Z</time>
      </trkpt>
      <trkpt lat="43.43663" lon="-0.37078">
        <ele>236.2</ele>
        <time>2026-08-31T11:49:37Z</time>
      </trkpt>
      <trkpt lat="43.43663" lon="-0.37079">
        <ele>236.2</ele>
        <time>2026-08-31T11:49:37Z</time>
      </trkpt>
      <trkpt lat="43.43663" lon="-0.37079">
        <ele>236.2</ele>
        <time>2026-08-31T11:49:38Z</time>
      </trkpt>
      <trkpt lat="43.43663" lon="-0.37079">
        <ele>236.2</ele>
        <time>2026-08-31T11:49:38Z</time>
      </trkpt>
      <trkpt lat="43.43664" lon="-0.3708">
        <ele>236.2</ele>
        <time>2026-08-31T11:49:39Z</time>
      </trkpt>
      <trkpt lat="43.43664" lon="-0.3708">
        <ele>236.2</ele>
        <time>2026-08-31T11:49:40Z</time>
      </trkpt>
      <trkpt lat="43.43665" lon="-0.37081">
        <ele>236.2</ele>
        <time>2026-08-31T11:49:40Z</time>
      </trkpt>
      <trkpt lat="43.43665" lon="-0.37081">
        <ele>236.2</ele>
        <time>2026-08-31T11:49:41Z</time>
      </trkpt>
      <trkpt lat="43.43666" lon="-0.37081">
        <ele>236.2</ele>
        <time>2026-08-31T11:49:41Z</time>
      </trkpt>
      <trkpt lat="43.43667" lon="-0.3708">
        <ele>235.2</ele>
        <time>2026-08-31T11:49:42Z</time>
      </trkpt>
      <trkpt lat="43.43667" lon="-0.3708">
        <ele>235.2</ele>
        <time>2026-08-31T11:49:42Z</time>
      </trkpt>
      <trkpt lat="43.43668" lon="-0.3708">
        <ele>235.2</ele>
        <time>2026-08-31T11:49:43Z</time>
      </trkpt>
      <trkpt lat="43.43669" lon="-0.37081">
        <ele>235.2</ele>
        <time>2026-08-31T11:49:44Z</time>
      </trkpt>
      <trkpt lat="43.43669" lon="-0.3708">
        <ele>235.2</ele>
        <time>2026-08-31T11:49:44Z</time>
      </trkpt>
      <trkpt lat="43.4367" lon="-0.3708">
        <ele>235.2</ele>
        <time>2026-08-31T11:49:45Z</time>
      </trkpt>
      <trkpt lat="43.43671" lon="-0.3708">
        <ele>235.2</ele>
        <time>2026-08-31T11:49:45Z</time>
      </trkpt>
      <trkpt lat="43.43671" lon="-0.37081">
        <ele>235.2</ele>
        <time>2026-08-31T11:49:46Z</time>
      </trkpt>
      <trkpt lat="43.43672" lon="-0.37081">
        <ele>235.2</ele>
        <time>2026-08-31T11:49:46Z</time>
      </trkpt>
      <trkpt lat="43.43673" lon="-0.37081">
        <ele>235.2</ele>
        <time>2026-08-31T11:49:47Z</time>
      </trkpt>
      <trkpt lat="43.43673" lon="-0.37081">
        <ele>235.2</ele>
        <time>2026-08-31T11:49:47Z</time>
      </trkpt>
      <trkpt lat="43.43674" lon="-0.37081">
        <ele>236.2</ele>
        <time>2026-08-31T11:49:48Z</time>
      </trkpt>
      <trkpt lat="43.43675" lon="-0.37081">
        <ele>236.2</ele>
        <time>2026-08-31T11:49:48Z</time>
      </trkpt>
      <trkpt lat="43.43675" lon="-0.37081">
        <ele>236.2</ele>
        <time>2026-08-31T11:49:49Z</time>
      </trkpt>
      <trkpt lat="43.43676" lon="-0.37081">
        <ele>236.2</ele>
        <time>2026-08-31T11:49:49Z</time>
      </trkpt>
      <trkpt lat="43.43676" lon="-0.3708">
        <ele>236.2</ele>
        <time>2026-08-31T11:49:50Z</time>
      </trkpt>
      <trkpt lat="43.43677" lon="-0.3708">
        <ele>236.2</ele>
        <time>2026-08-31T11:49:51Z</time>
      </trkpt>
      <trkpt lat="43.43677" lon="-0.3708">
        <ele>236.2</ele>
        <time>2026-08-31T11:49:51Z</time>
      </trkpt>
      <trkpt lat="43.43678" lon="-0.37081">
        <ele>236.2</ele>
        <time>2026-08-31T11:49:52Z</time>
      </trkpt>
      <trkpt lat="43.43679" lon="-0.37081">
        <ele>236.2</ele>
        <time>2026-08-31T11:49:52Z</time>
      </trkpt>
      <trkpt lat="43.43679" lon="-0.37081">
        <ele>235.2</ele>
        <time>2026-08-31T11:49:53Z</time>
      </trkpt>
      <trkpt lat="43.43679" lon="-0.37081">
        <ele>235.2</ele>
        <time>2026-08-31T11:49:53Z</time>
      </trkpt>
      <trkpt lat="43.43679" lon="-0.37082">
        <ele>236.2</ele>
        <time>2026-08-31T11:49:54Z</time>
      </trkpt>
      <trkpt lat="43.4368" lon="-0.37082">
        <ele>236.2</ele>
        <time>2026-08-31T11:49:54Z</time>
      </trkpt>
      <trkpt lat="43.4368" lon="-0.37083">
        <ele>236.2</ele>
        <time>2026-08-31T11:49:55Z</time>
      </trkpt>
      <trkpt lat="43.43681" lon="-0.37083">
        <ele>236.2</ele>
        <time>2026-08-31T11:49:55Z</time>
      </trkpt>
      <trkpt lat="43.43681" lon="-0.37083">
        <ele>236.2</ele>
        <time>2026-08-31T11:49:56Z</time>
      </trkpt>
      <trkpt lat="43.43682" lon="-0.37084">
        <ele>236.2</ele>
        <time>2026-08-31T11:49:56Z</time>
      </trkpt>
      <trkpt lat="43.43682" lon="-0.37084">
        <ele>235.2</ele>
        <time>2026-08-31T11:49:57Z</time>
      </trkpt>
      <trkpt lat="43.43682" lon="-0.37085">
        <ele>235.2</ele>
        <time>2026-08-31T11:49:57Z</time>
      </trkpt>
      <trkpt lat="43.43682" lon="-0.37085">
        <ele>235.2</ele>
        <time>2026-08-31T11:49:58Z</time>
      </trkpt>
      <trkpt lat="43.43683" lon="-0.37086">
        <ele>235.2</ele>
        <time>2026-08-31T11:49:59Z</time>
      </trkpt>
      <trkpt lat="43.43683" lon="-0.37087">
        <ele>235.2</ele>
        <time>2026-08-31T11:49:59Z</time>
      </trkpt>
      <trkpt lat="43.43683" lon="-0.37087">
        <ele>234.2</ele>
        <time>2026-08-31T11:50:00Z</time>
      </trkpt>
      <trkpt lat="43.43684" lon="-0.37088">
        <ele>234.2</ele>
        <time>2026-08-31T11:50:00Z</time>
      </trkpt>
      <trkpt lat="43.43684" lon="-0.37088">
        <ele>235.2</ele>
        <time>2026-08-31T11:50:01Z</time>
      </trkpt>
      <trkpt lat="43.43684" lon="-0.37089">
        <ele>235.2</ele>
        <time>2026-08-31T11:50:01Z</time>
      </trkpt>
      <trkpt lat="43.43684" lon="-0.3709">
        <ele>235.2</ele>
        <time>2026-08-31T11:50:02Z</time>
      </trkpt>
      <trkpt lat="43.43684" lon="-0.37091">
        <ele>235.2</ele>
        <time>2026-08-31T11:50:03Z</time>
      </trkpt>
      <trkpt lat="43.43685" lon="-0.37092">
        <ele>235.2</ele>
        <time>2026-08-31T11:50:03Z</time>
      </trkpt>
      <trkpt lat="43.43685" lon="-0.37092">
        <ele>236.2</ele>
        <time>2026-08-31T11:50:04Z</time>
      </trkpt>
      <trkpt lat="43.43685" lon="-0.37093">
        <ele>236.2</ele>
        <time>2026-08-31T11:50:05Z</time>
      </trkpt>
      <trkpt lat="43.43686" lon="-0.37094">
        <ele>236.2</ele>
        <time>2026-08-31T11:50:05Z</time>
      </trkpt>
      <trkpt lat="43.43686" lon="-0.37094">
        <ele>236.2</ele>
        <time>2026-08-31T11:50:06Z</time>
      </trkpt>
      <trkpt lat="43.43686" lon="-0.37095">
        <ele>236.2</ele>
        <time>2026-08-31T11:50:06Z</time>
      </trkpt>
      <trkpt lat="43.43687" lon="-0.37095">
        <ele>237.2</ele>
        <time>2026-08-31T11:50:07Z</time>
      </trkpt>
      <trkpt lat="43.43687" lon="-0.37096">
        <ele>237.2</ele>
        <time>2026-08-31T11:50:07Z</time>
      </trkpt>
      <trkpt lat="43.43687" lon="-0.37096">
        <ele>236.2</ele>
        <time>2026-08-31T11:50:08Z</time>
      </trkpt>
      <trkpt lat="43.43688" lon="-0.37097">
        <ele>236.2</ele>
        <time>2026-08-31T11:50:08Z</time>
      </trkpt>
      <trkpt lat="43.43688" lon="-0.37097">
        <ele>236.2</ele>
        <time>2026-08-31T11:50:09Z</time>
      </trkpt>
      <trkpt lat="43.43689" lon="-0.37098">
        <ele>236.2</ele>
        <time>2026-08-31T11:50:09Z</time>
      </trkpt>
      <trkpt lat="43.43689" lon="-0.37098">
        <ele>236.2</ele>
        <time>2026-08-31T11:50:10Z</time>
      </trkpt>
      <trkpt lat="43.4369" lon="-0.37099">
        <ele>236.2</ele>
        <time>2026-08-31T11:50:10Z</time>
      </trkpt>
      <trkpt lat="43.4369" lon="-0.37099">
        <ele>236.2</ele>
        <time>2026-08-31T11:50:11Z</time>
      </trkpt>
      <trkpt lat="43.43691" lon="-0.37099">
        <ele>236.2</ele>
        <time>2026-08-31T11:50:12Z</time>
      </trkpt>
      <trkpt lat="43.43692" lon="-0.37099">
        <ele>236.2</ele>
        <time>2026-08-31T11:50:12Z</time>
      </trkpt>
      <trkpt lat="43.43692" lon="-0.371">
        <ele>236.2</ele>
        <time>2026-08-31T11:50:13Z</time>
      </trkpt>
      <trkpt lat="43.43693" lon="-0.371">
        <ele>236.2</ele>
        <time>2026-08-31T11:50:13Z</time>
      </trkpt>
      <trkpt lat="43.43693" lon="-0.371">
        <ele>236.2</ele>
        <time>2026-08-31T11:50:14Z</time>
      </trkpt>
      <trkpt lat="43.43694" lon="-0.37101">
        <ele>235.2</ele>
        <time>2026-08-31T11:50:14Z</time>
      </trkpt>
      <trkpt lat="43.43694" lon="-0.37101">
        <ele>235.2</ele>
        <time>2026-08-31T11:50:15Z</time>
      </trkpt>
      <trkpt lat="43.43694" lon="-0.37101">
        <ele>235.2</ele>
        <time>2026-08-31T11:50:15Z</time>
      </trkpt>
      <trkpt lat="43.43695" lon="-0.37102">
        <ele>236.2</ele>
        <time>2026-08-31T11:50:16Z</time>
      </trkpt>
      <trkpt lat="43.43695" lon="-0.37102">
        <ele>236.2</ele>
        <time>2026-08-31T11:50:17Z</time>
      </trkpt>
      <trkpt lat="43.43695" lon="-0.37103">
        <ele>235.2</ele>
        <time>2026-08-31T11:50:17Z</time>
      </trkpt>
      <trkpt lat="43.43695" lon="-0.37103">
        <ele>235.2</ele>
        <time>2026-08-31T11:50:18Z</time>
      </trkpt>
      <trkpt lat="43.43696" lon="-0.37104">
        <ele>235.2</ele>
        <time>2026-08-31T11:50:18Z</time>
      </trkpt>
      <trkpt lat="43.43696" lon="-0.37104">
        <ele>235.2</ele>
        <time>2026-08-31T11:50:19Z</time>
      </trkpt>
      <trkpt lat="43.43696" lon="-0.37105">
        <ele>235.2</ele>
        <time>2026-08-31T11:50:19Z</time>
      </trkpt>
      <trkpt lat="43.43696" lon="-0.37105">
        <ele>235.2</ele>
        <time>2026-08-31T11:50:20Z</time>
      </trkpt>
      <trkpt lat="43.43697" lon="-0.37106">
        <ele>235.2</ele>
        <time>2026-08-31T11:50:20Z</time>
      </trkpt>
      <trkpt lat="43.43697" lon="-0.37107">
        <ele>235.2</ele>
        <time>2026-08-31T11:50:21Z</time>
      </trkpt>
      <trkpt lat="43.43697" lon="-0.37107">
        <ele>235.2</ele>
        <time>2026-08-31T11:50:21Z</time>
      </trkpt>
      <trkpt lat="43.43697" lon="-0.37108">
        <ele>233.2</ele>
        <time>2026-08-31T11:50:22Z</time>
      </trkpt>
      <trkpt lat="43.43697" lon="-0.37109">
        <ele>233.2</ele>
        <time>2026-08-31T11:50:22Z</time>
      </trkpt>
      <trkpt lat="43.43698" lon="-0.3711">
        <ele>234.2</ele>
        <time>2026-08-31T11:50:23Z</time>
      </trkpt>
      <trkpt lat="43.43698" lon="-0.37111">
        <ele>234.2</ele>
        <time>2026-08-31T11:50:24Z</time>
      </trkpt>
      <trkpt lat="43.43698" lon="-0.37112">
        <ele>233.2</ele>
        <time>2026-08-31T11:50:24Z</time>
      </trkpt>
      <trkpt lat="43.43698" lon="-0.37112">
        <ele>232.2</ele>
        <time>2026-08-31T11:50:25Z</time>
      </trkpt>
      <trkpt lat="43.43698" lon="-0.37113">
        <ele>232.2</ele>
        <time>2026-08-31T11:50:25Z</time>
      </trkpt>
      <trkpt lat="43.43698" lon="-0.37114">
        <ele>232.2</ele>
        <time>2026-08-31T11:50:26Z</time>
      </trkpt>
      <trkpt lat="43.43698" lon="-0.37115">
        <ele>232.2</ele>
        <time>2026-08-31T11:50:26Z</time>
      </trkpt>
      <trkpt lat="43.43698" lon="-0.37115">
        <ele>232.2</ele>
        <time>2026-08-31T11:50:27Z</time>
      </trkpt>
      <trkpt lat="43.43698" lon="-0.37116">
        <ele>232.2</ele>
        <time>2026-08-31T11:50:28Z</time>
      </trkpt>
      <trkpt lat="43.43699" lon="-0.37117">
        <ele>232.2</ele>
        <time>2026-08-31T11:50:28Z</time>
      </trkpt>
      <trkpt lat="43.43699" lon="-0.37117">
        <ele>232.2</ele>
        <time>2026-08-31T11:50:29Z</time>
      </trkpt>
      <trkpt lat="43.437" lon="-0.37118">
        <ele>232.2</ele>
        <time>2026-08-31T11:50:29Z</time>
      </trkpt>
      <trkpt lat="43.437" lon="-0.37118">
        <ele>232.2</ele>
        <time>2026-08-31T11:50:30Z</time>
      </trkpt>
      <trkpt lat="43.43701" lon="-0.37119">
        <ele>232.2</ele>
        <time>2026-08-31T11:50:31Z</time>
      </trkpt>
      <trkpt lat="43.43701" lon="-0.37119">
        <ele>232.2</ele>
        <time>2026-08-31T11:50:31Z</time>
      </trkpt>
      <trkpt lat="43.43701" lon="-0.37119">
        <ele>232.2</ele>
        <time>2026-08-31T11:50:32Z</time>
      </trkpt>
      <trkpt lat="43.43702" lon="-0.3712">
        <ele>232.2</ele>
        <time>2026-08-31T11:50:32Z</time>
      </trkpt>
      <trkpt lat="43.43702" lon="-0.3712">
        <ele>232.2</ele>
        <time>2026-08-31T11:50:33Z</time>
      </trkpt>
      <trkpt lat="43.43703" lon="-0.3712">
        <ele>232.2</ele>
        <time>2026-08-31T11:50:33Z</time>
      </trkpt>
      <trkpt lat="43.43703" lon="-0.37121">
        <ele>232.2</ele>
        <time>2026-08-31T11:50:34Z</time>
      </trkpt>
      <trkpt lat="43.43704" lon="-0.37122">
        <ele>232.2</ele>
        <time>2026-08-31T11:50:34Z</time>
      </trkpt>
      <trkpt lat="43.43705" lon="-0.37122">
        <ele>232.2</ele>
        <time>2026-08-31T11:50:35Z</time>
      </trkpt>
      <trkpt lat="43.43706" lon="-0.37122">
        <ele>232.2</ele>
        <time>2026-08-31T11:50:36Z</time>
      </trkpt>
      <trkpt lat="43.43706" lon="-0.37122">
        <ele>232.2</ele>
        <time>2026-08-31T11:50:36Z</time>
      </trkpt>
      <trkpt lat="43.43707" lon="-0.37123">
        <ele>231.2</ele>
        <time>2026-08-31T11:50:37Z</time>
      </trkpt>
      <trkpt lat="43.43707" lon="-0.37123">
        <ele>231.2</ele>
        <time>2026-08-31T11:50:38Z</time>
      </trkpt>
      <trkpt lat="43.43708" lon="-0.37124">
        <ele>232.2</ele>
        <time>2026-08-31T11:50:38Z</time>
      </trkpt>
      <trkpt lat="43.43708" lon="-0.37124">
        <ele>232.2</ele>
        <time>2026-08-31T11:50:39Z</time>
      </trkpt>
      <trkpt lat="43.43709" lon="-0.37125">
        <ele>231.2</ele>
        <time>2026-08-31T11:50:39Z</time>
      </trkpt>
      <trkpt lat="43.43709" lon="-0.37125">
        <ele>231.2</ele>
        <time>2026-08-31T11:50:40Z</time>
      </trkpt>
      <trkpt lat="43.4371" lon="-0.37126">
        <ele>231.2</ele>
        <time>2026-08-31T11:50:40Z</time>
      </trkpt>
      <trkpt lat="43.4371" lon="-0.37126">
        <ele>231.2</ele>
        <time>2026-08-31T11:50:41Z</time>
      </trkpt>
      <trkpt lat="43.43711" lon="-0.37126">
        <ele>231.2</ele>
        <time>2026-08-31T11:50:41Z</time>
      </trkpt>
      <trkpt lat="43.43712" lon="-0.37127">
        <ele>231.2</ele>
        <time>2026-08-31T11:50:42Z</time>
      </trkpt>
      <trkpt lat="43.43712" lon="-0.37127">
        <ele>231.2</ele>
        <time>2026-08-31T11:50:42Z</time>
      </trkpt>
      <trkpt lat="43.43713" lon="-0.37127">
        <ele>231.2</ele>
        <time>2026-08-31T11:50:43Z</time>
      </trkpt>
      <trkpt lat="43.43714" lon="-0.37128">
        <ele>231.2</ele>
        <time>2026-08-31T11:50:43Z</time>
      </trkpt>
      <trkpt lat="43.43714" lon="-0.37128">
        <ele>231.2</ele>
        <time>2026-08-31T11:50:44Z</time>
      </trkpt>
      <trkpt lat="43.43715" lon="-0.37129">
        <ele>231.2</ele>
        <time>2026-08-31T11:50:45Z</time>
      </trkpt>
      <trkpt lat="43.43715" lon="-0.37129">
        <ele>231.2</ele>
        <time>2026-08-31T11:50:45Z</time>
      </trkpt>
      <trkpt lat="43.43716" lon="-0.37129">
        <ele>231.2</ele>
        <time>2026-08-31T11:50:46Z</time>
      </trkpt>
      <trkpt lat="43.43717" lon="-0.37129">
        <ele>231.2</ele>
        <time>2026-08-31T11:50:46Z</time>
      </trkpt>
      <trkpt lat="43.43718" lon="-0.37129">
        <ele>231.2</ele>
        <time>2026-08-31T11:50:47Z</time>
      </trkpt>
      <trkpt lat="43.43718" lon="-0.37129">
        <ele>231.2</ele>
        <time>2026-08-31T11:50:47Z</time>
      </trkpt>
      <trkpt lat="43.43719" lon="-0.37129">
        <ele>231.2</ele>
        <time>2026-08-31T11:50:48Z</time>
      </trkpt>
      <trkpt lat="43.43719" lon="-0.3713">
        <ele>231.2</ele>
        <time>2026-08-31T11:50:49Z</time>
      </trkpt>
      <trkpt lat="43.43719" lon="-0.3713">
        <ele>231.2</ele>
        <time>2026-08-31T11:50:49Z</time>
      </trkpt>
      <trkpt lat="43.4372" lon="-0.3713">
        <ele>231.2</ele>
        <time>2026-08-31T11:50:50Z</time>
      </trkpt>
      <trkpt lat="43.4372" lon="-0.37131">
        <ele>231.2</ele>
        <time>2026-08-31T11:50:50Z</time>
      </trkpt>
      <trkpt lat="43.43721" lon="-0.37131">
        <ele>231.2</ele>
        <time>2026-08-31T11:50:51Z</time>
      </trkpt>
      <trkpt lat="43.43721" lon="-0.37132">
        <ele>231.2</ele>
        <time>2026-08-31T11:50:51Z</time>
      </trkpt>
      <trkpt lat="43.43721" lon="-0.37133">
        <ele>231.2</ele>
        <time>2026-08-31T11:50:52Z</time>
      </trkpt>
      <trkpt lat="43.43721" lon="-0.37135">
        <ele>230.2</ele>
        <time>2026-08-31T11:50:53Z</time>
      </trkpt>
      <trkpt lat="43.43721" lon="-0.37135">
        <ele>230.2</ele>
        <time>2026-08-31T11:50:53Z</time>
      </trkpt>
      <trkpt lat="43.43721" lon="-0.37136">
        <ele>230.2</ele>
        <time>2026-08-31T11:50:54Z</time>
      </trkpt>
      <trkpt lat="43.4372" lon="-0.37136">
        <ele>230.2</ele>
        <time>2026-08-31T11:50:54Z</time>
      </trkpt>
      <trkpt lat="43.4372" lon="-0.37136">
        <ele>230.2</ele>
        <time>2026-08-31T11:50:55Z</time>
      </trkpt>
      <trkpt lat="43.4372" lon="-0.37137">
        <ele>230.2</ele>
        <time>2026-08-31T11:50:55Z</time>
      </trkpt>
      <trkpt lat="43.43719" lon="-0.37137">
        <ele>231.2</ele>
        <time>2026-08-31T11:50:56Z</time>
      </trkpt>
      <trkpt lat="43.43719" lon="-0.37138">
        <ele>231.2</ele>
        <time>2026-08-31T11:50:57Z</time>
      </trkpt>
      <trkpt lat="43.43718" lon="-0.37138">
        <ele>230.2</ele>
        <time>2026-08-31T11:50:57Z</time>
      </trkpt>
      <trkpt lat="43.43717" lon="-0.37138">
        <ele>230.2</ele>
        <time>2026-08-31T11:50:58Z</time>
      </trkpt>
      <trkpt lat="43.43717" lon="-0.37138">
        <ele>230.2</ele>
        <time>2026-08-31T11:50:58Z</time>
      </trkpt>
      <trkpt lat="43.43716" lon="-0.37138">
        <ele>230.2</ele>
        <time>2026-08-31T11:50:59Z</time>
      </trkpt>
      <trkpt lat="43.43715" lon="-0.37139">
        <ele>230.2</ele>
        <time>2026-08-31T11:50:59Z</time>
      </trkpt>
      <trkpt lat="43.43714" lon="-0.37139">
        <ele>230.2</ele>
        <time>2026-08-31T11:51:00Z</time>
      </trkpt>
      <trkpt lat="43.43713" lon="-0.37139">
        <ele>230.2</ele>
        <time>2026-08-31T11:51:00Z</time>
      </trkpt>
      <trkpt lat="43.43712" lon="-0.37139">
        <ele>231.2</ele>
        <time>2026-08-31T11:51:01Z</time>
      </trkpt>
      <trkpt lat="43.43712" lon="-0.37139">
        <ele>231.2</ele>
        <time>2026-08-31T11:51:02Z</time>
      </trkpt>
      <trkpt lat="43.43711" lon="-0.37139">
        <ele>230.2</ele>
        <time>2026-08-31T11:51:02Z</time>
      </trkpt>
      <trkpt lat="43.4371" lon="-0.3714">
        <ele>230.2</ele>
        <time>2026-08-31T11:51:03Z</time>
      </trkpt>
      <trkpt lat="43.4371" lon="-0.3714">
        <ele>230.2</ele>
        <time>2026-08-31T11:51:03Z</time>
      </trkpt>
      <trkpt lat="43.43709" lon="-0.3714">
        <ele>230.2</ele>
        <time>2026-08-31T11:51:04Z</time>
      </trkpt>
      <trkpt lat="43.43708" lon="-0.3714">
        <ele>230.2</ele>
        <time>2026-08-31T11:51:04Z</time>
      </trkpt>
      <trkpt lat="43.43707" lon="-0.37141">
        <ele>230.2</ele>
        <time>2026-08-31T11:51:05Z</time>
      </trkpt>
      <trkpt lat="43.43707" lon="-0.37141">
        <ele>230.2</ele>
        <time>2026-08-31T11:51:05Z</time>
      </trkpt>
      <trkpt lat="43.43706" lon="-0.37141">
        <ele>230.2</ele>
        <time>2026-08-31T11:51:06Z</time>
      </trkpt>
      <trkpt lat="43.43705" lon="-0.37141">
        <ele>230.2</ele>
        <time>2026-08-31T11:51:06Z</time>
      </trkpt>
      <trkpt lat="43.43705" lon="-0.37141">
        <ele>229.2</ele>
        <time>2026-08-31T11:51:07Z</time>
      </trkpt>
      <trkpt lat="43.43704" lon="-0.37142">
        <ele>229.2</ele>
        <time>2026-08-31T11:51:08Z</time>
      </trkpt>
      <trkpt lat="43.43704" lon="-0.37142">
        <ele>229.2</ele>
        <time>2026-08-31T11:51:08Z</time>
      </trkpt>
      <trkpt lat="43.43703" lon="-0.37142">
        <ele>229.2</ele>
        <time>2026-08-31T11:51:09Z</time>
      </trkpt>
      <trkpt lat="43.43702" lon="-0.37142">
        <ele>228.2</ele>
        <time>2026-08-31T11:51:09Z</time>
      </trkpt>
      <trkpt lat="43.43702" lon="-0.37142">
        <ele>229.2</ele>
        <time>2026-08-31T11:51:10Z</time>
      </trkpt>
      <trkpt lat="43.43701" lon="-0.37143">
        <ele>229.2</ele>
        <time>2026-08-31T11:51:10Z</time>
      </trkpt>
      <trkpt lat="43.437" lon="-0.37143">
        <ele>229.2</ele>
        <time>2026-08-31T11:51:11Z</time>
      </trkpt>
      <trkpt lat="43.437" lon="-0.37143">
        <ele>229.2</ele>
        <time>2026-08-31T11:51:11Z</time>
      </trkpt>
      <trkpt lat="43.43699" lon="-0.37143">
        <ele>229.2</ele>
        <time>2026-08-31T11:51:12Z</time>
      </trkpt>
      <trkpt lat="43.43699" lon="-0.37144">
        <ele>229.2</ele>
        <time>2026-08-31T11:51:13Z</time>
      </trkpt>
      <trkpt lat="43.43698" lon="-0.37144">
        <ele>229.2</ele>
        <time>2026-08-31T11:51:13Z</time>
      </trkpt>
      <trkpt lat="43.43697" lon="-0.37144">
        <ele>229.2</ele>
        <time>2026-08-31T11:51:14Z</time>
      </trkpt>
      <trkpt lat="43.43697" lon="-0.37144">
        <ele>228.2</ele>
        <time>2026-08-31T11:51:14Z</time>
      </trkpt>
      <trkpt lat="43.43696" lon="-0.37144">
        <ele>228.2</ele>
        <time>2026-08-31T11:51:15Z</time>
      </trkpt>
      <trkpt lat="43.43696" lon="-0.37145">
        <ele>228.2</ele>
        <time>2026-08-31T11:51:15Z</time>
      </trkpt>
      <trkpt lat="43.43695" lon="-0.37145">
        <ele>228.2</ele>
        <time>2026-08-31T11:51:16Z</time>
      </trkpt>
      <trkpt lat="43.43694" lon="-0.37145">
        <ele>228.2</ele>
        <time>2026-08-31T11:51:16Z</time>
      </trkpt>
      <trkpt lat="43.43694" lon="-0.37145">
        <ele>228.2</ele>
        <time>2026-08-31T11:51:17Z</time>
      </trkpt>
      <trkpt lat="43.43693" lon="-0.37145">
        <ele>228.2</ele>
        <time>2026-08-31T11:51:17Z</time>
      </trkpt>
      <trkpt lat="43.43693" lon="-0.37146">
        <ele>227.2</ele>
        <time>2026-08-31T11:51:18Z</time>
      </trkpt>
      <trkpt lat="43.43692" lon="-0.37146">
        <ele>227.2</ele>
        <time>2026-08-31T11:51:18Z</time>
      </trkpt>
      <trkpt lat="43.43692" lon="-0.37146">
        <ele>228.2</ele>
        <time>2026-08-31T11:51:19Z</time>
      </trkpt>
      <trkpt lat="43.43691" lon="-0.37146">
        <ele>228.2</ele>
        <time>2026-08-31T11:51:19Z</time>
      </trkpt>
      <trkpt lat="43.43691" lon="-0.37147">
        <ele>227.2</ele>
        <time>2026-08-31T11:51:20Z</time>
      </trkpt>
      <trkpt lat="43.4369" lon="-0.37147">
        <ele>227.2</ele>
        <time>2026-08-31T11:51:21Z</time>
      </trkpt>
      <trkpt lat="43.4369" lon="-0.37147">
        <ele>227.2</ele>
        <time>2026-08-31T11:51:21Z</time>
      </trkpt>
      <trkpt lat="43.43689" lon="-0.37148">
        <ele>227.2</ele>
        <time>2026-08-31T11:51:22Z</time>
      </trkpt>
      <trkpt lat="43.43688" lon="-0.37148">
        <ele>227.2</ele>
        <time>2026-08-31T11:51:22Z</time>
      </trkpt>
      <trkpt lat="43.43688" lon="-0.37148">
        <ele>226.2</ele>
        <time>2026-08-31T11:51:23Z</time>
      </trkpt>
      <trkpt lat="43.43687" lon="-0.37149">
        <ele>226.2</ele>
        <time>2026-08-31T11:51:23Z</time>
      </trkpt>
      <trkpt lat="43.43687" lon="-0.37149">
        <ele>226.2</ele>
        <time>2026-08-31T11:51:24Z</time>
      </trkpt>
      <trkpt lat="43.43686" lon="-0.37149">
        <ele>226.2</ele>
        <time>2026-08-31T11:51:24Z</time>
      </trkpt>
      <trkpt lat="43.43685" lon="-0.37149">
        <ele>226.2</ele>
        <time>2026-08-31T11:51:25Z</time>
      </trkpt>
      <trkpt lat="43.43685" lon="-0.3715">
        <ele>226.2</ele>
        <time>2026-08-31T11:51:25Z</time>
      </trkpt>
      <trkpt lat="43.43684" lon="-0.3715">
        <ele>225.2</ele>
        <time>2026-08-31T11:51:26Z</time>
      </trkpt>
      <trkpt lat="43.43684" lon="-0.3715">
        <ele>225.2</ele>
        <time>2026-08-31T11:51:26Z</time>
      </trkpt>
      <trkpt lat="43.43683" lon="-0.3715">
        <ele>225.2</ele>
        <time>2026-08-31T11:51:27Z</time>
      </trkpt>
      <trkpt lat="43.43683" lon="-0.37149">
        <ele>225.2</ele>
        <time>2026-08-31T11:51:27Z</time>
      </trkpt>
      <trkpt lat="43.43682" lon="-0.37149">
        <ele>225.2</ele>
        <time>2026-08-31T11:51:28Z</time>
      </trkpt>
      <trkpt lat="43.43681" lon="-0.37149">
        <ele>225.2</ele>
        <time>2026-08-31T11:51:29Z</time>
      </trkpt>
      <trkpt lat="43.43681" lon="-0.37149">
        <ele>225.2</ele>
        <time>2026-08-31T11:51:29Z</time>
      </trkpt>
      <trkpt lat="43.4368" lon="-0.37149">
        <ele>225.2</ele>
        <time>2026-08-31T11:51:30Z</time>
      </trkpt>
      <trkpt lat="43.43679" lon="-0.37149">
        <ele>225.2</ele>
        <time>2026-08-31T11:51:30Z</time>
      </trkpt>
      <trkpt lat="43.43678" lon="-0.37149">
        <ele>225.2</ele>
        <time>2026-08-31T11:51:31Z</time>
      </trkpt>
      <trkpt lat="43.43678" lon="-0.3715">
        <ele>225.2</ele>
        <time>2026-08-31T11:51:32Z</time>
      </trkpt>
      <trkpt lat="43.43677" lon="-0.3715">
        <ele>225.2</ele>
        <time>2026-08-31T11:51:32Z</time>
      </trkpt>
      <trkpt lat="43.43677" lon="-0.3715">
        <ele>225.2</ele>
        <time>2026-08-31T11:51:33Z</time>
      </trkpt>
      <trkpt lat="43.43677" lon="-0.3715">
        <ele>225.2</ele>
        <time>2026-08-31T11:51:33Z</time>
      </trkpt>
      <trkpt lat="43.43676" lon="-0.3715">
        <ele>225.2</ele>
        <time>2026-08-31T11:51:34Z</time>
      </trkpt>
      <trkpt lat="43.43676" lon="-0.3715">
        <ele>225.2</ele>
        <time>2026-08-31T11:51:34Z</time>
      </trkpt>
      <trkpt lat="43.43675" lon="-0.3715">
        <ele>225.2</ele>
        <time>2026-08-31T11:51:35Z</time>
      </trkpt>
      <trkpt lat="43.43675" lon="-0.3715">
        <ele>225.2</ele>
        <time>2026-08-31T11:51:36Z</time>
      </trkpt>
      <trkpt lat="43.43674" lon="-0.3715">
        <ele>225.2</ele>
        <time>2026-08-31T11:51:36Z</time>
      </trkpt>
      <trkpt lat="43.43674" lon="-0.3715">
        <ele>225.2</ele>
        <time>2026-08-31T11:51:37Z</time>
      </trkpt>
      <trkpt lat="43.43674" lon="-0.3715">
        <ele>225.2</ele>
        <time>2026-08-31T11:51:37Z</time>
      </trkpt>
      <trkpt lat="43.43673" lon="-0.3715">
        <ele>225.2</ele>
        <time>2026-08-31T11:51:38Z</time>
      </trkpt>
      <trkpt lat="43.43673" lon="-0.3715">
        <ele>225.2</ele>
        <time>2026-08-31T11:51:38Z</time>
      </trkpt>
      <trkpt lat="43.43673" lon="-0.3715">
        <ele>225.2</ele>
        <time>2026-08-31T11:51:39Z</time>
      </trkpt>
      <trkpt lat="43.43672" lon="-0.3715">
        <ele>225.2</ele>
        <time>2026-08-31T11:51:39Z</time>
      </trkpt>
      <trkpt lat="43.43672" lon="-0.3715">
        <ele>224.2</ele>
        <time>2026-08-31T11:51:40Z</time>
      </trkpt>
      <trkpt lat="43.43671" lon="-0.3715">
        <ele>224.2</ele>
        <time>2026-08-31T11:51:40Z</time>
      </trkpt>
      <trkpt lat="43.4367" lon="-0.37149">
        <ele>224.2</ele>
        <time>2026-08-31T11:51:41Z</time>
      </trkpt>
      <trkpt lat="43.4367" lon="-0.37149">
        <ele>224.2</ele>
        <time>2026-08-31T11:51:41Z</time>
      </trkpt>
      <trkpt lat="43.43669" lon="-0.37148">
        <ele>223.2</ele>
        <time>2026-08-31T11:51:42Z</time>
      </trkpt>
      <trkpt lat="43.43669" lon="-0.37148">
        <ele>223.2</ele>
        <time>2026-08-31T11:51:43Z</time>
      </trkpt>
      <trkpt lat="43.43668" lon="-0.37148">
        <ele>223.2</ele>
        <time>2026-08-31T11:51:44Z</time>
      </trkpt>
      <trkpt lat="43.43667" lon="-0.37147">
        <ele>223.2</ele>
        <time>2026-08-31T11:51:44Z</time>
      </trkpt>
      <trkpt lat="43.43667" lon="-0.37147">
        <ele>223.2</ele>
        <time>2026-08-31T11:51:45Z</time>
      </trkpt>
      <trkpt lat="43.43666" lon="-0.37147">
        <ele>223.2</ele>
        <time>2026-08-31T11:51:45Z</time>
      </trkpt>
      <trkpt lat="43.43665" lon="-0.37147">
        <ele>223.2</ele>
        <time>2026-08-31T11:51:46Z</time>
      </trkpt>
      <trkpt lat="43.43665" lon="-0.37147">
        <ele>223.2</ele>
        <time>2026-08-31T11:51:46Z</time>
      </trkpt>
      <trkpt lat="43.43664" lon="-0.37147">
        <ele>223.2</ele>
        <time>2026-08-31T11:51:47Z</time>
      </trkpt>
      <trkpt lat="43.43663" lon="-0.37147">
        <ele>222.2</ele>
        <time>2026-08-31T11:51:48Z</time>
      </trkpt>
      <trkpt lat="43.43662" lon="-0.37148">
        <ele>222.2</ele>
        <time>2026-08-31T11:51:49Z</time>
      </trkpt>
      <trkpt lat="43.43662" lon="-0.37148">
        <ele>222.2</ele>
        <time>2026-08-31T11:51:49Z</time>
      </trkpt>
      <trkpt lat="43.43661" lon="-0.37148">
        <ele>222.2</ele>
        <time>2026-08-31T11:51:50Z</time>
      </trkpt>
      <trkpt lat="43.4366" lon="-0.37149">
        <ele>222.2</ele>
        <time>2026-08-31T11:51:51Z</time>
      </trkpt>
      <trkpt lat="43.4366" lon="-0.37149">
        <ele>222.2</ele>
        <time>2026-08-31T11:51:51Z</time>
      </trkpt>
      <trkpt lat="43.43659" lon="-0.37149">
        <ele>221.2</ele>
        <time>2026-08-31T11:51:52Z</time>
      </trkpt>
      <trkpt lat="43.43658" lon="-0.3715">
        <ele>221.2</ele>
        <time>2026-08-31T11:51:52Z</time>
      </trkpt>
      <trkpt lat="43.43658" lon="-0.37151">
        <ele>221.2</ele>
        <time>2026-08-31T11:51:53Z</time>
      </trkpt>
      <trkpt lat="43.43657" lon="-0.37151">
        <ele>221.2</ele>
        <time>2026-08-31T11:51:54Z</time>
      </trkpt>
      <trkpt lat="43.43657" lon="-0.37152">
        <ele>220.2</ele>
        <time>2026-08-31T11:51:54Z</time>
      </trkpt>
      <trkpt lat="43.43657" lon="-0.37152">
        <ele>220.2</ele>
        <time>2026-08-31T11:51:55Z</time>
      </trkpt>
      <trkpt lat="43.43656" lon="-0.37153">
        <ele>220.2</ele>
        <time>2026-08-31T11:51:55Z</time>
      </trkpt>
      <trkpt lat="43.43656" lon="-0.37153">
        <ele>220.2</ele>
        <time>2026-08-31T11:51:56Z</time>
      </trkpt>
      <trkpt lat="43.43655" lon="-0.37154">
        <ele>220.2</ele>
        <time>2026-08-31T11:51:56Z</time>
      </trkpt>
      <trkpt lat="43.43655" lon="-0.37154">
        <ele>220.2</ele>
        <time>2026-08-31T11:51:57Z</time>
      </trkpt>
      <trkpt lat="43.43655" lon="-0.37154">
        <ele>220.2</ele>
        <time>2026-08-31T11:51:57Z</time>
      </trkpt>
      <trkpt lat="43.43655" lon="-0.37154">
        <ele>219.2</ele>
        <time>2026-08-31T11:51:58Z</time>
      </trkpt>
      <trkpt lat="43.43654" lon="-0.37155">
        <ele>219.2</ele>
        <time>2026-08-31T11:51:58Z</time>
      </trkpt>
      <trkpt lat="43.43654" lon="-0.37155">
        <ele>219.2</ele>
        <time>2026-08-31T11:51:59Z</time>
      </trkpt>
      <trkpt lat="43.43653" lon="-0.37155">
        <ele>219.2</ele>
        <time>2026-08-31T11:52:00Z</time>
      </trkpt>
      <trkpt lat="43.43653" lon="-0.37156">
        <ele>219.2</ele>
        <time>2026-08-31T11:52:00Z</time>
      </trkpt>
      <trkpt lat="43.43652" lon="-0.37156">
        <ele>219.2</ele>
        <time>2026-08-31T11:52:01Z</time>
      </trkpt>
      <trkpt lat="43.43652" lon="-0.37156">
        <ele>219.2</ele>
        <time>2026-08-31T11:52:01Z</time>
      </trkpt>
      <trkpt lat="43.43651" lon="-0.37156">
        <ele>219.2</ele>
        <time>2026-08-31T11:52:02Z</time>
      </trkpt>
      <trkpt lat="43.43651" lon="-0.37157">
        <ele>219.2</ele>
        <time>2026-08-31T11:52:02Z</time>
      </trkpt>
      <trkpt lat="43.4365" lon="-0.37157">
        <ele>219.2</ele>
        <time>2026-08-31T11:52:03Z</time>
      </trkpt>
      <trkpt lat="43.4365" lon="-0.37157">
        <ele>219.2</ele>
        <time>2026-08-31T11:52:03Z</time>
      </trkpt>
      <trkpt lat="43.4365" lon="-0.37158">
        <ele>219.2</ele>
        <time>2026-08-31T11:52:04Z</time>
      </trkpt>
      <trkpt lat="43.43649" lon="-0.37158">
        <ele>219.2</ele>
        <time>2026-08-31T11:52:05Z</time>
      </trkpt>
      <trkpt lat="43.43649" lon="-0.37159">
        <ele>219.2</ele>
        <time>2026-08-31T11:52:05Z</time>
      </trkpt>
      <trkpt lat="43.43648" lon="-0.37159">
        <ele>218.2</ele>
        <time>2026-08-31T11:52:06Z</time>
      </trkpt>
      <trkpt lat="43.43648" lon="-0.37159">
        <ele>218.2</ele>
        <time>2026-08-31T11:52:06Z</time>
      </trkpt>
      <trkpt lat="43.43647" lon="-0.3716">
        <ele>218.2</ele>
        <time>2026-08-31T11:52:07Z</time>
      </trkpt>
      <trkpt lat="43.43647" lon="-0.3716">
        <ele>218.2</ele>
        <time>2026-08-31T11:52:07Z</time>
      </trkpt>
      <trkpt lat="43.43647" lon="-0.3716">
        <ele>218.2</ele>
        <time>2026-08-31T11:52:08Z</time>
      </trkpt>
      <trkpt lat="43.43646" lon="-0.3716">
        <ele>218.2</ele>
        <time>2026-08-31T11:52:08Z</time>
      </trkpt>
      <trkpt lat="43.43645" lon="-0.3716">
        <ele>218.2</ele>
        <time>2026-08-31T11:52:09Z</time>
      </trkpt>
      <trkpt lat="43.43645" lon="-0.3716">
        <ele>218.2</ele>
        <time>2026-08-31T11:52:10Z</time>
      </trkpt>
      <trkpt lat="43.43644" lon="-0.3716">
        <ele>218.2</ele>
        <time>2026-08-31T11:52:10Z</time>
      </trkpt>
      <trkpt lat="43.43642" lon="-0.37161">
        <ele>218.2</ele>
        <time>2026-08-31T11:52:12Z</time>
      </trkpt>
      <trkpt lat="43.43642" lon="-0.3716">
        <ele>218.2</ele>
        <time>2026-08-31T11:52:12Z</time>
      </trkpt>
      <trkpt lat="43.43641" lon="-0.37161">
        <ele>218.2</ele>
        <time>2026-08-31T11:52:13Z</time>
      </trkpt>
      <trkpt lat="43.4364" lon="-0.3716">
        <ele>218.2</ele>
        <time>2026-08-31T11:52:13Z</time>
      </trkpt>
      <trkpt lat="43.4364" lon="-0.3716">
        <ele>218.2</ele>
        <time>2026-08-31T11:52:14Z</time>
      </trkpt>
      <trkpt lat="43.43639" lon="-0.3716">
        <ele>217.2</ele>
        <time>2026-08-31T11:52:14Z</time>
      </trkpt>
      <trkpt lat="43.43639" lon="-0.3716">
        <ele>217.2</ele>
        <time>2026-08-31T11:52:15Z</time>
      </trkpt>
      <trkpt lat="43.43638" lon="-0.3716">
        <ele>217.2</ele>
        <time>2026-08-31T11:52:15Z</time>
      </trkpt>
      <trkpt lat="43.43638" lon="-0.3716">
        <ele>217.2</ele>
        <time>2026-08-31T11:52:16Z</time>
      </trkpt>
      <trkpt lat="43.43637" lon="-0.3716">
        <ele>217.2</ele>
        <time>2026-08-31T11:52:16Z</time>
      </trkpt>
      <trkpt lat="43.43637" lon="-0.3716">
        <ele>217.2</ele>
        <time>2026-08-31T11:52:17Z</time>
      </trkpt>
      <trkpt lat="43.43636" lon="-0.3716">
        <ele>217.2</ele>
        <time>2026-08-31T11:52:17Z</time>
      </trkpt>
      <trkpt lat="43.43636" lon="-0.3716">
        <ele>217.2</ele>
        <time>2026-08-31T11:52:18Z</time>
      </trkpt>
      <trkpt lat="43.43635" lon="-0.37161">
        <ele>217.2</ele>
        <time>2026-08-31T11:52:18Z</time>
      </trkpt>
      <trkpt lat="43.43635" lon="-0.37161">
        <ele>217.2</ele>
        <time>2026-08-31T11:52:19Z</time>
      </trkpt>
      <trkpt lat="43.43635" lon="-0.37161">
        <ele>217.2</ele>
        <time>2026-08-31T11:52:20Z</time>
      </trkpt>
      <trkpt lat="43.43634" lon="-0.37163">
        <ele>217.2</ele>
        <time>2026-08-31T11:52:20Z</time>
      </trkpt>
      <trkpt lat="43.43634" lon="-0.37163">
        <ele>216.2</ele>
        <time>2026-08-31T11:52:21Z</time>
      </trkpt>
      <trkpt lat="43.43634" lon="-0.37164">
        <ele>216.2</ele>
        <time>2026-08-31T11:52:22Z</time>
      </trkpt>
      <trkpt lat="43.43635" lon="-0.37166">
        <ele>216.2</ele>
        <time>2026-08-31T11:52:23Z</time>
      </trkpt>
      <trkpt lat="43.43635" lon="-0.37167">
        <ele>215.2</ele>
        <time>2026-08-31T11:52:23Z</time>
      </trkpt>
      <trkpt lat="43.43635" lon="-0.37168">
        <ele>215.2</ele>
        <time>2026-08-31T11:52:24Z</time>
      </trkpt>
      <trkpt lat="43.43635" lon="-0.37169">
        <ele>215.2</ele>
        <time>2026-08-31T11:52:24Z</time>
      </trkpt>
      <trkpt lat="43.43636" lon="-0.37169">
        <ele>215.2</ele>
        <time>2026-08-31T11:52:25Z</time>
      </trkpt>
      <trkpt lat="43.43637" lon="-0.3717">
        <ele>215.2</ele>
        <time>2026-08-31T11:52:25Z</time>
      </trkpt>
      <trkpt lat="43.43637" lon="-0.3717">
        <ele>215.2</ele>
        <time>2026-08-31T11:52:26Z</time>
      </trkpt>
      <trkpt lat="43.43638" lon="-0.37171">
        <ele>215.2</ele>
        <time>2026-08-31T11:52:26Z</time>
      </trkpt>
      <trkpt lat="43.43639" lon="-0.37171">
        <ele>216.2</ele>
        <time>2026-08-31T11:52:27Z</time>
      </trkpt>
      <trkpt lat="43.43639" lon="-0.37172">
        <ele>216.2</ele>
        <time>2026-08-31T11:52:28Z</time>
      </trkpt>
      <trkpt lat="43.4364" lon="-0.37172">
        <ele>216.2</ele>
        <time>2026-08-31T11:52:28Z</time>
      </trkpt>
      <trkpt lat="43.43641" lon="-0.37172">
        <ele>216.2</ele>
        <time>2026-08-31T11:52:29Z</time>
      </trkpt>
      <trkpt lat="43.43641" lon="-0.37173">
        <ele>216.2</ele>
        <time>2026-08-31T11:52:29Z</time>
      </trkpt>
      <trkpt lat="43.43643" lon="-0.37174">
        <ele>216.2</ele>
        <time>2026-08-31T11:52:30Z</time>
      </trkpt>
      <trkpt lat="43.43644" lon="-0.37174">
        <ele>216.2</ele>
        <time>2026-08-31T11:52:31Z</time>
      </trkpt>
      <trkpt lat="43.43644" lon="-0.37175">
        <ele>216.2</ele>
        <time>2026-08-31T11:52:31Z</time>
      </trkpt>
      <trkpt lat="43.43646" lon="-0.37175">
        <ele>216.2</ele>
        <time>2026-08-31T11:52:32Z</time>
      </trkpt>
      <trkpt lat="43.43646" lon="-0.37175">
        <ele>216.2</ele>
        <time>2026-08-31T11:52:33Z</time>
      </trkpt>
      <trkpt lat="43.43647" lon="-0.37175">
        <ele>216.2</ele>
        <time>2026-08-31T11:52:33Z</time>
      </trkpt>
      <trkpt lat="43.43648" lon="-0.37175">
        <ele>216.2</ele>
        <time>2026-08-31T11:52:34Z</time>
      </trkpt>
      <trkpt lat="43.43649" lon="-0.37175">
        <ele>216.2</ele>
        <time>2026-08-31T11:52:34Z</time>
      </trkpt>
      <trkpt lat="43.4365" lon="-0.37176">
        <ele>216.2</ele>
        <time>2026-08-31T11:52:35Z</time>
      </trkpt>
      <trkpt lat="43.43651" lon="-0.37176">
        <ele>216.2</ele>
        <time>2026-08-31T11:52:35Z</time>
      </trkpt>
      <trkpt lat="43.43652" lon="-0.37176">
        <ele>216.2</ele>
        <time>2026-08-31T11:52:36Z</time>
      </trkpt>
      <trkpt lat="43.43652" lon="-0.37176">
        <ele>216.2</ele>
        <time>2026-08-31T11:52:37Z</time>
      </trkpt>
      <trkpt lat="43.43653" lon="-0.37176">
        <ele>216.2</ele>
        <time>2026-08-31T11:52:37Z</time>
      </trkpt>
      <trkpt lat="43.43654" lon="-0.37176">
        <ele>216.2</ele>
        <time>2026-08-31T11:52:38Z</time>
      </trkpt>
      <trkpt lat="43.43654" lon="-0.37177">
        <ele>216.2</ele>
        <time>2026-08-31T11:52:38Z</time>
      </trkpt>
      <trkpt lat="43.43655" lon="-0.37177">
        <ele>215.2</ele>
        <time>2026-08-31T11:52:39Z</time>
      </trkpt>
      <trkpt lat="43.43656" lon="-0.37177">
        <ele>215.2</ele>
        <time>2026-08-31T11:52:40Z</time>
      </trkpt>
      <trkpt lat="43.43656" lon="-0.37177">
        <ele>215.2</ele>
        <time>2026-08-31T11:52:40Z</time>
      </trkpt>
      <trkpt lat="43.43656" lon="-0.37177">
        <ele>215.2</ele>
        <time>2026-08-31T11:52:41Z</time>
      </trkpt>
      <trkpt lat="43.43657" lon="-0.37178">
        <ele>214.2</ele>
        <time>2026-08-31T11:52:42Z</time>
      </trkpt>
      <trkpt lat="43.43657" lon="-0.37179">
        <ele>214.2</ele>
        <time>2026-08-31T11:52:42Z</time>
      </trkpt>
      <trkpt lat="43.43657" lon="-0.37179">
        <ele>214.2</ele>
        <time>2026-08-31T11:52:43Z</time>
      </trkpt>
      <trkpt lat="43.43657" lon="-0.3718">
        <ele>214.2</ele>
        <time>2026-08-31T11:52:43Z</time>
      </trkpt>
      <trkpt lat="43.43657" lon="-0.3718">
        <ele>214.2</ele>
        <time>2026-08-31T11:52:44Z</time>
      </trkpt>
      <trkpt lat="43.43658" lon="-0.37181">
        <ele>214.2</ele>
        <time>2026-08-31T11:52:45Z</time>
      </trkpt>
      <trkpt lat="43.43657" lon="-0.37182">
        <ele>214.2</ele>
        <time>2026-08-31T11:52:45Z</time>
      </trkpt>
      <trkpt lat="43.43657" lon="-0.37183">
        <ele>215.2</ele>
        <time>2026-08-31T11:52:46Z</time>
      </trkpt>
      <trkpt lat="43.43657" lon="-0.37184">
        <ele>215.2</ele>
        <time>2026-08-31T11:52:47Z</time>
      </trkpt>
      <trkpt lat="43.43657" lon="-0.37185">
        <ele>214.2</ele>
        <time>2026-08-31T11:52:47Z</time>
      </trkpt>
      <trkpt lat="43.43656" lon="-0.37186">
        <ele>214.2</ele>
        <time>2026-08-31T11:52:48Z</time>
      </trkpt>
      <trkpt lat="43.43656" lon="-0.37187">
        <ele>214.2</ele>
        <time>2026-08-31T11:52:49Z</time>
      </trkpt>
      <trkpt lat="43.43656" lon="-0.37188">
        <ele>214.2</ele>
        <time>2026-08-31T11:52:49Z</time>
      </trkpt>
      <trkpt lat="43.43655" lon="-0.37189">
        <ele>214.2</ele>
        <time>2026-08-31T11:52:50Z</time>
      </trkpt>
      <trkpt lat="43.43654" lon="-0.37189">
        <ele>213.2</ele>
        <time>2026-08-31T11:52:51Z</time>
      </trkpt>
      <trkpt lat="43.43654" lon="-0.3719">
        <ele>213.2</ele>
        <time>2026-08-31T11:52:51Z</time>
      </trkpt>
      <trkpt lat="43.43653" lon="-0.3719">
        <ele>213.2</ele>
        <time>2026-08-31T11:52:52Z</time>
      </trkpt>
      <trkpt lat="43.43652" lon="-0.3719">
        <ele>212.2</ele>
        <time>2026-08-31T11:52:53Z</time>
      </trkpt>
      <trkpt lat="43.43651" lon="-0.3719">
        <ele>212.2</ele>
        <time>2026-08-31T11:52:53Z</time>
      </trkpt>
      <trkpt lat="43.4365" lon="-0.3719">
        <ele>212.2</ele>
        <time>2026-08-31T11:52:54Z</time>
      </trkpt>
      <trkpt lat="43.4365" lon="-0.3719">
        <ele>212.2</ele>
        <time>2026-08-31T11:52:55Z</time>
      </trkpt>
      <trkpt lat="43.43649" lon="-0.3719">
        <ele>213.2</ele>
        <time>2026-08-31T11:52:55Z</time>
      </trkpt>
      <trkpt lat="43.43648" lon="-0.3719">
        <ele>213.2</ele>
        <time>2026-08-31T11:52:56Z</time>
      </trkpt>
      <trkpt lat="43.43647" lon="-0.37189">
        <ele>213.2</ele>
        <time>2026-08-31T11:52:56Z</time>
      </trkpt>
      <trkpt lat="43.43646" lon="-0.37189">
        <ele>213.2</ele>
        <time>2026-08-31T11:52:57Z</time>
      </trkpt>
      <trkpt lat="43.43645" lon="-0.37189">
        <ele>213.2</ele>
        <time>2026-08-31T11:52:57Z</time>
      </trkpt>
      <trkpt lat="43.43645" lon="-0.37189">
        <ele>213.2</ele>
        <time>2026-08-31T11:52:58Z</time>
      </trkpt>
      <trkpt lat="43.43644" lon="-0.37188">
        <ele>213.2</ele>
        <time>2026-08-31T11:52:59Z</time>
      </trkpt>
      <trkpt lat="43.43643" lon="-0.37188">
        <ele>212.2</ele>
        <time>2026-08-31T11:52:59Z</time>
      </trkpt>
      <trkpt lat="43.43642" lon="-0.37187">
        <ele>212.2</ele>
        <time>2026-08-31T11:53:00Z</time>
      </trkpt>
      <trkpt lat="43.43642" lon="-0.37187">
        <ele>212.2</ele>
        <time>2026-08-31T11:53:00Z</time>
      </trkpt>
      <trkpt lat="43.43641" lon="-0.37187">
        <ele>212.2</ele>
        <time>2026-08-31T11:53:01Z</time>
      </trkpt>
      <trkpt lat="43.4364" lon="-0.37186">
        <ele>212.2</ele>
        <time>2026-08-31T11:53:02Z</time>
      </trkpt>
      <trkpt lat="43.43639" lon="-0.37186">
        <ele>212.2</ele>
        <time>2026-08-31T11:53:02Z</time>
      </trkpt>
      <trkpt lat="43.43639" lon="-0.37186">
        <ele>212.2</ele>
        <time>2026-08-31T11:53:03Z</time>
      </trkpt>
      <trkpt lat="43.43638" lon="-0.37186">
        <ele>212.2</ele>
        <time>2026-08-31T11:53:03Z</time>
      </trkpt>
      <trkpt lat="43.43637" lon="-0.37186">
        <ele>212.2</ele>
        <time>2026-08-31T11:53:04Z</time>
      </trkpt>
      <trkpt lat="43.43636" lon="-0.37186">
        <ele>212.2</ele>
        <time>2026-08-31T11:53:05Z</time>
      </trkpt>
      <trkpt lat="43.43635" lon="-0.37186">
        <ele>212.2</ele>
        <time>2026-08-31T11:53:05Z</time>
      </trkpt>
      <trkpt lat="43.43635" lon="-0.37186">
        <ele>212.2</ele>
        <time>2026-08-31T11:53:06Z</time>
      </trkpt>
      <trkpt lat="43.43634" lon="-0.37186">
        <ele>212.2</ele>
        <time>2026-08-31T11:53:06Z</time>
      </trkpt>
      <trkpt lat="43.43633" lon="-0.37187">
        <ele>212.2</ele>
        <time>2026-08-31T11:53:07Z</time>
      </trkpt>
      <trkpt lat="43.43633" lon="-0.37187">
        <ele>212.2</ele>
        <time>2026-08-31T11:53:07Z</time>
      </trkpt>
      <trkpt lat="43.43632" lon="-0.37187">
        <ele>212.2</ele>
        <time>2026-08-31T11:53:08Z</time>
      </trkpt>
      <trkpt lat="43.43631" lon="-0.37187">
        <ele>211.2</ele>
        <time>2026-08-31T11:53:09Z</time>
      </trkpt>
      <trkpt lat="43.4363" lon="-0.37188">
        <ele>211.2</ele>
        <time>2026-08-31T11:53:09Z</time>
      </trkpt>
      <trkpt lat="43.4363" lon="-0.37188">
        <ele>211.2</ele>
        <time>2026-08-31T11:53:10Z</time>
      </trkpt>
      <trkpt lat="43.43629" lon="-0.37188">
        <ele>211.2</ele>
        <time>2026-08-31T11:53:10Z</time>
      </trkpt>
      <trkpt lat="43.43628" lon="-0.37189">
        <ele>211.2</ele>
        <time>2026-08-31T11:53:11Z</time>
      </trkpt>
      <trkpt lat="43.43628" lon="-0.37189">
        <ele>211.2</ele>
        <time>2026-08-31T11:53:12Z</time>
      </trkpt>
      <trkpt lat="43.43627" lon="-0.3719">
        <ele>211.2</ele>
        <time>2026-08-31T11:53:12Z</time>
      </trkpt>
      <trkpt lat="43.43626" lon="-0.37191">
        <ele>212.2</ele>
        <time>2026-08-31T11:53:13Z</time>
      </trkpt>
      <trkpt lat="43.43625" lon="-0.37191">
        <ele>212.2</ele>
        <time>2026-08-31T11:53:14Z</time>
      </trkpt>
      <trkpt lat="43.43624" lon="-0.37192">
        <ele>211.2</ele>
        <time>2026-08-31T11:53:15Z</time>
      </trkpt>
      <trkpt lat="43.43623" lon="-0.37192">
        <ele>211.2</ele>
        <time>2026-08-31T11:53:15Z</time>
      </trkpt>
      <trkpt lat="43.43622" lon="-0.37193">
        <ele>211.2</ele>
        <time>2026-08-31T11:53:16Z</time>
      </trkpt>
      <trkpt lat="43.43621" lon="-0.37193">
        <ele>211.2</ele>
        <time>2026-08-31T11:53:17Z</time>
      </trkpt>
      <trkpt lat="43.43621" lon="-0.37194">
        <ele>210.2</ele>
        <time>2026-08-31T11:53:17Z</time>
      </trkpt>
      <trkpt lat="43.4362" lon="-0.37194">
        <ele>210.2</ele>
        <time>2026-08-31T11:53:18Z</time>
      </trkpt>
      <trkpt lat="43.43619" lon="-0.37194">
        <ele>210.2</ele>
        <time>2026-08-31T11:53:18Z</time>
      </trkpt>
      <trkpt lat="43.43618" lon="-0.37194">
        <ele>210.2</ele>
        <time>2026-08-31T11:53:19Z</time>
      </trkpt>
      <trkpt lat="43.43618" lon="-0.37195">
        <ele>210.2</ele>
        <time>2026-08-31T11:53:19Z</time>
      </trkpt>
      <trkpt lat="43.43617" lon="-0.37195">
        <ele>211.2</ele>
        <time>2026-08-31T11:53:20Z</time>
      </trkpt>
      <trkpt lat="43.43617" lon="-0.37196">
        <ele>211.2</ele>
        <time>2026-08-31T11:53:21Z</time>
      </trkpt>
      <trkpt lat="43.43616" lon="-0.37196">
        <ele>211.2</ele>
        <time>2026-08-31T11:53:21Z</time>
      </trkpt>
      <trkpt lat="43.43616" lon="-0.37196">
        <ele>211.2</ele>
        <time>2026-08-31T11:53:22Z</time>
      </trkpt>
      <trkpt lat="43.43615" lon="-0.37196">
        <ele>211.2</ele>
        <time>2026-08-31T11:53:22Z</time>
      </trkpt>
      <trkpt lat="43.43614" lon="-0.37196">
        <ele>211.2</ele>
        <time>2026-08-31T11:53:23Z</time>
      </trkpt>
      <trkpt lat="43.43614" lon="-0.37197">
        <ele>211.2</ele>
        <time>2026-08-31T11:53:24Z</time>
      </trkpt>
      <trkpt lat="43.43613" lon="-0.37197">
        <ele>211.2</ele>
        <time>2026-08-31T11:53:24Z</time>
      </trkpt>
      <trkpt lat="43.43612" lon="-0.37197">
        <ele>211.2</ele>
        <time>2026-08-31T11:53:25Z</time>
      </trkpt>
      <trkpt lat="43.43612" lon="-0.37197">
        <ele>211.2</ele>
        <time>2026-08-31T11:53:26Z</time>
      </trkpt>
      <trkpt lat="43.43611" lon="-0.37197">
        <ele>211.2</ele>
        <time>2026-08-31T11:53:26Z</time>
      </trkpt>
      <trkpt lat="43.43611" lon="-0.37197">
        <ele>211.2</ele>
        <time>2026-08-31T11:53:27Z</time>
      </trkpt>
      <trkpt lat="43.4361" lon="-0.37198">
        <ele>211.2</ele>
        <time>2026-08-31T11:53:27Z</time>
      </trkpt>
      <trkpt lat="43.4361" lon="-0.37198">
        <ele>211.2</ele>
        <time>2026-08-31T11:53:28Z</time>
      </trkpt>
      <trkpt lat="43.43609" lon="-0.37198">
        <ele>211.2</ele>
        <time>2026-08-31T11:53:29Z</time>
      </trkpt>
      <trkpt lat="43.43608" lon="-0.37198">
        <ele>211.2</ele>
        <time>2026-08-31T11:53:29Z</time>
      </trkpt>
      <trkpt lat="43.43608" lon="-0.37198">
        <ele>211.2</ele>
        <time>2026-08-31T11:53:30Z</time>
      </trkpt>
      <trkpt lat="43.43607" lon="-0.37198">
        <ele>211.2</ele>
        <time>2026-08-31T11:53:30Z</time>
      </trkpt>
      <trkpt lat="43.43607" lon="-0.37197">
        <ele>211.2</ele>
        <time>2026-08-31T11:53:31Z</time>
      </trkpt>
      <trkpt lat="43.43606" lon="-0.37197">
        <ele>210.2</ele>
        <time>2026-08-31T11:53:32Z</time>
      </trkpt>
      <trkpt lat="43.43606" lon="-0.37195">
        <ele>209.2</ele>
        <time>2026-08-31T11:53:33Z</time>
      </trkpt>
      <trkpt lat="43.43606" lon="-0.37194">
        <ele>210.2</ele>
        <time>2026-08-31T11:53:34Z</time>
      </trkpt>
      <trkpt lat="43.43607" lon="-0.37193">
        <ele>209.2</ele>
        <time>2026-08-31T11:53:35Z</time>
      </trkpt>
      <trkpt lat="43.43608" lon="-0.37192">
        <ele>209.2</ele>
        <time>2026-08-31T11:53:36Z</time>
      </trkpt>
      <trkpt lat="43.43609" lon="-0.37191">
        <ele>209.2</ele>
        <time>2026-08-31T11:53:37Z</time>
      </trkpt>
      <trkpt lat="43.4361" lon="-0.37191">
        <ele>209.2</ele>
        <time>2026-08-31T11:53:37Z</time>
      </trkpt>
      <trkpt lat="43.4361" lon="-0.37191">
        <ele>209.2</ele>
        <time>2026-08-31T11:53:38Z</time>
      </trkpt>
      <trkpt lat="43.4361" lon="-0.37191">
        <ele>209.2</ele>
        <time>2026-08-31T11:53:39Z</time>
      </trkpt>
      <trkpt lat="43.4361" lon="-0.37191">
        <ele>209.2</ele>
        <time>2026-08-31T11:53:39Z</time>
      </trkpt>
      <trkpt lat="43.4361" lon="-0.3719">
        <ele>208.2</ele>
        <time>2026-08-31T11:53:40Z</time>
      </trkpt>
      <trkpt lat="43.4361" lon="-0.3719">
        <ele>208.2</ele>
        <time>2026-08-31T11:53:41Z</time>
      </trkpt>
      <trkpt lat="43.4361" lon="-0.3719">
        <ele>208.2</ele>
        <time>2026-08-31T11:53:42Z</time>
      </trkpt>
      <trkpt lat="43.4361" lon="-0.3719">
        <ele>208.2</ele>
        <time>2026-08-31T11:53:43Z</time>
      </trkpt>
      <trkpt lat="43.4361" lon="-0.37191">
        <ele>208.2</ele>
        <time>2026-08-31T11:53:43Z</time>
      </trkpt>
      <trkpt lat="43.4361" lon="-0.3719">
        <ele>208.2</ele>
        <time>2026-08-31T11:53:44Z</time>
      </trkpt>
      <trkpt lat="43.43609" lon="-0.3719">
        <ele>208.2</ele>
        <time>2026-08-31T11:53:45Z</time>
      </trkpt>
      <trkpt lat="43.43609" lon="-0.3719">
        <ele>208.2</ele>
        <time>2026-08-31T11:53:45Z</time>
      </trkpt>
      <trkpt lat="43.43609" lon="-0.3719">
        <ele>208.2</ele>
        <time>2026-08-31T11:53:46Z</time>
      </trkpt>
      <trkpt lat="43.43608" lon="-0.3719">
        <ele>208.2</ele>
        <time>2026-08-31T11:53:46Z</time>
      </trkpt>
      <trkpt lat="43.43607" lon="-0.37189">
        <ele>208.2</ele>
        <time>2026-08-31T11:53:47Z</time>
      </trkpt>
      <trkpt lat="43.43607" lon="-0.37189">
        <ele>208.2</ele>
        <time>2026-08-31T11:53:47Z</time>
      </trkpt>
      <trkpt lat="43.43605" lon="-0.37188">
        <ele>208.2</ele>
        <time>2026-08-31T11:53:48Z</time>
      </trkpt>
      <trkpt lat="43.43605" lon="-0.37188">
        <ele>208.2</ele>
        <time>2026-08-31T11:53:48Z</time>
      </trkpt>
      <trkpt lat="43.43603" lon="-0.37188">
        <ele>208.2</ele>
        <time>2026-08-31T11:53:49Z</time>
      </trkpt>
      <trkpt lat="43.43602" lon="-0.37188">
        <ele>208.2</ele>
        <time>2026-08-31T11:53:49Z</time>
      </trkpt>
      <trkpt lat="43.43601" lon="-0.37187">
        <ele>208.2</ele>
        <time>2026-08-31T11:53:51Z</time>
      </trkpt>
      <trkpt lat="43.436" lon="-0.37187">
        <ele>208.2</ele>
        <time>2026-08-31T11:53:52Z</time>
      </trkpt>
      <trkpt lat="43.436" lon="-0.37187">
        <ele>208.2</ele>
        <time>2026-08-31T11:53:53Z</time>
      </trkpt>
      <trkpt lat="43.436" lon="-0.37187">
        <ele>208.2</ele>
        <time>2026-08-31T11:53:53Z</time>
      </trkpt>
      <trkpt lat="43.43601" lon="-0.37187">
        <ele>208.2</ele>
        <time>2026-08-31T11:53:54Z</time>
      </trkpt>
      <trkpt lat="43.43601" lon="-0.37187">
        <ele>208.2</ele>
        <time>2026-08-31T11:53:55Z</time>
      </trkpt>
      <trkpt lat="43.43601" lon="-0.37187">
        <ele>208.2</ele>
        <time>2026-08-31T11:53:55Z</time>
      </trkpt>
      <trkpt lat="43.436" lon="-0.37186">
        <ele>208.2</ele>
        <time>2026-08-31T11:53:56Z</time>
      </trkpt>
      <trkpt lat="43.436" lon="-0.37186">
        <ele>208.2</ele>
        <time>2026-08-31T11:53:57Z</time>
      </trkpt>
      <trkpt lat="43.43599" lon="-0.37186">
        <ele>207.2</ele>
        <time>2026-08-31T11:53:57Z</time>
      </trkpt>
      <trkpt lat="43.43598" lon="-0.37186">
        <ele>207.2</ele>
        <time>2026-08-31T11:53:58Z</time>
      </trkpt>
      <trkpt lat="43.43597" lon="-0.37186">
        <ele>207.2</ele>
        <time>2026-08-31T11:53:59Z</time>
      </trkpt>
      <trkpt lat="43.43597" lon="-0.37185">
        <ele>207.2</ele>
        <time>2026-08-31T11:53:59Z</time>
      </trkpt>
      <trkpt lat="43.43596" lon="-0.37185">
        <ele>207.2</ele>
        <time>2026-08-31T11:54:00Z</time>
      </trkpt>
      <trkpt lat="43.43595" lon="-0.37185">
        <ele>207.2</ele>
        <time>2026-08-31T11:54:00Z</time>
      </trkpt>
      <trkpt lat="43.43594" lon="-0.37185">
        <ele>207.2</ele>
        <time>2026-08-31T11:54:01Z</time>
      </trkpt>
      <trkpt lat="43.43592" lon="-0.37184">
        <ele>207.2</ele>
        <time>2026-08-31T11:54:03Z</time>
      </trkpt>
      <trkpt lat="43.43592" lon="-0.37184">
        <ele>207.2</ele>
        <time>2026-08-31T11:54:03Z</time>
      </trkpt>
      <trkpt lat="43.43591" lon="-0.37184">
        <ele>207.2</ele>
        <time>2026-08-31T11:54:04Z</time>
      </trkpt>
      <trkpt lat="43.4359" lon="-0.37184">
        <ele>207.2</ele>
        <time>2026-08-31T11:54:04Z</time>
      </trkpt>
      <trkpt lat="43.4359" lon="-0.37184">
        <ele>207.2</ele>
        <time>2026-08-31T11:54:05Z</time>
      </trkpt>
      <trkpt lat="43.43589" lon="-0.37184">
        <ele>207.2</ele>
        <time>2026-08-31T11:54:06Z</time>
      </trkpt>
      <trkpt lat="43.43588" lon="-0.37184">
        <ele>206.2</ele>
        <time>2026-08-31T11:54:06Z</time>
      </trkpt>
      <trkpt lat="43.43587" lon="-0.37185">
        <ele>207.2</ele>
        <time>2026-08-31T11:54:07Z</time>
      </trkpt>
      <trkpt lat="43.43586" lon="-0.37185">
        <ele>207.2</ele>
        <time>2026-08-31T11:54:08Z</time>
      </trkpt>
      <trkpt lat="43.43586" lon="-0.37185">
        <ele>207.2</ele>
        <time>2026-08-31T11:54:09Z</time>
      </trkpt>
      <trkpt lat="43.43585" lon="-0.37185">
        <ele>206.2</ele>
        <time>2026-08-31T11:54:09Z</time>
      </trkpt>
      <trkpt lat="43.43584" lon="-0.37185">
        <ele>206.2</ele>
        <time>2026-08-31T11:54:10Z</time>
      </trkpt>
      <trkpt lat="43.43583" lon="-0.37184">
        <ele>206.2</ele>
        <time>2026-08-31T11:54:11Z</time>
      </trkpt>
      <trkpt lat="43.43583" lon="-0.37183">
        <ele>207.2</ele>
        <time>2026-08-31T11:54:12Z</time>
      </trkpt>
      <trkpt lat="43.43584" lon="-0.37182">
        <ele>207.2</ele>
        <time>2026-08-31T11:54:13Z</time>
      </trkpt>
      <trkpt lat="43.43585" lon="-0.37182">
        <ele>207.2</ele>
        <time>2026-08-31T11:54:14Z</time>
      </trkpt>
      <trkpt lat="43.43585" lon="-0.37182">
        <ele>207.2</ele>
        <time>2026-08-31T11:54:15Z</time>
      </trkpt>
      <trkpt lat="43.43585" lon="-0.37182">
        <ele>207.2</ele>
        <time>2026-08-31T11:54:16Z</time>
      </trkpt>
      <trkpt lat="43.43585" lon="-0.37182">
        <ele>207.2</ele>
        <time>2026-08-31T11:54:17Z</time>
      </trkpt>
      <trkpt lat="43.43585" lon="-0.37182">
        <ele>207.2</ele>
        <time>2026-08-31T11:54:17Z</time>
      </trkpt>
      <trkpt lat="43.43585" lon="-0.37182">
        <ele>207.2</ele>
        <time>2026-08-31T11:54:18Z</time>
      </trkpt>
      <trkpt lat="43.43584" lon="-0.37182">
        <ele>207.2</ele>
        <time>2026-08-31T11:54:18Z</time>
      </trkpt>
      <trkpt lat="43.43583" lon="-0.37182">
        <ele>207.2</ele>
        <time>2026-08-31T11:54:20Z</time>
      </trkpt>
      <trkpt lat="43.43583" lon="-0.37182">
        <ele>206.2</ele>
        <time>2026-08-31T11:54:21Z</time>
      </trkpt>
      <trkpt lat="43.43582" lon="-0.37182">
        <ele>206.2</ele>
        <time>2026-08-31T11:54:22Z</time>
      </trkpt>
      <trkpt lat="43.43582" lon="-0.37183">
        <ele>206.2</ele>
        <time>2026-08-31T11:54:23Z</time>
      </trkpt>
      <trkpt lat="43.43582" lon="-0.37183">
        <ele>206.2</ele>
        <time>2026-08-31T11:54:24Z</time>
      </trkpt>
      <trkpt lat="43.43582" lon="-0.37183">
        <ele>206.2</ele>
        <time>2026-08-31T11:54:25Z</time>
      </trkpt>
      <trkpt lat="43.43582" lon="-0.37183">
        <ele>206.2</ele>
        <time>2026-08-31T11:54:26Z</time>
      </trkpt>
      <trkpt lat="43.43582" lon="-0.37183">
        <ele>206.2</ele>
        <time>2026-08-31T11:54:27Z</time>
      </trkpt>
      <trkpt lat="43.43581" lon="-0.37183">
        <ele>206.2</ele>
        <time>2026-08-31T11:54:27Z</time>
      </trkpt>
      <trkpt lat="43.43581" lon="-0.37183">
        <ele>206.2</ele>
        <time>2026-08-31T11:54:28Z</time>
      </trkpt>
      <trkpt lat="43.4358" lon="-0.37183">
        <ele>206.2</ele>
        <time>2026-08-31T11:54:28Z</time>
      </trkpt>
      <trkpt lat="43.43579" lon="-0.37182">
        <ele>206.2</ele>
        <time>2026-08-31T11:54:29Z</time>
      </trkpt>
      <trkpt lat="43.43579" lon="-0.37182">
        <ele>206.2</ele>
        <time>2026-08-31T11:54:30Z</time>
      </trkpt>
      <trkpt lat="43.43578" lon="-0.37183">
        <ele>205.2</ele>
        <time>2026-08-31T11:54:31Z</time>
      </trkpt>
      <trkpt lat="43.43577" lon="-0.37183">
        <ele>205.2</ele>
        <time>2026-08-31T11:54:32Z</time>
      </trkpt>
      <trkpt lat="43.43577" lon="-0.37183">
        <ele>205.2</ele>
        <time>2026-08-31T11:54:32Z</time>
      </trkpt>
      <trkpt lat="43.43577" lon="-0.37183">
        <ele>205.2</ele>
        <time>2026-08-31T11:54:34Z</time>
      </trkpt>
      <trkpt lat="43.43577" lon="-0.37183">
        <ele>205.2</ele>
        <time>2026-08-31T11:54:35Z</time>
      </trkpt>
      <trkpt lat="43.43577" lon="-0.37183">
        <ele>205.2</ele>
        <time>2026-08-31T11:54:35Z</time>
      </trkpt>
      <trkpt lat="43.43577" lon="-0.37183">
        <ele>205.2</ele>
        <time>2026-08-31T11:54:36Z</time>
      </trkpt>
      <trkpt lat="43.43577" lon="-0.37183">
        <ele>205.2</ele>
        <time>2026-08-31T11:54:36Z</time>
      </trkpt>
      <trkpt lat="43.43577" lon="-0.37183">
        <ele>204.2</ele>
        <time>2026-08-31T11:54:37Z</time>
      </trkpt>
      <trkpt lat="43.43576" lon="-0.37183">
        <ele>204.2</ele>
        <time>2026-08-31T11:54:37Z</time>
      </trkpt>
      <trkpt lat="43.43576" lon="-0.37183">
        <ele>204.2</ele>
        <time>2026-08-31T11:54:38Z</time>
      </trkpt>
      <trkpt lat="43.43576" lon="-0.37183">
        <ele>204.2</ele>
        <time>2026-08-31T11:54:38Z</time>
      </trkpt>
      <trkpt lat="43.43575" lon="-0.37182">
        <ele>203.2</ele>
        <time>2026-08-31T11:54:39Z</time>
      </trkpt>
      <trkpt lat="43.43575" lon="-0.37182">
        <ele>203.2</ele>
        <time>2026-08-31T11:54:40Z</time>
      </trkpt>
      <trkpt lat="43.43573" lon="-0.37181">
        <ele>203.2</ele>
        <time>2026-08-31T11:54:41Z</time>
      </trkpt>
      <trkpt lat="43.43572" lon="-0.3718">
        <ele>203.2</ele>
        <time>2026-08-31T11:54:41Z</time>
      </trkpt>
      <trkpt lat="43.43571" lon="-0.3718">
        <ele>203.2</ele>
        <time>2026-08-31T11:54:42Z</time>
      </trkpt>
      <trkpt lat="43.4357" lon="-0.3718">
        <ele>203.2</ele>
        <time>2026-08-31T11:54:43Z</time>
      </trkpt>
      <trkpt lat="43.43569" lon="-0.3718">
        <ele>202.2</ele>
        <time>2026-08-31T11:54:44Z</time>
      </trkpt>
      <trkpt lat="43.43569" lon="-0.3718">
        <ele>202.2</ele>
        <time>2026-08-31T11:54:45Z</time>
      </trkpt>
      <trkpt lat="43.43568" lon="-0.37179">
        <ele>202.2</ele>
        <time>2026-08-31T11:54:45Z</time>
      </trkpt>
      <trkpt lat="43.43568" lon="-0.37179">
        <ele>202.2</ele>
        <time>2026-08-31T11:54:46Z</time>
      </trkpt>
      <trkpt lat="43.43567" lon="-0.37178">
        <ele>202.2</ele>
        <time>2026-08-31T11:54:46Z</time>
      </trkpt>
      <trkpt lat="43.43566" lon="-0.37178">
        <ele>201.2</ele>
        <time>2026-08-31T11:54:47Z</time>
      </trkpt>
      <trkpt lat="43.43565" lon="-0.37178">
        <ele>201.2</ele>
        <time>2026-08-31T11:54:47Z</time>
      </trkpt>
      <trkpt lat="43.43564" lon="-0.37178">
        <ele>201.2</ele>
        <time>2026-08-31T11:54:48Z</time>
      </trkpt>
      <trkpt lat="43.43563" lon="-0.37178">
        <ele>201.2</ele>
        <time>2026-08-31T11:54:48Z</time>
      </trkpt>
      <trkpt lat="43.43562" lon="-0.37179">
        <ele>201.2</ele>
        <time>2026-08-31T11:54:49Z</time>
      </trkpt>
      <trkpt lat="43.43562" lon="-0.3718">
        <ele>201.2</ele>
        <time>2026-08-31T11:54:50Z</time>
      </trkpt>
      <trkpt lat="43.43561" lon="-0.3718">
        <ele>201.2</ele>
        <time>2026-08-31T11:54:50Z</time>
      </trkpt>
      <trkpt lat="43.43559" lon="-0.37181">
        <ele>202.2</ele>
        <time>2026-08-31T11:54:52Z</time>
      </trkpt>
      <trkpt lat="43.43558" lon="-0.37181">
        <ele>203.2</ele>
        <time>2026-08-31T11:54:53Z</time>
      </trkpt>
      <trkpt lat="43.43558" lon="-0.37181">
        <ele>203.2</ele>
        <time>2026-08-31T11:54:53Z</time>
      </trkpt>
      <trkpt lat="43.43557" lon="-0.37181">
        <ele>203.2</ele>
        <time>2026-08-31T11:54:54Z</time>
      </trkpt>
      <trkpt lat="43.43557" lon="-0.37181">
        <ele>203.2</ele>
        <time>2026-08-31T11:54:54Z</time>
      </trkpt>
      <trkpt lat="43.43556" lon="-0.37181">
        <ele>203.2</ele>
        <time>2026-08-31T11:54:55Z</time>
      </trkpt>
      <trkpt lat="43.43556" lon="-0.37181">
        <ele>203.2</ele>
        <time>2026-08-31T11:54:56Z</time>
      </trkpt>
      <trkpt lat="43.43555" lon="-0.37181">
        <ele>203.2</ele>
        <time>2026-08-31T11:54:56Z</time>
      </trkpt>
      <trkpt lat="43.43555" lon="-0.37182">
        <ele>203.2</ele>
        <time>2026-08-31T11:54:57Z</time>
      </trkpt>
      <trkpt lat="43.43554" lon="-0.37182">
        <ele>203.2</ele>
        <time>2026-08-31T11:54:58Z</time>
      </trkpt>
      <trkpt lat="43.43553" lon="-0.37183">
        <ele>203.2</ele>
        <time>2026-08-31T11:54:59Z</time>
      </trkpt>
      <trkpt lat="43.43553" lon="-0.37183">
        <ele>203.2</ele>
        <time>2026-08-31T11:54:59Z</time>
      </trkpt>
      <trkpt lat="43.43553" lon="-0.37183">
        <ele>203.2</ele>
        <time>2026-08-31T11:55:01Z</time>
      </trkpt>
      <trkpt lat="43.43554" lon="-0.37182">
        <ele>205.2</ele>
        <time>2026-08-31T11:55:02Z</time>
      </trkpt>
      <trkpt lat="43.43554" lon="-0.37182">
        <ele>205.2</ele>
        <time>2026-08-31T11:55:03Z</time>
      </trkpt>
      <trkpt lat="43.43554" lon="-0.37182">
        <ele>204.2</ele>
        <time>2026-08-31T11:55:04Z</time>
      </trkpt>
      <trkpt lat="43.43554" lon="-0.37181">
        <ele>204.2</ele>
        <time>2026-08-31T11:55:04Z</time>
      </trkpt>
      <trkpt lat="43.43554" lon="-0.37181">
        <ele>204.2</ele>
        <time>2026-08-31T11:55:05Z</time>
      </trkpt>
      <trkpt lat="43.43554" lon="-0.37181">
        <ele>204.2</ele>
        <time>2026-08-31T11:55:05Z</time>
      </trkpt>
      <trkpt lat="43.43553" lon="-0.37181">
        <ele>204.2</ele>
        <time>2026-08-31T11:55:06Z</time>
      </trkpt>
      <trkpt lat="43.43553" lon="-0.37181">
        <ele>204.2</ele>
        <time>2026-08-31T11:55:07Z</time>
      </trkpt>
      <trkpt lat="43.43551" lon="-0.3718">
        <ele>205.2</ele>
        <time>2026-08-31T11:55:07Z</time>
      </trkpt>
      <trkpt lat="43.4355" lon="-0.3718">
        <ele>204.2</ele>
        <time>2026-08-31T11:55:08Z</time>
      </trkpt>
      <trkpt lat="43.43549" lon="-0.3718">
        <ele>204.2</ele>
        <time>2026-08-31T11:55:08Z</time>
      </trkpt>
      <trkpt lat="43.43547" lon="-0.3718">
        <ele>204.2</ele>
        <time>2026-08-31T11:55:10Z</time>
      </trkpt>
      <trkpt lat="43.43547" lon="-0.3718">
        <ele>204.2</ele>
        <time>2026-08-31T11:55:11Z</time>
      </trkpt>
      <trkpt lat="43.43547" lon="-0.3718">
        <ele>203.2</ele>
        <time>2026-08-31T11:55:12Z</time>
      </trkpt>
      <trkpt lat="43.43547" lon="-0.3718">
        <ele>203.2</ele>
        <time>2026-08-31T11:55:13Z</time>
      </trkpt>
      <trkpt lat="43.43547" lon="-0.37179">
        <ele>203.2</ele>
        <time>2026-08-31T11:55:13Z</time>
      </trkpt>
      <trkpt lat="43.43547" lon="-0.37179">
        <ele>204.2</ele>
        <time>2026-08-31T11:55:14Z</time>
      </trkpt>
      <trkpt lat="43.43547" lon="-0.37179">
        <ele>204.2</ele>
        <time>2026-08-31T11:55:15Z</time>
      </trkpt>
      <trkpt lat="43.43547" lon="-0.37179">
        <ele>204.2</ele>
        <time>2026-08-31T11:55:16Z</time>
      </trkpt>
      <trkpt lat="43.43547" lon="-0.37178">
        <ele>204.2</ele>
        <time>2026-08-31T11:55:16Z</time>
      </trkpt>
      <trkpt lat="43.43546" lon="-0.37178">
        <ele>205.2</ele>
        <time>2026-08-31T11:55:17Z</time>
      </trkpt>
      <trkpt lat="43.43546" lon="-0.37177">
        <ele>205.2</ele>
        <time>2026-08-31T11:55:18Z</time>
      </trkpt>
      <trkpt lat="43.43545" lon="-0.37177">
        <ele>205.2</ele>
        <time>2026-08-31T11:55:19Z</time>
      </trkpt>
      <trkpt lat="43.43545" lon="-0.37177">
        <ele>205.2</ele>
        <time>2026-08-31T11:55:20Z</time>
      </trkpt>
      <trkpt lat="43.43545" lon="-0.37176">
        <ele>205.2</ele>
        <time>2026-08-31T11:55:21Z</time>
      </trkpt>
      <trkpt lat="43.43544" lon="-0.37176">
        <ele>205.2</ele>
        <time>2026-08-31T11:55:21Z</time>
      </trkpt>
      <trkpt lat="43.43544" lon="-0.37176">
        <ele>204.2</ele>
        <time>2026-08-31T11:55:22Z</time>
      </trkpt>
      <trkpt lat="43.43544" lon="-0.37175">
        <ele>204.2</ele>
        <time>2026-08-31T11:55:22Z</time>
      </trkpt>
      <trkpt lat="43.43543" lon="-0.37175">
        <ele>204.2</ele>
        <time>2026-08-31T11:55:23Z</time>
      </trkpt>
      <trkpt lat="43.43543" lon="-0.37175">
        <ele>205.2</ele>
        <time>2026-08-31T11:55:24Z</time>
      </trkpt>
      <trkpt lat="43.43543" lon="-0.37174">
        <ele>204.2</ele>
        <time>2026-08-31T11:55:25Z</time>
      </trkpt>
      <trkpt lat="43.43543" lon="-0.37174">
        <ele>204.2</ele>
        <time>2026-08-31T11:55:25Z</time>
      </trkpt>
      <trkpt lat="43.43543" lon="-0.37174">
        <ele>204.2</ele>
        <time>2026-08-31T11:55:26Z</time>
      </trkpt>
      <trkpt lat="43.43542" lon="-0.37174">
        <ele>204.2</ele>
        <time>2026-08-31T11:55:27Z</time>
      </trkpt>
      <trkpt lat="43.43542" lon="-0.37173">
        <ele>204.2</ele>
        <time>2026-08-31T11:55:27Z</time>
      </trkpt>
      <trkpt lat="43.43541" lon="-0.37173">
        <ele>204.2</ele>
        <time>2026-08-31T11:55:28Z</time>
      </trkpt>
      <trkpt lat="43.43541" lon="-0.37173">
        <ele>204.2</ele>
        <time>2026-08-31T11:55:29Z</time>
      </trkpt>
      <trkpt lat="43.4354" lon="-0.37172">
        <ele>204.2</ele>
        <time>2026-08-31T11:55:29Z</time>
      </trkpt>
      <trkpt lat="43.4354" lon="-0.37172">
        <ele>205.2</ele>
        <time>2026-08-31T11:55:30Z</time>
      </trkpt>
      <trkpt lat="43.43539" lon="-0.37172">
        <ele>205.2</ele>
        <time>2026-08-31T11:55:31Z</time>
      </trkpt>
      <trkpt lat="43.43538" lon="-0.37172">
        <ele>205.2</ele>
        <time>2026-08-31T11:55:31Z</time>
      </trkpt>
      <trkpt lat="43.43538" lon="-0.37172">
        <ele>205.2</ele>
        <time>2026-08-31T11:55:32Z</time>
      </trkpt>
      <trkpt lat="43.43537" lon="-0.37171">
        <ele>205.2</ele>
        <time>2026-08-31T11:55:33Z</time>
      </trkpt>
      <trkpt lat="43.43536" lon="-0.37171">
        <ele>205.2</ele>
        <time>2026-08-31T11:55:34Z</time>
      </trkpt>
      <trkpt lat="43.43535" lon="-0.37171">
        <ele>205.2</ele>
        <time>2026-08-31T11:55:35Z</time>
      </trkpt>
      <trkpt lat="43.43534" lon="-0.37171">
        <ele>205.2</ele>
        <time>2026-08-31T11:55:35Z</time>
      </trkpt>
      <trkpt lat="43.43534" lon="-0.37171">
        <ele>205.2</ele>
        <time>2026-08-31T11:55:36Z</time>
      </trkpt>
      <trkpt lat="43.43533" lon="-0.37172">
        <ele>206.2</ele>
        <time>2026-08-31T11:55:38Z</time>
      </trkpt>
      <trkpt lat="43.43533" lon="-0.37172">
        <ele>206.2</ele>
        <time>2026-08-31T11:55:39Z</time>
      </trkpt>
      <trkpt lat="43.43533" lon="-0.37172">
        <ele>206.2</ele>
        <time>2026-08-31T11:55:39Z</time>
      </trkpt>
      <trkpt lat="43.43532" lon="-0.37172">
        <ele>206.2</ele>
        <time>2026-08-31T11:55:40Z</time>
      </trkpt>
      <trkpt lat="43.43532" lon="-0.37172">
        <ele>206.2</ele>
        <time>2026-08-31T11:55:40Z</time>
      </trkpt>
      <trkpt lat="43.43531" lon="-0.37171">
        <ele>206.2</ele>
        <time>2026-08-31T11:55:41Z</time>
      </trkpt>
      <trkpt lat="43.43531" lon="-0.37171">
        <ele>206.2</ele>
        <time>2026-08-31T11:55:41Z</time>
      </trkpt>
      <trkpt lat="43.4353" lon="-0.37171">
        <ele>206.2</ele>
        <time>2026-08-31T11:55:42Z</time>
      </trkpt>
      <trkpt lat="43.43529" lon="-0.37171">
        <ele>206.2</ele>
        <time>2026-08-31T11:55:43Z</time>
      </trkpt>
      <trkpt lat="43.43528" lon="-0.37171">
        <ele>206.2</ele>
        <time>2026-08-31T11:55:44Z</time>
      </trkpt>
      <trkpt lat="43.43527" lon="-0.3717">
        <ele>206.2</ele>
        <time>2026-08-31T11:55:45Z</time>
      </trkpt>
      <trkpt lat="43.43527" lon="-0.3717">
        <ele>206.2</ele>
        <time>2026-08-31T11:55:46Z</time>
      </trkpt>
      <trkpt lat="43.43527" lon="-0.37171">
        <ele>205.2</ele>
        <time>2026-08-31T11:55:47Z</time>
      </trkpt>
      <trkpt lat="43.43526" lon="-0.37171">
        <ele>206.2</ele>
        <time>2026-08-31T11:55:48Z</time>
      </trkpt>
      <trkpt lat="43.43526" lon="-0.3717">
        <ele>207.2</ele>
        <time>2026-08-31T11:55:49Z</time>
      </trkpt>
      <trkpt lat="43.43526" lon="-0.3717">
        <ele>207.2</ele>
        <time>2026-08-31T11:55:50Z</time>
      </trkpt>
      <trkpt lat="43.43527" lon="-0.3717">
        <ele>207.2</ele>
        <time>2026-08-31T11:55:51Z</time>
      </trkpt>
      <trkpt lat="43.43527" lon="-0.37169">
        <ele>207.2</ele>
        <time>2026-08-31T11:55:52Z</time>
      </trkpt>
      <trkpt lat="43.43528" lon="-0.37169">
        <ele>206.2</ele>
        <time>2026-08-31T11:55:53Z</time>
      </trkpt>
      <trkpt lat="43.43528" lon="-0.37169">
        <ele>206.2</ele>
        <time>2026-08-31T11:55:54Z</time>
      </trkpt>
      <trkpt lat="43.43528" lon="-0.37169">
        <ele>206.2</ele>
        <time>2026-08-31T11:55:54Z</time>
      </trkpt>
      <trkpt lat="43.43528" lon="-0.37169">
        <ele>206.2</ele>
        <time>2026-08-31T11:55:55Z</time>
      </trkpt>
      <trkpt lat="43.43528" lon="-0.37169">
        <ele>206.2</ele>
        <time>2026-08-31T11:55:56Z</time>
      </trkpt>
      <trkpt lat="43.43528" lon="-0.37169">
        <ele>207.2</ele>
        <time>2026-08-31T11:55:56Z</time>
      </trkpt>
      <trkpt lat="43.43528" lon="-0.37168">
        <ele>207.2</ele>
        <time>2026-08-31T11:55:57Z</time>
      </trkpt>
      <trkpt lat="43.43528" lon="-0.37168">
        <ele>207.2</ele>
        <time>2026-08-31T11:55:58Z</time>
      </trkpt>
      <trkpt lat="43.43527" lon="-0.37168">
        <ele>207.2</ele>
        <time>2026-08-31T11:55:58Z</time>
      </trkpt>
      <trkpt lat="43.43527" lon="-0.37167">
        <ele>207.2</ele>
        <time>2026-08-31T11:55:59Z</time>
      </trkpt>
      <trkpt lat="43.43527" lon="-0.37167">
        <ele>207.2</ele>
        <time>2026-08-31T11:55:59Z</time>
      </trkpt>
      <trkpt lat="43.43526" lon="-0.37167">
        <ele>208.2</ele>
        <time>2026-08-31T11:56:00Z</time>
      </trkpt>
      <trkpt lat="43.43526" lon="-0.37166">
        <ele>208.2</ele>
        <time>2026-08-31T11:56:01Z</time>
      </trkpt>
      <trkpt lat="43.43525" lon="-0.37166">
        <ele>207.2</ele>
        <time>2026-08-31T11:56:01Z</time>
      </trkpt>
      <trkpt lat="43.43524" lon="-0.37165">
        <ele>207.2</ele>
        <time>2026-08-31T11:56:02Z</time>
      </trkpt>
      <trkpt lat="43.43523" lon="-0.37165">
        <ele>207.2</ele>
        <time>2026-08-31T11:56:02Z</time>
      </trkpt>
      <trkpt lat="43.43522" lon="-0.37164">
        <ele>208.2</ele>
        <time>2026-08-31T11:56:03Z</time>
      </trkpt>
      <trkpt lat="43.43521" lon="-0.37164">
        <ele>208.2</ele>
        <time>2026-08-31T11:56:04Z</time>
      </trkpt>
      <trkpt lat="43.43521" lon="-0.37163">
        <ele>208.2</ele>
        <time>2026-08-31T11:56:04Z</time>
      </trkpt>
      <trkpt lat="43.4352" lon="-0.37163">
        <ele>208.2</ele>
        <time>2026-08-31T11:56:05Z</time>
      </trkpt>
      <trkpt lat="43.43519" lon="-0.37162">
        <ele>208.2</ele>
        <time>2026-08-31T11:56:05Z</time>
      </trkpt>
      <trkpt lat="43.43519" lon="-0.37161">
        <ele>208.2</ele>
        <time>2026-08-31T11:56:06Z</time>
      </trkpt>
      <trkpt lat="43.43518" lon="-0.37161">
        <ele>207.2</ele>
        <time>2026-08-31T11:56:07Z</time>
      </trkpt>
      <trkpt lat="43.43517" lon="-0.37161">
        <ele>207.2</ele>
        <time>2026-08-31T11:56:07Z</time>
      </trkpt>
      <trkpt lat="43.43517" lon="-0.37161">
        <ele>207.2</ele>
        <time>2026-08-31T11:56:08Z</time>
      </trkpt>
      <trkpt lat="43.43516" lon="-0.3716">
        <ele>207.2</ele>
        <time>2026-08-31T11:56:08Z</time>
      </trkpt>
      <trkpt lat="43.43515" lon="-0.3716">
        <ele>207.2</ele>
        <time>2026-08-31T11:56:09Z</time>
      </trkpt>
      <trkpt lat="43.43514" lon="-0.3716">
        <ele>206.2</ele>
        <time>2026-08-31T11:56:10Z</time>
      </trkpt>
      <trkpt lat="43.43514" lon="-0.37159">
        <ele>206.2</ele>
        <time>2026-08-31T11:56:10Z</time>
      </trkpt>
      <trkpt lat="43.43513" lon="-0.3716">
        <ele>207.2</ele>
        <time>2026-08-31T11:56:11Z</time>
      </trkpt>
      <trkpt lat="43.43512" lon="-0.37159">
        <ele>207.2</ele>
        <time>2026-08-31T11:56:12Z</time>
      </trkpt>
      <trkpt lat="43.43511" lon="-0.37159">
        <ele>208.2</ele>
        <time>2026-08-31T11:56:12Z</time>
      </trkpt>
      <trkpt lat="43.43511" lon="-0.37159">
        <ele>208.2</ele>
        <time>2026-08-31T11:56:13Z</time>
      </trkpt>
      <trkpt lat="43.43511" lon="-0.37159">
        <ele>207.2</ele>
        <time>2026-08-31T11:56:14Z</time>
      </trkpt>
      <trkpt lat="43.4351" lon="-0.37158">
        <ele>207.2</ele>
        <time>2026-08-31T11:56:15Z</time>
      </trkpt>
      <trkpt lat="43.43509" lon="-0.37157">
        <ele>207.2</ele>
        <time>2026-08-31T11:56:16Z</time>
      </trkpt>
      <trkpt lat="43.43509" lon="-0.37157">
        <ele>207.2</ele>
        <time>2026-08-31T11:56:16Z</time>
      </trkpt>
      <trkpt lat="43.43508" lon="-0.37158">
        <ele>207.2</ele>
        <time>2026-08-31T11:56:17Z</time>
      </trkpt>
      <trkpt lat="43.43508" lon="-0.37157">
        <ele>207.2</ele>
        <time>2026-08-31T11:56:18Z</time>
      </trkpt>
      <trkpt lat="43.43509" lon="-0.37157">
        <ele>207.2</ele>
        <time>2026-08-31T11:56:19Z</time>
      </trkpt>
      <trkpt lat="43.43509" lon="-0.37157">
        <ele>207.2</ele>
        <time>2026-08-31T11:56:20Z</time>
      </trkpt>
      <trkpt lat="43.43509" lon="-0.37158">
        <ele>207.2</ele>
        <time>2026-08-31T11:56:21Z</time>
      </trkpt>
      <trkpt lat="43.43509" lon="-0.37158">
        <ele>207.2</ele>
        <time>2026-08-31T11:56:22Z</time>
      </trkpt>
      <trkpt lat="43.43509" lon="-0.37158">
        <ele>208.2</ele>
        <time>2026-08-31T11:56:23Z</time>
      </trkpt>
      <trkpt lat="43.43509" lon="-0.37157">
        <ele>208.2</ele>
        <time>2026-08-31T11:56:23Z</time>
      </trkpt>
      <trkpt lat="43.43509" lon="-0.37157">
        <ele>209.2</ele>
        <time>2026-08-31T11:56:24Z</time>
      </trkpt>
      <trkpt lat="43.43508" lon="-0.37158">
        <ele>209.2</ele>
        <time>2026-08-31T11:56:25Z</time>
      </trkpt>
      <trkpt lat="43.43508" lon="-0.37158">
        <ele>209.2</ele>
        <time>2026-08-31T11:56:25Z</time>
      </trkpt>
      <trkpt lat="43.43507" lon="-0.37157">
        <ele>209.2</ele>
        <time>2026-08-31T11:56:26Z</time>
      </trkpt>
      <trkpt lat="43.43506" lon="-0.37157">
        <ele>209.2</ele>
        <time>2026-08-31T11:56:27Z</time>
      </trkpt>
      <trkpt lat="43.43505" lon="-0.37157">
        <ele>209.2</ele>
        <time>2026-08-31T11:56:27Z</time>
      </trkpt>
      <trkpt lat="43.43505" lon="-0.37158">
        <ele>210.2</ele>
        <time>2026-08-31T11:56:28Z</time>
      </trkpt>
      <trkpt lat="43.43503" lon="-0.37157">
        <ele>209.2</ele>
        <time>2026-08-31T11:56:29Z</time>
      </trkpt>
      <trkpt lat="43.43503" lon="-0.37157">
        <ele>209.2</ele>
        <time>2026-08-31T11:56:30Z</time>
      </trkpt>
      <trkpt lat="43.43503" lon="-0.37157">
        <ele>209.2</ele>
        <time>2026-08-31T11:56:30Z</time>
      </trkpt>
      <trkpt lat="43.43502" lon="-0.37157">
        <ele>209.2</ele>
        <time>2026-08-31T11:56:31Z</time>
      </trkpt>
      <trkpt lat="43.43502" lon="-0.37158">
        <ele>209.2</ele>
        <time>2026-08-31T11:56:32Z</time>
      </trkpt>
      <trkpt lat="43.43502" lon="-0.37158">
        <ele>209.2</ele>
        <time>2026-08-31T11:56:32Z</time>
      </trkpt>
      <trkpt lat="43.43501" lon="-0.37159">
        <ele>210.2</ele>
        <time>2026-08-31T11:56:34Z</time>
      </trkpt>
      <trkpt lat="43.43501" lon="-0.37159">
        <ele>210.2</ele>
        <time>2026-08-31T11:56:35Z</time>
      </trkpt>
      <trkpt lat="43.43501" lon="-0.37159">
        <ele>210.2</ele>
        <time>2026-08-31T11:56:35Z</time>
      </trkpt>
      <trkpt lat="43.43502" lon="-0.37159">
        <ele>209.2</ele>
        <time>2026-08-31T11:56:36Z</time>
      </trkpt>
      <trkpt lat="43.43501" lon="-0.37159">
        <ele>209.2</ele>
        <time>2026-08-31T11:56:37Z</time>
      </trkpt>
      <trkpt lat="43.43501" lon="-0.37159">
        <ele>210.2</ele>
        <time>2026-08-31T11:56:37Z</time>
      </trkpt>
      <trkpt lat="43.43501" lon="-0.37159">
        <ele>210.2</ele>
        <time>2026-08-31T11:56:38Z</time>
      </trkpt>
      <trkpt lat="43.43501" lon="-0.37158">
        <ele>210.2</ele>
        <time>2026-08-31T11:56:39Z</time>
      </trkpt>
      <trkpt lat="43.435" lon="-0.37158">
        <ele>210.2</ele>
        <time>2026-08-31T11:56:39Z</time>
      </trkpt>
      <trkpt lat="43.43499" lon="-0.37158">
        <ele>210.2</ele>
        <time>2026-08-31T11:56:41Z</time>
      </trkpt>
      <trkpt lat="43.43499" lon="-0.37157">
        <ele>210.2</ele>
        <time>2026-08-31T11:56:41Z</time>
      </trkpt>
      <trkpt lat="43.43498" lon="-0.37157">
        <ele>210.2</ele>
        <time>2026-08-31T11:56:42Z</time>
      </trkpt>
      <trkpt lat="43.43497" lon="-0.37157">
        <ele>210.2</ele>
        <time>2026-08-31T11:56:42Z</time>
      </trkpt>
      <trkpt lat="43.43495" lon="-0.37156">
        <ele>210.2</ele>
        <time>2026-08-31T11:56:43Z</time>
      </trkpt>
      <trkpt lat="43.43495" lon="-0.37156">
        <ele>209.2</ele>
        <time>2026-08-31T11:56:44Z</time>
      </trkpt>
      <trkpt lat="43.43493" lon="-0.37155">
        <ele>209.2</ele>
        <time>2026-08-31T11:56:44Z</time>
      </trkpt>
      <trkpt lat="43.43493" lon="-0.37154">
        <ele>210.2</ele>
        <time>2026-08-31T11:56:45Z</time>
      </trkpt>
      <trkpt lat="43.43492" lon="-0.37154">
        <ele>210.2</ele>
        <time>2026-08-31T11:56:46Z</time>
      </trkpt>
      <trkpt lat="43.43491" lon="-0.37153">
        <ele>209.2</ele>
        <time>2026-08-31T11:56:46Z</time>
      </trkpt>
      <trkpt lat="43.43491" lon="-0.37153">
        <ele>209.2</ele>
        <time>2026-08-31T11:56:47Z</time>
      </trkpt>
      <trkpt lat="43.4349" lon="-0.37152">
        <ele>209.2</ele>
        <time>2026-08-31T11:56:47Z</time>
      </trkpt>
      <trkpt lat="43.43489" lon="-0.37152">
        <ele>209.2</ele>
        <time>2026-08-31T11:56:48Z</time>
      </trkpt>
      <trkpt lat="43.43489" lon="-0.37152">
        <ele>209.2</ele>
        <time>2026-08-31T11:56:49Z</time>
      </trkpt>
      <trkpt lat="43.43488" lon="-0.37151">
        <ele>209.2</ele>
        <time>2026-08-31T11:56:49Z</time>
      </trkpt>
      <trkpt lat="43.43488" lon="-0.37151">
        <ele>209.2</ele>
        <time>2026-08-31T11:56:50Z</time>
      </trkpt>
      <trkpt lat="43.43487" lon="-0.37151">
        <ele>209.2</ele>
        <time>2026-08-31T11:56:50Z</time>
      </trkpt>
      <trkpt lat="43.43487" lon="-0.37151">
        <ele>209.2</ele>
        <time>2026-08-31T11:56:51Z</time>
      </trkpt>
      <trkpt lat="43.43486" lon="-0.37151">
        <ele>209.2</ele>
        <time>2026-08-31T11:56:52Z</time>
      </trkpt>
      <trkpt lat="43.43485" lon="-0.37151">
        <ele>209.2</ele>
        <time>2026-08-31T11:56:52Z</time>
      </trkpt>
      <trkpt lat="43.43485" lon="-0.37151">
        <ele>209.2</ele>
        <time>2026-08-31T11:56:53Z</time>
      </trkpt>
      <trkpt lat="43.43484" lon="-0.3715">
        <ele>209.2</ele>
        <time>2026-08-31T11:56:54Z</time>
      </trkpt>
      <trkpt lat="43.43484" lon="-0.3715">
        <ele>209.2</ele>
        <time>2026-08-31T11:56:54Z</time>
      </trkpt>
      <trkpt lat="43.43483" lon="-0.3715">
        <ele>209.2</ele>
        <time>2026-08-31T11:56:55Z</time>
      </trkpt>
      <trkpt lat="43.43483" lon="-0.37149">
        <ele>209.2</ele>
        <time>2026-08-31T11:56:55Z</time>
      </trkpt>
      <trkpt lat="43.43482" lon="-0.37149">
        <ele>209.2</ele>
        <time>2026-08-31T11:56:56Z</time>
      </trkpt>
      <trkpt lat="43.43482" lon="-0.37148">
        <ele>210.2</ele>
        <time>2026-08-31T11:56:57Z</time>
      </trkpt>
      <trkpt lat="43.43481" lon="-0.37148">
        <ele>210.2</ele>
        <time>2026-08-31T11:56:57Z</time>
      </trkpt>
      <trkpt lat="43.43481" lon="-0.37147">
        <ele>210.2</ele>
        <time>2026-08-31T11:56:58Z</time>
      </trkpt>
      <trkpt lat="43.4348" lon="-0.37147">
        <ele>210.2</ele>
        <time>2026-08-31T11:56:58Z</time>
      </trkpt>
      <trkpt lat="43.4348" lon="-0.37146">
        <ele>211.2</ele>
        <time>2026-08-31T11:56:59Z</time>
      </trkpt>
      <trkpt lat="43.43479" lon="-0.37146">
        <ele>211.2</ele>
        <time>2026-08-31T11:57:00Z</time>
      </trkpt>
      <trkpt lat="43.43479" lon="-0.37145">
        <ele>212.2</ele>
        <time>2026-08-31T11:57:00Z</time>
      </trkpt>
      <trkpt lat="43.43479" lon="-0.37144">
        <ele>212.2</ele>
        <time>2026-08-31T11:57:01Z</time>
      </trkpt>
      <trkpt lat="43.43478" lon="-0.37143">
        <ele>212.2</ele>
        <time>2026-08-31T11:57:02Z</time>
      </trkpt>
      <trkpt lat="43.43477" lon="-0.37142">
        <ele>212.2</ele>
        <time>2026-08-31T11:57:03Z</time>
      </trkpt>
      <trkpt lat="43.43477" lon="-0.37141">
        <ele>211.2</ele>
        <time>2026-08-31T11:57:03Z</time>
      </trkpt>
      <trkpt lat="43.43477" lon="-0.37141">
        <ele>212.2</ele>
        <time>2026-08-31T11:57:04Z</time>
      </trkpt>
      <trkpt lat="43.43476" lon="-0.3714">
        <ele>212.2</ele>
        <time>2026-08-31T11:57:04Z</time>
      </trkpt>
      <trkpt lat="43.43476" lon="-0.3714">
        <ele>212.2</ele>
        <time>2026-08-31T11:57:05Z</time>
      </trkpt>
      <trkpt lat="43.43476" lon="-0.37139">
        <ele>212.2</ele>
        <time>2026-08-31T11:57:06Z</time>
      </trkpt>
      <trkpt lat="43.43476" lon="-0.37139">
        <ele>212.2</ele>
        <time>2026-08-31T11:57:06Z</time>
      </trkpt>
      <trkpt lat="43.43476" lon="-0.37138">
        <ele>213.2</ele>
        <time>2026-08-31T11:57:07Z</time>
      </trkpt>
      <trkpt lat="43.43476" lon="-0.37138">
        <ele>213.2</ele>
        <time>2026-08-31T11:57:07Z</time>
      </trkpt>
      <trkpt lat="43.43475" lon="-0.37138">
        <ele>212.2</ele>
        <time>2026-08-31T11:57:08Z</time>
      </trkpt>
      <trkpt lat="43.43475" lon="-0.37138">
        <ele>212.2</ele>
        <time>2026-08-31T11:57:09Z</time>
      </trkpt>
      <trkpt lat="43.43474" lon="-0.37138">
        <ele>213.2</ele>
        <time>2026-08-31T11:57:09Z</time>
      </trkpt>
      <trkpt lat="43.43473" lon="-0.37138">
        <ele>213.2</ele>
        <time>2026-08-31T11:57:10Z</time>
      </trkpt>
      <trkpt lat="43.43472" lon="-0.37138">
        <ele>213.2</ele>
        <time>2026-08-31T11:57:10Z</time>
      </trkpt>
      <trkpt lat="43.43472" lon="-0.37138">
        <ele>213.2</ele>
        <time>2026-08-31T11:57:11Z</time>
      </trkpt>
      <trkpt lat="43.43471" lon="-0.37137">
        <ele>213.2</ele>
        <time>2026-08-31T11:57:11Z</time>
      </trkpt>
      <trkpt lat="43.4347" lon="-0.37137">
        <ele>213.2</ele>
        <time>2026-08-31T11:57:12Z</time>
      </trkpt>
      <trkpt lat="43.4347" lon="-0.37137">
        <ele>213.2</ele>
        <time>2026-08-31T11:57:13Z</time>
      </trkpt>
      <trkpt lat="43.43469" lon="-0.37136">
        <ele>214.2</ele>
        <time>2026-08-31T11:57:14Z</time>
      </trkpt>
      <trkpt lat="43.4347" lon="-0.37136">
        <ele>214.2</ele>
        <time>2026-08-31T11:57:15Z</time>
      </trkpt>
      <trkpt lat="43.43471" lon="-0.37137">
        <ele>214.2</ele>
        <time>2026-08-31T11:57:16Z</time>
      </trkpt>
      <trkpt lat="43.43471" lon="-0.37137">
        <ele>214.2</ele>
        <time>2026-08-31T11:57:17Z</time>
      </trkpt>
      <trkpt lat="43.4347" lon="-0.37137">
        <ele>213.2</ele>
        <time>2026-08-31T11:57:18Z</time>
      </trkpt>
      <trkpt lat="43.4347" lon="-0.37137">
        <ele>213.2</ele>
        <time>2026-08-31T11:57:18Z</time>
      </trkpt>
      <trkpt lat="43.43469" lon="-0.37138">
        <ele>213.2</ele>
        <time>2026-08-31T11:57:20Z</time>
      </trkpt>
      <trkpt lat="43.43468" lon="-0.37138">
        <ele>214.2</ele>
        <time>2026-08-31T11:57:21Z</time>
      </trkpt>
      <trkpt lat="43.43467" lon="-0.37137">
        <ele>214.2</ele>
        <time>2026-08-31T11:57:22Z</time>
      </trkpt>
      <trkpt lat="43.43466" lon="-0.37137">
        <ele>214.2</ele>
        <time>2026-08-31T11:57:22Z</time>
      </trkpt>
      <trkpt lat="43.43465" lon="-0.37137">
        <ele>214.2</ele>
        <time>2026-08-31T11:57:23Z</time>
      </trkpt>
      <trkpt lat="43.43464" lon="-0.37136">
        <ele>214.2</ele>
        <time>2026-08-31T11:57:23Z</time>
      </trkpt>
      <trkpt lat="43.43464" lon="-0.37135">
        <ele>215.2</ele>
        <time>2026-08-31T11:57:25Z</time>
      </trkpt>
      <trkpt lat="43.43465" lon="-0.37135">
        <ele>215.2</ele>
        <time>2026-08-31T11:57:26Z</time>
      </trkpt>
      <trkpt lat="43.43466" lon="-0.37136">
        <ele>216.2</ele>
        <time>2026-08-31T11:57:27Z</time>
      </trkpt>
      <trkpt lat="43.43466" lon="-0.37137">
        <ele>217.2</ele>
        <time>2026-08-31T11:57:28Z</time>
      </trkpt>
      <trkpt lat="43.43466" lon="-0.37137">
        <ele>217.2</ele>
        <time>2026-08-31T11:57:29Z</time>
      </trkpt>
      <trkpt lat="43.43466" lon="-0.37137">
        <ele>217.2</ele>
        <time>2026-08-31T11:57:30Z</time>
      </trkpt>
      <trkpt lat="43.43466" lon="-0.37137">
        <ele>216.2</ele>
        <time>2026-08-31T11:57:31Z</time>
      </trkpt>
      <trkpt lat="43.43466" lon="-0.37137">
        <ele>217.2</ele>
        <time>2026-08-31T11:57:32Z</time>
      </trkpt>
      <trkpt lat="43.43466" lon="-0.37137">
        <ele>217.2</ele>
        <time>2026-08-31T11:57:33Z</time>
      </trkpt>
      <trkpt lat="43.43466" lon="-0.37137">
        <ele>217.2</ele>
        <time>2026-08-31T11:57:34Z</time>
      </trkpt>
      <trkpt lat="43.43465" lon="-0.37137">
        <ele>217.2</ele>
        <time>2026-08-31T11:57:34Z</time>
      </trkpt>
      <trkpt lat="43.43465" lon="-0.37136">
        <ele>217.2</ele>
        <time>2026-08-31T11:57:35Z</time>
      </trkpt>
      <trkpt lat="43.43465" lon="-0.37136">
        <ele>217.2</ele>
        <time>2026-08-31T11:57:36Z</time>
      </trkpt>
      <trkpt lat="43.43465" lon="-0.37136">
        <ele>217.2</ele>
        <time>2026-08-31T11:57:36Z</time>
      </trkpt>
      <trkpt lat="43.43464" lon="-0.37136">
        <ele>217.2</ele>
        <time>2026-08-31T11:57:37Z</time>
      </trkpt>
      <trkpt lat="43.43464" lon="-0.37135">
        <ele>218.2</ele>
        <time>2026-08-31T11:57:38Z</time>
      </trkpt>
      <trkpt lat="43.43464" lon="-0.37135">
        <ele>218.2</ele>
        <time>2026-08-31T11:57:39Z</time>
      </trkpt>
      <trkpt lat="43.43464" lon="-0.37135">
        <ele>217.2</ele>
        <time>2026-08-31T11:57:40Z</time>
      </trkpt>
      <trkpt lat="43.43464" lon="-0.37135">
        <ele>217.2</ele>
        <time>2026-08-31T11:57:41Z</time>
      </trkpt>
      <trkpt lat="43.43464" lon="-0.37135">
        <ele>217.2</ele>
        <time>2026-08-31T11:57:42Z</time>
      </trkpt>
      <trkpt lat="43.43464" lon="-0.37135">
        <ele>217.2</ele>
        <time>2026-08-31T11:57:43Z</time>
      </trkpt>
      <trkpt lat="43.43463" lon="-0.37135">
        <ele>216.2</ele>
        <time>2026-08-31T11:57:44Z</time>
      </trkpt>
      <trkpt lat="43.43463" lon="-0.37135">
        <ele>216.2</ele>
        <time>2026-08-31T11:57:45Z</time>
      </trkpt>
      <trkpt lat="43.43463" lon="-0.37135">
        <ele>216.2</ele>
        <time>2026-08-31T11:57:46Z</time>
      </trkpt>
      <trkpt lat="43.43462" lon="-0.37135">
        <ele>216.2</ele>
        <time>2026-08-31T11:57:46Z</time>
      </trkpt>
      <trkpt lat="43.43462" lon="-0.37135">
        <ele>217.2</ele>
        <time>2026-08-31T11:57:47Z</time>
      </trkpt>
      <trkpt lat="43.43461" lon="-0.37135">
        <ele>217.2</ele>
        <time>2026-08-31T11:57:47Z</time>
      </trkpt>
      <trkpt lat="43.4346" lon="-0.37135">
        <ele>217.2</ele>
        <time>2026-08-31T11:57:48Z</time>
      </trkpt>
      <trkpt lat="43.4346" lon="-0.37135">
        <ele>217.2</ele>
        <time>2026-08-31T11:57:48Z</time>
      </trkpt>
      <trkpt lat="43.43459" lon="-0.37135">
        <ele>217.2</ele>
        <time>2026-08-31T11:57:49Z</time>
      </trkpt>
      <trkpt lat="43.43458" lon="-0.37135">
        <ele>217.2</ele>
        <time>2026-08-31T11:57:50Z</time>
      </trkpt>
      <trkpt lat="43.43457" lon="-0.37135">
        <ele>217.2</ele>
        <time>2026-08-31T11:57:50Z</time>
      </trkpt>
      <trkpt lat="43.43456" lon="-0.37134">
        <ele>217.2</ele>
        <time>2026-08-31T11:57:51Z</time>
      </trkpt>
      <trkpt lat="43.43455" lon="-0.37134">
        <ele>217.2</ele>
        <time>2026-08-31T11:57:51Z</time>
      </trkpt>
      <trkpt lat="43.43454" lon="-0.37133">
        <ele>217.2</ele>
        <time>2026-08-31T11:57:52Z</time>
      </trkpt>
      <trkpt lat="43.43454" lon="-0.37132">
        <ele>217.2</ele>
        <time>2026-08-31T11:57:52Z</time>
      </trkpt>
      <trkpt lat="43.43453" lon="-0.37131">
        <ele>217.2</ele>
        <time>2026-08-31T11:57:53Z</time>
      </trkpt>
      <trkpt lat="43.43452" lon="-0.37131">
        <ele>217.2</ele>
        <time>2026-08-31T11:57:54Z</time>
      </trkpt>
      <trkpt lat="43.43452" lon="-0.3713">
        <ele>218.2</ele>
        <time>2026-08-31T11:57:55Z</time>
      </trkpt>
      <trkpt lat="43.43452" lon="-0.37129">
        <ele>218.2</ele>
        <time>2026-08-31T11:57:56Z</time>
      </trkpt>
      <trkpt lat="43.43451" lon="-0.37129">
        <ele>218.2</ele>
        <time>2026-08-31T11:57:56Z</time>
      </trkpt>
      <trkpt lat="43.43451" lon="-0.37129">
        <ele>218.2</ele>
        <time>2026-08-31T11:57:57Z</time>
      </trkpt>
      <trkpt lat="43.4345" lon="-0.3713">
        <ele>217.2</ele>
        <time>2026-08-31T11:57:57Z</time>
      </trkpt>
      <trkpt lat="43.43449" lon="-0.3713">
        <ele>217.2</ele>
        <time>2026-08-31T11:57:58Z</time>
      </trkpt>
      <trkpt lat="43.43448" lon="-0.3713">
        <ele>217.2</ele>
        <time>2026-08-31T11:57:58Z</time>
      </trkpt>
      <trkpt lat="43.43447" lon="-0.37131">
        <ele>217.2</ele>
        <time>2026-08-31T11:57:59Z</time>
      </trkpt>
      <trkpt lat="43.43447" lon="-0.37131">
        <ele>217.2</ele>
        <time>2026-08-31T11:57:59Z</time>
      </trkpt>
      <trkpt lat="43.43446" lon="-0.37131">
        <ele>215.2</ele>
        <time>2026-08-31T11:58:00Z</time>
      </trkpt>
      <trkpt lat="43.43445" lon="-0.37131">
        <ele>215.2</ele>
        <time>2026-08-31T11:58:01Z</time>
      </trkpt>
      <trkpt lat="43.43444" lon="-0.37131">
        <ele>216.2</ele>
        <time>2026-08-31T11:58:01Z</time>
      </trkpt>
      <trkpt lat="43.43444" lon="-0.37132">
        <ele>215.2</ele>
        <time>2026-08-31T11:58:02Z</time>
      </trkpt>
      <trkpt lat="43.43443" lon="-0.37132">
        <ele>215.2</ele>
        <time>2026-08-31T11:58:02Z</time>
      </trkpt>
      <trkpt lat="43.43442" lon="-0.37132">
        <ele>215.2</ele>
        <time>2026-08-31T11:58:03Z</time>
      </trkpt>
      <trkpt lat="43.43441" lon="-0.37132">
        <ele>215.2</ele>
        <time>2026-08-31T11:58:03Z</time>
      </trkpt>
      <trkpt lat="43.43441" lon="-0.37132">
        <ele>216.2</ele>
        <time>2026-08-31T11:58:04Z</time>
      </trkpt>
      <trkpt lat="43.4344" lon="-0.37133">
        <ele>216.2</ele>
        <time>2026-08-31T11:58:05Z</time>
      </trkpt>
      <trkpt lat="43.43439" lon="-0.37133">
        <ele>216.2</ele>
        <time>2026-08-31T11:58:05Z</time>
      </trkpt>
      <trkpt lat="43.43439" lon="-0.37133">
        <ele>216.2</ele>
        <time>2026-08-31T11:58:06Z</time>
      </trkpt>
      <trkpt lat="43.43438" lon="-0.37133">
        <ele>216.2</ele>
        <time>2026-08-31T11:58:06Z</time>
      </trkpt>
      <trkpt lat="43.43438" lon="-0.37134">
        <ele>216.2</ele>
        <time>2026-08-31T11:58:07Z</time>
      </trkpt>
      <trkpt lat="43.43437" lon="-0.37134">
        <ele>216.2</ele>
        <time>2026-08-31T11:58:08Z</time>
      </trkpt>
      <trkpt lat="43.43436" lon="-0.37134">
        <ele>217.2</ele>
        <time>2026-08-31T11:58:08Z</time>
      </trkpt>
      <trkpt lat="43.43436" lon="-0.37134">
        <ele>217.2</ele>
        <time>2026-08-31T11:58:09Z</time>
      </trkpt>
      <trkpt lat="43.43435" lon="-0.37135">
        <ele>217.2</ele>
        <time>2026-08-31T11:58:09Z</time>
      </trkpt>
      <trkpt lat="43.43435" lon="-0.37135">
        <ele>217.2</ele>
        <time>2026-08-31T11:58:10Z</time>
      </trkpt>
      <trkpt lat="43.43434" lon="-0.37135">
        <ele>217.2</ele>
        <time>2026-08-31T11:58:10Z</time>
      </trkpt>
      <trkpt lat="43.43433" lon="-0.37135">
        <ele>217.2</ele>
        <time>2026-08-31T11:58:11Z</time>
      </trkpt>
      <trkpt lat="43.43433" lon="-0.37136">
        <ele>217.2</ele>
        <time>2026-08-31T11:58:12Z</time>
      </trkpt>
      <trkpt lat="43.43432" lon="-0.37136">
        <ele>217.2</ele>
        <time>2026-08-31T11:58:12Z</time>
      </trkpt>
      <trkpt lat="43.43432" lon="-0.37136">
        <ele>217.2</ele>
        <time>2026-08-31T11:58:13Z</time>
      </trkpt>
      <trkpt lat="43.43431" lon="-0.37136">
        <ele>217.2</ele>
        <time>2026-08-31T11:58:13Z</time>
      </trkpt>
      <trkpt lat="43.4343" lon="-0.37136">
        <ele>217.2</ele>
        <time>2026-08-31T11:58:14Z</time>
      </trkpt>
      <trkpt lat="43.4343" lon="-0.37136">
        <ele>217.2</ele>
        <time>2026-08-31T11:58:15Z</time>
      </trkpt>
      <trkpt lat="43.43429" lon="-0.37136">
        <ele>217.2</ele>
        <time>2026-08-31T11:58:15Z</time>
      </trkpt>
      <trkpt lat="43.43429" lon="-0.37136">
        <ele>216.2</ele>
        <time>2026-08-31T11:58:16Z</time>
      </trkpt>
      <trkpt lat="43.43428" lon="-0.37136">
        <ele>216.2</ele>
        <time>2026-08-31T11:58:16Z</time>
      </trkpt>
      <trkpt lat="43.43427" lon="-0.37136">
        <ele>217.2</ele>
        <time>2026-08-31T11:58:17Z</time>
      </trkpt>
      <trkpt lat="43.43427" lon="-0.37137">
        <ele>217.2</ele>
        <time>2026-08-31T11:58:18Z</time>
      </trkpt>
      <trkpt lat="43.43426" lon="-0.37136">
        <ele>216.2</ele>
        <time>2026-08-31T11:58:18Z</time>
      </trkpt>
      <trkpt lat="43.43426" lon="-0.37136">
        <ele>216.2</ele>
        <time>2026-08-31T11:58:19Z</time>
      </trkpt>
      <trkpt lat="43.43425" lon="-0.37136">
        <ele>216.2</ele>
        <time>2026-08-31T11:58:19Z</time>
      </trkpt>
      <trkpt lat="43.43424" lon="-0.37136">
        <ele>216.2</ele>
        <time>2026-08-31T11:58:20Z</time>
      </trkpt>
      <trkpt lat="43.43424" lon="-0.37136">
        <ele>216.2</ele>
        <time>2026-08-31T11:58:21Z</time>
      </trkpt>
      <trkpt lat="43.43423" lon="-0.37136">
        <ele>216.2</ele>
        <time>2026-08-31T11:58:21Z</time>
      </trkpt>
      <trkpt lat="43.43422" lon="-0.37135">
        <ele>215.2</ele>
        <time>2026-08-31T11:58:22Z</time>
      </trkpt>
      <trkpt lat="43.43421" lon="-0.37135">
        <ele>215.2</ele>
        <time>2026-08-31T11:58:22Z</time>
      </trkpt>
      <trkpt lat="43.43421" lon="-0.37134">
        <ele>215.2</ele>
        <time>2026-08-31T11:58:23Z</time>
      </trkpt>
      <trkpt lat="43.4342" lon="-0.37134">
        <ele>215.2</ele>
        <time>2026-08-31T11:58:24Z</time>
      </trkpt>
      <trkpt lat="43.43419" lon="-0.37134">
        <ele>215.2</ele>
        <time>2026-08-31T11:58:24Z</time>
      </trkpt>
      <trkpt lat="43.43419" lon="-0.37133">
        <ele>215.2</ele>
        <time>2026-08-31T11:58:25Z</time>
      </trkpt>
      <trkpt lat="43.43418" lon="-0.37133">
        <ele>216.2</ele>
        <time>2026-08-31T11:58:26Z</time>
      </trkpt>
      <trkpt lat="43.43417" lon="-0.37132">
        <ele>216.2</ele>
        <time>2026-08-31T11:58:27Z</time>
      </trkpt>
      <trkpt lat="43.43417" lon="-0.37132">
        <ele>217.2</ele>
        <time>2026-08-31T11:58:27Z</time>
      </trkpt>
      <trkpt lat="43.43416" lon="-0.37131">
        <ele>216.2</ele>
        <time>2026-08-31T11:58:28Z</time>
      </trkpt>
      <trkpt lat="43.43416" lon="-0.37131">
        <ele>216.2</ele>
        <time>2026-08-31T11:58:29Z</time>
      </trkpt>
      <trkpt lat="43.43415" lon="-0.37131">
        <ele>216.2</ele>
        <time>2026-08-31T11:58:29Z</time>
      </trkpt>
      <trkpt lat="43.43415" lon="-0.3713">
        <ele>216.2</ele>
        <time>2026-08-31T11:58:30Z</time>
      </trkpt>
      <trkpt lat="43.43414" lon="-0.3713">
        <ele>216.2</ele>
        <time>2026-08-31T11:58:31Z</time>
      </trkpt>
      <trkpt lat="43.43414" lon="-0.3713">
        <ele>217.2</ele>
        <time>2026-08-31T11:58:31Z</time>
      </trkpt>
      <trkpt lat="43.43413" lon="-0.3713">
        <ele>216.2</ele>
        <time>2026-08-31T11:58:32Z</time>
      </trkpt>
      <trkpt lat="43.43413" lon="-0.3713">
        <ele>216.2</ele>
        <time>2026-08-31T11:58:32Z</time>
      </trkpt>
      <trkpt lat="43.43412" lon="-0.3713">
        <ele>217.2</ele>
        <time>2026-08-31T11:58:33Z</time>
      </trkpt>
      <trkpt lat="43.43412" lon="-0.3713">
        <ele>217.2</ele>
        <time>2026-08-31T11:58:34Z</time>
      </trkpt>
      <trkpt lat="43.43411" lon="-0.3713">
        <ele>217.2</ele>
        <time>2026-08-31T11:58:34Z</time>
      </trkpt>
      <trkpt lat="43.4341" lon="-0.3713">
        <ele>217.2</ele>
        <time>2026-08-31T11:58:35Z</time>
      </trkpt>
      <trkpt lat="43.4341" lon="-0.3713">
        <ele>217.2</ele>
        <time>2026-08-31T11:58:35Z</time>
      </trkpt>
      <trkpt lat="43.43409" lon="-0.37129">
        <ele>216.2</ele>
        <time>2026-08-31T11:58:36Z</time>
      </trkpt>
      <trkpt lat="43.43409" lon="-0.37129">
        <ele>216.2</ele>
        <time>2026-08-31T11:58:37Z</time>
      </trkpt>
      <trkpt lat="43.43408" lon="-0.37128">
        <ele>216.2</ele>
        <time>2026-08-31T11:58:38Z</time>
      </trkpt>
      <trkpt lat="43.43409" lon="-0.37127">
        <ele>216.2</ele>
        <time>2026-08-31T11:58:38Z</time>
      </trkpt>
      <trkpt lat="43.43408" lon="-0.37127">
        <ele>216.2</ele>
        <time>2026-08-31T11:58:39Z</time>
      </trkpt>
      <trkpt lat="43.43407" lon="-0.37127">
        <ele>216.2</ele>
        <time>2026-08-31T11:58:40Z</time>
      </trkpt>
      <trkpt lat="43.43407" lon="-0.37127">
        <ele>216.2</ele>
        <time>2026-08-31T11:58:40Z</time>
      </trkpt>
      <trkpt lat="43.43406" lon="-0.37127">
        <ele>216.2</ele>
        <time>2026-08-31T11:58:41Z</time>
      </trkpt>
      <trkpt lat="43.43406" lon="-0.37126">
        <ele>216.2</ele>
        <time>2026-08-31T11:58:42Z</time>
      </trkpt>
      <trkpt lat="43.43405" lon="-0.37126">
        <ele>216.2</ele>
        <time>2026-08-31T11:58:42Z</time>
      </trkpt>
      <trkpt lat="43.43404" lon="-0.37127">
        <ele>216.2</ele>
        <time>2026-08-31T11:58:43Z</time>
      </trkpt>
      <trkpt lat="43.43403" lon="-0.37127">
        <ele>216.2</ele>
        <time>2026-08-31T11:58:44Z</time>
      </trkpt>
      <trkpt lat="43.43403" lon="-0.37127">
        <ele>216.2</ele>
        <time>2026-08-31T11:58:44Z</time>
      </trkpt>
      <trkpt lat="43.43402" lon="-0.37127">
        <ele>217.2</ele>
        <time>2026-08-31T11:58:45Z</time>
      </trkpt>
      <trkpt lat="43.43402" lon="-0.37126">
        <ele>217.2</ele>
        <time>2026-08-31T11:58:45Z</time>
      </trkpt>
      <trkpt lat="43.43401" lon="-0.37126">
        <ele>217.2</ele>
        <time>2026-08-31T11:58:46Z</time>
      </trkpt>
      <trkpt lat="43.43401" lon="-0.37126">
        <ele>218.2</ele>
        <time>2026-08-31T11:58:47Z</time>
      </trkpt>
      <trkpt lat="43.434" lon="-0.37126">
        <ele>218.2</ele>
        <time>2026-08-31T11:58:48Z</time>
      </trkpt>
      <trkpt lat="43.434" lon="-0.37126">
        <ele>218.2</ele>
        <time>2026-08-31T11:58:49Z</time>
      </trkpt>
      <trkpt lat="43.434" lon="-0.37127">
        <ele>218.2</ele>
        <time>2026-08-31T11:58:50Z</time>
      </trkpt>
      <trkpt lat="43.434" lon="-0.37127">
        <ele>217.2</ele>
        <time>2026-08-31T11:58:51Z</time>
      </trkpt>
      <trkpt lat="43.434" lon="-0.37127">
        <ele>217.2</ele>
        <time>2026-08-31T11:58:51Z</time>
      </trkpt>
      <trkpt lat="43.43399" lon="-0.37127">
        <ele>218.2</ele>
        <time>2026-08-31T11:58:52Z</time>
      </trkpt>
      <trkpt lat="43.43399" lon="-0.37127">
        <ele>218.2</ele>
        <time>2026-08-31T11:58:53Z</time>
      </trkpt>
      <trkpt lat="43.43399" lon="-0.37127">
        <ele>217.2</ele>
        <time>2026-08-31T11:58:54Z</time>
      </trkpt>
      <trkpt lat="43.43399" lon="-0.37128">
        <ele>218.2</ele>
        <time>2026-08-31T11:58:55Z</time>
      </trkpt>
      <trkpt lat="43.43399" lon="-0.37128">
        <ele>217.2</ele>
        <time>2026-08-31T11:58:56Z</time>
      </trkpt>
      <trkpt lat="43.43399" lon="-0.37128">
        <ele>217.2</ele>
        <time>2026-08-31T11:58:57Z</time>
      </trkpt>
      <trkpt lat="43.43399" lon="-0.37128">
        <ele>218.2</ele>
        <time>2026-08-31T11:58:58Z</time>
      </trkpt>
      <trkpt lat="43.43399" lon="-0.37128">
        <ele>218.2</ele>
        <time>2026-08-31T11:58:59Z</time>
      </trkpt>
      <trkpt lat="43.43399" lon="-0.37128">
        <ele>219.2</ele>
        <time>2026-08-31T11:59:00Z</time>
      </trkpt>
      <trkpt lat="43.43399" lon="-0.37128">
        <ele>220.2</ele>
        <time>2026-08-31T11:59:01Z</time>
      </trkpt>
      <trkpt lat="43.43399" lon="-0.37128">
        <ele>220.2</ele>
        <time>2026-08-31T11:59:01Z</time>
      </trkpt>
      <trkpt lat="43.43398" lon="-0.37128">
        <ele>220.2</ele>
        <time>2026-08-31T11:59:02Z</time>
      </trkpt>
      <trkpt lat="43.43398" lon="-0.37127">
        <ele>220.2</ele>
        <time>2026-08-31T11:59:02Z</time>
      </trkpt>
      <trkpt lat="43.43398" lon="-0.37127">
        <ele>220.2</ele>
        <time>2026-08-31T11:59:03Z</time>
      </trkpt>
      <trkpt lat="43.43398" lon="-0.37127">
        <ele>220.2</ele>
        <time>2026-08-31T11:59:04Z</time>
      </trkpt>
      <trkpt lat="43.43398" lon="-0.37127">
        <ele>220.2</ele>
        <time>2026-08-31T11:59:04Z</time>
      </trkpt>
      <trkpt lat="43.43398" lon="-0.37127">
        <ele>220.2</ele>
        <time>2026-08-31T11:59:05Z</time>
      </trkpt>
      <trkpt lat="43.43398" lon="-0.37127">
        <ele>221.2</ele>
        <time>2026-08-31T11:59:06Z</time>
      </trkpt>
      <trkpt lat="43.43398" lon="-0.37127">
        <ele>221.2</ele>
        <time>2026-08-31T11:59:07Z</time>
      </trkpt>
      <trkpt lat="43.43398" lon="-0.37127">
        <ele>221.2</ele>
        <time>2026-08-31T11:59:07Z</time>
      </trkpt>
      <trkpt lat="43.43397" lon="-0.37127">
        <ele>221.2</ele>
        <time>2026-08-31T11:59:08Z</time>
      </trkpt>
      <trkpt lat="43.43397" lon="-0.37127">
        <ele>221.2</ele>
        <time>2026-08-31T11:59:08Z</time>
      </trkpt>
      <trkpt lat="43.43397" lon="-0.37126">
        <ele>222.2</ele>
        <time>2026-08-31T11:59:09Z</time>
      </trkpt>
      <trkpt lat="43.43396" lon="-0.37126">
        <ele>222.2</ele>
        <time>2026-08-31T11:59:10Z</time>
      </trkpt>
      <trkpt lat="43.43396" lon="-0.37126">
        <ele>222.2</ele>
        <time>2026-08-31T11:59:10Z</time>
      </trkpt>
      <trkpt lat="43.43395" lon="-0.37126">
        <ele>222.2</ele>
        <time>2026-08-31T11:59:11Z</time>
      </trkpt>
      <trkpt lat="43.43394" lon="-0.37125">
        <ele>222.2</ele>
        <time>2026-08-31T11:59:11Z</time>
      </trkpt>
      <trkpt lat="43.43392" lon="-0.37125">
        <ele>222.2</ele>
        <time>2026-08-31T11:59:12Z</time>
      </trkpt>
      <trkpt lat="43.43391" lon="-0.37125">
        <ele>222.2</ele>
        <time>2026-08-31T11:59:13Z</time>
      </trkpt>
      <trkpt lat="43.43389" lon="-0.37124">
        <ele>222.2</ele>
        <time>2026-08-31T11:59:13Z</time>
      </trkpt>
      <trkpt lat="43.43388" lon="-0.37124">
        <ele>222.2</ele>
        <time>2026-08-31T11:59:15Z</time>
      </trkpt>
      <trkpt lat="43.43387" lon="-0.37124">
        <ele>222.2</ele>
        <time>2026-08-31T11:59:16Z</time>
      </trkpt>
      <trkpt lat="43.43387" lon="-0.37125">
        <ele>222.2</ele>
        <time>2026-08-31T11:59:17Z</time>
      </trkpt>
      <trkpt lat="43.43388" lon="-0.37125">
        <ele>221.2</ele>
        <time>2026-08-31T11:59:18Z</time>
      </trkpt>
      <trkpt lat="43.43388" lon="-0.37125">
        <ele>221.2</ele>
        <time>2026-08-31T11:59:18Z</time>
      </trkpt>
      <trkpt lat="43.43388" lon="-0.37125">
        <ele>221.2</ele>
        <time>2026-08-31T11:59:19Z</time>
      </trkpt>
      <trkpt lat="43.43388" lon="-0.37125">
        <ele>222.2</ele>
        <time>2026-08-31T11:59:20Z</time>
      </trkpt>
      <trkpt lat="43.43388" lon="-0.37124">
        <ele>222.2</ele>
        <time>2026-08-31T11:59:20Z</time>
      </trkpt>
      <trkpt lat="43.43387" lon="-0.37124">
        <ele>222.2</ele>
        <time>2026-08-31T11:59:21Z</time>
      </trkpt>
      <trkpt lat="43.43387" lon="-0.37124">
        <ele>222.2</ele>
        <time>2026-08-31T11:59:22Z</time>
      </trkpt>
      <trkpt lat="43.43386" lon="-0.37124">
        <ele>222.2</ele>
        <time>2026-08-31T11:59:22Z</time>
      </trkpt>
      <trkpt lat="43.43386" lon="-0.37123">
        <ele>222.2</ele>
        <time>2026-08-31T11:59:23Z</time>
      </trkpt>
      <trkpt lat="43.43385" lon="-0.37123">
        <ele>222.2</ele>
        <time>2026-08-31T11:59:23Z</time>
      </trkpt>
      <trkpt lat="43.43384" lon="-0.37122">
        <ele>222.2</ele>
        <time>2026-08-31T11:59:24Z</time>
      </trkpt>
      <trkpt lat="43.43383" lon="-0.37122">
        <ele>222.2</ele>
        <time>2026-08-31T11:59:25Z</time>
      </trkpt>
      <trkpt lat="43.43381" lon="-0.37121">
        <ele>222.2</ele>
        <time>2026-08-31T11:59:25Z</time>
      </trkpt>
      <trkpt lat="43.4338" lon="-0.3712">
        <ele>222.2</ele>
        <time>2026-08-31T11:59:26Z</time>
      </trkpt>
      <trkpt lat="43.43379" lon="-0.3712">
        <ele>222.2</ele>
        <time>2026-08-31T11:59:27Z</time>
      </trkpt>
      <trkpt lat="43.43378" lon="-0.37119">
        <ele>222.2</ele>
        <time>2026-08-31T11:59:27Z</time>
      </trkpt>
      <trkpt lat="43.43378" lon="-0.37118">
        <ele>222.2</ele>
        <time>2026-08-31T11:59:28Z</time>
      </trkpt>
      <trkpt lat="43.43378" lon="-0.37118">
        <ele>221.2</ele>
        <time>2026-08-31T11:59:29Z</time>
      </trkpt>
      <trkpt lat="43.43378" lon="-0.37117">
        <ele>222.2</ele>
        <time>2026-08-31T11:59:30Z</time>
      </trkpt>
      <trkpt lat="43.43379" lon="-0.37116">
        <ele>223.2</ele>
        <time>2026-08-31T11:59:31Z</time>
      </trkpt>
      <trkpt lat="43.43379" lon="-0.37116">
        <ele>223.2</ele>
        <time>2026-08-31T11:59:32Z</time>
      </trkpt>
      <trkpt lat="43.43378" lon="-0.37116">
        <ele>222.2</ele>
        <time>2026-08-31T11:59:32Z</time>
      </trkpt>
      <trkpt lat="43.43378" lon="-0.37115">
        <ele>222.2</ele>
        <time>2026-08-31T11:59:33Z</time>
      </trkpt>
      <trkpt lat="43.43377" lon="-0.37115">
        <ele>222.2</ele>
        <time>2026-08-31T11:59:34Z</time>
      </trkpt>
      <trkpt lat="43.43376" lon="-0.37115">
        <ele>222.2</ele>
        <time>2026-08-31T11:59:34Z</time>
      </trkpt>
      <trkpt lat="43.43376" lon="-0.37115">
        <ele>221.2</ele>
        <time>2026-08-31T11:59:35Z</time>
      </trkpt>
      <trkpt lat="43.43375" lon="-0.37114">
        <ele>221.2</ele>
        <time>2026-08-31T11:59:35Z</time>
      </trkpt>
      <trkpt lat="43.43374" lon="-0.37114">
        <ele>221.2</ele>
        <time>2026-08-31T11:59:36Z</time>
      </trkpt>
      <trkpt lat="43.43373" lon="-0.37114">
        <ele>220.2</ele>
        <time>2026-08-31T11:59:37Z</time>
      </trkpt>
      <trkpt lat="43.43373" lon="-0.37114">
        <ele>220.2</ele>
        <time>2026-08-31T11:59:37Z</time>
      </trkpt>
      <trkpt lat="43.43372" lon="-0.37114">
        <ele>220.2</ele>
        <time>2026-08-31T11:59:38Z</time>
      </trkpt>
      <trkpt lat="43.43371" lon="-0.37114">
        <ele>220.2</ele>
        <time>2026-08-31T11:59:39Z</time>
      </trkpt>
      <trkpt lat="43.4337" lon="-0.37113">
        <ele>220.2</ele>
        <time>2026-08-31T11:59:39Z</time>
      </trkpt>
      <trkpt lat="43.4337" lon="-0.37113">
        <ele>220.2</ele>
        <time>2026-08-31T11:59:40Z</time>
      </trkpt>
      <trkpt lat="43.43369" lon="-0.37113">
        <ele>220.2</ele>
        <time>2026-08-31T11:59:40Z</time>
      </trkpt>
      <trkpt lat="43.43368" lon="-0.37113">
        <ele>219.2</ele>
        <time>2026-08-31T11:59:41Z</time>
      </trkpt>
      <trkpt lat="43.43368" lon="-0.37112">
        <ele>219.2</ele>
        <time>2026-08-31T11:59:42Z</time>
      </trkpt>
      <trkpt lat="43.43367" lon="-0.37112">
        <ele>219.2</ele>
        <time>2026-08-31T11:59:42Z</time>
      </trkpt>
      <trkpt lat="43.43367" lon="-0.37111">
        <ele>219.2</ele>
        <time>2026-08-31T11:59:43Z</time>
      </trkpt>
      <trkpt lat="43.43366" lon="-0.37111">
        <ele>219.2</ele>
        <time>2026-08-31T11:59:43Z</time>
      </trkpt>
      <trkpt lat="43.43365" lon="-0.37111">
        <ele>219.2</ele>
        <time>2026-08-31T11:59:44Z</time>
      </trkpt>
      <trkpt lat="43.43365" lon="-0.3711">
        <ele>219.2</ele>
        <time>2026-08-31T11:59:45Z</time>
      </trkpt>
      <trkpt lat="43.43364" lon="-0.3711">
        <ele>218.2</ele>
        <time>2026-08-31T11:59:45Z</time>
      </trkpt>
      <trkpt lat="43.43364" lon="-0.3711">
        <ele>219.2</ele>
        <time>2026-08-31T11:59:46Z</time>
      </trkpt>
      <trkpt lat="43.43362" lon="-0.3711">
        <ele>218.2</ele>
        <time>2026-08-31T11:59:47Z</time>
      </trkpt>
      <trkpt lat="43.43362" lon="-0.37109">
        <ele>218.2</ele>
        <time>2026-08-31T11:59:47Z</time>
      </trkpt>
      <trkpt lat="43.43361" lon="-0.37109">
        <ele>219.2</ele>
        <time>2026-08-31T11:59:48Z</time>
      </trkpt>
      <trkpt lat="43.4336" lon="-0.37108">
        <ele>219.2</ele>
        <time>2026-08-31T11:59:49Z</time>
      </trkpt>
      <trkpt lat="43.4336" lon="-0.37108">
        <ele>219.2</ele>
        <time>2026-08-31T11:59:49Z</time>
      </trkpt>
      <trkpt lat="43.43359" lon="-0.37107">
        <ele>219.2</ele>
        <time>2026-08-31T11:59:50Z</time>
      </trkpt>
      <trkpt lat="43.43358" lon="-0.37107">
        <ele>219.2</ele>
        <time>2026-08-31T11:59:50Z</time>
      </trkpt>
      <trkpt lat="43.43358" lon="-0.37106">
        <ele>219.2</ele>
        <time>2026-08-31T11:59:51Z</time>
      </trkpt>
      <trkpt lat="43.43357" lon="-0.37106">
        <ele>219.2</ele>
        <time>2026-08-31T11:59:51Z</time>
      </trkpt>
      <trkpt lat="43.43356" lon="-0.37105">
        <ele>219.2</ele>
        <time>2026-08-31T11:59:52Z</time>
      </trkpt>
      <trkpt lat="43.43356" lon="-0.37105">
        <ele>219.2</ele>
        <time>2026-08-31T11:59:53Z</time>
      </trkpt>
      <trkpt lat="43.43355" lon="-0.37104">
        <ele>219.2</ele>
        <time>2026-08-31T11:59:53Z</time>
      </trkpt>
      <trkpt lat="43.43354" lon="-0.37105">
        <ele>218.2</ele>
        <time>2026-08-31T11:59:55Z</time>
      </trkpt>
      <trkpt lat="43.43353" lon="-0.37104">
        <ele>218.2</ele>
        <time>2026-08-31T11:59:56Z</time>
      </trkpt>
      <trkpt lat="43.43354" lon="-0.37105">
        <ele>218.2</ele>
        <time>2026-08-31T11:59:56Z</time>
      </trkpt>
      <trkpt lat="43.43355" lon="-0.37105">
        <ele>217.2</ele>
        <time>2026-08-31T11:59:57Z</time>
      </trkpt>
      <trkpt lat="43.43355" lon="-0.37104">
        <ele>217.2</ele>
        <time>2026-08-31T11:59:57Z</time>
      </trkpt>
      <trkpt lat="43.43355" lon="-0.37104">
        <ele>217.2</ele>
        <time>2026-08-31T11:59:58Z</time>
      </trkpt>
      <trkpt lat="43.43355" lon="-0.37104">
        <ele>217.2</ele>
        <time>2026-08-31T11:59:58Z</time>
      </trkpt>
      <trkpt lat="43.43354" lon="-0.37104">
        <ele>217.2</ele>
        <time>2026-08-31T12:00:00Z</time>
      </trkpt>
      <trkpt lat="43.43353" lon="-0.37104">
        <ele>217.2</ele>
        <time>2026-08-31T12:00:01Z</time>
      </trkpt>
      <trkpt lat="43.43353" lon="-0.37104">
        <ele>217.2</ele>
        <time>2026-08-31T12:00:02Z</time>
      </trkpt>
      <trkpt lat="43.43353" lon="-0.37104">
        <ele>217.2</ele>
        <time>2026-08-31T12:00:03Z</time>
      </trkpt>
      <trkpt lat="43.43353" lon="-0.37104">
        <ele>218.2</ele>
        <time>2026-08-31T12:00:04Z</time>
      </trkpt>
      <trkpt lat="43.43353" lon="-0.37104">
        <ele>218.2</ele>
        <time>2026-08-31T12:00:05Z</time>
      </trkpt>
      <trkpt lat="43.43354" lon="-0.37104">
        <ele>218.2</ele>
        <time>2026-08-31T12:00:06Z</time>
      </trkpt>
      <trkpt lat="43.43354" lon="-0.37104">
        <ele>218.2</ele>
        <time>2026-08-31T12:00:07Z</time>
      </trkpt>
      <trkpt lat="43.43354" lon="-0.37103">
        <ele>219.2</ele>
        <time>2026-08-31T12:00:08Z</time>
      </trkpt>
      <trkpt lat="43.43354" lon="-0.37103">
        <ele>219.2</ele>
        <time>2026-08-31T12:00:08Z</time>
      </trkpt>
      <trkpt lat="43.43354" lon="-0.37102">
        <ele>218.2</ele>
        <time>2026-08-31T12:00:09Z</time>
      </trkpt>
      <trkpt lat="43.43354" lon="-0.37102">
        <ele>218.2</ele>
        <time>2026-08-31T12:00:10Z</time>
      </trkpt>
      <trkpt lat="43.43354" lon="-0.37102">
        <ele>218.2</ele>
        <time>2026-08-31T12:00:10Z</time>
      </trkpt>
      <trkpt lat="43.43354" lon="-0.37102">
        <ele>218.2</ele>
        <time>2026-08-31T12:00:11Z</time>
      </trkpt>
      <trkpt lat="43.43353" lon="-0.37101">
        <ele>219.2</ele>
        <time>2026-08-31T12:00:11Z</time>
      </trkpt>
      <trkpt lat="43.43353" lon="-0.371">
        <ele>219.2</ele>
        <time>2026-08-31T12:00:12Z</time>
      </trkpt>
      <trkpt lat="43.43351" lon="-0.37099">
        <ele>219.2</ele>
        <time>2026-08-31T12:00:12Z</time>
      </trkpt>
      <trkpt lat="43.4335" lon="-0.37098">
        <ele>219.2</ele>
        <time>2026-08-31T12:00:13Z</time>
      </trkpt>
      <trkpt lat="43.43349" lon="-0.37098">
        <ele>219.2</ele>
        <time>2026-08-31T12:00:14Z</time>
      </trkpt>
      <trkpt lat="43.43348" lon="-0.37097">
        <ele>219.2</ele>
        <time>2026-08-31T12:00:14Z</time>
      </trkpt>
      <trkpt lat="43.43347" lon="-0.37096">
        <ele>219.2</ele>
        <time>2026-08-31T12:00:16Z</time>
      </trkpt>
      <trkpt lat="43.43347" lon="-0.37095">
        <ele>220.2</ele>
        <time>2026-08-31T12:00:17Z</time>
      </trkpt>
      <trkpt lat="43.43348" lon="-0.37096">
        <ele>220.2</ele>
        <time>2026-08-31T12:00:18Z</time>
      </trkpt>
      <trkpt lat="43.4335" lon="-0.37097">
        <ele>220.2</ele>
        <time>2026-08-31T12:00:19Z</time>
      </trkpt>
      <trkpt lat="43.43351" lon="-0.37098">
        <ele>220.2</ele>
        <time>2026-08-31T12:00:19Z</time>
      </trkpt>
      <trkpt lat="43.43352" lon="-0.37098">
        <ele>220.2</ele>
        <time>2026-08-31T12:00:20Z</time>
      </trkpt>
      <trkpt lat="43.43352" lon="-0.37098">
        <ele>220.2</ele>
        <time>2026-08-31T12:00:21Z</time>
      </trkpt>
      <trkpt lat="43.43351" lon="-0.37097">
        <ele>220.2</ele>
        <time>2026-08-31T12:00:22Z</time>
      </trkpt>
      <trkpt lat="43.43351" lon="-0.37097">
        <ele>220.2</ele>
        <time>2026-08-31T12:00:23Z</time>
      </trkpt>
      <trkpt lat="43.4335" lon="-0.37096">
        <ele>220.2</ele>
        <time>2026-08-31T12:00:24Z</time>
      </trkpt>
      <trkpt lat="43.4335" lon="-0.37096">
        <ele>220.2</ele>
        <time>2026-08-31T12:00:24Z</time>
      </trkpt>
      <trkpt lat="43.4335" lon="-0.37096">
        <ele>221.2</ele>
        <time>2026-08-31T12:00:26Z</time>
      </trkpt>
      <trkpt lat="43.4335" lon="-0.37096">
        <ele>221.2</ele>
        <time>2026-08-31T12:00:26Z</time>
      </trkpt>
      <trkpt lat="43.43349" lon="-0.37095">
        <ele>220.2</ele>
        <time>2026-08-31T12:00:27Z</time>
      </trkpt>
      <trkpt lat="43.43349" lon="-0.37095">
        <ele>220.2</ele>
        <time>2026-08-31T12:00:27Z</time>
      </trkpt>
      <trkpt lat="43.43348" lon="-0.37094">
        <ele>220.2</ele>
        <time>2026-08-31T12:00:28Z</time>
      </trkpt>
      <trkpt lat="43.43347" lon="-0.37093">
        <ele>220.2</ele>
        <time>2026-08-31T12:00:29Z</time>
      </trkpt>
      <trkpt lat="43.43347" lon="-0.37093">
        <ele>220.2</ele>
        <time>2026-08-31T12:00:29Z</time>
      </trkpt>
      <trkpt lat="43.43346" lon="-0.37092">
        <ele>220.2</ele>
        <time>2026-08-31T12:00:30Z</time>
      </trkpt>
      <trkpt lat="43.43345" lon="-0.37092">
        <ele>220.2</ele>
        <time>2026-08-31T12:00:30Z</time>
      </trkpt>
      <trkpt lat="43.43343" lon="-0.3709">
        <ele>220.2</ele>
        <time>2026-08-31T12:00:32Z</time>
      </trkpt>
      <trkpt lat="43.43343" lon="-0.3709">
        <ele>220.2</ele>
        <time>2026-08-31T12:00:33Z</time>
      </trkpt>
      <trkpt lat="43.43342" lon="-0.3709">
        <ele>220.2</ele>
        <time>2026-08-31T12:00:33Z</time>
      </trkpt>
      <trkpt lat="43.43342" lon="-0.37089">
        <ele>220.2</ele>
        <time>2026-08-31T12:00:35Z</time>
      </trkpt>
      <trkpt lat="43.43341" lon="-0.37089">
        <ele>220.2</ele>
        <time>2026-08-31T12:00:36Z</time>
      </trkpt>
      <trkpt lat="43.43341" lon="-0.37089">
        <ele>220.2</ele>
        <time>2026-08-31T12:00:37Z</time>
      </trkpt>
      <trkpt lat="43.4334" lon="-0.3709">
        <ele>220.2</ele>
        <time>2026-08-31T12:00:38Z</time>
      </trkpt>
      <trkpt lat="43.4334" lon="-0.3709">
        <ele>220.2</ele>
        <time>2026-08-31T12:00:39Z</time>
      </trkpt>
      <trkpt lat="43.43341" lon="-0.3709">
        <ele>220.2</ele>
        <time>2026-08-31T12:00:39Z</time>
      </trkpt>
      <trkpt lat="43.43341" lon="-0.3709">
        <ele>220.2</ele>
        <time>2026-08-31T12:00:40Z</time>
      </trkpt>
      <trkpt lat="43.43341" lon="-0.3709">
        <ele>221.2</ele>
        <time>2026-08-31T12:00:41Z</time>
      </trkpt>
      <trkpt lat="43.43341" lon="-0.3709">
        <ele>221.2</ele>
        <time>2026-08-31T12:00:42Z</time>
      </trkpt>
      <trkpt lat="43.43341" lon="-0.37089">
        <ele>221.2</ele>
        <time>2026-08-31T12:00:43Z</time>
      </trkpt>
      <trkpt lat="43.43341" lon="-0.37089">
        <ele>221.2</ele>
        <time>2026-08-31T12:00:43Z</time>
      </trkpt>
      <trkpt lat="43.4334" lon="-0.37089">
        <ele>221.2</ele>
        <time>2026-08-31T12:00:44Z</time>
      </trkpt>
      <trkpt lat="43.4334" lon="-0.37089">
        <ele>221.2</ele>
        <time>2026-08-31T12:00:44Z</time>
      </trkpt>
      <trkpt lat="43.4334" lon="-0.37089">
        <ele>222.2</ele>
        <time>2026-08-31T12:00:45Z</time>
      </trkpt>
      <trkpt lat="43.4334" lon="-0.37089">
        <ele>222.2</ele>
        <time>2026-08-31T12:00:46Z</time>
      </trkpt>
      <trkpt lat="43.4334" lon="-0.37088">
        <ele>222.2</ele>
        <time>2026-08-31T12:00:46Z</time>
      </trkpt>
      <trkpt lat="43.4334" lon="-0.37088">
        <ele>222.2</ele>
        <time>2026-08-31T12:00:47Z</time>
      </trkpt>
      <trkpt lat="43.4334" lon="-0.37088">
        <ele>222.2</ele>
        <time>2026-08-31T12:00:48Z</time>
      </trkpt>
      <trkpt lat="43.4334" lon="-0.37088">
        <ele>222.2</ele>
        <time>2026-08-31T12:00:49Z</time>
      </trkpt>
      <trkpt lat="43.4334" lon="-0.37088">
        <ele>222.2</ele>
        <time>2026-08-31T12:00:50Z</time>
      </trkpt>
      <trkpt lat="43.4334" lon="-0.37088">
        <ele>224.2</ele>
        <time>2026-08-31T12:00:51Z</time>
      </trkpt>
      <trkpt lat="43.4334" lon="-0.37088">
        <ele>224.2</ele>
        <time>2026-08-31T12:00:51Z</time>
      </trkpt>
      <trkpt lat="43.43339" lon="-0.37088">
        <ele>224.2</ele>
        <time>2026-08-31T12:00:52Z</time>
      </trkpt>
      <trkpt lat="43.43339" lon="-0.37088">
        <ele>224.2</ele>
        <time>2026-08-31T12:00:53Z</time>
      </trkpt>
      <trkpt lat="43.43339" lon="-0.37088">
        <ele>224.2</ele>
        <time>2026-08-31T12:00:53Z</time>
      </trkpt>
      <trkpt lat="43.43338" lon="-0.37087">
        <ele>224.2</ele>
        <time>2026-08-31T12:00:55Z</time>
      </trkpt>
      <trkpt lat="43.43337" lon="-0.37087">
        <ele>224.2</ele>
        <time>2026-08-31T12:00:55Z</time>
      </trkpt>
      <trkpt lat="43.43336" lon="-0.37087">
        <ele>223.2</ele>
        <time>2026-08-31T12:00:56Z</time>
      </trkpt>
      <trkpt lat="43.43336" lon="-0.37087">
        <ele>223.2</ele>
        <time>2026-08-31T12:00:57Z</time>
      </trkpt>
      <trkpt lat="43.43335" lon="-0.37086">
        <ele>223.2</ele>
        <time>2026-08-31T12:00:58Z</time>
      </trkpt>
      <trkpt lat="43.43335" lon="-0.37087">
        <ele>223.2</ele>
        <time>2026-08-31T12:00:59Z</time>
      </trkpt>
      <trkpt lat="43.43335" lon="-0.37087">
        <ele>223.2</ele>
        <time>2026-08-31T12:00:59Z</time>
      </trkpt>
      <trkpt lat="43.43335" lon="-0.37087">
        <ele>222.2</ele>
        <time>2026-08-31T12:01:00Z</time>
      </trkpt>
      <trkpt lat="43.43335" lon="-0.37087">
        <ele>222.2</ele>
        <time>2026-08-31T12:01:01Z</time>
      </trkpt>
      <trkpt lat="43.43335" lon="-0.37087">
        <ele>222.2</ele>
        <time>2026-08-31T12:01:01Z</time>
      </trkpt>
      <trkpt lat="43.43334" lon="-0.37087">
        <ele>222.2</ele>
        <time>2026-08-31T12:01:02Z</time>
      </trkpt>
      <trkpt lat="43.43334" lon="-0.37087">
        <ele>222.2</ele>
        <time>2026-08-31T12:01:02Z</time>
      </trkpt>
      <trkpt lat="43.43334" lon="-0.37087">
        <ele>222.2</ele>
        <time>2026-08-31T12:01:03Z</time>
      </trkpt>
      <trkpt lat="43.43334" lon="-0.37087">
        <ele>222.2</ele>
        <time>2026-08-31T12:01:03Z</time>
      </trkpt>
      <trkpt lat="43.43333" lon="-0.37086">
        <ele>222.2</ele>
        <time>2026-08-31T12:01:04Z</time>
      </trkpt>
      <trkpt lat="43.43333" lon="-0.37086">
        <ele>221.2</ele>
        <time>2026-08-31T12:01:05Z</time>
      </trkpt>
      <trkpt lat="43.43331" lon="-0.37085">
        <ele>221.2</ele>
        <time>2026-08-31T12:01:05Z</time>
      </trkpt>
      <trkpt lat="43.43329" lon="-0.37084">
        <ele>221.2</ele>
        <time>2026-08-31T12:01:06Z</time>
      </trkpt>
      <trkpt lat="43.43329" lon="-0.37083">
        <ele>221.2</ele>
        <time>2026-08-31T12:01:07Z</time>
      </trkpt>
      <trkpt lat="43.43327" lon="-0.37082">
        <ele>221.2</ele>
        <time>2026-08-31T12:01:07Z</time>
      </trkpt>
      <trkpt lat="43.43326" lon="-0.37082">
        <ele>221.2</ele>
        <time>2026-08-31T12:01:08Z</time>
      </trkpt>
      <trkpt lat="43.43325" lon="-0.37082">
        <ele>221.2</ele>
        <time>2026-08-31T12:01:09Z</time>
      </trkpt>
      <trkpt lat="43.43324" lon="-0.37082">
        <ele>221.2</ele>
        <time>2026-08-31T12:01:09Z</time>
      </trkpt>
      <trkpt lat="43.43323" lon="-0.37082">
        <ele>222.2</ele>
        <time>2026-08-31T12:01:10Z</time>
      </trkpt>
      <trkpt lat="43.43322" lon="-0.37082">
        <ele>222.2</ele>
        <time>2026-08-31T12:01:10Z</time>
      </trkpt>
      <trkpt lat="43.43322" lon="-0.37082">
        <ele>222.2</ele>
        <time>2026-08-31T12:01:11Z</time>
      </trkpt>
      <trkpt lat="43.43321" lon="-0.37082">
        <ele>222.2</ele>
        <time>2026-08-31T12:01:12Z</time>
      </trkpt>
      <trkpt lat="43.4332" lon="-0.37082">
        <ele>222.2</ele>
        <time>2026-08-31T12:01:12Z</time>
      </trkpt>
      <trkpt lat="43.43319" lon="-0.37082">
        <ele>222.2</ele>
        <time>2026-08-31T12:01:13Z</time>
      </trkpt>
      <trkpt lat="43.43318" lon="-0.37083">
        <ele>222.2</ele>
        <time>2026-08-31T12:01:14Z</time>
      </trkpt>
      <trkpt lat="43.43317" lon="-0.37083">
        <ele>222.2</ele>
        <time>2026-08-31T12:01:14Z</time>
      </trkpt>
      <trkpt lat="43.43317" lon="-0.37083">
        <ele>222.2</ele>
        <time>2026-08-31T12:01:15Z</time>
      </trkpt>
      <trkpt lat="43.43316" lon="-0.37083">
        <ele>222.2</ele>
        <time>2026-08-31T12:01:16Z</time>
      </trkpt>
      <trkpt lat="43.43315" lon="-0.37083">
        <ele>222.2</ele>
        <time>2026-08-31T12:01:16Z</time>
      </trkpt>
      <trkpt lat="43.43315" lon="-0.37083">
        <ele>222.2</ele>
        <time>2026-08-31T12:01:17Z</time>
      </trkpt>
      <trkpt lat="43.43314" lon="-0.37083">
        <ele>222.2</ele>
        <time>2026-08-31T12:01:18Z</time>
      </trkpt>
      <trkpt lat="43.43313" lon="-0.37083">
        <ele>222.2</ele>
        <time>2026-08-31T12:01:18Z</time>
      </trkpt>
      <trkpt lat="43.43313" lon="-0.37083">
        <ele>222.2</ele>
        <time>2026-08-31T12:01:19Z</time>
      </trkpt>
      <trkpt lat="43.43312" lon="-0.37083">
        <ele>222.2</ele>
        <time>2026-08-31T12:01:20Z</time>
      </trkpt>
      <trkpt lat="43.43311" lon="-0.37083">
        <ele>222.2</ele>
        <time>2026-08-31T12:01:20Z</time>
      </trkpt>
      <trkpt lat="43.43311" lon="-0.37083">
        <ele>221.2</ele>
        <time>2026-08-31T12:01:21Z</time>
      </trkpt>
      <trkpt lat="43.4331" lon="-0.37083">
        <ele>222.2</ele>
        <time>2026-08-31T12:01:22Z</time>
      </trkpt>
      <trkpt lat="43.4331" lon="-0.37084">
        <ele>222.2</ele>
        <time>2026-08-31T12:01:23Z</time>
      </trkpt>
      <trkpt lat="43.43309" lon="-0.37084">
        <ele>222.2</ele>
        <time>2026-08-31T12:01:23Z</time>
      </trkpt>
      <trkpt lat="43.43309" lon="-0.37083">
        <ele>222.2</ele>
        <time>2026-08-31T12:01:24Z</time>
      </trkpt>
      <trkpt lat="43.43308" lon="-0.37083">
        <ele>222.2</ele>
        <time>2026-08-31T12:01:25Z</time>
      </trkpt>
      <trkpt lat="43.43308" lon="-0.37083">
        <ele>222.2</ele>
        <time>2026-08-31T12:01:26Z</time>
      </trkpt>
      <trkpt lat="43.43307" lon="-0.37082">
        <ele>222.2</ele>
        <time>2026-08-31T12:01:27Z</time>
      </trkpt>
      <trkpt lat="43.43308" lon="-0.37081">
        <ele>223.2</ele>
        <time>2026-08-31T12:01:28Z</time>
      </trkpt>
      <trkpt lat="43.43307" lon="-0.37082">
        <ele>223.2</ele>
        <time>2026-08-31T12:01:28Z</time>
      </trkpt>
      <trkpt lat="43.43307" lon="-0.37082">
        <ele>223.2</ele>
        <time>2026-08-31T12:01:29Z</time>
      </trkpt>
      <trkpt lat="43.43307" lon="-0.37083">
        <ele>223.2</ele>
        <time>2026-08-31T12:01:30Z</time>
      </trkpt>
      <trkpt lat="43.43306" lon="-0.37083">
        <ele>223.2</ele>
        <time>2026-08-31T12:01:31Z</time>
      </trkpt>
      <trkpt lat="43.43306" lon="-0.37083">
        <ele>223.2</ele>
        <time>2026-08-31T12:01:31Z</time>
      </trkpt>
      <trkpt lat="43.43305" lon="-0.37083">
        <ele>223.2</ele>
        <time>2026-08-31T12:01:32Z</time>
      </trkpt>
      <trkpt lat="43.43304" lon="-0.37084">
        <ele>223.2</ele>
        <time>2026-08-31T12:01:33Z</time>
      </trkpt>
      <trkpt lat="43.43304" lon="-0.37084">
        <ele>223.2</ele>
        <time>2026-08-31T12:01:33Z</time>
      </trkpt>
      <trkpt lat="43.43303" lon="-0.37083">
        <ele>223.2</ele>
        <time>2026-08-31T12:01:34Z</time>
      </trkpt>
      <trkpt lat="43.43303" lon="-0.37083">
        <ele>224.2</ele>
        <time>2026-08-31T12:01:35Z</time>
      </trkpt>
      <trkpt lat="43.43302" lon="-0.37083">
        <ele>224.2</ele>
        <time>2026-08-31T12:01:36Z</time>
      </trkpt>
      <trkpt lat="43.43302" lon="-0.37083">
        <ele>225.2</ele>
        <time>2026-08-31T12:01:36Z</time>
      </trkpt>
      <trkpt lat="43.43302" lon="-0.37083">
        <ele>224.2</ele>
        <time>2026-08-31T12:01:38Z</time>
      </trkpt>
      <trkpt lat="43.43302" lon="-0.37083">
        <ele>224.2</ele>
        <time>2026-08-31T12:01:39Z</time>
      </trkpt>
      <trkpt lat="43.43302" lon="-0.37084">
        <ele>224.2</ele>
        <time>2026-08-31T12:01:39Z</time>
      </trkpt>
      <trkpt lat="43.43301" lon="-0.37084">
        <ele>225.2</ele>
        <time>2026-08-31T12:01:40Z</time>
      </trkpt>
      <trkpt lat="43.43301" lon="-0.37084">
        <ele>225.2</ele>
        <time>2026-08-31T12:01:41Z</time>
      </trkpt>
      <trkpt lat="43.43301" lon="-0.37085">
        <ele>225.2</ele>
        <time>2026-08-31T12:01:42Z</time>
      </trkpt>
      <trkpt lat="43.43301" lon="-0.37085">
        <ele>225.2</ele>
        <time>2026-08-31T12:01:42Z</time>
      </trkpt>
      <trkpt lat="43.43301" lon="-0.37085">
        <ele>226.2</ele>
        <time>2026-08-31T12:01:43Z</time>
      </trkpt>
      <trkpt lat="43.433" lon="-0.37085">
        <ele>226.2</ele>
        <time>2026-08-31T12:01:43Z</time>
      </trkpt>
      <trkpt lat="43.433" lon="-0.37085">
        <ele>225.2</ele>
        <time>2026-08-31T12:01:44Z</time>
      </trkpt>
      <trkpt lat="43.433" lon="-0.37086">
        <ele>225.2</ele>
        <time>2026-08-31T12:01:45Z</time>
      </trkpt>
      <trkpt lat="43.43299" lon="-0.37086">
        <ele>225.2</ele>
        <time>2026-08-31T12:01:46Z</time>
      </trkpt>
      <trkpt lat="43.43299" lon="-0.37086">
        <ele>225.2</ele>
        <time>2026-08-31T12:01:47Z</time>
      </trkpt>
      <trkpt lat="43.43299" lon="-0.37087">
        <ele>225.2</ele>
        <time>2026-08-31T12:01:47Z</time>
      </trkpt>
      <trkpt lat="43.43299" lon="-0.37087">
        <ele>225.2</ele>
        <time>2026-08-31T12:01:48Z</time>
      </trkpt>
      <trkpt lat="43.43298" lon="-0.37087">
        <ele>225.2</ele>
        <time>2026-08-31T12:01:49Z</time>
      </trkpt>
      <trkpt lat="43.43298" lon="-0.37087">
        <ele>225.2</ele>
        <time>2026-08-31T12:01:50Z</time>
      </trkpt>
      <trkpt lat="43.43298" lon="-0.37087">
        <ele>226.2</ele>
        <time>2026-08-31T12:01:50Z</time>
      </trkpt>
      <trkpt lat="43.43297" lon="-0.37087">
        <ele>226.2</ele>
        <time>2026-08-31T12:01:51Z</time>
      </trkpt>
      <trkpt lat="43.43297" lon="-0.37087">
        <ele>226.2</ele>
        <time>2026-08-31T12:01:52Z</time>
      </trkpt>
      <trkpt lat="43.43296" lon="-0.37087">
        <ele>226.2</ele>
        <time>2026-08-31T12:01:52Z</time>
      </trkpt>
      <trkpt lat="43.43295" lon="-0.37087">
        <ele>226.2</ele>
        <time>2026-08-31T12:01:53Z</time>
      </trkpt>
      <trkpt lat="43.43295" lon="-0.37086">
        <ele>226.2</ele>
        <time>2026-08-31T12:01:54Z</time>
      </trkpt>
      <trkpt lat="43.43293" lon="-0.37086">
        <ele>226.2</ele>
        <time>2026-08-31T12:01:55Z</time>
      </trkpt>
      <trkpt lat="43.43293" lon="-0.37085">
        <ele>226.2</ele>
        <time>2026-08-31T12:01:55Z</time>
      </trkpt>
      <trkpt lat="43.43292" lon="-0.37085">
        <ele>225.2</ele>
        <time>2026-08-31T12:01:56Z</time>
      </trkpt>
      <trkpt lat="43.43292" lon="-0.37085">
        <ele>225.2</ele>
        <time>2026-08-31T12:01:56Z</time>
      </trkpt>
      <trkpt lat="43.43291" lon="-0.37084">
        <ele>226.2</ele>
        <time>2026-08-31T12:01:57Z</time>
      </trkpt>
      <trkpt lat="43.4329" lon="-0.37084">
        <ele>226.2</ele>
        <time>2026-08-31T12:01:58Z</time>
      </trkpt>
      <trkpt lat="43.4329" lon="-0.37083">
        <ele>227.2</ele>
        <time>2026-08-31T12:01:59Z</time>
      </trkpt>
      <trkpt lat="43.43291" lon="-0.37082">
        <ele>227.2</ele>
        <time>2026-08-31T12:01:59Z</time>
      </trkpt>
      <trkpt lat="43.43292" lon="-0.37082">
        <ele>227.2</ele>
        <time>2026-08-31T12:02:01Z</time>
      </trkpt>
      <trkpt lat="43.43292" lon="-0.37083">
        <ele>227.2</ele>
        <time>2026-08-31T12:02:02Z</time>
      </trkpt>
      <trkpt lat="43.43292" lon="-0.37083">
        <ele>227.2</ele>
        <time>2026-08-31T12:02:03Z</time>
      </trkpt>
      <trkpt lat="43.43292" lon="-0.37083">
        <ele>229.2</ele>
        <time>2026-08-31T12:02:04Z</time>
      </trkpt>
      <trkpt lat="43.43292" lon="-0.37083">
        <ele>229.2</ele>
        <time>2026-08-31T12:02:05Z</time>
      </trkpt>
      <trkpt lat="43.43292" lon="-0.37083">
        <ele>229.2</ele>
        <time>2026-08-31T12:02:06Z</time>
      </trkpt>
      <trkpt lat="43.43292" lon="-0.37084">
        <ele>230.2</ele>
        <time>2026-08-31T12:02:06Z</time>
      </trkpt>
      <trkpt lat="43.43291" lon="-0.37084">
        <ele>230.2</ele>
        <time>2026-08-31T12:02:07Z</time>
      </trkpt>
      <trkpt lat="43.43291" lon="-0.37084">
        <ele>230.2</ele>
        <time>2026-08-31T12:02:07Z</time>
      </trkpt>
      <trkpt lat="43.43291" lon="-0.37084">
        <ele>230.2</ele>
        <time>2026-08-31T12:02:08Z</time>
      </trkpt>
      <trkpt lat="43.43291" lon="-0.37084">
        <ele>230.2</ele>
        <time>2026-08-31T12:02:09Z</time>
      </trkpt>
      <trkpt lat="43.43291" lon="-0.37084">
        <ele>230.2</ele>
        <time>2026-08-31T12:02:09Z</time>
      </trkpt>
      <trkpt lat="43.4329" lon="-0.37085">
        <ele>230.2</ele>
        <time>2026-08-31T12:02:10Z</time>
      </trkpt>
      <trkpt lat="43.4329" lon="-0.37085">
        <ele>230.2</ele>
        <time>2026-08-31T12:02:11Z</time>
      </trkpt>
      <trkpt lat="43.4329" lon="-0.37085">
        <ele>230.2</ele>
        <time>2026-08-31T12:02:11Z</time>
      </trkpt>
      <trkpt lat="43.43287" lon="-0.37085">
        <ele>230.2</ele>
        <time>2026-08-31T12:02:12Z</time>
      </trkpt>
      <trkpt lat="43.43286" lon="-0.37085">
        <ele>229.2</ele>
        <time>2026-08-31T12:02:13Z</time>
      </trkpt>
      <trkpt lat="43.43285" lon="-0.37085">
        <ele>229.2</ele>
        <time>2026-08-31T12:02:13Z</time>
      </trkpt>
      <trkpt lat="43.43283" lon="-0.37085">
        <ele>229.2</ele>
        <time>2026-08-31T12:02:14Z</time>
      </trkpt>
      <trkpt lat="43.43283" lon="-0.37085">
        <ele>229.2</ele>
        <time>2026-08-31T12:02:15Z</time>
      </trkpt>
      <trkpt lat="43.43282" lon="-0.37086">
        <ele>230.2</ele>
        <time>2026-08-31T12:02:16Z</time>
      </trkpt>
      <trkpt lat="43.43281" lon="-0.37086">
        <ele>230.2</ele>
        <time>2026-08-31T12:02:17Z</time>
      </trkpt>
      <trkpt lat="43.43281" lon="-0.37086">
        <ele>230.2</ele>
        <time>2026-08-31T12:02:17Z</time>
      </trkpt>
      <trkpt lat="43.4328" lon="-0.37086">
        <ele>230.2</ele>
        <time>2026-08-31T12:02:19Z</time>
      </trkpt>
      <trkpt lat="43.43281" lon="-0.37085">
        <ele>230.2</ele>
        <time>2026-08-31T12:02:20Z</time>
      </trkpt>
      <trkpt lat="43.43281" lon="-0.37085">
        <ele>230.2</ele>
        <time>2026-08-31T12:02:20Z</time>
      </trkpt>
      <trkpt lat="43.43281" lon="-0.37084">
        <ele>232.2</ele>
        <time>2026-08-31T12:02:22Z</time>
      </trkpt>
      <trkpt lat="43.4328" lon="-0.37084">
        <ele>233.2</ele>
        <time>2026-08-31T12:02:23Z</time>
      </trkpt>
      <trkpt lat="43.4328" lon="-0.37084">
        <ele>233.2</ele>
        <time>2026-08-31T12:02:24Z</time>
      </trkpt>
      <trkpt lat="43.4328" lon="-0.37084">
        <ele>233.2</ele>
        <time>2026-08-31T12:02:24Z</time>
      </trkpt>
      <trkpt lat="43.4328" lon="-0.37084">
        <ele>233.2</ele>
        <time>2026-08-31T12:02:26Z</time>
      </trkpt>
      <trkpt lat="43.4328" lon="-0.37084">
        <ele>233.2</ele>
        <time>2026-08-31T12:02:27Z</time>
      </trkpt>
      <trkpt lat="43.43279" lon="-0.37084">
        <ele>233.2</ele>
        <time>2026-08-31T12:02:28Z</time>
      </trkpt>
      <trkpt lat="43.43279" lon="-0.37084">
        <ele>233.2</ele>
        <time>2026-08-31T12:02:29Z</time>
      </trkpt>
      <trkpt lat="43.43279" lon="-0.37085">
        <ele>233.2</ele>
        <time>2026-08-31T12:02:30Z</time>
      </trkpt>
      <trkpt lat="43.43279" lon="-0.37085">
        <ele>233.2</ele>
        <time>2026-08-31T12:02:31Z</time>
      </trkpt>
      <trkpt lat="43.43279" lon="-0.37085">
        <ele>233.2</ele>
        <time>2026-08-31T12:02:32Z</time>
      </trkpt>
      <trkpt lat="43.43279" lon="-0.37085">
        <ele>234.2</ele>
        <time>2026-08-31T12:02:32Z</time>
      </trkpt>
      <trkpt lat="43.43278" lon="-0.37085">
        <ele>235.2</ele>
        <time>2026-08-31T12:02:34Z</time>
      </trkpt>
      <trkpt lat="43.43277" lon="-0.37085">
        <ele>235.2</ele>
        <time>2026-08-31T12:02:35Z</time>
      </trkpt>
      <trkpt lat="43.43277" lon="-0.37086">
        <ele>235.2</ele>
        <time>2026-08-31T12:02:35Z</time>
      </trkpt>
      <trkpt lat="43.43276" lon="-0.37086">
        <ele>235.2</ele>
        <time>2026-08-31T12:02:37Z</time>
      </trkpt>
      <trkpt lat="43.43275" lon="-0.37087">
        <ele>237.2</ele>
        <time>2026-08-31T12:02:37Z</time>
      </trkpt>
      <trkpt lat="43.43274" lon="-0.37087">
        <ele>238.2</ele>
        <time>2026-08-31T12:02:38Z</time>
      </trkpt>
      <trkpt lat="43.43274" lon="-0.37088">
        <ele>238.2</ele>
        <time>2026-08-31T12:02:39Z</time>
      </trkpt>
      <trkpt lat="43.43273" lon="-0.37088">
        <ele>238.2</ele>
        <time>2026-08-31T12:02:40Z</time>
      </trkpt>
      <trkpt lat="43.43272" lon="-0.37088">
        <ele>239.2</ele>
        <time>2026-08-31T12:02:40Z</time>
      </trkpt>
      <trkpt lat="43.43272" lon="-0.37089">
        <ele>240.2</ele>
        <time>2026-08-31T12:02:41Z</time>
      </trkpt>
      <trkpt lat="43.43271" lon="-0.37089">
        <ele>240.2</ele>
        <time>2026-08-31T12:02:42Z</time>
      </trkpt>
      <trkpt lat="43.43271" lon="-0.3709">
        <ele>240.2</ele>
        <time>2026-08-31T12:02:42Z</time>
      </trkpt>
      <trkpt lat="43.4327" lon="-0.3709">
        <ele>241.2</ele>
        <time>2026-08-31T12:02:43Z</time>
      </trkpt>
      <trkpt lat="43.4327" lon="-0.3709">
        <ele>241.2</ele>
        <time>2026-08-31T12:02:45Z</time>
      </trkpt>
      <trkpt lat="43.4327" lon="-0.3709">
        <ele>241.2</ele>
        <time>2026-08-31T12:02:46Z</time>
      </trkpt>
      <trkpt lat="43.4327" lon="-0.37089">
        <ele>241.2</ele>
        <time>2026-08-31T12:02:46Z</time>
      </trkpt>
      <trkpt lat="43.4327" lon="-0.37088">
        <ele>242.2</ele>
        <time>2026-08-31T12:02:47Z</time>
      </trkpt>
      <trkpt lat="43.43271" lon="-0.37087">
        <ele>242.2</ele>
        <time>2026-08-31T12:02:48Z</time>
      </trkpt>
      <trkpt lat="43.43272" lon="-0.37086">
        <ele>241.2</ele>
        <time>2026-08-31T12:02:49Z</time>
      </trkpt>
      <trkpt lat="43.43272" lon="-0.37085">
        <ele>242.2</ele>
        <time>2026-08-31T12:02:50Z</time>
      </trkpt>
      <trkpt lat="43.43273" lon="-0.37084">
        <ele>242.2</ele>
        <time>2026-08-31T12:02:50Z</time>
      </trkpt>
      <trkpt lat="43.43273" lon="-0.37084">
        <ele>242.2</ele>
        <time>2026-08-31T12:02:51Z</time>
      </trkpt>
      <trkpt lat="43.43274" lon="-0.37083">
        <ele>242.2</ele>
        <time>2026-08-31T12:02:52Z</time>
      </trkpt>
      <trkpt lat="43.43275" lon="-0.37082">
        <ele>242.2</ele>
        <time>2026-08-31T12:02:53Z</time>
      </trkpt>
      <trkpt lat="43.43275" lon="-0.37081">
        <ele>242.2</ele>
        <time>2026-08-31T12:02:54Z</time>
      </trkpt>
      <trkpt lat="43.43275" lon="-0.3708">
        <ele>241.2</ele>
        <time>2026-08-31T12:02:55Z</time>
      </trkpt>
      <trkpt lat="43.43274" lon="-0.37079">
        <ele>241.2</ele>
        <time>2026-08-31T12:02:55Z</time>
      </trkpt>
      <trkpt lat="43.43274" lon="-0.37079">
        <ele>241.2</ele>
        <time>2026-08-31T12:02:56Z</time>
      </trkpt>
      <trkpt lat="43.43274" lon="-0.37079">
        <ele>241.2</ele>
        <time>2026-08-31T12:02:57Z</time>
      </trkpt>
      <trkpt lat="43.43273" lon="-0.37078">
        <ele>240.2</ele>
        <time>2026-08-31T12:02:58Z</time>
      </trkpt>
      <trkpt lat="43.43272" lon="-0.37078">
        <ele>240.2</ele>
        <time>2026-08-31T12:02:58Z</time>
      </trkpt>
      <trkpt lat="43.43272" lon="-0.37078">
        <ele>240.2</ele>
        <time>2026-08-31T12:02:59Z</time>
      </trkpt>
      <trkpt lat="43.43271" lon="-0.37078">
        <ele>240.2</ele>
        <time>2026-08-31T12:03:00Z</time>
      </trkpt>
      <trkpt lat="43.43271" lon="-0.37078">
        <ele>240.2</ele>
        <time>2026-08-31T12:03:00Z</time>
      </trkpt>
      <trkpt lat="43.4327" lon="-0.37077">
        <ele>240.2</ele>
        <time>2026-08-31T12:03:01Z</time>
      </trkpt>
      <trkpt lat="43.4327" lon="-0.37077">
        <ele>240.2</ele>
        <time>2026-08-31T12:03:01Z</time>
      </trkpt>
      <trkpt lat="43.43269" lon="-0.37076">
        <ele>240.2</ele>
        <time>2026-08-31T12:03:02Z</time>
      </trkpt>
      <trkpt lat="43.43269" lon="-0.37076">
        <ele>240.2</ele>
        <time>2026-08-31T12:03:03Z</time>
      </trkpt>
      <trkpt lat="43.43268" lon="-0.37075">
        <ele>239.2</ele>
        <time>2026-08-31T12:03:03Z</time>
      </trkpt>
      <trkpt lat="43.43268" lon="-0.37074">
        <ele>239.2</ele>
        <time>2026-08-31T12:03:04Z</time>
      </trkpt>
      <trkpt lat="43.43267" lon="-0.37074">
        <ele>239.2</ele>
        <time>2026-08-31T12:03:04Z</time>
      </trkpt>
      <trkpt lat="43.43267" lon="-0.37074">
        <ele>239.2</ele>
        <time>2026-08-31T12:03:05Z</time>
      </trkpt>
      <trkpt lat="43.43266" lon="-0.37074">
        <ele>239.2</ele>
        <time>2026-08-31T12:03:06Z</time>
      </trkpt>
      <trkpt lat="43.43265" lon="-0.37074">
        <ele>240.2</ele>
        <time>2026-08-31T12:03:07Z</time>
      </trkpt>
      <trkpt lat="43.43264" lon="-0.37073">
        <ele>239.2</ele>
        <time>2026-08-31T12:03:08Z</time>
      </trkpt>
      <trkpt lat="43.43264" lon="-0.37073">
        <ele>239.2</ele>
        <time>2026-08-31T12:03:08Z</time>
      </trkpt>
      <trkpt lat="43.43263" lon="-0.37073">
        <ele>239.2</ele>
        <time>2026-08-31T12:03:09Z</time>
      </trkpt>
      <trkpt lat="43.43263" lon="-0.37073">
        <ele>239.2</ele>
        <time>2026-08-31T12:03:09Z</time>
      </trkpt>
      <trkpt lat="43.43262" lon="-0.37073">
        <ele>239.2</ele>
        <time>2026-08-31T12:03:10Z</time>
      </trkpt>
      <trkpt lat="43.43261" lon="-0.37073">
        <ele>239.2</ele>
        <time>2026-08-31T12:03:11Z</time>
      </trkpt>
      <trkpt lat="43.43261" lon="-0.37073">
        <ele>239.2</ele>
        <time>2026-08-31T12:03:11Z</time>
      </trkpt>
      <trkpt lat="43.4326" lon="-0.37073">
        <ele>239.2</ele>
        <time>2026-08-31T12:03:12Z</time>
      </trkpt>
      <trkpt lat="43.43259" lon="-0.37072">
        <ele>239.2</ele>
        <time>2026-08-31T12:03:12Z</time>
      </trkpt>
      <trkpt lat="43.43259" lon="-0.37071">
        <ele>239.2</ele>
        <time>2026-08-31T12:03:14Z</time>
      </trkpt>
      <trkpt lat="43.43259" lon="-0.3707">
        <ele>240.2</ele>
        <time>2026-08-31T12:03:15Z</time>
      </trkpt>
      <trkpt lat="43.43258" lon="-0.37069">
        <ele>240.2</ele>
        <time>2026-08-31T12:03:15Z</time>
      </trkpt>
      <trkpt lat="43.43258" lon="-0.37069">
        <ele>239.2</ele>
        <time>2026-08-31T12:03:16Z</time>
      </trkpt>
      <trkpt lat="43.43258" lon="-0.37069">
        <ele>239.2</ele>
        <time>2026-08-31T12:03:16Z</time>
      </trkpt>
      <trkpt lat="43.43257" lon="-0.37069">
        <ele>239.2</ele>
        <time>2026-08-31T12:03:17Z</time>
      </trkpt>
      <trkpt lat="43.43257" lon="-0.37069">
        <ele>239.2</ele>
        <time>2026-08-31T12:03:17Z</time>
      </trkpt>
      <trkpt lat="43.43256" lon="-0.37069">
        <ele>239.2</ele>
        <time>2026-08-31T12:03:18Z</time>
      </trkpt>
      <trkpt lat="43.43256" lon="-0.37069">
        <ele>239.2</ele>
        <time>2026-08-31T12:03:19Z</time>
      </trkpt>
      <trkpt lat="43.43255" lon="-0.37069">
        <ele>239.2</ele>
        <time>2026-08-31T12:03:19Z</time>
      </trkpt>
      <trkpt lat="43.43255" lon="-0.3707">
        <ele>239.2</ele>
        <time>2026-08-31T12:03:20Z</time>
      </trkpt>
      <trkpt lat="43.43255" lon="-0.37071">
        <ele>238.2</ele>
        <time>2026-08-31T12:03:21Z</time>
      </trkpt>
      <trkpt lat="43.43255" lon="-0.37071">
        <ele>238.2</ele>
        <time>2026-08-31T12:03:21Z</time>
      </trkpt>
      <trkpt lat="43.43255" lon="-0.37071">
        <ele>238.2</ele>
        <time>2026-08-31T12:03:22Z</time>
      </trkpt>
      <trkpt lat="43.43255" lon="-0.37072">
        <ele>239.2</ele>
        <time>2026-08-31T12:03:24Z</time>
      </trkpt>
      <trkpt lat="43.43255" lon="-0.37072">
        <ele>239.2</ele>
        <time>2026-08-31T12:03:24Z</time>
      </trkpt>
      <trkpt lat="43.43255" lon="-0.37072">
        <ele>239.2</ele>
        <time>2026-08-31T12:03:25Z</time>
      </trkpt>
      <trkpt lat="43.43255" lon="-0.37072">
        <ele>239.2</ele>
        <time>2026-08-31T12:03:26Z</time>
      </trkpt>
      <trkpt lat="43.43254" lon="-0.37073">
        <ele>239.2</ele>
        <time>2026-08-31T12:03:26Z</time>
      </trkpt>
      <trkpt lat="43.43253" lon="-0.37073">
        <ele>239.2</ele>
        <time>2026-08-31T12:03:27Z</time>
      </trkpt>
      <trkpt lat="43.43252" lon="-0.37074">
        <ele>239.2</ele>
        <time>2026-08-31T12:03:27Z</time>
      </trkpt>
      <trkpt lat="43.43251" lon="-0.37074">
        <ele>239.2</ele>
        <time>2026-08-31T12:03:28Z</time>
      </trkpt>
      <trkpt lat="43.4325" lon="-0.37075">
        <ele>238.2</ele>
        <time>2026-08-31T12:03:29Z</time>
      </trkpt>
      <trkpt lat="43.4325" lon="-0.37075">
        <ele>238.2</ele>
        <time>2026-08-31T12:03:29Z</time>
      </trkpt>
      <trkpt lat="43.43249" lon="-0.37075">
        <ele>238.2</ele>
        <time>2026-08-31T12:03:30Z</time>
      </trkpt>
      <trkpt lat="43.43248" lon="-0.37075">
        <ele>238.2</ele>
        <time>2026-08-31T12:03:31Z</time>
      </trkpt>
      <trkpt lat="43.43248" lon="-0.37073">
        <ele>238.2</ele>
        <time>2026-08-31T12:03:32Z</time>
      </trkpt>
      <trkpt lat="43.43247" lon="-0.37072">
        <ele>238.2</ele>
        <time>2026-08-31T12:03:32Z</time>
      </trkpt>
      <trkpt lat="43.43247" lon="-0.37071">
        <ele>237.2</ele>
        <time>2026-08-31T12:03:34Z</time>
      </trkpt>
      <trkpt lat="43.43246" lon="-0.37071">
        <ele>237.2</ele>
        <time>2026-08-31T12:03:34Z</time>
      </trkpt>
      <trkpt lat="43.43246" lon="-0.3707">
        <ele>236.2</ele>
        <time>2026-08-31T12:03:35Z</time>
      </trkpt>
      <trkpt lat="43.43246" lon="-0.37069">
        <ele>236.2</ele>
        <time>2026-08-31T12:03:36Z</time>
      </trkpt>
      <trkpt lat="43.43246" lon="-0.37067">
        <ele>236.2</ele>
        <time>2026-08-31T12:03:37Z</time>
      </trkpt>
      <trkpt lat="43.43246" lon="-0.37067">
        <ele>237.2</ele>
        <time>2026-08-31T12:03:38Z</time>
      </trkpt>
      <trkpt lat="43.43246" lon="-0.37067">
        <ele>237.2</ele>
        <time>2026-08-31T12:03:39Z</time>
      </trkpt>
      <trkpt lat="43.43246" lon="-0.37067">
        <ele>237.2</ele>
        <time>2026-08-31T12:03:40Z</time>
      </trkpt>
      <trkpt lat="43.43246" lon="-0.37067">
        <ele>237.2</ele>
        <time>2026-08-31T12:03:40Z</time>
      </trkpt>
      <trkpt lat="43.43245" lon="-0.37067">
        <ele>237.2</ele>
        <time>2026-08-31T12:03:41Z</time>
      </trkpt>
      <trkpt lat="43.43245" lon="-0.37066">
        <ele>237.2</ele>
        <time>2026-08-31T12:03:41Z</time>
      </trkpt>
      <trkpt lat="43.43245" lon="-0.37066">
        <ele>237.2</ele>
        <time>2026-08-31T12:03:43Z</time>
      </trkpt>
      <trkpt lat="43.43244" lon="-0.37065">
        <ele>238.2</ele>
        <time>2026-08-31T12:03:44Z</time>
      </trkpt>
      <trkpt lat="43.43243" lon="-0.37064">
        <ele>238.2</ele>
        <time>2026-08-31T12:03:45Z</time>
      </trkpt>
      <trkpt lat="43.43241" lon="-0.37063">
        <ele>238.2</ele>
        <time>2026-08-31T12:03:46Z</time>
      </trkpt>
      <trkpt lat="43.4324" lon="-0.37062">
        <ele>238.2</ele>
        <time>2026-08-31T12:03:46Z</time>
      </trkpt>
      <trkpt lat="43.43239" lon="-0.37062">
        <ele>238.2</ele>
        <time>2026-08-31T12:03:47Z</time>
      </trkpt>
      <trkpt lat="43.43237" lon="-0.37062">
        <ele>238.2</ele>
        <time>2026-08-31T12:03:47Z</time>
      </trkpt>
      <trkpt lat="43.43235" lon="-0.37061">
        <ele>236.2</ele>
        <time>2026-08-31T12:03:49Z</time>
      </trkpt>
      <trkpt lat="43.43234" lon="-0.37061">
        <ele>235.2</ele>
        <time>2026-08-31T12:03:50Z</time>
      </trkpt>
      <trkpt lat="43.43233" lon="-0.3706">
        <ele>235.2</ele>
        <time>2026-08-31T12:03:51Z</time>
      </trkpt>
      <trkpt lat="43.43231" lon="-0.3706">
        <ele>236.2</ele>
        <time>2026-08-31T12:03:52Z</time>
      </trkpt>
      <trkpt lat="43.4323" lon="-0.37059">
        <ele>236.2</ele>
        <time>2026-08-31T12:03:52Z</time>
      </trkpt>
      <trkpt lat="43.43229" lon="-0.37058">
        <ele>237.2</ele>
        <time>2026-08-31T12:03:54Z</time>
      </trkpt>
      <trkpt lat="43.43229" lon="-0.37058">
        <ele>238.2</ele>
        <time>2026-08-31T12:03:55Z</time>
      </trkpt>
      <trkpt lat="43.43228" lon="-0.37057">
        <ele>238.2</ele>
        <time>2026-08-31T12:03:56Z</time>
      </trkpt>
      <trkpt lat="43.43228" lon="-0.37056">
        <ele>238.2</ele>
        <time>2026-08-31T12:03:57Z</time>
      </trkpt>
      <trkpt lat="43.43227" lon="-0.37057">
        <ele>238.2</ele>
        <time>2026-08-31T12:03:58Z</time>
      </trkpt>
      <trkpt lat="43.43227" lon="-0.37058">
        <ele>238.2</ele>
        <time>2026-08-31T12:03:59Z</time>
      </trkpt>
      <trkpt lat="43.43226" lon="-0.37058">
        <ele>238.2</ele>
        <time>2026-08-31T12:03:59Z</time>
      </trkpt>
      <trkpt lat="43.43226" lon="-0.37057">
        <ele>239.2</ele>
        <time>2026-08-31T12:04:00Z</time>
      </trkpt>
      <trkpt lat="43.43225" lon="-0.37057">
        <ele>239.2</ele>
        <time>2026-08-31T12:04:01Z</time>
      </trkpt>
      <trkpt lat="43.43225" lon="-0.37057">
        <ele>239.2</ele>
        <time>2026-08-31T12:04:02Z</time>
      </trkpt>
      <trkpt lat="43.43224" lon="-0.37057">
        <ele>239.2</ele>
        <time>2026-08-31T12:04:02Z</time>
      </trkpt>
      <trkpt lat="43.43223" lon="-0.37057">
        <ele>239.2</ele>
        <time>2026-08-31T12:04:03Z</time>
      </trkpt>
      <trkpt lat="43.43223" lon="-0.37057">
        <ele>239.2</ele>
        <time>2026-08-31T12:04:04Z</time>
      </trkpt>
      <trkpt lat="43.43222" lon="-0.37057">
        <ele>239.2</ele>
        <time>2026-08-31T12:04:04Z</time>
      </trkpt>
      <trkpt lat="43.43222" lon="-0.37057">
        <ele>239.2</ele>
        <time>2026-08-31T12:04:05Z</time>
      </trkpt>
      <trkpt lat="43.43222" lon="-0.37057">
        <ele>240.2</ele>
        <time>2026-08-31T12:04:06Z</time>
      </trkpt>
      <trkpt lat="43.43221" lon="-0.37056">
        <ele>239.2</ele>
        <time>2026-08-31T12:04:07Z</time>
      </trkpt>
      <trkpt lat="43.43221" lon="-0.37057">
        <ele>239.2</ele>
        <time>2026-08-31T12:04:08Z</time>
      </trkpt>
      <trkpt lat="43.43222" lon="-0.37057">
        <ele>240.2</ele>
        <time>2026-08-31T12:04:09Z</time>
      </trkpt>
      <trkpt lat="43.43222" lon="-0.37057">
        <ele>240.2</ele>
        <time>2026-08-31T12:04:10Z</time>
      </trkpt>
      <trkpt lat="43.43222" lon="-0.37057">
        <ele>240.2</ele>
        <time>2026-08-31T12:04:10Z</time>
      </trkpt>
      <trkpt lat="43.43222" lon="-0.37057">
        <ele>240.2</ele>
        <time>2026-08-31T12:04:11Z</time>
      </trkpt>
      <trkpt lat="43.43222" lon="-0.37056">
        <ele>241.2</ele>
        <time>2026-08-31T12:04:12Z</time>
      </trkpt>
      <trkpt lat="43.43222" lon="-0.37056">
        <ele>241.2</ele>
        <time>2026-08-31T12:04:13Z</time>
      </trkpt>
      <trkpt lat="43.43222" lon="-0.37056">
        <ele>240.2</ele>
        <time>2026-08-31T12:04:14Z</time>
      </trkpt>
      <trkpt lat="43.43221" lon="-0.37056">
        <ele>240.2</ele>
        <time>2026-08-31T12:04:15Z</time>
      </trkpt>
      <trkpt lat="43.43221" lon="-0.37055">
        <ele>240.2</ele>
        <time>2026-08-31T12:04:15Z</time>
      </trkpt>
      <trkpt lat="43.43221" lon="-0.37055">
        <ele>240.2</ele>
        <time>2026-08-31T12:04:16Z</time>
      </trkpt>
      <trkpt lat="43.4322" lon="-0.37054">
        <ele>240.2</ele>
        <time>2026-08-31T12:04:18Z</time>
      </trkpt>
      <trkpt lat="43.4322" lon="-0.37054">
        <ele>240.2</ele>
        <time>2026-08-31T12:04:19Z</time>
      </trkpt>
      <trkpt lat="43.43221" lon="-0.37053">
        <ele>240.2</ele>
        <time>2026-08-31T12:04:20Z</time>
      </trkpt>
      <trkpt lat="43.4322" lon="-0.37053">
        <ele>241.2</ele>
        <time>2026-08-31T12:04:21Z</time>
      </trkpt>
      <trkpt lat="43.4322" lon="-0.37053">
        <ele>241.2</ele>
        <time>2026-08-31T12:04:22Z</time>
      </trkpt>
      <trkpt lat="43.43219" lon="-0.37052">
        <ele>241.2</ele>
        <time>2026-08-31T12:04:23Z</time>
      </trkpt>
      <trkpt lat="43.43219" lon="-0.37052">
        <ele>241.2</ele>
        <time>2026-08-31T12:04:24Z</time>
      </trkpt>
      <trkpt lat="43.43219" lon="-0.37051">
        <ele>241.2</ele>
        <time>2026-08-31T12:04:24Z</time>
      </trkpt>
      <trkpt lat="43.43218" lon="-0.3705">
        <ele>241.2</ele>
        <time>2026-08-31T12:04:25Z</time>
      </trkpt>
      <trkpt lat="43.43217" lon="-0.37049">
        <ele>240.2</ele>
        <time>2026-08-31T12:04:26Z</time>
      </trkpt>
      <trkpt lat="43.43216" lon="-0.37048">
        <ele>240.2</ele>
        <time>2026-08-31T12:04:27Z</time>
      </trkpt>
      <trkpt lat="43.43215" lon="-0.37047">
        <ele>240.2</ele>
        <time>2026-08-31T12:04:28Z</time>
      </trkpt>
      <trkpt lat="43.43213" lon="-0.37046">
        <ele>241.2</ele>
        <time>2026-08-31T12:04:29Z</time>
      </trkpt>
      <trkpt lat="43.43212" lon="-0.37045">
        <ele>241.2</ele>
        <time>2026-08-31T12:04:29Z</time>
      </trkpt>
      <trkpt lat="43.43211" lon="-0.37045">
        <ele>240.2</ele>
        <time>2026-08-31T12:04:30Z</time>
      </trkpt>
      <trkpt lat="43.4321" lon="-0.37044">
        <ele>240.2</ele>
        <time>2026-08-31T12:04:32Z</time>
      </trkpt>
      <trkpt lat="43.4321" lon="-0.37044">
        <ele>240.2</ele>
        <time>2026-08-31T12:04:33Z</time>
      </trkpt>
      <trkpt lat="43.4321" lon="-0.37044">
        <ele>240.2</ele>
        <time>2026-08-31T12:04:34Z</time>
      </trkpt>
      <trkpt lat="43.43209" lon="-0.37044">
        <ele>240.2</ele>
        <time>2026-08-31T12:04:35Z</time>
      </trkpt>
      <trkpt lat="43.43209" lon="-0.37044">
        <ele>240.2</ele>
        <time>2026-08-31T12:04:36Z</time>
      </trkpt>
      <trkpt lat="43.43209" lon="-0.37044">
        <ele>241.2</ele>
        <time>2026-08-31T12:04:37Z</time>
      </trkpt>
      <trkpt lat="43.43208" lon="-0.37044">
        <ele>241.2</ele>
        <time>2026-08-31T12:04:37Z</time>
      </trkpt>
      <trkpt lat="43.43208" lon="-0.37044">
        <ele>241.2</ele>
        <time>2026-08-31T12:04:38Z</time>
      </trkpt>
      <trkpt lat="43.43208" lon="-0.37044">
        <ele>241.2</ele>
        <time>2026-08-31T12:04:39Z</time>
      </trkpt>
      <trkpt lat="43.43208" lon="-0.37044">
        <ele>242.2</ele>
        <time>2026-08-31T12:04:40Z</time>
      </trkpt>
      <trkpt lat="43.43208" lon="-0.37043">
        <ele>242.2</ele>
        <time>2026-08-31T12:04:41Z</time>
      </trkpt>
      <trkpt lat="43.43207" lon="-0.37043">
        <ele>242.2</ele>
        <time>2026-08-31T12:04:42Z</time>
      </trkpt>
      <trkpt lat="43.43207" lon="-0.37043">
        <ele>242.2</ele>
        <time>2026-08-31T12:04:43Z</time>
      </trkpt>
      <trkpt lat="43.43207" lon="-0.37042">
        <ele>242.2</ele>
        <time>2026-08-31T12:04:44Z</time>
      </trkpt>
      <trkpt lat="43.43207" lon="-0.37042">
        <ele>242.2</ele>
        <time>2026-08-31T12:04:44Z</time>
      </trkpt>
      <trkpt lat="43.43207" lon="-0.37042">
        <ele>241.2</ele>
        <time>2026-08-31T12:04:46Z</time>
      </trkpt>
      <trkpt lat="43.43207" lon="-0.37041">
        <ele>241.2</ele>
        <time>2026-08-31T12:04:47Z</time>
      </trkpt>
      <trkpt lat="43.43207" lon="-0.37041">
        <ele>241.2</ele>
        <time>2026-08-31T12:04:48Z</time>
      </trkpt>
      <trkpt lat="43.43207" lon="-0.37041">
        <ele>241.2</ele>
        <time>2026-08-31T12:04:48Z</time>
      </trkpt>
      <trkpt lat="43.43206" lon="-0.3704">
        <ele>240.2</ele>
        <time>2026-08-31T12:04:50Z</time>
      </trkpt>
      <trkpt lat="43.43206" lon="-0.37039">
        <ele>240.2</ele>
        <time>2026-08-31T12:04:50Z</time>
      </trkpt>
      <trkpt lat="43.43205" lon="-0.37038">
        <ele>239.2</ele>
        <time>2026-08-31T12:04:51Z</time>
      </trkpt>
      <trkpt lat="43.43205" lon="-0.37036">
        <ele>240.2</ele>
        <time>2026-08-31T12:04:52Z</time>
      </trkpt>
      <trkpt lat="43.43204" lon="-0.37033">
        <ele>240.2</ele>
        <time>2026-08-31T12:04:53Z</time>
      </trkpt>
      <trkpt lat="43.43204" lon="-0.37032">
        <ele>240.2</ele>
        <time>2026-08-31T12:04:55Z</time>
      </trkpt>
      <trkpt lat="43.43204" lon="-0.37033">
        <ele>240.2</ele>
        <time>2026-08-31T12:04:56Z</time>
      </trkpt>
      <trkpt lat="43.43204" lon="-0.37034">
        <ele>241.2</ele>
        <time>2026-08-31T12:04:57Z</time>
      </trkpt>
      <trkpt lat="43.43204" lon="-0.37034">
        <ele>241.2</ele>
        <time>2026-08-31T12:04:58Z</time>
      </trkpt>
      <trkpt lat="43.43204" lon="-0.37034">
        <ele>241.2</ele>
        <time>2026-08-31T12:04:59Z</time>
      </trkpt>
      <trkpt lat="43.43204" lon="-0.37034">
        <ele>241.2</ele>
        <time>2026-08-31T12:04:59Z</time>
      </trkpt>
      <trkpt lat="43.43204" lon="-0.37034">
        <ele>242.2</ele>
        <time>2026-08-31T12:05:00Z</time>
      </trkpt>
      <trkpt lat="43.43204" lon="-0.37033">
        <ele>243.2</ele>
        <time>2026-08-31T12:05:02Z</time>
      </trkpt>
      <trkpt lat="43.43203" lon="-0.37032">
        <ele>243.2</ele>
        <time>2026-08-31T12:05:03Z</time>
      </trkpt>
      <trkpt lat="43.43203" lon="-0.37031">
        <ele>243.2</ele>
        <time>2026-08-31T12:05:04Z</time>
      </trkpt>
      <trkpt lat="43.43202" lon="-0.37031">
        <ele>243.2</ele>
        <time>2026-08-31T12:05:05Z</time>
      </trkpt>
      <trkpt lat="43.43201" lon="-0.37029">
        <ele>243.2</ele>
        <time>2026-08-31T12:05:05Z</time>
      </trkpt>
      <trkpt lat="43.432" lon="-0.37027">
        <ele>244.2</ele>
        <time>2026-08-31T12:05:07Z</time>
      </trkpt>
      <trkpt lat="43.43198" lon="-0.37025">
        <ele>245.2</ele>
        <time>2026-08-31T12:05:08Z</time>
      </trkpt>
      <trkpt lat="43.43197" lon="-0.37024">
        <ele>246.2</ele>
        <time>2026-08-31T12:05:09Z</time>
      </trkpt>
      <trkpt lat="43.43197" lon="-0.37022">
        <ele>246.2</ele>
        <time>2026-08-31T12:05:10Z</time>
      </trkpt>
      <trkpt lat="43.43196" lon="-0.37021">
        <ele>246.2</ele>
        <time>2026-08-31T12:05:11Z</time>
      </trkpt>
      <trkpt lat="43.43196" lon="-0.3702">
        <ele>246.2</ele>
        <time>2026-08-31T12:05:11Z</time>
      </trkpt>
      <trkpt lat="43.43195" lon="-0.37019">
        <ele>246.2</ele>
        <time>2026-08-31T12:05:12Z</time>
      </trkpt>
      <trkpt lat="43.43195" lon="-0.37018">
        <ele>246.2</ele>
        <time>2026-08-31T12:05:13Z</time>
      </trkpt>
      <trkpt lat="43.43195" lon="-0.37017">
        <ele>246.2</ele>
        <time>2026-08-31T12:05:14Z</time>
      </trkpt>
      <trkpt lat="43.43194" lon="-0.37016">
        <ele>246.2</ele>
        <time>2026-08-31T12:05:14Z</time>
      </trkpt>
      <trkpt lat="43.43194" lon="-0.37016">
        <ele>247.2</ele>
        <time>2026-08-31T12:05:15Z</time>
      </trkpt>
      <trkpt lat="43.43193" lon="-0.37016">
        <ele>247.2</ele>
        <time>2026-08-31T12:05:16Z</time>
      </trkpt>
      <trkpt lat="43.43193" lon="-0.37016">
        <ele>247.2</ele>
        <time>2026-08-31T12:05:16Z</time>
      </trkpt>
      <trkpt lat="43.43193" lon="-0.37015">
        <ele>247.2</ele>
        <time>2026-08-31T12:05:17Z</time>
      </trkpt>
      <trkpt lat="43.43193" lon="-0.37014">
        <ele>247.2</ele>
        <time>2026-08-31T12:05:17Z</time>
      </trkpt>
      <trkpt lat="43.43193" lon="-0.37014">
        <ele>247.2</ele>
        <time>2026-08-31T12:05:18Z</time>
      </trkpt>
      <trkpt lat="43.43192" lon="-0.37013">
        <ele>247.2</ele>
        <time>2026-08-31T12:05:19Z</time>
      </trkpt>
      <trkpt lat="43.43192" lon="-0.37013">
        <ele>247.2</ele>
        <time>2026-08-31T12:05:20Z</time>
      </trkpt>
      <trkpt lat="43.43192" lon="-0.37012">
        <ele>247.2</ele>
        <time>2026-08-31T12:05:20Z</time>
      </trkpt>
      <trkpt lat="43.43191" lon="-0.37012">
        <ele>247.2</ele>
        <time>2026-08-31T12:05:21Z</time>
      </trkpt>
      <trkpt lat="43.43191" lon="-0.37011">
        <ele>247.2</ele>
        <time>2026-08-31T12:05:22Z</time>
      </trkpt>
      <trkpt lat="43.4319" lon="-0.3701">
        <ele>247.2</ele>
        <time>2026-08-31T12:05:22Z</time>
      </trkpt>
      <trkpt lat="43.4319" lon="-0.3701">
        <ele>248.2</ele>
        <time>2026-08-31T12:05:23Z</time>
      </trkpt>
      <trkpt lat="43.4319" lon="-0.37008">
        <ele>248.2</ele>
        <time>2026-08-31T12:05:24Z</time>
      </trkpt>
      <trkpt lat="43.43189" lon="-0.37007">
        <ele>248.2</ele>
        <time>2026-08-31T12:05:24Z</time>
      </trkpt>
      <trkpt lat="43.43189" lon="-0.37007">
        <ele>248.2</ele>
        <time>2026-08-31T12:05:25Z</time>
      </trkpt>
      <trkpt lat="43.43188" lon="-0.37007">
        <ele>248.2</ele>
        <time>2026-08-31T12:05:26Z</time>
      </trkpt>
      <trkpt lat="43.43187" lon="-0.37006">
        <ele>248.2</ele>
        <time>2026-08-31T12:05:27Z</time>
      </trkpt>
      <trkpt lat="43.43187" lon="-0.37006">
        <ele>247.2</ele>
        <time>2026-08-31T12:05:27Z</time>
      </trkpt>
      <trkpt lat="43.43186" lon="-0.37005">
        <ele>247.2</ele>
        <time>2026-08-31T12:05:28Z</time>
      </trkpt>
      <trkpt lat="43.43186" lon="-0.37005">
        <ele>247.2</ele>
        <time>2026-08-31T12:05:29Z</time>
      </trkpt>
      <trkpt lat="43.43185" lon="-0.37005">
        <ele>247.2</ele>
        <time>2026-08-31T12:05:29Z</time>
      </trkpt>
      <trkpt lat="43.43184" lon="-0.37005">
        <ele>247.2</ele>
        <time>2026-08-31T12:05:30Z</time>
      </trkpt>
      <trkpt lat="43.43184" lon="-0.37005">
        <ele>247.2</ele>
        <time>2026-08-31T12:05:31Z</time>
      </trkpt>
      <trkpt lat="43.43183" lon="-0.37005">
        <ele>247.2</ele>
        <time>2026-08-31T12:05:31Z</time>
      </trkpt>
      <trkpt lat="43.43182" lon="-0.37005">
        <ele>247.2</ele>
        <time>2026-08-31T12:05:32Z</time>
      </trkpt>
      <trkpt lat="43.43182" lon="-0.37004">
        <ele>247.2</ele>
        <time>2026-08-31T12:05:33Z</time>
      </trkpt>
      <trkpt lat="43.43181" lon="-0.37004">
        <ele>246.2</ele>
        <time>2026-08-31T12:05:33Z</time>
      </trkpt>
      <trkpt lat="43.4318" lon="-0.37004">
        <ele>246.2</ele>
        <time>2026-08-31T12:05:34Z</time>
      </trkpt>
      <trkpt lat="43.4318" lon="-0.37004">
        <ele>245.2</ele>
        <time>2026-08-31T12:05:35Z</time>
      </trkpt>
      <trkpt lat="43.43179" lon="-0.37003">
        <ele>245.2</ele>
        <time>2026-08-31T12:05:35Z</time>
      </trkpt>
      <trkpt lat="43.43179" lon="-0.37003">
        <ele>245.2</ele>
        <time>2026-08-31T12:05:36Z</time>
      </trkpt>
      <trkpt lat="43.43178" lon="-0.37003">
        <ele>245.2</ele>
        <time>2026-08-31T12:05:37Z</time>
      </trkpt>
      <trkpt lat="43.43178" lon="-0.37002">
        <ele>245.2</ele>
        <time>2026-08-31T12:05:38Z</time>
      </trkpt>
      <trkpt lat="43.43177" lon="-0.37002">
        <ele>244.2</ele>
        <time>2026-08-31T12:05:38Z</time>
      </trkpt>
      <trkpt lat="43.43176" lon="-0.37002">
        <ele>244.2</ele>
        <time>2026-08-31T12:05:39Z</time>
      </trkpt>
      <trkpt lat="43.43175" lon="-0.37002">
        <ele>245.2</ele>
        <time>2026-08-31T12:05:40Z</time>
      </trkpt>
      <trkpt lat="43.43174" lon="-0.37003">
        <ele>245.2</ele>
        <time>2026-08-31T12:05:41Z</time>
      </trkpt>
      <trkpt lat="43.43174" lon="-0.37003">
        <ele>245.2</ele>
        <time>2026-08-31T12:05:41Z</time>
      </trkpt>
      <trkpt lat="43.43173" lon="-0.37004">
        <ele>245.2</ele>
        <time>2026-08-31T12:05:42Z</time>
      </trkpt>
      <trkpt lat="43.43173" lon="-0.37004">
        <ele>245.2</ele>
        <time>2026-08-31T12:05:43Z</time>
      </trkpt>
      <trkpt lat="43.43172" lon="-0.37004">
        <ele>246.2</ele>
        <time>2026-08-31T12:05:44Z</time>
      </trkpt>
      <trkpt lat="43.43172" lon="-0.37004">
        <ele>246.2</ele>
        <time>2026-08-31T12:05:45Z</time>
      </trkpt>
      <trkpt lat="43.43172" lon="-0.37004">
        <ele>246.2</ele>
        <time>2026-08-31T12:05:46Z</time>
      </trkpt>
      <trkpt lat="43.43171" lon="-0.37004">
        <ele>245.2</ele>
        <time>2026-08-31T12:05:46Z</time>
      </trkpt>
      <trkpt lat="43.43171" lon="-0.37004">
        <ele>245.2</ele>
        <time>2026-08-31T12:05:47Z</time>
      </trkpt>
      <trkpt lat="43.4317" lon="-0.37003">
        <ele>245.2</ele>
        <time>2026-08-31T12:05:48Z</time>
      </trkpt>
      <trkpt lat="43.4317" lon="-0.37003">
        <ele>245.2</ele>
        <time>2026-08-31T12:05:48Z</time>
      </trkpt>
      <trkpt lat="43.4317" lon="-0.37003">
        <ele>245.2</ele>
        <time>2026-08-31T12:05:49Z</time>
      </trkpt>
      <trkpt lat="43.43169" lon="-0.37003">
        <ele>245.2</ele>
        <time>2026-08-31T12:05:50Z</time>
      </trkpt>
      <trkpt lat="43.43168" lon="-0.37003">
        <ele>245.2</ele>
        <time>2026-08-31T12:05:50Z</time>
      </trkpt>
      <trkpt lat="43.43167" lon="-0.37003">
        <ele>245.2</ele>
        <time>2026-08-31T12:05:51Z</time>
      </trkpt>
      <trkpt lat="43.43166" lon="-0.37004">
        <ele>245.2</ele>
        <time>2026-08-31T12:05:52Z</time>
      </trkpt>
      <trkpt lat="43.43166" lon="-0.37005">
        <ele>245.2</ele>
        <time>2026-08-31T12:05:52Z</time>
      </trkpt>
      <trkpt lat="43.43164" lon="-0.37005">
        <ele>245.2</ele>
        <time>2026-08-31T12:05:54Z</time>
      </trkpt>
      <trkpt lat="43.43164" lon="-0.37004">
        <ele>246.2</ele>
        <time>2026-08-31T12:05:55Z</time>
      </trkpt>
      <trkpt lat="43.43163" lon="-0.37004">
        <ele>246.2</ele>
        <time>2026-08-31T12:05:56Z</time>
      </trkpt>
      <trkpt lat="43.43162" lon="-0.37003">
        <ele>246.2</ele>
        <time>2026-08-31T12:05:57Z</time>
      </trkpt>
      <trkpt lat="43.43162" lon="-0.37003">
        <ele>246.2</ele>
        <time>2026-08-31T12:05:58Z</time>
      </trkpt>
      <trkpt lat="43.43162" lon="-0.37002">
        <ele>246.2</ele>
        <time>2026-08-31T12:05:59Z</time>
      </trkpt>
      <trkpt lat="43.43162" lon="-0.37002">
        <ele>246.2</ele>
        <time>2026-08-31T12:06:00Z</time>
      </trkpt>
      <trkpt lat="43.43162" lon="-0.37001">
        <ele>246.2</ele>
        <time>2026-08-31T12:06:01Z</time>
      </trkpt>
      <trkpt lat="43.4316" lon="-0.37">
        <ele>246.2</ele>
        <time>2026-08-31T12:06:02Z</time>
      </trkpt>
      <trkpt lat="43.43159" lon="-0.37">
        <ele>246.2</ele>
        <time>2026-08-31T12:06:03Z</time>
      </trkpt>
      <trkpt lat="43.43159" lon="-0.36999">
        <ele>246.2</ele>
        <time>2026-08-31T12:06:03Z</time>
      </trkpt>
      <trkpt lat="43.43159" lon="-0.36999">
        <ele>246.2</ele>
        <time>2026-08-31T12:06:04Z</time>
      </trkpt>
      <trkpt lat="43.43158" lon="-0.36998">
        <ele>247.2</ele>
        <time>2026-08-31T12:06:05Z</time>
      </trkpt>
      <trkpt lat="43.43157" lon="-0.36998">
        <ele>247.2</ele>
        <time>2026-08-31T12:06:05Z</time>
      </trkpt>
      <trkpt lat="43.43156" lon="-0.36997">
        <ele>248.2</ele>
        <time>2026-08-31T12:06:06Z</time>
      </trkpt>
      <trkpt lat="43.43155" lon="-0.36996">
        <ele>248.2</ele>
        <time>2026-08-31T12:06:08Z</time>
      </trkpt>
      <trkpt lat="43.43156" lon="-0.36996">
        <ele>248.2</ele>
        <time>2026-08-31T12:06:08Z</time>
      </trkpt>
      <trkpt lat="43.43155" lon="-0.36996">
        <ele>248.2</ele>
        <time>2026-08-31T12:06:09Z</time>
      </trkpt>
      <trkpt lat="43.43155" lon="-0.36995">
        <ele>249.2</ele>
        <time>2026-08-31T12:06:10Z</time>
      </trkpt>
      <trkpt lat="43.43154" lon="-0.36995">
        <ele>249.2</ele>
        <time>2026-08-31T12:06:10Z</time>
      </trkpt>
      <trkpt lat="43.43154" lon="-0.36995">
        <ele>249.2</ele>
        <time>2026-08-31T12:06:11Z</time>
      </trkpt>
      <trkpt lat="43.43153" lon="-0.36995">
        <ele>249.2</ele>
        <time>2026-08-31T12:06:12Z</time>
      </trkpt>
      <trkpt lat="43.43153" lon="-0.36994">
        <ele>249.2</ele>
        <time>2026-08-31T12:06:13Z</time>
      </trkpt>
      <trkpt lat="43.43151" lon="-0.36993">
        <ele>248.2</ele>
        <time>2026-08-31T12:06:13Z</time>
      </trkpt>
      <trkpt lat="43.4315" lon="-0.36992">
        <ele>248.2</ele>
        <time>2026-08-31T12:06:14Z</time>
      </trkpt>
      <trkpt lat="43.43149" lon="-0.36992">
        <ele>249.2</ele>
        <time>2026-08-31T12:06:15Z</time>
      </trkpt>
      <trkpt lat="43.43148" lon="-0.36992">
        <ele>249.2</ele>
        <time>2026-08-31T12:06:15Z</time>
      </trkpt>
      <trkpt lat="43.43148" lon="-0.36992">
        <ele>250.2</ele>
        <time>2026-08-31T12:06:16Z</time>
      </trkpt>
      <trkpt lat="43.43147" lon="-0.36993">
        <ele>250.2</ele>
        <time>2026-08-31T12:06:17Z</time>
      </trkpt>
      <trkpt lat="43.43147" lon="-0.36994">
        <ele>250.2</ele>
        <time>2026-08-31T12:06:18Z</time>
      </trkpt>
      <trkpt lat="43.43147" lon="-0.36994">
        <ele>251.2</ele>
        <time>2026-08-31T12:06:18Z</time>
      </trkpt>
      <trkpt lat="43.43146" lon="-0.36994">
        <ele>252.2</ele>
        <time>2026-08-31T12:06:19Z</time>
      </trkpt>
      <trkpt lat="43.43146" lon="-0.36995">
        <ele>252.2</ele>
        <time>2026-08-31T12:06:20Z</time>
      </trkpt>
      <trkpt lat="43.43145" lon="-0.36995">
        <ele>253.2</ele>
        <time>2026-08-31T12:06:20Z</time>
      </trkpt>
      <trkpt lat="43.43144" lon="-0.36995">
        <ele>253.2</ele>
        <time>2026-08-31T12:06:21Z</time>
      </trkpt>
      <trkpt lat="43.43144" lon="-0.36994">
        <ele>254.2</ele>
        <time>2026-08-31T12:06:22Z</time>
      </trkpt>
      <trkpt lat="43.43143" lon="-0.36995">
        <ele>254.2</ele>
        <time>2026-08-31T12:06:22Z</time>
      </trkpt>
      <trkpt lat="43.43143" lon="-0.36994">
        <ele>255.2</ele>
        <time>2026-08-31T12:06:23Z</time>
      </trkpt>
      <trkpt lat="43.43142" lon="-0.36994">
        <ele>256.2</ele>
        <time>2026-08-31T12:06:24Z</time>
      </trkpt>
      <trkpt lat="43.43142" lon="-0.36994">
        <ele>256.2</ele>
        <time>2026-08-31T12:06:24Z</time>
      </trkpt>
      <trkpt lat="43.43141" lon="-0.36993">
        <ele>257.2</ele>
        <time>2026-08-31T12:06:25Z</time>
      </trkpt>
      <trkpt lat="43.43141" lon="-0.36993">
        <ele>256.2</ele>
        <time>2026-08-31T12:06:26Z</time>
      </trkpt>
      <trkpt lat="43.4314" lon="-0.36993">
        <ele>256.2</ele>
        <time>2026-08-31T12:06:27Z</time>
      </trkpt>
      <trkpt lat="43.43139" lon="-0.36993">
        <ele>256.2</ele>
        <time>2026-08-31T12:06:27Z</time>
      </trkpt>
      <trkpt lat="43.43139" lon="-0.36993">
        <ele>256.2</ele>
        <time>2026-08-31T12:06:28Z</time>
      </trkpt>
      <trkpt lat="43.43138" lon="-0.36993">
        <ele>257.2</ele>
        <time>2026-08-31T12:06:29Z</time>
      </trkpt>
      <trkpt lat="43.43137" lon="-0.36993">
        <ele>257.2</ele>
        <time>2026-08-31T12:06:29Z</time>
      </trkpt>
      <trkpt lat="43.43137" lon="-0.36993">
        <ele>258.2</ele>
        <time>2026-08-31T12:06:30Z</time>
      </trkpt>
      <trkpt lat="43.43136" lon="-0.36993">
        <ele>258.2</ele>
        <time>2026-08-31T12:06:31Z</time>
      </trkpt>
      <trkpt lat="43.43135" lon="-0.36993">
        <ele>258.2</ele>
        <time>2026-08-31T12:06:32Z</time>
      </trkpt>
      <trkpt lat="43.43134" lon="-0.36993">
        <ele>259.2</ele>
        <time>2026-08-31T12:06:32Z</time>
      </trkpt>
      <trkpt lat="43.43134" lon="-0.36992">
        <ele>259.2</ele>
        <time>2026-08-31T12:06:33Z</time>
      </trkpt>
      <trkpt lat="43.43133" lon="-0.36992">
        <ele>259.2</ele>
        <time>2026-08-31T12:06:34Z</time>
      </trkpt>
      <trkpt lat="43.43133" lon="-0.36992">
        <ele>260.2</ele>
        <time>2026-08-31T12:06:34Z</time>
      </trkpt>
      <trkpt lat="43.43132" lon="-0.36991">
        <ele>260.2</ele>
        <time>2026-08-31T12:06:35Z</time>
      </trkpt>
      <trkpt lat="43.43131" lon="-0.36991">
        <ele>261.2</ele>
        <time>2026-08-31T12:06:36Z</time>
      </trkpt>
      <trkpt lat="43.43131" lon="-0.36991">
        <ele>261.2</ele>
        <time>2026-08-31T12:06:36Z</time>
      </trkpt>
      <trkpt lat="43.4313" lon="-0.3699">
        <ele>261.2</ele>
        <time>2026-08-31T12:06:37Z</time>
      </trkpt>
      <trkpt lat="43.4313" lon="-0.36989">
        <ele>262.2</ele>
        <time>2026-08-31T12:06:38Z</time>
      </trkpt>
      <trkpt lat="43.43129" lon="-0.36989">
        <ele>262.2</ele>
        <time>2026-08-31T12:06:39Z</time>
      </trkpt>
      <trkpt lat="43.43129" lon="-0.36988">
        <ele>262.2</ele>
        <time>2026-08-31T12:06:39Z</time>
      </trkpt>
      <trkpt lat="43.43128" lon="-0.36988">
        <ele>263.2</ele>
        <time>2026-08-31T12:06:40Z</time>
      </trkpt>
      <trkpt lat="43.43128" lon="-0.36987">
        <ele>264.2</ele>
        <time>2026-08-31T12:06:41Z</time>
      </trkpt>
      <trkpt lat="43.43127" lon="-0.36987">
        <ele>264.2</ele>
        <time>2026-08-31T12:06:42Z</time>
      </trkpt>
      <trkpt lat="43.43127" lon="-0.36987">
        <ele>264.2</ele>
        <time>2026-08-31T12:06:42Z</time>
      </trkpt>
      <trkpt lat="43.43126" lon="-0.36987">
        <ele>264.2</ele>
        <time>2026-08-31T12:06:43Z</time>
      </trkpt>
      <trkpt lat="43.43126" lon="-0.36987">
        <ele>265.2</ele>
        <time>2026-08-31T12:06:44Z</time>
      </trkpt>
      <trkpt lat="43.43125" lon="-0.36987">
        <ele>265.2</ele>
        <time>2026-08-31T12:06:45Z</time>
      </trkpt>
      <trkpt lat="43.43125" lon="-0.36988">
        <ele>265.2</ele>
        <time>2026-08-31T12:06:45Z</time>
      </trkpt>
      <trkpt lat="43.43124" lon="-0.36988">
        <ele>265.2</ele>
        <time>2026-08-31T12:06:46Z</time>
      </trkpt>
      <trkpt lat="43.43123" lon="-0.36989">
        <ele>266.2</ele>
        <time>2026-08-31T12:06:47Z</time>
      </trkpt>
      <trkpt lat="43.43123" lon="-0.36988">
        <ele>266.2</ele>
        <time>2026-08-31T12:06:48Z</time>
      </trkpt>
      <trkpt lat="43.43123" lon="-0.36989">
        <ele>266.2</ele>
        <time>2026-08-31T12:06:49Z</time>
      </trkpt>
      <trkpt lat="43.43123" lon="-0.36989">
        <ele>266.2</ele>
        <time>2026-08-31T12:06:49Z</time>
      </trkpt>
      <trkpt lat="43.43123" lon="-0.36989">
        <ele>266.2</ele>
        <time>2026-08-31T12:06:50Z</time>
      </trkpt>
      <trkpt lat="43.43122" lon="-0.36989">
        <ele>267.2</ele>
        <time>2026-08-31T12:06:51Z</time>
      </trkpt>
      <trkpt lat="43.43122" lon="-0.36988">
        <ele>267.2</ele>
        <time>2026-08-31T12:06:52Z</time>
      </trkpt>
      <trkpt lat="43.43121" lon="-0.36989">
        <ele>267.2</ele>
        <time>2026-08-31T12:06:53Z</time>
      </trkpt>
      <trkpt lat="43.43121" lon="-0.36989">
        <ele>267.2</ele>
        <time>2026-08-31T12:06:53Z</time>
      </trkpt>
      <trkpt lat="43.43121" lon="-0.36989">
        <ele>267.2</ele>
        <time>2026-08-31T12:06:54Z</time>
      </trkpt>
      <trkpt lat="43.4312" lon="-0.36989">
        <ele>268.2</ele>
        <time>2026-08-31T12:06:55Z</time>
      </trkpt>
      <trkpt lat="43.4312" lon="-0.3699">
        <ele>268.2</ele>
        <time>2026-08-31T12:06:56Z</time>
      </trkpt>
      <trkpt lat="43.4312" lon="-0.36991">
        <ele>269.2</ele>
        <time>2026-08-31T12:06:56Z</time>
      </trkpt>
      <trkpt lat="43.4312" lon="-0.36992">
        <ele>268.2</ele>
        <time>2026-08-31T12:06:57Z</time>
      </trkpt>
      <trkpt lat="43.43119" lon="-0.36992">
        <ele>267.2</ele>
        <time>2026-08-31T12:06:58Z</time>
      </trkpt>
      <trkpt lat="43.43119" lon="-0.36993">
        <ele>267.2</ele>
        <time>2026-08-31T12:06:59Z</time>
      </trkpt>
      <trkpt lat="43.43119" lon="-0.36993">
        <ele>268.2</ele>
        <time>2026-08-31T12:06:59Z</time>
      </trkpt>
      <trkpt lat="43.43119" lon="-0.36993">
        <ele>268.2</ele>
        <time>2026-08-31T12:07:00Z</time>
      </trkpt>
      <trkpt lat="43.43119" lon="-0.36994">
        <ele>269.2</ele>
        <time>2026-08-31T12:07:01Z</time>
      </trkpt>
      <trkpt lat="43.4312" lon="-0.36995">
        <ele>269.2</ele>
        <time>2026-08-31T12:07:02Z</time>
      </trkpt>
      <trkpt lat="43.4312" lon="-0.36995">
        <ele>269.2</ele>
        <time>2026-08-31T12:07:02Z</time>
      </trkpt>
      <trkpt lat="43.4312" lon="-0.36996">
        <ele>269.2</ele>
        <time>2026-08-31T12:07:03Z</time>
      </trkpt>
      <trkpt lat="43.4312" lon="-0.36996">
        <ele>269.2</ele>
        <time>2026-08-31T12:07:04Z</time>
      </trkpt>
      <trkpt lat="43.4312" lon="-0.36998">
        <ele>269.2</ele>
        <time>2026-08-31T12:07:05Z</time>
      </trkpt>
      <trkpt lat="43.4312" lon="-0.36998">
        <ele>269.2</ele>
        <time>2026-08-31T12:07:05Z</time>
      </trkpt>
      <trkpt lat="43.4312" lon="-0.36999">
        <ele>269.2</ele>
        <time>2026-08-31T12:07:06Z</time>
      </trkpt>
      <trkpt lat="43.4312" lon="-0.36999">
        <ele>269.2</ele>
        <time>2026-08-31T12:07:07Z</time>
      </trkpt>
      <trkpt lat="43.4312" lon="-0.37">
        <ele>269.2</ele>
        <time>2026-08-31T12:07:08Z</time>
      </trkpt>
      <trkpt lat="43.4312" lon="-0.37001">
        <ele>269.2</ele>
        <time>2026-08-31T12:07:08Z</time>
      </trkpt>
      <trkpt lat="43.4312" lon="-0.37001">
        <ele>269.2</ele>
        <time>2026-08-31T12:07:09Z</time>
      </trkpt>
      <trkpt lat="43.43121" lon="-0.37002">
        <ele>268.2</ele>
        <time>2026-08-31T12:07:10Z</time>
      </trkpt>
      <trkpt lat="43.43121" lon="-0.37003">
        <ele>268.2</ele>
        <time>2026-08-31T12:07:10Z</time>
      </trkpt>
      <trkpt lat="43.43121" lon="-0.37003">
        <ele>268.2</ele>
        <time>2026-08-31T12:07:11Z</time>
      </trkpt>
      <trkpt lat="43.43121" lon="-0.37004">
        <ele>268.2</ele>
        <time>2026-08-31T12:07:12Z</time>
      </trkpt>
      <trkpt lat="43.43121" lon="-0.37005">
        <ele>268.2</ele>
        <time>2026-08-31T12:07:13Z</time>
      </trkpt>
      <trkpt lat="43.43122" lon="-0.37006">
        <ele>269.2</ele>
        <time>2026-08-31T12:07:13Z</time>
      </trkpt>
      <trkpt lat="43.43122" lon="-0.37006">
        <ele>268.2</ele>
        <time>2026-08-31T12:07:14Z</time>
      </trkpt>
      <trkpt lat="43.43122" lon="-0.37007">
        <ele>268.2</ele>
        <time>2026-08-31T12:07:15Z</time>
      </trkpt>
      <trkpt lat="43.43122" lon="-0.37007">
        <ele>268.2</ele>
        <time>2026-08-31T12:07:15Z</time>
      </trkpt>
      <trkpt lat="43.43122" lon="-0.37007">
        <ele>268.2</ele>
        <time>2026-08-31T12:07:16Z</time>
      </trkpt>
      <trkpt lat="43.43122" lon="-0.37008">
        <ele>268.2</ele>
        <time>2026-08-31T12:07:17Z</time>
      </trkpt>
      <trkpt lat="43.43123" lon="-0.37009">
        <ele>267.2</ele>
        <time>2026-08-31T12:07:17Z</time>
      </trkpt>
      <trkpt lat="43.43123" lon="-0.37009">
        <ele>267.2</ele>
        <time>2026-08-31T12:07:18Z</time>
      </trkpt>
      <trkpt lat="43.43123" lon="-0.3701">
        <ele>267.2</ele>
        <time>2026-08-31T12:07:19Z</time>
      </trkpt>
      <trkpt lat="43.43123" lon="-0.37011">
        <ele>267.2</ele>
        <time>2026-08-31T12:07:19Z</time>
      </trkpt>
      <trkpt lat="43.43124" lon="-0.37011">
        <ele>267.2</ele>
        <time>2026-08-31T12:07:20Z</time>
      </trkpt>
      <trkpt lat="43.43124" lon="-0.37012">
        <ele>267.2</ele>
        <time>2026-08-31T12:07:20Z</time>
      </trkpt>
      <trkpt lat="43.43124" lon="-0.37013">
        <ele>266.2</ele>
        <time>2026-08-31T12:07:21Z</time>
      </trkpt>
      <trkpt lat="43.43124" lon="-0.37013">
        <ele>266.2</ele>
        <time>2026-08-31T12:07:22Z</time>
      </trkpt>
      <trkpt lat="43.43125" lon="-0.37014">
        <ele>266.2</ele>
        <time>2026-08-31T12:07:22Z</time>
      </trkpt>
      <trkpt lat="43.43125" lon="-0.37014">
        <ele>267.2</ele>
        <time>2026-08-31T12:07:23Z</time>
      </trkpt>
      <trkpt lat="43.43125" lon="-0.37015">
        <ele>267.2</ele>
        <time>2026-08-31T12:07:24Z</time>
      </trkpt>
      <trkpt lat="43.43126" lon="-0.37015">
        <ele>267.2</ele>
        <time>2026-08-31T12:07:24Z</time>
      </trkpt>
      <trkpt lat="43.43126" lon="-0.37016">
        <ele>266.2</ele>
        <time>2026-08-31T12:07:25Z</time>
      </trkpt>
      <trkpt lat="43.43127" lon="-0.37017">
        <ele>266.2</ele>
        <time>2026-08-31T12:07:26Z</time>
      </trkpt>
      <trkpt lat="43.43127" lon="-0.37017">
        <ele>266.2</ele>
        <time>2026-08-31T12:07:26Z</time>
      </trkpt>
      <trkpt lat="43.43127" lon="-0.37017">
        <ele>267.2</ele>
        <time>2026-08-31T12:07:27Z</time>
      </trkpt>
      <trkpt lat="43.43128" lon="-0.37018">
        <ele>267.2</ele>
        <time>2026-08-31T12:07:27Z</time>
      </trkpt>
      <trkpt lat="43.43128" lon="-0.37018">
        <ele>267.2</ele>
        <time>2026-08-31T12:07:28Z</time>
      </trkpt>
      <trkpt lat="43.43129" lon="-0.37019">
        <ele>267.2</ele>
        <time>2026-08-31T12:07:29Z</time>
      </trkpt>
      <trkpt lat="43.43129" lon="-0.3702">
        <ele>266.2</ele>
        <time>2026-08-31T12:07:29Z</time>
      </trkpt>
      <trkpt lat="43.43129" lon="-0.3702">
        <ele>266.2</ele>
        <time>2026-08-31T12:07:30Z</time>
      </trkpt>
      <trkpt lat="43.4313" lon="-0.37021">
        <ele>267.2</ele>
        <time>2026-08-31T12:07:30Z</time>
      </trkpt>
      <trkpt lat="43.4313" lon="-0.37021">
        <ele>267.2</ele>
        <time>2026-08-31T12:07:31Z</time>
      </trkpt>
      <trkpt lat="43.43131" lon="-0.37022">
        <ele>267.2</ele>
        <time>2026-08-31T12:07:31Z</time>
      </trkpt>
      <trkpt lat="43.43131" lon="-0.37023">
        <ele>266.2</ele>
        <time>2026-08-31T12:07:32Z</time>
      </trkpt>
      <trkpt lat="43.43132" lon="-0.37024">
        <ele>266.2</ele>
        <time>2026-08-31T12:07:32Z</time>
      </trkpt>
      <trkpt lat="43.43132" lon="-0.37024">
        <ele>266.2</ele>
        <time>2026-08-31T12:07:33Z</time>
      </trkpt>
      <trkpt lat="43.43133" lon="-0.37025">
        <ele>266.2</ele>
        <time>2026-08-31T12:07:34Z</time>
      </trkpt>
      <trkpt lat="43.43133" lon="-0.37026">
        <ele>267.2</ele>
        <time>2026-08-31T12:07:34Z</time>
      </trkpt>
      <trkpt lat="43.43134" lon="-0.37026">
        <ele>266.2</ele>
        <time>2026-08-31T12:07:35Z</time>
      </trkpt>
      <trkpt lat="43.43134" lon="-0.37027">
        <ele>266.2</ele>
        <time>2026-08-31T12:07:35Z</time>
      </trkpt>
      <trkpt lat="43.43135" lon="-0.37027">
        <ele>266.2</ele>
        <time>2026-08-31T12:07:36Z</time>
      </trkpt>
      <trkpt lat="43.43135" lon="-0.37028">
        <ele>266.2</ele>
        <time>2026-08-31T12:07:36Z</time>
      </trkpt>
      <trkpt lat="43.43136" lon="-0.37029">
        <ele>266.2</ele>
        <time>2026-08-31T12:07:37Z</time>
      </trkpt>
      <trkpt lat="43.43136" lon="-0.37029">
        <ele>266.2</ele>
        <time>2026-08-31T12:07:38Z</time>
      </trkpt>
      <trkpt lat="43.43137" lon="-0.3703">
        <ele>265.2</ele>
        <time>2026-08-31T12:07:38Z</time>
      </trkpt>
      <trkpt lat="43.43137" lon="-0.3703">
        <ele>265.2</ele>
        <time>2026-08-31T12:07:39Z</time>
      </trkpt>
      <trkpt lat="43.43138" lon="-0.37031">
        <ele>265.2</ele>
        <time>2026-08-31T12:07:39Z</time>
      </trkpt>
      <trkpt lat="43.43138" lon="-0.37032">
        <ele>265.2</ele>
        <time>2026-08-31T12:07:40Z</time>
      </trkpt>
      <trkpt lat="43.43139" lon="-0.37032">
        <ele>265.2</ele>
        <time>2026-08-31T12:07:40Z</time>
      </trkpt>
      <trkpt lat="43.43139" lon="-0.37033">
        <ele>266.2</ele>
        <time>2026-08-31T12:07:41Z</time>
      </trkpt>
      <trkpt lat="43.4314" lon="-0.37033">
        <ele>266.2</ele>
        <time>2026-08-31T12:07:41Z</time>
      </trkpt>
      <trkpt lat="43.4314" lon="-0.37034">
        <ele>266.2</ele>
        <time>2026-08-31T12:07:42Z</time>
      </trkpt>
      <trkpt lat="43.4314" lon="-0.37035">
        <ele>266.2</ele>
        <time>2026-08-31T12:07:43Z</time>
      </trkpt>
      <trkpt lat="43.43141" lon="-0.37036">
        <ele>266.2</ele>
        <time>2026-08-31T12:07:43Z</time>
      </trkpt>
      <trkpt lat="43.43141" lon="-0.37036">
        <ele>266.2</ele>
        <time>2026-08-31T12:07:44Z</time>
      </trkpt>
      <trkpt lat="43.43142" lon="-0.37037">
        <ele>266.2</ele>
        <time>2026-08-31T12:07:44Z</time>
      </trkpt>
      <trkpt lat="43.43142" lon="-0.37038">
        <ele>266.2</ele>
        <time>2026-08-31T12:07:45Z</time>
      </trkpt>
      <trkpt lat="43.43142" lon="-0.37039">
        <ele>266.2</ele>
        <time>2026-08-31T12:07:46Z</time>
      </trkpt>
      <trkpt lat="43.43143" lon="-0.37039">
        <ele>265.2</ele>
        <time>2026-08-31T12:07:46Z</time>
      </trkpt>
      <trkpt lat="43.43144" lon="-0.3704">
        <ele>265.2</ele>
        <time>2026-08-31T12:07:47Z</time>
      </trkpt>
      <trkpt lat="43.43144" lon="-0.37041">
        <ele>265.2</ele>
        <time>2026-08-31T12:07:47Z</time>
      </trkpt>
      <trkpt lat="43.43144" lon="-0.37042">
        <ele>265.2</ele>
        <time>2026-08-31T12:07:48Z</time>
      </trkpt>
      <trkpt lat="43.43145" lon="-0.37042">
        <ele>265.2</ele>
        <time>2026-08-31T12:07:48Z</time>
      </trkpt>
      <trkpt lat="43.43146" lon="-0.37043">
        <ele>265.2</ele>
        <time>2026-08-31T12:07:49Z</time>
      </trkpt>
      <trkpt lat="43.43146" lon="-0.37044">
        <ele>265.2</ele>
        <time>2026-08-31T12:07:49Z</time>
      </trkpt>
      <trkpt lat="43.43146" lon="-0.37045">
        <ele>265.2</ele>
        <time>2026-08-31T12:07:50Z</time>
      </trkpt>
      <trkpt lat="43.43147" lon="-0.37045">
        <ele>265.2</ele>
        <time>2026-08-31T12:07:51Z</time>
      </trkpt>
      <trkpt lat="43.43147" lon="-0.37046">
        <ele>264.2</ele>
        <time>2026-08-31T12:07:51Z</time>
      </trkpt>
      <trkpt lat="43.43147" lon="-0.37047">
        <ele>264.2</ele>
        <time>2026-08-31T12:07:52Z</time>
      </trkpt>
      <trkpt lat="43.43148" lon="-0.37048">
        <ele>264.2</ele>
        <time>2026-08-31T12:07:52Z</time>
      </trkpt>
      <trkpt lat="43.43148" lon="-0.37049">
        <ele>264.2</ele>
        <time>2026-08-31T12:07:53Z</time>
      </trkpt>
      <trkpt lat="43.43149" lon="-0.37049">
        <ele>264.2</ele>
        <time>2026-08-31T12:07:54Z</time>
      </trkpt>
      <trkpt lat="43.43149" lon="-0.3705">
        <ele>263.2</ele>
        <time>2026-08-31T12:07:54Z</time>
      </trkpt>
      <trkpt lat="43.43149" lon="-0.3705">
        <ele>264.2</ele>
        <time>2026-08-31T12:07:55Z</time>
      </trkpt>
      <trkpt lat="43.4315" lon="-0.37051">
        <ele>264.2</ele>
        <time>2026-08-31T12:07:55Z</time>
      </trkpt>
      <trkpt lat="43.4315" lon="-0.37052">
        <ele>264.2</ele>
        <time>2026-08-31T12:07:56Z</time>
      </trkpt>
      <trkpt lat="43.43151" lon="-0.37052">
        <ele>264.2</ele>
        <time>2026-08-31T12:07:56Z</time>
      </trkpt>
      <trkpt lat="43.43151" lon="-0.37053">
        <ele>263.2</ele>
        <time>2026-08-31T12:07:57Z</time>
      </trkpt>
      <trkpt lat="43.43152" lon="-0.37053">
        <ele>263.2</ele>
        <time>2026-08-31T12:07:58Z</time>
      </trkpt>
      <trkpt lat="43.43152" lon="-0.37054">
        <ele>263.2</ele>
        <time>2026-08-31T12:07:58Z</time>
      </trkpt>
      <trkpt lat="43.43153" lon="-0.37055">
        <ele>263.2</ele>
        <time>2026-08-31T12:07:59Z</time>
      </trkpt>
      <trkpt lat="43.43153" lon="-0.37055">
        <ele>263.2</ele>
        <time>2026-08-31T12:07:59Z</time>
      </trkpt>
      <trkpt lat="43.43153" lon="-0.37056">
        <ele>263.2</ele>
        <time>2026-08-31T12:08:00Z</time>
      </trkpt>
      <trkpt lat="43.43154" lon="-0.37057">
        <ele>263.2</ele>
        <time>2026-08-31T12:08:01Z</time>
      </trkpt>
      <trkpt lat="43.43154" lon="-0.37058">
        <ele>262.2</ele>
        <time>2026-08-31T12:08:01Z</time>
      </trkpt>
      <trkpt lat="43.43155" lon="-0.37058">
        <ele>263.2</ele>
        <time>2026-08-31T12:08:02Z</time>
      </trkpt>
      <trkpt lat="43.43155" lon="-0.37059">
        <ele>263.2</ele>
        <time>2026-08-31T12:08:02Z</time>
      </trkpt>
      <trkpt lat="43.43156" lon="-0.37059">
        <ele>262.2</ele>
        <time>2026-08-31T12:08:03Z</time>
      </trkpt>
      <trkpt lat="43.43156" lon="-0.3706">
        <ele>262.2</ele>
        <time>2026-08-31T12:08:03Z</time>
      </trkpt>
      <trkpt lat="43.43157" lon="-0.37061">
        <ele>262.2</ele>
        <time>2026-08-31T12:08:04Z</time>
      </trkpt>
      <trkpt lat="43.43157" lon="-0.37061">
        <ele>262.2</ele>
        <time>2026-08-31T12:08:05Z</time>
      </trkpt>
      <trkpt lat="43.43158" lon="-0.37062">
        <ele>263.2</ele>
        <time>2026-08-31T12:08:05Z</time>
      </trkpt>
      <trkpt lat="43.43158" lon="-0.37063">
        <ele>263.2</ele>
        <time>2026-08-31T12:08:06Z</time>
      </trkpt>
      <trkpt lat="43.43158" lon="-0.37064">
        <ele>263.2</ele>
        <time>2026-08-31T12:08:06Z</time>
      </trkpt>
      <trkpt lat="43.43159" lon="-0.37064">
        <ele>263.2</ele>
        <time>2026-08-31T12:08:07Z</time>
      </trkpt>
      <trkpt lat="43.43159" lon="-0.37065">
        <ele>263.2</ele>
        <time>2026-08-31T12:08:08Z</time>
      </trkpt>
      <trkpt lat="43.4316" lon="-0.37066">
        <ele>263.2</ele>
        <time>2026-08-31T12:08:08Z</time>
      </trkpt>
      <trkpt lat="43.4316" lon="-0.37067">
        <ele>262.2</ele>
        <time>2026-08-31T12:08:09Z</time>
      </trkpt>
      <trkpt lat="43.4316" lon="-0.37067">
        <ele>262.2</ele>
        <time>2026-08-31T12:08:10Z</time>
      </trkpt>
      <trkpt lat="43.4316" lon="-0.37068">
        <ele>262.2</ele>
        <time>2026-08-31T12:08:11Z</time>
      </trkpt>
      <trkpt lat="43.43161" lon="-0.37068">
        <ele>262.2</ele>
        <time>2026-08-31T12:08:12Z</time>
      </trkpt>
      <trkpt lat="43.43161" lon="-0.37068">
        <ele>262.2</ele>
        <time>2026-08-31T12:08:13Z</time>
      </trkpt>
      <trkpt lat="43.43161" lon="-0.37068">
        <ele>262.2</ele>
        <time>2026-08-31T12:08:13Z</time>
      </trkpt>
      <trkpt lat="43.43161" lon="-0.37069">
        <ele>262.2</ele>
        <time>2026-08-31T12:08:14Z</time>
      </trkpt>
      <trkpt lat="43.43161" lon="-0.37069">
        <ele>262.2</ele>
        <time>2026-08-31T12:08:14Z</time>
      </trkpt>
      <trkpt lat="43.43162" lon="-0.3707">
        <ele>262.2</ele>
        <time>2026-08-31T12:08:15Z</time>
      </trkpt>
      <trkpt lat="43.43162" lon="-0.37071">
        <ele>262.2</ele>
        <time>2026-08-31T12:08:15Z</time>
      </trkpt>
      <trkpt lat="43.43163" lon="-0.37071">
        <ele>262.2</ele>
        <time>2026-08-31T12:08:16Z</time>
      </trkpt>
      <trkpt lat="43.43164" lon="-0.37072">
        <ele>262.2</ele>
        <time>2026-08-31T12:08:16Z</time>
      </trkpt>
      <trkpt lat="43.43164" lon="-0.37073">
        <ele>262.2</ele>
        <time>2026-08-31T12:08:17Z</time>
      </trkpt>
      <trkpt lat="43.43165" lon="-0.37073">
        <ele>262.2</ele>
        <time>2026-08-31T12:08:18Z</time>
      </trkpt>
      <trkpt lat="43.43165" lon="-0.37074">
        <ele>262.2</ele>
        <time>2026-08-31T12:08:18Z</time>
      </trkpt>
      <trkpt lat="43.43166" lon="-0.37074">
        <ele>262.2</ele>
        <time>2026-08-31T12:08:19Z</time>
      </trkpt>
      <trkpt lat="43.43166" lon="-0.37075">
        <ele>262.2</ele>
        <time>2026-08-31T12:08:20Z</time>
      </trkpt>
      <trkpt lat="43.43166" lon="-0.37075">
        <ele>262.2</ele>
        <time>2026-08-31T12:08:21Z</time>
      </trkpt>
      <trkpt lat="43.43166" lon="-0.37075">
        <ele>262.2</ele>
        <time>2026-08-31T12:08:21Z</time>
      </trkpt>
      <trkpt lat="43.43167" lon="-0.37076">
        <ele>262.2</ele>
        <time>2026-08-31T12:08:22Z</time>
      </trkpt>
      <trkpt lat="43.43167" lon="-0.37076">
        <ele>262.2</ele>
        <time>2026-08-31T12:08:23Z</time>
      </trkpt>
      <trkpt lat="43.43168" lon="-0.37077">
        <ele>262.2</ele>
        <time>2026-08-31T12:08:23Z</time>
      </trkpt>
      <trkpt lat="43.43168" lon="-0.37077">
        <ele>262.2</ele>
        <time>2026-08-31T12:08:24Z</time>
      </trkpt>
      <trkpt lat="43.43169" lon="-0.37078">
        <ele>262.2</ele>
        <time>2026-08-31T12:08:24Z</time>
      </trkpt>
      <trkpt lat="43.43169" lon="-0.37078">
        <ele>262.2</ele>
        <time>2026-08-31T12:08:25Z</time>
      </trkpt>
      <trkpt lat="43.4317" lon="-0.37079">
        <ele>262.2</ele>
        <time>2026-08-31T12:08:26Z</time>
      </trkpt>
      <trkpt lat="43.43171" lon="-0.3708">
        <ele>262.2</ele>
        <time>2026-08-31T12:08:26Z</time>
      </trkpt>
      <trkpt lat="43.43171" lon="-0.3708">
        <ele>261.2</ele>
        <time>2026-08-31T12:08:27Z</time>
      </trkpt>
      <trkpt lat="43.43172" lon="-0.37081">
        <ele>261.2</ele>
        <time>2026-08-31T12:08:28Z</time>
      </trkpt>
      <trkpt lat="43.43172" lon="-0.37081">
        <ele>261.2</ele>
        <time>2026-08-31T12:08:28Z</time>
      </trkpt>
      <trkpt lat="43.43172" lon="-0.37082">
        <ele>261.2</ele>
        <time>2026-08-31T12:08:29Z</time>
      </trkpt>
      <trkpt lat="43.43173" lon="-0.37083">
        <ele>261.2</ele>
        <time>2026-08-31T12:08:29Z</time>
      </trkpt>
      <trkpt lat="43.43174" lon="-0.37084">
        <ele>261.2</ele>
        <time>2026-08-31T12:08:30Z</time>
      </trkpt>
      <trkpt lat="43.43174" lon="-0.37084">
        <ele>261.2</ele>
        <time>2026-08-31T12:08:31Z</time>
      </trkpt>
      <trkpt lat="43.43175" lon="-0.37085">
        <ele>261.2</ele>
        <time>2026-08-31T12:08:32Z</time>
      </trkpt>
      <trkpt lat="43.43175" lon="-0.37085">
        <ele>261.2</ele>
        <time>2026-08-31T12:08:32Z</time>
      </trkpt>
      <trkpt lat="43.43176" lon="-0.37086">
        <ele>261.2</ele>
        <time>2026-08-31T12:08:33Z</time>
      </trkpt>
      <trkpt lat="43.43177" lon="-0.37086">
        <ele>261.2</ele>
        <time>2026-08-31T12:08:33Z</time>
      </trkpt>
      <trkpt lat="43.43177" lon="-0.37086">
        <ele>261.2</ele>
        <time>2026-08-31T12:08:34Z</time>
      </trkpt>
      <trkpt lat="43.43178" lon="-0.37087">
        <ele>261.2</ele>
        <time>2026-08-31T12:08:34Z</time>
      </trkpt>
      <trkpt lat="43.43178" lon="-0.37087">
        <ele>261.2</ele>
        <time>2026-08-31T12:08:35Z</time>
      </trkpt>
      <trkpt lat="43.43179" lon="-0.37087">
        <ele>261.2</ele>
        <time>2026-08-31T12:08:36Z</time>
      </trkpt>
      <trkpt lat="43.4318" lon="-0.37087">
        <ele>261.2</ele>
        <time>2026-08-31T12:08:36Z</time>
      </trkpt>
      <trkpt lat="43.4318" lon="-0.37088">
        <ele>261.2</ele>
        <time>2026-08-31T12:08:37Z</time>
      </trkpt>
      <trkpt lat="43.43181" lon="-0.37088">
        <ele>261.2</ele>
        <time>2026-08-31T12:08:37Z</time>
      </trkpt>
      <trkpt lat="43.43181" lon="-0.37089">
        <ele>261.2</ele>
        <time>2026-08-31T12:08:38Z</time>
      </trkpt>
      <trkpt lat="43.43182" lon="-0.3709">
        <ele>261.2</ele>
        <time>2026-08-31T12:08:39Z</time>
      </trkpt>
      <trkpt lat="43.43182" lon="-0.3709">
        <ele>260.2</ele>
        <time>2026-08-31T12:08:39Z</time>
      </trkpt>
      <trkpt lat="43.43183" lon="-0.3709">
        <ele>260.2</ele>
        <time>2026-08-31T12:08:40Z</time>
      </trkpt>
      <trkpt lat="43.43183" lon="-0.37091">
        <ele>260.2</ele>
        <time>2026-08-31T12:08:40Z</time>
      </trkpt>
      <trkpt lat="43.43184" lon="-0.37091">
        <ele>260.2</ele>
        <time>2026-08-31T12:08:41Z</time>
      </trkpt>
      <trkpt lat="43.43185" lon="-0.37092">
        <ele>260.2</ele>
        <time>2026-08-31T12:08:41Z</time>
      </trkpt>
      <trkpt lat="43.43185" lon="-0.37092">
        <ele>260.2</ele>
        <time>2026-08-31T12:08:42Z</time>
      </trkpt>
      <trkpt lat="43.43186" lon="-0.37093">
        <ele>260.2</ele>
        <time>2026-08-31T12:08:42Z</time>
      </trkpt>
      <trkpt lat="43.43186" lon="-0.37094">
        <ele>261.2</ele>
        <time>2026-08-31T12:08:43Z</time>
      </trkpt>
      <trkpt lat="43.43187" lon="-0.37094">
        <ele>261.2</ele>
        <time>2026-08-31T12:08:44Z</time>
      </trkpt>
      <trkpt lat="43.43187" lon="-0.37095">
        <ele>260.2</ele>
        <time>2026-08-31T12:08:45Z</time>
      </trkpt>
      <trkpt lat="43.43186" lon="-0.37096">
        <ele>260.2</ele>
        <time>2026-08-31T12:08:45Z</time>
      </trkpt>
      <trkpt lat="43.43185" lon="-0.37096">
        <ele>260.2</ele>
        <time>2026-08-31T12:08:47Z</time>
      </trkpt>
      <trkpt lat="43.43186" lon="-0.37097">
        <ele>260.2</ele>
        <time>2026-08-31T12:08:48Z</time>
      </trkpt>
      <trkpt lat="43.43188" lon="-0.37097">
        <ele>260.2</ele>
        <time>2026-08-31T12:08:49Z</time>
      </trkpt>
      <trkpt lat="43.43189" lon="-0.37097">
        <ele>260.2</ele>
        <time>2026-08-31T12:08:49Z</time>
      </trkpt>
      <trkpt lat="43.4319" lon="-0.37097">
        <ele>260.2</ele>
        <time>2026-08-31T12:08:50Z</time>
      </trkpt>
      <trkpt lat="43.4319" lon="-0.37098">
        <ele>260.2</ele>
        <time>2026-08-31T12:08:50Z</time>
      </trkpt>
      <trkpt lat="43.43191" lon="-0.37098">
        <ele>260.2</ele>
        <time>2026-08-31T12:08:51Z</time>
      </trkpt>
      <trkpt lat="43.43192" lon="-0.37098">
        <ele>260.2</ele>
        <time>2026-08-31T12:08:51Z</time>
      </trkpt>
      <trkpt lat="43.43192" lon="-0.37099">
        <ele>260.2</ele>
        <time>2026-08-31T12:08:52Z</time>
      </trkpt>
      <trkpt lat="43.43193" lon="-0.37099">
        <ele>258.2</ele>
        <time>2026-08-31T12:08:53Z</time>
      </trkpt>
      <trkpt lat="43.43194" lon="-0.37099">
        <ele>258.2</ele>
        <time>2026-08-31T12:08:54Z</time>
      </trkpt>
      <trkpt lat="43.43194" lon="-0.371">
        <ele>258.2</ele>
        <time>2026-08-31T12:08:54Z</time>
      </trkpt>
      <trkpt lat="43.43195" lon="-0.371">
        <ele>257.2</ele>
        <time>2026-08-31T12:08:55Z</time>
      </trkpt>
      <trkpt lat="43.43195" lon="-0.371">
        <ele>257.2</ele>
        <time>2026-08-31T12:08:56Z</time>
      </trkpt>
      <trkpt lat="43.43196" lon="-0.37101">
        <ele>257.2</ele>
        <time>2026-08-31T12:08:56Z</time>
      </trkpt>
      <trkpt lat="43.43197" lon="-0.37101">
        <ele>257.2</ele>
        <time>2026-08-31T12:08:57Z</time>
      </trkpt>
      <trkpt lat="43.43197" lon="-0.37102">
        <ele>257.2</ele>
        <time>2026-08-31T12:08:58Z</time>
      </trkpt>
      <trkpt lat="43.43198" lon="-0.37103">
        <ele>257.2</ele>
        <time>2026-08-31T12:08:58Z</time>
      </trkpt>
      <trkpt lat="43.43198" lon="-0.37104">
        <ele>257.2</ele>
        <time>2026-08-31T12:08:59Z</time>
      </trkpt>
      <trkpt lat="43.43199" lon="-0.37105">
        <ele>256.2</ele>
        <time>2026-08-31T12:09:00Z</time>
      </trkpt>
      <trkpt lat="43.43199" lon="-0.37106">
        <ele>256.2</ele>
        <time>2026-08-31T12:09:00Z</time>
      </trkpt>
      <trkpt lat="43.43199" lon="-0.37106">
        <ele>256.2</ele>
        <time>2026-08-31T12:09:01Z</time>
      </trkpt>
      <trkpt lat="43.432" lon="-0.37107">
        <ele>256.2</ele>
        <time>2026-08-31T12:09:02Z</time>
      </trkpt>
      <trkpt lat="43.432" lon="-0.37108">
        <ele>256.2</ele>
        <time>2026-08-31T12:09:02Z</time>
      </trkpt>
      <trkpt lat="43.43199" lon="-0.37109">
        <ele>256.2</ele>
        <time>2026-08-31T12:09:03Z</time>
      </trkpt>
      <trkpt lat="43.43199" lon="-0.37109">
        <ele>256.2</ele>
        <time>2026-08-31T12:09:04Z</time>
      </trkpt>
      <trkpt lat="43.43199" lon="-0.3711">
        <ele>256.2</ele>
        <time>2026-08-31T12:09:04Z</time>
      </trkpt>
      <trkpt lat="43.43199" lon="-0.37111">
        <ele>256.2</ele>
        <time>2026-08-31T12:09:05Z</time>
      </trkpt>
      <trkpt lat="43.43199" lon="-0.37112">
        <ele>256.2</ele>
        <time>2026-08-31T12:09:06Z</time>
      </trkpt>
      <trkpt lat="43.432" lon="-0.37113">
        <ele>255.2</ele>
        <time>2026-08-31T12:09:06Z</time>
      </trkpt>
      <trkpt lat="43.432" lon="-0.37113">
        <ele>255.2</ele>
        <time>2026-08-31T12:09:07Z</time>
      </trkpt>
      <trkpt lat="43.432" lon="-0.37114">
        <ele>255.2</ele>
        <time>2026-08-31T12:09:08Z</time>
      </trkpt>
      <trkpt lat="43.43201" lon="-0.37115">
        <ele>256.2</ele>
        <time>2026-08-31T12:09:08Z</time>
      </trkpt>
      <trkpt lat="43.43201" lon="-0.37116">
        <ele>256.2</ele>
        <time>2026-08-31T12:09:10Z</time>
      </trkpt>
      <trkpt lat="43.43201" lon="-0.37117">
        <ele>256.2</ele>
        <time>2026-08-31T12:09:11Z</time>
      </trkpt>
      <trkpt lat="43.43201" lon="-0.37118">
        <ele>256.2</ele>
        <time>2026-08-31T12:09:12Z</time>
      </trkpt>
      <trkpt lat="43.43201" lon="-0.37118">
        <ele>256.2</ele>
        <time>2026-08-31T12:09:13Z</time>
      </trkpt>
      <trkpt lat="43.43202" lon="-0.37119">
        <ele>256.2</ele>
        <time>2026-08-31T12:09:13Z</time>
      </trkpt>
      <trkpt lat="43.43202" lon="-0.3712">
        <ele>256.2</ele>
        <time>2026-08-31T12:09:14Z</time>
      </trkpt>
      <trkpt lat="43.43203" lon="-0.3712">
        <ele>256.2</ele>
        <time>2026-08-31T12:09:15Z</time>
      </trkpt>
      <trkpt lat="43.43203" lon="-0.3712">
        <ele>256.2</ele>
        <time>2026-08-31T12:09:16Z</time>
      </trkpt>
      <trkpt lat="43.43204" lon="-0.37121">
        <ele>256.2</ele>
        <time>2026-08-31T12:09:16Z</time>
      </trkpt>
      <trkpt lat="43.43204" lon="-0.37121">
        <ele>256.2</ele>
        <time>2026-08-31T12:09:17Z</time>
      </trkpt>
      <trkpt lat="43.43204" lon="-0.3712">
        <ele>256.2</ele>
        <time>2026-08-31T12:09:18Z</time>
      </trkpt>
      <trkpt lat="43.43204" lon="-0.3712">
        <ele>256.2</ele>
        <time>2026-08-31T12:09:19Z</time>
      </trkpt>
      <trkpt lat="43.43204" lon="-0.3712">
        <ele>256.2</ele>
        <time>2026-08-31T12:09:20Z</time>
      </trkpt>
      <trkpt lat="43.43204" lon="-0.37119">
        <ele>255.2</ele>
        <time>2026-08-31T12:09:21Z</time>
      </trkpt>
      <trkpt lat="43.43204" lon="-0.37119">
        <ele>255.2</ele>
        <time>2026-08-31T12:09:21Z</time>
      </trkpt>
      <trkpt lat="43.43204" lon="-0.37119">
        <ele>255.2</ele>
        <time>2026-08-31T12:09:22Z</time>
      </trkpt>
      <trkpt lat="43.43204" lon="-0.37119">
        <ele>255.2</ele>
        <time>2026-08-31T12:09:23Z</time>
      </trkpt>
      <trkpt lat="43.43204" lon="-0.37119">
        <ele>255.2</ele>
        <time>2026-08-31T12:09:24Z</time>
      </trkpt>
      <trkpt lat="43.43204" lon="-0.37119">
        <ele>256.2</ele>
        <time>2026-08-31T12:09:25Z</time>
      </trkpt>
      <trkpt lat="43.43204" lon="-0.37119">
        <ele>255.2</ele>
        <time>2026-08-31T12:09:26Z</time>
      </trkpt>
      <trkpt lat="43.43204" lon="-0.37119">
        <ele>255.2</ele>
        <time>2026-08-31T12:09:27Z</time>
      </trkpt>
      <trkpt lat="43.43204" lon="-0.37119">
        <ele>254.2</ele>
        <time>2026-08-31T12:09:28Z</time>
      </trkpt>
      <trkpt lat="43.43204" lon="-0.3712">
        <ele>255.2</ele>
        <time>2026-08-31T12:09:29Z</time>
      </trkpt>
      <trkpt lat="43.43204" lon="-0.3712">
        <ele>255.2</ele>
        <time>2026-08-31T12:09:30Z</time>
      </trkpt>
      <trkpt lat="43.43204" lon="-0.3712">
        <ele>255.2</ele>
        <time>2026-08-31T12:09:31Z</time>
      </trkpt>
      <trkpt lat="43.43204" lon="-0.3712">
        <ele>254.2</ele>
        <time>2026-08-31T12:09:32Z</time>
      </trkpt>
      <trkpt lat="43.43205" lon="-0.3712">
        <ele>254.2</ele>
        <time>2026-08-31T12:09:33Z</time>
      </trkpt>
      <trkpt lat="43.43205" lon="-0.3712">
        <ele>254.2</ele>
        <time>2026-08-31T12:09:34Z</time>
      </trkpt>
      <trkpt lat="43.43205" lon="-0.3712">
        <ele>253.2</ele>
        <time>2026-08-31T12:09:35Z</time>
      </trkpt>
      <trkpt lat="43.43205" lon="-0.3712">
        <ele>252.2</ele>
        <time>2026-08-31T12:09:36Z</time>
      </trkpt>
      <trkpt lat="43.43205" lon="-0.3712">
        <ele>252.2</ele>
        <time>2026-08-31T12:09:37Z</time>
      </trkpt>
      <trkpt lat="43.43205" lon="-0.3712">
        <ele>253.2</ele>
        <time>2026-08-31T12:09:38Z</time>
      </trkpt>
      <trkpt lat="43.43205" lon="-0.3712">
        <ele>253.2</ele>
        <time>2026-08-31T12:09:39Z</time>
      </trkpt>
      <trkpt lat="43.43205" lon="-0.3712">
        <ele>253.2</ele>
        <time>2026-08-31T12:09:40Z</time>
      </trkpt>
      <trkpt lat="43.43206" lon="-0.37121">
        <ele>253.2</ele>
        <time>2026-08-31T12:09:41Z</time>
      </trkpt>
      <trkpt lat="43.43207" lon="-0.37121">
        <ele>253.2</ele>
        <time>2026-08-31T12:09:42Z</time>
      </trkpt>
      <trkpt lat="43.43207" lon="-0.37121">
        <ele>253.2</ele>
        <time>2026-08-31T12:09:43Z</time>
      </trkpt>
      <trkpt lat="43.43207" lon="-0.37122">
        <ele>253.2</ele>
        <time>2026-08-31T12:09:44Z</time>
      </trkpt>
      <trkpt lat="43.43207" lon="-0.37122">
        <ele>253.2</ele>
        <time>2026-08-31T12:09:45Z</time>
      </trkpt>
      <trkpt lat="43.43208" lon="-0.37122">
        <ele>253.2</ele>
        <time>2026-08-31T12:09:46Z</time>
      </trkpt>
      <trkpt lat="43.43208" lon="-0.37122">
        <ele>253.2</ele>
        <time>2026-08-31T12:09:47Z</time>
      </trkpt>
      <trkpt lat="43.4321" lon="-0.37123">
        <ele>253.2</ele>
        <time>2026-08-31T12:09:48Z</time>
      </trkpt>
      <trkpt lat="43.4321" lon="-0.37123">
        <ele>253.2</ele>
        <time>2026-08-31T12:09:49Z</time>
      </trkpt>
      <trkpt lat="43.43211" lon="-0.37123">
        <ele>254.2</ele>
        <time>2026-08-31T12:09:50Z</time>
      </trkpt>
      <trkpt lat="43.4321" lon="-0.37122">
        <ele>254.2</ele>
        <time>2026-08-31T12:09:51Z</time>
      </trkpt>
      <trkpt lat="43.4321" lon="-0.37121">
        <ele>254.2</ele>
        <time>2026-08-31T12:09:52Z</time>
      </trkpt>
      <trkpt lat="43.43209" lon="-0.3712">
        <ele>254.2</ele>
        <time>2026-08-31T12:09:53Z</time>
      </trkpt>
      <trkpt lat="43.43209" lon="-0.37119">
        <ele>254.2</ele>
        <time>2026-08-31T12:09:54Z</time>
      </trkpt>
      <trkpt lat="43.43208" lon="-0.37118">
        <ele>254.2</ele>
        <time>2026-08-31T12:09:55Z</time>
      </trkpt>
      <trkpt lat="43.43208" lon="-0.37117">
        <ele>254.2</ele>
        <time>2026-08-31T12:09:56Z</time>
      </trkpt>
      <trkpt lat="43.43208" lon="-0.37116">
        <ele>255.2</ele>
        <time>2026-08-31T12:09:57Z</time>
      </trkpt>
      <trkpt lat="43.43207" lon="-0.37115">
        <ele>255.2</ele>
        <time>2026-08-31T12:09:58Z</time>
      </trkpt>
      <trkpt lat="43.43207" lon="-0.37114">
        <ele>255.2</ele>
        <time>2026-08-31T12:09:59Z</time>
      </trkpt>
      <trkpt lat="43.43207" lon="-0.37113">
        <ele>255.2</ele>
        <time>2026-08-31T12:10:00Z</time>
      </trkpt>
      <trkpt lat="43.43207" lon="-0.37112">
        <ele>255.2</ele>
        <time>2026-08-31T12:10:01Z</time>
      </trkpt>
      <trkpt lat="43.43207" lon="-0.37112">
        <ele>256.2</ele>
        <time>2026-08-31T12:10:01Z</time>
      </trkpt>
      <trkpt lat="43.43206" lon="-0.37111">
        <ele>256.2</ele>
        <time>2026-08-31T12:10:02Z</time>
      </trkpt>
      <trkpt lat="43.43206" lon="-0.37111">
        <ele>256.2</ele>
        <time>2026-08-31T12:10:03Z</time>
      </trkpt>
      <trkpt lat="43.43206" lon="-0.37111">
        <ele>256.2</ele>
        <time>2026-08-31T12:10:03Z</time>
      </trkpt>
      <trkpt lat="43.43204" lon="-0.37111">
        <ele>256.2</ele>
        <time>2026-08-31T12:10:04Z</time>
      </trkpt>
      <trkpt lat="43.43204" lon="-0.37111">
        <ele>256.2</ele>
        <time>2026-08-31T12:10:05Z</time>
      </trkpt>
      <trkpt lat="43.43202" lon="-0.37112">
        <ele>256.2</ele>
        <time>2026-08-31T12:10:05Z</time>
      </trkpt>
      <trkpt lat="43.43201" lon="-0.37116">
        <ele>257.2</ele>
        <time>2026-08-31T12:10:06Z</time>
      </trkpt>
      <trkpt lat="43.432" lon="-0.37117">
        <ele>257.2</ele>
        <time>2026-08-31T12:10:06Z</time>
      </trkpt>
      <trkpt lat="43.43199" lon="-0.37122">
        <ele>257.2</ele>
        <time>2026-08-31T12:10:07Z</time>
      </trkpt>
      <trkpt lat="43.43198" lon="-0.37123">
        <ele>257.2</ele>
        <time>2026-08-31T12:10:08Z</time>
      </trkpt>
      <trkpt lat="43.43197" lon="-0.37125">
        <ele>257.2</ele>
        <time>2026-08-31T12:10:08Z</time>
      </trkpt>
      <trkpt lat="43.43197" lon="-0.37127">
        <ele>257.2</ele>
        <time>2026-08-31T12:10:09Z</time>
      </trkpt>
      <trkpt lat="43.43196" lon="-0.37127">
        <ele>257.2</ele>
        <time>2026-08-31T12:10:09Z</time>
      </trkpt>
      <trkpt lat="43.43195" lon="-0.37128">
        <ele>258.2</ele>
        <time>2026-08-31T12:10:10Z</time>
      </trkpt>
      <trkpt lat="43.43195" lon="-0.37128">
        <ele>258.2</ele>
        <time>2026-08-31T12:10:11Z</time>
      </trkpt>
      <trkpt lat="43.43194" lon="-0.37129">
        <ele>258.2</ele>
        <time>2026-08-31T12:10:11Z</time>
      </trkpt>
      <trkpt lat="43.43193" lon="-0.3713">
        <ele>258.2</ele>
        <time>2026-08-31T12:10:12Z</time>
      </trkpt>
      <trkpt lat="43.43193" lon="-0.3713">
        <ele>258.2</ele>
        <time>2026-08-31T12:10:13Z</time>
      </trkpt>
      <trkpt lat="43.43192" lon="-0.37131">
        <ele>258.2</ele>
        <time>2026-08-31T12:10:13Z</time>
      </trkpt>
      <trkpt lat="43.43192" lon="-0.37132">
        <ele>258.2</ele>
        <time>2026-08-31T12:10:14Z</time>
      </trkpt>
      <trkpt lat="43.43191" lon="-0.37133">
        <ele>258.2</ele>
        <time>2026-08-31T12:10:15Z</time>
      </trkpt>
      <trkpt lat="43.43191" lon="-0.37134">
        <ele>257.2</ele>
        <time>2026-08-31T12:10:15Z</time>
      </trkpt>
      <trkpt lat="43.4319" lon="-0.37136">
        <ele>257.2</ele>
        <time>2026-08-31T12:10:16Z</time>
      </trkpt>
      <trkpt lat="43.43189" lon="-0.37136">
        <ele>257.2</ele>
        <time>2026-08-31T12:10:17Z</time>
      </trkpt>
      <trkpt lat="43.43189" lon="-0.37137">
        <ele>256.2</ele>
        <time>2026-08-31T12:10:17Z</time>
      </trkpt>
      <trkpt lat="43.43189" lon="-0.37138">
        <ele>256.2</ele>
        <time>2026-08-31T12:10:18Z</time>
      </trkpt>
      <trkpt lat="43.43188" lon="-0.37138">
        <ele>256.2</ele>
        <time>2026-08-31T12:10:19Z</time>
      </trkpt>
      <trkpt lat="43.43188" lon="-0.37139">
        <ele>256.2</ele>
        <time>2026-08-31T12:10:19Z</time>
      </trkpt>
      <trkpt lat="43.43188" lon="-0.3714">
        <ele>256.2</ele>
        <time>2026-08-31T12:10:20Z</time>
      </trkpt>
      <trkpt lat="43.43188" lon="-0.37141">
        <ele>256.2</ele>
        <time>2026-08-31T12:10:20Z</time>
      </trkpt>
      <trkpt lat="43.43188" lon="-0.37141">
        <ele>256.2</ele>
        <time>2026-08-31T12:10:21Z</time>
      </trkpt>
      <trkpt lat="43.43188" lon="-0.37141">
        <ele>256.2</ele>
        <time>2026-08-31T12:10:22Z</time>
      </trkpt>
      <trkpt lat="43.43187" lon="-0.37142">
        <ele>256.2</ele>
        <time>2026-08-31T12:10:22Z</time>
      </trkpt>
      <trkpt lat="43.43187" lon="-0.37143">
        <ele>255.2</ele>
        <time>2026-08-31T12:10:23Z</time>
      </trkpt>
      <trkpt lat="43.43186" lon="-0.37143">
        <ele>255.2</ele>
        <time>2026-08-31T12:10:24Z</time>
      </trkpt>
      <trkpt lat="43.43186" lon="-0.37144">
        <ele>255.2</ele>
        <time>2026-08-31T12:10:25Z</time>
      </trkpt>
      <trkpt lat="43.43186" lon="-0.37145">
        <ele>255.2</ele>
        <time>2026-08-31T12:10:25Z</time>
      </trkpt>
      <trkpt lat="43.43186" lon="-0.37145">
        <ele>256.2</ele>
        <time>2026-08-31T12:10:26Z</time>
      </trkpt>
      <trkpt lat="43.43185" lon="-0.37146">
        <ele>256.2</ele>
        <time>2026-08-31T12:10:27Z</time>
      </trkpt>
      <trkpt lat="43.43185" lon="-0.37147">
        <ele>255.2</ele>
        <time>2026-08-31T12:10:27Z</time>
      </trkpt>
      <trkpt lat="43.43185" lon="-0.37147">
        <ele>255.2</ele>
        <time>2026-08-31T12:10:28Z</time>
      </trkpt>
      <trkpt lat="43.43184" lon="-0.37148">
        <ele>255.2</ele>
        <time>2026-08-31T12:10:29Z</time>
      </trkpt>
      <trkpt lat="43.43184" lon="-0.37149">
        <ele>255.2</ele>
        <time>2026-08-31T12:10:29Z</time>
      </trkpt>
      <trkpt lat="43.43183" lon="-0.37149">
        <ele>255.2</ele>
        <time>2026-08-31T12:10:30Z</time>
      </trkpt>
      <trkpt lat="43.43183" lon="-0.3715">
        <ele>255.2</ele>
        <time>2026-08-31T12:10:31Z</time>
      </trkpt>
      <trkpt lat="43.43183" lon="-0.37151">
        <ele>255.2</ele>
        <time>2026-08-31T12:10:31Z</time>
      </trkpt>
      <trkpt lat="43.43182" lon="-0.37151">
        <ele>255.2</ele>
        <time>2026-08-31T12:10:32Z</time>
      </trkpt>
      <trkpt lat="43.43182" lon="-0.37152">
        <ele>255.2</ele>
        <time>2026-08-31T12:10:33Z</time>
      </trkpt>
      <trkpt lat="43.43182" lon="-0.37152">
        <ele>255.2</ele>
        <time>2026-08-31T12:10:33Z</time>
      </trkpt>
      <trkpt lat="43.43181" lon="-0.37152">
        <ele>255.2</ele>
        <time>2026-08-31T12:10:34Z</time>
      </trkpt>
      <trkpt lat="43.43181" lon="-0.37153">
        <ele>255.2</ele>
        <time>2026-08-31T12:10:35Z</time>
      </trkpt>
      <trkpt lat="43.43181" lon="-0.37154">
        <ele>254.2</ele>
        <time>2026-08-31T12:10:35Z</time>
      </trkpt>
      <trkpt lat="43.43181" lon="-0.37154">
        <ele>254.2</ele>
        <time>2026-08-31T12:10:36Z</time>
      </trkpt>
      <trkpt lat="43.4318" lon="-0.37155">
        <ele>254.2</ele>
        <time>2026-08-31T12:10:36Z</time>
      </trkpt>
      <trkpt lat="43.4318" lon="-0.37155">
        <ele>254.2</ele>
        <time>2026-08-31T12:10:37Z</time>
      </trkpt>
      <trkpt lat="43.43179" lon="-0.37156">
        <ele>254.2</ele>
        <time>2026-08-31T12:10:38Z</time>
      </trkpt>
      <trkpt lat="43.43179" lon="-0.37157">
        <ele>254.2</ele>
        <time>2026-08-31T12:10:38Z</time>
      </trkpt>
      <trkpt lat="43.43179" lon="-0.37157">
        <ele>254.2</ele>
        <time>2026-08-31T12:10:39Z</time>
      </trkpt>
      <trkpt lat="43.43178" lon="-0.37158">
        <ele>254.2</ele>
        <time>2026-08-31T12:10:40Z</time>
      </trkpt>
      <trkpt lat="43.43178" lon="-0.37158">
        <ele>254.2</ele>
        <time>2026-08-31T12:10:40Z</time>
      </trkpt>
      <trkpt lat="43.43178" lon="-0.37159">
        <ele>254.2</ele>
        <time>2026-08-31T12:10:41Z</time>
      </trkpt>
      <trkpt lat="43.43177" lon="-0.3716">
        <ele>254.2</ele>
        <time>2026-08-31T12:10:41Z</time>
      </trkpt>
      <trkpt lat="43.43177" lon="-0.37161">
        <ele>254.2</ele>
        <time>2026-08-31T12:10:42Z</time>
      </trkpt>
      <trkpt lat="43.43177" lon="-0.37162">
        <ele>254.2</ele>
        <time>2026-08-31T12:10:43Z</time>
      </trkpt>
      <trkpt lat="43.43176" lon="-0.37162">
        <ele>254.2</ele>
        <time>2026-08-31T12:10:43Z</time>
      </trkpt>
      <trkpt lat="43.43176" lon="-0.37163">
        <ele>254.2</ele>
        <time>2026-08-31T12:10:44Z</time>
      </trkpt>
      <trkpt lat="43.43176" lon="-0.37164">
        <ele>254.2</ele>
        <time>2026-08-31T12:10:45Z</time>
      </trkpt>
      <trkpt lat="43.43175" lon="-0.37165">
        <ele>254.2</ele>
        <time>2026-08-31T12:10:45Z</time>
      </trkpt>
      <trkpt lat="43.43175" lon="-0.37166">
        <ele>254.2</ele>
        <time>2026-08-31T12:10:46Z</time>
      </trkpt>
      <trkpt lat="43.43175" lon="-0.37167">
        <ele>254.2</ele>
        <time>2026-08-31T12:10:46Z</time>
      </trkpt>
      <trkpt lat="43.43174" lon="-0.37167">
        <ele>254.2</ele>
        <time>2026-08-31T12:10:47Z</time>
      </trkpt>
      <trkpt lat="43.43174" lon="-0.37168">
        <ele>254.2</ele>
        <time>2026-08-31T12:10:48Z</time>
      </trkpt>
      <trkpt lat="43.43173" lon="-0.37169">
        <ele>253.2</ele>
        <time>2026-08-31T12:10:48Z</time>
      </trkpt>
      <trkpt lat="43.43173" lon="-0.3717">
        <ele>253.2</ele>
        <time>2026-08-31T12:10:49Z</time>
      </trkpt>
      <trkpt lat="43.43172" lon="-0.3717">
        <ele>253.2</ele>
        <time>2026-08-31T12:10:49Z</time>
      </trkpt>
      <trkpt lat="43.43172" lon="-0.37171">
        <ele>254.2</ele>
        <time>2026-08-31T12:10:50Z</time>
      </trkpt>
      <trkpt lat="43.43171" lon="-0.37172">
        <ele>254.2</ele>
        <time>2026-08-31T12:10:51Z</time>
      </trkpt>
      <trkpt lat="43.43171" lon="-0.37173">
        <ele>254.2</ele>
        <time>2026-08-31T12:10:51Z</time>
      </trkpt>
      <trkpt lat="43.43171" lon="-0.37174">
        <ele>254.2</ele>
        <time>2026-08-31T12:10:52Z</time>
      </trkpt>
      <trkpt lat="43.4317" lon="-0.37175">
        <ele>254.2</ele>
        <time>2026-08-31T12:10:53Z</time>
      </trkpt>
      <trkpt lat="43.4317" lon="-0.37176">
        <ele>254.2</ele>
        <time>2026-08-31T12:10:53Z</time>
      </trkpt>
      <trkpt lat="43.4317" lon="-0.37176">
        <ele>255.2</ele>
        <time>2026-08-31T12:10:54Z</time>
      </trkpt>
      <trkpt lat="43.4317" lon="-0.37177">
        <ele>255.2</ele>
        <time>2026-08-31T12:10:54Z</time>
      </trkpt>
      <trkpt lat="43.4317" lon="-0.37178">
        <ele>255.2</ele>
        <time>2026-08-31T12:10:55Z</time>
      </trkpt>
      <trkpt lat="43.4317" lon="-0.37179">
        <ele>255.2</ele>
        <time>2026-08-31T12:10:56Z</time>
      </trkpt>
      <trkpt lat="43.4317" lon="-0.3718">
        <ele>255.2</ele>
        <time>2026-08-31T12:10:56Z</time>
      </trkpt>
      <trkpt lat="43.4317" lon="-0.37181">
        <ele>255.2</ele>
        <time>2026-08-31T12:10:57Z</time>
      </trkpt>
      <trkpt lat="43.43169" lon="-0.37182">
        <ele>255.2</ele>
        <time>2026-08-31T12:10:57Z</time>
      </trkpt>
      <trkpt lat="43.43169" lon="-0.37183">
        <ele>255.2</ele>
        <time>2026-08-31T12:10:58Z</time>
      </trkpt>
      <trkpt lat="43.43169" lon="-0.37183">
        <ele>254.2</ele>
        <time>2026-08-31T12:10:59Z</time>
      </trkpt>
      <trkpt lat="43.43169" lon="-0.37184">
        <ele>254.2</ele>
        <time>2026-08-31T12:10:59Z</time>
      </trkpt>
      <trkpt lat="43.43169" lon="-0.37185">
        <ele>254.2</ele>
        <time>2026-08-31T12:11:00Z</time>
      </trkpt>
      <trkpt lat="43.43169" lon="-0.37186">
        <ele>254.2</ele>
        <time>2026-08-31T12:11:01Z</time>
      </trkpt>
      <trkpt lat="43.43169" lon="-0.37187">
        <ele>255.2</ele>
        <time>2026-08-31T12:11:01Z</time>
      </trkpt>
      <trkpt lat="43.43169" lon="-0.37188">
        <ele>255.2</ele>
        <time>2026-08-31T12:11:02Z</time>
      </trkpt>
      <trkpt lat="43.43169" lon="-0.37189">
        <ele>255.2</ele>
        <time>2026-08-31T12:11:02Z</time>
      </trkpt>
      <trkpt lat="43.43168" lon="-0.37189">
        <ele>255.2</ele>
        <time>2026-08-31T12:11:03Z</time>
      </trkpt>
      <trkpt lat="43.43168" lon="-0.3719">
        <ele>255.2</ele>
        <time>2026-08-31T12:11:04Z</time>
      </trkpt>
      <trkpt lat="43.43168" lon="-0.37191">
        <ele>255.2</ele>
        <time>2026-08-31T12:11:04Z</time>
      </trkpt>
      <trkpt lat="43.43168" lon="-0.37192">
        <ele>255.2</ele>
        <time>2026-08-31T12:11:05Z</time>
      </trkpt>
      <trkpt lat="43.43168" lon="-0.37193">
        <ele>255.2</ele>
        <time>2026-08-31T12:11:05Z</time>
      </trkpt>
      <trkpt lat="43.43168" lon="-0.37194">
        <ele>255.2</ele>
        <time>2026-08-31T12:11:06Z</time>
      </trkpt>
      <trkpt lat="43.43168" lon="-0.37195">
        <ele>255.2</ele>
        <time>2026-08-31T12:11:07Z</time>
      </trkpt>
      <trkpt lat="43.43168" lon="-0.37197">
        <ele>255.2</ele>
        <time>2026-08-31T12:11:08Z</time>
      </trkpt>
      <trkpt lat="43.43167" lon="-0.37198">
        <ele>255.2</ele>
        <time>2026-08-31T12:11:08Z</time>
      </trkpt>
      <trkpt lat="43.43167" lon="-0.37199">
        <ele>255.2</ele>
        <time>2026-08-31T12:11:09Z</time>
      </trkpt>
      <trkpt lat="43.43167" lon="-0.372">
        <ele>255.2</ele>
        <time>2026-08-31T12:11:10Z</time>
      </trkpt>
      <trkpt lat="43.43167" lon="-0.37201">
        <ele>255.2</ele>
        <time>2026-08-31T12:11:10Z</time>
      </trkpt>
      <trkpt lat="43.43167" lon="-0.37202">
        <ele>256.2</ele>
        <time>2026-08-31T12:11:11Z</time>
      </trkpt>
      <trkpt lat="43.43167" lon="-0.37203">
        <ele>256.2</ele>
        <time>2026-08-31T12:11:11Z</time>
      </trkpt>
      <trkpt lat="43.43167" lon="-0.37204">
        <ele>256.2</ele>
        <time>2026-08-31T12:11:12Z</time>
      </trkpt>
      <trkpt lat="43.43167" lon="-0.37205">
        <ele>256.2</ele>
        <time>2026-08-31T12:11:13Z</time>
      </trkpt>
      <trkpt lat="43.43167" lon="-0.37206">
        <ele>256.2</ele>
        <time>2026-08-31T12:11:13Z</time>
      </trkpt>
      <trkpt lat="43.43167" lon="-0.37207">
        <ele>256.2</ele>
        <time>2026-08-31T12:11:14Z</time>
      </trkpt>
      <trkpt lat="43.43167" lon="-0.37208">
        <ele>256.2</ele>
        <time>2026-08-31T12:11:15Z</time>
      </trkpt>
      <trkpt lat="43.43167" lon="-0.37209">
        <ele>256.2</ele>
        <time>2026-08-31T12:11:15Z</time>
      </trkpt>
      <trkpt lat="43.43167" lon="-0.3721">
        <ele>257.2</ele>
        <time>2026-08-31T12:11:16Z</time>
      </trkpt>
      <trkpt lat="43.43167" lon="-0.37211">
        <ele>257.2</ele>
        <time>2026-08-31T12:11:16Z</time>
      </trkpt>
      <trkpt lat="43.43166" lon="-0.37212">
        <ele>256.2</ele>
        <time>2026-08-31T12:11:17Z</time>
      </trkpt>
      <trkpt lat="43.43166" lon="-0.37212">
        <ele>256.2</ele>
        <time>2026-08-31T12:11:17Z</time>
      </trkpt>
      <trkpt lat="43.43166" lon="-0.37213">
        <ele>256.2</ele>
        <time>2026-08-31T12:11:18Z</time>
      </trkpt>
      <trkpt lat="43.43166" lon="-0.37214">
        <ele>256.2</ele>
        <time>2026-08-31T12:11:19Z</time>
      </trkpt>
      <trkpt lat="43.43166" lon="-0.37215">
        <ele>256.2</ele>
        <time>2026-08-31T12:11:19Z</time>
      </trkpt>
      <trkpt lat="43.43165" lon="-0.37216">
        <ele>256.2</ele>
        <time>2026-08-31T12:11:20Z</time>
      </trkpt>
      <trkpt lat="43.43165" lon="-0.37217">
        <ele>256.2</ele>
        <time>2026-08-31T12:11:21Z</time>
      </trkpt>
      <trkpt lat="43.43165" lon="-0.37218">
        <ele>256.2</ele>
        <time>2026-08-31T12:11:21Z</time>
      </trkpt>
      <trkpt lat="43.43164" lon="-0.37218">
        <ele>256.2</ele>
        <time>2026-08-31T12:11:22Z</time>
      </trkpt>
      <trkpt lat="43.43164" lon="-0.37219">
        <ele>256.2</ele>
        <time>2026-08-31T12:11:22Z</time>
      </trkpt>
      <trkpt lat="43.43163" lon="-0.3722">
        <ele>256.2</ele>
        <time>2026-08-31T12:11:23Z</time>
      </trkpt>
      <trkpt lat="43.43163" lon="-0.37221">
        <ele>256.2</ele>
        <time>2026-08-31T12:11:24Z</time>
      </trkpt>
      <trkpt lat="43.43163" lon="-0.37222">
        <ele>256.2</ele>
        <time>2026-08-31T12:11:24Z</time>
      </trkpt>
      <trkpt lat="43.43162" lon="-0.37222">
        <ele>256.2</ele>
        <time>2026-08-31T12:11:25Z</time>
      </trkpt>
      <trkpt lat="43.43162" lon="-0.37223">
        <ele>256.2</ele>
        <time>2026-08-31T12:11:25Z</time>
      </trkpt>
      <trkpt lat="43.43162" lon="-0.37224">
        <ele>256.2</ele>
        <time>2026-08-31T12:11:26Z</time>
      </trkpt>
      <trkpt lat="43.43161" lon="-0.37225">
        <ele>256.2</ele>
        <time>2026-08-31T12:11:27Z</time>
      </trkpt>
      <trkpt lat="43.43161" lon="-0.37226">
        <ele>256.2</ele>
        <time>2026-08-31T12:11:27Z</time>
      </trkpt>
      <trkpt lat="43.43161" lon="-0.37226">
        <ele>256.2</ele>
        <time>2026-08-31T12:11:28Z</time>
      </trkpt>
      <trkpt lat="43.4316" lon="-0.37227">
        <ele>256.2</ele>
        <time>2026-08-31T12:11:28Z</time>
      </trkpt>
      <trkpt lat="43.43159" lon="-0.37228">
        <ele>257.2</ele>
        <time>2026-08-31T12:11:29Z</time>
      </trkpt>
      <trkpt lat="43.43159" lon="-0.37229">
        <ele>257.2</ele>
        <time>2026-08-31T12:11:30Z</time>
      </trkpt>
      <trkpt lat="43.43159" lon="-0.37229">
        <ele>258.2</ele>
        <time>2026-08-31T12:11:30Z</time>
      </trkpt>
      <trkpt lat="43.43158" lon="-0.3723">
        <ele>258.2</ele>
        <time>2026-08-31T12:11:31Z</time>
      </trkpt>
      <trkpt lat="43.43158" lon="-0.37231">
        <ele>258.2</ele>
        <time>2026-08-31T12:11:31Z</time>
      </trkpt>
      <trkpt lat="43.43158" lon="-0.37232">
        <ele>257.2</ele>
        <time>2026-08-31T12:11:32Z</time>
      </trkpt>
      <trkpt lat="43.43158" lon="-0.37233">
        <ele>257.2</ele>
        <time>2026-08-31T12:11:33Z</time>
      </trkpt>
      <trkpt lat="43.43157" lon="-0.37234">
        <ele>257.2</ele>
        <time>2026-08-31T12:11:33Z</time>
      </trkpt>
      <trkpt lat="43.43157" lon="-0.37234">
        <ele>258.2</ele>
        <time>2026-08-31T12:11:34Z</time>
      </trkpt>
      <trkpt lat="43.43157" lon="-0.37235">
        <ele>258.2</ele>
        <time>2026-08-31T12:11:35Z</time>
      </trkpt>
      <trkpt lat="43.43157" lon="-0.37236">
        <ele>258.2</ele>
        <time>2026-08-31T12:11:35Z</time>
      </trkpt>
      <trkpt lat="43.43156" lon="-0.37236">
        <ele>258.2</ele>
        <time>2026-08-31T12:11:36Z</time>
      </trkpt>
      <trkpt lat="43.43156" lon="-0.37237">
        <ele>258.2</ele>
        <time>2026-08-31T12:11:36Z</time>
      </trkpt>
      <trkpt lat="43.43156" lon="-0.37238">
        <ele>258.2</ele>
        <time>2026-08-31T12:11:37Z</time>
      </trkpt>
      <trkpt lat="43.43156" lon="-0.37239">
        <ele>258.2</ele>
        <time>2026-08-31T12:11:38Z</time>
      </trkpt>
      <trkpt lat="43.43155" lon="-0.3724">
        <ele>258.2</ele>
        <time>2026-08-31T12:11:38Z</time>
      </trkpt>
      <trkpt lat="43.43155" lon="-0.3724">
        <ele>258.2</ele>
        <time>2026-08-31T12:11:39Z</time>
      </trkpt>
      <trkpt lat="43.43155" lon="-0.37241">
        <ele>258.2</ele>
        <time>2026-08-31T12:11:39Z</time>
      </trkpt>
      <trkpt lat="43.43154" lon="-0.37242">
        <ele>258.2</ele>
        <time>2026-08-31T12:11:40Z</time>
      </trkpt>
      <trkpt lat="43.43154" lon="-0.37243">
        <ele>258.2</ele>
        <time>2026-08-31T12:11:41Z</time>
      </trkpt>
      <trkpt lat="43.43154" lon="-0.37244">
        <ele>258.2</ele>
        <time>2026-08-31T12:11:41Z</time>
      </trkpt>
      <trkpt lat="43.43153" lon="-0.37245">
        <ele>258.2</ele>
        <time>2026-08-31T12:11:42Z</time>
      </trkpt>
      <trkpt lat="43.43153" lon="-0.37246">
        <ele>258.2</ele>
        <time>2026-08-31T12:11:42Z</time>
      </trkpt>
      <trkpt lat="43.43153" lon="-0.37246">
        <ele>259.2</ele>
        <time>2026-08-31T12:11:43Z</time>
      </trkpt>
      <trkpt lat="43.43153" lon="-0.37247">
        <ele>259.2</ele>
        <time>2026-08-31T12:11:44Z</time>
      </trkpt>
      <trkpt lat="43.43152" lon="-0.37248">
        <ele>259.2</ele>
        <time>2026-08-31T12:11:44Z</time>
      </trkpt>
      <trkpt lat="43.43152" lon="-0.37249">
        <ele>260.2</ele>
        <time>2026-08-31T12:11:45Z</time>
      </trkpt>
      <trkpt lat="43.43152" lon="-0.3725">
        <ele>260.2</ele>
        <time>2026-08-31T12:11:45Z</time>
      </trkpt>
      <trkpt lat="43.43152" lon="-0.3725">
        <ele>259.2</ele>
        <time>2026-08-31T12:11:46Z</time>
      </trkpt>
      <trkpt lat="43.43151" lon="-0.37251">
        <ele>259.2</ele>
        <time>2026-08-31T12:11:47Z</time>
      </trkpt>
      <trkpt lat="43.43151" lon="-0.37252">
        <ele>260.2</ele>
        <time>2026-08-31T12:11:47Z</time>
      </trkpt>
      <trkpt lat="43.43151" lon="-0.37253">
        <ele>260.2</ele>
        <time>2026-08-31T12:11:48Z</time>
      </trkpt>
      <trkpt lat="43.43151" lon="-0.37254">
        <ele>260.2</ele>
        <time>2026-08-31T12:11:48Z</time>
      </trkpt>
      <trkpt lat="43.4315" lon="-0.37255">
        <ele>260.2</ele>
        <time>2026-08-31T12:11:49Z</time>
      </trkpt>
      <trkpt lat="43.4315" lon="-0.37256">
        <ele>260.2</ele>
        <time>2026-08-31T12:11:50Z</time>
      </trkpt>
      <trkpt lat="43.4315" lon="-0.37256">
        <ele>260.2</ele>
        <time>2026-08-31T12:11:50Z</time>
      </trkpt>
      <trkpt lat="43.43149" lon="-0.37257">
        <ele>260.2</ele>
        <time>2026-08-31T12:11:51Z</time>
      </trkpt>
      <trkpt lat="43.43149" lon="-0.37258">
        <ele>260.2</ele>
        <time>2026-08-31T12:11:51Z</time>
      </trkpt>
      <trkpt lat="43.43149" lon="-0.37258">
        <ele>260.2</ele>
        <time>2026-08-31T12:11:52Z</time>
      </trkpt>
      <trkpt lat="43.43148" lon="-0.37259">
        <ele>260.2</ele>
        <time>2026-08-31T12:11:52Z</time>
      </trkpt>
      <trkpt lat="43.43148" lon="-0.37259">
        <ele>261.2</ele>
        <time>2026-08-31T12:11:53Z</time>
      </trkpt>
      <trkpt lat="43.43148" lon="-0.3726">
        <ele>261.2</ele>
        <time>2026-08-31T12:11:54Z</time>
      </trkpt>
      <trkpt lat="43.43148" lon="-0.37261">
        <ele>260.2</ele>
        <time>2026-08-31T12:11:54Z</time>
      </trkpt>
      <trkpt lat="43.43147" lon="-0.37262">
        <ele>261.2</ele>
        <time>2026-08-31T12:11:55Z</time>
      </trkpt>
      <trkpt lat="43.43147" lon="-0.37263">
        <ele>261.2</ele>
        <time>2026-08-31T12:11:55Z</time>
      </trkpt>
      <trkpt lat="43.43147" lon="-0.37263">
        <ele>261.2</ele>
        <time>2026-08-31T12:11:56Z</time>
      </trkpt>
      <trkpt lat="43.43147" lon="-0.37264">
        <ele>261.2</ele>
        <time>2026-08-31T12:11:57Z</time>
      </trkpt>
      <trkpt lat="43.43146" lon="-0.37265">
        <ele>261.2</ele>
        <time>2026-08-31T12:11:57Z</time>
      </trkpt>
      <trkpt lat="43.43146" lon="-0.37266">
        <ele>261.2</ele>
        <time>2026-08-31T12:11:58Z</time>
      </trkpt>
      <trkpt lat="43.43146" lon="-0.37267">
        <ele>261.2</ele>
        <time>2026-08-31T12:11:58Z</time>
      </trkpt>
      <trkpt lat="43.43146" lon="-0.37268">
        <ele>262.2</ele>
        <time>2026-08-31T12:11:59Z</time>
      </trkpt>
      <trkpt lat="43.43145" lon="-0.37269">
        <ele>262.2</ele>
        <time>2026-08-31T12:12:00Z</time>
      </trkpt>
      <trkpt lat="43.43145" lon="-0.37269">
        <ele>262.2</ele>
        <time>2026-08-31T12:12:00Z</time>
      </trkpt>
      <trkpt lat="43.43145" lon="-0.3727">
        <ele>262.2</ele>
        <time>2026-08-31T12:12:01Z</time>
      </trkpt>
      <trkpt lat="43.43145" lon="-0.37271">
        <ele>262.2</ele>
        <time>2026-08-31T12:12:01Z</time>
      </trkpt>
      <trkpt lat="43.43144" lon="-0.37272">
        <ele>263.2</ele>
        <time>2026-08-31T12:12:02Z</time>
      </trkpt>
      <trkpt lat="43.43144" lon="-0.37273">
        <ele>263.2</ele>
        <time>2026-08-31T12:12:03Z</time>
      </trkpt>
      <trkpt lat="43.43144" lon="-0.37274">
        <ele>263.2</ele>
        <time>2026-08-31T12:12:03Z</time>
      </trkpt>
      <trkpt lat="43.43144" lon="-0.37274">
        <ele>262.2</ele>
        <time>2026-08-31T12:12:04Z</time>
      </trkpt>
      <trkpt lat="43.43143" lon="-0.37275">
        <ele>262.2</ele>
        <time>2026-08-31T12:12:04Z</time>
      </trkpt>
      <trkpt lat="43.43143" lon="-0.37276">
        <ele>262.2</ele>
        <time>2026-08-31T12:12:05Z</time>
      </trkpt>
      <trkpt lat="43.43143" lon="-0.37277">
        <ele>262.2</ele>
        <time>2026-08-31T12:12:06Z</time>
      </trkpt>
      <trkpt lat="43.43142" lon="-0.37278">
        <ele>262.2</ele>
        <time>2026-08-31T12:12:06Z</time>
      </trkpt>
      <trkpt lat="43.43142" lon="-0.37278">
        <ele>262.2</ele>
        <time>2026-08-31T12:12:07Z</time>
      </trkpt>
      <trkpt lat="43.43142" lon="-0.37279">
        <ele>262.2</ele>
        <time>2026-08-31T12:12:08Z</time>
      </trkpt>
      <trkpt lat="43.43141" lon="-0.3728">
        <ele>262.2</ele>
        <time>2026-08-31T12:12:08Z</time>
      </trkpt>
      <trkpt lat="43.43141" lon="-0.3728">
        <ele>261.2</ele>
        <time>2026-08-31T12:12:09Z</time>
      </trkpt>
      <trkpt lat="43.43141" lon="-0.37281">
        <ele>261.2</ele>
        <time>2026-08-31T12:12:09Z</time>
      </trkpt>
      <trkpt lat="43.43141" lon="-0.37282">
        <ele>261.2</ele>
        <time>2026-08-31T12:12:10Z</time>
      </trkpt>
      <trkpt lat="43.4314" lon="-0.37283">
        <ele>261.2</ele>
        <time>2026-08-31T12:12:11Z</time>
      </trkpt>
      <trkpt lat="43.4314" lon="-0.37284">
        <ele>261.2</ele>
        <time>2026-08-31T12:12:11Z</time>
      </trkpt>
      <trkpt lat="43.4314" lon="-0.37284">
        <ele>262.2</ele>
        <time>2026-08-31T12:12:12Z</time>
      </trkpt>
      <trkpt lat="43.4314" lon="-0.37285">
        <ele>262.2</ele>
        <time>2026-08-31T12:12:13Z</time>
      </trkpt>
      <trkpt lat="43.4314" lon="-0.37286">
        <ele>262.2</ele>
        <time>2026-08-31T12:12:13Z</time>
      </trkpt>
      <trkpt lat="43.4314" lon="-0.37286">
        <ele>262.2</ele>
        <time>2026-08-31T12:12:14Z</time>
      </trkpt>
      <trkpt lat="43.43139" lon="-0.37287">
        <ele>262.2</ele>
        <time>2026-08-31T12:12:14Z</time>
      </trkpt>
      <trkpt lat="43.43139" lon="-0.37288">
        <ele>262.2</ele>
        <time>2026-08-31T12:12:15Z</time>
      </trkpt>
      <trkpt lat="43.43139" lon="-0.37289">
        <ele>262.2</ele>
        <time>2026-08-31T12:12:16Z</time>
      </trkpt>
      <trkpt lat="43.43139" lon="-0.3729">
        <ele>262.2</ele>
        <time>2026-08-31T12:12:16Z</time>
      </trkpt>
      <trkpt lat="43.43139" lon="-0.37291">
        <ele>261.2</ele>
        <time>2026-08-31T12:12:17Z</time>
      </trkpt>
      <trkpt lat="43.43139" lon="-0.37291">
        <ele>261.2</ele>
        <time>2026-08-31T12:12:18Z</time>
      </trkpt>
      <trkpt lat="43.43139" lon="-0.37292">
        <ele>261.2</ele>
        <time>2026-08-31T12:12:18Z</time>
      </trkpt>
      <trkpt lat="43.43139" lon="-0.37293">
        <ele>261.2</ele>
        <time>2026-08-31T12:12:19Z</time>
      </trkpt>
      <trkpt lat="43.43139" lon="-0.37294">
        <ele>261.2</ele>
        <time>2026-08-31T12:12:20Z</time>
      </trkpt>
      <trkpt lat="43.43139" lon="-0.37295">
        <ele>261.2</ele>
        <time>2026-08-31T12:12:20Z</time>
      </trkpt>
      <trkpt lat="43.43139" lon="-0.37295">
        <ele>261.2</ele>
        <time>2026-08-31T12:12:21Z</time>
      </trkpt>
      <trkpt lat="43.43139" lon="-0.37296">
        <ele>261.2</ele>
        <time>2026-08-31T12:12:21Z</time>
      </trkpt>
      <trkpt lat="43.43139" lon="-0.37297">
        <ele>260.2</ele>
        <time>2026-08-31T12:12:22Z</time>
      </trkpt>
      <trkpt lat="43.43138" lon="-0.37297">
        <ele>261.2</ele>
        <time>2026-08-31T12:12:23Z</time>
      </trkpt>
      <trkpt lat="43.43138" lon="-0.37298">
        <ele>261.2</ele>
        <time>2026-08-31T12:12:23Z</time>
      </trkpt>
      <trkpt lat="43.43138" lon="-0.37299">
        <ele>261.2</ele>
        <time>2026-08-31T12:12:24Z</time>
      </trkpt>
      <trkpt lat="43.43138" lon="-0.373">
        <ele>261.2</ele>
        <time>2026-08-31T12:12:25Z</time>
      </trkpt>
      <trkpt lat="43.43137" lon="-0.37301">
        <ele>261.2</ele>
        <time>2026-08-31T12:12:25Z</time>
      </trkpt>
      <trkpt lat="43.43137" lon="-0.37301">
        <ele>261.2</ele>
        <time>2026-08-31T12:12:26Z</time>
      </trkpt>
      <trkpt lat="43.43137" lon="-0.37302">
        <ele>261.2</ele>
        <time>2026-08-31T12:12:27Z</time>
      </trkpt>
      <trkpt lat="43.43138" lon="-0.37302">
        <ele>261.2</ele>
        <time>2026-08-31T12:12:27Z</time>
      </trkpt>
      <trkpt lat="43.43138" lon="-0.37302">
        <ele>262.2</ele>
        <time>2026-08-31T12:12:28Z</time>
      </trkpt>
      <trkpt lat="43.43138" lon="-0.37303">
        <ele>262.2</ele>
        <time>2026-08-31T12:12:29Z</time>
      </trkpt>
      <trkpt lat="43.43138" lon="-0.37304">
        <ele>262.2</ele>
        <time>2026-08-31T12:12:29Z</time>
      </trkpt>
      <trkpt lat="43.43138" lon="-0.37305">
        <ele>263.2</ele>
        <time>2026-08-31T12:12:30Z</time>
      </trkpt>
      <trkpt lat="43.43138" lon="-0.37306">
        <ele>263.2</ele>
        <time>2026-08-31T12:12:31Z</time>
      </trkpt>
      <trkpt lat="43.43137" lon="-0.37307">
        <ele>263.2</ele>
        <time>2026-08-31T12:12:31Z</time>
      </trkpt>
      <trkpt lat="43.43137" lon="-0.37308">
        <ele>263.2</ele>
        <time>2026-08-31T12:12:32Z</time>
      </trkpt>
      <trkpt lat="43.43136" lon="-0.37308">
        <ele>263.2</ele>
        <time>2026-08-31T12:12:32Z</time>
      </trkpt>
      <trkpt lat="43.43136" lon="-0.37309">
        <ele>264.2</ele>
        <time>2026-08-31T12:12:33Z</time>
      </trkpt>
      <trkpt lat="43.43136" lon="-0.3731">
        <ele>264.2</ele>
        <time>2026-08-31T12:12:34Z</time>
      </trkpt>
      <trkpt lat="43.43135" lon="-0.37311">
        <ele>264.2</ele>
        <time>2026-08-31T12:12:34Z</time>
      </trkpt>
      <trkpt lat="43.43135" lon="-0.37312">
        <ele>263.2</ele>
        <time>2026-08-31T12:12:35Z</time>
      </trkpt>
      <trkpt lat="43.43134" lon="-0.37313">
        <ele>263.2</ele>
        <time>2026-08-31T12:12:36Z</time>
      </trkpt>
      <trkpt lat="43.43134" lon="-0.37314">
        <ele>264.2</ele>
        <time>2026-08-31T12:12:36Z</time>
      </trkpt>
      <trkpt lat="43.43134" lon="-0.37315">
        <ele>263.2</ele>
        <time>2026-08-31T12:12:37Z</time>
      </trkpt>
      <trkpt lat="43.43134" lon="-0.37315">
        <ele>263.2</ele>
        <time>2026-08-31T12:12:37Z</time>
      </trkpt>
      <trkpt lat="43.43133" lon="-0.37316">
        <ele>263.2</ele>
        <time>2026-08-31T12:12:38Z</time>
      </trkpt>
      <trkpt lat="43.43133" lon="-0.37317">
        <ele>263.2</ele>
        <time>2026-08-31T12:12:39Z</time>
      </trkpt>
      <trkpt lat="43.43133" lon="-0.37318">
        <ele>263.2</ele>
        <time>2026-08-31T12:12:39Z</time>
      </trkpt>
      <trkpt lat="43.43133" lon="-0.37319">
        <ele>263.2</ele>
        <time>2026-08-31T12:12:40Z</time>
      </trkpt>
      <trkpt lat="43.43132" lon="-0.3732">
        <ele>263.2</ele>
        <time>2026-08-31T12:12:41Z</time>
      </trkpt>
      <trkpt lat="43.43132" lon="-0.37321">
        <ele>262.2</ele>
        <time>2026-08-31T12:12:41Z</time>
      </trkpt>
      <trkpt lat="43.43131" lon="-0.37322">
        <ele>263.2</ele>
        <time>2026-08-31T12:12:42Z</time>
      </trkpt>
      <trkpt lat="43.43131" lon="-0.37322">
        <ele>263.2</ele>
        <time>2026-08-31T12:12:43Z</time>
      </trkpt>
      <trkpt lat="43.43131" lon="-0.37323">
        <ele>263.2</ele>
        <time>2026-08-31T12:12:43Z</time>
      </trkpt>
      <trkpt lat="43.4313" lon="-0.37324">
        <ele>263.2</ele>
        <time>2026-08-31T12:12:44Z</time>
      </trkpt>
      <trkpt lat="43.4313" lon="-0.37325">
        <ele>263.2</ele>
        <time>2026-08-31T12:12:45Z</time>
      </trkpt>
      <trkpt lat="43.4313" lon="-0.37326">
        <ele>263.2</ele>
        <time>2026-08-31T12:12:45Z</time>
      </trkpt>
      <trkpt lat="43.43129" lon="-0.37327">
        <ele>263.2</ele>
        <time>2026-08-31T12:12:46Z</time>
      </trkpt>
      <trkpt lat="43.43129" lon="-0.37328">
        <ele>263.2</ele>
        <time>2026-08-31T12:12:47Z</time>
      </trkpt>
      <trkpt lat="43.43129" lon="-0.37328">
        <ele>263.2</ele>
        <time>2026-08-31T12:12:47Z</time>
      </trkpt>
      <trkpt lat="43.43128" lon="-0.37329">
        <ele>263.2</ele>
        <time>2026-08-31T12:12:48Z</time>
      </trkpt>
      <trkpt lat="43.43128" lon="-0.3733">
        <ele>263.2</ele>
        <time>2026-08-31T12:12:49Z</time>
      </trkpt>
      <trkpt lat="43.43127" lon="-0.37331">
        <ele>263.2</ele>
        <time>2026-08-31T12:12:49Z</time>
      </trkpt>
      <trkpt lat="43.43127" lon="-0.37331">
        <ele>264.2</ele>
        <time>2026-08-31T12:12:50Z</time>
      </trkpt>
      <trkpt lat="43.43126" lon="-0.37332">
        <ele>264.2</ele>
        <time>2026-08-31T12:12:51Z</time>
      </trkpt>
      <trkpt lat="43.43126" lon="-0.37333">
        <ele>264.2</ele>
        <time>2026-08-31T12:12:51Z</time>
      </trkpt>
      <trkpt lat="43.43125" lon="-0.37333">
        <ele>264.2</ele>
        <time>2026-08-31T12:12:52Z</time>
      </trkpt>
      <trkpt lat="43.43125" lon="-0.37334">
        <ele>264.2</ele>
        <time>2026-08-31T12:12:52Z</time>
      </trkpt>
      <trkpt lat="43.43124" lon="-0.37334">
        <ele>264.2</ele>
        <time>2026-08-31T12:12:53Z</time>
      </trkpt>
      <trkpt lat="43.43123" lon="-0.37334">
        <ele>264.2</ele>
        <time>2026-08-31T12:12:54Z</time>
      </trkpt>
      <trkpt lat="43.43123" lon="-0.37334">
        <ele>264.2</ele>
        <time>2026-08-31T12:12:54Z</time>
      </trkpt>
      <trkpt lat="43.43122" lon="-0.37334">
        <ele>264.2</ele>
        <time>2026-08-31T12:12:55Z</time>
      </trkpt>
      <trkpt lat="43.43121" lon="-0.37334">
        <ele>264.2</ele>
        <time>2026-08-31T12:12:55Z</time>
      </trkpt>
      <trkpt lat="43.43121" lon="-0.37334">
        <ele>264.2</ele>
        <time>2026-08-31T12:12:56Z</time>
      </trkpt>
      <trkpt lat="43.4312" lon="-0.37333">
        <ele>264.2</ele>
        <time>2026-08-31T12:12:56Z</time>
      </trkpt>
      <trkpt lat="43.43119" lon="-0.37333">
        <ele>264.2</ele>
        <time>2026-08-31T12:12:57Z</time>
      </trkpt>
      <trkpt lat="43.43119" lon="-0.37333">
        <ele>263.2</ele>
        <time>2026-08-31T12:12:58Z</time>
      </trkpt>
      <trkpt lat="43.43118" lon="-0.37333">
        <ele>263.2</ele>
        <time>2026-08-31T12:12:58Z</time>
      </trkpt>
      <trkpt lat="43.43117" lon="-0.37333">
        <ele>263.2</ele>
        <time>2026-08-31T12:12:59Z</time>
      </trkpt>
      <trkpt lat="43.43117" lon="-0.37333">
        <ele>263.2</ele>
        <time>2026-08-31T12:12:59Z</time>
      </trkpt>
      <trkpt lat="43.43116" lon="-0.37333">
        <ele>263.2</ele>
        <time>2026-08-31T12:13:00Z</time>
      </trkpt>
      <trkpt lat="43.43116" lon="-0.37333">
        <ele>263.2</ele>
        <time>2026-08-31T12:13:00Z</time>
      </trkpt>
      <trkpt lat="43.43115" lon="-0.37334">
        <ele>264.2</ele>
        <time>2026-08-31T12:13:01Z</time>
      </trkpt>
      <trkpt lat="43.43114" lon="-0.37333">
        <ele>264.2</ele>
        <time>2026-08-31T12:13:02Z</time>
      </trkpt>
      <trkpt lat="43.43114" lon="-0.37334">
        <ele>264.2</ele>
        <time>2026-08-31T12:13:02Z</time>
      </trkpt>
      <trkpt lat="43.43113" lon="-0.37334">
        <ele>264.2</ele>
        <time>2026-08-31T12:13:03Z</time>
      </trkpt>
      <trkpt lat="43.43112" lon="-0.37333">
        <ele>264.2</ele>
        <time>2026-08-31T12:13:03Z</time>
      </trkpt>
      <trkpt lat="43.43112" lon="-0.37333">
        <ele>265.2</ele>
        <time>2026-08-31T12:13:04Z</time>
      </trkpt>
      <trkpt lat="43.43111" lon="-0.37333">
        <ele>265.2</ele>
        <time>2026-08-31T12:13:04Z</time>
      </trkpt>
      <trkpt lat="43.43111" lon="-0.37333">
        <ele>265.2</ele>
        <time>2026-08-31T12:13:05Z</time>
      </trkpt>
      <trkpt lat="43.4311" lon="-0.37333">
        <ele>265.2</ele>
        <time>2026-08-31T12:13:05Z</time>
      </trkpt>
      <trkpt lat="43.43109" lon="-0.37333">
        <ele>265.2</ele>
        <time>2026-08-31T12:13:06Z</time>
      </trkpt>
      <trkpt lat="43.43108" lon="-0.37333">
        <ele>265.2</ele>
        <time>2026-08-31T12:13:07Z</time>
      </trkpt>
      <trkpt lat="43.43108" lon="-0.37333">
        <ele>265.2</ele>
        <time>2026-08-31T12:13:07Z</time>
      </trkpt>
      <trkpt lat="43.43107" lon="-0.37333">
        <ele>265.2</ele>
        <time>2026-08-31T12:13:08Z</time>
      </trkpt>
      <trkpt lat="43.43106" lon="-0.37333">
        <ele>265.2</ele>
        <time>2026-08-31T12:13:08Z</time>
      </trkpt>
      <trkpt lat="43.43106" lon="-0.37332">
        <ele>265.2</ele>
        <time>2026-08-31T12:13:09Z</time>
      </trkpt>
      <trkpt lat="43.43105" lon="-0.37332">
        <ele>265.2</ele>
        <time>2026-08-31T12:13:09Z</time>
      </trkpt>
      <trkpt lat="43.43104" lon="-0.37332">
        <ele>265.2</ele>
        <time>2026-08-31T12:13:10Z</time>
      </trkpt>
      <trkpt lat="43.43104" lon="-0.37332">
        <ele>265.2</ele>
        <time>2026-08-31T12:13:10Z</time>
      </trkpt>
      <trkpt lat="43.43103" lon="-0.37331">
        <ele>265.2</ele>
        <time>2026-08-31T12:13:11Z</time>
      </trkpt>
      <trkpt lat="43.43102" lon="-0.37331">
        <ele>265.2</ele>
        <time>2026-08-31T12:13:12Z</time>
      </trkpt>
      <trkpt lat="43.43101" lon="-0.37331">
        <ele>265.2</ele>
        <time>2026-08-31T12:13:12Z</time>
      </trkpt>
      <trkpt lat="43.43101" lon="-0.37331">
        <ele>265.2</ele>
        <time>2026-08-31T12:13:13Z</time>
      </trkpt>
      <trkpt lat="43.431" lon="-0.37331">
        <ele>265.2</ele>
        <time>2026-08-31T12:13:13Z</time>
      </trkpt>
      <trkpt lat="43.43099" lon="-0.3733">
        <ele>265.2</ele>
        <time>2026-08-31T12:13:14Z</time>
      </trkpt>
      <trkpt lat="43.43098" lon="-0.3733">
        <ele>265.2</ele>
        <time>2026-08-31T12:13:15Z</time>
      </trkpt>
      <trkpt lat="43.43098" lon="-0.3733">
        <ele>265.2</ele>
        <time>2026-08-31T12:13:15Z</time>
      </trkpt>
      <trkpt lat="43.43097" lon="-0.3733">
        <ele>265.2</ele>
        <time>2026-08-31T12:13:16Z</time>
      </trkpt>
      <trkpt lat="43.43097" lon="-0.37329">
        <ele>264.2</ele>
        <time>2026-08-31T12:13:16Z</time>
      </trkpt>
      <trkpt lat="43.43096" lon="-0.37329">
        <ele>264.2</ele>
        <time>2026-08-31T12:13:17Z</time>
      </trkpt>
      <trkpt lat="43.43095" lon="-0.37329">
        <ele>264.2</ele>
        <time>2026-08-31T12:13:17Z</time>
      </trkpt>
      <trkpt lat="43.43095" lon="-0.37328">
        <ele>265.2</ele>
        <time>2026-08-31T12:13:18Z</time>
      </trkpt>
      <trkpt lat="43.43094" lon="-0.37328">
        <ele>265.2</ele>
        <time>2026-08-31T12:13:18Z</time>
      </trkpt>
      <trkpt lat="43.43093" lon="-0.37327">
        <ele>265.2</ele>
        <time>2026-08-31T12:13:19Z</time>
      </trkpt>
      <trkpt lat="43.43093" lon="-0.37327">
        <ele>265.2</ele>
        <time>2026-08-31T12:13:19Z</time>
      </trkpt>
      <trkpt lat="43.43092" lon="-0.37327">
        <ele>265.2</ele>
        <time>2026-08-31T12:13:20Z</time>
      </trkpt>
      <trkpt lat="43.43091" lon="-0.37326">
        <ele>265.2</ele>
        <time>2026-08-31T12:13:21Z</time>
      </trkpt>
      <trkpt lat="43.4309" lon="-0.37326">
        <ele>265.2</ele>
        <time>2026-08-31T12:13:21Z</time>
      </trkpt>
      <trkpt lat="43.4309" lon="-0.37326">
        <ele>265.2</ele>
        <time>2026-08-31T12:13:22Z</time>
      </trkpt>
      <trkpt lat="43.43089" lon="-0.37325">
        <ele>265.2</ele>
        <time>2026-08-31T12:13:22Z</time>
      </trkpt>
      <trkpt lat="43.43088" lon="-0.37325">
        <ele>265.2</ele>
        <time>2026-08-31T12:13:23Z</time>
      </trkpt>
      <trkpt lat="43.43087" lon="-0.37324">
        <ele>265.2</ele>
        <time>2026-08-31T12:13:23Z</time>
      </trkpt>
      <trkpt lat="43.43087" lon="-0.37324">
        <ele>265.2</ele>
        <time>2026-08-31T12:13:24Z</time>
      </trkpt>
      <trkpt lat="43.43086" lon="-0.37324">
        <ele>265.2</ele>
        <time>2026-08-31T12:13:24Z</time>
      </trkpt>
      <trkpt lat="43.43086" lon="-0.37323">
        <ele>265.2</ele>
        <time>2026-08-31T12:13:25Z</time>
      </trkpt>
      <trkpt lat="43.43085" lon="-0.37323">
        <ele>265.2</ele>
        <time>2026-08-31T12:13:26Z</time>
      </trkpt>
      <trkpt lat="43.43084" lon="-0.37322">
        <ele>265.2</ele>
        <time>2026-08-31T12:13:26Z</time>
      </trkpt>
      <trkpt lat="43.43084" lon="-0.37322">
        <ele>265.2</ele>
        <time>2026-08-31T12:13:27Z</time>
      </trkpt>
      <trkpt lat="43.43083" lon="-0.37322">
        <ele>265.2</ele>
        <time>2026-08-31T12:13:27Z</time>
      </trkpt>
      <trkpt lat="43.43082" lon="-0.37321">
        <ele>265.2</ele>
        <time>2026-08-31T12:13:28Z</time>
      </trkpt>
      <trkpt lat="43.43082" lon="-0.37321">
        <ele>265.2</ele>
        <time>2026-08-31T12:13:28Z</time>
      </trkpt>
      <trkpt lat="43.43081" lon="-0.37321">
        <ele>266.2</ele>
        <time>2026-08-31T12:13:29Z</time>
      </trkpt>
      <trkpt lat="43.4308" lon="-0.3732">
        <ele>266.2</ele>
        <time>2026-08-31T12:13:29Z</time>
      </trkpt>
      <trkpt lat="43.4308" lon="-0.3732">
        <ele>266.2</ele>
        <time>2026-08-31T12:13:30Z</time>
      </trkpt>
      <trkpt lat="43.43079" lon="-0.3732">
        <ele>266.2</ele>
        <time>2026-08-31T12:13:31Z</time>
      </trkpt>
      <trkpt lat="43.43078" lon="-0.37319">
        <ele>266.2</ele>
        <time>2026-08-31T12:13:31Z</time>
      </trkpt>
      <trkpt lat="43.43078" lon="-0.37319">
        <ele>266.2</ele>
        <time>2026-08-31T12:13:32Z</time>
      </trkpt>
      <trkpt lat="43.43077" lon="-0.37318">
        <ele>266.2</ele>
        <time>2026-08-31T12:13:32Z</time>
      </trkpt>
      <trkpt lat="43.43076" lon="-0.37318">
        <ele>266.2</ele>
        <time>2026-08-31T12:13:33Z</time>
      </trkpt>
      <trkpt lat="43.43076" lon="-0.37318">
        <ele>266.2</ele>
        <time>2026-08-31T12:13:33Z</time>
      </trkpt>
      <trkpt lat="43.43075" lon="-0.37317">
        <ele>267.2</ele>
        <time>2026-08-31T12:13:34Z</time>
      </trkpt>
      <trkpt lat="43.43074" lon="-0.37317">
        <ele>267.2</ele>
        <time>2026-08-31T12:13:35Z</time>
      </trkpt>
      <trkpt lat="43.43074" lon="-0.37316">
        <ele>267.2</ele>
        <time>2026-08-31T12:13:35Z</time>
      </trkpt>
      <trkpt lat="43.43073" lon="-0.37316">
        <ele>267.2</ele>
        <time>2026-08-31T12:13:36Z</time>
      </trkpt>
      <trkpt lat="43.43072" lon="-0.37315">
        <ele>267.2</ele>
        <time>2026-08-31T12:13:36Z</time>
      </trkpt>
      <trkpt lat="43.43072" lon="-0.37315">
        <ele>268.2</ele>
        <time>2026-08-31T12:13:37Z</time>
      </trkpt>
      <trkpt lat="43.43071" lon="-0.37314">
        <ele>268.2</ele>
        <time>2026-08-31T12:13:37Z</time>
      </trkpt>
      <trkpt lat="43.4307" lon="-0.37314">
        <ele>268.2</ele>
        <time>2026-08-31T12:13:38Z</time>
      </trkpt>
      <trkpt lat="43.4307" lon="-0.37313">
        <ele>268.2</ele>
        <time>2026-08-31T12:13:38Z</time>
      </trkpt>
      <trkpt lat="43.43069" lon="-0.37313">
        <ele>268.2</ele>
        <time>2026-08-31T12:13:39Z</time>
      </trkpt>
      <trkpt lat="43.43068" lon="-0.37312">
        <ele>268.2</ele>
        <time>2026-08-31T12:13:40Z</time>
      </trkpt>
      <trkpt lat="43.43068" lon="-0.37312">
        <ele>268.2</ele>
        <time>2026-08-31T12:13:40Z</time>
      </trkpt>
      <trkpt lat="43.43067" lon="-0.37311">
        <ele>268.2</ele>
        <time>2026-08-31T12:13:41Z</time>
      </trkpt>
      <trkpt lat="43.43066" lon="-0.37311">
        <ele>268.2</ele>
        <time>2026-08-31T12:13:41Z</time>
      </trkpt>
      <trkpt lat="43.43066" lon="-0.3731">
        <ele>267.2</ele>
        <time>2026-08-31T12:13:42Z</time>
      </trkpt>
      <trkpt lat="43.43065" lon="-0.3731">
        <ele>267.2</ele>
        <time>2026-08-31T12:13:42Z</time>
      </trkpt>
      <trkpt lat="43.43065" lon="-0.37309">
        <ele>268.2</ele>
        <time>2026-08-31T12:13:43Z</time>
      </trkpt>
      <trkpt lat="43.43064" lon="-0.37309">
        <ele>268.2</ele>
        <time>2026-08-31T12:13:43Z</time>
      </trkpt>
      <trkpt lat="43.43063" lon="-0.37309">
        <ele>268.2</ele>
        <time>2026-08-31T12:13:44Z</time>
      </trkpt>
      <trkpt lat="43.43062" lon="-0.37308">
        <ele>268.2</ele>
        <time>2026-08-31T12:13:45Z</time>
      </trkpt>
      <trkpt lat="43.43062" lon="-0.37308">
        <ele>269.2</ele>
        <time>2026-08-31T12:13:45Z</time>
      </trkpt>
      <trkpt lat="43.43061" lon="-0.37307">
        <ele>269.2</ele>
        <time>2026-08-31T12:13:46Z</time>
      </trkpt>
      <trkpt lat="43.4306" lon="-0.37307">
        <ele>269.2</ele>
        <time>2026-08-31T12:13:46Z</time>
      </trkpt>
      <trkpt lat="43.4306" lon="-0.37306">
        <ele>269.2</ele>
        <time>2026-08-31T12:13:47Z</time>
      </trkpt>
      <trkpt lat="43.43059" lon="-0.37306">
        <ele>269.2</ele>
        <time>2026-08-31T12:13:47Z</time>
      </trkpt>
      <trkpt lat="43.43059" lon="-0.37306">
        <ele>268.2</ele>
        <time>2026-08-31T12:13:48Z</time>
      </trkpt>
      <trkpt lat="43.43058" lon="-0.37305">
        <ele>268.2</ele>
        <time>2026-08-31T12:13:48Z</time>
      </trkpt>
      <trkpt lat="43.43057" lon="-0.37305">
        <ele>268.2</ele>
        <time>2026-08-31T12:13:49Z</time>
      </trkpt>
      <trkpt lat="43.43057" lon="-0.37305">
        <ele>268.2</ele>
        <time>2026-08-31T12:13:50Z</time>
      </trkpt>
      <trkpt lat="43.43056" lon="-0.37304">
        <ele>268.2</ele>
        <time>2026-08-31T12:13:50Z</time>
      </trkpt>
      <trkpt lat="43.43056" lon="-0.37304">
        <ele>268.2</ele>
        <time>2026-08-31T12:13:51Z</time>
      </trkpt>
      <trkpt lat="43.43055" lon="-0.37304">
        <ele>268.2</ele>
        <time>2026-08-31T12:13:51Z</time>
      </trkpt>
      <trkpt lat="43.43054" lon="-0.37303">
        <ele>268.2</ele>
        <time>2026-08-31T12:13:52Z</time>
      </trkpt>
      <trkpt lat="43.43054" lon="-0.37303">
        <ele>268.2</ele>
        <time>2026-08-31T12:13:52Z</time>
      </trkpt>
      <trkpt lat="43.43053" lon="-0.37303">
        <ele>268.2</ele>
        <time>2026-08-31T12:13:53Z</time>
      </trkpt>
      <trkpt lat="43.43052" lon="-0.37302">
        <ele>268.2</ele>
        <time>2026-08-31T12:13:54Z</time>
      </trkpt>
      <trkpt lat="43.43052" lon="-0.37302">
        <ele>268.2</ele>
        <time>2026-08-31T12:13:54Z</time>
      </trkpt>
      <trkpt lat="43.43051" lon="-0.37302">
        <ele>269.2</ele>
        <time>2026-08-31T12:13:55Z</time>
      </trkpt>
      <trkpt lat="43.43051" lon="-0.37301">
        <ele>269.2</ele>
        <time>2026-08-31T12:13:55Z</time>
      </trkpt>
      <trkpt lat="43.4305" lon="-0.37301">
        <ele>269.2</ele>
        <time>2026-08-31T12:13:56Z</time>
      </trkpt>
      <trkpt lat="43.4305" lon="-0.37301">
        <ele>269.2</ele>
        <time>2026-08-31T12:13:56Z</time>
      </trkpt>
      <trkpt lat="43.43049" lon="-0.37301">
        <ele>269.2</ele>
        <time>2026-08-31T12:13:57Z</time>
      </trkpt>
      <trkpt lat="43.43048" lon="-0.373">
        <ele>269.2</ele>
        <time>2026-08-31T12:13:57Z</time>
      </trkpt>
      <trkpt lat="43.43048" lon="-0.373">
        <ele>269.2</ele>
        <time>2026-08-31T12:13:58Z</time>
      </trkpt>
      <trkpt lat="43.43047" lon="-0.373">
        <ele>269.2</ele>
        <time>2026-08-31T12:13:59Z</time>
      </trkpt>
      <trkpt lat="43.43046" lon="-0.37299">
        <ele>269.2</ele>
        <time>2026-08-31T12:13:59Z</time>
      </trkpt>
      <trkpt lat="43.43046" lon="-0.37299">
        <ele>269.2</ele>
        <time>2026-08-31T12:14:00Z</time>
      </trkpt>
      <trkpt lat="43.43045" lon="-0.37299">
        <ele>269.2</ele>
        <time>2026-08-31T12:14:00Z</time>
      </trkpt>
      <trkpt lat="43.43044" lon="-0.37298">
        <ele>269.2</ele>
        <time>2026-08-31T12:14:01Z</time>
      </trkpt>
      <trkpt lat="43.43044" lon="-0.37298">
        <ele>269.2</ele>
        <time>2026-08-31T12:14:01Z</time>
      </trkpt>
      <trkpt lat="43.43043" lon="-0.37298">
        <ele>269.2</ele>
        <time>2026-08-31T12:14:02Z</time>
      </trkpt>
      <trkpt lat="43.43042" lon="-0.37298">
        <ele>269.2</ele>
        <time>2026-08-31T12:14:02Z</time>
      </trkpt>
      <trkpt lat="43.43042" lon="-0.37297">
        <ele>269.2</ele>
        <time>2026-08-31T12:14:03Z</time>
      </trkpt>
      <trkpt lat="43.43041" lon="-0.37297">
        <ele>269.2</ele>
        <time>2026-08-31T12:14:04Z</time>
      </trkpt>
      <trkpt lat="43.4304" lon="-0.37297">
        <ele>270.2</ele>
        <time>2026-08-31T12:14:04Z</time>
      </trkpt>
      <trkpt lat="43.4304" lon="-0.37296">
        <ele>270.2</ele>
        <time>2026-08-31T12:14:05Z</time>
      </trkpt>
      <trkpt lat="43.43039" lon="-0.37296">
        <ele>270.2</ele>
        <time>2026-08-31T12:14:05Z</time>
      </trkpt>
      <trkpt lat="43.43038" lon="-0.37296">
        <ele>270.2</ele>
        <time>2026-08-31T12:14:06Z</time>
      </trkpt>
      <trkpt lat="43.43038" lon="-0.37295">
        <ele>270.2</ele>
        <time>2026-08-31T12:14:06Z</time>
      </trkpt>
      <trkpt lat="43.43037" lon="-0.37295">
        <ele>270.2</ele>
        <time>2026-08-31T12:14:07Z</time>
      </trkpt>
      <trkpt lat="43.43036" lon="-0.37295">
        <ele>270.2</ele>
        <time>2026-08-31T12:14:07Z</time>
      </trkpt>
      <trkpt lat="43.43036" lon="-0.37294">
        <ele>270.2</ele>
        <time>2026-08-31T12:14:08Z</time>
      </trkpt>
      <trkpt lat="43.43035" lon="-0.37294">
        <ele>270.2</ele>
        <time>2026-08-31T12:14:09Z</time>
      </trkpt>
      <trkpt lat="43.43034" lon="-0.37293">
        <ele>270.2</ele>
        <time>2026-08-31T12:14:09Z</time>
      </trkpt>
      <trkpt lat="43.43034" lon="-0.37293">
        <ele>270.2</ele>
        <time>2026-08-31T12:14:10Z</time>
      </trkpt>
      <trkpt lat="43.43033" lon="-0.37292">
        <ele>270.2</ele>
        <time>2026-08-31T12:14:10Z</time>
      </trkpt>
      <trkpt lat="43.43032" lon="-0.37292">
        <ele>270.2</ele>
        <time>2026-08-31T12:14:11Z</time>
      </trkpt>
      <trkpt lat="43.43032" lon="-0.37292">
        <ele>270.2</ele>
        <time>2026-08-31T12:14:11Z</time>
      </trkpt>
      <trkpt lat="43.43031" lon="-0.37291">
        <ele>271.2</ele>
        <time>2026-08-31T12:14:12Z</time>
      </trkpt>
      <trkpt lat="43.4303" lon="-0.37291">
        <ele>271.2</ele>
        <time>2026-08-31T12:14:12Z</time>
      </trkpt>
      <trkpt lat="43.4303" lon="-0.3729">
        <ele>271.2</ele>
        <time>2026-08-31T12:14:13Z</time>
      </trkpt>
      <trkpt lat="43.43029" lon="-0.3729">
        <ele>271.2</ele>
        <time>2026-08-31T12:14:14Z</time>
      </trkpt>
      <trkpt lat="43.43029" lon="-0.37289">
        <ele>271.2</ele>
        <time>2026-08-31T12:14:14Z</time>
      </trkpt>
      <trkpt lat="43.43028" lon="-0.37289">
        <ele>270.2</ele>
        <time>2026-08-31T12:14:15Z</time>
      </trkpt>
      <trkpt lat="43.43028" lon="-0.37289">
        <ele>270.2</ele>
        <time>2026-08-31T12:14:15Z</time>
      </trkpt>
      <trkpt lat="43.43027" lon="-0.37288">
        <ele>270.2</ele>
        <time>2026-08-31T12:14:16Z</time>
      </trkpt>
      <trkpt lat="43.43026" lon="-0.37288">
        <ele>270.2</ele>
        <time>2026-08-31T12:14:16Z</time>
      </trkpt>
      <trkpt lat="43.43026" lon="-0.37287">
        <ele>270.2</ele>
        <time>2026-08-31T12:14:17Z</time>
      </trkpt>
      <trkpt lat="43.43025" lon="-0.37287">
        <ele>270.2</ele>
        <time>2026-08-31T12:14:17Z</time>
      </trkpt>
      <trkpt lat="43.43025" lon="-0.37286">
        <ele>271.2</ele>
        <time>2026-08-31T12:14:18Z</time>
      </trkpt>
      <trkpt lat="43.43024" lon="-0.37286">
        <ele>271.2</ele>
        <time>2026-08-31T12:14:19Z</time>
      </trkpt>
      <trkpt lat="43.43023" lon="-0.37286">
        <ele>271.2</ele>
        <time>2026-08-31T12:14:19Z</time>
      </trkpt>
      <trkpt lat="43.43023" lon="-0.37285">
        <ele>271.2</ele>
        <time>2026-08-31T12:14:20Z</time>
      </trkpt>
      <trkpt lat="43.43022" lon="-0.37285">
        <ele>270.2</ele>
        <time>2026-08-31T12:14:20Z</time>
      </trkpt>
      <trkpt lat="43.43022" lon="-0.37285">
        <ele>271.2</ele>
        <time>2026-08-31T12:14:21Z</time>
      </trkpt>
      <trkpt lat="43.43021" lon="-0.37284">
        <ele>271.2</ele>
        <time>2026-08-31T12:14:21Z</time>
      </trkpt>
      <trkpt lat="43.43021" lon="-0.37284">
        <ele>271.2</ele>
        <time>2026-08-31T12:14:22Z</time>
      </trkpt>
      <trkpt lat="43.4302" lon="-0.37283">
        <ele>271.2</ele>
        <time>2026-08-31T12:14:22Z</time>
      </trkpt>
      <trkpt lat="43.43019" lon="-0.37283">
        <ele>272.2</ele>
        <time>2026-08-31T12:14:23Z</time>
      </trkpt>
      <trkpt lat="43.43018" lon="-0.37282">
        <ele>272.2</ele>
        <time>2026-08-31T12:14:24Z</time>
      </trkpt>
      <trkpt lat="43.43018" lon="-0.37282">
        <ele>272.2</ele>
        <time>2026-08-31T12:14:24Z</time>
      </trkpt>
      <trkpt lat="43.43017" lon="-0.37281">
        <ele>272.2</ele>
        <time>2026-08-31T12:14:25Z</time>
      </trkpt>
      <trkpt lat="43.43017" lon="-0.37281">
        <ele>272.2</ele>
        <time>2026-08-31T12:14:25Z</time>
      </trkpt>
      <trkpt lat="43.43016" lon="-0.3728">
        <ele>272.2</ele>
        <time>2026-08-31T12:14:26Z</time>
      </trkpt>
      <trkpt lat="43.43015" lon="-0.3728">
        <ele>272.2</ele>
        <time>2026-08-31T12:14:26Z</time>
      </trkpt>
      <trkpt lat="43.43014" lon="-0.37279">
        <ele>273.2</ele>
        <time>2026-08-31T12:14:27Z</time>
      </trkpt>
      <trkpt lat="43.43014" lon="-0.37279">
        <ele>273.2</ele>
        <time>2026-08-31T12:14:27Z</time>
      </trkpt>
      <trkpt lat="43.43013" lon="-0.37278">
        <ele>272.2</ele>
        <time>2026-08-31T12:14:28Z</time>
      </trkpt>
      <trkpt lat="43.43012" lon="-0.37278">
        <ele>272.2</ele>
        <time>2026-08-31T12:14:28Z</time>
      </trkpt>
      <trkpt lat="43.43012" lon="-0.37277">
        <ele>273.2</ele>
        <time>2026-08-31T12:14:29Z</time>
      </trkpt>
      <trkpt lat="43.43011" lon="-0.37276">
        <ele>273.2</ele>
        <time>2026-08-31T12:14:30Z</time>
      </trkpt>
      <trkpt lat="43.43011" lon="-0.37276">
        <ele>273.2</ele>
        <time>2026-08-31T12:14:30Z</time>
      </trkpt>
      <trkpt lat="43.4301" lon="-0.37275">
        <ele>273.2</ele>
        <time>2026-08-31T12:14:31Z</time>
      </trkpt>
      <trkpt lat="43.43009" lon="-0.37275">
        <ele>273.2</ele>
        <time>2026-08-31T12:14:31Z</time>
      </trkpt>
      <trkpt lat="43.43009" lon="-0.37274">
        <ele>273.2</ele>
        <time>2026-08-31T12:14:32Z</time>
      </trkpt>
      <trkpt lat="43.43008" lon="-0.37274">
        <ele>273.2</ele>
        <time>2026-08-31T12:14:32Z</time>
      </trkpt>
      <trkpt lat="43.43008" lon="-0.37273">
        <ele>273.2</ele>
        <time>2026-08-31T12:14:33Z</time>
      </trkpt>
      <trkpt lat="43.43007" lon="-0.37273">
        <ele>273.2</ele>
        <time>2026-08-31T12:14:33Z</time>
      </trkpt>
      <trkpt lat="43.43006" lon="-0.37272">
        <ele>273.2</ele>
        <time>2026-08-31T12:14:34Z</time>
      </trkpt>
      <trkpt lat="43.43006" lon="-0.37272">
        <ele>273.2</ele>
        <time>2026-08-31T12:14:35Z</time>
      </trkpt>
      <trkpt lat="43.43005" lon="-0.37271">
        <ele>273.2</ele>
        <time>2026-08-31T12:14:35Z</time>
      </trkpt>
      <trkpt lat="43.43004" lon="-0.37271">
        <ele>273.2</ele>
        <time>2026-08-31T12:14:36Z</time>
      </trkpt>
      <trkpt lat="43.43004" lon="-0.37271">
        <ele>272.2</ele>
        <time>2026-08-31T12:14:36Z</time>
      </trkpt>
      <trkpt lat="43.43003" lon="-0.3727">
        <ele>272.2</ele>
        <time>2026-08-31T12:14:37Z</time>
      </trkpt>
      <trkpt lat="43.43003" lon="-0.3727">
        <ele>272.2</ele>
        <time>2026-08-31T12:14:37Z</time>
      </trkpt>
      <trkpt lat="43.43002" lon="-0.37269">
        <ele>272.2</ele>
        <time>2026-08-31T12:14:38Z</time>
      </trkpt>
      <trkpt lat="43.43001" lon="-0.37269">
        <ele>272.2</ele>
        <time>2026-08-31T12:14:38Z</time>
      </trkpt>
      <trkpt lat="43.43001" lon="-0.37268">
        <ele>272.2</ele>
        <time>2026-08-31T12:14:39Z</time>
      </trkpt>
      <trkpt lat="43.43" lon="-0.37268">
        <ele>272.2</ele>
        <time>2026-08-31T12:14:39Z</time>
      </trkpt>
      <trkpt lat="43.43" lon="-0.37267">
        <ele>272.2</ele>
        <time>2026-08-31T12:14:40Z</time>
      </trkpt>
      <trkpt lat="43.42999" lon="-0.37267">
        <ele>272.2</ele>
        <time>2026-08-31T12:14:41Z</time>
      </trkpt>
      <trkpt lat="43.42998" lon="-0.37267">
        <ele>272.2</ele>
        <time>2026-08-31T12:14:41Z</time>
      </trkpt>
      <trkpt lat="43.42998" lon="-0.37266">
        <ele>272.2</ele>
        <time>2026-08-31T12:14:42Z</time>
      </trkpt>
      <trkpt lat="43.42997" lon="-0.37266">
        <ele>272.2</ele>
        <time>2026-08-31T12:14:42Z</time>
      </trkpt>
      <trkpt lat="43.42997" lon="-0.37265">
        <ele>272.2</ele>
        <time>2026-08-31T12:14:43Z</time>
      </trkpt>
      <trkpt lat="43.42996" lon="-0.37265">
        <ele>272.2</ele>
        <time>2026-08-31T12:14:43Z</time>
      </trkpt>
      <trkpt lat="43.42995" lon="-0.37264">
        <ele>272.2</ele>
        <time>2026-08-31T12:14:44Z</time>
      </trkpt>
      <trkpt lat="43.42994" lon="-0.37264">
        <ele>272.2</ele>
        <time>2026-08-31T12:14:44Z</time>
      </trkpt>
      <trkpt lat="43.42994" lon="-0.37263">
        <ele>272.2</ele>
        <time>2026-08-31T12:14:45Z</time>
      </trkpt>
      <trkpt lat="43.42993" lon="-0.37263">
        <ele>272.2</ele>
        <time>2026-08-31T12:14:45Z</time>
      </trkpt>
      <trkpt lat="43.42993" lon="-0.37262">
        <ele>273.2</ele>
        <time>2026-08-31T12:14:46Z</time>
      </trkpt>
      <trkpt lat="43.42992" lon="-0.37262">
        <ele>273.2</ele>
        <time>2026-08-31T12:14:47Z</time>
      </trkpt>
      <trkpt lat="43.42992" lon="-0.37261">
        <ele>273.2</ele>
        <time>2026-08-31T12:14:47Z</time>
      </trkpt>
      <trkpt lat="43.42991" lon="-0.37261">
        <ele>273.2</ele>
        <time>2026-08-31T12:14:48Z</time>
      </trkpt>
      <trkpt lat="43.42991" lon="-0.3726">
        <ele>272.2</ele>
        <time>2026-08-31T12:14:48Z</time>
      </trkpt>
      <trkpt lat="43.4299" lon="-0.3726">
        <ele>272.2</ele>
        <time>2026-08-31T12:14:49Z</time>
      </trkpt>
      <trkpt lat="43.4299" lon="-0.37259">
        <ele>272.2</ele>
        <time>2026-08-31T12:14:49Z</time>
      </trkpt>
      <trkpt lat="43.42989" lon="-0.37259">
        <ele>272.2</ele>
        <time>2026-08-31T12:14:50Z</time>
      </trkpt>
      <trkpt lat="43.42989" lon="-0.37259">
        <ele>272.2</ele>
        <time>2026-08-31T12:14:50Z</time>
      </trkpt>
      <trkpt lat="43.42988" lon="-0.37258">
        <ele>272.2</ele>
        <time>2026-08-31T12:14:51Z</time>
      </trkpt>
      <trkpt lat="43.42988" lon="-0.37258">
        <ele>272.2</ele>
        <time>2026-08-31T12:14:51Z</time>
      </trkpt>
      <trkpt lat="43.42987" lon="-0.37257">
        <ele>272.2</ele>
        <time>2026-08-31T12:14:52Z</time>
      </trkpt>
      <trkpt lat="43.42987" lon="-0.37257">
        <ele>272.2</ele>
        <time>2026-08-31T12:14:53Z</time>
      </trkpt>
      <trkpt lat="43.42986" lon="-0.37257">
        <ele>272.2</ele>
        <time>2026-08-31T12:14:53Z</time>
      </trkpt>
      <trkpt lat="43.42985" lon="-0.37256">
        <ele>272.2</ele>
        <time>2026-08-31T12:14:54Z</time>
      </trkpt>
      <trkpt lat="43.42985" lon="-0.37256">
        <ele>272.2</ele>
        <time>2026-08-31T12:14:54Z</time>
      </trkpt>
      <trkpt lat="43.42984" lon="-0.37255">
        <ele>271.2</ele>
        <time>2026-08-31T12:14:55Z</time>
      </trkpt>
      <trkpt lat="43.42983" lon="-0.37255">
        <ele>271.2</ele>
        <time>2026-08-31T12:14:55Z</time>
      </trkpt>
      <trkpt lat="43.42983" lon="-0.37255">
        <ele>271.2</ele>
        <time>2026-08-31T12:14:56Z</time>
      </trkpt>
      <trkpt lat="43.42982" lon="-0.37254">
        <ele>271.2</ele>
        <time>2026-08-31T12:14:56Z</time>
      </trkpt>
      <trkpt lat="43.42981" lon="-0.37254">
        <ele>271.2</ele>
        <time>2026-08-31T12:14:57Z</time>
      </trkpt>
      <trkpt lat="43.42981" lon="-0.37254">
        <ele>271.2</ele>
        <time>2026-08-31T12:14:58Z</time>
      </trkpt>
      <trkpt lat="43.4298" lon="-0.37253">
        <ele>272.2</ele>
        <time>2026-08-31T12:14:58Z</time>
      </trkpt>
      <trkpt lat="43.42979" lon="-0.37253">
        <ele>272.2</ele>
        <time>2026-08-31T12:14:59Z</time>
      </trkpt>
      <trkpt lat="43.42979" lon="-0.37253">
        <ele>272.2</ele>
        <time>2026-08-31T12:14:59Z</time>
      </trkpt>
      <trkpt lat="43.42978" lon="-0.37252">
        <ele>271.2</ele>
        <time>2026-08-31T12:15:00Z</time>
      </trkpt>
      <trkpt lat="43.42977" lon="-0.37252">
        <ele>271.2</ele>
        <time>2026-08-31T12:15:00Z</time>
      </trkpt>
      <trkpt lat="43.42977" lon="-0.37252">
        <ele>271.2</ele>
        <time>2026-08-31T12:15:01Z</time>
      </trkpt>
      <trkpt lat="43.42976" lon="-0.37251">
        <ele>271.2</ele>
        <time>2026-08-31T12:15:01Z</time>
      </trkpt>
      <trkpt lat="43.42975" lon="-0.37251">
        <ele>271.2</ele>
        <time>2026-08-31T12:15:02Z</time>
      </trkpt>
      <trkpt lat="43.42975" lon="-0.3725">
        <ele>271.2</ele>
        <time>2026-08-31T12:15:02Z</time>
      </trkpt>
      <trkpt lat="43.42974" lon="-0.3725">
        <ele>270.2</ele>
        <time>2026-08-31T12:15:03Z</time>
      </trkpt>
      <trkpt lat="43.42973" lon="-0.3725">
        <ele>270.2</ele>
        <time>2026-08-31T12:15:03Z</time>
      </trkpt>
      <trkpt lat="43.42973" lon="-0.37249">
        <ele>270.2</ele>
        <time>2026-08-31T12:15:04Z</time>
      </trkpt>
      <trkpt lat="43.42972" lon="-0.37249">
        <ele>270.2</ele>
        <time>2026-08-31T12:15:05Z</time>
      </trkpt>
      <trkpt lat="43.42971" lon="-0.37248">
        <ele>270.2</ele>
        <time>2026-08-31T12:15:05Z</time>
      </trkpt>
      <trkpt lat="43.42971" lon="-0.37248">
        <ele>270.2</ele>
        <time>2026-08-31T12:15:06Z</time>
      </trkpt>
      <trkpt lat="43.4297" lon="-0.37247">
        <ele>270.2</ele>
        <time>2026-08-31T12:15:06Z</time>
      </trkpt>
      <trkpt lat="43.42969" lon="-0.37247">
        <ele>270.2</ele>
        <time>2026-08-31T12:15:07Z</time>
      </trkpt>
      <trkpt lat="43.42969" lon="-0.37246">
        <ele>270.2</ele>
        <time>2026-08-31T12:15:07Z</time>
      </trkpt>
      <trkpt lat="43.42968" lon="-0.37246">
        <ele>270.2</ele>
        <time>2026-08-31T12:15:08Z</time>
      </trkpt>
      <trkpt lat="43.42967" lon="-0.37246">
        <ele>270.2</ele>
        <time>2026-08-31T12:15:08Z</time>
      </trkpt>
      <trkpt lat="43.42966" lon="-0.37245">
        <ele>270.2</ele>
        <time>2026-08-31T12:15:09Z</time>
      </trkpt>
      <trkpt lat="43.42966" lon="-0.37245">
        <ele>270.2</ele>
        <time>2026-08-31T12:15:09Z</time>
      </trkpt>
      <trkpt lat="43.42965" lon="-0.37245">
        <ele>270.2</ele>
        <time>2026-08-31T12:15:10Z</time>
      </trkpt>
      <trkpt lat="43.42964" lon="-0.37244">
        <ele>270.2</ele>
        <time>2026-08-31T12:15:10Z</time>
      </trkpt>
      <trkpt lat="43.42964" lon="-0.37244">
        <ele>269.2</ele>
        <time>2026-08-31T12:15:11Z</time>
      </trkpt>
      <trkpt lat="43.42963" lon="-0.37243">
        <ele>269.2</ele>
        <time>2026-08-31T12:15:12Z</time>
      </trkpt>
      <trkpt lat="43.42963" lon="-0.37243">
        <ele>269.2</ele>
        <time>2026-08-31T12:15:12Z</time>
      </trkpt>
      <trkpt lat="43.42962" lon="-0.37242">
        <ele>269.2</ele>
        <time>2026-08-31T12:15:13Z</time>
      </trkpt>
      <trkpt lat="43.42962" lon="-0.37242">
        <ele>269.2</ele>
        <time>2026-08-31T12:15:13Z</time>
      </trkpt>
      <trkpt lat="43.42961" lon="-0.37241">
        <ele>269.2</ele>
        <time>2026-08-31T12:15:14Z</time>
      </trkpt>
      <trkpt lat="43.4296" lon="-0.37241">
        <ele>269.2</ele>
        <time>2026-08-31T12:15:14Z</time>
      </trkpt>
      <trkpt lat="43.4296" lon="-0.3724">
        <ele>269.2</ele>
        <time>2026-08-31T12:15:15Z</time>
      </trkpt>
      <trkpt lat="43.42959" lon="-0.3724">
        <ele>269.2</ele>
        <time>2026-08-31T12:15:15Z</time>
      </trkpt>
      <trkpt lat="43.42958" lon="-0.37239">
        <ele>269.2</ele>
        <time>2026-08-31T12:15:16Z</time>
      </trkpt>
      <trkpt lat="43.42958" lon="-0.37238">
        <ele>269.2</ele>
        <time>2026-08-31T12:15:17Z</time>
      </trkpt>
      <trkpt lat="43.42957" lon="-0.37238">
        <ele>269.2</ele>
        <time>2026-08-31T12:15:17Z</time>
      </trkpt>
      <trkpt lat="43.42957" lon="-0.37237">
        <ele>269.2</ele>
        <time>2026-08-31T12:15:18Z</time>
      </trkpt>
      <trkpt lat="43.42956" lon="-0.37237">
        <ele>268.2</ele>
        <time>2026-08-31T12:15:18Z</time>
      </trkpt>
      <trkpt lat="43.42955" lon="-0.37236">
        <ele>269.2</ele>
        <time>2026-08-31T12:15:19Z</time>
      </trkpt>
      <trkpt lat="43.42955" lon="-0.37236">
        <ele>269.2</ele>
        <time>2026-08-31T12:15:19Z</time>
      </trkpt>
      <trkpt lat="43.42954" lon="-0.37235">
        <ele>269.2</ele>
        <time>2026-08-31T12:15:20Z</time>
      </trkpt>
      <trkpt lat="43.42954" lon="-0.37234">
        <ele>269.2</ele>
        <time>2026-08-31T12:15:20Z</time>
      </trkpt>
      <trkpt lat="43.42953" lon="-0.37233">
        <ele>269.2</ele>
        <time>2026-08-31T12:15:21Z</time>
      </trkpt>
      <trkpt lat="43.42953" lon="-0.37233">
        <ele>269.2</ele>
        <time>2026-08-31T12:15:21Z</time>
      </trkpt>
      <trkpt lat="43.42952" lon="-0.37232">
        <ele>269.2</ele>
        <time>2026-08-31T12:15:22Z</time>
      </trkpt>
      <trkpt lat="43.42952" lon="-0.37231">
        <ele>269.2</ele>
        <time>2026-08-31T12:15:23Z</time>
      </trkpt>
      <trkpt lat="43.42951" lon="-0.37231">
        <ele>269.2</ele>
        <time>2026-08-31T12:15:23Z</time>
      </trkpt>
      <trkpt lat="43.4295" lon="-0.3723">
        <ele>269.2</ele>
        <time>2026-08-31T12:15:24Z</time>
      </trkpt>
      <trkpt lat="43.4295" lon="-0.3723">
        <ele>269.2</ele>
        <time>2026-08-31T12:15:24Z</time>
      </trkpt>
      <trkpt lat="43.42949" lon="-0.37229">
        <ele>269.2</ele>
        <time>2026-08-31T12:15:25Z</time>
      </trkpt>
      <trkpt lat="43.42949" lon="-0.37229">
        <ele>269.2</ele>
        <time>2026-08-31T12:15:25Z</time>
      </trkpt>
      <trkpt lat="43.42948" lon="-0.37228">
        <ele>270.2</ele>
        <time>2026-08-31T12:15:26Z</time>
      </trkpt>
      <trkpt lat="43.42948" lon="-0.37228">
        <ele>270.2</ele>
        <time>2026-08-31T12:15:26Z</time>
      </trkpt>
      <trkpt lat="43.42947" lon="-0.37227">
        <ele>270.2</ele>
        <time>2026-08-31T12:15:27Z</time>
      </trkpt>
      <trkpt lat="43.42946" lon="-0.37227">
        <ele>270.2</ele>
        <time>2026-08-31T12:15:28Z</time>
      </trkpt>
      <trkpt lat="43.42946" lon="-0.37226">
        <ele>270.2</ele>
        <time>2026-08-31T12:15:28Z</time>
      </trkpt>
      <trkpt lat="43.42945" lon="-0.37226">
        <ele>270.2</ele>
        <time>2026-08-31T12:15:29Z</time>
      </trkpt>
      <trkpt lat="43.42945" lon="-0.37225">
        <ele>270.2</ele>
        <time>2026-08-31T12:15:29Z</time>
      </trkpt>
      <trkpt lat="43.42944" lon="-0.37225">
        <ele>270.2</ele>
        <time>2026-08-31T12:15:30Z</time>
      </trkpt>
      <trkpt lat="43.42944" lon="-0.37225">
        <ele>270.2</ele>
        <time>2026-08-31T12:15:30Z</time>
      </trkpt>
      <trkpt lat="43.42943" lon="-0.37224">
        <ele>269.2</ele>
        <time>2026-08-31T12:15:31Z</time>
      </trkpt>
      <trkpt lat="43.42942" lon="-0.37224">
        <ele>269.2</ele>
        <time>2026-08-31T12:15:31Z</time>
      </trkpt>
      <trkpt lat="43.42942" lon="-0.37224">
        <ele>269.2</ele>
        <time>2026-08-31T12:15:32Z</time>
      </trkpt>
      <trkpt lat="43.42941" lon="-0.37223">
        <ele>269.2</ele>
        <time>2026-08-31T12:15:32Z</time>
      </trkpt>
      <trkpt lat="43.42941" lon="-0.37223">
        <ele>269.2</ele>
        <time>2026-08-31T12:15:33Z</time>
      </trkpt>
      <trkpt lat="43.42941" lon="-0.37223">
        <ele>269.2</ele>
        <time>2026-08-31T12:15:34Z</time>
      </trkpt>
      <trkpt lat="43.4294" lon="-0.37222">
        <ele>270.2</ele>
        <time>2026-08-31T12:15:34Z</time>
      </trkpt>
      <trkpt lat="43.4294" lon="-0.37222">
        <ele>270.2</ele>
        <time>2026-08-31T12:15:35Z</time>
      </trkpt>
      <trkpt lat="43.42939" lon="-0.37222">
        <ele>270.2</ele>
        <time>2026-08-31T12:15:35Z</time>
      </trkpt>
      <trkpt lat="43.42939" lon="-0.37221">
        <ele>270.2</ele>
        <time>2026-08-31T12:15:36Z</time>
      </trkpt>
      <trkpt lat="43.42938" lon="-0.37221">
        <ele>270.2</ele>
        <time>2026-08-31T12:15:36Z</time>
      </trkpt>
      <trkpt lat="43.42938" lon="-0.3722">
        <ele>270.2</ele>
        <time>2026-08-31T12:15:37Z</time>
      </trkpt>
      <trkpt lat="43.42937" lon="-0.3722">
        <ele>270.2</ele>
        <time>2026-08-31T12:15:37Z</time>
      </trkpt>
      <trkpt lat="43.42937" lon="-0.37219">
        <ele>270.2</ele>
        <time>2026-08-31T12:15:38Z</time>
      </trkpt>
      <trkpt lat="43.42936" lon="-0.37219">
        <ele>270.2</ele>
        <time>2026-08-31T12:15:39Z</time>
      </trkpt>
      <trkpt lat="43.42936" lon="-0.37218">
        <ele>270.2</ele>
        <time>2026-08-31T12:15:39Z</time>
      </trkpt>
      <trkpt lat="43.42935" lon="-0.37218">
        <ele>270.2</ele>
        <time>2026-08-31T12:15:40Z</time>
      </trkpt>
      <trkpt lat="43.42935" lon="-0.37217">
        <ele>270.2</ele>
        <time>2026-08-31T12:15:40Z</time>
      </trkpt>
      <trkpt lat="43.42934" lon="-0.37217">
        <ele>270.2</ele>
        <time>2026-08-31T12:15:41Z</time>
      </trkpt>
      <trkpt lat="43.42934" lon="-0.37216">
        <ele>270.2</ele>
        <time>2026-08-31T12:15:41Z</time>
      </trkpt>
      <trkpt lat="43.42933" lon="-0.37216">
        <ele>270.2</ele>
        <time>2026-08-31T12:15:42Z</time>
      </trkpt>
      <trkpt lat="43.42933" lon="-0.37216">
        <ele>270.2</ele>
        <time>2026-08-31T12:15:42Z</time>
      </trkpt>
      <trkpt lat="43.42932" lon="-0.37215">
        <ele>271.2</ele>
        <time>2026-08-31T12:15:43Z</time>
      </trkpt>
      <trkpt lat="43.42932" lon="-0.37215">
        <ele>271.2</ele>
        <time>2026-08-31T12:15:44Z</time>
      </trkpt>
      <trkpt lat="43.42931" lon="-0.37215">
        <ele>270.2</ele>
        <time>2026-08-31T12:15:44Z</time>
      </trkpt>
      <trkpt lat="43.4293" lon="-0.37214">
        <ele>270.2</ele>
        <time>2026-08-31T12:15:45Z</time>
      </trkpt>
      <trkpt lat="43.4293" lon="-0.37214">
        <ele>270.2</ele>
        <time>2026-08-31T12:15:45Z</time>
      </trkpt>
      <trkpt lat="43.42929" lon="-0.37213">
        <ele>270.2</ele>
        <time>2026-08-31T12:15:46Z</time>
      </trkpt>
      <trkpt lat="43.42929" lon="-0.37213">
        <ele>270.2</ele>
        <time>2026-08-31T12:15:46Z</time>
      </trkpt>
      <trkpt lat="43.42928" lon="-0.37212">
        <ele>269.2</ele>
        <time>2026-08-31T12:15:47Z</time>
      </trkpt>
      <trkpt lat="43.42928" lon="-0.37212">
        <ele>269.2</ele>
        <time>2026-08-31T12:15:47Z</time>
      </trkpt>
      <trkpt lat="43.42927" lon="-0.37211">
        <ele>269.2</ele>
        <time>2026-08-31T12:15:48Z</time>
      </trkpt>
      <trkpt lat="43.42927" lon="-0.37211">
        <ele>269.2</ele>
        <time>2026-08-31T12:15:48Z</time>
      </trkpt>
      <trkpt lat="43.42926" lon="-0.3721">
        <ele>269.2</ele>
        <time>2026-08-31T12:15:49Z</time>
      </trkpt>
      <trkpt lat="43.42925" lon="-0.3721">
        <ele>269.2</ele>
        <time>2026-08-31T12:15:50Z</time>
      </trkpt>
      <trkpt lat="43.42925" lon="-0.37209">
        <ele>270.2</ele>
        <time>2026-08-31T12:15:50Z</time>
      </trkpt>
      <trkpt lat="43.42924" lon="-0.37209">
        <ele>270.2</ele>
        <time>2026-08-31T12:15:51Z</time>
      </trkpt>
      <trkpt lat="43.42924" lon="-0.37209">
        <ele>269.2</ele>
        <time>2026-08-31T12:15:51Z</time>
      </trkpt>
      <trkpt lat="43.42923" lon="-0.37208">
        <ele>269.2</ele>
        <time>2026-08-31T12:15:52Z</time>
      </trkpt>
      <trkpt lat="43.42923" lon="-0.37208">
        <ele>269.2</ele>
        <time>2026-08-31T12:15:52Z</time>
      </trkpt>
      <trkpt lat="43.42922" lon="-0.37208">
        <ele>269.2</ele>
        <time>2026-08-31T12:15:53Z</time>
      </trkpt>
      <trkpt lat="43.42922" lon="-0.37207">
        <ele>269.2</ele>
        <time>2026-08-31T12:15:53Z</time>
      </trkpt>
      <trkpt lat="43.42921" lon="-0.37207">
        <ele>269.2</ele>
        <time>2026-08-31T12:15:54Z</time>
      </trkpt>
      <trkpt lat="43.4292" lon="-0.37206">
        <ele>269.2</ele>
        <time>2026-08-31T12:15:54Z</time>
      </trkpt>
      <trkpt lat="43.4292" lon="-0.37206">
        <ele>269.2</ele>
        <time>2026-08-31T12:15:55Z</time>
      </trkpt>
      <trkpt lat="43.42919" lon="-0.37206">
        <ele>269.2</ele>
        <time>2026-08-31T12:15:56Z</time>
      </trkpt>
      <trkpt lat="43.42919" lon="-0.37206">
        <ele>269.2</ele>
        <time>2026-08-31T12:15:56Z</time>
      </trkpt>
      <trkpt lat="43.42918" lon="-0.37205">
        <ele>269.2</ele>
        <time>2026-08-31T12:15:57Z</time>
      </trkpt>
      <trkpt lat="43.42917" lon="-0.37206">
        <ele>270.2</ele>
        <time>2026-08-31T12:15:57Z</time>
      </trkpt>
      <trkpt lat="43.42916" lon="-0.37206">
        <ele>269.2</ele>
        <time>2026-08-31T12:15:58Z</time>
      </trkpt>
      <trkpt lat="43.42916" lon="-0.37206">
        <ele>269.2</ele>
        <time>2026-08-31T12:15:58Z</time>
      </trkpt>
      <trkpt lat="43.42915" lon="-0.37205">
        <ele>270.2</ele>
        <time>2026-08-31T12:15:59Z</time>
      </trkpt>
      <trkpt lat="43.42914" lon="-0.37205">
        <ele>270.2</ele>
        <time>2026-08-31T12:15:59Z</time>
      </trkpt>
      <trkpt lat="43.42914" lon="-0.37205">
        <ele>270.2</ele>
        <time>2026-08-31T12:16:00Z</time>
      </trkpt>
      <trkpt lat="43.42913" lon="-0.37204">
        <ele>270.2</ele>
        <time>2026-08-31T12:16:01Z</time>
      </trkpt>
      <trkpt lat="43.42912" lon="-0.37204">
        <ele>270.2</ele>
        <time>2026-08-31T12:16:01Z</time>
      </trkpt>
      <trkpt lat="43.42912" lon="-0.37204">
        <ele>270.2</ele>
        <time>2026-08-31T12:16:02Z</time>
      </trkpt>
      <trkpt lat="43.42911" lon="-0.37204">
        <ele>271.2</ele>
        <time>2026-08-31T12:16:02Z</time>
      </trkpt>
      <trkpt lat="43.42909" lon="-0.37204">
        <ele>271.2</ele>
        <time>2026-08-31T12:16:04Z</time>
      </trkpt>
      <trkpt lat="43.42909" lon="-0.37204">
        <ele>271.2</ele>
        <time>2026-08-31T12:16:05Z</time>
      </trkpt>
      <trkpt lat="43.42909" lon="-0.37204">
        <ele>271.2</ele>
        <time>2026-08-31T12:16:06Z</time>
      </trkpt>
      <trkpt lat="43.42909" lon="-0.37204">
        <ele>271.2</ele>
        <time>2026-08-31T12:16:06Z</time>
      </trkpt>
      <trkpt lat="43.42909" lon="-0.37203">
        <ele>272.2</ele>
        <time>2026-08-31T12:16:07Z</time>
      </trkpt>
      <trkpt lat="43.42909" lon="-0.37202">
        <ele>272.2</ele>
        <time>2026-08-31T12:16:07Z</time>
      </trkpt>
      <trkpt lat="43.42908" lon="-0.37202">
        <ele>271.2</ele>
        <time>2026-08-31T12:16:08Z</time>
      </trkpt>
      <trkpt lat="43.42908" lon="-0.37201">
        <ele>271.2</ele>
        <time>2026-08-31T12:16:08Z</time>
      </trkpt>
      <trkpt lat="43.42907" lon="-0.372">
        <ele>272.2</ele>
        <time>2026-08-31T12:16:09Z</time>
      </trkpt>
      <trkpt lat="43.42907" lon="-0.37199">
        <ele>272.2</ele>
        <time>2026-08-31T12:16:09Z</time>
      </trkpt>
      <trkpt lat="43.42906" lon="-0.37198">
        <ele>272.2</ele>
        <time>2026-08-31T12:16:10Z</time>
      </trkpt>
      <trkpt lat="43.42906" lon="-0.37197">
        <ele>272.2</ele>
        <time>2026-08-31T12:16:11Z</time>
      </trkpt>
      <trkpt lat="43.42905" lon="-0.37195">
        <ele>272.2</ele>
        <time>2026-08-31T12:16:11Z</time>
      </trkpt>
      <trkpt lat="43.42905" lon="-0.37194">
        <ele>272.2</ele>
        <time>2026-08-31T12:16:12Z</time>
      </trkpt>
      <trkpt lat="43.42904" lon="-0.37194">
        <ele>272.2</ele>
        <time>2026-08-31T12:16:12Z</time>
      </trkpt>
      <trkpt lat="43.42904" lon="-0.37193">
        <ele>272.2</ele>
        <time>2026-08-31T12:16:13Z</time>
      </trkpt>
      <trkpt lat="43.42903" lon="-0.37192">
        <ele>272.2</ele>
        <time>2026-08-31T12:16:13Z</time>
      </trkpt>
      <trkpt lat="43.42903" lon="-0.37191">
        <ele>272.2</ele>
        <time>2026-08-31T12:16:14Z</time>
      </trkpt>
      <trkpt lat="43.42902" lon="-0.3719">
        <ele>272.2</ele>
        <time>2026-08-31T12:16:14Z</time>
      </trkpt>
      <trkpt lat="43.42902" lon="-0.3719">
        <ele>272.2</ele>
        <time>2026-08-31T12:16:15Z</time>
      </trkpt>
      <trkpt lat="43.42901" lon="-0.37189">
        <ele>272.2</ele>
        <time>2026-08-31T12:16:15Z</time>
      </trkpt>
      <trkpt lat="43.42901" lon="-0.37188">
        <ele>272.2</ele>
        <time>2026-08-31T12:16:16Z</time>
      </trkpt>
      <trkpt lat="43.429" lon="-0.37187">
        <ele>272.2</ele>
        <time>2026-08-31T12:16:16Z</time>
      </trkpt>
      <trkpt lat="43.42899" lon="-0.37187">
        <ele>272.2</ele>
        <time>2026-08-31T12:16:17Z</time>
      </trkpt>
      <trkpt lat="43.42899" lon="-0.37186">
        <ele>272.2</ele>
        <time>2026-08-31T12:16:18Z</time>
      </trkpt>
      <trkpt lat="43.42898" lon="-0.37186">
        <ele>272.2</ele>
        <time>2026-08-31T12:16:18Z</time>
      </trkpt>
      <trkpt lat="43.42898" lon="-0.37185">
        <ele>272.2</ele>
        <time>2026-08-31T12:16:19Z</time>
      </trkpt>
      <trkpt lat="43.42897" lon="-0.37185">
        <ele>272.2</ele>
        <time>2026-08-31T12:16:19Z</time>
      </trkpt>
      <trkpt lat="43.42896" lon="-0.37184">
        <ele>272.2</ele>
        <time>2026-08-31T12:16:20Z</time>
      </trkpt>
      <trkpt lat="43.42896" lon="-0.37184">
        <ele>272.2</ele>
        <time>2026-08-31T12:16:20Z</time>
      </trkpt>
      <trkpt lat="43.42895" lon="-0.37183">
        <ele>272.2</ele>
        <time>2026-08-31T12:16:21Z</time>
      </trkpt>
      <trkpt lat="43.42894" lon="-0.37183">
        <ele>272.2</ele>
        <time>2026-08-31T12:16:21Z</time>
      </trkpt>
      <trkpt lat="43.42894" lon="-0.37182">
        <ele>273.2</ele>
        <time>2026-08-31T12:16:22Z</time>
      </trkpt>
      <trkpt lat="43.42893" lon="-0.37182">
        <ele>273.2</ele>
        <time>2026-08-31T12:16:22Z</time>
      </trkpt>
      <trkpt lat="43.42892" lon="-0.37181">
        <ele>273.2</ele>
        <time>2026-08-31T12:16:23Z</time>
      </trkpt>
      <trkpt lat="43.42892" lon="-0.37181">
        <ele>273.2</ele>
        <time>2026-08-31T12:16:23Z</time>
      </trkpt>
      <trkpt lat="43.42891" lon="-0.3718">
        <ele>273.2</ele>
        <time>2026-08-31T12:16:24Z</time>
      </trkpt>
      <trkpt lat="43.42891" lon="-0.3718">
        <ele>273.2</ele>
        <time>2026-08-31T12:16:25Z</time>
      </trkpt>
      <trkpt lat="43.4289" lon="-0.37179">
        <ele>273.2</ele>
        <time>2026-08-31T12:16:25Z</time>
      </trkpt>
      <trkpt lat="43.4289" lon="-0.37179">
        <ele>273.2</ele>
        <time>2026-08-31T12:16:26Z</time>
      </trkpt>
      <trkpt lat="43.42889" lon="-0.37178">
        <ele>273.2</ele>
        <time>2026-08-31T12:16:26Z</time>
      </trkpt>
      <trkpt lat="43.42888" lon="-0.37177">
        <ele>273.2</ele>
        <time>2026-08-31T12:16:27Z</time>
      </trkpt>
      <trkpt lat="43.42888" lon="-0.37177">
        <ele>273.2</ele>
        <time>2026-08-31T12:16:27Z</time>
      </trkpt>
      <trkpt lat="43.42887" lon="-0.37176">
        <ele>273.2</ele>
        <time>2026-08-31T12:16:28Z</time>
      </trkpt>
      <trkpt lat="43.42887" lon="-0.37175">
        <ele>273.2</ele>
        <time>2026-08-31T12:16:28Z</time>
      </trkpt>
      <trkpt lat="43.42886" lon="-0.37174">
        <ele>273.2</ele>
        <time>2026-08-31T12:16:29Z</time>
      </trkpt>
      <trkpt lat="43.42886" lon="-0.37174">
        <ele>273.2</ele>
        <time>2026-08-31T12:16:29Z</time>
      </trkpt>
      <trkpt lat="43.42885" lon="-0.37173">
        <ele>274.2</ele>
        <time>2026-08-31T12:16:30Z</time>
      </trkpt>
      <trkpt lat="43.42885" lon="-0.37172">
        <ele>274.2</ele>
        <time>2026-08-31T12:16:30Z</time>
      </trkpt>
      <trkpt lat="43.42884" lon="-0.37172">
        <ele>274.2</ele>
        <time>2026-08-31T12:16:31Z</time>
      </trkpt>
      <trkpt lat="43.42884" lon="-0.37171">
        <ele>274.2</ele>
        <time>2026-08-31T12:16:32Z</time>
      </trkpt>
      <trkpt lat="43.42883" lon="-0.3717">
        <ele>274.2</ele>
        <time>2026-08-31T12:16:32Z</time>
      </trkpt>
      <trkpt lat="43.42883" lon="-0.3717">
        <ele>274.2</ele>
        <time>2026-08-31T12:16:33Z</time>
      </trkpt>
      <trkpt lat="43.42882" lon="-0.37169">
        <ele>274.2</ele>
        <time>2026-08-31T12:16:33Z</time>
      </trkpt>
      <trkpt lat="43.42882" lon="-0.37168">
        <ele>273.2</ele>
        <time>2026-08-31T12:16:34Z</time>
      </trkpt>
      <trkpt lat="43.42881" lon="-0.37167">
        <ele>273.2</ele>
        <time>2026-08-31T12:16:34Z</time>
      </trkpt>
      <trkpt lat="43.42881" lon="-0.37167">
        <ele>274.2</ele>
        <time>2026-08-31T12:16:35Z</time>
      </trkpt>
      <trkpt lat="43.4288" lon="-0.37166">
        <ele>274.2</ele>
        <time>2026-08-31T12:16:35Z</time>
      </trkpt>
      <trkpt lat="43.4288" lon="-0.37165">
        <ele>273.2</ele>
        <time>2026-08-31T12:16:36Z</time>
      </trkpt>
      <trkpt lat="43.42879" lon="-0.37164">
        <ele>273.2</ele>
        <time>2026-08-31T12:16:36Z</time>
      </trkpt>
      <trkpt lat="43.42879" lon="-0.37163">
        <ele>273.2</ele>
        <time>2026-08-31T12:16:37Z</time>
      </trkpt>
      <trkpt lat="43.42878" lon="-0.37163">
        <ele>273.2</ele>
        <time>2026-08-31T12:16:37Z</time>
      </trkpt>
      <trkpt lat="43.42878" lon="-0.37162">
        <ele>273.2</ele>
        <time>2026-08-31T12:16:38Z</time>
      </trkpt>
      <trkpt lat="43.42877" lon="-0.37161">
        <ele>273.2</ele>
        <time>2026-08-31T12:16:39Z</time>
      </trkpt>
      <trkpt lat="43.42877" lon="-0.3716">
        <ele>274.2</ele>
        <time>2026-08-31T12:16:39Z</time>
      </trkpt>
      <trkpt lat="43.42876" lon="-0.3716">
        <ele>274.2</ele>
        <time>2026-08-31T12:16:40Z</time>
      </trkpt>
      <trkpt lat="43.42876" lon="-0.37159">
        <ele>274.2</ele>
        <time>2026-08-31T12:16:40Z</time>
      </trkpt>
      <trkpt lat="43.42875" lon="-0.37158">
        <ele>274.2</ele>
        <time>2026-08-31T12:16:41Z</time>
      </trkpt>
      <trkpt lat="43.42875" lon="-0.37158">
        <ele>274.2</ele>
        <time>2026-08-31T12:16:41Z</time>
      </trkpt>
      <trkpt lat="43.42874" lon="-0.37157">
        <ele>274.2</ele>
        <time>2026-08-31T12:16:42Z</time>
      </trkpt>
      <trkpt lat="43.42874" lon="-0.37156">
        <ele>274.2</ele>
        <time>2026-08-31T12:16:42Z</time>
      </trkpt>
      <trkpt lat="43.42873" lon="-0.37155">
        <ele>274.2</ele>
        <time>2026-08-31T12:16:43Z</time>
      </trkpt>
      <trkpt lat="43.42873" lon="-0.37155">
        <ele>274.2</ele>
        <time>2026-08-31T12:16:43Z</time>
      </trkpt>
      <trkpt lat="43.42872" lon="-0.37154">
        <ele>274.2</ele>
        <time>2026-08-31T12:16:44Z</time>
      </trkpt>
      <trkpt lat="43.42872" lon="-0.37153">
        <ele>274.2</ele>
        <time>2026-08-31T12:16:45Z</time>
      </trkpt>
      <trkpt lat="43.42871" lon="-0.37152">
        <ele>275.2</ele>
        <time>2026-08-31T12:16:45Z</time>
      </trkpt>
      <trkpt lat="43.42871" lon="-0.37151">
        <ele>275.2</ele>
        <time>2026-08-31T12:16:46Z</time>
      </trkpt>
      <trkpt lat="43.4287" lon="-0.37151">
        <ele>274.2</ele>
        <time>2026-08-31T12:16:46Z</time>
      </trkpt>
      <trkpt lat="43.4287" lon="-0.3715">
        <ele>274.2</ele>
        <time>2026-08-31T12:16:47Z</time>
      </trkpt>
      <trkpt lat="43.42869" lon="-0.37149">
        <ele>274.2</ele>
        <time>2026-08-31T12:16:47Z</time>
      </trkpt>
      <trkpt lat="43.42869" lon="-0.37149">
        <ele>274.2</ele>
        <time>2026-08-31T12:16:48Z</time>
      </trkpt>
      <trkpt lat="43.42869" lon="-0.37148">
        <ele>274.2</ele>
        <time>2026-08-31T12:16:48Z</time>
      </trkpt>
      <trkpt lat="43.42868" lon="-0.37148">
        <ele>274.2</ele>
        <time>2026-08-31T12:16:49Z</time>
      </trkpt>
      <trkpt lat="43.42868" lon="-0.37147">
        <ele>274.2</ele>
        <time>2026-08-31T12:16:49Z</time>
      </trkpt>
      <trkpt lat="43.42867" lon="-0.37146">
        <ele>274.2</ele>
        <time>2026-08-31T12:16:50Z</time>
      </trkpt>
      <trkpt lat="43.42867" lon="-0.37145">
        <ele>274.2</ele>
        <time>2026-08-31T12:16:51Z</time>
      </trkpt>
      <trkpt lat="43.42866" lon="-0.37144">
        <ele>274.2</ele>
        <time>2026-08-31T12:16:51Z</time>
      </trkpt>
      <trkpt lat="43.42866" lon="-0.37143">
        <ele>274.2</ele>
        <time>2026-08-31T12:16:52Z</time>
      </trkpt>
      <trkpt lat="43.42866" lon="-0.37143">
        <ele>274.2</ele>
        <time>2026-08-31T12:16:52Z</time>
      </trkpt>
      <trkpt lat="43.42865" lon="-0.37142">
        <ele>273.2</ele>
        <time>2026-08-31T12:16:53Z</time>
      </trkpt>
      <trkpt lat="43.42865" lon="-0.37141">
        <ele>273.2</ele>
        <time>2026-08-31T12:16:53Z</time>
      </trkpt>
      <trkpt lat="43.42865" lon="-0.3714">
        <ele>273.2</ele>
        <time>2026-08-31T12:16:54Z</time>
      </trkpt>
      <trkpt lat="43.42864" lon="-0.37139">
        <ele>273.2</ele>
        <time>2026-08-31T12:16:54Z</time>
      </trkpt>
      <trkpt lat="43.42864" lon="-0.37139">
        <ele>273.2</ele>
        <time>2026-08-31T12:16:55Z</time>
      </trkpt>
      <trkpt lat="43.42863" lon="-0.37138">
        <ele>273.2</ele>
        <time>2026-08-31T12:16:55Z</time>
      </trkpt>
      <trkpt lat="43.42863" lon="-0.37137">
        <ele>273.2</ele>
        <time>2026-08-31T12:16:56Z</time>
      </trkpt>
      <trkpt lat="43.42863" lon="-0.37136">
        <ele>273.2</ele>
        <time>2026-08-31T12:16:56Z</time>
      </trkpt>
      <trkpt lat="43.42862" lon="-0.37135">
        <ele>272.2</ele>
        <time>2026-08-31T12:16:57Z</time>
      </trkpt>
      <trkpt lat="43.42862" lon="-0.37135">
        <ele>272.2</ele>
        <time>2026-08-31T12:16:58Z</time>
      </trkpt>
      <trkpt lat="43.42862" lon="-0.37134">
        <ele>273.2</ele>
        <time>2026-08-31T12:16:58Z</time>
      </trkpt>
      <trkpt lat="43.42862" lon="-0.37133">
        <ele>273.2</ele>
        <time>2026-08-31T12:16:59Z</time>
      </trkpt>
      <trkpt lat="43.42861" lon="-0.37132">
        <ele>273.2</ele>
        <time>2026-08-31T12:16:59Z</time>
      </trkpt>
      <trkpt lat="43.42861" lon="-0.37132">
        <ele>273.2</ele>
        <time>2026-08-31T12:17:00Z</time>
      </trkpt>
      <trkpt lat="43.42861" lon="-0.37131">
        <ele>273.2</ele>
        <time>2026-08-31T12:17:00Z</time>
      </trkpt>
      <trkpt lat="43.42861" lon="-0.3713">
        <ele>272.2</ele>
        <time>2026-08-31T12:17:01Z</time>
      </trkpt>
      <trkpt lat="43.4286" lon="-0.37129">
        <ele>272.2</ele>
        <time>2026-08-31T12:17:01Z</time>
      </trkpt>
      <trkpt lat="43.4286" lon="-0.37128">
        <ele>272.2</ele>
        <time>2026-08-31T12:17:02Z</time>
      </trkpt>
      <trkpt lat="43.4286" lon="-0.37127">
        <ele>272.2</ele>
        <time>2026-08-31T12:17:02Z</time>
      </trkpt>
      <trkpt lat="43.4286" lon="-0.37127">
        <ele>272.2</ele>
        <time>2026-08-31T12:17:03Z</time>
      </trkpt>
      <trkpt lat="43.42859" lon="-0.37126">
        <ele>272.2</ele>
        <time>2026-08-31T12:17:03Z</time>
      </trkpt>
      <trkpt lat="43.42859" lon="-0.37125">
        <ele>273.2</ele>
        <time>2026-08-31T12:17:04Z</time>
      </trkpt>
      <trkpt lat="43.42859" lon="-0.37124">
        <ele>273.2</ele>
        <time>2026-08-31T12:17:04Z</time>
      </trkpt>
      <trkpt lat="43.42858" lon="-0.37124">
        <ele>273.2</ele>
        <time>2026-08-31T12:17:05Z</time>
      </trkpt>
      <trkpt lat="43.42858" lon="-0.37123">
        <ele>273.2</ele>
        <time>2026-08-31T12:17:06Z</time>
      </trkpt>
      <trkpt lat="43.42857" lon="-0.37123">
        <ele>273.2</ele>
        <time>2026-08-31T12:17:06Z</time>
      </trkpt>
      <trkpt lat="43.42857" lon="-0.37123">
        <ele>273.2</ele>
        <time>2026-08-31T12:17:07Z</time>
      </trkpt>
      <trkpt lat="43.42856" lon="-0.37123">
        <ele>273.2</ele>
        <time>2026-08-31T12:17:07Z</time>
      </trkpt>
      <trkpt lat="43.42856" lon="-0.37123">
        <ele>273.2</ele>
        <time>2026-08-31T12:17:08Z</time>
      </trkpt>
      <trkpt lat="43.42855" lon="-0.37122">
        <ele>273.2</ele>
        <time>2026-08-31T12:17:08Z</time>
      </trkpt>
      <trkpt lat="43.42854" lon="-0.37121">
        <ele>273.2</ele>
        <time>2026-08-31T12:17:09Z</time>
      </trkpt>
      <trkpt lat="43.42854" lon="-0.37121">
        <ele>273.2</ele>
        <time>2026-08-31T12:17:09Z</time>
      </trkpt>
      <trkpt lat="43.42853" lon="-0.3712">
        <ele>273.2</ele>
        <time>2026-08-31T12:17:10Z</time>
      </trkpt>
      <trkpt lat="43.42853" lon="-0.3712">
        <ele>273.2</ele>
        <time>2026-08-31T12:17:10Z</time>
      </trkpt>
      <trkpt lat="43.42853" lon="-0.37119">
        <ele>273.2</ele>
        <time>2026-08-31T12:17:11Z</time>
      </trkpt>
      <trkpt lat="43.42852" lon="-0.37118">
        <ele>273.2</ele>
        <time>2026-08-31T12:17:11Z</time>
      </trkpt>
      <trkpt lat="43.42852" lon="-0.37118">
        <ele>273.2</ele>
        <time>2026-08-31T12:17:12Z</time>
      </trkpt>
      <trkpt lat="43.42851" lon="-0.37117">
        <ele>273.2</ele>
        <time>2026-08-31T12:17:13Z</time>
      </trkpt>
      <trkpt lat="43.42851" lon="-0.37117">
        <ele>273.2</ele>
        <time>2026-08-31T12:17:13Z</time>
      </trkpt>
      <trkpt lat="43.4285" lon="-0.37116">
        <ele>273.2</ele>
        <time>2026-08-31T12:17:14Z</time>
      </trkpt>
      <trkpt lat="43.4285" lon="-0.37116">
        <ele>273.2</ele>
        <time>2026-08-31T12:17:14Z</time>
      </trkpt>
      <trkpt lat="43.42849" lon="-0.37115">
        <ele>273.2</ele>
        <time>2026-08-31T12:17:15Z</time>
      </trkpt>
      <trkpt lat="43.42848" lon="-0.37115">
        <ele>273.2</ele>
        <time>2026-08-31T12:17:15Z</time>
      </trkpt>
      <trkpt lat="43.42848" lon="-0.37114">
        <ele>272.2</ele>
        <time>2026-08-31T12:17:16Z</time>
      </trkpt>
      <trkpt lat="43.42847" lon="-0.37114">
        <ele>272.2</ele>
        <time>2026-08-31T12:17:16Z</time>
      </trkpt>
      <trkpt lat="43.42846" lon="-0.37115">
        <ele>272.2</ele>
        <time>2026-08-31T12:17:17Z</time>
      </trkpt>
      <trkpt lat="43.42845" lon="-0.37115">
        <ele>272.2</ele>
        <time>2026-08-31T12:17:18Z</time>
      </trkpt>
      <trkpt lat="43.42844" lon="-0.37116">
        <ele>272.2</ele>
        <time>2026-08-31T12:17:18Z</time>
      </trkpt>
      <trkpt lat="43.42843" lon="-0.37116">
        <ele>272.2</ele>
        <time>2026-08-31T12:17:19Z</time>
      </trkpt>
      <trkpt lat="43.42843" lon="-0.37117">
        <ele>272.2</ele>
        <time>2026-08-31T12:17:20Z</time>
      </trkpt>
      <trkpt lat="43.42842" lon="-0.37118">
        <ele>273.2</ele>
        <time>2026-08-31T12:17:20Z</time>
      </trkpt>
      <trkpt lat="43.42841" lon="-0.37118">
        <ele>273.2</ele>
        <time>2026-08-31T12:17:21Z</time>
      </trkpt>
      <trkpt lat="43.42841" lon="-0.37119">
        <ele>273.2</ele>
        <time>2026-08-31T12:17:21Z</time>
      </trkpt>
      <trkpt lat="43.4284" lon="-0.37119">
        <ele>273.2</ele>
        <time>2026-08-31T12:17:22Z</time>
      </trkpt>
      <trkpt lat="43.42839" lon="-0.3712">
        <ele>273.2</ele>
        <time>2026-08-31T12:17:23Z</time>
      </trkpt>
      <trkpt lat="43.42839" lon="-0.3712">
        <ele>273.2</ele>
        <time>2026-08-31T12:17:23Z</time>
      </trkpt>
      <trkpt lat="43.42838" lon="-0.37121">
        <ele>273.2</ele>
        <time>2026-08-31T12:17:24Z</time>
      </trkpt>
      <trkpt lat="43.42837" lon="-0.37121">
        <ele>274.2</ele>
        <time>2026-08-31T12:17:24Z</time>
      </trkpt>
      <trkpt lat="43.42837" lon="-0.37121">
        <ele>274.2</ele>
        <time>2026-08-31T12:17:25Z</time>
      </trkpt>
      <trkpt lat="43.42836" lon="-0.37121">
        <ele>274.2</ele>
        <time>2026-08-31T12:17:25Z</time>
      </trkpt>
      <trkpt lat="43.42835" lon="-0.37122">
        <ele>273.2</ele>
        <time>2026-08-31T12:17:26Z</time>
      </trkpt>
      <trkpt lat="43.42835" lon="-0.37122">
        <ele>273.2</ele>
        <time>2026-08-31T12:17:27Z</time>
      </trkpt>
      <trkpt lat="43.42834" lon="-0.37122">
        <ele>274.2</ele>
        <time>2026-08-31T12:17:27Z</time>
      </trkpt>
      <trkpt lat="43.42834" lon="-0.37123">
        <ele>274.2</ele>
        <time>2026-08-31T12:17:28Z</time>
      </trkpt>
      <trkpt lat="43.42833" lon="-0.37123">
        <ele>274.2</ele>
        <time>2026-08-31T12:17:28Z</time>
      </trkpt>
      <trkpt lat="43.42833" lon="-0.37123">
        <ele>273.2</ele>
        <time>2026-08-31T12:17:29Z</time>
      </trkpt>
      <trkpt lat="43.42832" lon="-0.37124">
        <ele>273.2</ele>
        <time>2026-08-31T12:17:29Z</time>
      </trkpt>
      <trkpt lat="43.42832" lon="-0.37124">
        <ele>274.2</ele>
        <time>2026-08-31T12:17:30Z</time>
      </trkpt>
      <trkpt lat="43.42831" lon="-0.37124">
        <ele>274.2</ele>
        <time>2026-08-31T12:17:31Z</time>
      </trkpt>
      <trkpt lat="43.42831" lon="-0.37125">
        <ele>274.2</ele>
        <time>2026-08-31T12:17:31Z</time>
      </trkpt>
      <trkpt lat="43.4283" lon="-0.37125">
        <ele>274.2</ele>
        <time>2026-08-31T12:17:32Z</time>
      </trkpt>
      <trkpt lat="43.4283" lon="-0.37126">
        <ele>274.2</ele>
        <time>2026-08-31T12:17:32Z</time>
      </trkpt>
      <trkpt lat="43.42829" lon="-0.37126">
        <ele>273.2</ele>
        <time>2026-08-31T12:17:33Z</time>
      </trkpt>
      <trkpt lat="43.42829" lon="-0.37127">
        <ele>273.2</ele>
        <time>2026-08-31T12:17:33Z</time>
      </trkpt>
      <trkpt lat="43.42828" lon="-0.37127">
        <ele>274.2</ele>
        <time>2026-08-31T12:17:34Z</time>
      </trkpt>
      <trkpt lat="43.42828" lon="-0.37128">
        <ele>274.2</ele>
        <time>2026-08-31T12:17:35Z</time>
      </trkpt>
      <trkpt lat="43.42827" lon="-0.37128">
        <ele>274.2</ele>
        <time>2026-08-31T12:17:35Z</time>
      </trkpt>
      <trkpt lat="43.42827" lon="-0.37129">
        <ele>274.2</ele>
        <time>2026-08-31T12:17:36Z</time>
      </trkpt>
      <trkpt lat="43.42826" lon="-0.37129">
        <ele>274.2</ele>
        <time>2026-08-31T12:17:36Z</time>
      </trkpt>
      <trkpt lat="43.42826" lon="-0.37129">
        <ele>274.2</ele>
        <time>2026-08-31T12:17:37Z</time>
      </trkpt>
      <trkpt lat="43.42825" lon="-0.37129">
        <ele>274.2</ele>
        <time>2026-08-31T12:17:37Z</time>
      </trkpt>
      <trkpt lat="43.42825" lon="-0.3713">
        <ele>274.2</ele>
        <time>2026-08-31T12:17:38Z</time>
      </trkpt>
      <trkpt lat="43.42825" lon="-0.3713">
        <ele>274.2</ele>
        <time>2026-08-31T12:17:38Z</time>
      </trkpt>
      <trkpt lat="43.42825" lon="-0.37131">
        <ele>274.2</ele>
        <time>2026-08-31T12:17:39Z</time>
      </trkpt>
      <trkpt lat="43.42824" lon="-0.37131">
        <ele>274.2</ele>
        <time>2026-08-31T12:17:40Z</time>
      </trkpt>
      <trkpt lat="43.42824" lon="-0.37132">
        <ele>274.2</ele>
        <time>2026-08-31T12:17:40Z</time>
      </trkpt>
      <trkpt lat="43.42823" lon="-0.37132">
        <ele>274.2</ele>
        <time>2026-08-31T12:17:41Z</time>
      </trkpt>
      <trkpt lat="43.42823" lon="-0.37133">
        <ele>274.2</ele>
        <time>2026-08-31T12:17:41Z</time>
      </trkpt>
      <trkpt lat="43.42822" lon="-0.37133">
        <ele>273.2</ele>
        <time>2026-08-31T12:17:42Z</time>
      </trkpt>
      <trkpt lat="43.42822" lon="-0.37134">
        <ele>273.2</ele>
        <time>2026-08-31T12:17:42Z</time>
      </trkpt>
      <trkpt lat="43.42822" lon="-0.37134">
        <ele>273.2</ele>
        <time>2026-08-31T12:17:43Z</time>
      </trkpt>
      <trkpt lat="43.42821" lon="-0.37135">
        <ele>273.2</ele>
        <time>2026-08-31T12:17:43Z</time>
      </trkpt>
      <trkpt lat="43.42821" lon="-0.37135">
        <ele>273.2</ele>
        <time>2026-08-31T12:17:44Z</time>
      </trkpt>
      <trkpt lat="43.42821" lon="-0.37136">
        <ele>273.2</ele>
        <time>2026-08-31T12:17:44Z</time>
      </trkpt>
      <trkpt lat="43.4282" lon="-0.37136">
        <ele>272.2</ele>
        <time>2026-08-31T12:17:45Z</time>
      </trkpt>
      <trkpt lat="43.4282" lon="-0.37137">
        <ele>273.2</ele>
        <time>2026-08-31T12:17:46Z</time>
      </trkpt>
      <trkpt lat="43.42819" lon="-0.37137">
        <ele>273.2</ele>
        <time>2026-08-31T12:17:46Z</time>
      </trkpt>
      <trkpt lat="43.42819" lon="-0.37138">
        <ele>272.2</ele>
        <time>2026-08-31T12:17:47Z</time>
      </trkpt>
      <trkpt lat="43.42818" lon="-0.37138">
        <ele>272.2</ele>
        <time>2026-08-31T12:17:47Z</time>
      </trkpt>
      <trkpt lat="43.42818" lon="-0.37139">
        <ele>272.2</ele>
        <time>2026-08-31T12:17:48Z</time>
      </trkpt>
      <trkpt lat="43.42818" lon="-0.3714">
        <ele>272.2</ele>
        <time>2026-08-31T12:17:48Z</time>
      </trkpt>
      <trkpt lat="43.42817" lon="-0.3714">
        <ele>272.2</ele>
        <time>2026-08-31T12:17:49Z</time>
      </trkpt>
      <trkpt lat="43.42817" lon="-0.37141">
        <ele>272.2</ele>
        <time>2026-08-31T12:17:49Z</time>
      </trkpt>
      <trkpt lat="43.42816" lon="-0.37142">
        <ele>272.2</ele>
        <time>2026-08-31T12:17:50Z</time>
      </trkpt>
      <trkpt lat="43.42816" lon="-0.37142">
        <ele>272.2</ele>
        <time>2026-08-31T12:17:51Z</time>
      </trkpt>
      <trkpt lat="43.42815" lon="-0.37143">
        <ele>272.2</ele>
        <time>2026-08-31T12:17:51Z</time>
      </trkpt>
      <trkpt lat="43.42815" lon="-0.37143">
        <ele>273.2</ele>
        <time>2026-08-31T12:17:52Z</time>
      </trkpt>
      <trkpt lat="43.42814" lon="-0.37144">
        <ele>273.2</ele>
        <time>2026-08-31T12:17:52Z</time>
      </trkpt>
      <trkpt lat="43.42814" lon="-0.37145">
        <ele>273.2</ele>
        <time>2026-08-31T12:17:53Z</time>
      </trkpt>
      <trkpt lat="43.42814" lon="-0.37145">
        <ele>273.2</ele>
        <time>2026-08-31T12:17:53Z</time>
      </trkpt>
      <trkpt lat="43.42813" lon="-0.37146">
        <ele>273.2</ele>
        <time>2026-08-31T12:17:54Z</time>
      </trkpt>
      <trkpt lat="43.42813" lon="-0.37146">
        <ele>273.2</ele>
        <time>2026-08-31T12:17:55Z</time>
      </trkpt>
      <trkpt lat="43.42812" lon="-0.37147">
        <ele>273.2</ele>
        <time>2026-08-31T12:17:55Z</time>
      </trkpt>
      <trkpt lat="43.42812" lon="-0.37148">
        <ele>274.2</ele>
        <time>2026-08-31T12:17:56Z</time>
      </trkpt>
      <trkpt lat="43.42811" lon="-0.37148">
        <ele>274.2</ele>
        <time>2026-08-31T12:17:56Z</time>
      </trkpt>
      <trkpt lat="43.42811" lon="-0.37149">
        <ele>274.2</ele>
        <time>2026-08-31T12:17:57Z</time>
      </trkpt>
      <trkpt lat="43.4281" lon="-0.3715">
        <ele>274.2</ele>
        <time>2026-08-31T12:17:57Z</time>
      </trkpt>
      <trkpt lat="43.4281" lon="-0.3715">
        <ele>273.2</ele>
        <time>2026-08-31T12:17:58Z</time>
      </trkpt>
      <trkpt lat="43.42809" lon="-0.37151">
        <ele>273.2</ele>
        <time>2026-08-31T12:17:58Z</time>
      </trkpt>
      <trkpt lat="43.42809" lon="-0.37152">
        <ele>273.2</ele>
        <time>2026-08-31T12:17:59Z</time>
      </trkpt>
      <trkpt lat="43.42808" lon="-0.37153">
        <ele>273.2</ele>
        <time>2026-08-31T12:18:00Z</time>
      </trkpt>
      <trkpt lat="43.42808" lon="-0.37154">
        <ele>273.2</ele>
        <time>2026-08-31T12:18:00Z</time>
      </trkpt>
      <trkpt lat="43.42808" lon="-0.37154">
        <ele>273.2</ele>
        <time>2026-08-31T12:18:01Z</time>
      </trkpt>
      <trkpt lat="43.42807" lon="-0.37155">
        <ele>273.2</ele>
        <time>2026-08-31T12:18:01Z</time>
      </trkpt>
      <trkpt lat="43.42807" lon="-0.37156">
        <ele>273.2</ele>
        <time>2026-08-31T12:18:02Z</time>
      </trkpt>
      <trkpt lat="43.42807" lon="-0.37156">
        <ele>273.2</ele>
        <time>2026-08-31T12:18:02Z</time>
      </trkpt>
      <trkpt lat="43.42806" lon="-0.37157">
        <ele>273.2</ele>
        <time>2026-08-31T12:18:03Z</time>
      </trkpt>
      <trkpt lat="43.42806" lon="-0.37158">
        <ele>273.2</ele>
        <time>2026-08-31T12:18:03Z</time>
      </trkpt>
      <trkpt lat="43.42806" lon="-0.37158">
        <ele>273.2</ele>
        <time>2026-08-31T12:18:04Z</time>
      </trkpt>
      <trkpt lat="43.42805" lon="-0.37159">
        <ele>273.2</ele>
        <time>2026-08-31T12:18:05Z</time>
      </trkpt>
      <trkpt lat="43.42805" lon="-0.3716">
        <ele>274.2</ele>
        <time>2026-08-31T12:18:05Z</time>
      </trkpt>
      <trkpt lat="43.42804" lon="-0.3716">
        <ele>274.2</ele>
        <time>2026-08-31T12:18:06Z</time>
      </trkpt>
      <trkpt lat="43.42804" lon="-0.37161">
        <ele>273.2</ele>
        <time>2026-08-31T12:18:06Z</time>
      </trkpt>
      <trkpt lat="43.42804" lon="-0.37161">
        <ele>274.2</ele>
        <time>2026-08-31T12:18:07Z</time>
      </trkpt>
      <trkpt lat="43.42803" lon="-0.37162">
        <ele>274.2</ele>
        <time>2026-08-31T12:18:07Z</time>
      </trkpt>
      <trkpt lat="43.42803" lon="-0.37163">
        <ele>273.2</ele>
        <time>2026-08-31T12:18:08Z</time>
      </trkpt>
      <trkpt lat="43.42802" lon="-0.37163">
        <ele>273.2</ele>
        <time>2026-08-31T12:18:08Z</time>
      </trkpt>
      <trkpt lat="43.42802" lon="-0.37164">
        <ele>273.2</ele>
        <time>2026-08-31T12:18:09Z</time>
      </trkpt>
      <trkpt lat="43.42802" lon="-0.37165">
        <ele>273.2</ele>
        <time>2026-08-31T12:18:09Z</time>
      </trkpt>
      <trkpt lat="43.42801" lon="-0.37165">
        <ele>273.2</ele>
        <time>2026-08-31T12:18:10Z</time>
      </trkpt>
      <trkpt lat="43.42801" lon="-0.37166">
        <ele>273.2</ele>
        <time>2026-08-31T12:18:11Z</time>
      </trkpt>
      <trkpt lat="43.428" lon="-0.37166">
        <ele>273.2</ele>
        <time>2026-08-31T12:18:11Z</time>
      </trkpt>
      <trkpt lat="43.428" lon="-0.37167">
        <ele>273.2</ele>
        <time>2026-08-31T12:18:12Z</time>
      </trkpt>
      <trkpt lat="43.42799" lon="-0.37168">
        <ele>273.2</ele>
        <time>2026-08-31T12:18:12Z</time>
      </trkpt>
      <trkpt lat="43.42799" lon="-0.37168">
        <ele>273.2</ele>
        <time>2026-08-31T12:18:13Z</time>
      </trkpt>
      <trkpt lat="43.42798" lon="-0.37169">
        <ele>273.2</ele>
        <time>2026-08-31T12:18:13Z</time>
      </trkpt>
      <trkpt lat="43.42798" lon="-0.37169">
        <ele>273.2</ele>
        <time>2026-08-31T12:18:14Z</time>
      </trkpt>
      <trkpt lat="43.42797" lon="-0.3717">
        <ele>273.2</ele>
        <time>2026-08-31T12:18:14Z</time>
      </trkpt>
      <trkpt lat="43.42797" lon="-0.37171">
        <ele>273.2</ele>
        <time>2026-08-31T12:18:15Z</time>
      </trkpt>
      <trkpt lat="43.42796" lon="-0.37172">
        <ele>273.2</ele>
        <time>2026-08-31T12:18:15Z</time>
      </trkpt>
      <trkpt lat="43.42796" lon="-0.37172">
        <ele>273.2</ele>
        <time>2026-08-31T12:18:16Z</time>
      </trkpt>
      <trkpt lat="43.42795" lon="-0.37173">
        <ele>273.2</ele>
        <time>2026-08-31T12:18:17Z</time>
      </trkpt>
      <trkpt lat="43.42795" lon="-0.37174">
        <ele>272.2</ele>
        <time>2026-08-31T12:18:17Z</time>
      </trkpt>
      <trkpt lat="43.42794" lon="-0.37174">
        <ele>272.2</ele>
        <time>2026-08-31T12:18:18Z</time>
      </trkpt>
      <trkpt lat="43.42794" lon="-0.37175">
        <ele>272.2</ele>
        <time>2026-08-31T12:18:18Z</time>
      </trkpt>
      <trkpt lat="43.42793" lon="-0.37176">
        <ele>273.2</ele>
        <time>2026-08-31T12:18:19Z</time>
      </trkpt>
      <trkpt lat="43.42792" lon="-0.37176">
        <ele>273.2</ele>
        <time>2026-08-31T12:18:19Z</time>
      </trkpt>
      <trkpt lat="43.42792" lon="-0.37177">
        <ele>273.2</ele>
        <time>2026-08-31T12:18:20Z</time>
      </trkpt>
      <trkpt lat="43.42791" lon="-0.37177">
        <ele>273.2</ele>
        <time>2026-08-31T12:18:20Z</time>
      </trkpt>
      <trkpt lat="43.42791" lon="-0.37178">
        <ele>273.2</ele>
        <time>2026-08-31T12:18:21Z</time>
      </trkpt>
      <trkpt lat="43.4279" lon="-0.37178">
        <ele>273.2</ele>
        <time>2026-08-31T12:18:22Z</time>
      </trkpt>
      <trkpt lat="43.4279" lon="-0.37179">
        <ele>273.2</ele>
        <time>2026-08-31T12:18:22Z</time>
      </trkpt>
      <trkpt lat="43.42789" lon="-0.37179">
        <ele>273.2</ele>
        <time>2026-08-31T12:18:23Z</time>
      </trkpt>
      <trkpt lat="43.42788" lon="-0.3718">
        <ele>273.2</ele>
        <time>2026-08-31T12:18:23Z</time>
      </trkpt>
      <trkpt lat="43.42788" lon="-0.3718">
        <ele>273.2</ele>
        <time>2026-08-31T12:18:24Z</time>
      </trkpt>
      <trkpt lat="43.42787" lon="-0.37181">
        <ele>273.2</ele>
        <time>2026-08-31T12:18:24Z</time>
      </trkpt>
      <trkpt lat="43.42787" lon="-0.37181">
        <ele>273.2</ele>
        <time>2026-08-31T12:18:25Z</time>
      </trkpt>
      <trkpt lat="43.42786" lon="-0.37182">
        <ele>273.2</ele>
        <time>2026-08-31T12:18:25Z</time>
      </trkpt>
      <trkpt lat="43.42786" lon="-0.37182">
        <ele>273.2</ele>
        <time>2026-08-31T12:18:26Z</time>
      </trkpt>
      <trkpt lat="43.42785" lon="-0.37183">
        <ele>273.2</ele>
        <time>2026-08-31T12:18:26Z</time>
      </trkpt>
      <trkpt lat="43.42784" lon="-0.37183">
        <ele>272.2</ele>
        <time>2026-08-31T12:18:27Z</time>
      </trkpt>
      <trkpt lat="43.42784" lon="-0.37184">
        <ele>272.2</ele>
        <time>2026-08-31T12:18:28Z</time>
      </trkpt>
      <trkpt lat="43.42783" lon="-0.37184">
        <ele>272.2</ele>
        <time>2026-08-31T12:18:28Z</time>
      </trkpt>
      <trkpt lat="43.42782" lon="-0.37185">
        <ele>272.2</ele>
        <time>2026-08-31T12:18:29Z</time>
      </trkpt>
      <trkpt lat="43.42782" lon="-0.37185">
        <ele>272.2</ele>
        <time>2026-08-31T12:18:29Z</time>
      </trkpt>
      <trkpt lat="43.42781" lon="-0.37185">
        <ele>272.2</ele>
        <time>2026-08-31T12:18:30Z</time>
      </trkpt>
      <trkpt lat="43.4278" lon="-0.37185">
        <ele>272.2</ele>
        <time>2026-08-31T12:18:30Z</time>
      </trkpt>
      <trkpt lat="43.4278" lon="-0.37186">
        <ele>272.2</ele>
        <time>2026-08-31T12:18:31Z</time>
      </trkpt>
      <trkpt lat="43.42779" lon="-0.37186">
        <ele>272.2</ele>
        <time>2026-08-31T12:18:31Z</time>
      </trkpt>
      <trkpt lat="43.42778" lon="-0.37187">
        <ele>272.2</ele>
        <time>2026-08-31T12:18:32Z</time>
      </trkpt>
      <trkpt lat="43.42778" lon="-0.37187">
        <ele>272.2</ele>
        <time>2026-08-31T12:18:32Z</time>
      </trkpt>
      <trkpt lat="43.42777" lon="-0.37188">
        <ele>272.2</ele>
        <time>2026-08-31T12:18:33Z</time>
      </trkpt>
      <trkpt lat="43.42776" lon="-0.37188">
        <ele>272.2</ele>
        <time>2026-08-31T12:18:34Z</time>
      </trkpt>
      <trkpt lat="43.42776" lon="-0.37188">
        <ele>272.2</ele>
        <time>2026-08-31T12:18:34Z</time>
      </trkpt>
      <trkpt lat="43.42775" lon="-0.37189">
        <ele>272.2</ele>
        <time>2026-08-31T12:18:35Z</time>
      </trkpt>
      <trkpt lat="43.42774" lon="-0.37189">
        <ele>272.2</ele>
        <time>2026-08-31T12:18:35Z</time>
      </trkpt>
      <trkpt lat="43.42774" lon="-0.37189">
        <ele>272.2</ele>
        <time>2026-08-31T12:18:36Z</time>
      </trkpt>
      <trkpt lat="43.42773" lon="-0.3719">
        <ele>272.2</ele>
        <time>2026-08-31T12:18:36Z</time>
      </trkpt>
      <trkpt lat="43.42773" lon="-0.3719">
        <ele>272.2</ele>
        <time>2026-08-31T12:18:37Z</time>
      </trkpt>
      <trkpt lat="43.42772" lon="-0.3719">
        <ele>272.2</ele>
        <time>2026-08-31T12:18:37Z</time>
      </trkpt>
      <trkpt lat="43.42771" lon="-0.37191">
        <ele>272.2</ele>
        <time>2026-08-31T12:18:38Z</time>
      </trkpt>
      <trkpt lat="43.42771" lon="-0.37191">
        <ele>272.2</ele>
        <time>2026-08-31T12:18:38Z</time>
      </trkpt>
      <trkpt lat="43.4277" lon="-0.37192">
        <ele>273.2</ele>
        <time>2026-08-31T12:18:39Z</time>
      </trkpt>
      <trkpt lat="43.4277" lon="-0.37192">
        <ele>273.2</ele>
        <time>2026-08-31T12:18:40Z</time>
      </trkpt>
      <trkpt lat="43.42769" lon="-0.37193">
        <ele>273.2</ele>
        <time>2026-08-31T12:18:40Z</time>
      </trkpt>
      <trkpt lat="43.42768" lon="-0.37193">
        <ele>273.2</ele>
        <time>2026-08-31T12:18:41Z</time>
      </trkpt>
      <trkpt lat="43.42768" lon="-0.37194">
        <ele>273.2</ele>
        <time>2026-08-31T12:18:41Z</time>
      </trkpt>
      <trkpt lat="43.42767" lon="-0.37194">
        <ele>272.2</ele>
        <time>2026-08-31T12:18:42Z</time>
      </trkpt>
      <trkpt lat="43.42767" lon="-0.37195">
        <ele>272.2</ele>
        <time>2026-08-31T12:18:42Z</time>
      </trkpt>
      <trkpt lat="43.42766" lon="-0.37195">
        <ele>272.2</ele>
        <time>2026-08-31T12:18:43Z</time>
      </trkpt>
      <trkpt lat="43.42766" lon="-0.37196">
        <ele>272.2</ele>
        <time>2026-08-31T12:18:43Z</time>
      </trkpt>
      <trkpt lat="43.42765" lon="-0.37196">
        <ele>272.2</ele>
        <time>2026-08-31T12:18:44Z</time>
      </trkpt>
      <trkpt lat="43.42765" lon="-0.37196">
        <ele>272.2</ele>
        <time>2026-08-31T12:18:44Z</time>
      </trkpt>
      <trkpt lat="43.42764" lon="-0.37197">
        <ele>272.2</ele>
        <time>2026-08-31T12:18:45Z</time>
      </trkpt>
      <trkpt lat="43.42763" lon="-0.37197">
        <ele>272.2</ele>
        <time>2026-08-31T12:18:46Z</time>
      </trkpt>
      <trkpt lat="43.42763" lon="-0.37198">
        <ele>272.2</ele>
        <time>2026-08-31T12:18:46Z</time>
      </trkpt>
      <trkpt lat="43.42762" lon="-0.37198">
        <ele>272.2</ele>
        <time>2026-08-31T12:18:47Z</time>
      </trkpt>
      <trkpt lat="43.42762" lon="-0.37199">
        <ele>272.2</ele>
        <time>2026-08-31T12:18:47Z</time>
      </trkpt>
      <trkpt lat="43.42761" lon="-0.372">
        <ele>272.2</ele>
        <time>2026-08-31T12:18:48Z</time>
      </trkpt>
      <trkpt lat="43.4276" lon="-0.372">
        <ele>272.2</ele>
        <time>2026-08-31T12:18:48Z</time>
      </trkpt>
      <trkpt lat="43.4276" lon="-0.37201">
        <ele>272.2</ele>
        <time>2026-08-31T12:18:49Z</time>
      </trkpt>
      <trkpt lat="43.42759" lon="-0.37202">
        <ele>272.2</ele>
        <time>2026-08-31T12:18:49Z</time>
      </trkpt>
      <trkpt lat="43.42759" lon="-0.37202">
        <ele>272.2</ele>
        <time>2026-08-31T12:18:50Z</time>
      </trkpt>
      <trkpt lat="43.42758" lon="-0.37203">
        <ele>272.2</ele>
        <time>2026-08-31T12:18:50Z</time>
      </trkpt>
      <trkpt lat="43.42758" lon="-0.37203">
        <ele>272.2</ele>
        <time>2026-08-31T12:18:51Z</time>
      </trkpt>
      <trkpt lat="43.42757" lon="-0.37204">
        <ele>272.2</ele>
        <time>2026-08-31T12:18:52Z</time>
      </trkpt>
      <trkpt lat="43.42756" lon="-0.37204">
        <ele>272.2</ele>
        <time>2026-08-31T12:18:52Z</time>
      </trkpt>
      <trkpt lat="43.42756" lon="-0.37205">
        <ele>272.2</ele>
        <time>2026-08-31T12:18:53Z</time>
      </trkpt>
      <trkpt lat="43.42755" lon="-0.37205">
        <ele>272.2</ele>
        <time>2026-08-31T12:18:53Z</time>
      </trkpt>
      <trkpt lat="43.42755" lon="-0.37206">
        <ele>272.2</ele>
        <time>2026-08-31T12:18:54Z</time>
      </trkpt>
      <trkpt lat="43.42754" lon="-0.37207">
        <ele>272.2</ele>
        <time>2026-08-31T12:18:54Z</time>
      </trkpt>
      <trkpt lat="43.42754" lon="-0.37207">
        <ele>272.2</ele>
        <time>2026-08-31T12:18:55Z</time>
      </trkpt>
      <trkpt lat="43.42753" lon="-0.37208">
        <ele>272.2</ele>
        <time>2026-08-31T12:18:55Z</time>
      </trkpt>
      <trkpt lat="43.42753" lon="-0.37208">
        <ele>272.2</ele>
        <time>2026-08-31T12:18:56Z</time>
      </trkpt>
      <trkpt lat="43.42752" lon="-0.37209">
        <ele>272.2</ele>
        <time>2026-08-31T12:18:56Z</time>
      </trkpt>
      <trkpt lat="43.42752" lon="-0.37209">
        <ele>272.2</ele>
        <time>2026-08-31T12:18:57Z</time>
      </trkpt>
      <trkpt lat="43.42751" lon="-0.3721">
        <ele>272.2</ele>
        <time>2026-08-31T12:18:57Z</time>
      </trkpt>
      <trkpt lat="43.4275" lon="-0.3721">
        <ele>272.2</ele>
        <time>2026-08-31T12:18:58Z</time>
      </trkpt>
      <trkpt lat="43.4275" lon="-0.37211">
        <ele>272.2</ele>
        <time>2026-08-31T12:18:59Z</time>
      </trkpt>
      <trkpt lat="43.42749" lon="-0.37211">
        <ele>272.2</ele>
        <time>2026-08-31T12:18:59Z</time>
      </trkpt>
      <trkpt lat="43.42749" lon="-0.37212">
        <ele>272.2</ele>
        <time>2026-08-31T12:19:00Z</time>
      </trkpt>
      <trkpt lat="43.42748" lon="-0.37213">
        <ele>271.2</ele>
        <time>2026-08-31T12:19:00Z</time>
      </trkpt>
      <trkpt lat="43.42747" lon="-0.37213">
        <ele>272.2</ele>
        <time>2026-08-31T12:19:01Z</time>
      </trkpt>
      <trkpt lat="43.42747" lon="-0.37214">
        <ele>272.2</ele>
        <time>2026-08-31T12:19:01Z</time>
      </trkpt>
      <trkpt lat="43.42746" lon="-0.37214">
        <ele>272.2</ele>
        <time>2026-08-31T12:19:02Z</time>
      </trkpt>
      <trkpt lat="43.42746" lon="-0.37215">
        <ele>272.2</ele>
        <time>2026-08-31T12:19:02Z</time>
      </trkpt>
      <trkpt lat="43.42745" lon="-0.37215">
        <ele>272.2</ele>
        <time>2026-08-31T12:19:03Z</time>
      </trkpt>
      <trkpt lat="43.42744" lon="-0.37215">
        <ele>272.2</ele>
        <time>2026-08-31T12:19:03Z</time>
      </trkpt>
      <trkpt lat="43.42744" lon="-0.37216">
        <ele>272.2</ele>
        <time>2026-08-31T12:19:04Z</time>
      </trkpt>
      <trkpt lat="43.42743" lon="-0.37216">
        <ele>272.2</ele>
        <time>2026-08-31T12:19:04Z</time>
      </trkpt>
      <trkpt lat="43.42743" lon="-0.37217">
        <ele>273.2</ele>
        <time>2026-08-31T12:19:05Z</time>
      </trkpt>
      <trkpt lat="43.42742" lon="-0.37217">
        <ele>273.2</ele>
        <time>2026-08-31T12:19:06Z</time>
      </trkpt>
      <trkpt lat="43.42742" lon="-0.37218">
        <ele>273.2</ele>
        <time>2026-08-31T12:19:06Z</time>
      </trkpt>
      <trkpt lat="43.42741" lon="-0.37218">
        <ele>273.2</ele>
        <time>2026-08-31T12:19:07Z</time>
      </trkpt>
      <trkpt lat="43.4274" lon="-0.37219">
        <ele>273.2</ele>
        <time>2026-08-31T12:19:07Z</time>
      </trkpt>
      <trkpt lat="43.4274" lon="-0.37219">
        <ele>273.2</ele>
        <time>2026-08-31T12:19:08Z</time>
      </trkpt>
      <trkpt lat="43.42739" lon="-0.3722">
        <ele>273.2</ele>
        <time>2026-08-31T12:19:08Z</time>
      </trkpt>
      <trkpt lat="43.42738" lon="-0.3722">
        <ele>273.2</ele>
        <time>2026-08-31T12:19:09Z</time>
      </trkpt>
      <trkpt lat="43.42738" lon="-0.3722">
        <ele>273.2</ele>
        <time>2026-08-31T12:19:09Z</time>
      </trkpt>
      <trkpt lat="43.42737" lon="-0.37221">
        <ele>273.2</ele>
        <time>2026-08-31T12:19:10Z</time>
      </trkpt>
      <trkpt lat="43.42736" lon="-0.37221">
        <ele>273.2</ele>
        <time>2026-08-31T12:19:10Z</time>
      </trkpt>
      <trkpt lat="43.42736" lon="-0.37221">
        <ele>273.2</ele>
        <time>2026-08-31T12:19:11Z</time>
      </trkpt>
      <trkpt lat="43.42735" lon="-0.37222">
        <ele>273.2</ele>
        <time>2026-08-31T12:19:12Z</time>
      </trkpt>
      <trkpt lat="43.42735" lon="-0.37222">
        <ele>273.2</ele>
        <time>2026-08-31T12:19:12Z</time>
      </trkpt>
      <trkpt lat="43.42734" lon="-0.37223">
        <ele>273.2</ele>
        <time>2026-08-31T12:19:13Z</time>
      </trkpt>
      <trkpt lat="43.42733" lon="-0.37224">
        <ele>273.2</ele>
        <time>2026-08-31T12:19:13Z</time>
      </trkpt>
      <trkpt lat="43.42733" lon="-0.37224">
        <ele>273.2</ele>
        <time>2026-08-31T12:19:14Z</time>
      </trkpt>
      <trkpt lat="43.42732" lon="-0.37225">
        <ele>273.2</ele>
        <time>2026-08-31T12:19:14Z</time>
      </trkpt>
      <trkpt lat="43.42732" lon="-0.37225">
        <ele>272.2</ele>
        <time>2026-08-31T12:19:15Z</time>
      </trkpt>
      <trkpt lat="43.42731" lon="-0.37226">
        <ele>272.2</ele>
        <time>2026-08-31T12:19:15Z</time>
      </trkpt>
      <trkpt lat="43.4273" lon="-0.37226">
        <ele>273.2</ele>
        <time>2026-08-31T12:19:16Z</time>
      </trkpt>
      <trkpt lat="43.42729" lon="-0.37227">
        <ele>273.2</ele>
        <time>2026-08-31T12:19:16Z</time>
      </trkpt>
      <trkpt lat="43.42729" lon="-0.37227">
        <ele>273.2</ele>
        <time>2026-08-31T12:19:17Z</time>
      </trkpt>
      <trkpt lat="43.42728" lon="-0.37228">
        <ele>273.2</ele>
        <time>2026-08-31T12:19:17Z</time>
      </trkpt>
      <trkpt lat="43.42728" lon="-0.37228">
        <ele>273.2</ele>
        <time>2026-08-31T12:19:18Z</time>
      </trkpt>
      <trkpt lat="43.42727" lon="-0.37229">
        <ele>273.2</ele>
        <time>2026-08-31T12:19:19Z</time>
      </trkpt>
      <trkpt lat="43.42726" lon="-0.37229">
        <ele>273.2</ele>
        <time>2026-08-31T12:19:19Z</time>
      </trkpt>
      <trkpt lat="43.42726" lon="-0.3723">
        <ele>273.2</ele>
        <time>2026-08-31T12:19:20Z</time>
      </trkpt>
      <trkpt lat="43.42725" lon="-0.3723">
        <ele>273.2</ele>
        <time>2026-08-31T12:19:20Z</time>
      </trkpt>
      <trkpt lat="43.42724" lon="-0.3723">
        <ele>273.2</ele>
        <time>2026-08-31T12:19:21Z</time>
      </trkpt>
      <trkpt lat="43.42724" lon="-0.37231">
        <ele>273.2</ele>
        <time>2026-08-31T12:19:21Z</time>
      </trkpt>
      <trkpt lat="43.42723" lon="-0.37231">
        <ele>273.2</ele>
        <time>2026-08-31T12:19:22Z</time>
      </trkpt>
      <trkpt lat="43.42723" lon="-0.37232">
        <ele>273.2</ele>
        <time>2026-08-31T12:19:22Z</time>
      </trkpt>
      <trkpt lat="43.42722" lon="-0.37232">
        <ele>273.2</ele>
        <time>2026-08-31T12:19:23Z</time>
      </trkpt>
      <trkpt lat="43.42721" lon="-0.37233">
        <ele>273.2</ele>
        <time>2026-08-31T12:19:23Z</time>
      </trkpt>
      <trkpt lat="43.42721" lon="-0.37233">
        <ele>272.2</ele>
        <time>2026-08-31T12:19:24Z</time>
      </trkpt>
      <trkpt lat="43.4272" lon="-0.37234">
        <ele>272.2</ele>
        <time>2026-08-31T12:19:25Z</time>
      </trkpt>
      <trkpt lat="43.42719" lon="-0.37234">
        <ele>272.2</ele>
        <time>2026-08-31T12:19:25Z</time>
      </trkpt>
      <trkpt lat="43.42719" lon="-0.37235">
        <ele>272.2</ele>
        <time>2026-08-31T12:19:26Z</time>
      </trkpt>
      <trkpt lat="43.42718" lon="-0.37236">
        <ele>272.2</ele>
        <time>2026-08-31T12:19:26Z</time>
      </trkpt>
      <trkpt lat="43.42718" lon="-0.37236">
        <ele>272.2</ele>
        <time>2026-08-31T12:19:27Z</time>
      </trkpt>
      <trkpt lat="43.42717" lon="-0.37237">
        <ele>272.2</ele>
        <time>2026-08-31T12:19:27Z</time>
      </trkpt>
      <trkpt lat="43.42717" lon="-0.37238">
        <ele>271.2</ele>
        <time>2026-08-31T12:19:28Z</time>
      </trkpt>
      <trkpt lat="43.42716" lon="-0.37238">
        <ele>271.2</ele>
        <time>2026-08-31T12:19:28Z</time>
      </trkpt>
      <trkpt lat="43.42716" lon="-0.37239">
        <ele>271.2</ele>
        <time>2026-08-31T12:19:29Z</time>
      </trkpt>
      <trkpt lat="43.42715" lon="-0.3724">
        <ele>271.2</ele>
        <time>2026-08-31T12:19:29Z</time>
      </trkpt>
      <trkpt lat="43.42715" lon="-0.3724">
        <ele>271.2</ele>
        <time>2026-08-31T12:19:30Z</time>
      </trkpt>
      <trkpt lat="43.42714" lon="-0.37241">
        <ele>271.2</ele>
        <time>2026-08-31T12:19:30Z</time>
      </trkpt>
      <trkpt lat="43.42713" lon="-0.37241">
        <ele>272.2</ele>
        <time>2026-08-31T12:19:31Z</time>
      </trkpt>
      <trkpt lat="43.42713" lon="-0.37242">
        <ele>272.2</ele>
        <time>2026-08-31T12:19:32Z</time>
      </trkpt>
      <trkpt lat="43.42712" lon="-0.37242">
        <ele>272.2</ele>
        <time>2026-08-31T12:19:32Z</time>
      </trkpt>
      <trkpt lat="43.42712" lon="-0.37243">
        <ele>272.2</ele>
        <time>2026-08-31T12:19:33Z</time>
      </trkpt>
      <trkpt lat="43.42711" lon="-0.37243">
        <ele>272.2</ele>
        <time>2026-08-31T12:19:33Z</time>
      </trkpt>
      <trkpt lat="43.42711" lon="-0.37244">
        <ele>272.2</ele>
        <time>2026-08-31T12:19:34Z</time>
      </trkpt>
      <trkpt lat="43.4271" lon="-0.37244">
        <ele>272.2</ele>
        <time>2026-08-31T12:19:34Z</time>
      </trkpt>
      <trkpt lat="43.4271" lon="-0.37245">
        <ele>271.2</ele>
        <time>2026-08-31T12:19:35Z</time>
      </trkpt>
      <trkpt lat="43.42709" lon="-0.37245">
        <ele>271.2</ele>
        <time>2026-08-31T12:19:35Z</time>
      </trkpt>
      <trkpt lat="43.42708" lon="-0.37246">
        <ele>271.2</ele>
        <time>2026-08-31T12:19:36Z</time>
      </trkpt>
      <trkpt lat="43.42708" lon="-0.37247">
        <ele>271.2</ele>
        <time>2026-08-31T12:19:36Z</time>
      </trkpt>
      <trkpt lat="43.42707" lon="-0.37247">
        <ele>271.2</ele>
        <time>2026-08-31T12:19:37Z</time>
      </trkpt>
      <trkpt lat="43.42707" lon="-0.37247">
        <ele>271.2</ele>
        <time>2026-08-31T12:19:37Z</time>
      </trkpt>
      <trkpt lat="43.42706" lon="-0.37248">
        <ele>271.2</ele>
        <time>2026-08-31T12:19:38Z</time>
      </trkpt>
      <trkpt lat="43.42706" lon="-0.37249">
        <ele>271.2</ele>
        <time>2026-08-31T12:19:39Z</time>
      </trkpt>
      <trkpt lat="43.42705" lon="-0.37249">
        <ele>271.2</ele>
        <time>2026-08-31T12:19:39Z</time>
      </trkpt>
      <trkpt lat="43.42704" lon="-0.3725">
        <ele>271.2</ele>
        <time>2026-08-31T12:19:40Z</time>
      </trkpt>
      <trkpt lat="43.42704" lon="-0.3725">
        <ele>271.2</ele>
        <time>2026-08-31T12:19:40Z</time>
      </trkpt>
      <trkpt lat="43.42703" lon="-0.37251">
        <ele>271.2</ele>
        <time>2026-08-31T12:19:41Z</time>
      </trkpt>
      <trkpt lat="43.42703" lon="-0.37252">
        <ele>271.2</ele>
        <time>2026-08-31T12:19:41Z</time>
      </trkpt>
      <trkpt lat="43.42702" lon="-0.37252">
        <ele>271.2</ele>
        <time>2026-08-31T12:19:42Z</time>
      </trkpt>
      <trkpt lat="43.42702" lon="-0.37253">
        <ele>271.2</ele>
        <time>2026-08-31T12:19:42Z</time>
      </trkpt>
      <trkpt lat="43.42701" lon="-0.37253">
        <ele>271.2</ele>
        <time>2026-08-31T12:19:43Z</time>
      </trkpt>
      <trkpt lat="43.427" lon="-0.37254">
        <ele>271.2</ele>
        <time>2026-08-31T12:19:43Z</time>
      </trkpt>
      <trkpt lat="43.427" lon="-0.37254">
        <ele>270.2</ele>
        <time>2026-08-31T12:19:44Z</time>
      </trkpt>
      <trkpt lat="43.42699" lon="-0.37255">
        <ele>270.2</ele>
        <time>2026-08-31T12:19:44Z</time>
      </trkpt>
      <trkpt lat="43.42699" lon="-0.37255">
        <ele>270.2</ele>
        <time>2026-08-31T12:19:45Z</time>
      </trkpt>
      <trkpt lat="43.42698" lon="-0.37256">
        <ele>270.2</ele>
        <time>2026-08-31T12:19:46Z</time>
      </trkpt>
      <trkpt lat="43.42698" lon="-0.37256">
        <ele>270.2</ele>
        <time>2026-08-31T12:19:46Z</time>
      </trkpt>
      <trkpt lat="43.42697" lon="-0.37257">
        <ele>270.2</ele>
        <time>2026-08-31T12:19:47Z</time>
      </trkpt>
      <trkpt lat="43.42696" lon="-0.37257">
        <ele>270.2</ele>
        <time>2026-08-31T12:19:47Z</time>
      </trkpt>
      <trkpt lat="43.42696" lon="-0.37258">
        <ele>270.2</ele>
        <time>2026-08-31T12:19:48Z</time>
      </trkpt>
      <trkpt lat="43.42695" lon="-0.37258">
        <ele>270.2</ele>
        <time>2026-08-31T12:19:48Z</time>
      </trkpt>
      <trkpt lat="43.42695" lon="-0.37259">
        <ele>270.2</ele>
        <time>2026-08-31T12:19:49Z</time>
      </trkpt>
      <trkpt lat="43.42694" lon="-0.37259">
        <ele>270.2</ele>
        <time>2026-08-31T12:19:49Z</time>
      </trkpt>
      <trkpt lat="43.42693" lon="-0.3726">
        <ele>270.2</ele>
        <time>2026-08-31T12:19:50Z</time>
      </trkpt>
      <trkpt lat="43.42693" lon="-0.3726">
        <ele>270.2</ele>
        <time>2026-08-31T12:19:50Z</time>
      </trkpt>
      <trkpt lat="43.42692" lon="-0.3726">
        <ele>270.2</ele>
        <time>2026-08-31T12:19:51Z</time>
      </trkpt>
      <trkpt lat="43.42692" lon="-0.37261">
        <ele>270.2</ele>
        <time>2026-08-31T12:19:51Z</time>
      </trkpt>
      <trkpt lat="43.42691" lon="-0.37261">
        <ele>270.2</ele>
        <time>2026-08-31T12:19:52Z</time>
      </trkpt>
      <trkpt lat="43.4269" lon="-0.37262">
        <ele>270.2</ele>
        <time>2026-08-31T12:19:53Z</time>
      </trkpt>
      <trkpt lat="43.4269" lon="-0.37262">
        <ele>270.2</ele>
        <time>2026-08-31T12:19:53Z</time>
      </trkpt>
      <trkpt lat="43.42689" lon="-0.37263">
        <ele>270.2</ele>
        <time>2026-08-31T12:19:54Z</time>
      </trkpt>
      <trkpt lat="43.42688" lon="-0.37263">
        <ele>269.2</ele>
        <time>2026-08-31T12:19:54Z</time>
      </trkpt>
      <trkpt lat="43.42688" lon="-0.37263">
        <ele>270.2</ele>
        <time>2026-08-31T12:19:55Z</time>
      </trkpt>
      <trkpt lat="43.42687" lon="-0.37264">
        <ele>270.2</ele>
        <time>2026-08-31T12:19:55Z</time>
      </trkpt>
      <trkpt lat="43.42686" lon="-0.37264">
        <ele>269.2</ele>
        <time>2026-08-31T12:19:56Z</time>
      </trkpt>
      <trkpt lat="43.42686" lon="-0.37265">
        <ele>269.2</ele>
        <time>2026-08-31T12:19:56Z</time>
      </trkpt>
      <trkpt lat="43.42685" lon="-0.37265">
        <ele>270.2</ele>
        <time>2026-08-31T12:19:57Z</time>
      </trkpt>
      <trkpt lat="43.42684" lon="-0.37266">
        <ele>270.2</ele>
        <time>2026-08-31T12:19:57Z</time>
      </trkpt>
      <trkpt lat="43.42684" lon="-0.37266">
        <ele>270.2</ele>
        <time>2026-08-31T12:19:58Z</time>
      </trkpt>
      <trkpt lat="43.42683" lon="-0.37266">
        <ele>270.2</ele>
        <time>2026-08-31T12:19:58Z</time>
      </trkpt>
      <trkpt lat="43.42682" lon="-0.37267">
        <ele>270.2</ele>
        <time>2026-08-31T12:19:59Z</time>
      </trkpt>
      <trkpt lat="43.42682" lon="-0.37267">
        <ele>270.2</ele>
        <time>2026-08-31T12:20:00Z</time>
      </trkpt>
      <trkpt lat="43.42681" lon="-0.37268">
        <ele>270.2</ele>
        <time>2026-08-31T12:20:00Z</time>
      </trkpt>
      <trkpt lat="43.42681" lon="-0.37268">
        <ele>270.2</ele>
        <time>2026-08-31T12:20:01Z</time>
      </trkpt>
      <trkpt lat="43.4268" lon="-0.37269">
        <ele>269.2</ele>
        <time>2026-08-31T12:20:01Z</time>
      </trkpt>
      <trkpt lat="43.42679" lon="-0.37269">
        <ele>269.2</ele>
        <time>2026-08-31T12:20:02Z</time>
      </trkpt>
      <trkpt lat="43.42679" lon="-0.3727">
        <ele>269.2</ele>
        <time>2026-08-31T12:20:02Z</time>
      </trkpt>
      <trkpt lat="43.42678" lon="-0.37271">
        <ele>269.2</ele>
        <time>2026-08-31T12:20:03Z</time>
      </trkpt>
      <trkpt lat="43.42677" lon="-0.37271">
        <ele>269.2</ele>
        <time>2026-08-31T12:20:03Z</time>
      </trkpt>
      <trkpt lat="43.42677" lon="-0.37272">
        <ele>269.2</ele>
        <time>2026-08-31T12:20:04Z</time>
      </trkpt>
      <trkpt lat="43.42676" lon="-0.37272">
        <ele>269.2</ele>
        <time>2026-08-31T12:20:04Z</time>
      </trkpt>
      <trkpt lat="43.42676" lon="-0.37273">
        <ele>269.2</ele>
        <time>2026-08-31T12:20:05Z</time>
      </trkpt>
      <trkpt lat="43.42675" lon="-0.37273">
        <ele>269.2</ele>
        <time>2026-08-31T12:20:06Z</time>
      </trkpt>
      <trkpt lat="43.42675" lon="-0.37274">
        <ele>270.2</ele>
        <time>2026-08-31T12:20:06Z</time>
      </trkpt>
      <trkpt lat="43.42674" lon="-0.37275">
        <ele>270.2</ele>
        <time>2026-08-31T12:20:07Z</time>
      </trkpt>
      <trkpt lat="43.42674" lon="-0.37275">
        <ele>270.2</ele>
        <time>2026-08-31T12:20:07Z</time>
      </trkpt>
      <trkpt lat="43.42673" lon="-0.37276">
        <ele>270.2</ele>
        <time>2026-08-31T12:20:08Z</time>
      </trkpt>
      <trkpt lat="43.42673" lon="-0.37277">
        <ele>270.2</ele>
        <time>2026-08-31T12:20:08Z</time>
      </trkpt>
      <trkpt lat="43.42672" lon="-0.37277">
        <ele>270.2</ele>
        <time>2026-08-31T12:20:09Z</time>
      </trkpt>
      <trkpt lat="43.42671" lon="-0.37278">
        <ele>270.2</ele>
        <time>2026-08-31T12:20:09Z</time>
      </trkpt>
      <trkpt lat="43.42671" lon="-0.37278">
        <ele>269.2</ele>
        <time>2026-08-31T12:20:10Z</time>
      </trkpt>
      <trkpt lat="43.4267" lon="-0.37279">
        <ele>269.2</ele>
        <time>2026-08-31T12:20:10Z</time>
      </trkpt>
      <trkpt lat="43.4267" lon="-0.37279">
        <ele>269.2</ele>
        <time>2026-08-31T12:20:11Z</time>
      </trkpt>
      <trkpt lat="43.42669" lon="-0.3728">
        <ele>269.2</ele>
        <time>2026-08-31T12:20:12Z</time>
      </trkpt>
      <trkpt lat="43.42669" lon="-0.37281">
        <ele>270.2</ele>
        <time>2026-08-31T12:20:12Z</time>
      </trkpt>
      <trkpt lat="43.42668" lon="-0.37281">
        <ele>270.2</ele>
        <time>2026-08-31T12:20:13Z</time>
      </trkpt>
      <trkpt lat="43.42668" lon="-0.37282">
        <ele>269.2</ele>
        <time>2026-08-31T12:20:13Z</time>
      </trkpt>
      <trkpt lat="43.42667" lon="-0.37282">
        <ele>270.2</ele>
        <time>2026-08-31T12:20:14Z</time>
      </trkpt>
      <trkpt lat="43.42667" lon="-0.37282">
        <ele>270.2</ele>
        <time>2026-08-31T12:20:14Z</time>
      </trkpt>
      <trkpt lat="43.42666" lon="-0.37283">
        <ele>270.2</ele>
        <time>2026-08-31T12:20:15Z</time>
      </trkpt>
      <trkpt lat="43.42666" lon="-0.37283">
        <ele>270.2</ele>
        <time>2026-08-31T12:20:15Z</time>
      </trkpt>
      <trkpt lat="43.42665" lon="-0.37284">
        <ele>270.2</ele>
        <time>2026-08-31T12:20:16Z</time>
      </trkpt>
      <trkpt lat="43.42664" lon="-0.37284">
        <ele>270.2</ele>
        <time>2026-08-31T12:20:16Z</time>
      </trkpt>
      <trkpt lat="43.42664" lon="-0.37285">
        <ele>271.2</ele>
        <time>2026-08-31T12:20:17Z</time>
      </trkpt>
      <trkpt lat="43.42663" lon="-0.37285">
        <ele>271.2</ele>
        <time>2026-08-31T12:20:18Z</time>
      </trkpt>
      <trkpt lat="43.42663" lon="-0.37285">
        <ele>270.2</ele>
        <time>2026-08-31T12:20:18Z</time>
      </trkpt>
      <trkpt lat="43.42662" lon="-0.37286">
        <ele>270.2</ele>
        <time>2026-08-31T12:20:19Z</time>
      </trkpt>
      <trkpt lat="43.42661" lon="-0.37286">
        <ele>270.2</ele>
        <time>2026-08-31T12:20:19Z</time>
      </trkpt>
      <trkpt lat="43.42661" lon="-0.37287">
        <ele>270.2</ele>
        <time>2026-08-31T12:20:20Z</time>
      </trkpt>
      <trkpt lat="43.4266" lon="-0.37287">
        <ele>270.2</ele>
        <time>2026-08-31T12:20:20Z</time>
      </trkpt>
      <trkpt lat="43.4266" lon="-0.37288">
        <ele>270.2</ele>
        <time>2026-08-31T12:20:21Z</time>
      </trkpt>
      <trkpt lat="43.42659" lon="-0.37288">
        <ele>270.2</ele>
        <time>2026-08-31T12:20:21Z</time>
      </trkpt>
      <trkpt lat="43.42659" lon="-0.37289">
        <ele>270.2</ele>
        <time>2026-08-31T12:20:22Z</time>
      </trkpt>
      <trkpt lat="43.42658" lon="-0.37289">
        <ele>270.2</ele>
        <time>2026-08-31T12:20:22Z</time>
      </trkpt>
      <trkpt lat="43.42658" lon="-0.3729">
        <ele>270.2</ele>
        <time>2026-08-31T12:20:23Z</time>
      </trkpt>
      <trkpt lat="43.42657" lon="-0.3729">
        <ele>270.2</ele>
        <time>2026-08-31T12:20:24Z</time>
      </trkpt>
      <trkpt lat="43.42657" lon="-0.3729">
        <ele>270.2</ele>
        <time>2026-08-31T12:20:24Z</time>
      </trkpt>
      <trkpt lat="43.42656" lon="-0.37291">
        <ele>270.2</ele>
        <time>2026-08-31T12:20:25Z</time>
      </trkpt>
      <trkpt lat="43.42656" lon="-0.37291">
        <ele>270.2</ele>
        <time>2026-08-31T12:20:25Z</time>
      </trkpt>
      <trkpt lat="43.42656" lon="-0.37291">
        <ele>269.2</ele>
        <time>2026-08-31T12:20:26Z</time>
      </trkpt>
      <trkpt lat="43.42656" lon="-0.37292">
        <ele>269.2</ele>
        <time>2026-08-31T12:20:26Z</time>
      </trkpt>
      <trkpt lat="43.42655" lon="-0.37293">
        <ele>269.2</ele>
        <time>2026-08-31T12:20:27Z</time>
      </trkpt>
      <trkpt lat="43.42655" lon="-0.37293">
        <ele>269.2</ele>
        <time>2026-08-31T12:20:27Z</time>
      </trkpt>
      <trkpt lat="43.42654" lon="-0.37294">
        <ele>269.2</ele>
        <time>2026-08-31T12:20:28Z</time>
      </trkpt>
      <trkpt lat="43.42654" lon="-0.37294">
        <ele>269.2</ele>
        <time>2026-08-31T12:20:28Z</time>
      </trkpt>
      <trkpt lat="43.42653" lon="-0.37295">
        <ele>268.2</ele>
        <time>2026-08-31T12:20:29Z</time>
      </trkpt>
      <trkpt lat="43.42653" lon="-0.37295">
        <ele>268.2</ele>
        <time>2026-08-31T12:20:29Z</time>
      </trkpt>
      <trkpt lat="43.42652" lon="-0.37296">
        <ele>269.2</ele>
        <time>2026-08-31T12:20:30Z</time>
      </trkpt>
      <trkpt lat="43.42652" lon="-0.37296">
        <ele>269.2</ele>
        <time>2026-08-31T12:20:31Z</time>
      </trkpt>
      <trkpt lat="43.42651" lon="-0.37297">
        <ele>269.2</ele>
        <time>2026-08-31T12:20:31Z</time>
      </trkpt>
      <trkpt lat="43.4265" lon="-0.37297">
        <ele>269.2</ele>
        <time>2026-08-31T12:20:32Z</time>
      </trkpt>
      <trkpt lat="43.4265" lon="-0.37298">
        <ele>269.2</ele>
        <time>2026-08-31T12:20:32Z</time>
      </trkpt>
      <trkpt lat="43.42649" lon="-0.37298">
        <ele>269.2</ele>
        <time>2026-08-31T12:20:33Z</time>
      </trkpt>
      <trkpt lat="43.42649" lon="-0.37299">
        <ele>269.2</ele>
        <time>2026-08-31T12:20:33Z</time>
      </trkpt>
      <trkpt lat="43.42648" lon="-0.37299">
        <ele>269.2</ele>
        <time>2026-08-31T12:20:34Z</time>
      </trkpt>
      <trkpt lat="43.42647" lon="-0.373">
        <ele>269.2</ele>
        <time>2026-08-31T12:20:34Z</time>
      </trkpt>
      <trkpt lat="43.42647" lon="-0.373">
        <ele>269.2</ele>
        <time>2026-08-31T12:20:35Z</time>
      </trkpt>
      <trkpt lat="43.42646" lon="-0.37301">
        <ele>269.2</ele>
        <time>2026-08-31T12:20:35Z</time>
      </trkpt>
      <trkpt lat="43.42646" lon="-0.37301">
        <ele>270.2</ele>
        <time>2026-08-31T12:20:36Z</time>
      </trkpt>
      <trkpt lat="43.42645" lon="-0.37302">
        <ele>270.2</ele>
        <time>2026-08-31T12:20:37Z</time>
      </trkpt>
      <trkpt lat="43.42645" lon="-0.37302">
        <ele>270.2</ele>
        <time>2026-08-31T12:20:37Z</time>
      </trkpt>
      <trkpt lat="43.42644" lon="-0.37303">
        <ele>270.2</ele>
        <time>2026-08-31T12:20:38Z</time>
      </trkpt>
      <trkpt lat="43.42643" lon="-0.37303">
        <ele>270.2</ele>
        <time>2026-08-31T12:20:38Z</time>
      </trkpt>
      <trkpt lat="43.42643" lon="-0.37303">
        <ele>270.2</ele>
        <time>2026-08-31T12:20:39Z</time>
      </trkpt>
      <trkpt lat="43.42642" lon="-0.37304">
        <ele>270.2</ele>
        <time>2026-08-31T12:20:39Z</time>
      </trkpt>
      <trkpt lat="43.42641" lon="-0.37305">
        <ele>269.2</ele>
        <time>2026-08-31T12:20:40Z</time>
      </trkpt>
      <trkpt lat="43.42641" lon="-0.37305">
        <ele>269.2</ele>
        <time>2026-08-31T12:20:40Z</time>
      </trkpt>
      <trkpt lat="43.4264" lon="-0.37306">
        <ele>269.2</ele>
        <time>2026-08-31T12:20:41Z</time>
      </trkpt>
      <trkpt lat="43.4264" lon="-0.37306">
        <ele>269.2</ele>
        <time>2026-08-31T12:20:42Z</time>
      </trkpt>
      <trkpt lat="43.42639" lon="-0.37307">
        <ele>269.2</ele>
        <time>2026-08-31T12:20:42Z</time>
      </trkpt>
      <trkpt lat="43.42638" lon="-0.37307">
        <ele>269.2</ele>
        <time>2026-08-31T12:20:43Z</time>
      </trkpt>
      <trkpt lat="43.42638" lon="-0.37307">
        <ele>269.2</ele>
        <time>2026-08-31T12:20:43Z</time>
      </trkpt>
      <trkpt lat="43.42637" lon="-0.37308">
        <ele>269.2</ele>
        <time>2026-08-31T12:20:44Z</time>
      </trkpt>
      <trkpt lat="43.42636" lon="-0.37308">
        <ele>269.2</ele>
        <time>2026-08-31T12:20:44Z</time>
      </trkpt>
      <trkpt lat="43.42636" lon="-0.37308">
        <ele>269.2</ele>
        <time>2026-08-31T12:20:45Z</time>
      </trkpt>
      <trkpt lat="43.42635" lon="-0.37309">
        <ele>269.2</ele>
        <time>2026-08-31T12:20:46Z</time>
      </trkpt>
      <trkpt lat="43.42634" lon="-0.37309">
        <ele>269.2</ele>
        <time>2026-08-31T12:20:46Z</time>
      </trkpt>
      <trkpt lat="43.42634" lon="-0.37309">
        <ele>269.2</ele>
        <time>2026-08-31T12:20:47Z</time>
      </trkpt>
      <trkpt lat="43.42633" lon="-0.37309">
        <ele>269.2</ele>
        <time>2026-08-31T12:20:47Z</time>
      </trkpt>
      <trkpt lat="43.42632" lon="-0.37309">
        <ele>269.2</ele>
        <time>2026-08-31T12:20:48Z</time>
      </trkpt>
      <trkpt lat="43.42631" lon="-0.3731">
        <ele>269.2</ele>
        <time>2026-08-31T12:20:48Z</time>
      </trkpt>
      <trkpt lat="43.42631" lon="-0.3731">
        <ele>269.2</ele>
        <time>2026-08-31T12:20:49Z</time>
      </trkpt>
      <trkpt lat="43.4263" lon="-0.3731">
        <ele>269.2</ele>
        <time>2026-08-31T12:20:50Z</time>
      </trkpt>
      <trkpt lat="43.42629" lon="-0.3731">
        <ele>269.2</ele>
        <time>2026-08-31T12:20:51Z</time>
      </trkpt>
      <trkpt lat="43.42629" lon="-0.37311">
        <ele>269.2</ele>
        <time>2026-08-31T12:20:52Z</time>
      </trkpt>
      <trkpt lat="43.42629" lon="-0.37311">
        <ele>269.2</ele>
        <time>2026-08-31T12:20:53Z</time>
      </trkpt>
      <trkpt lat="43.42629" lon="-0.37311">
        <ele>269.2</ele>
        <time>2026-08-31T12:20:54Z</time>
      </trkpt>
      <trkpt lat="43.42629" lon="-0.37311">
        <ele>269.2</ele>
        <time>2026-08-31T12:20:54Z</time>
      </trkpt>
      <trkpt lat="43.42629" lon="-0.37311">
        <ele>269.2</ele>
        <time>2026-08-31T12:20:55Z</time>
      </trkpt>
      <trkpt lat="43.42629" lon="-0.37312">
        <ele>270.2</ele>
        <time>2026-08-31T12:20:56Z</time>
      </trkpt>
      <trkpt lat="43.42629" lon="-0.37312">
        <ele>270.2</ele>
        <time>2026-08-31T12:20:57Z</time>
      </trkpt>
      <trkpt lat="43.42628" lon="-0.37312">
        <ele>269.2</ele>
        <time>2026-08-31T12:20:57Z</time>
      </trkpt>
      <trkpt lat="43.42628" lon="-0.37313">
        <ele>270.2</ele>
        <time>2026-08-31T12:20:58Z</time>
      </trkpt>
      <trkpt lat="43.42628" lon="-0.37313">
        <ele>270.2</ele>
        <time>2026-08-31T12:20:58Z</time>
      </trkpt>
      <trkpt lat="43.42627" lon="-0.37314">
        <ele>270.2</ele>
        <time>2026-08-31T12:20:59Z</time>
      </trkpt>
      <trkpt lat="43.42626" lon="-0.37315">
        <ele>270.2</ele>
        <time>2026-08-31T12:20:59Z</time>
      </trkpt>
      <trkpt lat="43.42625" lon="-0.37315">
        <ele>270.2</ele>
        <time>2026-08-31T12:21:00Z</time>
      </trkpt>
      <trkpt lat="43.42624" lon="-0.37316">
        <ele>270.2</ele>
        <time>2026-08-31T12:21:00Z</time>
      </trkpt>
      <trkpt lat="43.42623" lon="-0.37316">
        <ele>270.2</ele>
        <time>2026-08-31T12:21:01Z</time>
      </trkpt>
      <trkpt lat="43.42623" lon="-0.37317">
        <ele>270.2</ele>
        <time>2026-08-31T12:21:01Z</time>
      </trkpt>
      <trkpt lat="43.42622" lon="-0.37317">
        <ele>270.2</ele>
        <time>2026-08-31T12:21:02Z</time>
      </trkpt>
      <trkpt lat="43.42621" lon="-0.37318">
        <ele>270.2</ele>
        <time>2026-08-31T12:21:03Z</time>
      </trkpt>
      <trkpt lat="43.42621" lon="-0.37319">
        <ele>270.2</ele>
        <time>2026-08-31T12:21:03Z</time>
      </trkpt>
      <trkpt lat="43.4262" lon="-0.3732">
        <ele>270.2</ele>
        <time>2026-08-31T12:21:05Z</time>
      </trkpt>
      <trkpt lat="43.42619" lon="-0.37321">
        <ele>270.2</ele>
        <time>2026-08-31T12:21:05Z</time>
      </trkpt>
      <trkpt lat="43.42619" lon="-0.37322">
        <ele>270.2</ele>
        <time>2026-08-31T12:21:06Z</time>
      </trkpt>
      <trkpt lat="43.42619" lon="-0.37322">
        <ele>270.2</ele>
        <time>2026-08-31T12:21:07Z</time>
      </trkpt>
      <trkpt lat="43.42618" lon="-0.37323">
        <ele>270.2</ele>
        <time>2026-08-31T12:21:08Z</time>
      </trkpt>
      <trkpt lat="43.42617" lon="-0.37323">
        <ele>270.2</ele>
        <time>2026-08-31T12:21:08Z</time>
      </trkpt>
      <trkpt lat="43.42616" lon="-0.37323">
        <ele>270.2</ele>
        <time>2026-08-31T12:21:09Z</time>
      </trkpt>
      <trkpt lat="43.42616" lon="-0.37323">
        <ele>270.2</ele>
        <time>2026-08-31T12:21:09Z</time>
      </trkpt>
      <trkpt lat="43.42615" lon="-0.37323">
        <ele>270.2</ele>
        <time>2026-08-31T12:21:10Z</time>
      </trkpt>
      <trkpt lat="43.42615" lon="-0.37323">
        <ele>270.2</ele>
        <time>2026-08-31T12:21:10Z</time>
      </trkpt>
      <trkpt lat="43.42614" lon="-0.37323">
        <ele>270.2</ele>
        <time>2026-08-31T12:21:11Z</time>
      </trkpt>
      <trkpt lat="43.42613" lon="-0.37323">
        <ele>270.2</ele>
        <time>2026-08-31T12:21:11Z</time>
      </trkpt>
      <trkpt lat="43.42613" lon="-0.37323">
        <ele>270.2</ele>
        <time>2026-08-31T12:21:12Z</time>
      </trkpt>
      <trkpt lat="43.42612" lon="-0.37323">
        <ele>270.2</ele>
        <time>2026-08-31T12:21:12Z</time>
      </trkpt>
      <trkpt lat="43.42611" lon="-0.37322">
        <ele>269.2</ele>
        <time>2026-08-31T12:21:13Z</time>
      </trkpt>
      <trkpt lat="43.4261" lon="-0.37323">
        <ele>269.2</ele>
        <time>2026-08-31T12:21:14Z</time>
      </trkpt>
      <trkpt lat="43.42609" lon="-0.37323">
        <ele>269.2</ele>
        <time>2026-08-31T12:21:15Z</time>
      </trkpt>
      <trkpt lat="43.42609" lon="-0.37323">
        <ele>269.2</ele>
        <time>2026-08-31T12:21:16Z</time>
      </trkpt>
      <trkpt lat="43.42608" lon="-0.37323">
        <ele>269.2</ele>
        <time>2026-08-31T12:21:16Z</time>
      </trkpt>
      <trkpt lat="43.42607" lon="-0.37323">
        <ele>268.2</ele>
        <time>2026-08-31T12:21:17Z</time>
      </trkpt>
      <trkpt lat="43.42607" lon="-0.37323">
        <ele>268.2</ele>
        <time>2026-08-31T12:21:17Z</time>
      </trkpt>
      <trkpt lat="43.42606" lon="-0.37323">
        <ele>268.2</ele>
        <time>2026-08-31T12:21:18Z</time>
      </trkpt>
      <trkpt lat="43.42606" lon="-0.37323">
        <ele>268.2</ele>
        <time>2026-08-31T12:21:18Z</time>
      </trkpt>
      <trkpt lat="43.42605" lon="-0.37324">
        <ele>268.2</ele>
        <time>2026-08-31T12:21:19Z</time>
      </trkpt>
      <trkpt lat="43.42604" lon="-0.37324">
        <ele>268.2</ele>
        <time>2026-08-31T12:21:19Z</time>
      </trkpt>
      <trkpt lat="43.42604" lon="-0.37324">
        <ele>268.2</ele>
        <time>2026-08-31T12:21:20Z</time>
      </trkpt>
      <trkpt lat="43.42603" lon="-0.37324">
        <ele>268.2</ele>
        <time>2026-08-31T12:21:21Z</time>
      </trkpt>
      <trkpt lat="43.42602" lon="-0.37324">
        <ele>268.2</ele>
        <time>2026-08-31T12:21:21Z</time>
      </trkpt>
      <trkpt lat="43.42602" lon="-0.37324">
        <ele>268.2</ele>
        <time>2026-08-31T12:21:22Z</time>
      </trkpt>
      <trkpt lat="43.42601" lon="-0.37325">
        <ele>267.2</ele>
        <time>2026-08-31T12:21:22Z</time>
      </trkpt>
      <trkpt lat="43.426" lon="-0.37325">
        <ele>267.2</ele>
        <time>2026-08-31T12:21:23Z</time>
      </trkpt>
      <trkpt lat="43.426" lon="-0.37325">
        <ele>267.2</ele>
        <time>2026-08-31T12:21:23Z</time>
      </trkpt>
      <trkpt lat="43.42599" lon="-0.37326">
        <ele>267.2</ele>
        <time>2026-08-31T12:21:24Z</time>
      </trkpt>
      <trkpt lat="43.42599" lon="-0.37326">
        <ele>267.2</ele>
        <time>2026-08-31T12:21:24Z</time>
      </trkpt>
      <trkpt lat="43.42598" lon="-0.37327">
        <ele>267.2</ele>
        <time>2026-08-31T12:21:25Z</time>
      </trkpt>
      <trkpt lat="43.42598" lon="-0.37327">
        <ele>267.2</ele>
        <time>2026-08-31T12:21:26Z</time>
      </trkpt>
      <trkpt lat="43.42597" lon="-0.37327">
        <ele>267.2</ele>
        <time>2026-08-31T12:21:26Z</time>
      </trkpt>
      <trkpt lat="43.42596" lon="-0.37328">
        <ele>267.2</ele>
        <time>2026-08-31T12:21:27Z</time>
      </trkpt>
      <trkpt lat="43.42596" lon="-0.37328">
        <ele>267.2</ele>
        <time>2026-08-31T12:21:27Z</time>
      </trkpt>
      <trkpt lat="43.42594" lon="-0.37329">
        <ele>267.2</ele>
        <time>2026-08-31T12:21:28Z</time>
      </trkpt>
      <trkpt lat="43.42594" lon="-0.37329">
        <ele>267.2</ele>
        <time>2026-08-31T12:21:29Z</time>
      </trkpt>
      <trkpt lat="43.42593" lon="-0.37329">
        <ele>267.2</ele>
        <time>2026-08-31T12:21:29Z</time>
      </trkpt>
      <trkpt lat="43.42592" lon="-0.37329">
        <ele>268.2</ele>
        <time>2026-08-31T12:21:30Z</time>
      </trkpt>
      <trkpt lat="43.42592" lon="-0.3733">
        <ele>268.2</ele>
        <time>2026-08-31T12:21:31Z</time>
      </trkpt>
      <trkpt lat="43.42591" lon="-0.3733">
        <ele>268.2</ele>
        <time>2026-08-31T12:21:31Z</time>
      </trkpt>
      <trkpt lat="43.4259" lon="-0.3733">
        <ele>268.2</ele>
        <time>2026-08-31T12:21:32Z</time>
      </trkpt>
      <trkpt lat="43.4259" lon="-0.3733">
        <ele>267.2</ele>
        <time>2026-08-31T12:21:32Z</time>
      </trkpt>
      <trkpt lat="43.42589" lon="-0.3733">
        <ele>267.2</ele>
        <time>2026-08-31T12:21:33Z</time>
      </trkpt>
      <trkpt lat="43.42588" lon="-0.3733">
        <ele>267.2</ele>
        <time>2026-08-31T12:21:33Z</time>
      </trkpt>
      <trkpt lat="43.42587" lon="-0.3733">
        <ele>268.2</ele>
        <time>2026-08-31T12:21:34Z</time>
      </trkpt>
      <trkpt lat="43.42587" lon="-0.37331">
        <ele>268.2</ele>
        <time>2026-08-31T12:21:35Z</time>
      </trkpt>
      <trkpt lat="43.42586" lon="-0.37331">
        <ele>268.2</ele>
        <time>2026-08-31T12:21:35Z</time>
      </trkpt>
      <trkpt lat="43.42585" lon="-0.37331">
        <ele>268.2</ele>
        <time>2026-08-31T12:21:36Z</time>
      </trkpt>
      <trkpt lat="43.42585" lon="-0.37331">
        <ele>268.2</ele>
        <time>2026-08-31T12:21:36Z</time>
      </trkpt>
      <trkpt lat="43.42584" lon="-0.37332">
        <ele>268.2</ele>
        <time>2026-08-31T12:21:37Z</time>
      </trkpt>
      <trkpt lat="43.42583" lon="-0.37332">
        <ele>267.2</ele>
        <time>2026-08-31T12:21:37Z</time>
      </trkpt>
      <trkpt lat="43.42583" lon="-0.37332">
        <ele>268.2</ele>
        <time>2026-08-31T12:21:38Z</time>
      </trkpt>
      <trkpt lat="43.42582" lon="-0.37333">
        <ele>268.2</ele>
        <time>2026-08-31T12:21:38Z</time>
      </trkpt>
      <trkpt lat="43.42582" lon="-0.37333">
        <ele>268.2</ele>
        <time>2026-08-31T12:21:39Z</time>
      </trkpt>
      <trkpt lat="43.42581" lon="-0.37333">
        <ele>268.2</ele>
        <time>2026-08-31T12:21:39Z</time>
      </trkpt>
      <trkpt lat="43.4258" lon="-0.37333">
        <ele>269.2</ele>
        <time>2026-08-31T12:21:40Z</time>
      </trkpt>
      <trkpt lat="43.4258" lon="-0.37334">
        <ele>269.2</ele>
        <time>2026-08-31T12:21:41Z</time>
      </trkpt>
      <trkpt lat="43.42579" lon="-0.37334">
        <ele>269.2</ele>
        <time>2026-08-31T12:21:41Z</time>
      </trkpt>
      <trkpt lat="43.42579" lon="-0.37335">
        <ele>270.2</ele>
        <time>2026-08-31T12:21:42Z</time>
      </trkpt>
      <trkpt lat="43.42578" lon="-0.37335">
        <ele>270.2</ele>
        <time>2026-08-31T12:21:42Z</time>
      </trkpt>
      <trkpt lat="43.42577" lon="-0.37335">
        <ele>269.2</ele>
        <time>2026-08-31T12:21:43Z</time>
      </trkpt>
      <trkpt lat="43.42577" lon="-0.37336">
        <ele>269.2</ele>
        <time>2026-08-31T12:21:43Z</time>
      </trkpt>
      <trkpt lat="43.42576" lon="-0.37336">
        <ele>269.2</ele>
        <time>2026-08-31T12:21:44Z</time>
      </trkpt>
      <trkpt lat="43.42576" lon="-0.37337">
        <ele>269.2</ele>
        <time>2026-08-31T12:21:44Z</time>
      </trkpt>
      <trkpt lat="43.42575" lon="-0.37337">
        <ele>269.2</ele>
        <time>2026-08-31T12:21:45Z</time>
      </trkpt>
      <trkpt lat="43.42574" lon="-0.37337">
        <ele>269.2</ele>
        <time>2026-08-31T12:21:45Z</time>
      </trkpt>
      <trkpt lat="43.42574" lon="-0.37338">
        <ele>268.2</ele>
        <time>2026-08-31T12:21:46Z</time>
      </trkpt>
      <trkpt lat="43.42573" lon="-0.37338">
        <ele>268.2</ele>
        <time>2026-08-31T12:21:47Z</time>
      </trkpt>
      <trkpt lat="43.42572" lon="-0.37338">
        <ele>269.2</ele>
        <time>2026-08-31T12:21:47Z</time>
      </trkpt>
      <trkpt lat="43.42572" lon="-0.37339">
        <ele>269.2</ele>
        <time>2026-08-31T12:21:48Z</time>
      </trkpt>
      <trkpt lat="43.42571" lon="-0.37339">
        <ele>269.2</ele>
        <time>2026-08-31T12:21:48Z</time>
      </trkpt>
      <trkpt lat="43.4257" lon="-0.37339">
        <ele>269.2</ele>
        <time>2026-08-31T12:21:49Z</time>
      </trkpt>
      <trkpt lat="43.4257" lon="-0.3734">
        <ele>269.2</ele>
        <time>2026-08-31T12:21:49Z</time>
      </trkpt>
      <trkpt lat="43.42569" lon="-0.3734">
        <ele>269.2</ele>
        <time>2026-08-31T12:21:50Z</time>
      </trkpt>
      <trkpt lat="43.42569" lon="-0.37341">
        <ele>269.2</ele>
        <time>2026-08-31T12:21:50Z</time>
      </trkpt>
      <trkpt lat="43.42568" lon="-0.37341">
        <ele>268.2</ele>
        <time>2026-08-31T12:21:51Z</time>
      </trkpt>
      <trkpt lat="43.42567" lon="-0.37341">
        <ele>268.2</ele>
        <time>2026-08-31T12:21:52Z</time>
      </trkpt>
      <trkpt lat="43.42566" lon="-0.37342">
        <ele>268.2</ele>
        <time>2026-08-31T12:21:52Z</time>
      </trkpt>
      <trkpt lat="43.42565" lon="-0.37342">
        <ele>267.2</ele>
        <time>2026-08-31T12:21:53Z</time>
      </trkpt>
      <trkpt lat="43.42565" lon="-0.37342">
        <ele>267.2</ele>
        <time>2026-08-31T12:21:53Z</time>
      </trkpt>
      <trkpt lat="43.42564" lon="-0.37342">
        <ele>267.2</ele>
        <time>2026-08-31T12:21:54Z</time>
      </trkpt>
      <trkpt lat="43.42563" lon="-0.37342">
        <ele>267.2</ele>
        <time>2026-08-31T12:21:55Z</time>
      </trkpt>
      <trkpt lat="43.42563" lon="-0.37342">
        <ele>267.2</ele>
        <time>2026-08-31T12:21:55Z</time>
      </trkpt>
      <trkpt lat="43.42562" lon="-0.37342">
        <ele>267.2</ele>
        <time>2026-08-31T12:21:56Z</time>
      </trkpt>
      <trkpt lat="43.42562" lon="-0.37342">
        <ele>267.2</ele>
        <time>2026-08-31T12:21:56Z</time>
      </trkpt>
      <trkpt lat="43.42561" lon="-0.37342">
        <ele>267.2</ele>
        <time>2026-08-31T12:21:57Z</time>
      </trkpt>
      <trkpt lat="43.4256" lon="-0.37342">
        <ele>267.2</ele>
        <time>2026-08-31T12:21:57Z</time>
      </trkpt>
      <trkpt lat="43.4256" lon="-0.37342">
        <ele>267.2</ele>
        <time>2026-08-31T12:21:58Z</time>
      </trkpt>
      <trkpt lat="43.42559" lon="-0.37342">
        <ele>267.2</ele>
        <time>2026-08-31T12:21:58Z</time>
      </trkpt>
      <trkpt lat="43.42558" lon="-0.37342">
        <ele>267.2</ele>
        <time>2026-08-31T12:21:59Z</time>
      </trkpt>
      <trkpt lat="43.42558" lon="-0.37342">
        <ele>267.2</ele>
        <time>2026-08-31T12:21:59Z</time>
      </trkpt>
      <trkpt lat="43.42557" lon="-0.37342">
        <ele>266.2</ele>
        <time>2026-08-31T12:22:00Z</time>
      </trkpt>
      <trkpt lat="43.42556" lon="-0.37342">
        <ele>266.2</ele>
        <time>2026-08-31T12:22:01Z</time>
      </trkpt>
      <trkpt lat="43.42555" lon="-0.37342">
        <ele>266.2</ele>
        <time>2026-08-31T12:22:01Z</time>
      </trkpt>
      <trkpt lat="43.42555" lon="-0.37342">
        <ele>266.2</ele>
        <time>2026-08-31T12:22:02Z</time>
      </trkpt>
      <trkpt lat="43.42554" lon="-0.37342">
        <ele>266.2</ele>
        <time>2026-08-31T12:22:02Z</time>
      </trkpt>
      <trkpt lat="43.42553" lon="-0.37342">
        <ele>266.2</ele>
        <time>2026-08-31T12:22:03Z</time>
      </trkpt>
      <trkpt lat="43.42552" lon="-0.37342">
        <ele>266.2</ele>
        <time>2026-08-31T12:22:03Z</time>
      </trkpt>
      <trkpt lat="43.42551" lon="-0.37343">
        <ele>266.2</ele>
        <time>2026-08-31T12:22:04Z</time>
      </trkpt>
      <trkpt lat="43.42551" lon="-0.37343">
        <ele>266.2</ele>
        <time>2026-08-31T12:22:04Z</time>
      </trkpt>
      <trkpt lat="43.4255" lon="-0.37343">
        <ele>266.2</ele>
        <time>2026-08-31T12:22:05Z</time>
      </trkpt>
      <trkpt lat="43.42549" lon="-0.37344">
        <ele>266.2</ele>
        <time>2026-08-31T12:22:05Z</time>
      </trkpt>
      <trkpt lat="43.42548" lon="-0.37344">
        <ele>266.2</ele>
        <time>2026-08-31T12:22:06Z</time>
      </trkpt>
      <trkpt lat="43.42547" lon="-0.37345">
        <ele>266.2</ele>
        <time>2026-08-31T12:22:07Z</time>
      </trkpt>
      <trkpt lat="43.42547" lon="-0.37345">
        <ele>266.2</ele>
        <time>2026-08-31T12:22:08Z</time>
      </trkpt>
      <trkpt lat="43.42546" lon="-0.37345">
        <ele>266.2</ele>
        <time>2026-08-31T12:22:08Z</time>
      </trkpt>
      <trkpt lat="43.42545" lon="-0.37346">
        <ele>266.2</ele>
        <time>2026-08-31T12:22:09Z</time>
      </trkpt>
      <trkpt lat="43.42545" lon="-0.37346">
        <ele>266.2</ele>
        <time>2026-08-31T12:22:09Z</time>
      </trkpt>
      <trkpt lat="43.42544" lon="-0.37346">
        <ele>266.2</ele>
        <time>2026-08-31T12:22:10Z</time>
      </trkpt>
      <trkpt lat="43.42543" lon="-0.37346">
        <ele>266.2</ele>
        <time>2026-08-31T12:22:10Z</time>
      </trkpt>
      <trkpt lat="43.42542" lon="-0.37346">
        <ele>266.2</ele>
        <time>2026-08-31T12:22:11Z</time>
      </trkpt>
      <trkpt lat="43.42542" lon="-0.37347">
        <ele>267.2</ele>
        <time>2026-08-31T12:22:12Z</time>
      </trkpt>
      <trkpt lat="43.42541" lon="-0.37347">
        <ele>267.2</ele>
        <time>2026-08-31T12:22:12Z</time>
      </trkpt>
      <trkpt lat="43.4254" lon="-0.37347">
        <ele>267.2</ele>
        <time>2026-08-31T12:22:13Z</time>
      </trkpt>
      <trkpt lat="43.4254" lon="-0.37347">
        <ele>266.2</ele>
        <time>2026-08-31T12:22:13Z</time>
      </trkpt>
      <trkpt lat="43.42539" lon="-0.37347">
        <ele>266.2</ele>
        <time>2026-08-31T12:22:14Z</time>
      </trkpt>
      <trkpt lat="43.42538" lon="-0.37347">
        <ele>266.2</ele>
        <time>2026-08-31T12:22:14Z</time>
      </trkpt>
      <trkpt lat="43.42538" lon="-0.37347">
        <ele>267.2</ele>
        <time>2026-08-31T12:22:15Z</time>
      </trkpt>
      <trkpt lat="43.42537" lon="-0.37347">
        <ele>267.2</ele>
        <time>2026-08-31T12:22:15Z</time>
      </trkpt>
      <trkpt lat="43.42537" lon="-0.37347">
        <ele>267.2</ele>
        <time>2026-08-31T12:22:16Z</time>
      </trkpt>
      <trkpt lat="43.42536" lon="-0.37347">
        <ele>267.2</ele>
        <time>2026-08-31T12:22:16Z</time>
      </trkpt>
      <trkpt lat="43.42535" lon="-0.37347">
        <ele>267.2</ele>
        <time>2026-08-31T12:22:17Z</time>
      </trkpt>
      <trkpt lat="43.42534" lon="-0.37347">
        <ele>267.2</ele>
        <time>2026-08-31T12:22:18Z</time>
      </trkpt>
      <trkpt lat="43.42534" lon="-0.37347">
        <ele>266.2</ele>
        <time>2026-08-31T12:22:18Z</time>
      </trkpt>
      <trkpt lat="43.42533" lon="-0.37347">
        <ele>266.2</ele>
        <time>2026-08-31T12:22:19Z</time>
      </trkpt>
      <trkpt lat="43.42532" lon="-0.37347">
        <ele>266.2</ele>
        <time>2026-08-31T12:22:19Z</time>
      </trkpt>
      <trkpt lat="43.42531" lon="-0.37347">
        <ele>266.2</ele>
        <time>2026-08-31T12:22:20Z</time>
      </trkpt>
      <trkpt lat="43.42531" lon="-0.37347">
        <ele>266.2</ele>
        <time>2026-08-31T12:22:20Z</time>
      </trkpt>
      <trkpt lat="43.4253" lon="-0.37347">
        <ele>266.2</ele>
        <time>2026-08-31T12:22:21Z</time>
      </trkpt>
      <trkpt lat="43.42529" lon="-0.37347">
        <ele>266.2</ele>
        <time>2026-08-31T12:22:22Z</time>
      </trkpt>
      <trkpt lat="43.42529" lon="-0.37347">
        <ele>266.2</ele>
        <time>2026-08-31T12:22:22Z</time>
      </trkpt>
      <trkpt lat="43.42528" lon="-0.37347">
        <ele>266.2</ele>
        <time>2026-08-31T12:22:23Z</time>
      </trkpt>
      <trkpt lat="43.42527" lon="-0.37347">
        <ele>266.2</ele>
        <time>2026-08-31T12:22:23Z</time>
      </trkpt>
      <trkpt lat="43.42527" lon="-0.37347">
        <ele>266.2</ele>
        <time>2026-08-31T12:22:24Z</time>
      </trkpt>
      <trkpt lat="43.42526" lon="-0.37347">
        <ele>266.2</ele>
        <time>2026-08-31T12:22:25Z</time>
      </trkpt>
      <trkpt lat="43.42525" lon="-0.37347">
        <ele>266.2</ele>
        <time>2026-08-31T12:22:25Z</time>
      </trkpt>
      <trkpt lat="43.42525" lon="-0.37347">
        <ele>266.2</ele>
        <time>2026-08-31T12:22:26Z</time>
      </trkpt>
      <trkpt lat="43.42524" lon="-0.37347">
        <ele>266.2</ele>
        <time>2026-08-31T12:22:26Z</time>
      </trkpt>
      <trkpt lat="43.42524" lon="-0.37347">
        <ele>266.2</ele>
        <time>2026-08-31T12:22:27Z</time>
      </trkpt>
      <trkpt lat="43.42523" lon="-0.37347">
        <ele>266.2</ele>
        <time>2026-08-31T12:22:28Z</time>
      </trkpt>
      <trkpt lat="43.42523" lon="-0.37347">
        <ele>266.2</ele>
        <time>2026-08-31T12:22:28Z</time>
      </trkpt>
      <trkpt lat="43.42522" lon="-0.37348">
        <ele>266.2</ele>
        <time>2026-08-31T12:22:30Z</time>
      </trkpt>
      <trkpt lat="43.42522" lon="-0.37348">
        <ele>266.2</ele>
        <time>2026-08-31T12:22:31Z</time>
      </trkpt>
      <trkpt lat="43.42523" lon="-0.37348">
        <ele>266.2</ele>
        <time>2026-08-31T12:22:32Z</time>
      </trkpt>
      <trkpt lat="43.42523" lon="-0.37348">
        <ele>266.2</ele>
        <time>2026-08-31T12:22:33Z</time>
      </trkpt>
      <trkpt lat="43.42523" lon="-0.37348">
        <ele>266.2</ele>
        <time>2026-08-31T12:22:34Z</time>
      </trkpt>
      <trkpt lat="43.42524" lon="-0.37348">
        <ele>266.2</ele>
        <time>2026-08-31T12:22:35Z</time>
      </trkpt>
      <trkpt lat="43.42524" lon="-0.37348">
        <ele>266.2</ele>
        <time>2026-08-31T12:22:36Z</time>
      </trkpt>
      <trkpt lat="43.42524" lon="-0.37348">
        <ele>266.2</ele>
        <time>2026-08-31T12:22:37Z</time>
      </trkpt>
      <trkpt lat="43.42524" lon="-0.37347">
        <ele>266.2</ele>
        <time>2026-08-31T12:22:38Z</time>
      </trkpt>
      <trkpt lat="43.42524" lon="-0.37347">
        <ele>266.2</ele>
        <time>2026-08-31T12:22:39Z</time>
      </trkpt>
      <trkpt lat="43.42524" lon="-0.37347">
        <ele>266.2</ele>
        <time>2026-08-31T12:22:40Z</time>
      </trkpt>
      <trkpt lat="43.42524" lon="-0.37347">
        <ele>266.2</ele>
        <time>2026-08-31T12:22:41Z</time>
      </trkpt>
    </trkseg>
  </trk>
</gpx>